<?xml version='1.0' encoding='UTF-8'?><gpx version="1.1" creator="JPX - https://github.com/jenetics/jpx" xmlns="http://www.topografix.com/GPX/1/1"><trk><trkseg><trkpt lat="41.9429697" lon="2.2481646"><ele>478.99999999999994</ele><time>2026-04-25T07:28:05.922Z</time></trkpt><trkpt lat="41.9429181" lon="2.248228"><ele>479.0</ele><time>2026-04-25T07:30:45.924Z</time></trkpt><trkpt lat="41.9428726" lon="2.2483319"><ele>479.0</ele><time>2026-04-25T07:30:48.923Z</time></trkpt><trkpt lat="41.9428369" lon="2.2484476"><ele>479.0</ele><time>2026-04-25T07:30:51.924Z</time></trkpt><trkpt lat="41.9428047" lon="2.2485371"><ele>478.99999999999994</ele><time>2026-04-25T07:30:54.923Z</time></trkpt><trkpt lat="41.9427828" lon="2.248618"><ele>479.0</ele><time>2026-04-25T07:30:59.922Z</time></trkpt><trkpt lat="41.9428264" lon="2.2487074"><ele>478.99999999999994</ele><time>2026-04-25T07:31:02.922Z</time></trkpt><trkpt lat="41.9429027" lon="2.2487047"><ele>479.0</ele><time>2026-04-25T07:31:04.923Z</time></trkpt><trkpt lat="41.943026" lon="2.2487176"><ele>479.0</ele><time>2026-04-25T07:31:06.924Z</time></trkpt><trkpt lat="41.943097" lon="2.2487325"><ele>479.0</ele><time>2026-04-25T07:31:07.924Z</time></trkpt><trkpt lat="41.9431717" lon="2.2487522"><ele>478.99999999999994</ele><time>2026-04-25T07:31:08.924Z</time></trkpt><trkpt lat="41.9432544" lon="2.2487722"><ele>479.0</ele><time>2026-04-25T07:31:09.924Z</time></trkpt><trkpt lat="41.9433527" lon="2.2487928"><ele>478.79999999999995</ele><time>2026-04-25T07:31:10.924Z</time></trkpt><trkpt lat="41.9434577" lon="2.2488195"><ele>478.59999999999997</ele><time>2026-04-25T07:31:11.924Z</time></trkpt><trkpt lat="41.9435623" lon="2.2488468"><ele>478.4</ele><time>2026-04-25T07:31:12.923Z</time></trkpt><trkpt lat="41.9436654" lon="2.2488775"><ele>478.2</ele><time>2026-04-25T07:31:13.924Z</time></trkpt><trkpt lat="41.9437682" lon="2.2489092"><ele>478.0</ele><time>2026-04-25T07:31:14.923Z</time></trkpt><trkpt lat="41.9438677" lon="2.2489378"><ele>478.0</ele><time>2026-04-25T07:31:15.922Z</time></trkpt><trkpt lat="41.9439622" lon="2.2489605"><ele>477.99999999999994</ele><time>2026-04-25T07:31:16.923Z</time></trkpt><trkpt lat="41.9440531" lon="2.2489876"><ele>477.99999999999994</ele><time>2026-04-25T07:31:17.923Z</time></trkpt><trkpt lat="41.9441387" lon="2.249011"><ele>478.0</ele><time>2026-04-25T07:31:18.924Z</time></trkpt><trkpt lat="41.9442262" lon="2.2490304"><ele>478.0</ele><time>2026-04-25T07:31:19.924Z</time></trkpt><trkpt lat="41.9443125" lon="2.2490533"><ele>478.0</ele><time>2026-04-25T07:31:20.923Z</time></trkpt><trkpt lat="41.9444035" lon="2.2490797"><ele>477.99999999999994</ele><time>2026-04-25T07:31:21.923Z</time></trkpt><trkpt lat="41.9444941" lon="2.2491085"><ele>477.99999999999994</ele><time>2026-04-25T07:31:22.923Z</time></trkpt><trkpt lat="41.9445888" lon="2.2491372"><ele>478.0</ele><time>2026-04-25T07:31:23.923Z</time></trkpt><trkpt lat="41.944685" lon="2.2491674"><ele>478.0</ele><time>2026-04-25T07:31:24.923Z</time></trkpt><trkpt lat="41.9447759" lon="2.2491996"><ele>478.00000000000006</ele><time>2026-04-25T07:31:25.924Z</time></trkpt><trkpt lat="41.9448652" lon="2.249228"><ele>478.0</ele><time>2026-04-25T07:31:26.923Z</time></trkpt><trkpt lat="41.9449533" lon="2.2492588"><ele>478.0</ele><time>2026-04-25T07:31:27.923Z</time></trkpt><trkpt lat="41.9450403" lon="2.2492855"><ele>478.0</ele><time>2026-04-25T07:31:28.924Z</time></trkpt><trkpt lat="41.9451266" lon="2.2493142"><ele>478.00000000000006</ele><time>2026-04-25T07:31:29.924Z</time></trkpt><trkpt lat="41.9452078" lon="2.2493437"><ele>478.0</ele><time>2026-04-25T07:31:30.924Z</time></trkpt><trkpt lat="41.9452908" lon="2.2493677"><ele>478.1666666666667</ele><time>2026-04-25T07:31:31.922Z</time></trkpt><trkpt lat="41.9453826" lon="2.2493947"><ele>478.33333333333337</ele><time>2026-04-25T07:31:32.924Z</time></trkpt><trkpt lat="41.9454692" lon="2.249432"><ele>478.5</ele><time>2026-04-25T07:31:33.923Z</time></trkpt><trkpt lat="41.9455471" lon="2.2494942"><ele>478.66666666666663</ele><time>2026-04-25T07:31:34.924Z</time></trkpt><trkpt lat="41.9456086" lon="2.249575"><ele>478.8333333333333</ele><time>2026-04-25T07:31:35.923Z</time></trkpt><trkpt lat="41.9456573" lon="2.2496703"><ele>479.0</ele><time>2026-04-25T07:31:36.923Z</time></trkpt><trkpt lat="41.9456962" lon="2.2497785"><ele>478.4</ele><time>2026-04-25T07:31:37.923Z</time></trkpt><trkpt lat="41.9457169" lon="2.2498991"><ele>477.79999999999995</ele><time>2026-04-25T07:31:38.922Z</time></trkpt><trkpt lat="41.9457225" lon="2.2500225"><ele>477.20000000000005</ele><time>2026-04-25T07:31:39.924Z</time></trkpt><trkpt lat="41.9457107" lon="2.2501529"><ele>476.6</ele><time>2026-04-25T07:31:40.924Z</time></trkpt><trkpt lat="41.945695" lon="2.2502852"><ele>476.0</ele><time>2026-04-25T07:31:41.923Z</time></trkpt><trkpt lat="41.9456755" lon="2.2504218"><ele>476.0</ele><time>2026-04-25T07:31:42.923Z</time></trkpt><trkpt lat="41.9456568" lon="2.2505632"><ele>476.0</ele><time>2026-04-25T07:31:43.923Z</time></trkpt><trkpt lat="41.9456389" lon="2.2507027"><ele>476.0</ele><time>2026-04-25T07:31:44.923Z</time></trkpt><trkpt lat="41.9456215" lon="2.2508362"><ele>476.0</ele><time>2026-04-25T07:31:45.924Z</time></trkpt><trkpt lat="41.9456033" lon="2.2509702"><ele>476.0</ele><time>2026-04-25T07:31:46.923Z</time></trkpt><trkpt lat="41.9455816" lon="2.2511095"><ele>476.0</ele><time>2026-04-25T07:31:47.924Z</time></trkpt><trkpt lat="41.9455683" lon="2.2512571"><ele>476.0</ele><time>2026-04-25T07:31:48.923Z</time></trkpt><trkpt lat="41.9455686" lon="2.2514049"><ele>476.0</ele><time>2026-04-25T07:31:49.923Z</time></trkpt><trkpt lat="41.9455774" lon="2.2515409"><ele>476.0</ele><time>2026-04-25T07:31:50.924Z</time></trkpt><trkpt lat="41.9455919" lon="2.2516712"><ele>476.0</ele><time>2026-04-25T07:31:51.922Z</time></trkpt><trkpt lat="41.9456081" lon="2.2517944"><ele>475.99999999999994</ele><time>2026-04-25T07:31:52.922Z</time></trkpt><trkpt lat="41.9456239" lon="2.2519078"><ele>476.0</ele><time>2026-04-25T07:31:53.923Z</time></trkpt><trkpt lat="41.9456392" lon="2.252015"><ele>476.0</ele><time>2026-04-25T07:31:54.923Z</time></trkpt><trkpt lat="41.9456515" lon="2.2521167"><ele>476.0</ele><time>2026-04-25T07:31:55.923Z</time></trkpt><trkpt lat="41.9456609" lon="2.2522178"><ele>475.99999999999994</ele><time>2026-04-25T07:31:56.923Z</time></trkpt><trkpt lat="41.9456686" lon="2.252316"><ele>476.0</ele><time>2026-04-25T07:31:57.922Z</time></trkpt><trkpt lat="41.9456614" lon="2.2524146"><ele>476.16666666666663</ele><time>2026-04-25T07:31:58.922Z</time></trkpt><trkpt lat="41.9456438" lon="2.2525019"><ele>476.3333333333333</ele><time>2026-04-25T07:31:59.923Z</time></trkpt><trkpt lat="41.9456329" lon="2.2525905"><ele>476.5</ele><time>2026-04-25T07:32:00.922Z</time></trkpt><trkpt lat="41.9456386" lon="2.2526874"><ele>476.66666666666663</ele><time>2026-04-25T07:32:01.921Z</time></trkpt><trkpt lat="41.9456622" lon="2.2527761"><ele>476.8333333333333</ele><time>2026-04-25T07:32:02.922Z</time></trkpt><trkpt lat="41.9457033" lon="2.2528403"><ele>477.0</ele><time>2026-04-25T07:32:03.923Z</time></trkpt><trkpt lat="41.9458241" lon="2.2528763"><ele>477.20000000000005</ele><time>2026-04-25T07:32:05.922Z</time></trkpt><trkpt lat="41.9459372" lon="2.252825"><ele>477.40000000000003</ele><time>2026-04-25T07:32:07.922Z</time></trkpt><trkpt lat="41.9460169" lon="2.2528183"><ele>477.59999999999997</ele><time>2026-04-25T07:32:09.922Z</time></trkpt><trkpt lat="41.946046" lon="2.2529206"><ele>477.79999999999995</ele><time>2026-04-25T07:32:12.923Z</time></trkpt><trkpt lat="41.9459946" lon="2.2530037"><ele>478.0</ele><time>2026-04-25T07:32:14.922Z</time></trkpt><trkpt lat="41.945952" lon="2.2531214"><ele>478.00000000000006</ele><time>2026-04-25T07:32:16.923Z</time></trkpt><trkpt lat="41.9459522" lon="2.2532249"><ele>478.0</ele><time>2026-04-25T07:32:18.922Z</time></trkpt><trkpt lat="41.9459675" lon="2.253308"><ele>478.00000000000006</ele><time>2026-04-25T07:32:20.921Z</time></trkpt><trkpt lat="41.946002" lon="2.2534014"><ele>478.00000000000006</ele><time>2026-04-25T07:32:24.923Z</time></trkpt><trkpt lat="41.9460624" lon="2.2533601"><ele>478.0</ele><time>2026-04-25T07:34:34.922Z</time></trkpt><trkpt lat="41.9460019" lon="2.2533137"><ele>478.00000000000006</ele><time>2026-04-25T07:34:38.922Z</time></trkpt><trkpt lat="41.945953" lon="2.253384"><ele>478.00000000000006</ele><time>2026-04-25T07:35:16.921Z</time></trkpt><trkpt lat="41.9458766" lon="2.2533695"><ele>478.00000000000006</ele><time>2026-04-25T07:35:19.922Z</time></trkpt><trkpt lat="41.9458651" lon="2.2532552"><ele>478.0</ele><time>2026-04-25T07:35:21.922Z</time></trkpt><trkpt lat="41.9458694" lon="2.253168"><ele>478.0</ele><time>2026-04-25T07:35:22.922Z</time></trkpt><trkpt lat="41.9458809" lon="2.2530662"><ele>478.0</ele><time>2026-04-25T07:35:23.921Z</time></trkpt><trkpt lat="41.9459049" lon="2.2529657"><ele>478.00000000000006</ele><time>2026-04-25T07:35:24.923Z</time></trkpt><trkpt lat="41.9459314" lon="2.2528677"><ele>478.0</ele><time>2026-04-25T07:35:25.923Z</time></trkpt><trkpt lat="41.9459417" lon="2.2527681"><ele>478.00000000000006</ele><time>2026-04-25T07:35:26.922Z</time></trkpt><trkpt lat="41.9459251" lon="2.252665"><ele>478.0</ele><time>2026-04-25T07:35:27.922Z</time></trkpt><trkpt lat="41.9458877" lon="2.2525765"><ele>478.0</ele><time>2026-04-25T07:35:28.921Z</time></trkpt><trkpt lat="41.945838" lon="2.2524996"><ele>478.0</ele><time>2026-04-25T07:35:29.922Z</time></trkpt><trkpt lat="41.945787" lon="2.2524107"><ele>478.00000000000006</ele><time>2026-04-25T07:35:30.923Z</time></trkpt><trkpt lat="41.9457482" lon="2.2523062"><ele>478.0</ele><time>2026-04-25T07:35:31.923Z</time></trkpt><trkpt lat="41.9457178" lon="2.2522037"><ele>477.6666666666667</ele><time>2026-04-25T07:35:32.922Z</time></trkpt><trkpt lat="41.9456937" lon="2.252104"><ele>477.33333333333337</ele><time>2026-04-25T07:35:33.922Z</time></trkpt><trkpt lat="41.9456716" lon="2.2519944"><ele>477.0</ele><time>2026-04-25T07:35:34.922Z</time></trkpt><trkpt lat="41.9456539" lon="2.2518827"><ele>476.66666666666663</ele><time>2026-04-25T07:35:35.923Z</time></trkpt><trkpt lat="41.9456384" lon="2.2517677"><ele>476.3333333333333</ele><time>2026-04-25T07:35:36.922Z</time></trkpt><trkpt lat="41.9456261" lon="2.2516516"><ele>476.0</ele><time>2026-04-25T07:35:37.923Z</time></trkpt><trkpt lat="41.9456168" lon="2.2515303"><ele>476.0</ele><time>2026-04-25T07:35:38.921Z</time></trkpt><trkpt lat="41.9456135" lon="2.2514007"><ele>476.0</ele><time>2026-04-25T07:35:39.922Z</time></trkpt><trkpt lat="41.9456189" lon="2.2512684"><ele>476.0</ele><time>2026-04-25T07:35:40.922Z</time></trkpt><trkpt lat="41.9456304" lon="2.2511325"><ele>476.0</ele><time>2026-04-25T07:35:41.923Z</time></trkpt><trkpt lat="41.945644" lon="2.2509944"><ele>476.0</ele><time>2026-04-25T07:35:42.922Z</time></trkpt><trkpt lat="41.9456629" lon="2.2508537"><ele>476.0</ele><time>2026-04-25T07:35:43.922Z</time></trkpt><trkpt lat="41.9456797" lon="2.2507092"><ele>476.0</ele><time>2026-04-25T07:35:44.922Z</time></trkpt><trkpt lat="41.9457009" lon="2.2505652"><ele>476.0</ele><time>2026-04-25T07:35:45.922Z</time></trkpt><trkpt lat="41.945721" lon="2.250431"><ele>476.0</ele><time>2026-04-25T07:35:46.922Z</time></trkpt><trkpt lat="41.9457383" lon="2.2503134"><ele>476.0</ele><time>2026-04-25T07:35:47.921Z</time></trkpt><trkpt lat="41.9457543" lon="2.2502103"><ele>476.0</ele><time>2026-04-25T07:35:48.921Z</time></trkpt><trkpt lat="41.9457678" lon="2.2501191"><ele>476.0</ele><time>2026-04-25T07:35:49.922Z</time></trkpt><trkpt lat="41.945795" lon="2.2499736"><ele>476.0</ele><time>2026-04-25T07:35:51.922Z</time></trkpt><trkpt lat="41.9458594" lon="2.2498251"><ele>476.0</ele><time>2026-04-25T07:35:53.922Z</time></trkpt><trkpt lat="41.9459144" lon="2.2497624"><ele>476.0</ele><time>2026-04-25T07:35:54.922Z</time></trkpt><trkpt lat="41.9459694" lon="2.2497044"><ele>477.49999999999994</ele><time>2026-04-25T07:35:55.921Z</time></trkpt><trkpt lat="41.9460119" lon="2.2496323"><ele>479.0</ele><time>2026-04-25T07:35:56.923Z</time></trkpt><trkpt lat="41.9460356" lon="2.2495401"><ele>480.5</ele><time>2026-04-25T07:35:57.921Z</time></trkpt><trkpt lat="41.9460368" lon="2.2494356"><ele>482.0</ele><time>2026-04-25T07:35:58.921Z</time></trkpt><trkpt lat="41.9460105" lon="2.2493204"><ele>483.49999999999994</ele><time>2026-04-25T07:35:59.923Z</time></trkpt><trkpt lat="41.9459706" lon="2.2491976"><ele>485.0</ele><time>2026-04-25T07:36:00.922Z</time></trkpt><trkpt lat="41.9459486" lon="2.2490697"><ele>485.0</ele><time>2026-04-25T07:36:01.922Z</time></trkpt><trkpt lat="41.9459465" lon="2.248925"><ele>485.0</ele><time>2026-04-25T07:36:02.921Z</time></trkpt><trkpt lat="41.9459593" lon="2.2487512"><ele>485.0</ele><time>2026-04-25T07:36:03.922Z</time></trkpt><trkpt lat="41.9459843" lon="2.2485502"><ele>485.0</ele><time>2026-04-25T07:36:04.922Z</time></trkpt><trkpt lat="41.9460181" lon="2.2483314"><ele>484.0</ele><time>2026-04-25T07:36:05.922Z</time></trkpt><trkpt lat="41.9460569" lon="2.2480857"><ele>483.0</ele><time>2026-04-25T07:36:06.922Z</time></trkpt><trkpt lat="41.946099" lon="2.2478173"><ele>482.0</ele><time>2026-04-25T07:36:07.922Z</time></trkpt><trkpt lat="41.9461426" lon="2.2475438"><ele>482.3333333333333</ele><time>2026-04-25T07:36:08.922Z</time></trkpt><trkpt lat="41.946185" lon="2.2472811"><ele>482.66666666666663</ele><time>2026-04-25T07:36:09.922Z</time></trkpt><trkpt lat="41.9462252" lon="2.2470355"><ele>483.0</ele><time>2026-04-25T07:36:10.922Z</time></trkpt><trkpt lat="41.946261" lon="2.2468048"><ele>483.0</ele><time>2026-04-25T07:36:11.922Z</time></trkpt><trkpt lat="41.9462928" lon="2.2465877"><ele>483.0</ele><time>2026-04-25T07:36:12.922Z</time></trkpt><trkpt lat="41.9463262" lon="2.2463905"><ele>483.0</ele><time>2026-04-25T07:36:13.923Z</time></trkpt><trkpt lat="41.946357" lon="2.2462044"><ele>483.25</ele><time>2026-04-25T07:36:14.922Z</time></trkpt><trkpt lat="41.9463867" lon="2.2460278"><ele>483.5</ele><time>2026-04-25T07:36:15.922Z</time></trkpt><trkpt lat="41.9464144" lon="2.2458541"><ele>483.75</ele><time>2026-04-25T07:36:16.923Z</time></trkpt><trkpt lat="41.9464416" lon="2.2456976"><ele>484.0</ele><time>2026-04-25T07:36:17.923Z</time></trkpt><trkpt lat="41.9464575" lon="2.2455539"><ele>484.2</ele><time>2026-04-25T07:36:18.921Z</time></trkpt><trkpt lat="41.946451" lon="2.2454139"><ele>484.4</ele><time>2026-04-25T07:36:19.923Z</time></trkpt><trkpt lat="41.9464173" lon="2.2452813"><ele>484.6</ele><time>2026-04-25T07:36:20.922Z</time></trkpt><trkpt lat="41.9463577" lon="2.2451728"><ele>484.8</ele><time>2026-04-25T07:36:21.922Z</time></trkpt><trkpt lat="41.9462752" lon="2.2450908"><ele>485.0</ele><time>2026-04-25T07:36:22.921Z</time></trkpt><trkpt lat="41.9461765" lon="2.2450365"><ele>485.0</ele><time>2026-04-25T07:36:23.923Z</time></trkpt><trkpt lat="41.94607" lon="2.2450159"><ele>485.0</ele><time>2026-04-25T07:36:24.922Z</time></trkpt><trkpt lat="41.9459631" lon="2.2450324"><ele>485.0</ele><time>2026-04-25T07:36:25.922Z</time></trkpt><trkpt lat="41.9458634" lon="2.2450772"><ele>485.0</ele><time>2026-04-25T07:36:26.921Z</time></trkpt><trkpt lat="41.9457763" lon="2.2451262"><ele>485.0</ele><time>2026-04-25T07:36:27.922Z</time></trkpt><trkpt lat="41.9456944" lon="2.2451549"><ele>484.8333333333333</ele><time>2026-04-25T07:36:28.921Z</time></trkpt><trkpt lat="41.9456138" lon="2.2451444"><ele>484.66666666666663</ele><time>2026-04-25T07:36:29.921Z</time></trkpt><trkpt lat="41.9455443" lon="2.2450897"><ele>484.5</ele><time>2026-04-25T07:36:30.922Z</time></trkpt><trkpt lat="41.9454985" lon="2.2450049"><ele>484.33333333333337</ele><time>2026-04-25T07:36:31.922Z</time></trkpt><trkpt lat="41.9454864" lon="2.2449053"><ele>484.1666666666667</ele><time>2026-04-25T07:36:32.923Z</time></trkpt><trkpt lat="41.9455075" lon="2.2448047"><ele>484.0</ele><time>2026-04-25T07:36:33.922Z</time></trkpt><trkpt lat="41.9455571" lon="2.2447134"><ele>483.6666666666667</ele><time>2026-04-25T07:36:34.922Z</time></trkpt><trkpt lat="41.9456131" lon="2.2446285"><ele>483.33333333333337</ele><time>2026-04-25T07:36:35.921Z</time></trkpt><trkpt lat="41.9456326" lon="2.2445274"><ele>483.0</ele><time>2026-04-25T07:36:36.921Z</time></trkpt><trkpt lat="41.9456269" lon="2.2444124"><ele>482.66666666666663</ele><time>2026-04-25T07:36:37.921Z</time></trkpt><trkpt lat="41.9455972" lon="2.2442945"><ele>482.3333333333333</ele><time>2026-04-25T07:36:38.922Z</time></trkpt><trkpt lat="41.9455684" lon="2.2441781"><ele>482.0</ele><time>2026-04-25T07:36:39.922Z</time></trkpt><trkpt lat="41.9455686" lon="2.2440514"><ele>482.20000000000005</ele><time>2026-04-25T07:36:40.922Z</time></trkpt><trkpt lat="41.9455929" lon="2.2439256"><ele>482.40000000000003</ele><time>2026-04-25T07:36:41.923Z</time></trkpt><trkpt lat="41.945633" lon="2.2437976"><ele>482.59999999999997</ele><time>2026-04-25T07:36:42.923Z</time></trkpt><trkpt lat="41.9456987" lon="2.2436864"><ele>482.79999999999995</ele><time>2026-04-25T07:36:43.922Z</time></trkpt><trkpt lat="41.9457816" lon="2.2436029"><ele>483.0</ele><time>2026-04-25T07:36:44.922Z</time></trkpt><trkpt lat="41.9458758" lon="2.2435491"><ele>483.0</ele><time>2026-04-25T07:36:45.921Z</time></trkpt><trkpt lat="41.9459772" lon="2.2435326"><ele>482.99999999999994</ele><time>2026-04-25T07:36:46.922Z</time></trkpt><trkpt lat="41.9460823" lon="2.2435452"><ele>482.99999999999994</ele><time>2026-04-25T07:36:47.922Z</time></trkpt><trkpt lat="41.946184" lon="2.2435808"><ele>483.0</ele><time>2026-04-25T07:36:48.922Z</time></trkpt><trkpt lat="41.9462774" lon="2.2436172"><ele>483.0</ele><time>2026-04-25T07:36:49.923Z</time></trkpt><trkpt lat="41.9463755" lon="2.2436453"><ele>483.0</ele><time>2026-04-25T07:36:50.922Z</time></trkpt><trkpt lat="41.9464736" lon="2.2436489"><ele>482.99999999999994</ele><time>2026-04-25T07:36:51.922Z</time></trkpt><trkpt lat="41.9465623" lon="2.2436157"><ele>482.99999999999994</ele><time>2026-04-25T07:36:52.922Z</time></trkpt><trkpt lat="41.9466379" lon="2.2435529"><ele>483.0</ele><time>2026-04-25T07:36:53.923Z</time></trkpt><trkpt lat="41.9466967" lon="2.2434643"><ele>483.0</ele><time>2026-04-25T07:36:54.922Z</time></trkpt><trkpt lat="41.9467419" lon="2.2433529"><ele>483.6666666666667</ele><time>2026-04-25T07:36:55.923Z</time></trkpt><trkpt lat="41.9467668" lon="2.243231"><ele>484.33333333333337</ele><time>2026-04-25T07:36:56.923Z</time></trkpt><trkpt lat="41.9467816" lon="2.2431056"><ele>485.0</ele><time>2026-04-25T07:36:57.922Z</time></trkpt><trkpt lat="41.946794" lon="2.2429831"><ele>485.6666666666667</ele><time>2026-04-25T07:36:58.922Z</time></trkpt><trkpt lat="41.9468003" lon="2.2428663"><ele>486.33333333333337</ele><time>2026-04-25T07:36:59.923Z</time></trkpt><trkpt lat="41.9467984" lon="2.2427637"><ele>487.0</ele><time>2026-04-25T07:37:00.923Z</time></trkpt><trkpt lat="41.9467895" lon="2.2426552"><ele>487.00000000000006</ele><time>2026-04-25T07:37:01.923Z</time></trkpt><trkpt lat="41.9467758" lon="2.242547"><ele>487.0</ele><time>2026-04-25T07:37:02.923Z</time></trkpt><trkpt lat="41.9467632" lon="2.2424305"><ele>487.0</ele><time>2026-04-25T07:37:03.923Z</time></trkpt><trkpt lat="41.9467519" lon="2.2423101"><ele>487.0</ele><time>2026-04-25T07:37:04.922Z</time></trkpt><trkpt lat="41.94674" lon="2.2421888"><ele>487.00000000000006</ele><time>2026-04-25T07:37:05.921Z</time></trkpt><trkpt lat="41.9467263" lon="2.2420743"><ele>487.0</ele><time>2026-04-25T07:37:06.923Z</time></trkpt><trkpt lat="41.9467089" lon="2.2419669"><ele>486.83333333333337</ele><time>2026-04-25T07:37:07.923Z</time></trkpt><trkpt lat="41.9466904" lon="2.2418595"><ele>486.6666666666667</ele><time>2026-04-25T07:37:08.922Z</time></trkpt><trkpt lat="41.9466728" lon="2.2417427"><ele>486.5</ele><time>2026-04-25T07:37:09.922Z</time></trkpt><trkpt lat="41.9466511" lon="2.2416166"><ele>486.33333333333337</ele><time>2026-04-25T07:37:10.921Z</time></trkpt><trkpt lat="41.9466246" lon="2.2415006"><ele>486.1666666666667</ele><time>2026-04-25T07:37:11.922Z</time></trkpt><trkpt lat="41.9466019" lon="2.241395"><ele>486.0</ele><time>2026-04-25T07:37:12.923Z</time></trkpt><trkpt lat="41.9465764" lon="2.2412891"><ele>486.0</ele><time>2026-04-25T07:37:13.923Z</time></trkpt><trkpt lat="41.9465469" lon="2.2411793"><ele>486.0</ele><time>2026-04-25T07:37:14.921Z</time></trkpt><trkpt lat="41.946521" lon="2.2410689"><ele>486.0</ele><time>2026-04-25T07:37:15.923Z</time></trkpt><trkpt lat="41.946492" lon="2.2409558"><ele>486.0</ele><time>2026-04-25T07:37:16.921Z</time></trkpt><trkpt lat="41.946463" lon="2.2408425"><ele>486.0</ele><time>2026-04-25T07:37:17.922Z</time></trkpt><trkpt lat="41.9464343" lon="2.2407355"><ele>486.0</ele><time>2026-04-25T07:37:18.922Z</time></trkpt><trkpt lat="41.9464124" lon="2.2406239"><ele>486.5</ele><time>2026-04-25T07:37:19.922Z</time></trkpt><trkpt lat="41.9463877" lon="2.240513"><ele>487.0</ele><time>2026-04-25T07:37:20.921Z</time></trkpt><trkpt lat="41.9463607" lon="2.2404117"><ele>487.5</ele><time>2026-04-25T07:37:21.922Z</time></trkpt><trkpt lat="41.9463373" lon="2.240315"><ele>488.0</ele><time>2026-04-25T07:37:22.922Z</time></trkpt><trkpt lat="41.9463113" lon="2.2402147"><ele>488.5</ele><time>2026-04-25T07:37:23.923Z</time></trkpt><trkpt lat="41.9462869" lon="2.2401108"><ele>489.0</ele><time>2026-04-25T07:37:24.921Z</time></trkpt><trkpt lat="41.9462591" lon="2.2400029"><ele>489.0</ele><time>2026-04-25T07:37:25.922Z</time></trkpt><trkpt lat="41.9462291" lon="2.2398952"><ele>489.0</ele><time>2026-04-25T07:37:26.923Z</time></trkpt><trkpt lat="41.9461969" lon="2.2397888"><ele>489.0</ele><time>2026-04-25T07:37:27.923Z</time></trkpt><trkpt lat="41.9461683" lon="2.2396867"><ele>489.0</ele><time>2026-04-25T07:37:28.922Z</time></trkpt><trkpt lat="41.9461347" lon="2.2395967"><ele>489.0</ele><time>2026-04-25T07:37:29.923Z</time></trkpt><trkpt lat="41.9461032" lon="2.2395186"><ele>489.0</ele><time>2026-04-25T07:37:30.922Z</time></trkpt><trkpt lat="41.9460557" lon="2.2394011"><ele>489.6666666666667</ele><time>2026-04-25T07:37:32.922Z</time></trkpt><trkpt lat="41.9460144" lon="2.2393054"><ele>490.33333333333337</ele><time>2026-04-25T07:37:34.921Z</time></trkpt><trkpt lat="41.9459852" lon="2.2392026"><ele>491.0</ele><time>2026-04-25T07:37:36.923Z</time></trkpt><trkpt lat="41.9459981" lon="2.2390865"><ele>491.6666666666667</ele><time>2026-04-25T07:37:38.923Z</time></trkpt><trkpt lat="41.9460812" lon="2.2389911"><ele>492.33333333333337</ele><time>2026-04-25T07:37:40.923Z</time></trkpt><trkpt lat="41.9461492" lon="2.2389528"><ele>493.0</ele><time>2026-04-25T07:37:41.922Z</time></trkpt><trkpt lat="41.9462203" lon="2.2389103"><ele>493.2</ele><time>2026-04-25T07:37:42.922Z</time></trkpt><trkpt lat="41.9462982" lon="2.238859"><ele>493.4</ele><time>2026-04-25T07:37:43.922Z</time></trkpt><trkpt lat="41.9463784" lon="2.2388018"><ele>493.59999999999997</ele><time>2026-04-25T07:37:44.923Z</time></trkpt><trkpt lat="41.946458" lon="2.238748"><ele>493.79999999999995</ele><time>2026-04-25T07:37:45.923Z</time></trkpt><trkpt lat="41.9465472" lon="2.2386819"><ele>494.0</ele><time>2026-04-25T07:37:46.922Z</time></trkpt><trkpt lat="41.9466412" lon="2.2386102"><ele>494.25</ele><time>2026-04-25T07:37:47.923Z</time></trkpt><trkpt lat="41.946736" lon="2.2385372"><ele>494.5</ele><time>2026-04-25T07:37:48.922Z</time></trkpt><trkpt lat="41.9468396" lon="2.2384584"><ele>494.75</ele><time>2026-04-25T07:37:49.922Z</time></trkpt><trkpt lat="41.9469463" lon="2.2383842"><ele>495.0</ele><time>2026-04-25T07:37:50.922Z</time></trkpt><trkpt lat="41.9470509" lon="2.2383103"><ele>495.0</ele><time>2026-04-25T07:37:51.923Z</time></trkpt><trkpt lat="41.9471481" lon="2.2382415"><ele>495.0</ele><time>2026-04-25T07:37:52.923Z</time></trkpt><trkpt lat="41.9472344" lon="2.2381801"><ele>495.0</ele><time>2026-04-25T07:37:53.923Z</time></trkpt><trkpt lat="41.9473176" lon="2.2381225"><ele>495.0</ele><time>2026-04-25T07:37:54.922Z</time></trkpt><trkpt lat="41.9474009" lon="2.2380642"><ele>495.0</ele><time>2026-04-25T07:37:55.921Z</time></trkpt><trkpt lat="41.9474851" lon="2.2380064"><ele>496.2</ele><time>2026-04-25T07:37:56.921Z</time></trkpt><trkpt lat="41.9475714" lon="2.2379458"><ele>497.4</ele><time>2026-04-25T07:37:57.921Z</time></trkpt><trkpt lat="41.9476601" lon="2.2378817"><ele>498.6</ele><time>2026-04-25T07:37:58.921Z</time></trkpt><trkpt lat="41.9477481" lon="2.2378209"><ele>499.8</ele><time>2026-04-25T07:37:59.922Z</time></trkpt><trkpt lat="41.9478376" lon="2.2377602"><ele>501.0</ele><time>2026-04-25T07:38:00.92Z</time></trkpt><trkpt lat="41.9479232" lon="2.2376944"><ele>501.0</ele><time>2026-04-25T07:38:01.922Z</time></trkpt><trkpt lat="41.9480036" lon="2.237645"><ele>501.0</ele><time>2026-04-25T07:38:02.922Z</time></trkpt><trkpt lat="41.9480784" lon="2.2375911"><ele>501.0</ele><time>2026-04-25T07:38:03.922Z</time></trkpt><trkpt lat="41.9481585" lon="2.237541"><ele>501.0</ele><time>2026-04-25T07:38:04.922Z</time></trkpt><trkpt lat="41.9482408" lon="2.2374784"><ele>501.0</ele><time>2026-04-25T07:38:05.921Z</time></trkpt><trkpt lat="41.9483338" lon="2.2374276"><ele>502.0</ele><time>2026-04-25T07:38:06.921Z</time></trkpt><trkpt lat="41.9484298" lon="2.2373671"><ele>503.0</ele><time>2026-04-25T07:38:07.921Z</time></trkpt><trkpt lat="41.9485349" lon="2.2373245"><ele>504.0</ele><time>2026-04-25T07:38:08.92Z</time></trkpt><trkpt lat="41.9486432" lon="2.237271"><ele>505.0</ele><time>2026-04-25T07:38:09.922Z</time></trkpt><trkpt lat="41.9487575" lon="2.2372271"><ele>505.0</ele><time>2026-04-25T07:38:10.922Z</time></trkpt><trkpt lat="41.9488692" lon="2.2371909"><ele>505.0</ele><time>2026-04-25T07:38:11.921Z</time></trkpt><trkpt lat="41.9489793" lon="2.2371522"><ele>505.0</ele><time>2026-04-25T07:38:12.921Z</time></trkpt><trkpt lat="41.9490888" lon="2.2371127"><ele>505.0</ele><time>2026-04-25T07:38:13.921Z</time></trkpt><trkpt lat="41.9491961" lon="2.2370766"><ele>504.6</ele><time>2026-04-25T07:38:14.92Z</time></trkpt><trkpt lat="41.9492952" lon="2.2370441"><ele>504.2</ele><time>2026-04-25T07:38:15.92Z</time></trkpt><trkpt lat="41.9493848" lon="2.2370175"><ele>503.79999999999995</ele><time>2026-04-25T07:38:16.921Z</time></trkpt><trkpt lat="41.9494691" lon="2.2369891"><ele>503.4</ele><time>2026-04-25T07:38:17.921Z</time></trkpt><trkpt lat="41.9495521" lon="2.2369629"><ele>503.0</ele><time>2026-04-25T07:38:18.921Z</time></trkpt><trkpt lat="41.9496391" lon="2.236954"><ele>502.99999999999994</ele><time>2026-04-25T07:38:19.922Z</time></trkpt><trkpt lat="41.9497248" lon="2.2369679"><ele>503.0</ele><time>2026-04-25T07:38:20.922Z</time></trkpt><trkpt lat="41.9498034" lon="2.2369881"><ele>503.0</ele><time>2026-04-25T07:38:21.921Z</time></trkpt><trkpt lat="41.9498758" lon="2.2369867"><ele>503.0</ele><time>2026-04-25T07:38:22.921Z</time></trkpt><trkpt lat="41.9499358" lon="2.2369574"><ele>502.99999999999994</ele><time>2026-04-25T07:38:23.922Z</time></trkpt><trkpt lat="41.9499925" lon="2.236895"><ele>503.0</ele><time>2026-04-25T07:38:24.921Z</time></trkpt><trkpt lat="41.9500589" lon="2.2368198"><ele>503.0</ele><time>2026-04-25T07:38:25.921Z</time></trkpt><trkpt lat="41.9501478" lon="2.2367628"><ele>502.99999999999994</ele><time>2026-04-25T07:38:26.922Z</time></trkpt><trkpt lat="41.9502493" lon="2.2367195"><ele>502.99999999999994</ele><time>2026-04-25T07:38:27.921Z</time></trkpt><trkpt lat="41.950361" lon="2.2366773"><ele>503.0</ele><time>2026-04-25T07:38:28.921Z</time></trkpt><trkpt lat="41.9504772" lon="2.2366326"><ele>503.0</ele><time>2026-04-25T07:38:29.922Z</time></trkpt><trkpt lat="41.9505988" lon="2.2366"><ele>503.0</ele><time>2026-04-25T07:38:30.921Z</time></trkpt><trkpt lat="41.9507135" lon="2.2365891"><ele>502.99999999999994</ele><time>2026-04-25T07:38:31.922Z</time></trkpt><trkpt lat="41.9508192" lon="2.2366023"><ele>502.99999999999994</ele><time>2026-04-25T07:38:32.921Z</time></trkpt><trkpt lat="41.9509205" lon="2.2366479"><ele>503.0</ele><time>2026-04-25T07:38:33.92Z</time></trkpt><trkpt lat="41.9510081" lon="2.2367322"><ele>503.0</ele><time>2026-04-25T07:38:34.92Z</time></trkpt><trkpt lat="41.9510836" lon="2.2368441"><ele>503.2</ele><time>2026-04-25T07:38:35.921Z</time></trkpt><trkpt lat="41.951147" lon="2.2369724"><ele>503.4</ele><time>2026-04-25T07:38:36.92Z</time></trkpt><trkpt lat="41.9512079" lon="2.2370802"><ele>503.59999999999997</ele><time>2026-04-25T07:38:37.922Z</time></trkpt><trkpt lat="41.9512764" lon="2.2371514"><ele>503.79999999999995</ele><time>2026-04-25T07:38:38.92Z</time></trkpt><trkpt lat="41.9513601" lon="2.2371901"><ele>504.0</ele><time>2026-04-25T07:38:39.922Z</time></trkpt><trkpt lat="41.9514525" lon="2.2372193"><ele>504.0</ele><time>2026-04-25T07:38:40.921Z</time></trkpt><trkpt lat="41.9515344" lon="2.2372574"><ele>504.0</ele><time>2026-04-25T07:38:41.921Z</time></trkpt><trkpt lat="41.9516118" lon="2.2372699"><ele>504.0</ele><time>2026-04-25T07:38:42.922Z</time></trkpt><trkpt lat="41.9516812" lon="2.2372411"><ele>504.0</ele><time>2026-04-25T07:38:43.922Z</time></trkpt><trkpt lat="41.9517351" lon="2.23717"><ele>504.0</ele><time>2026-04-25T07:38:44.922Z</time></trkpt><trkpt lat="41.9517711" lon="2.2370645"><ele>504.0</ele><time>2026-04-25T07:38:45.922Z</time></trkpt><trkpt lat="41.9518163" lon="2.2369482"><ele>503.6</ele><time>2026-04-25T07:38:46.922Z</time></trkpt><trkpt lat="41.9518855" lon="2.2368447"><ele>503.2</ele><time>2026-04-25T07:38:47.921Z</time></trkpt><trkpt lat="41.9519661" lon="2.2367507"><ele>502.80000000000007</ele><time>2026-04-25T07:38:48.92Z</time></trkpt><trkpt lat="41.9520504" lon="2.236668"><ele>502.40000000000003</ele><time>2026-04-25T07:38:49.92Z</time></trkpt><trkpt lat="41.9521343" lon="2.2366079"><ele>502.0</ele><time>2026-04-25T07:38:50.921Z</time></trkpt><trkpt lat="41.9522235" lon="2.2365771"><ele>502.0</ele><time>2026-04-25T07:38:51.921Z</time></trkpt><trkpt lat="41.9523176" lon="2.2365516"><ele>502.00000000000006</ele><time>2026-04-25T07:38:52.922Z</time></trkpt><trkpt lat="41.9523981" lon="2.2364912"><ele>502.00000000000006</ele><time>2026-04-25T07:38:53.922Z</time></trkpt><trkpt lat="41.9524548" lon="2.236394"><ele>502.0</ele><time>2026-04-25T07:38:54.92Z</time></trkpt><trkpt lat="41.9525017" lon="2.2362777"><ele>502.0</ele><time>2026-04-25T07:38:55.921Z</time></trkpt><trkpt lat="41.9525786" lon="2.2361766"><ele>503.0</ele><time>2026-04-25T07:38:56.92Z</time></trkpt><trkpt lat="41.9526747" lon="2.2360877"><ele>504.0</ele><time>2026-04-25T07:38:57.921Z</time></trkpt><trkpt lat="41.9528046" lon="2.2360011"><ele>505.0</ele><time>2026-04-25T07:38:58.921Z</time></trkpt><trkpt lat="41.952954" lon="2.2359163"><ele>506.0</ele><time>2026-04-25T07:38:59.921Z</time></trkpt><trkpt lat="41.9531165" lon="2.235839"><ele>506.0</ele><time>2026-04-25T07:39:00.92Z</time></trkpt><trkpt lat="41.9532996" lon="2.2357648"><ele>506.0</ele><time>2026-04-25T07:39:01.921Z</time></trkpt><trkpt lat="41.9534978" lon="2.2356965"><ele>506.0</ele><time>2026-04-25T07:39:02.922Z</time></trkpt><trkpt lat="41.9536992" lon="2.2356333"><ele>508.0</ele><time>2026-04-25T07:39:03.921Z</time></trkpt><trkpt lat="41.9538967" lon="2.2355716"><ele>510.0</ele><time>2026-04-25T07:39:04.922Z</time></trkpt><trkpt lat="41.9540928" lon="2.2355235"><ele>512.0</ele><time>2026-04-25T07:39:05.921Z</time></trkpt><trkpt lat="41.954286" lon="2.2354972"><ele>512.3333333333333</ele><time>2026-04-25T07:39:06.921Z</time></trkpt><trkpt lat="41.9544786" lon="2.2354898"><ele>512.6666666666666</ele><time>2026-04-25T07:39:07.92Z</time></trkpt><trkpt lat="41.9546678" lon="2.2354966"><ele>513.0</ele><time>2026-04-25T07:39:08.922Z</time></trkpt><trkpt lat="41.954851" lon="2.2355067"><ele>513.0</ele><time>2026-04-25T07:39:09.921Z</time></trkpt><trkpt lat="41.9550291" lon="2.2355153"><ele>513.0</ele><time>2026-04-25T07:39:10.921Z</time></trkpt><trkpt lat="41.9552035" lon="2.2355165"><ele>513.0</ele><time>2026-04-25T07:39:11.921Z</time></trkpt><trkpt lat="41.9553675" lon="2.2355002"><ele>512.75</ele><time>2026-04-25T07:39:12.92Z</time></trkpt><trkpt lat="41.9555187" lon="2.2354569"><ele>512.5</ele><time>2026-04-25T07:39:13.922Z</time></trkpt><trkpt lat="41.9556525" lon="2.2353899"><ele>512.25</ele><time>2026-04-25T07:39:14.922Z</time></trkpt><trkpt lat="41.9557676" lon="2.2353029"><ele>512.0</ele><time>2026-04-25T07:39:15.921Z</time></trkpt><trkpt lat="41.955869" lon="2.2352066"><ele>512.1666666666666</ele><time>2026-04-25T07:39:16.922Z</time></trkpt><trkpt lat="41.9559461" lon="2.2351181"><ele>512.3333333333333</ele><time>2026-04-25T07:39:17.922Z</time></trkpt><trkpt lat="41.955993" lon="2.2350485"><ele>512.5</ele><time>2026-04-25T07:39:18.922Z</time></trkpt><trkpt lat="41.9560385" lon="2.2349878"><ele>512.6666666666666</ele><time>2026-04-25T07:39:19.922Z</time></trkpt><trkpt lat="41.9560867" lon="2.2349198"><ele>512.8333333333334</ele><time>2026-04-25T07:39:20.922Z</time></trkpt><trkpt lat="41.956143" lon="2.2348451"><ele>513.0</ele><time>2026-04-25T07:39:21.922Z</time></trkpt><trkpt lat="41.956202" lon="2.2347616"><ele>513.0</ele><time>2026-04-25T07:39:22.922Z</time></trkpt><trkpt lat="41.9562705" lon="2.2346634"><ele>513.0</ele><time>2026-04-25T07:39:23.922Z</time></trkpt><trkpt lat="41.9563548" lon="2.2345437"><ele>513.0</ele><time>2026-04-25T07:39:24.921Z</time></trkpt><trkpt lat="41.9564487" lon="2.234411"><ele>513.0</ele><time>2026-04-25T07:39:25.922Z</time></trkpt><trkpt lat="41.9565544" lon="2.2342608"><ele>513.0</ele><time>2026-04-25T07:39:26.922Z</time></trkpt><trkpt lat="41.9566794" lon="2.2340858"><ele>513.0</ele><time>2026-04-25T07:39:27.921Z</time></trkpt><trkpt lat="41.956816" lon="2.2338912"><ele>513.0</ele><time>2026-04-25T07:39:28.922Z</time></trkpt><trkpt lat="41.9569605" lon="2.2336867"><ele>514.3333333333334</ele><time>2026-04-25T07:39:29.921Z</time></trkpt><trkpt lat="41.957116" lon="2.2334709"><ele>515.6666666666667</ele><time>2026-04-25T07:39:30.921Z</time></trkpt><trkpt lat="41.9572701" lon="2.2332577"><ele>517.0</ele><time>2026-04-25T07:39:31.92Z</time></trkpt><trkpt lat="41.9574167" lon="2.2330438"><ele>516.6666666666667</ele><time>2026-04-25T07:39:32.922Z</time></trkpt><trkpt lat="41.9575506" lon="2.2328268"><ele>516.3333333333334</ele><time>2026-04-25T07:39:33.92Z</time></trkpt><trkpt lat="41.957676" lon="2.2325948"><ele>516.0</ele><time>2026-04-25T07:39:34.921Z</time></trkpt><trkpt lat="41.9577881" lon="2.2323414"><ele>517.5</ele><time>2026-04-25T07:39:35.921Z</time></trkpt><trkpt lat="41.9578968" lon="2.2320748"><ele>519.0</ele><time>2026-04-25T07:39:36.921Z</time></trkpt><trkpt lat="41.9580021" lon="2.2318017"><ele>519.0</ele><time>2026-04-25T07:39:37.92Z</time></trkpt><trkpt lat="41.9581055" lon="2.2315271"><ele>519.0</ele><time>2026-04-25T07:39:38.92Z</time></trkpt><trkpt lat="41.9582094" lon="2.2312525"><ele>519.6666666666666</ele><time>2026-04-25T07:39:39.921Z</time></trkpt><trkpt lat="41.9583125" lon="2.2309864"><ele>520.3333333333333</ele><time>2026-04-25T07:39:40.921Z</time></trkpt><trkpt lat="41.9584129" lon="2.2307203"><ele>521.0</ele><time>2026-04-25T07:39:41.921Z</time></trkpt><trkpt lat="41.9585113" lon="2.230458"><ele>522.0</ele><time>2026-04-25T07:39:42.921Z</time></trkpt><trkpt lat="41.9586063" lon="2.2301997"><ele>523.0</ele><time>2026-04-25T07:39:43.922Z</time></trkpt><trkpt lat="41.9586994" lon="2.229952"><ele>524.0</ele><time>2026-04-25T07:39:44.921Z</time></trkpt><trkpt lat="41.9587884" lon="2.2297115"><ele>525.0</ele><time>2026-04-25T07:39:45.922Z</time></trkpt><trkpt lat="41.9588765" lon="2.2294769"><ele>526.0</ele><time>2026-04-25T07:39:46.922Z</time></trkpt><trkpt lat="41.9589656" lon="2.2292524"><ele>527.0</ele><time>2026-04-25T07:39:47.921Z</time></trkpt><trkpt lat="41.9590858" lon="2.2290505"><ele>527.3333333333333</ele><time>2026-04-25T07:39:48.922Z</time></trkpt><trkpt lat="41.9592315" lon="2.2288593"><ele>527.6666666666666</ele><time>2026-04-25T07:39:49.921Z</time></trkpt><trkpt lat="41.9593831" lon="2.228671"><ele>528.0</ele><time>2026-04-25T07:39:50.92Z</time></trkpt><trkpt lat="41.9595383" lon="2.228482"><ele>528.0</ele><time>2026-04-25T07:39:51.92Z</time></trkpt><trkpt lat="41.959697" lon="2.2282873"><ele>528.0</ele><time>2026-04-25T07:39:52.921Z</time></trkpt><trkpt lat="41.9598529" lon="2.2280969"><ele>528.0</ele><time>2026-04-25T07:39:53.921Z</time></trkpt><trkpt lat="41.9599927" lon="2.2279213"><ele>526.3333333333334</ele><time>2026-04-25T07:39:54.922Z</time></trkpt><trkpt lat="41.9601108" lon="2.2277464"><ele>524.6666666666667</ele><time>2026-04-25T07:39:55.921Z</time></trkpt><trkpt lat="41.9602112" lon="2.2275328"><ele>523.0</ele><time>2026-04-25T07:39:56.921Z</time></trkpt><trkpt lat="41.960288" lon="2.2272885"><ele>523.0</ele><time>2026-04-25T07:39:57.921Z</time></trkpt><trkpt lat="41.9603679" lon="2.227029"><ele>523.0</ele><time>2026-04-25T07:39:58.92Z</time></trkpt><trkpt lat="41.9604832" lon="2.2267667"><ele>523.0</ele><time>2026-04-25T07:39:59.922Z</time></trkpt><trkpt lat="41.9606236" lon="2.2265097"><ele>522.5</ele><time>2026-04-25T07:40:00.922Z</time></trkpt><trkpt lat="41.9607877" lon="2.2262763"><ele>522.0</ele><time>2026-04-25T07:40:01.922Z</time></trkpt><trkpt lat="41.9609648" lon="2.2260649"><ele>522.0</ele><time>2026-04-25T07:40:02.921Z</time></trkpt><trkpt lat="41.961135" lon="2.2258723"><ele>522.0</ele><time>2026-04-25T07:40:03.921Z</time></trkpt><trkpt lat="41.96129" lon="2.225689"><ele>522.0</ele><time>2026-04-25T07:40:04.921Z</time></trkpt><trkpt lat="41.9614498" lon="2.2255104"><ele>524.0</ele><time>2026-04-25T07:40:05.921Z</time></trkpt><trkpt lat="41.9616348" lon="2.2253512"><ele>526.0</ele><time>2026-04-25T07:40:06.922Z</time></trkpt><trkpt lat="41.9618413" lon="2.225235"><ele>528.0</ele><time>2026-04-25T07:40:07.92Z</time></trkpt><trkpt lat="41.9620635" lon="2.2251761"><ele>528.5</ele><time>2026-04-25T07:40:08.921Z</time></trkpt><trkpt lat="41.9623025" lon="2.2251564"><ele>529.0</ele><time>2026-04-25T07:40:09.92Z</time></trkpt><trkpt lat="41.9625479" lon="2.2251476"><ele>529.5</ele><time>2026-04-25T07:40:10.922Z</time></trkpt><trkpt lat="41.9627979" lon="2.2251399"><ele>530.0</ele><time>2026-04-25T07:40:11.92Z</time></trkpt><trkpt lat="41.9630555" lon="2.2251282"><ele>530.0</ele><time>2026-04-25T07:40:12.921Z</time></trkpt><trkpt lat="41.9633178" lon="2.2251164"><ele>530.0</ele><time>2026-04-25T07:40:13.922Z</time></trkpt><trkpt lat="41.9635831" lon="2.2251063"><ele>532.0</ele><time>2026-04-25T07:40:14.921Z</time></trkpt><trkpt lat="41.9638455" lon="2.2250929"><ele>534.0</ele><time>2026-04-25T07:40:15.921Z</time></trkpt><trkpt lat="41.9640943" lon="2.2250809"><ele>535.3333333333334</ele><time>2026-04-25T07:40:16.921Z</time></trkpt><trkpt lat="41.9643248" lon="2.2250711"><ele>536.6666666666667</ele><time>2026-04-25T07:40:17.921Z</time></trkpt><trkpt lat="41.9645357" lon="2.2250637"><ele>538.0</ele><time>2026-04-25T07:40:18.92Z</time></trkpt><trkpt lat="41.9647288" lon="2.2250542"><ele>538.0</ele><time>2026-04-25T07:40:19.921Z</time></trkpt><trkpt lat="41.964908" lon="2.2250325"><ele>538.0</ele><time>2026-04-25T07:40:20.922Z</time></trkpt><trkpt lat="41.9650824" lon="2.2249783"><ele>538.0</ele><time>2026-04-25T07:40:21.922Z</time></trkpt><trkpt lat="41.965246" lon="2.2248727"><ele>539.6666666666667</ele><time>2026-04-25T07:40:22.921Z</time></trkpt><trkpt lat="41.9654026" lon="2.2247172"><ele>541.3333333333334</ele><time>2026-04-25T07:40:23.922Z</time></trkpt><trkpt lat="41.9655605" lon="2.2245281"><ele>543.0</ele><time>2026-04-25T07:40:24.922Z</time></trkpt><trkpt lat="41.9657323" lon="2.2243227"><ele>544.0</ele><time>2026-04-25T07:40:25.921Z</time></trkpt><trkpt lat="41.9659143" lon="2.224115"><ele>545.0</ele><time>2026-04-25T07:40:26.922Z</time></trkpt><trkpt lat="41.966101" lon="2.2238983"><ele>545.5</ele><time>2026-04-25T07:40:27.921Z</time></trkpt><trkpt lat="41.9662929" lon="2.2236741"><ele>546.0</ele><time>2026-04-25T07:40:28.921Z</time></trkpt><trkpt lat="41.9664944" lon="2.22344"><ele>545.5</ele><time>2026-04-25T07:40:29.92Z</time></trkpt><trkpt lat="41.9666992" lon="2.2232029"><ele>545.0</ele><time>2026-04-25T07:40:30.921Z</time></trkpt><trkpt lat="41.9669049" lon="2.2229581"><ele>545.0</ele><time>2026-04-25T07:40:31.921Z</time></trkpt><trkpt lat="41.9671088" lon="2.2227091"><ele>545.0</ele><time>2026-04-25T07:40:32.92Z</time></trkpt><trkpt lat="41.9673054" lon="2.2224639"><ele>543.5</ele><time>2026-04-25T07:40:33.921Z</time></trkpt><trkpt lat="41.9674927" lon="2.2222329"><ele>542.0</ele><time>2026-04-25T07:40:34.921Z</time></trkpt><trkpt lat="41.967668" lon="2.2220113"><ele>542.0</ele><time>2026-04-25T07:40:35.921Z</time></trkpt><trkpt lat="41.9678281" lon="2.2217961"><ele>542.0</ele><time>2026-04-25T07:40:36.921Z</time></trkpt><trkpt lat="41.9679701" lon="2.2215644"><ele>544.5</ele><time>2026-04-25T07:40:37.921Z</time></trkpt><trkpt lat="41.9680933" lon="2.221295"><ele>547.0</ele><time>2026-04-25T07:40:38.922Z</time></trkpt><trkpt lat="41.9682088" lon="2.2210023"><ele>547.0</ele><time>2026-04-25T07:40:39.921Z</time></trkpt><trkpt lat="41.9683325" lon="2.2206913"><ele>547.0</ele><time>2026-04-25T07:40:40.922Z</time></trkpt><trkpt lat="41.9684597" lon="2.2203699"><ele>545.0</ele><time>2026-04-25T07:40:41.922Z</time></trkpt><trkpt lat="41.9685891" lon="2.2200405"><ele>543.0</ele><time>2026-04-25T07:40:42.921Z</time></trkpt><trkpt lat="41.9687187" lon="2.2197063"><ele>543.0</ele><time>2026-04-25T07:40:43.922Z</time></trkpt><trkpt lat="41.9688463" lon="2.2193781"><ele>543.0</ele><time>2026-04-25T07:40:44.921Z</time></trkpt><trkpt lat="41.9689653" lon="2.2190636"><ele>545.0</ele><time>2026-04-25T07:40:45.921Z</time></trkpt><trkpt lat="41.9690772" lon="2.2187733"><ele>547.0</ele><time>2026-04-25T07:40:46.921Z</time></trkpt><trkpt lat="41.9691807" lon="2.2185098"><ele>546.3333333333334</ele><time>2026-04-25T07:40:47.921Z</time></trkpt><trkpt lat="41.9692732" lon="2.2182678"><ele>545.6666666666666</ele><time>2026-04-25T07:40:48.922Z</time></trkpt><trkpt lat="41.9693562" lon="2.2180412"><ele>545.0</ele><time>2026-04-25T07:40:49.922Z</time></trkpt><trkpt lat="41.9694353" lon="2.2178316"><ele>545.0</ele><time>2026-04-25T07:40:50.921Z</time></trkpt><trkpt lat="41.9695169" lon="2.2176441"><ele>545.0</ele><time>2026-04-25T07:40:51.921Z</time></trkpt><trkpt lat="41.9696185" lon="2.2174762"><ele>545.0</ele><time>2026-04-25T07:40:52.92Z</time></trkpt><trkpt lat="41.9697626" lon="2.2173549"><ele>545.0</ele><time>2026-04-25T07:40:53.921Z</time></trkpt><trkpt lat="41.9699229" lon="2.2172916"><ele>545.0</ele><time>2026-04-25T07:40:54.922Z</time></trkpt><trkpt lat="41.9700963" lon="2.217286"><ele>545.0</ele><time>2026-04-25T07:40:55.921Z</time></trkpt><trkpt lat="41.9702866" lon="2.2173113"><ele>545.3333333333333</ele><time>2026-04-25T07:40:56.921Z</time></trkpt><trkpt lat="41.9704828" lon="2.2173493"><ele>545.6666666666666</ele><time>2026-04-25T07:40:57.922Z</time></trkpt><trkpt lat="41.9706896" lon="2.2173889"><ele>546.0</ele><time>2026-04-25T07:40:58.921Z</time></trkpt><trkpt lat="41.9708891" lon="2.2174218"><ele>547.0</ele><time>2026-04-25T07:40:59.921Z</time></trkpt><trkpt lat="41.9710676" lon="2.2174504"><ele>548.0</ele><time>2026-04-25T07:41:00.922Z</time></trkpt><trkpt lat="41.9712292" lon="2.2174555"><ele>549.0</ele><time>2026-04-25T07:41:01.922Z</time></trkpt><trkpt lat="41.9713879" lon="2.2174163"><ele>549.0</ele><time>2026-04-25T07:41:02.921Z</time></trkpt><trkpt lat="41.9715393" lon="2.2173365"><ele>549.0</ele><time>2026-04-25T07:41:03.92Z</time></trkpt><trkpt lat="41.9716637" lon="2.2172182"><ele>549.0</ele><time>2026-04-25T07:41:04.922Z</time></trkpt><trkpt lat="41.9717534" lon="2.2170621"><ele>549.6666666666666</ele><time>2026-04-25T07:41:05.922Z</time></trkpt><trkpt lat="41.9718206" lon="2.216869"><ele>550.3333333333333</ele><time>2026-04-25T07:41:06.921Z</time></trkpt><trkpt lat="41.9718736" lon="2.2166281"><ele>551.0</ele><time>2026-04-25T07:41:07.922Z</time></trkpt><trkpt lat="41.9719377" lon="2.2163717"><ele>551.6666666666666</ele><time>2026-04-25T07:41:08.921Z</time></trkpt><trkpt lat="41.9720035" lon="2.2161152"><ele>552.3333333333334</ele><time>2026-04-25T07:41:09.921Z</time></trkpt><trkpt lat="41.9720711" lon="2.2158312"><ele>553.0</ele><time>2026-04-25T07:41:10.921Z</time></trkpt><trkpt lat="41.9721405" lon="2.2155361"><ele>554.5</ele><time>2026-04-25T07:41:11.92Z</time></trkpt><trkpt lat="41.9722284" lon="2.2152404"><ele>556.0</ele><time>2026-04-25T07:41:12.922Z</time></trkpt><trkpt lat="41.9723416" lon="2.2149643"><ele>559.5</ele><time>2026-04-25T07:41:13.922Z</time></trkpt><trkpt lat="41.9724667" lon="2.2147125"><ele>563.0</ele><time>2026-04-25T07:41:14.922Z</time></trkpt><trkpt lat="41.9725869" lon="2.2144543"><ele>563.0</ele><time>2026-04-25T07:41:15.921Z</time></trkpt><trkpt lat="41.9726934" lon="2.2141711"><ele>563.0</ele><time>2026-04-25T07:41:16.92Z</time></trkpt><trkpt lat="41.9727879" lon="2.2138755"><ele>565.5</ele><time>2026-04-25T07:41:17.922Z</time></trkpt><trkpt lat="41.9728793" lon="2.2135811"><ele>568.0</ele><time>2026-04-25T07:41:18.921Z</time></trkpt><trkpt lat="41.9729674" lon="2.2133004"><ele>568.6666666666667</ele><time>2026-04-25T07:41:19.921Z</time></trkpt><trkpt lat="41.9730441" lon="2.2130485"><ele>569.3333333333334</ele><time>2026-04-25T07:41:20.921Z</time></trkpt><trkpt lat="41.9731119" lon="2.2128389"><ele>570.0</ele><time>2026-04-25T07:41:21.921Z</time></trkpt><trkpt lat="41.9731861" lon="2.2126704"><ele>570.0</ele><time>2026-04-25T07:41:22.921Z</time></trkpt><trkpt lat="41.9732714" lon="2.212568"><ele>570.0</ele><time>2026-04-25T07:41:23.921Z</time></trkpt><trkpt lat="41.9733729" lon="2.2125145"><ele>570.0</ele><time>2026-04-25T07:41:24.921Z</time></trkpt><trkpt lat="41.9734908" lon="2.2125056"><ele>570.0</ele><time>2026-04-25T07:41:25.921Z</time></trkpt><trkpt lat="41.9736236" lon="2.2125226"><ele>571.75</ele><time>2026-04-25T07:41:26.92Z</time></trkpt><trkpt lat="41.9737697" lon="2.2125427"><ele>573.5</ele><time>2026-04-25T07:41:27.921Z</time></trkpt><trkpt lat="41.9739131" lon="2.2125559"><ele>575.25</ele><time>2026-04-25T07:41:28.921Z</time></trkpt><trkpt lat="41.9740492" lon="2.2125658"><ele>577.0</ele><time>2026-04-25T07:41:29.92Z</time></trkpt><trkpt lat="41.9741764" lon="2.212567"><ele>579.0</ele><time>2026-04-25T07:41:30.921Z</time></trkpt><trkpt lat="41.9742913" lon="2.2125369"><ele>581.0</ele><time>2026-04-25T07:41:31.922Z</time></trkpt><trkpt lat="41.9743882" lon="2.2124588"><ele>583.0</ele><time>2026-04-25T07:41:32.921Z</time></trkpt><trkpt lat="41.9744568" lon="2.2123366"><ele>585.0</ele><time>2026-04-25T07:41:33.921Z</time></trkpt><trkpt lat="41.9744989" lon="2.212178"><ele>585.0</ele><time>2026-04-25T07:41:34.922Z</time></trkpt><trkpt lat="41.9745302" lon="2.2119945"><ele>585.0</ele><time>2026-04-25T07:41:35.921Z</time></trkpt><trkpt lat="41.9745663" lon="2.2118038"><ele>585.0</ele><time>2026-04-25T07:41:36.921Z</time></trkpt><trkpt lat="41.9746173" lon="2.2116174"><ele>585.0</ele><time>2026-04-25T07:41:37.921Z</time></trkpt><trkpt lat="41.9746998" lon="2.2114434"><ele>585.6666666666666</ele><time>2026-04-25T07:41:38.922Z</time></trkpt><trkpt lat="41.97481" lon="2.2112893"><ele>586.3333333333333</ele><time>2026-04-25T07:41:39.922Z</time></trkpt><trkpt lat="41.9749284" lon="2.2111343"><ele>587.0</ele><time>2026-04-25T07:41:40.921Z</time></trkpt><trkpt lat="41.9750377" lon="2.2109651"><ele>589.0</ele><time>2026-04-25T07:41:41.922Z</time></trkpt><trkpt lat="41.9751251" lon="2.2107686"><ele>591.0</ele><time>2026-04-25T07:41:42.921Z</time></trkpt><trkpt lat="41.9751967" lon="2.2105494"><ele>593.0</ele><time>2026-04-25T07:41:43.921Z</time></trkpt><trkpt lat="41.9752675" lon="2.2103226"><ele>593.0</ele><time>2026-04-25T07:41:44.921Z</time></trkpt><trkpt lat="41.9753467" lon="2.210104"><ele>593.0</ele><time>2026-04-25T07:41:45.921Z</time></trkpt><trkpt lat="41.9754499" lon="2.209907"><ele>593.0</ele><time>2026-04-25T07:41:46.921Z</time></trkpt><trkpt lat="41.9755807" lon="2.2097282"><ele>593.0</ele><time>2026-04-25T07:41:47.921Z</time></trkpt><trkpt lat="41.9757355" lon="2.2095748"><ele>593.0</ele><time>2026-04-25T07:41:48.92Z</time></trkpt><trkpt lat="41.9759085" lon="2.2094577"><ele>593.0</ele><time>2026-04-25T07:41:49.921Z</time></trkpt><trkpt lat="41.9760885" lon="2.2093657"><ele>598.6666666666666</ele><time>2026-04-25T07:41:50.921Z</time></trkpt><trkpt lat="41.9762678" lon="2.2092738"><ele>604.3333333333334</ele><time>2026-04-25T07:41:51.921Z</time></trkpt><trkpt lat="41.9764429" lon="2.2091599"><ele>610.0</ele><time>2026-04-25T07:41:52.921Z</time></trkpt><trkpt lat="41.9766064" lon="2.2090215"><ele>613.3333333333334</ele><time>2026-04-25T07:41:53.922Z</time></trkpt><trkpt lat="41.9767472" lon="2.2088386"><ele>616.6666666666666</ele><time>2026-04-25T07:41:54.921Z</time></trkpt><trkpt lat="41.9768725" lon="2.2086274"><ele>620.0</ele><time>2026-04-25T07:41:55.92Z</time></trkpt><trkpt lat="41.9769878" lon="2.2083842"><ele>616.6666666666666</ele><time>2026-04-25T07:41:56.922Z</time></trkpt><trkpt lat="41.9771109" lon="2.2081405"><ele>613.3333333333334</ele><time>2026-04-25T07:41:57.921Z</time></trkpt><trkpt lat="41.9772343" lon="2.2078911"><ele>610.0</ele><time>2026-04-25T07:41:58.921Z</time></trkpt><trkpt lat="41.9773577" lon="2.2076407"><ele>610.0</ele><time>2026-04-25T07:41:59.921Z</time></trkpt><trkpt lat="41.977478" lon="2.2074005"><ele>610.0</ele><time>2026-04-25T07:42:00.922Z</time></trkpt><trkpt lat="41.9775917" lon="2.2071852"><ele>610.0</ele><time>2026-04-25T07:42:01.922Z</time></trkpt><trkpt lat="41.9777168" lon="2.2069915"><ele>610.0</ele><time>2026-04-25T07:42:02.921Z</time></trkpt><trkpt lat="41.9778711" lon="2.2068134"><ele>610.0</ele><time>2026-04-25T07:42:03.922Z</time></trkpt><trkpt lat="41.9780467" lon="2.2066355"><ele>610.0</ele><time>2026-04-25T07:42:04.92Z</time></trkpt><trkpt lat="41.9782355" lon="2.206447"><ele>612.5</ele><time>2026-04-25T07:42:05.921Z</time></trkpt><trkpt lat="41.9784299" lon="2.2062495"><ele>615.0</ele><time>2026-04-25T07:42:06.922Z</time></trkpt><trkpt lat="41.9786264" lon="2.2060479"><ele>615.0</ele><time>2026-04-25T07:42:07.921Z</time></trkpt><trkpt lat="41.9788231" lon="2.2058482"><ele>615.0</ele><time>2026-04-25T07:42:08.92Z</time></trkpt><trkpt lat="41.979016" lon="2.2056486"><ele>619.5</ele><time>2026-04-25T07:42:09.92Z</time></trkpt><trkpt lat="41.9792062" lon="2.2054516"><ele>624.0</ele><time>2026-04-25T07:42:10.921Z</time></trkpt><trkpt lat="41.9793904" lon="2.2052617"><ele>624.0</ele><time>2026-04-25T07:42:11.921Z</time></trkpt><trkpt lat="41.979564" lon="2.2050837"><ele>624.0</ele><time>2026-04-25T07:42:12.922Z</time></trkpt><trkpt lat="41.979721" lon="2.2049267"><ele>624.0</ele><time>2026-04-25T07:42:13.922Z</time></trkpt><trkpt lat="41.9798588" lon="2.2047856"><ele>623.6666666666666</ele><time>2026-04-25T07:42:14.921Z</time></trkpt><trkpt lat="41.9799808" lon="2.2046458"><ele>623.3333333333333</ele><time>2026-04-25T07:42:15.921Z</time></trkpt><trkpt lat="41.9800854" lon="2.2044882"><ele>623.0</ele><time>2026-04-25T07:42:16.921Z</time></trkpt><trkpt lat="41.9801623" lon="2.2043118"><ele>623.0</ele><time>2026-04-25T07:42:17.922Z</time></trkpt><trkpt lat="41.9802034" lon="2.2041217"><ele>623.0</ele><time>2026-04-25T07:42:18.921Z</time></trkpt><trkpt lat="41.9802109" lon="2.2039214"><ele>623.0</ele><time>2026-04-25T07:42:19.922Z</time></trkpt><trkpt lat="41.9801841" lon="2.2037224"><ele>623.0</ele><time>2026-04-25T07:42:20.921Z</time></trkpt><trkpt lat="41.9801136" lon="2.2035305"><ele>622.6666666666666</ele><time>2026-04-25T07:42:21.92Z</time></trkpt><trkpt lat="41.980008" lon="2.2033472"><ele>622.3333333333334</ele><time>2026-04-25T07:42:22.922Z</time></trkpt><trkpt lat="41.9798742" lon="2.2031695"><ele>622.0</ele><time>2026-04-25T07:42:23.921Z</time></trkpt><trkpt lat="41.9797276" lon="2.2029929"><ele>623.0</ele><time>2026-04-25T07:42:24.921Z</time></trkpt><trkpt lat="41.9795694" lon="2.2028054"><ele>624.0</ele><time>2026-04-25T07:42:25.92Z</time></trkpt><trkpt lat="41.9794073" lon="2.2026039"><ele>625.0</ele><time>2026-04-25T07:42:26.922Z</time></trkpt><trkpt lat="41.9792444" lon="2.2024035"><ele>627.3333333333334</ele><time>2026-04-25T07:42:27.92Z</time></trkpt><trkpt lat="41.9790733" lon="2.2022175"><ele>629.6666666666666</ele><time>2026-04-25T07:42:28.921Z</time></trkpt><trkpt lat="41.9788823" lon="2.2020595"><ele>632.0</ele><time>2026-04-25T07:42:29.921Z</time></trkpt><trkpt lat="41.9786719" lon="2.201935"><ele>632.0</ele><time>2026-04-25T07:42:30.922Z</time></trkpt><trkpt lat="41.9784546" lon="2.2018067"><ele>632.0</ele><time>2026-04-25T07:42:31.921Z</time></trkpt><trkpt lat="41.9782382" lon="2.2016784"><ele>631.3333333333333</ele><time>2026-04-25T07:42:32.921Z</time></trkpt><trkpt lat="41.9780279" lon="2.2015541"><ele>630.6666666666666</ele><time>2026-04-25T07:42:33.922Z</time></trkpt><trkpt lat="41.9778324" lon="2.2014392"><ele>630.0</ele><time>2026-04-25T07:42:34.92Z</time></trkpt><trkpt lat="41.9776615" lon="2.2013311"><ele>632.25</ele><time>2026-04-25T07:42:35.921Z</time></trkpt><trkpt lat="41.9775224" lon="2.2012405"><ele>634.5</ele><time>2026-04-25T07:42:36.922Z</time></trkpt><trkpt lat="41.9774013" lon="2.2011448"><ele>636.75</ele><time>2026-04-25T07:42:37.921Z</time></trkpt><trkpt lat="41.9773039" lon="2.2010187"><ele>639.0</ele><time>2026-04-25T07:42:38.921Z</time></trkpt><trkpt lat="41.9772489" lon="2.2008724"><ele>639.0</ele><time>2026-04-25T07:42:39.922Z</time></trkpt><trkpt lat="41.977238" lon="2.2007323"><ele>639.0</ele><time>2026-04-25T07:42:40.921Z</time></trkpt><trkpt lat="41.9772639" lon="2.2005878"><ele>639.0</ele><time>2026-04-25T07:42:41.921Z</time></trkpt><trkpt lat="41.9773168" lon="2.2004287"><ele>639.0</ele><time>2026-04-25T07:42:42.921Z</time></trkpt><trkpt lat="41.9774015" lon="2.2002672"><ele>641.0</ele><time>2026-04-25T07:42:43.921Z</time></trkpt><trkpt lat="41.9775183" lon="2.2001101"><ele>643.0</ele><time>2026-04-25T07:42:44.921Z</time></trkpt><trkpt lat="41.9776549" lon="2.1999557"><ele>645.0</ele><time>2026-04-25T07:42:45.92Z</time></trkpt><trkpt lat="41.9778011" lon="2.1998002"><ele>648.3333333333334</ele><time>2026-04-25T07:42:46.922Z</time></trkpt><trkpt lat="41.9779538" lon="2.1996435"><ele>651.6666666666667</ele><time>2026-04-25T07:42:47.92Z</time></trkpt><trkpt lat="41.9781115" lon="2.1994893"><ele>655.0</ele><time>2026-04-25T07:42:48.922Z</time></trkpt><trkpt lat="41.9782747" lon="2.1993226"><ele>655.3333333333334</ele><time>2026-04-25T07:42:49.922Z</time></trkpt><trkpt lat="41.9784332" lon="2.1991553"><ele>655.6666666666666</ele><time>2026-04-25T07:42:50.921Z</time></trkpt><trkpt lat="41.978594" lon="2.1990033"><ele>656.0</ele><time>2026-04-25T07:42:51.92Z</time></trkpt><trkpt lat="41.9787677" lon="2.1989013"><ele>660.3333333333333</ele><time>2026-04-25T07:42:52.921Z</time></trkpt><trkpt lat="41.9789553" lon="2.1988487"><ele>664.6666666666666</ele><time>2026-04-25T07:42:53.921Z</time></trkpt><trkpt lat="41.9791541" lon="2.1988226"><ele>669.0</ele><time>2026-04-25T07:42:54.922Z</time></trkpt><trkpt lat="41.9793574" lon="2.1988004"><ele>670.0</ele><time>2026-04-25T07:42:55.922Z</time></trkpt><trkpt lat="41.9795621" lon="2.198772"><ele>671.0</ele><time>2026-04-25T07:42:56.921Z</time></trkpt><trkpt lat="41.9797669" lon="2.1987412"><ele>672.0</ele><time>2026-04-25T07:42:57.922Z</time></trkpt><trkpt lat="41.9799632" lon="2.1987137"><ele>671.75</ele><time>2026-04-25T07:42:58.92Z</time></trkpt><trkpt lat="41.980134" lon="2.1986923"><ele>671.5</ele><time>2026-04-25T07:42:59.921Z</time></trkpt><trkpt lat="41.9802767" lon="2.1986704"><ele>671.25</ele><time>2026-04-25T07:43:00.92Z</time></trkpt><trkpt lat="41.9803958" lon="2.1986411"><ele>671.0</ele><time>2026-04-25T07:43:01.92Z</time></trkpt><trkpt lat="41.980491" lon="2.1986021"><ele>671.0</ele><time>2026-04-25T07:43:02.921Z</time></trkpt><trkpt lat="41.9805624" lon="2.1985292"><ele>671.0</ele><time>2026-04-25T07:43:03.921Z</time></trkpt><trkpt lat="41.980596" lon="2.1984307"><ele>671.0</ele><time>2026-04-25T07:43:04.921Z</time></trkpt><trkpt lat="41.980583" lon="2.1983227"><ele>671.0</ele><time>2026-04-25T07:43:05.92Z</time></trkpt><trkpt lat="41.9805248" lon="2.1982325"><ele>671.0</ele><time>2026-04-25T07:43:06.921Z</time></trkpt><trkpt lat="41.9804342" lon="2.1981788"><ele>671.0</ele><time>2026-04-25T07:43:07.92Z</time></trkpt><trkpt lat="41.9803214" lon="2.1981646"><ele>674.0</ele><time>2026-04-25T07:43:08.922Z</time></trkpt><trkpt lat="41.9801942" lon="2.1981451"><ele>677.0</ele><time>2026-04-25T07:43:09.921Z</time></trkpt><trkpt lat="41.980062" lon="2.1980833"><ele>680.0</ele><time>2026-04-25T07:43:10.921Z</time></trkpt><trkpt lat="41.9799386" lon="2.1979848"><ele>683.0</ele><time>2026-04-25T07:43:11.921Z</time></trkpt><trkpt lat="41.9798103" lon="2.1978494"><ele>683.0</ele><time>2026-04-25T07:43:12.922Z</time></trkpt><trkpt lat="41.97968" lon="2.1976911"><ele>683.0</ele><time>2026-04-25T07:43:13.922Z</time></trkpt><trkpt lat="41.9795415" lon="2.1975249"><ele>683.0</ele><time>2026-04-25T07:43:14.922Z</time></trkpt><trkpt lat="41.9793971" lon="2.1973591"><ele>686.3333333333333</ele><time>2026-04-25T07:43:15.921Z</time></trkpt><trkpt lat="41.9792504" lon="2.1971924"><ele>689.6666666666666</ele><time>2026-04-25T07:43:16.921Z</time></trkpt><trkpt lat="41.9791066" lon="2.1970263"><ele>693.0</ele><time>2026-04-25T07:43:17.921Z</time></trkpt><trkpt lat="41.9789685" lon="2.196862"><ele>693.0</ele><time>2026-04-25T07:43:18.921Z</time></trkpt><trkpt lat="41.9788317" lon="2.1967034"><ele>693.0</ele><time>2026-04-25T07:43:19.92Z</time></trkpt><trkpt lat="41.9786984" lon="2.1965297"><ele>693.0</ele><time>2026-04-25T07:43:20.921Z</time></trkpt><trkpt lat="41.9785784" lon="2.1963307"><ele>694.3333333333334</ele><time>2026-04-25T07:43:21.921Z</time></trkpt><trkpt lat="41.9784788" lon="2.1961187"><ele>695.6666666666667</ele><time>2026-04-25T07:43:22.921Z</time></trkpt><trkpt lat="41.9784022" lon="2.195913"><ele>697.0</ele><time>2026-04-25T07:43:23.922Z</time></trkpt><trkpt lat="41.978331" lon="2.1957273"><ele>700.0</ele><time>2026-04-25T07:43:24.921Z</time></trkpt><trkpt lat="41.9782366" lon="2.1955772"><ele>703.0</ele><time>2026-04-25T07:43:25.92Z</time></trkpt><trkpt lat="41.9781115" lon="2.1954558"><ele>706.0</ele><time>2026-04-25T07:43:26.922Z</time></trkpt><trkpt lat="41.9779656" lon="2.1953772"><ele>706.0</ele><time>2026-04-25T07:43:27.922Z</time></trkpt><trkpt lat="41.9778021" lon="2.1953142"><ele>706.0</ele><time>2026-04-25T07:43:28.921Z</time></trkpt><trkpt lat="41.9776403" lon="2.1952517"><ele>706.0</ele><time>2026-04-25T07:43:29.921Z</time></trkpt><trkpt lat="41.9774829" lon="2.1951824"><ele>704.6666666666667</ele><time>2026-04-25T07:43:30.921Z</time></trkpt><trkpt lat="41.9773477" lon="2.1950885"><ele>703.3333333333334</ele><time>2026-04-25T07:43:31.922Z</time></trkpt><trkpt lat="41.9772324" lon="2.1949513"><ele>702.0</ele><time>2026-04-25T07:43:32.92Z</time></trkpt><trkpt lat="41.977125" lon="2.194777"><ele>705.6666666666666</ele><time>2026-04-25T07:43:33.922Z</time></trkpt><trkpt lat="41.977019" lon="2.1945765"><ele>709.3333333333333</ele><time>2026-04-25T07:43:34.92Z</time></trkpt><trkpt lat="41.9769093" lon="2.1943615"><ele>713.0</ele><time>2026-04-25T07:43:35.921Z</time></trkpt><trkpt lat="41.9767995" lon="2.1941499"><ele>715.0</ele><time>2026-04-25T07:43:36.921Z</time></trkpt><trkpt lat="41.9767038" lon="2.1939572"><ele>717.0</ele><time>2026-04-25T07:43:37.92Z</time></trkpt><trkpt lat="41.9766268" lon="2.1937851"><ele>719.0</ele><time>2026-04-25T07:43:38.922Z</time></trkpt><trkpt lat="41.9765753" lon="2.1936029"><ele>714.6666666666666</ele><time>2026-04-25T07:43:39.92Z</time></trkpt><trkpt lat="41.9765623" lon="2.1934035"><ele>710.3333333333334</ele><time>2026-04-25T07:43:40.921Z</time></trkpt><trkpt lat="41.9765807" lon="2.19319"><ele>706.0</ele><time>2026-04-25T07:43:41.921Z</time></trkpt><trkpt lat="41.976628" lon="2.1929715"><ele>712.3333333333334</ele><time>2026-04-25T07:43:42.922Z</time></trkpt><trkpt lat="41.9766932" lon="2.1927606"><ele>718.6666666666666</ele><time>2026-04-25T07:43:43.92Z</time></trkpt><trkpt lat="41.9767872" lon="2.1925534"><ele>725.0</ele><time>2026-04-25T07:43:44.921Z</time></trkpt><trkpt lat="41.9768954" lon="2.1923564"><ele>725.0</ele><time>2026-04-25T07:43:45.921Z</time></trkpt><trkpt lat="41.9770095" lon="2.1921553"><ele>725.0</ele><time>2026-04-25T07:43:46.922Z</time></trkpt><trkpt lat="41.97712" lon="2.1919546"><ele>725.0</ele><time>2026-04-25T07:43:47.921Z</time></trkpt><trkpt lat="41.9772295" lon="2.191754"><ele>725.0</ele><time>2026-04-25T07:43:48.921Z</time></trkpt><trkpt lat="41.9773391" lon="2.191553"><ele>725.0</ele><time>2026-04-25T07:43:49.922Z</time></trkpt><trkpt lat="41.9774423" lon="2.1913564"><ele>725.0</ele><time>2026-04-25T07:43:50.921Z</time></trkpt><trkpt lat="41.9775399" lon="2.1911668"><ele>730.0</ele><time>2026-04-25T07:43:51.921Z</time></trkpt><trkpt lat="41.9776314" lon="2.190977"><ele>735.0</ele><time>2026-04-25T07:43:52.922Z</time></trkpt><trkpt lat="41.9777006" lon="2.1907639"><ele>740.0</ele><time>2026-04-25T07:43:53.922Z</time></trkpt><trkpt lat="41.9777396" lon="2.1905212"><ele>740.6666666666666</ele><time>2026-04-25T07:43:54.921Z</time></trkpt><trkpt lat="41.9777566" lon="2.1902611"><ele>741.3333333333334</ele><time>2026-04-25T07:43:55.921Z</time></trkpt><trkpt lat="41.9777635" lon="2.1899934"><ele>742.0</ele><time>2026-04-25T07:43:56.921Z</time></trkpt><trkpt lat="41.9777693" lon="2.1897308"><ele>744.6666666666667</ele><time>2026-04-25T07:43:57.92Z</time></trkpt><trkpt lat="41.9777737" lon="2.1894857"><ele>747.3333333333334</ele><time>2026-04-25T07:43:58.921Z</time></trkpt><trkpt lat="41.9777801" lon="2.1892671"><ele>750.0</ele><time>2026-04-25T07:43:59.922Z</time></trkpt><trkpt lat="41.9777747" lon="2.1890805"><ele>748.25</ele><time>2026-04-25T07:44:00.921Z</time></trkpt><trkpt lat="41.977734" lon="2.18892"><ele>746.5</ele><time>2026-04-25T07:44:01.92Z</time></trkpt><trkpt lat="41.9776585" lon="2.1887701"><ele>744.75</ele><time>2026-04-25T07:44:02.921Z</time></trkpt><trkpt lat="41.9775438" lon="2.1886514"><ele>743.0</ele><time>2026-04-25T07:44:03.92Z</time></trkpt><trkpt lat="41.9774028" lon="2.1885448"><ele>743.0</ele><time>2026-04-25T07:44:04.921Z</time></trkpt><trkpt lat="41.9772428" lon="2.1884355"><ele>743.0</ele><time>2026-04-25T07:44:05.922Z</time></trkpt><trkpt lat="41.9770716" lon="2.1883138"><ele>743.0</ele><time>2026-04-25T07:44:06.921Z</time></trkpt><trkpt lat="41.9768981" lon="2.1881988"><ele>743.6666666666666</ele><time>2026-04-25T07:44:07.922Z</time></trkpt><trkpt lat="41.9767407" lon="2.1880833"><ele>744.3333333333334</ele><time>2026-04-25T07:44:08.921Z</time></trkpt><trkpt lat="41.9766057" lon="2.1879394"><ele>745.0</ele><time>2026-04-25T07:44:09.922Z</time></trkpt><trkpt lat="41.9764883" lon="2.1877602"><ele>745.0</ele><time>2026-04-25T07:44:10.922Z</time></trkpt><trkpt lat="41.9763753" lon="2.1875612"><ele>745.0</ele><time>2026-04-25T07:44:11.921Z</time></trkpt><trkpt lat="41.9762701" lon="2.1873536"><ele>745.0</ele><time>2026-04-25T07:44:12.922Z</time></trkpt><trkpt lat="41.9761895" lon="2.1871169"><ele>751.6666666666667</ele><time>2026-04-25T07:44:13.921Z</time></trkpt><trkpt lat="41.9761312" lon="2.1868666"><ele>758.3333333333334</ele><time>2026-04-25T07:44:14.921Z</time></trkpt><trkpt lat="41.9760689" lon="2.1866198"><ele>765.0</ele><time>2026-04-25T07:44:15.92Z</time></trkpt><trkpt lat="41.9759791" lon="2.1863771"><ele>762.0</ele><time>2026-04-25T07:44:16.922Z</time></trkpt><trkpt lat="41.9758859" lon="2.1861395"><ele>759.0</ele><time>2026-04-25T07:44:17.921Z</time></trkpt><trkpt lat="41.9758093" lon="2.1858982"><ele>756.0</ele><time>2026-04-25T07:44:18.921Z</time></trkpt><trkpt lat="41.9757469" lon="2.1856529"><ele>756.0</ele><time>2026-04-25T07:44:19.921Z</time></trkpt><trkpt lat="41.9757048" lon="2.1854207"><ele>756.0</ele><time>2026-04-25T07:44:20.922Z</time></trkpt><trkpt lat="41.9756976" lon="2.1852056"><ele>756.0</ele><time>2026-04-25T07:44:21.922Z</time></trkpt><trkpt lat="41.9757316" lon="2.1849797"><ele>755.3333333333334</ele><time>2026-04-25T07:44:22.922Z</time></trkpt><trkpt lat="41.9757833" lon="2.1847502"><ele>754.6666666666667</ele><time>2026-04-25T07:44:23.921Z</time></trkpt><trkpt lat="41.9758305" lon="2.1845208"><ele>754.0</ele><time>2026-04-25T07:44:24.921Z</time></trkpt><trkpt lat="41.9758763" lon="2.1842989"><ele>762.5</ele><time>2026-04-25T07:44:25.921Z</time></trkpt><trkpt lat="41.9759272" lon="2.1841056"><ele>771.0</ele><time>2026-04-25T07:44:26.922Z</time></trkpt><trkpt lat="41.9759863" lon="2.1839438"><ele>779.5</ele><time>2026-04-25T07:44:27.921Z</time></trkpt><trkpt lat="41.9760632" lon="2.1838056"><ele>788.0</ele><time>2026-04-25T07:44:28.921Z</time></trkpt><trkpt lat="41.9761328" lon="2.1836684"><ele>788.0</ele><time>2026-04-25T07:44:29.922Z</time></trkpt><trkpt lat="41.9761631" lon="2.1835177"><ele>788.0</ele><time>2026-04-25T07:44:30.921Z</time></trkpt><trkpt lat="41.9761478" lon="2.1833599"><ele>788.0</ele><time>2026-04-25T07:44:31.922Z</time></trkpt><trkpt lat="41.9760942" lon="2.1832062"><ele>788.0</ele><time>2026-04-25T07:44:32.921Z</time></trkpt><trkpt lat="41.9760203" lon="2.1830349"><ele>781.6666666666667</ele><time>2026-04-25T07:44:33.921Z</time></trkpt><trkpt lat="41.9759398" lon="2.1828408"><ele>775.3333333333333</ele><time>2026-04-25T07:44:34.921Z</time></trkpt><trkpt lat="41.9758514" lon="2.1826404"><ele>769.0</ele><time>2026-04-25T07:44:35.922Z</time></trkpt><trkpt lat="41.9757586" lon="2.1824348"><ele>777.0</ele><time>2026-04-25T07:44:36.922Z</time></trkpt><trkpt lat="41.975668" lon="2.182221"><ele>785.0</ele><time>2026-04-25T07:44:37.92Z</time></trkpt><trkpt lat="41.9755768" lon="2.1820083"><ele>793.0</ele><time>2026-04-25T07:44:38.921Z</time></trkpt><trkpt lat="41.9754889" lon="2.181806"><ele>793.0</ele><time>2026-04-25T07:44:39.921Z</time></trkpt><trkpt lat="41.9753978" lon="2.1816183"><ele>793.0</ele><time>2026-04-25T07:44:40.921Z</time></trkpt><trkpt lat="41.9752812" lon="2.1814668"><ele>793.0</ele><time>2026-04-25T07:44:41.921Z</time></trkpt><trkpt lat="41.9751346" lon="2.1813502"><ele>793.3333333333333</ele><time>2026-04-25T07:44:42.921Z</time></trkpt><trkpt lat="41.974974" lon="2.1812509"><ele>793.6666666666667</ele><time>2026-04-25T07:44:43.92Z</time></trkpt><trkpt lat="41.9748223" lon="2.1811553"><ele>794.0</ele><time>2026-04-25T07:44:44.922Z</time></trkpt><trkpt lat="41.9746812" lon="2.1810775"><ele>794.0</ele><time>2026-04-25T07:44:45.92Z</time></trkpt><trkpt lat="41.9745354" lon="2.1810388"><ele>794.0</ele><time>2026-04-25T07:44:46.922Z</time></trkpt><trkpt lat="41.9743909" lon="2.1810326"><ele>794.0</ele><time>2026-04-25T07:44:47.922Z</time></trkpt><trkpt lat="41.9742571" lon="2.1809999"><ele>794.0</ele><time>2026-04-25T07:44:48.922Z</time></trkpt><trkpt lat="41.9741385" lon="2.1809163"><ele>790.3333333333334</ele><time>2026-04-25T07:44:49.922Z</time></trkpt><trkpt lat="41.9740237" lon="2.1807966"><ele>786.6666666666667</ele><time>2026-04-25T07:44:50.922Z</time></trkpt><trkpt lat="41.973901" lon="2.1806662"><ele>783.0</ele><time>2026-04-25T07:44:51.92Z</time></trkpt><trkpt lat="41.9737793" lon="2.1805344"><ele>795.3333333333333</ele><time>2026-04-25T07:44:52.921Z</time></trkpt><trkpt lat="41.9736591" lon="2.1804159"><ele>807.6666666666666</ele><time>2026-04-25T07:44:53.922Z</time></trkpt><trkpt lat="41.9735171" lon="2.1803247"><ele>820.0</ele><time>2026-04-25T07:44:54.921Z</time></trkpt><trkpt lat="41.9733583" lon="2.1802788"><ele>816.25</ele><time>2026-04-25T07:44:55.92Z</time></trkpt><trkpt lat="41.9732034" lon="2.1802753"><ele>812.5</ele><time>2026-04-25T07:44:56.92Z</time></trkpt><trkpt lat="41.9730703" lon="2.1803027"><ele>808.75</ele><time>2026-04-25T07:44:57.922Z</time></trkpt><trkpt lat="41.9729478" lon="2.1803787"><ele>805.0</ele><time>2026-04-25T07:44:58.922Z</time></trkpt><trkpt lat="41.9728482" lon="2.1805008"><ele>805.0</ele><time>2026-04-25T07:44:59.922Z</time></trkpt><trkpt lat="41.9727532" lon="2.1806238"><ele>805.0</ele><time>2026-04-25T07:45:00.92Z</time></trkpt><trkpt lat="41.9726354" lon="2.180693"><ele>805.0</ele><time>2026-04-25T07:45:01.921Z</time></trkpt><trkpt lat="41.9725123" lon="2.1807103"><ele>805.0</ele><time>2026-04-25T07:45:02.921Z</time></trkpt><trkpt lat="41.9723813" lon="2.1806778"><ele>811.0</ele><time>2026-04-25T07:45:03.92Z</time></trkpt><trkpt lat="41.9722406" lon="2.180622"><ele>817.0</ele><time>2026-04-25T07:45:04.922Z</time></trkpt><trkpt lat="41.972091" lon="2.1805614"><ele>823.0</ele><time>2026-04-25T07:45:05.92Z</time></trkpt><trkpt lat="41.9719407" lon="2.1804978"><ele>823.0</ele><time>2026-04-25T07:45:06.921Z</time></trkpt><trkpt lat="41.9718081" lon="2.1804133"><ele>823.0</ele><time>2026-04-25T07:45:07.921Z</time></trkpt><trkpt lat="41.9716854" lon="2.1802833"><ele>823.0</ele><time>2026-04-25T07:45:08.921Z</time></trkpt><trkpt lat="41.9715703" lon="2.1801244"><ele>826.0</ele><time>2026-04-25T07:45:09.921Z</time></trkpt><trkpt lat="41.9714559" lon="2.1799447"><ele>829.0</ele><time>2026-04-25T07:45:10.921Z</time></trkpt><trkpt lat="41.9713557" lon="2.1797418"><ele>832.0</ele><time>2026-04-25T07:45:11.921Z</time></trkpt><trkpt lat="41.9712743" lon="2.1795237"><ele>832.0</ele><time>2026-04-25T07:45:12.92Z</time></trkpt><trkpt lat="41.9712013" lon="2.179309"><ele>832.0</ele><time>2026-04-25T07:45:13.921Z</time></trkpt><trkpt lat="41.9711304" lon="2.1791039"><ele>832.0</ele><time>2026-04-25T07:45:14.921Z</time></trkpt><trkpt lat="41.9710357" lon="2.1789165"><ele>829.0</ele><time>2026-04-25T07:45:15.922Z</time></trkpt><trkpt lat="41.9709118" lon="2.1787639"><ele>826.0</ele><time>2026-04-25T07:45:16.921Z</time></trkpt><trkpt lat="41.9707798" lon="2.1786005"><ele>823.0</ele><time>2026-04-25T07:45:17.921Z</time></trkpt><trkpt lat="41.9706598" lon="2.1784089"><ele>823.0</ele><time>2026-04-25T07:45:18.921Z</time></trkpt><trkpt lat="41.9705401" lon="2.1782134"><ele>823.0</ele><time>2026-04-25T07:45:19.921Z</time></trkpt><trkpt lat="41.9704193" lon="2.1780381"><ele>823.0</ele><time>2026-04-25T07:45:20.922Z</time></trkpt><trkpt lat="41.9702718" lon="2.177899"><ele>822.6666666666666</ele><time>2026-04-25T07:45:21.921Z</time></trkpt><trkpt lat="41.9701008" lon="2.1777939"><ele>822.3333333333333</ele><time>2026-04-25T07:45:22.921Z</time></trkpt><trkpt lat="41.9699367" lon="2.1776701"><ele>822.0</ele><time>2026-04-25T07:45:23.921Z</time></trkpt><trkpt lat="41.9697887" lon="2.1775073"><ele>830.3333333333333</ele><time>2026-04-25T07:45:24.92Z</time></trkpt><trkpt lat="41.969642" lon="2.1773455"><ele>838.6666666666666</ele><time>2026-04-25T07:45:25.921Z</time></trkpt><trkpt lat="41.9694819" lon="2.1772121"><ele>847.0</ele><time>2026-04-25T07:45:26.921Z</time></trkpt><trkpt lat="41.9693175" lon="2.177097"><ele>841.0</ele><time>2026-04-25T07:45:27.921Z</time></trkpt><trkpt lat="41.9691595" lon="2.1769969"><ele>835.0</ele><time>2026-04-25T07:45:28.922Z</time></trkpt><trkpt lat="41.969016" lon="2.1769301"><ele>829.0</ele><time>2026-04-25T07:45:29.92Z</time></trkpt><trkpt lat="41.9688984" lon="2.1768787"><ele>829.0</ele><time>2026-04-25T07:45:30.921Z</time></trkpt><trkpt lat="41.968808" lon="2.176803"><ele>829.0</ele><time>2026-04-25T07:45:31.92Z</time></trkpt><trkpt lat="41.9687431" lon="2.1766815"><ele>829.0</ele><time>2026-04-25T07:45:32.922Z</time></trkpt><trkpt lat="41.9687158" lon="2.1765242"><ele>829.0</ele><time>2026-04-25T07:45:33.92Z</time></trkpt><trkpt lat="41.9687324" lon="2.1763503"><ele>829.5</ele><time>2026-04-25T07:45:34.92Z</time></trkpt><trkpt lat="41.9687888" lon="2.1761761"><ele>830.0</ele><time>2026-04-25T07:45:35.922Z</time></trkpt><trkpt lat="41.9688728" lon="2.1760084"><ele>830.5</ele><time>2026-04-25T07:45:36.921Z</time></trkpt><trkpt lat="41.9689682" lon="2.175847"><ele>831.0</ele><time>2026-04-25T07:45:37.922Z</time></trkpt><trkpt lat="41.9690781" lon="2.1756925"><ele>831.6666666666667</ele><time>2026-04-25T07:45:38.921Z</time></trkpt><trkpt lat="41.9692092" lon="2.1755577"><ele>832.3333333333334</ele><time>2026-04-25T07:45:39.921Z</time></trkpt><trkpt lat="41.9693503" lon="2.1754419"><ele>833.0</ele><time>2026-04-25T07:45:40.922Z</time></trkpt><trkpt lat="41.9694803" lon="2.1753279"><ele>833.0</ele><time>2026-04-25T07:45:41.92Z</time></trkpt><trkpt lat="41.9695931" lon="2.1752049"><ele>833.0</ele><time>2026-04-25T07:45:42.92Z</time></trkpt><trkpt lat="41.9696862" lon="2.1750937"><ele>833.0</ele><time>2026-04-25T07:45:43.921Z</time></trkpt><trkpt lat="41.9697734" lon="2.1750125"><ele>833.0</ele><time>2026-04-25T07:45:44.922Z</time></trkpt><trkpt lat="41.9698773" lon="2.1749752"><ele>833.0</ele><time>2026-04-25T07:45:45.922Z</time></trkpt><trkpt lat="41.9699861" lon="2.1749965"><ele>833.0</ele><time>2026-04-25T07:45:46.922Z</time></trkpt><trkpt lat="41.970084" lon="2.1750873"><ele>833.0</ele><time>2026-04-25T07:45:47.922Z</time></trkpt><trkpt lat="41.9701797" lon="2.1752252"><ele>833.0</ele><time>2026-04-25T07:45:48.921Z</time></trkpt><trkpt lat="41.9702795" lon="2.1753788"><ele>835.0</ele><time>2026-04-25T07:45:49.92Z</time></trkpt><trkpt lat="41.9703885" lon="2.1755429"><ele>837.0</ele><time>2026-04-25T07:45:50.921Z</time></trkpt><trkpt lat="41.9705083" lon="2.1757207"><ele>839.0</ele><time>2026-04-25T07:45:51.922Z</time></trkpt><trkpt lat="41.9706321" lon="2.1759085"><ele>839.0</ele><time>2026-04-25T07:45:52.922Z</time></trkpt><trkpt lat="41.970751" lon="2.1760944"><ele>839.0</ele><time>2026-04-25T07:45:53.92Z</time></trkpt><trkpt lat="41.9708614" lon="2.1762625"><ele>839.0</ele><time>2026-04-25T07:45:54.921Z</time></trkpt><trkpt lat="41.9709705" lon="2.1764183"><ele>841.6666666666667</ele><time>2026-04-25T07:45:55.92Z</time></trkpt><trkpt lat="41.9710925" lon="2.1765583"><ele>844.3333333333333</ele><time>2026-04-25T07:45:56.92Z</time></trkpt><trkpt lat="41.9712343" lon="2.1766655"><ele>847.0</ele><time>2026-04-25T07:45:57.921Z</time></trkpt><trkpt lat="41.9713914" lon="2.1767297"><ele>847.0</ele><time>2026-04-25T07:45:58.921Z</time></trkpt><trkpt lat="41.9715584" lon="2.1767426"><ele>847.0</ele><time>2026-04-25T07:45:59.92Z</time></trkpt><trkpt lat="41.9717289" lon="2.176705"><ele>847.0</ele><time>2026-04-25T07:46:00.922Z</time></trkpt><trkpt lat="41.9718964" lon="2.1766259"><ele>846.0</ele><time>2026-04-25T07:46:01.921Z</time></trkpt><trkpt lat="41.9720619" lon="2.176526"><ele>845.0</ele><time>2026-04-25T07:46:02.921Z</time></trkpt><trkpt lat="41.9722224" lon="2.1764054"><ele>844.0</ele><time>2026-04-25T07:46:03.92Z</time></trkpt><trkpt lat="41.9723699" lon="2.1762706"><ele>844.0</ele><time>2026-04-25T07:46:04.922Z</time></trkpt><trkpt lat="41.9725145" lon="2.1761401"><ele>844.0</ele><time>2026-04-25T07:46:05.92Z</time></trkpt><trkpt lat="41.9726741" lon="2.1760474"><ele>844.0</ele><time>2026-04-25T07:46:06.921Z</time></trkpt><trkpt lat="41.9728469" lon="2.1759912"><ele>845.6666666666666</ele><time>2026-04-25T07:46:07.921Z</time></trkpt><trkpt lat="41.9730155" lon="2.1759828"><ele>847.3333333333333</ele><time>2026-04-25T07:46:08.921Z</time></trkpt><trkpt lat="41.9731729" lon="2.1760348"><ele>849.0</ele><time>2026-04-25T07:46:09.92Z</time></trkpt><trkpt lat="41.973338" lon="2.1761259"><ele>848.3333333333333</ele><time>2026-04-25T07:46:10.921Z</time></trkpt><trkpt lat="41.9735109" lon="2.176228"><ele>847.6666666666666</ele><time>2026-04-25T07:46:11.921Z</time></trkpt><trkpt lat="41.9736917" lon="2.1763355"><ele>847.0</ele><time>2026-04-25T07:46:12.921Z</time></trkpt><trkpt lat="41.9738795" lon="2.1764477"><ele>851.0</ele><time>2026-04-25T07:46:13.921Z</time></trkpt><trkpt lat="41.9740707" lon="2.1765631"><ele>855.0</ele><time>2026-04-25T07:46:14.92Z</time></trkpt><trkpt lat="41.9742653" lon="2.1766744"><ele>859.0</ele><time>2026-04-25T07:46:15.92Z</time></trkpt><trkpt lat="41.9744583" lon="2.1767875"><ele>859.3333333333333</ele><time>2026-04-25T07:46:16.921Z</time></trkpt><trkpt lat="41.9746465" lon="2.1768996"><ele>859.6666666666667</ele><time>2026-04-25T07:46:17.921Z</time></trkpt><trkpt lat="41.9748261" lon="2.1770086"><ele>860.0</ele><time>2026-04-25T07:46:18.921Z</time></trkpt><trkpt lat="41.9749887" lon="2.1771106"><ele>860.6666666666667</ele><time>2026-04-25T07:46:19.921Z</time></trkpt><trkpt lat="41.9751398" lon="2.1772074"><ele>861.3333333333333</ele><time>2026-04-25T07:46:20.921Z</time></trkpt><trkpt lat="41.9752889" lon="2.1772982"><ele>862.0</ele><time>2026-04-25T07:46:21.92Z</time></trkpt><trkpt lat="41.9754346" lon="2.1773697"><ele>862.3333333333333</ele><time>2026-04-25T07:46:22.921Z</time></trkpt><trkpt lat="41.9755798" lon="2.1774069"><ele>862.6666666666667</ele><time>2026-04-25T07:46:23.922Z</time></trkpt><trkpt lat="41.9757306" lon="2.1773915"><ele>863.0</ele><time>2026-04-25T07:46:24.92Z</time></trkpt><trkpt lat="41.9758805" lon="2.1773146"><ele>863.0</ele><time>2026-04-25T07:46:25.921Z</time></trkpt><trkpt lat="41.9760375" lon="2.1772044"><ele>863.0</ele><time>2026-04-25T07:46:26.922Z</time></trkpt><trkpt lat="41.9761969" lon="2.1770905"><ele>863.0</ele><time>2026-04-25T07:46:27.922Z</time></trkpt><trkpt lat="41.9763522" lon="2.1770126"><ele>863.0</ele><time>2026-04-25T07:46:28.922Z</time></trkpt><trkpt lat="41.9765154" lon="2.1769922"><ele>863.0</ele><time>2026-04-25T07:46:29.922Z</time></trkpt><trkpt lat="41.9766766" lon="2.177026"><ele>863.0</ele><time>2026-04-25T07:46:30.92Z</time></trkpt><trkpt lat="41.9768406" lon="2.1770987"><ele>862.3333333333334</ele><time>2026-04-25T07:46:31.921Z</time></trkpt><trkpt lat="41.9770067" lon="2.1771943"><ele>861.6666666666667</ele><time>2026-04-25T07:46:32.922Z</time></trkpt><trkpt lat="41.977178" lon="2.1772964"><ele>861.0</ele><time>2026-04-25T07:46:33.921Z</time></trkpt><trkpt lat="41.9773465" lon="2.1774195"><ele>862.0</ele><time>2026-04-25T07:46:34.922Z</time></trkpt><trkpt lat="41.9775014" lon="2.1775642"><ele>863.0</ele><time>2026-04-25T07:46:35.921Z</time></trkpt><trkpt lat="41.9776436" lon="2.1777082"><ele>864.0</ele><time>2026-04-25T07:46:36.92Z</time></trkpt><trkpt lat="41.9777713" lon="2.1778359"><ele>864.0</ele><time>2026-04-25T07:46:37.922Z</time></trkpt><trkpt lat="41.9778792" lon="2.1779482"><ele>864.0</ele><time>2026-04-25T07:46:38.922Z</time></trkpt><trkpt lat="41.9779696" lon="2.1780379"><ele>864.0</ele><time>2026-04-25T07:46:39.92Z</time></trkpt><trkpt lat="41.9780558" lon="2.1781218"><ele>864.0</ele><time>2026-04-25T07:46:40.92Z</time></trkpt><trkpt lat="41.9781544" lon="2.178215"><ele>866.0</ele><time>2026-04-25T07:46:41.922Z</time></trkpt><trkpt lat="41.9782668" lon="2.1783122"><ele>868.0</ele><time>2026-04-25T07:46:42.921Z</time></trkpt><trkpt lat="41.978393" lon="2.1784001"><ele>870.0</ele><time>2026-04-25T07:46:43.922Z</time></trkpt><trkpt lat="41.9785316" lon="2.178464"><ele>872.0</ele><time>2026-04-25T07:46:44.922Z</time></trkpt><trkpt lat="41.9786862" lon="2.1785152"><ele>872.0</ele><time>2026-04-25T07:46:45.921Z</time></trkpt><trkpt lat="41.9788465" lon="2.1785616"><ele>872.0</ele><time>2026-04-25T07:46:46.921Z</time></trkpt><trkpt lat="41.9789933" lon="2.1786101"><ele>872.0</ele><time>2026-04-25T07:46:47.922Z</time></trkpt><trkpt lat="41.9791269" lon="2.1786409"><ele>874.0</ele><time>2026-04-25T07:46:48.922Z</time></trkpt><trkpt lat="41.9792524" lon="2.1786328"><ele>876.0</ele><time>2026-04-25T07:46:49.921Z</time></trkpt><trkpt lat="41.9793717" lon="2.178566"><ele>878.0</ele><time>2026-04-25T07:46:50.921Z</time></trkpt><trkpt lat="41.9794721" lon="2.1784472"><ele>880.0</ele><time>2026-04-25T07:46:51.922Z</time></trkpt><trkpt lat="41.9795552" lon="2.1782828"><ele>879.3333333333333</ele><time>2026-04-25T07:46:52.921Z</time></trkpt><trkpt lat="41.979633" lon="2.1780901"><ele>878.6666666666667</ele><time>2026-04-25T07:46:53.922Z</time></trkpt><trkpt lat="41.9797193" lon="2.1779001"><ele>878.0</ele><time>2026-04-25T07:46:54.921Z</time></trkpt><trkpt lat="41.9798072" lon="2.1777104"><ele>878.0</ele><time>2026-04-25T07:46:55.921Z</time></trkpt><trkpt lat="41.9798936" lon="2.1775247"><ele>878.0</ele><time>2026-04-25T07:46:56.922Z</time></trkpt><trkpt lat="41.9799764" lon="2.1773502"><ele>878.0</ele><time>2026-04-25T07:46:57.921Z</time></trkpt><trkpt lat="41.9800487" lon="2.1772089"><ele>878.0</ele><time>2026-04-25T07:46:58.921Z</time></trkpt><trkpt lat="41.9801025" lon="2.1771098"><ele>878.1666666666667</ele><time>2026-04-25T07:46:59.921Z</time></trkpt><trkpt lat="41.9801541" lon="2.1770197"><ele>878.3333333333334</ele><time>2026-04-25T07:47:00.921Z</time></trkpt><trkpt lat="41.9802104" lon="2.1769217"><ele>878.5</ele><time>2026-04-25T07:47:01.921Z</time></trkpt><trkpt lat="41.9802733" lon="2.1768484"><ele>878.6666666666667</ele><time>2026-04-25T07:47:02.921Z</time></trkpt><trkpt lat="41.9803463" lon="2.1768071"><ele>878.8333333333334</ele><time>2026-04-25T07:47:03.92Z</time></trkpt><trkpt lat="41.9804071" lon="2.1767828"><ele>879.0</ele><time>2026-04-25T07:47:04.922Z</time></trkpt><trkpt lat="41.9804522" lon="2.1767171"><ele>879.0</ele><time>2026-04-25T07:47:05.922Z</time></trkpt><trkpt lat="41.9804868" lon="2.1766203"><ele>879.0</ele><time>2026-04-25T07:47:06.922Z</time></trkpt><trkpt lat="41.9805296" lon="2.1765172"><ele>879.0</ele><time>2026-04-25T07:47:07.921Z</time></trkpt><trkpt lat="41.9805781" lon="2.1764202"><ele>879.0</ele><time>2026-04-25T07:47:08.921Z</time></trkpt><trkpt lat="41.980627" lon="2.1763276"><ele>879.0</ele><time>2026-04-25T07:47:09.92Z</time></trkpt><trkpt lat="41.9806756" lon="2.1762431"><ele>879.0</ele><time>2026-04-25T07:47:10.922Z</time></trkpt><trkpt lat="41.9807231" lon="2.1761547"><ele>878.6666666666666</ele><time>2026-04-25T07:47:11.921Z</time></trkpt><trkpt lat="41.9807675" lon="2.1760607"><ele>878.3333333333333</ele><time>2026-04-25T07:47:12.921Z</time></trkpt><trkpt lat="41.9808078" lon="2.1759657"><ele>878.0</ele><time>2026-04-25T07:47:13.921Z</time></trkpt><trkpt lat="41.9808416" lon="2.1758664"><ele>877.6666666666666</ele><time>2026-04-25T07:47:14.922Z</time></trkpt><trkpt lat="41.9808701" lon="2.1757682"><ele>877.3333333333333</ele><time>2026-04-25T07:47:15.922Z</time></trkpt><trkpt lat="41.9808968" lon="2.1756723"><ele>877.0</ele><time>2026-04-25T07:47:16.92Z</time></trkpt><trkpt lat="41.9809225" lon="2.1755804"><ele>877.8333333333333</ele><time>2026-04-25T07:47:17.92Z</time></trkpt><trkpt lat="41.9809485" lon="2.1754873"><ele>878.6666666666666</ele><time>2026-04-25T07:47:18.921Z</time></trkpt><trkpt lat="41.9809755" lon="2.1753886"><ele>879.5</ele><time>2026-04-25T07:47:19.92Z</time></trkpt><trkpt lat="41.9810045" lon="2.1752881"><ele>880.3333333333333</ele><time>2026-04-25T07:47:20.921Z</time></trkpt><trkpt lat="41.9810337" lon="2.1751868"><ele>881.1666666666666</ele><time>2026-04-25T07:47:21.922Z</time></trkpt><trkpt lat="41.9810635" lon="2.1750877"><ele>882.0</ele><time>2026-04-25T07:47:22.922Z</time></trkpt><trkpt lat="41.9811045" lon="2.1749903"><ele>882.0</ele><time>2026-04-25T07:47:23.92Z</time></trkpt><trkpt lat="41.9811537" lon="2.174893"><ele>882.0</ele><time>2026-04-25T07:47:24.921Z</time></trkpt><trkpt lat="41.98122" lon="2.1748039"><ele>882.0</ele><time>2026-04-25T07:47:25.922Z</time></trkpt><trkpt lat="41.9812954" lon="2.1747272"><ele>882.0</ele><time>2026-04-25T07:47:26.922Z</time></trkpt><trkpt lat="41.9813733" lon="2.1746578"><ele>882.0</ele><time>2026-04-25T07:47:27.922Z</time></trkpt><trkpt lat="41.9814539" lon="2.1745924"><ele>881.2</ele><time>2026-04-25T07:47:28.921Z</time></trkpt><trkpt lat="41.9815338" lon="2.1745274"><ele>880.4000000000001</ele><time>2026-04-25T07:47:29.922Z</time></trkpt><trkpt lat="41.9816164" lon="2.1744664"><ele>879.5999999999999</ele><time>2026-04-25T07:47:30.922Z</time></trkpt><trkpt lat="41.9817022" lon="2.1744076"><ele>878.8</ele><time>2026-04-25T07:47:31.921Z</time></trkpt><trkpt lat="41.9817873" lon="2.1743553"><ele>878.0</ele><time>2026-04-25T07:47:32.921Z</time></trkpt><trkpt lat="41.9818699" lon="2.174311"><ele>878.0000000000001</ele><time>2026-04-25T07:47:33.922Z</time></trkpt><trkpt lat="41.9819497" lon="2.1742704"><ele>878.0</ele><time>2026-04-25T07:47:34.92Z</time></trkpt><trkpt lat="41.9820227" lon="2.1742327"><ele>878.0</ele><time>2026-04-25T07:47:35.921Z</time></trkpt><trkpt lat="41.9820959" lon="2.1741905"><ele>878.0</ele><time>2026-04-25T07:47:36.921Z</time></trkpt><trkpt lat="41.9821764" lon="2.1741451"><ele>878.0000000000001</ele><time>2026-04-25T07:47:37.922Z</time></trkpt><trkpt lat="41.9822594" lon="2.174096"><ele>878.0</ele><time>2026-04-25T07:47:38.922Z</time></trkpt><trkpt lat="41.9823516" lon="2.1740438"><ele>876.8</ele><time>2026-04-25T07:47:39.921Z</time></trkpt><trkpt lat="41.9824478" lon="2.1739908"><ele>875.5999999999999</ele><time>2026-04-25T07:47:40.921Z</time></trkpt><trkpt lat="41.9825444" lon="2.1739325"><ele>874.4000000000001</ele><time>2026-04-25T07:47:41.921Z</time></trkpt><trkpt lat="41.9826409" lon="2.1738749"><ele>873.2</ele><time>2026-04-25T07:47:42.921Z</time></trkpt><trkpt lat="41.9827378" lon="2.1738194"><ele>872.0</ele><time>2026-04-25T07:47:43.921Z</time></trkpt><trkpt lat="41.9828253" lon="2.1737672"><ele>872.0000000000001</ele><time>2026-04-25T07:47:44.922Z</time></trkpt><trkpt lat="41.9829015" lon="2.1737241"><ele>872.0</ele><time>2026-04-25T07:47:45.922Z</time></trkpt><trkpt lat="41.9829654" lon="2.1736923"><ele>872.0</ele><time>2026-04-25T07:47:46.92Z</time></trkpt><trkpt lat="41.9830838" lon="2.1736297"><ele>872.0</ele><time>2026-04-25T07:47:48.92Z</time></trkpt><trkpt lat="41.983154" lon="2.1735908"><ele>872.0000000000001</ele><time>2026-04-25T07:47:49.921Z</time></trkpt><trkpt lat="41.9832327" lon="2.1735438"><ele>872.0</ele><time>2026-04-25T07:47:50.921Z</time></trkpt><trkpt lat="41.9833127" lon="2.1734915"><ele>871.0</ele><time>2026-04-25T07:47:51.922Z</time></trkpt><trkpt lat="41.9833889" lon="2.1734405"><ele>870.0</ele><time>2026-04-25T07:47:52.921Z</time></trkpt><trkpt lat="41.9834644" lon="2.1734012"><ele>869.0</ele><time>2026-04-25T07:47:53.922Z</time></trkpt><trkpt lat="41.9835465" lon="2.1733657"><ele>868.0</ele><time>2026-04-25T07:47:54.921Z</time></trkpt><trkpt lat="41.9836482" lon="2.1733353"><ele>867.0</ele><time>2026-04-25T07:47:55.922Z</time></trkpt><trkpt lat="41.9837635" lon="2.1733006"><ele>867.0</ele><time>2026-04-25T07:47:56.922Z</time></trkpt><trkpt lat="41.9838739" lon="2.173265"><ele>867.0</ele><time>2026-04-25T07:47:57.92Z</time></trkpt><trkpt lat="41.9839789" lon="2.1732291"><ele>867.0</ele><time>2026-04-25T07:47:58.921Z</time></trkpt><trkpt lat="41.9840819" lon="2.1731914"><ele>867.0</ele><time>2026-04-25T07:47:59.921Z</time></trkpt><trkpt lat="41.9841945" lon="2.173128"><ele>864.0</ele><time>2026-04-25T07:48:00.922Z</time></trkpt><trkpt lat="41.9843116" lon="2.1730424"><ele>861.0</ele><time>2026-04-25T07:48:01.921Z</time></trkpt><trkpt lat="41.9844333" lon="2.1729379"><ele>858.0</ele><time>2026-04-25T07:48:02.921Z</time></trkpt><trkpt lat="41.9845587" lon="2.172825"><ele>855.0</ele><time>2026-04-25T07:48:03.922Z</time></trkpt><trkpt lat="41.9846854" lon="2.1727108"><ele>855.0</ele><time>2026-04-25T07:48:04.922Z</time></trkpt><trkpt lat="41.984808" lon="2.1726036"><ele>855.0</ele><time>2026-04-25T07:48:05.92Z</time></trkpt><trkpt lat="41.9849243" lon="2.1725053"><ele>855.0</ele><time>2026-04-25T07:48:06.922Z</time></trkpt><trkpt lat="41.9850296" lon="2.1724186"><ele>855.0</ele><time>2026-04-25T07:48:07.921Z</time></trkpt><trkpt lat="41.9851249" lon="2.1723388"><ele>854.4</ele><time>2026-04-25T07:48:08.921Z</time></trkpt><trkpt lat="41.9852075" lon="2.1722641"><ele>853.8</ele><time>2026-04-25T07:48:09.921Z</time></trkpt><trkpt lat="41.9852897" lon="2.1721887"><ele>853.2</ele><time>2026-04-25T07:48:10.921Z</time></trkpt><trkpt lat="41.985388" lon="2.1721025"><ele>852.6</ele><time>2026-04-25T07:48:11.922Z</time></trkpt><trkpt lat="41.9854975" lon="2.172007"><ele>852.0</ele><time>2026-04-25T07:48:12.921Z</time></trkpt><trkpt lat="41.985613" lon="2.1719074"><ele>852.0</ele><time>2026-04-25T07:48:13.921Z</time></trkpt><trkpt lat="41.9857306" lon="2.1718016"><ele>852.0</ele><time>2026-04-25T07:48:14.922Z</time></trkpt><trkpt lat="41.9858533" lon="2.1716939"><ele>852.0</ele><time>2026-04-25T07:48:15.922Z</time></trkpt><trkpt lat="41.9859715" lon="2.1715827"><ele>852.0</ele><time>2026-04-25T07:48:16.921Z</time></trkpt><trkpt lat="41.9860766" lon="2.1714745"><ele>849.6</ele><time>2026-04-25T07:48:17.921Z</time></trkpt><trkpt lat="41.9861574" lon="2.171363"><ele>847.2</ele><time>2026-04-25T07:48:18.921Z</time></trkpt><trkpt lat="41.9862205" lon="2.1712459"><ele>844.8</ele><time>2026-04-25T07:48:19.921Z</time></trkpt><trkpt lat="41.9862731" lon="2.1711234"><ele>842.4</ele><time>2026-04-25T07:48:20.92Z</time></trkpt><trkpt lat="41.98632" lon="2.170998"><ele>840.0</ele><time>2026-04-25T07:48:21.922Z</time></trkpt><trkpt lat="41.9863586" lon="2.1708769"><ele>840.0</ele><time>2026-04-25T07:48:22.92Z</time></trkpt><trkpt lat="41.9863964" lon="2.1707525"><ele>840.0</ele><time>2026-04-25T07:48:23.922Z</time></trkpt><trkpt lat="41.9864461" lon="2.170624"><ele>840.0</ele><time>2026-04-25T07:48:24.92Z</time></trkpt><trkpt lat="41.9865099" lon="2.1704882"><ele>840.0</ele><time>2026-04-25T07:48:25.92Z</time></trkpt><trkpt lat="41.9865833" lon="2.1703599"><ele>840.0</ele><time>2026-04-25T07:48:26.922Z</time></trkpt><trkpt lat="41.9866571" lon="2.1702647"><ele>840.5714285714286</ele><time>2026-04-25T07:48:27.922Z</time></trkpt><trkpt lat="41.9867177" lon="2.1702015"><ele>841.1428571428571</ele><time>2026-04-25T07:48:28.921Z</time></trkpt><trkpt lat="41.9867759" lon="2.1701506"><ele>841.7142857142858</ele><time>2026-04-25T07:48:29.921Z</time></trkpt><trkpt lat="41.9868335" lon="2.1701041"><ele>842.2857142857142</ele><time>2026-04-25T07:48:30.921Z</time></trkpt><trkpt lat="41.9868892" lon="2.1700573"><ele>842.8571428571429</ele><time>2026-04-25T07:48:31.921Z</time></trkpt><trkpt lat="41.9869439" lon="2.1700132"><ele>843.4285714285714</ele><time>2026-04-25T07:48:32.92Z</time></trkpt><trkpt lat="41.9870319" lon="2.1699331"><ele>844.0</ele><time>2026-04-25T07:48:34.92Z</time></trkpt><trkpt lat="41.9871023" lon="2.1698539"><ele>844.2</ele><time>2026-04-25T07:48:36.92Z</time></trkpt><trkpt lat="41.9871141" lon="2.1697587"><ele>844.4000000000001</ele><time>2026-04-25T07:48:38.921Z</time></trkpt><trkpt lat="41.9870865" lon="2.1695926"><ele>844.6</ele><time>2026-04-25T07:48:40.921Z</time></trkpt><trkpt lat="41.9870989" lon="2.1694762"><ele>844.8</ele><time>2026-04-25T07:48:41.922Z</time></trkpt><trkpt lat="41.9871282" lon="2.169335"><ele>845.0</ele><time>2026-04-25T07:48:42.921Z</time></trkpt><trkpt lat="41.9871651" lon="2.1691757"><ele>844.3333333333334</ele><time>2026-04-25T07:48:43.922Z</time></trkpt><trkpt lat="41.9872062" lon="2.1689969"><ele>843.6666666666667</ele><time>2026-04-25T07:48:44.921Z</time></trkpt><trkpt lat="41.9872504" lon="2.1688004"><ele>843.0</ele><time>2026-04-25T07:48:45.921Z</time></trkpt><trkpt lat="41.9873006" lon="2.1685878"><ele>843.0</ele><time>2026-04-25T07:48:46.921Z</time></trkpt><trkpt lat="41.9873521" lon="2.1683718"><ele>843.0</ele><time>2026-04-25T07:48:47.921Z</time></trkpt><trkpt lat="41.9874027" lon="2.1681564"><ele>843.0</ele><time>2026-04-25T07:48:48.921Z</time></trkpt><trkpt lat="41.9874514" lon="2.1679496"><ele>842.75</ele><time>2026-04-25T07:48:49.921Z</time></trkpt><trkpt lat="41.9874934" lon="2.1677574"><ele>842.5</ele><time>2026-04-25T07:48:50.922Z</time></trkpt><trkpt lat="41.9875287" lon="2.1675693"><ele>842.25</ele><time>2026-04-25T07:48:51.921Z</time></trkpt><trkpt lat="41.987547" lon="2.1673857"><ele>842.0</ele><time>2026-04-25T07:48:52.922Z</time></trkpt><trkpt lat="41.9875393" lon="2.1672073"><ele>841.25</ele><time>2026-04-25T07:48:53.921Z</time></trkpt><trkpt lat="41.9875059" lon="2.167029"><ele>840.5</ele><time>2026-04-25T07:48:54.92Z</time></trkpt><trkpt lat="41.9874427" lon="2.1668604"><ele>839.75</ele><time>2026-04-25T07:48:55.922Z</time></trkpt><trkpt lat="41.9873587" lon="2.1666987"><ele>839.0</ele><time>2026-04-25T07:48:56.921Z</time></trkpt><trkpt lat="41.9872652" lon="2.1665437"><ele>839.5</ele><time>2026-04-25T07:48:57.92Z</time></trkpt><trkpt lat="41.9871766" lon="2.1664022"><ele>840.0</ele><time>2026-04-25T07:48:58.92Z</time></trkpt><trkpt lat="41.9870977" lon="2.1662743"><ele>840.5</ele><time>2026-04-25T07:48:59.92Z</time></trkpt><trkpt lat="41.9870269" lon="2.1661641"><ele>841.0</ele><time>2026-04-25T07:49:00.921Z</time></trkpt><trkpt lat="41.9869653" lon="2.166068"><ele>841.0</ele><time>2026-04-25T07:49:01.922Z</time></trkpt><trkpt lat="41.9869066" lon="2.1659692"><ele>841.0</ele><time>2026-04-25T07:49:02.922Z</time></trkpt><trkpt lat="41.98684" lon="2.1658589"><ele>841.0</ele><time>2026-04-25T07:49:03.922Z</time></trkpt><trkpt lat="41.9867646" lon="2.1657336"><ele>841.0</ele><time>2026-04-25T07:49:04.922Z</time></trkpt><trkpt lat="41.9866848" lon="2.1655981"><ele>841.0</ele><time>2026-04-25T07:49:05.922Z</time></trkpt><trkpt lat="41.9866022" lon="2.1654606"><ele>840.4</ele><time>2026-04-25T07:49:06.92Z</time></trkpt><trkpt lat="41.9865219" lon="2.165333"><ele>839.8</ele><time>2026-04-25T07:49:07.922Z</time></trkpt><trkpt lat="41.9864493" lon="2.1652146"><ele>839.1999999999999</ele><time>2026-04-25T07:49:08.92Z</time></trkpt><trkpt lat="41.986382" lon="2.1651053"><ele>838.5999999999999</ele><time>2026-04-25T07:49:09.921Z</time></trkpt><trkpt lat="41.986317" lon="2.164996"><ele>838.0</ele><time>2026-04-25T07:49:10.921Z</time></trkpt><trkpt lat="41.9862603" lon="2.1648942"><ele>838.8</ele><time>2026-04-25T07:49:11.921Z</time></trkpt><trkpt lat="41.9862065" lon="2.164809"><ele>839.5999999999999</ele><time>2026-04-25T07:49:12.922Z</time></trkpt><trkpt lat="41.9861529" lon="2.1647191"><ele>840.4000000000001</ele><time>2026-04-25T07:49:13.922Z</time></trkpt><trkpt lat="41.9860835" lon="2.1646164"><ele>841.2</ele><time>2026-04-25T07:49:14.921Z</time></trkpt><trkpt lat="41.9860087" lon="2.1644963"><ele>842.0</ele><time>2026-04-25T07:49:15.921Z</time></trkpt><trkpt lat="41.9859256" lon="2.1643603"><ele>841.0</ele><time>2026-04-25T07:49:16.921Z</time></trkpt><trkpt lat="41.9858387" lon="2.1642133"><ele>840.0</ele><time>2026-04-25T07:49:17.921Z</time></trkpt><trkpt lat="41.9857534" lon="2.1640551"><ele>839.0</ele><time>2026-04-25T07:49:18.922Z</time></trkpt><trkpt lat="41.9856696" lon="2.1638833"><ele>838.0</ele><time>2026-04-25T07:49:19.92Z</time></trkpt><trkpt lat="41.9855913" lon="2.1636999"><ele>838.0</ele><time>2026-04-25T07:49:20.921Z</time></trkpt><trkpt lat="41.9855218" lon="2.1635113"><ele>838.0</ele><time>2026-04-25T07:49:21.921Z</time></trkpt><trkpt lat="41.9854564" lon="2.1633277"><ele>838.0</ele><time>2026-04-25T07:49:22.92Z</time></trkpt><trkpt lat="41.9853953" lon="2.1631602"><ele>838.0</ele><time>2026-04-25T07:49:23.922Z</time></trkpt><trkpt lat="41.9853274" lon="2.1630118"><ele>839.3333333333333</ele><time>2026-04-25T07:49:24.921Z</time></trkpt><trkpt lat="41.985223" lon="2.1628861"><ele>840.6666666666667</ele><time>2026-04-25T07:49:25.921Z</time></trkpt><trkpt lat="41.9850941" lon="2.1627747"><ele>842.0</ele><time>2026-04-25T07:49:26.921Z</time></trkpt><trkpt lat="41.9849434" lon="2.1626797"><ele>837.3333333333334</ele><time>2026-04-25T07:49:27.921Z</time></trkpt><trkpt lat="41.9847786" lon="2.1626037"><ele>832.6666666666667</ele><time>2026-04-25T07:49:28.921Z</time></trkpt><trkpt lat="41.9846032" lon="2.1625355"><ele>828.0</ele><time>2026-04-25T07:49:29.92Z</time></trkpt><trkpt lat="41.9844233" lon="2.1624642"><ele>828.0</ele><time>2026-04-25T07:49:30.921Z</time></trkpt><trkpt lat="41.9842439" lon="2.1623973"><ele>828.0</ele><time>2026-04-25T07:49:31.922Z</time></trkpt><trkpt lat="41.9840725" lon="2.1623386"><ele>828.0</ele><time>2026-04-25T07:49:32.922Z</time></trkpt><trkpt lat="41.9839067" lon="2.1622876"><ele>827.3333333333333</ele><time>2026-04-25T07:49:33.921Z</time></trkpt><trkpt lat="41.9837341" lon="2.1622224"><ele>826.6666666666666</ele><time>2026-04-25T07:49:34.92Z</time></trkpt><trkpt lat="41.9835631" lon="2.1621209"><ele>826.0</ele><time>2026-04-25T07:49:35.922Z</time></trkpt><trkpt lat="41.9833916" lon="2.1619962"><ele>820.6666666666666</ele><time>2026-04-25T07:49:36.922Z</time></trkpt><trkpt lat="41.983206" lon="2.161847"><ele>815.3333333333333</ele><time>2026-04-25T07:49:37.922Z</time></trkpt><trkpt lat="41.9830146" lon="2.1616918"><ele>810.0</ele><time>2026-04-25T07:49:38.922Z</time></trkpt><trkpt lat="41.9828185" lon="2.1615385"><ele>810.3333333333333</ele><time>2026-04-25T07:49:39.922Z</time></trkpt><trkpt lat="41.9826168" lon="2.161389"><ele>810.6666666666666</ele><time>2026-04-25T07:49:40.921Z</time></trkpt><trkpt lat="41.9824246" lon="2.1612519"><ele>811.0</ele><time>2026-04-25T07:49:41.922Z</time></trkpt><trkpt lat="41.9822352" lon="2.1611252"><ele>809.6666666666666</ele><time>2026-04-25T07:49:42.921Z</time></trkpt><trkpt lat="41.9820502" lon="2.1609992"><ele>808.3333333333333</ele><time>2026-04-25T07:49:43.922Z</time></trkpt><trkpt lat="41.9818739" lon="2.1608763"><ele>807.0</ele><time>2026-04-25T07:49:44.921Z</time></trkpt><trkpt lat="41.9817039" lon="2.1607491"><ele>805.3333333333333</ele><time>2026-04-25T07:49:45.922Z</time></trkpt><trkpt lat="41.9815344" lon="2.1606058"><ele>803.6666666666666</ele><time>2026-04-25T07:49:46.921Z</time></trkpt><trkpt lat="41.9813734" lon="2.1604523"><ele>802.0</ele><time>2026-04-25T07:49:47.92Z</time></trkpt><trkpt lat="41.9812222" lon="2.160293"><ele>802.0</ele><time>2026-04-25T07:49:48.922Z</time></trkpt><trkpt lat="41.9810645" lon="2.1601351"><ele>802.0</ele><time>2026-04-25T07:49:49.921Z</time></trkpt><trkpt lat="41.9808941" lon="2.1599986"><ele>802.0</ele><time>2026-04-25T07:49:50.921Z</time></trkpt><trkpt lat="41.9807192" lon="2.1598689"><ele>801.3333333333333</ele><time>2026-04-25T07:49:51.921Z</time></trkpt><trkpt lat="41.9805447" lon="2.1597268"><ele>800.6666666666667</ele><time>2026-04-25T07:49:52.921Z</time></trkpt><trkpt lat="41.9803879" lon="2.1595784"><ele>800.0</ele><time>2026-04-25T07:49:53.922Z</time></trkpt><trkpt lat="41.9802433" lon="2.1594333"><ele>800.0</ele><time>2026-04-25T07:49:54.922Z</time></trkpt><trkpt lat="41.9801066" lon="2.1593108"><ele>800.0</ele><time>2026-04-25T07:49:55.92Z</time></trkpt><trkpt lat="41.9799704" lon="2.159199"><ele>800.0</ele><time>2026-04-25T07:49:56.921Z</time></trkpt><trkpt lat="41.9798408" lon="2.1590699"><ele>797.25</ele><time>2026-04-25T07:49:57.92Z</time></trkpt><trkpt lat="41.9797313" lon="2.1589184"><ele>794.5</ele><time>2026-04-25T07:49:58.921Z</time></trkpt><trkpt lat="41.9796423" lon="2.158768"><ele>791.75</ele><time>2026-04-25T07:49:59.92Z</time></trkpt><trkpt lat="41.979577" lon="2.1586102"><ele>789.0</ele><time>2026-04-25T07:50:00.919Z</time></trkpt><trkpt lat="41.9795335" lon="2.15844"><ele>789.0</ele><time>2026-04-25T07:50:01.921Z</time></trkpt><trkpt lat="41.9795106" lon="2.1582749"><ele>789.0</ele><time>2026-04-25T07:50:02.92Z</time></trkpt><trkpt lat="41.9795208" lon="2.1581135"><ele>789.0</ele><time>2026-04-25T07:50:03.92Z</time></trkpt><trkpt lat="41.9795733" lon="2.1579629"><ele>789.0</ele><time>2026-04-25T07:50:04.921Z</time></trkpt><trkpt lat="41.9796613" lon="2.1578361"><ele>788.0</ele><time>2026-04-25T07:50:05.919Z</time></trkpt><trkpt lat="41.9797769" lon="2.1577154"><ele>787.0</ele><time>2026-04-25T07:50:06.92Z</time></trkpt><trkpt lat="41.9799086" lon="2.1575996"><ele>786.0</ele><time>2026-04-25T07:50:07.92Z</time></trkpt><trkpt lat="41.9800343" lon="2.1574822"><ele>787.0</ele><time>2026-04-25T07:50:08.92Z</time></trkpt><trkpt lat="41.9801442" lon="2.1573443"><ele>788.0</ele><time>2026-04-25T07:50:09.921Z</time></trkpt><trkpt lat="41.9802307" lon="2.1571797"><ele>789.0</ele><time>2026-04-25T07:50:10.92Z</time></trkpt><trkpt lat="41.9802799" lon="2.1569872"><ele>789.0</ele><time>2026-04-25T07:50:11.92Z</time></trkpt><trkpt lat="41.980296" lon="2.1567785"><ele>789.0</ele><time>2026-04-25T07:50:12.92Z</time></trkpt><trkpt lat="41.9803052" lon="2.156543"><ele>789.0</ele><time>2026-04-25T07:50:13.92Z</time></trkpt><trkpt lat="41.9803157" lon="2.1562928"><ele>789.3333333333333</ele><time>2026-04-25T07:50:14.919Z</time></trkpt><trkpt lat="41.9803227" lon="2.1560436"><ele>789.6666666666666</ele><time>2026-04-25T07:50:15.92Z</time></trkpt><trkpt lat="41.9803286" lon="2.1558014"><ele>790.0</ele><time>2026-04-25T07:50:16.919Z</time></trkpt><trkpt lat="41.9803299" lon="2.1555619"><ele>790.3333333333333</ele><time>2026-04-25T07:50:17.92Z</time></trkpt><trkpt lat="41.9803351" lon="2.1553281"><ele>790.6666666666667</ele><time>2026-04-25T07:50:18.921Z</time></trkpt><trkpt lat="41.9803398" lon="2.1550873"><ele>791.0</ele><time>2026-04-25T07:50:19.92Z</time></trkpt><trkpt lat="41.9803358" lon="2.154835"><ele>791.0</ele><time>2026-04-25T07:50:20.921Z</time></trkpt><trkpt lat="41.9803117" lon="2.1546064"><ele>791.0</ele><time>2026-04-25T07:50:21.919Z</time></trkpt><trkpt lat="41.9802617" lon="2.1543764"><ele>791.0</ele><time>2026-04-25T07:50:22.92Z</time></trkpt><trkpt lat="41.9801853" lon="2.1541583"><ele>793.6666666666667</ele><time>2026-04-25T07:50:23.92Z</time></trkpt><trkpt lat="41.9800877" lon="2.1539558"><ele>796.3333333333333</ele><time>2026-04-25T07:50:24.92Z</time></trkpt><trkpt lat="41.9799785" lon="2.1537507"><ele>799.0</ele><time>2026-04-25T07:50:25.919Z</time></trkpt><trkpt lat="41.9798716" lon="2.1535567"><ele>799.0</ele><time>2026-04-25T07:50:26.921Z</time></trkpt><trkpt lat="41.9797595" lon="2.1533896"><ele>799.0</ele><time>2026-04-25T07:50:27.921Z</time></trkpt><trkpt lat="41.9796302" lon="2.1532437"><ele>799.0</ele><time>2026-04-25T07:50:28.92Z</time></trkpt><trkpt lat="41.9794824" lon="2.153111"><ele>800.0</ele><time>2026-04-25T07:50:29.921Z</time></trkpt><trkpt lat="41.9793218" lon="2.1529891"><ele>801.0</ele><time>2026-04-25T07:50:30.92Z</time></trkpt><trkpt lat="41.9791674" lon="2.1528748"><ele>802.0</ele><time>2026-04-25T07:50:31.921Z</time></trkpt><trkpt lat="41.97903" lon="2.1527608"><ele>802.25</ele><time>2026-04-25T07:50:32.92Z</time></trkpt><trkpt lat="41.978919" lon="2.1526346"><ele>802.5</ele><time>2026-04-25T07:50:33.92Z</time></trkpt><trkpt lat="41.978827" lon="2.152486"><ele>802.75</ele><time>2026-04-25T07:50:34.919Z</time></trkpt><trkpt lat="41.9787533" lon="2.1522997"><ele>803.0</ele><time>2026-04-25T07:50:35.92Z</time></trkpt><trkpt lat="41.9787" lon="2.1520892"><ele>803.0</ele><time>2026-04-25T07:50:36.921Z</time></trkpt><trkpt lat="41.9786503" lon="2.1518658"><ele>803.0</ele><time>2026-04-25T07:50:37.92Z</time></trkpt><trkpt lat="41.97858" lon="2.1516368"><ele>803.0</ele><time>2026-04-25T07:50:38.921Z</time></trkpt><trkpt lat="41.9784846" lon="2.1514257"><ele>803.0</ele><time>2026-04-25T07:50:39.92Z</time></trkpt><trkpt lat="41.9783707" lon="2.1512127"><ele>803.0</ele><time>2026-04-25T07:50:40.92Z</time></trkpt><trkpt lat="41.978249" lon="2.1509871"><ele>803.0</ele><time>2026-04-25T07:50:41.919Z</time></trkpt><trkpt lat="41.9781435" lon="2.1507488"><ele>800.3333333333334</ele><time>2026-04-25T07:50:42.919Z</time></trkpt><trkpt lat="41.9780511" lon="2.1504973"><ele>797.6666666666667</ele><time>2026-04-25T07:50:43.919Z</time></trkpt><trkpt lat="41.9779666" lon="2.1502472"><ele>795.0</ele><time>2026-04-25T07:50:44.92Z</time></trkpt><trkpt lat="41.9778755" lon="2.150008"><ele>792.3333333333333</ele><time>2026-04-25T07:50:45.92Z</time></trkpt><trkpt lat="41.9777788" lon="2.1497813"><ele>789.6666666666666</ele><time>2026-04-25T07:50:46.92Z</time></trkpt><trkpt lat="41.9776901" lon="2.1495703"><ele>787.0</ele><time>2026-04-25T07:50:47.919Z</time></trkpt><trkpt lat="41.9775988" lon="2.149382"><ele>792.0</ele><time>2026-04-25T07:50:48.92Z</time></trkpt><trkpt lat="41.9774945" lon="2.1492277"><ele>797.0</ele><time>2026-04-25T07:50:49.92Z</time></trkpt><trkpt lat="41.97737" lon="2.1490894"><ele>802.0</ele><time>2026-04-25T07:50:50.921Z</time></trkpt><trkpt lat="41.9772205" lon="2.1489638"><ele>802.0</ele><time>2026-04-25T07:50:51.92Z</time></trkpt><trkpt lat="41.9770612" lon="2.1488453"><ele>802.0</ele><time>2026-04-25T07:50:52.92Z</time></trkpt><trkpt lat="41.9769039" lon="2.1487033"><ele>802.0</ele><time>2026-04-25T07:50:53.92Z</time></trkpt><trkpt lat="41.9767484" lon="2.1485365"><ele>804.0</ele><time>2026-04-25T07:50:54.921Z</time></trkpt><trkpt lat="41.9765896" lon="2.1483434"><ele>806.0</ele><time>2026-04-25T07:50:55.92Z</time></trkpt><trkpt lat="41.9764258" lon="2.1481468"><ele>808.0</ele><time>2026-04-25T07:50:56.92Z</time></trkpt><trkpt lat="41.9762567" lon="2.1479609"><ele>805.0</ele><time>2026-04-25T07:50:57.92Z</time></trkpt><trkpt lat="41.9760866" lon="2.1477955"><ele>802.0</ele><time>2026-04-25T07:50:58.92Z</time></trkpt><trkpt lat="41.9759106" lon="2.14765"><ele>799.0</ele><time>2026-04-25T07:50:59.92Z</time></trkpt><trkpt lat="41.9757325" lon="2.1475311"><ele>799.0</ele><time>2026-04-25T07:51:00.921Z</time></trkpt><trkpt lat="41.9755626" lon="2.1474242"><ele>799.0</ele><time>2026-04-25T07:51:01.92Z</time></trkpt><trkpt lat="41.9754154" lon="2.147291"><ele>799.0</ele><time>2026-04-25T07:51:02.919Z</time></trkpt><trkpt lat="41.9752802" lon="2.1471204"><ele>798.0</ele><time>2026-04-25T07:51:03.921Z</time></trkpt><trkpt lat="41.9751514" lon="2.1469372"><ele>797.0</ele><time>2026-04-25T07:51:04.92Z</time></trkpt><trkpt lat="41.9750226" lon="2.1467665"><ele>796.0</ele><time>2026-04-25T07:51:05.921Z</time></trkpt><trkpt lat="41.9748858" lon="2.1466104"><ele>797.6666666666666</ele><time>2026-04-25T07:51:06.919Z</time></trkpt><trkpt lat="41.9747366" lon="2.1464814"><ele>799.3333333333333</ele><time>2026-04-25T07:51:07.919Z</time></trkpt><trkpt lat="41.9745667" lon="2.1463825"><ele>801.0</ele><time>2026-04-25T07:51:08.92Z</time></trkpt><trkpt lat="41.9743831" lon="2.146299"><ele>801.0</ele><time>2026-04-25T07:51:09.921Z</time></trkpt><trkpt lat="41.9742067" lon="2.1461914"><ele>801.0</ele><time>2026-04-25T07:51:10.921Z</time></trkpt><trkpt lat="41.9740469" lon="2.1460628"><ele>801.0</ele><time>2026-04-25T07:51:11.921Z</time></trkpt><trkpt lat="41.9738948" lon="2.1459398"><ele>799.3333333333333</ele><time>2026-04-25T07:51:12.919Z</time></trkpt><trkpt lat="41.973748" lon="2.1458273"><ele>797.6666666666666</ele><time>2026-04-25T07:51:13.919Z</time></trkpt><trkpt lat="41.9735951" lon="2.1457401"><ele>796.0</ele><time>2026-04-25T07:51:14.921Z</time></trkpt><trkpt lat="41.9734333" lon="2.1456965"><ele>792.6666666666666</ele><time>2026-04-25T07:51:15.92Z</time></trkpt><trkpt lat="41.9732732" lon="2.1456945"><ele>789.3333333333333</ele><time>2026-04-25T07:51:16.92Z</time></trkpt><trkpt lat="41.9731" lon="2.1457189"><ele>786.0</ele><time>2026-04-25T07:51:17.92Z</time></trkpt><trkpt lat="41.972917" lon="2.1457376"><ele>786.0</ele><time>2026-04-25T07:51:18.921Z</time></trkpt><trkpt lat="41.9727344" lon="2.1457575"><ele>786.0</ele><time>2026-04-25T07:51:19.919Z</time></trkpt><trkpt lat="41.9725643" lon="2.1457756"><ele>786.0</ele><time>2026-04-25T07:51:20.92Z</time></trkpt><trkpt lat="41.9723928" lon="2.1457714"><ele>786.0</ele><time>2026-04-25T07:51:21.921Z</time></trkpt><trkpt lat="41.9722336" lon="2.1457177"><ele>786.0</ele><time>2026-04-25T07:51:22.921Z</time></trkpt><trkpt lat="41.9720954" lon="2.1456263"><ele>786.0</ele><time>2026-04-25T07:51:23.92Z</time></trkpt><trkpt lat="41.9719685" lon="2.1454834"><ele>786.0</ele><time>2026-04-25T07:51:24.921Z</time></trkpt><trkpt lat="41.9718418" lon="2.1453069"><ele>786.0</ele><time>2026-04-25T07:51:25.92Z</time></trkpt><trkpt lat="41.9717054" lon="2.1451134"><ele>786.0</ele><time>2026-04-25T07:51:26.921Z</time></trkpt><trkpt lat="41.971553" lon="2.1449178"><ele>783.0</ele><time>2026-04-25T07:51:27.921Z</time></trkpt><trkpt lat="41.9713947" lon="2.1447126"><ele>780.0</ele><time>2026-04-25T07:51:28.921Z</time></trkpt><trkpt lat="41.9712307" lon="2.1445008"><ele>777.0</ele><time>2026-04-25T07:51:29.92Z</time></trkpt><trkpt lat="41.9710644" lon="2.1442879"><ele>777.0</ele><time>2026-04-25T07:51:30.92Z</time></trkpt><trkpt lat="41.970897" lon="2.1440784"><ele>777.0</ele><time>2026-04-25T07:51:31.92Z</time></trkpt><trkpt lat="41.9707313" lon="2.1438762"><ele>778.3333333333333</ele><time>2026-04-25T07:51:32.921Z</time></trkpt><trkpt lat="41.9705695" lon="2.1436794"><ele>779.6666666666666</ele><time>2026-04-25T07:51:33.921Z</time></trkpt><trkpt lat="41.970414" lon="2.1434902"><ele>781.0</ele><time>2026-04-25T07:51:34.921Z</time></trkpt><trkpt lat="41.9702617" lon="2.14332"><ele>782.0</ele><time>2026-04-25T07:51:35.92Z</time></trkpt><trkpt lat="41.9701041" lon="2.1431572"><ele>783.0</ele><time>2026-04-25T07:51:36.92Z</time></trkpt><trkpt lat="41.9699566" lon="2.1429967"><ele>784.0</ele><time>2026-04-25T07:51:37.92Z</time></trkpt><trkpt lat="41.9698218" lon="2.1428375"><ele>782.0</ele><time>2026-04-25T07:51:38.92Z</time></trkpt><trkpt lat="41.969706" lon="2.1426703"><ele>780.0</ele><time>2026-04-25T07:51:39.921Z</time></trkpt><trkpt lat="41.9696137" lon="2.1424943"><ele>778.0</ele><time>2026-04-25T07:51:40.92Z</time></trkpt><trkpt lat="41.9695469" lon="2.1423133"><ele>778.0</ele><time>2026-04-25T07:51:41.92Z</time></trkpt><trkpt lat="41.9694953" lon="2.1421451"><ele>778.0</ele><time>2026-04-25T07:51:42.92Z</time></trkpt><trkpt lat="41.9694262" lon="2.1420049"><ele>778.0</ele><time>2026-04-25T07:51:43.921Z</time></trkpt><trkpt lat="41.9693187" lon="2.1418957"><ele>778.0</ele><time>2026-04-25T07:51:44.921Z</time></trkpt><trkpt lat="41.9691855" lon="2.1418197"><ele>777.6666666666666</ele><time>2026-04-25T07:51:45.921Z</time></trkpt><trkpt lat="41.9690294" lon="2.1417634"><ele>777.3333333333333</ele><time>2026-04-25T07:51:46.921Z</time></trkpt><trkpt lat="41.9688559" lon="2.1417058"><ele>777.0</ele><time>2026-04-25T07:51:47.919Z</time></trkpt><trkpt lat="41.9686811" lon="2.1416411"><ele>777.0</ele><time>2026-04-25T07:51:48.919Z</time></trkpt><trkpt lat="41.9685192" lon="2.1415506"><ele>777.0</ele><time>2026-04-25T07:51:49.92Z</time></trkpt><trkpt lat="41.9683608" lon="2.1414477"><ele>777.0</ele><time>2026-04-25T07:51:50.92Z</time></trkpt><trkpt lat="41.9682085" lon="2.1413475"><ele>779.5</ele><time>2026-04-25T07:51:51.921Z</time></trkpt><trkpt lat="41.9680633" lon="2.1412507"><ele>782.0</ele><time>2026-04-25T07:51:52.921Z</time></trkpt><trkpt lat="41.967944" lon="2.1411547"><ele>784.5</ele><time>2026-04-25T07:51:53.921Z</time></trkpt><trkpt lat="41.9678506" lon="2.1410411"><ele>787.0</ele><time>2026-04-25T07:51:54.92Z</time></trkpt><trkpt lat="41.9677814" lon="2.1408984"><ele>787.0</ele><time>2026-04-25T07:51:55.92Z</time></trkpt><trkpt lat="41.9677232" lon="2.1407322"><ele>787.0</ele><time>2026-04-25T07:51:56.921Z</time></trkpt><trkpt lat="41.9676489" lon="2.1405571"><ele>787.0</ele><time>2026-04-25T07:51:57.92Z</time></trkpt><trkpt lat="41.967556" lon="2.1403795"><ele>787.0</ele><time>2026-04-25T07:51:58.919Z</time></trkpt><trkpt lat="41.967447" lon="2.1402004"><ele>787.6666666666666</ele><time>2026-04-25T07:51:59.921Z</time></trkpt><trkpt lat="41.9673184" lon="2.1400317"><ele>788.3333333333333</ele><time>2026-04-25T07:52:00.92Z</time></trkpt><trkpt lat="41.9671721" lon="2.139882"><ele>789.0</ele><time>2026-04-25T07:52:01.921Z</time></trkpt><trkpt lat="41.9670105" lon="2.139755"><ele>790.0</ele><time>2026-04-25T07:52:02.919Z</time></trkpt><trkpt lat="41.9668325" lon="2.1396492"><ele>791.0</ele><time>2026-04-25T07:52:03.92Z</time></trkpt><trkpt lat="41.966647" lon="2.1395613"><ele>792.0</ele><time>2026-04-25T07:52:04.919Z</time></trkpt><trkpt lat="41.966457" lon="2.1394834"><ele>794.3333333333333</ele><time>2026-04-25T07:52:05.92Z</time></trkpt><trkpt lat="41.9662742" lon="2.1393948"><ele>796.6666666666666</ele><time>2026-04-25T07:52:06.921Z</time></trkpt><trkpt lat="41.9661" lon="2.1392911"><ele>799.0</ele><time>2026-04-25T07:52:07.92Z</time></trkpt><trkpt lat="41.9659391" lon="2.1391786"><ele>804.6666666666666</ele><time>2026-04-25T07:52:08.919Z</time></trkpt><trkpt lat="41.9657843" lon="2.1390448"><ele>810.3333333333333</ele><time>2026-04-25T07:52:09.92Z</time></trkpt><trkpt lat="41.9656343" lon="2.1388908"><ele>816.0</ele><time>2026-04-25T07:52:10.921Z</time></trkpt><trkpt lat="41.96549" lon="2.1387135"><ele>816.0</ele><time>2026-04-25T07:52:11.921Z</time></trkpt><trkpt lat="41.9653541" lon="2.1385145"><ele>816.0</ele><time>2026-04-25T07:52:12.919Z</time></trkpt><trkpt lat="41.9652305" lon="2.1383037"><ele>816.0</ele><time>2026-04-25T07:52:13.92Z</time></trkpt><trkpt lat="41.9651144" lon="2.1380964"><ele>815.6666666666667</ele><time>2026-04-25T07:52:14.921Z</time></trkpt><trkpt lat="41.9649938" lon="2.1378964"><ele>815.3333333333334</ele><time>2026-04-25T07:52:15.919Z</time></trkpt><trkpt lat="41.9648663" lon="2.1377031"><ele>815.0</ele><time>2026-04-25T07:52:16.92Z</time></trkpt><trkpt lat="41.9647261" lon="2.1375297"><ele>813.6666666666667</ele><time>2026-04-25T07:52:17.919Z</time></trkpt><trkpt lat="41.9645694" lon="2.137382"><ele>812.3333333333333</ele><time>2026-04-25T07:52:18.919Z</time></trkpt><trkpt lat="41.9644028" lon="2.1372533"><ele>811.0</ele><time>2026-04-25T07:52:19.92Z</time></trkpt><trkpt lat="41.9642287" lon="2.1371603"><ele>811.3333333333333</ele><time>2026-04-25T07:52:20.92Z</time></trkpt><trkpt lat="41.9640407" lon="2.137103"><ele>811.6666666666667</ele><time>2026-04-25T07:52:21.92Z</time></trkpt><trkpt lat="41.963838" lon="2.1370804"><ele>812.0</ele><time>2026-04-25T07:52:22.92Z</time></trkpt><trkpt lat="41.9636252" lon="2.1370915"><ele>812.0</ele><time>2026-04-25T07:52:23.921Z</time></trkpt><trkpt lat="41.963399" lon="2.1371217"><ele>812.0</ele><time>2026-04-25T07:52:24.921Z</time></trkpt><trkpt lat="41.963163" lon="2.1371629"><ele>811.0</ele><time>2026-04-25T07:52:25.92Z</time></trkpt><trkpt lat="41.9629208" lon="2.1372154"><ele>810.0</ele><time>2026-04-25T07:52:26.92Z</time></trkpt><trkpt lat="41.9626793" lon="2.1372688"><ele>808.0</ele><time>2026-04-25T07:52:27.92Z</time></trkpt><trkpt lat="41.9624327" lon="2.1373224"><ele>806.0</ele><time>2026-04-25T07:52:28.919Z</time></trkpt><trkpt lat="41.9621833" lon="2.1373771"><ele>807.5</ele><time>2026-04-25T07:52:29.92Z</time></trkpt><trkpt lat="41.9619343" lon="2.1374358"><ele>809.0</ele><time>2026-04-25T07:52:30.92Z</time></trkpt><trkpt lat="41.9616885" lon="2.1374926"><ele>809.0</ele><time>2026-04-25T07:52:31.921Z</time></trkpt><trkpt lat="41.961448" lon="2.1375485"><ele>809.0</ele><time>2026-04-25T07:52:32.92Z</time></trkpt><trkpt lat="41.9612149" lon="2.1376034"><ele>809.0</ele><time>2026-04-25T07:52:33.92Z</time></trkpt><trkpt lat="41.9609902" lon="2.1376536"><ele>809.0</ele><time>2026-04-25T07:52:34.92Z</time></trkpt><trkpt lat="41.9607735" lon="2.1376977"><ele>809.0</ele><time>2026-04-25T07:52:35.92Z</time></trkpt><trkpt lat="41.9605653" lon="2.1377378"><ele>809.0</ele><time>2026-04-25T07:52:36.921Z</time></trkpt><trkpt lat="41.9603671" lon="2.1377628"><ele>809.0</ele><time>2026-04-25T07:52:37.921Z</time></trkpt><trkpt lat="41.9601734" lon="2.1377792"><ele>809.0</ele><time>2026-04-25T07:52:38.919Z</time></trkpt><trkpt lat="41.9599805" lon="2.137788"><ele>809.0</ele><time>2026-04-25T07:52:39.92Z</time></trkpt><trkpt lat="41.9597886" lon="2.13779"><ele>809.0</ele><time>2026-04-25T07:52:40.921Z</time></trkpt><trkpt lat="41.9596002" lon="2.1377864"><ele>809.0</ele><time>2026-04-25T07:52:41.92Z</time></trkpt><trkpt lat="41.9594132" lon="2.1377794"><ele>809.0</ele><time>2026-04-25T07:52:42.92Z</time></trkpt><trkpt lat="41.9592278" lon="2.1377714"><ele>809.0</ele><time>2026-04-25T07:52:43.92Z</time></trkpt><trkpt lat="41.9590455" lon="2.1377629"><ele>809.0</ele><time>2026-04-25T07:52:44.921Z</time></trkpt><trkpt lat="41.9588712" lon="2.1377587"><ele>809.0</ele><time>2026-04-25T07:52:45.92Z</time></trkpt><trkpt lat="41.9587032" lon="2.137753"><ele>809.0</ele><time>2026-04-25T07:52:46.92Z</time></trkpt><trkpt lat="41.9585406" lon="2.1377461"><ele>809.0</ele><time>2026-04-25T07:52:47.919Z</time></trkpt><trkpt lat="41.9583864" lon="2.1377381"><ele>809.25</ele><time>2026-04-25T07:52:48.921Z</time></trkpt><trkpt lat="41.9582388" lon="2.1377244"><ele>809.5</ele><time>2026-04-25T07:52:49.92Z</time></trkpt><trkpt lat="41.9581008" lon="2.1376756"><ele>809.75</ele><time>2026-04-25T07:52:50.92Z</time></trkpt><trkpt lat="41.9579842" lon="2.1375762"><ele>810.0</ele><time>2026-04-25T07:52:51.92Z</time></trkpt><trkpt lat="41.9578925" lon="2.1374488"><ele>810.5</ele><time>2026-04-25T07:52:52.919Z</time></trkpt><trkpt lat="41.9578235" lon="2.1373056"><ele>811.0</ele><time>2026-04-25T07:52:53.921Z</time></trkpt><trkpt lat="41.9577762" lon="2.1371428"><ele>811.5</ele><time>2026-04-25T07:52:54.919Z</time></trkpt><trkpt lat="41.9577574" lon="2.1369634"><ele>812.0</ele><time>2026-04-25T07:52:55.921Z</time></trkpt><trkpt lat="41.9577607" lon="2.1367888"><ele>812.0</ele><time>2026-04-25T07:52:56.921Z</time></trkpt><trkpt lat="41.9577701" lon="2.1366303"><ele>812.0</ele><time>2026-04-25T07:52:57.919Z</time></trkpt><trkpt lat="41.9577814" lon="2.1364782"><ele>812.0</ele><time>2026-04-25T07:52:58.92Z</time></trkpt><trkpt lat="41.9577831" lon="2.1363286"><ele>812.0</ele><time>2026-04-25T07:52:59.921Z</time></trkpt><trkpt lat="41.9577885" lon="2.1361756"><ele>812.25</ele><time>2026-04-25T07:53:00.921Z</time></trkpt><trkpt lat="41.9577889" lon="2.136007"><ele>812.5</ele><time>2026-04-25T07:53:01.919Z</time></trkpt><trkpt lat="41.9577773" lon="2.1358388"><ele>812.75</ele><time>2026-04-25T07:53:02.92Z</time></trkpt><trkpt lat="41.9577565" lon="2.1356738"><ele>813.0</ele><time>2026-04-25T07:53:03.92Z</time></trkpt><trkpt lat="41.9577371" lon="2.1355125"><ele>810.8</ele><time>2026-04-25T07:53:04.919Z</time></trkpt><trkpt lat="41.9577273" lon="2.1353728"><ele>808.5999999999999</ele><time>2026-04-25T07:53:05.92Z</time></trkpt><trkpt lat="41.9577338" lon="2.1352606"><ele>806.4000000000001</ele><time>2026-04-25T07:53:06.921Z</time></trkpt><trkpt lat="41.9577534" lon="2.1351633"><ele>804.2</ele><time>2026-04-25T07:53:07.92Z</time></trkpt><trkpt lat="41.9578015" lon="2.1350566"><ele>802.0</ele><time>2026-04-25T07:53:08.921Z</time></trkpt><trkpt lat="41.9578773" lon="2.1349462"><ele>799.5</ele><time>2026-04-25T07:53:09.921Z</time></trkpt><trkpt lat="41.9579718" lon="2.1348174"><ele>797.0</ele><time>2026-04-25T07:53:10.921Z</time></trkpt><trkpt lat="41.958069" lon="2.1346731"><ele>794.5</ele><time>2026-04-25T07:53:11.919Z</time></trkpt><trkpt lat="41.9581736" lon="2.1345064"><ele>792.0</ele><time>2026-04-25T07:53:12.92Z</time></trkpt><trkpt lat="41.9582799" lon="2.1343231"><ele>790.3333333333333</ele><time>2026-04-25T07:53:13.921Z</time></trkpt><trkpt lat="41.9583825" lon="2.1341246"><ele>788.6666666666666</ele><time>2026-04-25T07:53:14.92Z</time></trkpt><trkpt lat="41.9584888" lon="2.1339132"><ele>787.0</ele><time>2026-04-25T07:53:15.92Z</time></trkpt><trkpt lat="41.9586115" lon="2.1336967"><ele>785.3333333333333</ele><time>2026-04-25T07:53:16.92Z</time></trkpt><trkpt lat="41.958741" lon="2.1334689"><ele>783.6666666666667</ele><time>2026-04-25T07:53:17.919Z</time></trkpt><trkpt lat="41.9588726" lon="2.1332355"><ele>782.0</ele><time>2026-04-25T07:53:18.92Z</time></trkpt><trkpt lat="41.9590064" lon="2.1329992"><ele>780.5</ele><time>2026-04-25T07:53:19.92Z</time></trkpt><trkpt lat="41.959145" lon="2.1327601"><ele>779.0</ele><time>2026-04-25T07:53:20.921Z</time></trkpt><trkpt lat="41.9592884" lon="2.1325116"><ele>776.5</ele><time>2026-04-25T07:53:21.92Z</time></trkpt><trkpt lat="41.9594367" lon="2.1322594"><ele>774.0</ele><time>2026-04-25T07:53:22.919Z</time></trkpt><trkpt lat="41.9595877" lon="2.1320058"><ele>774.0</ele><time>2026-04-25T07:53:23.919Z</time></trkpt><trkpt lat="41.959736" lon="2.131754"><ele>774.0</ele><time>2026-04-25T07:53:24.921Z</time></trkpt><trkpt lat="41.9598795" lon="2.1315035"><ele>770.5</ele><time>2026-04-25T07:53:25.92Z</time></trkpt><trkpt lat="41.9600234" lon="2.131255"><ele>767.0</ele><time>2026-04-25T07:53:26.92Z</time></trkpt><trkpt lat="41.9601655" lon="2.1310101"><ele>766.0</ele><time>2026-04-25T07:53:27.921Z</time></trkpt><trkpt lat="41.9603099" lon="2.130761"><ele>765.0</ele><time>2026-04-25T07:53:28.919Z</time></trkpt><trkpt lat="41.9604495" lon="2.1305099"><ele>764.6666666666666</ele><time>2026-04-25T07:53:29.92Z</time></trkpt><trkpt lat="41.9605897" lon="2.1302702"><ele>764.3333333333333</ele><time>2026-04-25T07:53:30.92Z</time></trkpt><trkpt lat="41.9607281" lon="2.1300482"><ele>764.0</ele><time>2026-04-25T07:53:31.921Z</time></trkpt><trkpt lat="41.9608592" lon="2.1298432"><ele>766.6666666666666</ele><time>2026-04-25T07:53:32.92Z</time></trkpt><trkpt lat="41.9609939" lon="2.1296527"><ele>769.3333333333333</ele><time>2026-04-25T07:53:33.92Z</time></trkpt><trkpt lat="41.9611289" lon="2.1294785"><ele>772.0</ele><time>2026-04-25T07:53:34.92Z</time></trkpt><trkpt lat="41.9612648" lon="2.1293255"><ele>772.0</ele><time>2026-04-25T07:53:35.919Z</time></trkpt><trkpt lat="41.9613969" lon="2.1291906"><ele>772.0</ele><time>2026-04-25T07:53:36.92Z</time></trkpt><trkpt lat="41.9615278" lon="2.1290783"><ele>772.0</ele><time>2026-04-25T07:53:37.92Z</time></trkpt><trkpt lat="41.961656" lon="2.1289857"><ele>768.8</ele><time>2026-04-25T07:53:38.921Z</time></trkpt><trkpt lat="41.9617751" lon="2.1289155"><ele>765.6</ele><time>2026-04-25T07:53:39.919Z</time></trkpt><trkpt lat="41.9618803" lon="2.1288633"><ele>762.4</ele><time>2026-04-25T07:53:40.921Z</time></trkpt><trkpt lat="41.9619659" lon="2.128825"><ele>759.1999999999999</ele><time>2026-04-25T07:53:41.921Z</time></trkpt><trkpt lat="41.9620368" lon="2.1287829"><ele>756.0</ele><time>2026-04-25T07:53:42.919Z</time></trkpt><trkpt lat="41.9620897" lon="2.1287222"><ele>756.0</ele><time>2026-04-25T07:53:43.921Z</time></trkpt><trkpt lat="41.9621265" lon="2.1286364"><ele>756.0</ele><time>2026-04-25T07:53:44.921Z</time></trkpt><trkpt lat="41.9621369" lon="2.1285244"><ele>756.0</ele><time>2026-04-25T07:53:45.919Z</time></trkpt><trkpt lat="41.9621257" lon="2.1284069"><ele>756.0</ele><time>2026-04-25T07:53:46.921Z</time></trkpt><trkpt lat="41.9621326" lon="2.1282781"><ele>756.0</ele><time>2026-04-25T07:53:47.919Z</time></trkpt><trkpt lat="41.9621918" lon="2.1281657"><ele>756.0</ele><time>2026-04-25T07:53:48.921Z</time></trkpt><trkpt lat="41.9622813" lon="2.1280987"><ele>756.0</ele><time>2026-04-25T07:53:49.919Z</time></trkpt><trkpt lat="41.9623969" lon="2.1280675"><ele>756.0</ele><time>2026-04-25T07:53:50.92Z</time></trkpt><trkpt lat="41.9625217" lon="2.1280457"><ele>756.0</ele><time>2026-04-25T07:53:51.92Z</time></trkpt><trkpt lat="41.9626592" lon="2.1280023"><ele>756.0</ele><time>2026-04-25T07:53:52.919Z</time></trkpt><trkpt lat="41.9627858" lon="2.1279184"><ele>756.0</ele><time>2026-04-25T07:53:53.921Z</time></trkpt><trkpt lat="41.9628958" lon="2.1278001"><ele>756.0</ele><time>2026-04-25T07:53:54.92Z</time></trkpt><trkpt lat="41.9630013" lon="2.1276729"><ele>756.0</ele><time>2026-04-25T07:53:55.919Z</time></trkpt><trkpt lat="41.9630817" lon="2.1275397"><ele>756.0</ele><time>2026-04-25T07:53:56.92Z</time></trkpt><trkpt lat="41.96313" lon="2.1273876"><ele>756.0</ele><time>2026-04-25T07:53:57.92Z</time></trkpt><trkpt lat="41.9631415" lon="2.1272141"><ele>756.0</ele><time>2026-04-25T07:53:58.921Z</time></trkpt><trkpt lat="41.963126" lon="2.127021"><ele>756.0</ele><time>2026-04-25T07:53:59.92Z</time></trkpt><trkpt lat="41.9631009" lon="2.1268156"><ele>756.0</ele><time>2026-04-25T07:54:00.919Z</time></trkpt><trkpt lat="41.963077" lon="2.1266109"><ele>754.3333333333334</ele><time>2026-04-25T07:54:01.92Z</time></trkpt><trkpt lat="41.963049" lon="2.1264074"><ele>752.6666666666667</ele><time>2026-04-25T07:54:02.921Z</time></trkpt><trkpt lat="41.9630118" lon="2.1262079"><ele>751.0</ele><time>2026-04-25T07:54:03.92Z</time></trkpt><trkpt lat="41.9629543" lon="2.1260151"><ele>751.0</ele><time>2026-04-25T07:54:04.92Z</time></trkpt><trkpt lat="41.9628736" lon="2.1258367"><ele>751.0</ele><time>2026-04-25T07:54:05.921Z</time></trkpt><trkpt lat="41.9627766" lon="2.1256636"><ele>751.0</ele><time>2026-04-25T07:54:06.92Z</time></trkpt><trkpt lat="41.9626737" lon="2.1254864"><ele>750.0</ele><time>2026-04-25T07:54:07.921Z</time></trkpt><trkpt lat="41.9625636" lon="2.1252966"><ele>749.0</ele><time>2026-04-25T07:54:08.92Z</time></trkpt><trkpt lat="41.9624479" lon="2.125099"><ele>748.0</ele><time>2026-04-25T07:54:09.919Z</time></trkpt><trkpt lat="41.9623307" lon="2.1248998"><ele>747.6666666666667</ele><time>2026-04-25T07:54:10.92Z</time></trkpt><trkpt lat="41.962215" lon="2.1246974"><ele>747.3333333333334</ele><time>2026-04-25T07:54:11.92Z</time></trkpt><trkpt lat="41.9621057" lon="2.1245116"><ele>747.0</ele><time>2026-04-25T07:54:12.921Z</time></trkpt><trkpt lat="41.9620043" lon="2.1243533"><ele>747.0</ele><time>2026-04-25T07:54:13.921Z</time></trkpt><trkpt lat="41.9618849" lon="2.1242376"><ele>747.0</ele><time>2026-04-25T07:54:14.919Z</time></trkpt><trkpt lat="41.9617383" lon="2.1241649"><ele>747.0</ele><time>2026-04-25T07:54:15.919Z</time></trkpt><trkpt lat="41.9615897" lon="2.1240976"><ele>751.0</ele><time>2026-04-25T07:54:16.92Z</time></trkpt><trkpt lat="41.9614569" lon="2.123991"><ele>755.0</ele><time>2026-04-25T07:54:17.919Z</time></trkpt><trkpt lat="41.96134" lon="2.1238476"><ele>759.0</ele><time>2026-04-25T07:54:18.919Z</time></trkpt><trkpt lat="41.961225" lon="2.1236804"><ele>759.0</ele><time>2026-04-25T07:54:19.919Z</time></trkpt><trkpt lat="41.961104" lon="2.123512"><ele>759.0</ele><time>2026-04-25T07:54:20.92Z</time></trkpt><trkpt lat="41.9609719" lon="2.1233686"><ele>759.0</ele><time>2026-04-25T07:54:21.92Z</time></trkpt><trkpt lat="41.9608388" lon="2.1232521"><ele>757.75</ele><time>2026-04-25T07:54:22.921Z</time></trkpt><trkpt lat="41.9607243" lon="2.1231426"><ele>756.5</ele><time>2026-04-25T07:54:23.92Z</time></trkpt><trkpt lat="41.9606351" lon="2.123027"><ele>755.25</ele><time>2026-04-25T07:54:24.921Z</time></trkpt><trkpt lat="41.9605846" lon="2.1228927"><ele>754.0</ele><time>2026-04-25T07:54:25.92Z</time></trkpt><trkpt lat="41.960571" lon="2.1227469"><ele>754.0</ele><time>2026-04-25T07:54:26.921Z</time></trkpt><trkpt lat="41.9605957" lon="2.1225918"><ele>754.0</ele><time>2026-04-25T07:54:27.921Z</time></trkpt><trkpt lat="41.9606045" lon="2.1224205"><ele>754.0</ele><time>2026-04-25T07:54:28.92Z</time></trkpt><trkpt lat="41.9605755" lon="2.1222346"><ele>754.0</ele><time>2026-04-25T07:54:29.92Z</time></trkpt><trkpt lat="41.9605195" lon="2.1220429"><ele>753.3333333333334</ele><time>2026-04-25T07:54:30.92Z</time></trkpt><trkpt lat="41.9604464" lon="2.1218463"><ele>752.6666666666666</ele><time>2026-04-25T07:54:31.919Z</time></trkpt><trkpt lat="41.9603708" lon="2.1216415"><ele>752.0</ele><time>2026-04-25T07:54:32.919Z</time></trkpt><trkpt lat="41.9602888" lon="2.1214334"><ele>751.3333333333333</ele><time>2026-04-25T07:54:33.921Z</time></trkpt><trkpt lat="41.9601963" lon="2.1212219"><ele>750.6666666666666</ele><time>2026-04-25T07:54:34.92Z</time></trkpt><trkpt lat="41.9600981" lon="2.121004"><ele>750.0</ele><time>2026-04-25T07:54:35.921Z</time></trkpt><trkpt lat="41.9599917" lon="2.1207867"><ele>748.0</ele><time>2026-04-25T07:54:36.919Z</time></trkpt><trkpt lat="41.9598799" lon="2.120567"><ele>746.0</ele><time>2026-04-25T07:54:37.92Z</time></trkpt><trkpt lat="41.9597675" lon="2.1203404"><ele>744.0</ele><time>2026-04-25T07:54:38.921Z</time></trkpt><trkpt lat="41.9596442" lon="2.1200962"><ele>744.0</ele><time>2026-04-25T07:54:39.92Z</time></trkpt><trkpt lat="41.9595158" lon="2.1198408"><ele>744.0</ele><time>2026-04-25T07:54:40.92Z</time></trkpt><trkpt lat="41.9593846" lon="2.1195807"><ele>744.0</ele><time>2026-04-25T07:54:41.92Z</time></trkpt><trkpt lat="41.9592507" lon="2.1193165"><ele>744.0</ele><time>2026-04-25T07:54:42.919Z</time></trkpt><trkpt lat="41.9591161" lon="2.1190504"><ele>745.5</ele><time>2026-04-25T07:54:43.919Z</time></trkpt><trkpt lat="41.9589792" lon="2.1187835"><ele>747.0</ele><time>2026-04-25T07:54:44.92Z</time></trkpt><trkpt lat="41.9588434" lon="2.1185149"><ele>747.0</ele><time>2026-04-25T07:54:45.921Z</time></trkpt><trkpt lat="41.9587088" lon="2.1182476"><ele>747.0</ele><time>2026-04-25T07:54:46.92Z</time></trkpt><trkpt lat="41.9585792" lon="2.1179924"><ele>748.3333333333334</ele><time>2026-04-25T07:54:47.92Z</time></trkpt><trkpt lat="41.9584573" lon="2.1177515"><ele>749.6666666666667</ele><time>2026-04-25T07:54:48.92Z</time></trkpt><trkpt lat="41.9583469" lon="2.1175376"><ele>751.0</ele><time>2026-04-25T07:54:49.921Z</time></trkpt><trkpt lat="41.9582346" lon="2.117349"><ele>748.3333333333334</ele><time>2026-04-25T07:54:50.919Z</time></trkpt><trkpt lat="41.9580919" lon="2.1171867"><ele>745.6666666666666</ele><time>2026-04-25T07:54:51.92Z</time></trkpt><trkpt lat="41.9579143" lon="2.1170458"><ele>743.0</ele><time>2026-04-25T07:54:52.92Z</time></trkpt><trkpt lat="41.9577135" lon="2.1169149"><ele>743.0</ele><time>2026-04-25T07:54:53.92Z</time></trkpt><trkpt lat="41.9575014" lon="2.1167742"><ele>743.0</ele><time>2026-04-25T07:54:54.921Z</time></trkpt><trkpt lat="41.9572863" lon="2.1166276"><ele>741.0</ele><time>2026-04-25T07:54:55.921Z</time></trkpt><trkpt lat="41.9570639" lon="2.1164775"><ele>739.0</ele><time>2026-04-25T07:54:56.92Z</time></trkpt><trkpt lat="41.9568383" lon="2.1163273"><ele>738.5</ele><time>2026-04-25T07:54:57.92Z</time></trkpt><trkpt lat="41.9566139" lon="2.1161756"><ele>738.0</ele><time>2026-04-25T07:54:58.919Z</time></trkpt><trkpt lat="41.9563973" lon="2.1160278"><ele>738.0</ele><time>2026-04-25T07:54:59.921Z</time></trkpt><trkpt lat="41.9561956" lon="2.1158919"><ele>738.0</ele><time>2026-04-25T07:55:00.921Z</time></trkpt><trkpt lat="41.9560128" lon="2.1157689"><ele>738.0</ele><time>2026-04-25T07:55:01.919Z</time></trkpt><trkpt lat="41.9558468" lon="2.115659"><ele>738.6666666666666</ele><time>2026-04-25T07:55:02.919Z</time></trkpt><trkpt lat="41.9556974" lon="2.1155539"><ele>739.3333333333333</ele><time>2026-04-25T07:55:03.92Z</time></trkpt><trkpt lat="41.955565" lon="2.1154311"><ele>740.0</ele><time>2026-04-25T07:55:04.921Z</time></trkpt><trkpt lat="41.9554429" lon="2.115259"><ele>740.0</ele><time>2026-04-25T07:55:05.92Z</time></trkpt><trkpt lat="41.9553339" lon="2.1150434"><ele>740.0</ele><time>2026-04-25T07:55:06.92Z</time></trkpt><trkpt lat="41.9552328" lon="2.114795"><ele>740.0</ele><time>2026-04-25T07:55:07.919Z</time></trkpt><trkpt lat="41.9551251" lon="2.1145258"><ele>737.5</ele><time>2026-04-25T07:55:08.92Z</time></trkpt><trkpt lat="41.9550134" lon="2.1142524"><ele>735.0</ele><time>2026-04-25T07:55:09.92Z</time></trkpt><trkpt lat="41.9549004" lon="2.1139792"><ele>733.3333333333334</ele><time>2026-04-25T07:55:10.921Z</time></trkpt><trkpt lat="41.9547951" lon="2.1137182"><ele>731.6666666666667</ele><time>2026-04-25T07:55:11.92Z</time></trkpt><trkpt lat="41.9546984" lon="2.1134721"><ele>730.0</ele><time>2026-04-25T07:55:12.92Z</time></trkpt><trkpt lat="41.9546085" lon="2.1132403"><ele>729.0</ele><time>2026-04-25T07:55:13.919Z</time></trkpt><trkpt lat="41.9545385" lon="2.1130129"><ele>728.0</ele><time>2026-04-25T07:55:14.919Z</time></trkpt><trkpt lat="41.9545107" lon="2.1127808"><ele>727.0</ele><time>2026-04-25T07:55:15.921Z</time></trkpt><trkpt lat="41.9545027" lon="2.1125681"><ele>727.25</ele><time>2026-04-25T07:55:16.92Z</time></trkpt><trkpt lat="41.9544829" lon="2.1123829"><ele>727.5</ele><time>2026-04-25T07:55:17.921Z</time></trkpt><trkpt lat="41.954428" lon="2.1122166"><ele>727.75</ele><time>2026-04-25T07:55:18.92Z</time></trkpt><trkpt lat="41.9543311" lon="2.1120779"><ele>728.0</ele><time>2026-04-25T07:55:19.921Z</time></trkpt><trkpt lat="41.954202" lon="2.1119429"><ele>728.3333333333333</ele><time>2026-04-25T07:55:20.92Z</time></trkpt><trkpt lat="41.9540597" lon="2.1117921"><ele>728.6666666666666</ele><time>2026-04-25T07:55:21.92Z</time></trkpt><trkpt lat="41.9539124" lon="2.111633"><ele>729.0</ele><time>2026-04-25T07:55:22.921Z</time></trkpt><trkpt lat="41.9537641" lon="2.1114804"><ele>726.6666666666666</ele><time>2026-04-25T07:55:23.92Z</time></trkpt><trkpt lat="41.9536211" lon="2.1113437"><ele>724.3333333333333</ele><time>2026-04-25T07:55:24.92Z</time></trkpt><trkpt lat="41.9534774" lon="2.11124"><ele>722.0</ele><time>2026-04-25T07:55:25.921Z</time></trkpt><trkpt lat="41.9533361" lon="2.1111689"><ele>722.0</ele><time>2026-04-25T07:55:26.919Z</time></trkpt><trkpt lat="41.9531963" lon="2.1111025"><ele>722.0</ele><time>2026-04-25T07:55:27.919Z</time></trkpt><trkpt lat="41.9530723" lon="2.1110133"><ele>722.0</ele><time>2026-04-25T07:55:28.92Z</time></trkpt><trkpt lat="41.9529663" lon="2.1108808"><ele>722.0</ele><time>2026-04-25T07:55:29.92Z</time></trkpt><trkpt lat="41.9528804" lon="2.110703"><ele>719.0</ele><time>2026-04-25T07:55:30.92Z</time></trkpt><trkpt lat="41.9528153" lon="2.110491"><ele>716.0</ele><time>2026-04-25T07:55:31.921Z</time></trkpt><trkpt lat="41.9527545" lon="2.1102516"><ele>713.0</ele><time>2026-04-25T07:55:32.919Z</time></trkpt><trkpt lat="41.952687" lon="2.1099958"><ele>712.5</ele><time>2026-04-25T07:55:33.92Z</time></trkpt><trkpt lat="41.9526127" lon="2.1097161"><ele>712.0</ele><time>2026-04-25T07:55:34.92Z</time></trkpt><trkpt lat="41.9525392" lon="2.1094249"><ele>712.0</ele><time>2026-04-25T07:55:35.92Z</time></trkpt><trkpt lat="41.9524614" lon="2.1091318"><ele>712.0</ele><time>2026-04-25T07:55:36.921Z</time></trkpt><trkpt lat="41.9523826" lon="2.1088427"><ele>709.6666666666667</ele><time>2026-04-25T07:55:37.919Z</time></trkpt><trkpt lat="41.9523077" lon="2.1085642"><ele>707.3333333333334</ele><time>2026-04-25T07:55:38.921Z</time></trkpt><trkpt lat="41.9522402" lon="2.1083041"><ele>705.0</ele><time>2026-04-25T07:55:39.919Z</time></trkpt><trkpt lat="41.9521908" lon="2.1080405"><ele>703.6666666666666</ele><time>2026-04-25T07:55:40.92Z</time></trkpt><trkpt lat="41.9521606" lon="2.1077559"><ele>702.3333333333333</ele><time>2026-04-25T07:55:41.921Z</time></trkpt><trkpt lat="41.9521457" lon="2.1074601"><ele>701.0</ele><time>2026-04-25T07:55:42.92Z</time></trkpt><trkpt lat="41.9521458" lon="2.1071649"><ele>699.0</ele><time>2026-04-25T07:55:43.92Z</time></trkpt><trkpt lat="41.9521537" lon="2.1068847"><ele>697.0</ele><time>2026-04-25T07:55:44.92Z</time></trkpt><trkpt lat="41.9521581" lon="2.1066214"><ele>695.0</ele><time>2026-04-25T07:55:45.919Z</time></trkpt><trkpt lat="41.9521571" lon="2.1063816"><ele>694.3333333333333</ele><time>2026-04-25T07:55:46.92Z</time></trkpt><trkpt lat="41.9521382" lon="2.1061355"><ele>693.6666666666666</ele><time>2026-04-25T07:55:47.92Z</time></trkpt><trkpt lat="41.9520764" lon="2.10589"><ele>693.0</ele><time>2026-04-25T07:55:48.919Z</time></trkpt><trkpt lat="41.9519813" lon="2.1056504"><ele>693.0</ele><time>2026-04-25T07:55:49.921Z</time></trkpt><trkpt lat="41.9518801" lon="2.105412"><ele>693.0</ele><time>2026-04-25T07:55:50.919Z</time></trkpt><trkpt lat="41.9517868" lon="2.1051849"><ele>693.0</ele><time>2026-04-25T07:55:51.92Z</time></trkpt><trkpt lat="41.9516937" lon="2.1049845"><ele>690.0</ele><time>2026-04-25T07:55:52.919Z</time></trkpt><trkpt lat="41.9515728" lon="2.1047979"><ele>687.0</ele><time>2026-04-25T07:55:53.92Z</time></trkpt><trkpt lat="41.9514235" lon="2.1046497"><ele>684.0</ele><time>2026-04-25T07:55:54.921Z</time></trkpt><trkpt lat="41.951249" lon="2.1045479"><ele>684.0</ele><time>2026-04-25T07:55:55.92Z</time></trkpt><trkpt lat="41.9510502" lon="2.1044696"><ele>684.0</ele><time>2026-04-25T07:55:56.919Z</time></trkpt><trkpt lat="41.9508364" lon="2.1043867"><ele>684.0</ele><time>2026-04-25T07:55:57.92Z</time></trkpt><trkpt lat="41.9506136" lon="2.1043015"><ele>684.0</ele><time>2026-04-25T07:55:58.92Z</time></trkpt><trkpt lat="41.9503861" lon="2.1042188"><ele>684.0</ele><time>2026-04-25T07:55:59.92Z</time></trkpt><trkpt lat="41.9501555" lon="2.1041359"><ele>681.5</ele><time>2026-04-25T07:56:00.92Z</time></trkpt><trkpt lat="41.9499163" lon="2.1040496"><ele>679.0</ele><time>2026-04-25T07:56:01.92Z</time></trkpt><trkpt lat="41.9496758" lon="2.1039724"><ele>679.0</ele><time>2026-04-25T07:56:02.919Z</time></trkpt><trkpt lat="41.9494327" lon="2.1039159"><ele>679.0</ele><time>2026-04-25T07:56:03.92Z</time></trkpt><trkpt lat="41.9491885" lon="2.1038737"><ele>682.5</ele><time>2026-04-25T07:56:04.92Z</time></trkpt><trkpt lat="41.9489479" lon="2.1038282"><ele>686.0</ele><time>2026-04-25T07:56:05.919Z</time></trkpt><trkpt lat="41.9487127" lon="2.1037726"><ele>686.0</ele><time>2026-04-25T07:56:06.92Z</time></trkpt><trkpt lat="41.9484896" lon="2.1037078"><ele>686.0</ele><time>2026-04-25T07:56:07.921Z</time></trkpt><trkpt lat="41.948284" lon="2.1036397"><ele>686.0</ele><time>2026-04-25T07:56:08.921Z</time></trkpt><trkpt lat="41.9480919" lon="2.1035728"><ele>688.6666666666666</ele><time>2026-04-25T07:56:09.921Z</time></trkpt><trkpt lat="41.9479036" lon="2.1035025"><ele>691.3333333333334</ele><time>2026-04-25T07:56:10.92Z</time></trkpt><trkpt lat="41.9477308" lon="2.1034412"><ele>694.0</ele><time>2026-04-25T07:56:11.92Z</time></trkpt><trkpt lat="41.9475795" lon="2.1033899"><ele>694.5</ele><time>2026-04-25T07:56:12.92Z</time></trkpt><trkpt lat="41.9474577" lon="2.1033312"><ele>695.0</ele><time>2026-04-25T07:56:13.92Z</time></trkpt><trkpt lat="41.9473553" lon="2.1032337"><ele>695.5</ele><time>2026-04-25T07:56:14.919Z</time></trkpt><trkpt lat="41.9472843" lon="2.1030922"><ele>696.0</ele><time>2026-04-25T07:56:15.921Z</time></trkpt><trkpt lat="41.9472484" lon="2.1029112"><ele>696.0</ele><time>2026-04-25T07:56:16.921Z</time></trkpt><trkpt lat="41.9472301" lon="2.1026984"><ele>696.0</ele><time>2026-04-25T07:56:17.92Z</time></trkpt><trkpt lat="41.9472193" lon="2.1024689"><ele>696.0</ele><time>2026-04-25T07:56:18.92Z</time></trkpt><trkpt lat="41.9472217" lon="2.1022426"><ele>694.3333333333334</ele><time>2026-04-25T07:56:19.921Z</time></trkpt><trkpt lat="41.9472279" lon="2.1020285"><ele>692.6666666666667</ele><time>2026-04-25T07:56:20.921Z</time></trkpt><trkpt lat="41.9472252" lon="2.1018078"><ele>691.0</ele><time>2026-04-25T07:56:21.92Z</time></trkpt><trkpt lat="41.9471928" lon="2.1015883"><ele>688.6666666666667</ele><time>2026-04-25T07:56:22.92Z</time></trkpt><trkpt lat="41.9471237" lon="2.1013873"><ele>686.3333333333334</ele><time>2026-04-25T07:56:23.92Z</time></trkpt><trkpt lat="41.9470311" lon="2.1012114"><ele>684.0</ele><time>2026-04-25T07:56:24.92Z</time></trkpt><trkpt lat="41.9469134" lon="2.1010572"><ele>684.0</ele><time>2026-04-25T07:56:25.921Z</time></trkpt><trkpt lat="41.9467761" lon="2.1009205"><ele>684.0</ele><time>2026-04-25T07:56:26.921Z</time></trkpt><trkpt lat="41.9466206" lon="2.1008027"><ele>684.0</ele><time>2026-04-25T07:56:27.921Z</time></trkpt><trkpt lat="41.9464484" lon="2.1006972"><ele>683.6666666666666</ele><time>2026-04-25T07:56:28.92Z</time></trkpt><trkpt lat="41.9462718" lon="2.1006074"><ele>683.3333333333333</ele><time>2026-04-25T07:56:29.919Z</time></trkpt><trkpt lat="41.9460931" lon="2.1005474"><ele>683.0</ele><time>2026-04-25T07:56:30.92Z</time></trkpt><trkpt lat="41.9459201" lon="2.1005095"><ele>684.25</ele><time>2026-04-25T07:56:31.92Z</time></trkpt><trkpt lat="41.9457622" lon="2.1004935"><ele>685.5</ele><time>2026-04-25T07:56:32.92Z</time></trkpt><trkpt lat="41.9456232" lon="2.1004976"><ele>686.75</ele><time>2026-04-25T07:56:33.92Z</time></trkpt><trkpt lat="41.9455049" lon="2.1005303"><ele>688.0</ele><time>2026-04-25T07:56:34.919Z</time></trkpt><trkpt lat="41.945403" lon="2.1005671"><ele>688.0</ele><time>2026-04-25T07:56:35.921Z</time></trkpt><trkpt lat="41.9453043" lon="2.1005729"><ele>688.0</ele><time>2026-04-25T07:56:36.92Z</time></trkpt><trkpt lat="41.9452173" lon="2.1005445"><ele>688.0</ele><time>2026-04-25T07:56:37.92Z</time></trkpt><trkpt lat="41.9451486" lon="2.1004821"><ele>688.0</ele><time>2026-04-25T07:56:38.921Z</time></trkpt><trkpt lat="41.9450999" lon="2.1003845"><ele>688.0</ele><time>2026-04-25T07:56:39.921Z</time></trkpt><trkpt lat="41.94507" lon="2.10026"><ele>688.0</ele><time>2026-04-25T07:56:40.919Z</time></trkpt><trkpt lat="41.9450473" lon="2.1001209"><ele>688.0</ele><time>2026-04-25T07:56:41.92Z</time></trkpt><trkpt lat="41.9450224" lon="2.0999572"><ele>688.0</ele><time>2026-04-25T07:56:42.921Z</time></trkpt><trkpt lat="41.945004" lon="2.0997885"><ele>688.0</ele><time>2026-04-25T07:56:43.919Z</time></trkpt><trkpt lat="41.9449709" lon="2.0996307"><ele>688.0</ele><time>2026-04-25T07:56:44.92Z</time></trkpt><trkpt lat="41.944902" lon="2.0994839"><ele>688.0</ele><time>2026-04-25T07:56:45.919Z</time></trkpt><trkpt lat="41.9447977" lon="2.0993666"><ele>688.0</ele><time>2026-04-25T07:56:46.92Z</time></trkpt><trkpt lat="41.9446672" lon="2.0992732"><ele>688.0</ele><time>2026-04-25T07:56:47.92Z</time></trkpt><trkpt lat="41.9445195" lon="2.0991735"><ele>686.6666666666667</ele><time>2026-04-25T07:56:48.92Z</time></trkpt><trkpt lat="41.9443546" lon="2.0990664"><ele>685.3333333333334</ele><time>2026-04-25T07:56:49.921Z</time></trkpt><trkpt lat="41.9441849" lon="2.0989633"><ele>684.0</ele><time>2026-04-25T07:56:50.92Z</time></trkpt><trkpt lat="41.9440155" lon="2.0988632"><ele>684.0</ele><time>2026-04-25T07:56:51.92Z</time></trkpt><trkpt lat="41.9438417" lon="2.0987781"><ele>684.0</ele><time>2026-04-25T07:56:52.92Z</time></trkpt><trkpt lat="41.9436698" lon="2.0987252"><ele>684.0</ele><time>2026-04-25T07:56:53.919Z</time></trkpt><trkpt lat="41.9434912" lon="2.0986916"><ele>683.6666666666666</ele><time>2026-04-25T07:56:54.92Z</time></trkpt><trkpt lat="41.9433015" lon="2.0986562"><ele>683.3333333333333</ele><time>2026-04-25T07:56:55.921Z</time></trkpt><trkpt lat="41.9431113" lon="2.0986202"><ele>683.0</ele><time>2026-04-25T07:56:56.92Z</time></trkpt><trkpt lat="41.9429309" lon="2.0985732"><ele>683.0</ele><time>2026-04-25T07:56:57.92Z</time></trkpt><trkpt lat="41.9427669" lon="2.0985015"><ele>683.0</ele><time>2026-04-25T07:56:58.921Z</time></trkpt><trkpt lat="41.9426064" lon="2.0983961"><ele>683.0</ele><time>2026-04-25T07:56:59.921Z</time></trkpt><trkpt lat="41.9424505" lon="2.0982656"><ele>683.3333333333333</ele><time>2026-04-25T07:57:00.921Z</time></trkpt><trkpt lat="41.9422935" lon="2.0981054"><ele>683.6666666666666</ele><time>2026-04-25T07:57:01.92Z</time></trkpt><trkpt lat="41.9421415" lon="2.0979234"><ele>684.0</ele><time>2026-04-25T07:57:02.919Z</time></trkpt><trkpt lat="41.9419908" lon="2.0977385"><ele>684.0</ele><time>2026-04-25T07:57:03.92Z</time></trkpt><trkpt lat="41.9418425" lon="2.0975581"><ele>684.0</ele><time>2026-04-25T07:57:04.92Z</time></trkpt><trkpt lat="41.9417064" lon="2.0973785"><ele>684.0</ele><time>2026-04-25T07:57:05.921Z</time></trkpt><trkpt lat="41.9415876" lon="2.0971834"><ele>683.6666666666666</ele><time>2026-04-25T07:57:06.921Z</time></trkpt><trkpt lat="41.9415037" lon="2.0969607"><ele>683.3333333333333</ele><time>2026-04-25T07:57:07.92Z</time></trkpt><trkpt lat="41.9414515" lon="2.0967175"><ele>683.0</ele><time>2026-04-25T07:57:08.921Z</time></trkpt><trkpt lat="41.9413987" lon="2.0964725"><ele>682.3333333333333</ele><time>2026-04-25T07:57:09.92Z</time></trkpt><trkpt lat="41.9413077" lon="2.096245"><ele>681.6666666666666</ele><time>2026-04-25T07:57:10.921Z</time></trkpt><trkpt lat="41.9411921" lon="2.0960236"><ele>681.0</ele><time>2026-04-25T07:57:11.921Z</time></trkpt><trkpt lat="41.9410657" lon="2.0958089"><ele>678.6666666666666</ele><time>2026-04-25T07:57:12.921Z</time></trkpt><trkpt lat="41.9409381" lon="2.095597"><ele>676.3333333333333</ele><time>2026-04-25T07:57:13.92Z</time></trkpt><trkpt lat="41.9408029" lon="2.0954068"><ele>674.0</ele><time>2026-04-25T07:57:14.92Z</time></trkpt><trkpt lat="41.9406507" lon="2.0952328"><ele>674.0</ele><time>2026-04-25T07:57:15.92Z</time></trkpt><trkpt lat="41.9404879" lon="2.0950876"><ele>674.0</ele><time>2026-04-25T07:57:16.92Z</time></trkpt><trkpt lat="41.9403338" lon="2.0949508"><ele>674.0</ele><time>2026-04-25T07:57:17.921Z</time></trkpt><trkpt lat="41.9401874" lon="2.0947907"><ele>673.3333333333333</ele><time>2026-04-25T07:57:18.919Z</time></trkpt><trkpt lat="41.9400572" lon="2.0946008"><ele>672.6666666666666</ele><time>2026-04-25T07:57:19.92Z</time></trkpt><trkpt lat="41.9399413" lon="2.0944089"><ele>672.0</ele><time>2026-04-25T07:57:20.92Z</time></trkpt><trkpt lat="41.9398439" lon="2.0942485"><ele>672.0</ele><time>2026-04-25T07:57:21.92Z</time></trkpt><trkpt lat="41.9397444" lon="2.0941219"><ele>672.0</ele><time>2026-04-25T07:57:22.92Z</time></trkpt><trkpt lat="41.9396193" lon="2.0940291"><ele>672.0</ele><time>2026-04-25T07:57:23.92Z</time></trkpt><trkpt lat="41.9394774" lon="2.0939962"><ele>672.0</ele><time>2026-04-25T07:57:24.919Z</time></trkpt><trkpt lat="41.9393369" lon="2.0939845"><ele>673.25</ele><time>2026-04-25T07:57:25.919Z</time></trkpt><trkpt lat="41.9392013" lon="2.0939547"><ele>674.5</ele><time>2026-04-25T07:57:26.92Z</time></trkpt><trkpt lat="41.9390706" lon="2.0938814"><ele>675.75</ele><time>2026-04-25T07:57:27.92Z</time></trkpt><trkpt lat="41.9389479" lon="2.0937514"><ele>677.0</ele><time>2026-04-25T07:57:28.92Z</time></trkpt><trkpt lat="41.9388233" lon="2.0935888"><ele>677.0</ele><time>2026-04-25T07:57:29.921Z</time></trkpt><trkpt lat="41.9386972" lon="2.0934184"><ele>677.0</ele><time>2026-04-25T07:57:30.921Z</time></trkpt><trkpt lat="41.9385769" lon="2.0932567"><ele>677.0</ele><time>2026-04-25T07:57:31.92Z</time></trkpt><trkpt lat="41.9384773" lon="2.0930727"><ele>675.3333333333333</ele><time>2026-04-25T07:57:32.92Z</time></trkpt><trkpt lat="41.9384116" lon="2.0928723"><ele>673.6666666666666</ele><time>2026-04-25T07:57:33.92Z</time></trkpt><trkpt lat="41.9383719" lon="2.0926779"><ele>672.0</ele><time>2026-04-25T07:57:34.92Z</time></trkpt><trkpt lat="41.9383196" lon="2.0924997"><ele>668.3333333333334</ele><time>2026-04-25T07:57:35.92Z</time></trkpt><trkpt lat="41.9382348" lon="2.0923397"><ele>664.6666666666667</ele><time>2026-04-25T07:57:36.92Z</time></trkpt><trkpt lat="41.9381134" lon="2.0922088"><ele>661.0</ele><time>2026-04-25T07:57:37.92Z</time></trkpt><trkpt lat="41.9379663" lon="2.092087"><ele>661.0</ele><time>2026-04-25T07:57:38.921Z</time></trkpt><trkpt lat="41.9378085" lon="2.091968"><ele>661.0</ele><time>2026-04-25T07:57:39.92Z</time></trkpt><trkpt lat="41.9376498" lon="2.0918674"><ele>661.0</ele><time>2026-04-25T07:57:40.92Z</time></trkpt><trkpt lat="41.9374876" lon="2.0918056"><ele>661.6666666666667</ele><time>2026-04-25T07:57:41.919Z</time></trkpt><trkpt lat="41.9373362" lon="2.0917565"><ele>662.3333333333334</ele><time>2026-04-25T07:57:42.921Z</time></trkpt><trkpt lat="41.9371949" lon="2.0916875"><ele>663.0</ele><time>2026-04-25T07:57:43.92Z</time></trkpt><trkpt lat="41.9370737" lon="2.0915696"><ele>663.0</ele><time>2026-04-25T07:57:44.921Z</time></trkpt><trkpt lat="41.936967" lon="2.0914117"><ele>663.0</ele><time>2026-04-25T07:57:45.92Z</time></trkpt><trkpt lat="41.9368568" lon="2.0912244"><ele>663.0</ele><time>2026-04-25T07:57:46.921Z</time></trkpt><trkpt lat="41.9367411" lon="2.0910031"><ele>660.0</ele><time>2026-04-25T07:57:47.921Z</time></trkpt><trkpt lat="41.9366163" lon="2.0907642"><ele>657.0</ele><time>2026-04-25T07:57:48.92Z</time></trkpt><trkpt lat="41.936479" lon="2.0905014"><ele>654.5</ele><time>2026-04-25T07:57:49.92Z</time></trkpt><trkpt lat="41.9363301" lon="2.0902224"><ele>652.0</ele><time>2026-04-25T07:57:50.921Z</time></trkpt><trkpt lat="41.9361764" lon="2.0899371"><ele>648.5</ele><time>2026-04-25T07:57:51.92Z</time></trkpt><trkpt lat="41.9360188" lon="2.0896468"><ele>645.0</ele><time>2026-04-25T07:57:52.921Z</time></trkpt><trkpt lat="41.9358589" lon="2.0893525"><ele>640.5</ele><time>2026-04-25T07:57:53.92Z</time></trkpt><trkpt lat="41.9356983" lon="2.0890595"><ele>636.0</ele><time>2026-04-25T07:57:54.92Z</time></trkpt><trkpt lat="41.9355394" lon="2.088768"><ele>636.0</ele><time>2026-04-25T07:57:55.921Z</time></trkpt><trkpt lat="41.9353824" lon="2.0884816"><ele>636.0</ele><time>2026-04-25T07:57:56.92Z</time></trkpt><trkpt lat="41.9352317" lon="2.0882096"><ele>635.5</ele><time>2026-04-25T07:57:57.919Z</time></trkpt><trkpt lat="41.9350904" lon="2.0879529"><ele>635.0</ele><time>2026-04-25T07:57:58.921Z</time></trkpt><trkpt lat="41.9349626" lon="2.0877173"><ele>634.3333333333333</ele><time>2026-04-25T07:57:59.92Z</time></trkpt><trkpt lat="41.9348483" lon="2.0874976"><ele>633.6666666666666</ele><time>2026-04-25T07:58:00.92Z</time></trkpt><trkpt lat="41.9347487" lon="2.087292"><ele>633.0</ele><time>2026-04-25T07:58:01.921Z</time></trkpt><trkpt lat="41.9346672" lon="2.0870927"><ele>633.0</ele><time>2026-04-25T07:58:02.92Z</time></trkpt><trkpt lat="41.9346069" lon="2.08687"><ele>633.0</ele><time>2026-04-25T07:58:03.92Z</time></trkpt><trkpt lat="41.934567" lon="2.0866211"><ele>633.0</ele><time>2026-04-25T07:58:04.919Z</time></trkpt><trkpt lat="41.9345452" lon="2.086362"><ele>632.0</ele><time>2026-04-25T07:58:05.92Z</time></trkpt><trkpt lat="41.9345296" lon="2.0861147"><ele>631.0</ele><time>2026-04-25T07:58:06.921Z</time></trkpt><trkpt lat="41.9345274" lon="2.0858859"><ele>630.0</ele><time>2026-04-25T07:58:07.919Z</time></trkpt><trkpt lat="41.9345527" lon="2.0856781"><ele>627.6666666666666</ele><time>2026-04-25T07:58:08.92Z</time></trkpt><trkpt lat="41.934614" lon="2.0854775"><ele>625.3333333333333</ele><time>2026-04-25T07:58:09.919Z</time></trkpt><trkpt lat="41.9346966" lon="2.0852878"><ele>623.0</ele><time>2026-04-25T07:58:10.921Z</time></trkpt><trkpt lat="41.9347991" lon="2.0851247"><ele>623.0</ele><time>2026-04-25T07:58:11.92Z</time></trkpt><trkpt lat="41.9349344" lon="2.0849936"><ele>623.0</ele><time>2026-04-25T07:58:12.92Z</time></trkpt><trkpt lat="41.9350726" lon="2.0849006"><ele>623.0</ele><time>2026-04-25T07:58:13.921Z</time></trkpt><trkpt lat="41.9351958" lon="2.0848372"><ele>622.5</ele><time>2026-04-25T07:58:14.92Z</time></trkpt><trkpt lat="41.9353235" lon="2.0848044"><ele>622.0</ele><time>2026-04-25T07:58:15.919Z</time></trkpt><trkpt lat="41.9354606" lon="2.0848205"><ele>621.5</ele><time>2026-04-25T07:58:16.921Z</time></trkpt><trkpt lat="41.9355899" lon="2.0848762"><ele>621.0</ele><time>2026-04-25T07:58:17.921Z</time></trkpt><trkpt lat="41.9357199" lon="2.0849388"><ele>621.0</ele><time>2026-04-25T07:58:18.921Z</time></trkpt><trkpt lat="41.9358632" lon="2.0849645"><ele>621.0</ele><time>2026-04-25T07:58:19.92Z</time></trkpt><trkpt lat="41.9359981" lon="2.0849435"><ele>621.0</ele><time>2026-04-25T07:58:20.92Z</time></trkpt><trkpt lat="41.9361186" lon="2.0848851"><ele>621.0</ele><time>2026-04-25T07:58:21.921Z</time></trkpt><trkpt lat="41.9362124" lon="2.084772"><ele>620.0</ele><time>2026-04-25T07:58:22.92Z</time></trkpt><trkpt lat="41.9362819" lon="2.0846083"><ele>619.0</ele><time>2026-04-25T07:58:23.92Z</time></trkpt><trkpt lat="41.9363391" lon="2.0844117"><ele>618.0</ele><time>2026-04-25T07:58:24.919Z</time></trkpt><trkpt lat="41.9364042" lon="2.0842235"><ele>617.75</ele><time>2026-04-25T07:58:25.92Z</time></trkpt><trkpt lat="41.9364638" lon="2.0840502"><ele>617.5</ele><time>2026-04-25T07:58:26.921Z</time></trkpt><trkpt lat="41.936502" lon="2.0838576"><ele>617.25</ele><time>2026-04-25T07:58:27.92Z</time></trkpt><trkpt lat="41.9364957" lon="2.0836485"><ele>617.0</ele><time>2026-04-25T07:58:28.92Z</time></trkpt><trkpt lat="41.9364597" lon="2.0834223"><ele>616.3333333333333</ele><time>2026-04-25T07:58:29.921Z</time></trkpt><trkpt lat="41.9364142" lon="2.0831889"><ele>615.6666666666666</ele><time>2026-04-25T07:58:30.921Z</time></trkpt><trkpt lat="41.9363604" lon="2.0829558"><ele>615.0</ele><time>2026-04-25T07:58:31.921Z</time></trkpt><trkpt lat="41.9362876" lon="2.082729"><ele>615.0</ele><time>2026-04-25T07:58:32.92Z</time></trkpt><trkpt lat="41.9362079" lon="2.0825067"><ele>615.0</ele><time>2026-04-25T07:58:33.92Z</time></trkpt><trkpt lat="41.9361374" lon="2.0822945"><ele>615.0</ele><time>2026-04-25T07:58:34.92Z</time></trkpt><trkpt lat="41.9361027" lon="2.0820934"><ele>613.75</ele><time>2026-04-25T07:58:35.92Z</time></trkpt><trkpt lat="41.9361" lon="2.0819022"><ele>612.5</ele><time>2026-04-25T07:58:36.919Z</time></trkpt><trkpt lat="41.9360999" lon="2.0817192"><ele>611.25</ele><time>2026-04-25T07:58:37.921Z</time></trkpt><trkpt lat="41.9360556" lon="2.0815485"><ele>610.0</ele><time>2026-04-25T07:58:38.92Z</time></trkpt><trkpt lat="41.9359689" lon="2.0813953"><ele>605.0</ele><time>2026-04-25T07:58:39.92Z</time></trkpt><trkpt lat="41.9358644" lon="2.0812451"><ele>600.0</ele><time>2026-04-25T07:58:40.92Z</time></trkpt><trkpt lat="41.9357455" lon="2.0810946"><ele>595.0</ele><time>2026-04-25T07:58:41.921Z</time></trkpt><trkpt lat="41.9356351" lon="2.0809451"><ele>595.0</ele><time>2026-04-25T07:58:42.921Z</time></trkpt><trkpt lat="41.9355456" lon="2.0807869"><ele>595.0</ele><time>2026-04-25T07:58:43.921Z</time></trkpt><trkpt lat="41.9354916" lon="2.0806195"><ele>595.0</ele><time>2026-04-25T07:58:44.921Z</time></trkpt><trkpt lat="41.9354789" lon="2.0804591"><ele>595.0</ele><time>2026-04-25T07:58:45.919Z</time></trkpt><trkpt lat="41.9355032" lon="2.080322"><ele>594.8</ele><time>2026-04-25T07:58:46.92Z</time></trkpt><trkpt lat="41.935556" lon="2.0802012"><ele>594.6</ele><time>2026-04-25T07:58:47.92Z</time></trkpt><trkpt lat="41.9356046" lon="2.0800789"><ele>594.4</ele><time>2026-04-25T07:58:48.92Z</time></trkpt><trkpt lat="41.9356045" lon="2.0799327"><ele>594.2</ele><time>2026-04-25T07:58:49.92Z</time></trkpt><trkpt lat="41.935554" lon="2.0798001"><ele>594.0</ele><time>2026-04-25T07:58:50.919Z</time></trkpt><trkpt lat="41.9354632" lon="2.0796927"><ele>594.0</ele><time>2026-04-25T07:58:51.921Z</time></trkpt><trkpt lat="41.935343" lon="2.0796046"><ele>594.0</ele><time>2026-04-25T07:58:52.919Z</time></trkpt><trkpt lat="41.935225" lon="2.0795056"><ele>594.0</ele><time>2026-04-25T07:58:53.92Z</time></trkpt><trkpt lat="41.9351326" lon="2.0793651"><ele>594.0</ele><time>2026-04-25T07:58:54.92Z</time></trkpt><trkpt lat="41.9350636" lon="2.0791923"><ele>592.75</ele><time>2026-04-25T07:58:55.921Z</time></trkpt><trkpt lat="41.9350211" lon="2.0790191"><ele>591.5</ele><time>2026-04-25T07:58:56.921Z</time></trkpt><trkpt lat="41.9350115" lon="2.0788528"><ele>590.25</ele><time>2026-04-25T07:58:57.92Z</time></trkpt><trkpt lat="41.9350448" lon="2.0786958"><ele>589.0</ele><time>2026-04-25T07:58:58.921Z</time></trkpt><trkpt lat="41.9351057" lon="2.078542"><ele>589.0</ele><time>2026-04-25T07:58:59.92Z</time></trkpt><trkpt lat="41.9351578" lon="2.0783811"><ele>589.0</ele><time>2026-04-25T07:59:00.921Z</time></trkpt><trkpt lat="41.9351706" lon="2.0782077"><ele>589.0</ele><time>2026-04-25T07:59:01.921Z</time></trkpt><trkpt lat="41.9351463" lon="2.0780348"><ele>589.0</ele><time>2026-04-25T07:59:02.921Z</time></trkpt><trkpt lat="41.9351222" lon="2.0778629"><ele>587.0</ele><time>2026-04-25T07:59:03.921Z</time></trkpt><trkpt lat="41.9351362" lon="2.0776875"><ele>585.0</ele><time>2026-04-25T07:59:04.92Z</time></trkpt><trkpt lat="41.9351872" lon="2.077522"><ele>583.0</ele><time>2026-04-25T07:59:05.921Z</time></trkpt><trkpt lat="41.9352654" lon="2.0773743"><ele>581.0</ele><time>2026-04-25T07:59:06.92Z</time></trkpt><trkpt lat="41.9353488" lon="2.0772475"><ele>581.0</ele><time>2026-04-25T07:59:07.919Z</time></trkpt><trkpt lat="41.935414" lon="2.0771213"><ele>581.0</ele><time>2026-04-25T07:59:08.92Z</time></trkpt><trkpt lat="41.9354408" lon="2.0769977"><ele>581.0</ele><time>2026-04-25T07:59:09.919Z</time></trkpt><trkpt lat="41.9354309" lon="2.0768661"><ele>581.0</ele><time>2026-04-25T07:59:10.919Z</time></trkpt><trkpt lat="41.9353781" lon="2.0767252"><ele>581.0</ele><time>2026-04-25T07:59:11.92Z</time></trkpt><trkpt lat="41.9353019" lon="2.0765764"><ele>579.25</ele><time>2026-04-25T07:59:12.92Z</time></trkpt><trkpt lat="41.9352205" lon="2.0764224"><ele>577.5</ele><time>2026-04-25T07:59:13.919Z</time></trkpt><trkpt lat="41.9351528" lon="2.0762882"><ele>575.75</ele><time>2026-04-25T07:59:14.919Z</time></trkpt><trkpt lat="41.9351143" lon="2.0761576"><ele>574.0</ele><time>2026-04-25T07:59:15.92Z</time></trkpt><trkpt lat="41.9351211" lon="2.0760195"><ele>574.0</ele><time>2026-04-25T07:59:16.921Z</time></trkpt><trkpt lat="41.9351741" lon="2.0759029"><ele>574.0</ele><time>2026-04-25T07:59:17.92Z</time></trkpt><trkpt lat="41.9352552" lon="2.0758157"><ele>574.0</ele><time>2026-04-25T07:59:18.92Z</time></trkpt><trkpt lat="41.935362" lon="2.0757246"><ele>574.0</ele><time>2026-04-25T07:59:19.92Z</time></trkpt><trkpt lat="41.9354511" lon="2.0755918"><ele>569.6666666666667</ele><time>2026-04-25T07:59:20.919Z</time></trkpt><trkpt lat="41.935518" lon="2.0754121"><ele>565.3333333333334</ele><time>2026-04-25T07:59:21.92Z</time></trkpt><trkpt lat="41.9355692" lon="2.0752025"><ele>561.0</ele><time>2026-04-25T07:59:22.92Z</time></trkpt><trkpt lat="41.9356248" lon="2.0749781"><ele>557.3333333333334</ele><time>2026-04-25T07:59:23.92Z</time></trkpt><trkpt lat="41.9356801" lon="2.0747517"><ele>553.6666666666667</ele><time>2026-04-25T07:59:24.919Z</time></trkpt><trkpt lat="41.9357326" lon="2.0745204"><ele>550.0</ele><time>2026-04-25T07:59:25.92Z</time></trkpt><trkpt lat="41.9357842" lon="2.0742919"><ele>549.25</ele><time>2026-04-25T07:59:26.921Z</time></trkpt><trkpt lat="41.935827" lon="2.0740755"><ele>548.5</ele><time>2026-04-25T07:59:27.919Z</time></trkpt><trkpt lat="41.9358557" lon="2.0738821"><ele>547.75</ele><time>2026-04-25T07:59:28.92Z</time></trkpt><trkpt lat="41.9358759" lon="2.0737106"><ele>547.0</ele><time>2026-04-25T07:59:29.92Z</time></trkpt><trkpt lat="41.9359088" lon="2.0735565"><ele>547.0</ele><time>2026-04-25T07:59:30.919Z</time></trkpt><trkpt lat="41.9359825" lon="2.0734115"><ele>547.0</ele><time>2026-04-25T07:59:31.919Z</time></trkpt><trkpt lat="41.9360867" lon="2.0733003"><ele>547.0</ele><time>2026-04-25T07:59:32.919Z</time></trkpt><trkpt lat="41.9362135" lon="2.0731905"><ele>547.0</ele><time>2026-04-25T07:59:33.919Z</time></trkpt><trkpt lat="41.9363518" lon="2.073079"><ele>541.0</ele><time>2026-04-25T07:59:34.919Z</time></trkpt><trkpt lat="41.9364933" lon="2.0729811"><ele>535.0</ele><time>2026-04-25T07:59:35.92Z</time></trkpt><trkpt lat="41.93663" lon="2.0728944"><ele>529.0</ele><time>2026-04-25T07:59:36.921Z</time></trkpt><trkpt lat="41.9367588" lon="2.0727881"><ele>529.0</ele><time>2026-04-25T07:59:37.921Z</time></trkpt><trkpt lat="41.9368701" lon="2.0726515"><ele>529.0</ele><time>2026-04-25T07:59:38.92Z</time></trkpt><trkpt lat="41.9369663" lon="2.0725035"><ele>529.0</ele><time>2026-04-25T07:59:39.92Z</time></trkpt><trkpt lat="41.9370501" lon="2.0723516"><ele>529.0</ele><time>2026-04-25T07:59:40.921Z</time></trkpt><trkpt lat="41.937112" lon="2.0721942"><ele>529.25</ele><time>2026-04-25T07:59:41.92Z</time></trkpt><trkpt lat="41.9371436" lon="2.0720212"><ele>529.5</ele><time>2026-04-25T07:59:42.92Z</time></trkpt><trkpt lat="41.937141" lon="2.0718304"><ele>529.75</ele><time>2026-04-25T07:59:43.92Z</time></trkpt><trkpt lat="41.9371078" lon="2.0716237"><ele>530.0</ele><time>2026-04-25T07:59:44.921Z</time></trkpt><trkpt lat="41.9370764" lon="2.0714063"><ele>530.3333333333333</ele><time>2026-04-25T07:59:45.919Z</time></trkpt><trkpt lat="41.9370547" lon="2.0711787"><ele>530.6666666666666</ele><time>2026-04-25T07:59:46.92Z</time></trkpt><trkpt lat="41.9370365" lon="2.0709513"><ele>531.0</ele><time>2026-04-25T07:59:47.92Z</time></trkpt><trkpt lat="41.9370151" lon="2.0707365"><ele>528.3333333333334</ele><time>2026-04-25T07:59:48.92Z</time></trkpt><trkpt lat="41.9369746" lon="2.0705386"><ele>525.6666666666667</ele><time>2026-04-25T07:59:49.921Z</time></trkpt><trkpt lat="41.9369088" lon="2.0703508"><ele>523.0</ele><time>2026-04-25T07:59:50.92Z</time></trkpt><trkpt lat="41.93681" lon="2.0701823"><ele>524.3333333333334</ele><time>2026-04-25T07:59:51.919Z</time></trkpt><trkpt lat="41.9366796" lon="2.0700518"><ele>525.6666666666666</ele><time>2026-04-25T07:59:52.92Z</time></trkpt><trkpt lat="41.9365256" lon="2.0699441"><ele>527.0</ele><time>2026-04-25T07:59:53.921Z</time></trkpt><trkpt lat="41.9363619" lon="2.0698453"><ele>529.3333333333333</ele><time>2026-04-25T07:59:54.921Z</time></trkpt><trkpt lat="41.9362065" lon="2.0697398"><ele>531.6666666666666</ele><time>2026-04-25T07:59:55.921Z</time></trkpt><trkpt lat="41.9360653" lon="2.0696054"><ele>534.0</ele><time>2026-04-25T07:59:56.919Z</time></trkpt><trkpt lat="41.9359375" lon="2.069436"><ele>530.3333333333334</ele><time>2026-04-25T07:59:57.92Z</time></trkpt><trkpt lat="41.9358167" lon="2.0692523"><ele>526.6666666666667</ele><time>2026-04-25T07:59:58.919Z</time></trkpt><trkpt lat="41.9357043" lon="2.0690761"><ele>523.0</ele><time>2026-04-25T07:59:59.919Z</time></trkpt><trkpt lat="41.9356104" lon="2.0689049"><ele>523.0</ele><time>2026-04-25T08:00:00.92Z</time></trkpt><trkpt lat="41.9355504" lon="2.0687227"><ele>523.0</ele><time>2026-04-25T08:00:01.92Z</time></trkpt><trkpt lat="41.9355291" lon="2.0685302"><ele>523.0</ele><time>2026-04-25T08:00:02.92Z</time></trkpt><trkpt lat="41.9355455" lon="2.068321"><ele>523.0</ele><time>2026-04-25T08:00:03.919Z</time></trkpt><trkpt lat="41.9355738" lon="2.0681065"><ele>521.5</ele><time>2026-04-25T08:00:04.919Z</time></trkpt><trkpt lat="41.9355999" lon="2.0679038"><ele>520.0</ele><time>2026-04-25T08:00:05.921Z</time></trkpt><trkpt lat="41.935616" lon="2.0677085"><ele>518.5</ele><time>2026-04-25T08:00:06.921Z</time></trkpt><trkpt lat="41.9355851" lon="2.0675113"><ele>517.0</ele><time>2026-04-25T08:00:07.919Z</time></trkpt><trkpt lat="41.9355118" lon="2.0673322"><ele>514.6666666666667</ele><time>2026-04-25T08:00:08.92Z</time></trkpt><trkpt lat="41.9354194" lon="2.0671577"><ele>512.3333333333334</ele><time>2026-04-25T08:00:09.92Z</time></trkpt><trkpt lat="41.9352977" lon="2.0669974"><ele>510.0</ele><time>2026-04-25T08:00:10.92Z</time></trkpt><trkpt lat="41.9351562" lon="2.0668693"><ele>509.5</ele><time>2026-04-25T08:00:11.92Z</time></trkpt><trkpt lat="41.9350122" lon="2.066767"><ele>509.0</ele><time>2026-04-25T08:00:12.919Z</time></trkpt><trkpt lat="41.9348929" lon="2.0666682"><ele>508.5</ele><time>2026-04-25T08:00:13.92Z</time></trkpt><trkpt lat="41.9347937" lon="2.0665352"><ele>508.0</ele><time>2026-04-25T08:00:14.92Z</time></trkpt><trkpt lat="41.9347199" lon="2.0663613"><ele>508.0</ele><time>2026-04-25T08:00:15.92Z</time></trkpt><trkpt lat="41.934675" lon="2.0661542"><ele>508.0</ele><time>2026-04-25T08:00:16.92Z</time></trkpt><trkpt lat="41.9346311" lon="2.0659376"><ele>508.0</ele><time>2026-04-25T08:00:17.919Z</time></trkpt><trkpt lat="41.9345496" lon="2.0657338"><ele>503.0</ele><time>2026-04-25T08:00:18.919Z</time></trkpt><trkpt lat="41.9344385" lon="2.0655475"><ele>498.0</ele><time>2026-04-25T08:00:19.919Z</time></trkpt><trkpt lat="41.9343335" lon="2.0653475"><ele>493.0</ele><time>2026-04-25T08:00:20.92Z</time></trkpt><trkpt lat="41.9342507" lon="2.0651201"><ele>495.0</ele><time>2026-04-25T08:00:21.921Z</time></trkpt><trkpt lat="41.9341696" lon="2.0648789"><ele>497.0</ele><time>2026-04-25T08:00:22.92Z</time></trkpt><trkpt lat="41.9340793" lon="2.0646246"><ele>499.0</ele><time>2026-04-25T08:00:23.921Z</time></trkpt><trkpt lat="41.9339876" lon="2.0643605"><ele>500.33333333333337</ele><time>2026-04-25T08:00:24.921Z</time></trkpt><trkpt lat="41.9338955" lon="2.0641059"><ele>501.66666666666663</ele><time>2026-04-25T08:00:25.921Z</time></trkpt><trkpt lat="41.9338049" lon="2.0638683"><ele>503.0</ele><time>2026-04-25T08:00:26.921Z</time></trkpt><trkpt lat="41.9337144" lon="2.0636342"><ele>503.0</ele><time>2026-04-25T08:00:27.921Z</time></trkpt><trkpt lat="41.9336263" lon="2.0633958"><ele>503.0</ele><time>2026-04-25T08:00:28.921Z</time></trkpt><trkpt lat="41.9335587" lon="2.0631619"><ele>503.0</ele><time>2026-04-25T08:00:29.921Z</time></trkpt><trkpt lat="41.9335118" lon="2.0629486"><ele>501.66666666666663</ele><time>2026-04-25T08:00:30.919Z</time></trkpt><trkpt lat="41.9334932" lon="2.0627517"><ele>500.33333333333337</ele><time>2026-04-25T08:00:31.92Z</time></trkpt><trkpt lat="41.9335106" lon="2.0625594"><ele>499.0</ele><time>2026-04-25T08:00:32.921Z</time></trkpt><trkpt lat="41.9335612" lon="2.0623555"><ele>495.33333333333337</ele><time>2026-04-25T08:00:33.921Z</time></trkpt><trkpt lat="41.933637" lon="2.062146"><ele>491.66666666666663</ele><time>2026-04-25T08:00:34.92Z</time></trkpt><trkpt lat="41.9337286" lon="2.061931"><ele>488.0</ele><time>2026-04-25T08:00:35.92Z</time></trkpt><trkpt lat="41.9338377" lon="2.0617147"><ele>484.3333333333333</ele><time>2026-04-25T08:00:36.92Z</time></trkpt><trkpt lat="41.9339603" lon="2.0614959"><ele>480.66666666666663</ele><time>2026-04-25T08:00:37.919Z</time></trkpt><trkpt lat="41.9340901" lon="2.0612831"><ele>477.0</ele><time>2026-04-25T08:00:38.92Z</time></trkpt><trkpt lat="41.9342149" lon="2.0610776"><ele>478.0</ele><time>2026-04-25T08:00:39.92Z</time></trkpt><trkpt lat="41.9343297" lon="2.0608902"><ele>479.0</ele><time>2026-04-25T08:00:40.919Z</time></trkpt><trkpt lat="41.9344304" lon="2.0607187"><ele>480.0</ele><time>2026-04-25T08:00:41.921Z</time></trkpt><trkpt lat="41.9345245" lon="2.0605626"><ele>478.25</ele><time>2026-04-25T08:00:42.921Z</time></trkpt><trkpt lat="41.9346059" lon="2.0603999"><ele>476.5</ele><time>2026-04-25T08:00:43.92Z</time></trkpt><trkpt lat="41.934659" lon="2.0602175"><ele>474.75</ele><time>2026-04-25T08:00:44.92Z</time></trkpt><trkpt lat="41.9346774" lon="2.0600343"><ele>473.0</ele><time>2026-04-25T08:00:45.92Z</time></trkpt><trkpt lat="41.9346571" lon="2.0598583"><ele>470.25</ele><time>2026-04-25T08:00:46.92Z</time></trkpt><trkpt lat="41.9345908" lon="2.0597165"><ele>467.5</ele><time>2026-04-25T08:00:47.921Z</time></trkpt><trkpt lat="41.9344917" lon="2.0596149"><ele>464.75</ele><time>2026-04-25T08:00:48.919Z</time></trkpt><trkpt lat="41.9343711" lon="2.0595261"><ele>462.0</ele><time>2026-04-25T08:00:49.92Z</time></trkpt><trkpt lat="41.9342286" lon="2.0594437"><ele>462.66666666666663</ele><time>2026-04-25T08:00:50.921Z</time></trkpt><trkpt lat="41.9340728" lon="2.0593658"><ele>463.3333333333333</ele><time>2026-04-25T08:00:51.92Z</time></trkpt><trkpt lat="41.9339124" lon="2.0592834"><ele>464.0</ele><time>2026-04-25T08:00:52.92Z</time></trkpt><trkpt lat="41.9337541" lon="2.0591983"><ele>461.66666666666663</ele><time>2026-04-25T08:00:53.92Z</time></trkpt><trkpt lat="41.9335991" lon="2.0591124"><ele>459.33333333333337</ele><time>2026-04-25T08:00:54.92Z</time></trkpt><trkpt lat="41.933452" lon="2.0590282"><ele>457.0</ele><time>2026-04-25T08:00:55.921Z</time></trkpt><trkpt lat="41.9333146" lon="2.0589459"><ele>457.0</ele><time>2026-04-25T08:00:56.919Z</time></trkpt><trkpt lat="41.9331907" lon="2.0588597"><ele>457.0</ele><time>2026-04-25T08:00:57.92Z</time></trkpt><trkpt lat="41.9330821" lon="2.0587714"><ele>457.0</ele><time>2026-04-25T08:00:58.92Z</time></trkpt><trkpt lat="41.9329951" lon="2.058688"><ele>457.0</ele><time>2026-04-25T08:00:59.92Z</time></trkpt><trkpt lat="41.9329222" lon="2.0586133"><ele>457.00000000000006</ele><time>2026-04-25T08:01:00.921Z</time></trkpt><trkpt lat="41.9328729" lon="2.0585267"><ele>457.0</ele><time>2026-04-25T08:01:01.921Z</time></trkpt><trkpt lat="41.9328494" lon="2.0584355"><ele>457.0</ele><time>2026-04-25T08:01:02.92Z</time></trkpt><trkpt lat="41.9328577" lon="2.0583393"><ele>457.0</ele><time>2026-04-25T08:01:03.92Z</time></trkpt><trkpt lat="41.9328971" lon="2.0582585"><ele>457.00000000000006</ele><time>2026-04-25T08:01:04.921Z</time></trkpt><trkpt lat="41.932964" lon="2.0581984"><ele>457.0</ele><time>2026-04-25T08:01:05.921Z</time></trkpt><trkpt lat="41.9330493" lon="2.0581304"><ele>456.25</ele><time>2026-04-25T08:01:06.919Z</time></trkpt><trkpt lat="41.9331259" lon="2.0580151"><ele>455.5</ele><time>2026-04-25T08:01:07.919Z</time></trkpt><trkpt lat="41.9331761" lon="2.0578791"><ele>454.75</ele><time>2026-04-25T08:01:08.92Z</time></trkpt><trkpt lat="41.9332126" lon="2.0577076"><ele>454.0</ele><time>2026-04-25T08:01:09.92Z</time></trkpt><trkpt lat="41.9332489" lon="2.0575161"><ele>455.75</ele><time>2026-04-25T08:01:10.919Z</time></trkpt><trkpt lat="41.9332857" lon="2.0573184"><ele>457.5</ele><time>2026-04-25T08:01:11.919Z</time></trkpt><trkpt lat="41.9333207" lon="2.057134"><ele>459.25</ele><time>2026-04-25T08:01:12.92Z</time></trkpt><trkpt lat="41.9333435" lon="2.0569665"><ele>461.0</ele><time>2026-04-25T08:01:13.919Z</time></trkpt><trkpt lat="41.9333417" lon="2.0568041"><ele>461.0</ele><time>2026-04-25T08:01:14.92Z</time></trkpt><trkpt lat="41.9333029" lon="2.0566411"><ele>461.0</ele><time>2026-04-25T08:01:15.92Z</time></trkpt><trkpt lat="41.9332282" lon="2.056492"><ele>461.0</ele><time>2026-04-25T08:01:16.92Z</time></trkpt><trkpt lat="41.9331166" lon="2.0563638"><ele>461.0</ele><time>2026-04-25T08:01:17.919Z</time></trkpt><trkpt lat="41.932978" lon="2.056241"><ele>461.66666666666663</ele><time>2026-04-25T08:01:18.921Z</time></trkpt><trkpt lat="41.932822" lon="2.0561078"><ele>462.33333333333337</ele><time>2026-04-25T08:01:19.92Z</time></trkpt><trkpt lat="41.9326595" lon="2.0559693"><ele>463.0</ele><time>2026-04-25T08:01:20.919Z</time></trkpt><trkpt lat="41.9324893" lon="2.0558261"><ele>469.0</ele><time>2026-04-25T08:01:21.92Z</time></trkpt><trkpt lat="41.9323098" lon="2.0556782"><ele>475.0</ele><time>2026-04-25T08:01:22.921Z</time></trkpt><trkpt lat="41.9321243" lon="2.055536"><ele>481.0</ele><time>2026-04-25T08:01:23.92Z</time></trkpt><trkpt lat="41.9319304" lon="2.0554133"><ele>481.0</ele><time>2026-04-25T08:01:24.92Z</time></trkpt><trkpt lat="41.9317285" lon="2.0553199"><ele>481.0</ele><time>2026-04-25T08:01:25.92Z</time></trkpt><trkpt lat="41.9315212" lon="2.0552429"><ele>481.0</ele><time>2026-04-25T08:01:26.919Z</time></trkpt><trkpt lat="41.9313153" lon="2.0551696"><ele>478.33333333333337</ele><time>2026-04-25T08:01:27.92Z</time></trkpt><trkpt lat="41.9311192" lon="2.0551028"><ele>475.66666666666663</ele><time>2026-04-25T08:01:28.921Z</time></trkpt><trkpt lat="41.9309446" lon="2.0550305"><ele>473.0</ele><time>2026-04-25T08:01:29.92Z</time></trkpt><trkpt lat="41.9307972" lon="2.0549395"><ele>478.3333333333333</ele><time>2026-04-25T08:01:30.92Z</time></trkpt><trkpt lat="41.9306776" lon="2.0548172"><ele>483.66666666666663</ele><time>2026-04-25T08:01:31.92Z</time></trkpt><trkpt lat="41.9305787" lon="2.0546574"><ele>489.0</ele><time>2026-04-25T08:01:32.92Z</time></trkpt><trkpt lat="41.9304792" lon="2.0544848"><ele>489.0</ele><time>2026-04-25T08:01:33.92Z</time></trkpt><trkpt lat="41.9303472" lon="2.0543423"><ele>489.0</ele><time>2026-04-25T08:01:34.919Z</time></trkpt><trkpt lat="41.9302029" lon="2.0541997"><ele>489.0</ele><time>2026-04-25T08:01:35.92Z</time></trkpt><trkpt lat="41.9300677" lon="2.0540436"><ele>488.33333333333337</ele><time>2026-04-25T08:01:36.92Z</time></trkpt><trkpt lat="41.9299542" lon="2.053873"><ele>487.6666666666667</ele><time>2026-04-25T08:01:37.92Z</time></trkpt><trkpt lat="41.9298585" lon="2.0536737"><ele>487.0</ele><time>2026-04-25T08:01:38.919Z</time></trkpt><trkpt lat="41.929781" lon="2.0534562"><ele>488.0</ele><time>2026-04-25T08:01:39.92Z</time></trkpt><trkpt lat="41.9297235" lon="2.0532365"><ele>489.0</ele><time>2026-04-25T08:01:40.919Z</time></trkpt><trkpt lat="41.9296921" lon="2.0530076"><ele>490.0</ele><time>2026-04-25T08:01:41.921Z</time></trkpt><trkpt lat="41.9296827" lon="2.0527576"><ele>490.0</ele><time>2026-04-25T08:01:42.921Z</time></trkpt><trkpt lat="41.9296843" lon="2.052514"><ele>490.0</ele><time>2026-04-25T08:01:43.919Z</time></trkpt><trkpt lat="41.9297027" lon="2.0522773"><ele>490.0</ele><time>2026-04-25T08:01:44.92Z</time></trkpt><trkpt lat="41.9297489" lon="2.0520366"><ele>488.0</ele><time>2026-04-25T08:01:45.92Z</time></trkpt><trkpt lat="41.9298185" lon="2.0517891"><ele>486.0</ele><time>2026-04-25T08:01:46.919Z</time></trkpt><trkpt lat="41.9298965" lon="2.0515436"><ele>484.0</ele><time>2026-04-25T08:01:47.92Z</time></trkpt><trkpt lat="41.9299745" lon="2.0513056"><ele>482.6666666666667</ele><time>2026-04-25T08:01:48.92Z</time></trkpt><trkpt lat="41.9300516" lon="2.0510875"><ele>481.33333333333337</ele><time>2026-04-25T08:01:49.92Z</time></trkpt><trkpt lat="41.9301188" lon="2.0508929"><ele>480.0</ele><time>2026-04-25T08:01:50.92Z</time></trkpt><trkpt lat="41.9301757" lon="2.050699"><ele>482.5</ele><time>2026-04-25T08:01:51.92Z</time></trkpt><trkpt lat="41.9302033" lon="2.0504958"><ele>485.0</ele><time>2026-04-25T08:01:52.919Z</time></trkpt><trkpt lat="41.930183" lon="2.0502961"><ele>487.5</ele><time>2026-04-25T08:01:53.92Z</time></trkpt><trkpt lat="41.9301371" lon="2.0501183"><ele>490.0</ele><time>2026-04-25T08:01:54.92Z</time></trkpt><trkpt lat="41.9301047" lon="2.0499557"><ele>490.0</ele><time>2026-04-25T08:01:55.92Z</time></trkpt><trkpt lat="41.9301174" lon="2.0497864"><ele>490.0</ele><time>2026-04-25T08:01:56.921Z</time></trkpt><trkpt lat="41.9301666" lon="2.0496144"><ele>490.0</ele><time>2026-04-25T08:01:57.92Z</time></trkpt><trkpt lat="41.9302563" lon="2.0494635"><ele>490.0</ele><time>2026-04-25T08:01:58.92Z</time></trkpt><trkpt lat="41.9303768" lon="2.0493397"><ele>490.0</ele><time>2026-04-25T08:01:59.92Z</time></trkpt><trkpt lat="41.9305203" lon="2.0492287"><ele>490.0</ele><time>2026-04-25T08:02:00.92Z</time></trkpt><trkpt lat="41.9306832" lon="2.0491249"><ele>490.0</ele><time>2026-04-25T08:02:01.92Z</time></trkpt><trkpt lat="41.9308493" lon="2.0490227"><ele>489.33333333333337</ele><time>2026-04-25T08:02:02.919Z</time></trkpt><trkpt lat="41.9310209" lon="2.0489198"><ele>488.66666666666663</ele><time>2026-04-25T08:02:03.92Z</time></trkpt><trkpt lat="41.931194" lon="2.0488172"><ele>488.0</ele><time>2026-04-25T08:02:04.921Z</time></trkpt><trkpt lat="41.9313552" lon="2.0487179"><ele>488.0</ele><time>2026-04-25T08:02:05.921Z</time></trkpt><trkpt lat="41.9315001" lon="2.0486303"><ele>488.0</ele><time>2026-04-25T08:02:06.92Z</time></trkpt><trkpt lat="41.9316422" lon="2.0485789"><ele>488.0</ele><time>2026-04-25T08:02:07.92Z</time></trkpt><trkpt lat="41.9317959" lon="2.0485699"><ele>485.66666666666663</ele><time>2026-04-25T08:02:08.919Z</time></trkpt><trkpt lat="41.9319531" lon="2.0485995"><ele>483.33333333333337</ele><time>2026-04-25T08:02:09.92Z</time></trkpt><trkpt lat="41.9321115" lon="2.048678"><ele>481.0</ele><time>2026-04-25T08:02:10.92Z</time></trkpt><trkpt lat="41.9322694" lon="2.0487842"><ele>481.0</ele><time>2026-04-25T08:02:11.921Z</time></trkpt><trkpt lat="41.93242" lon="2.0489163"><ele>481.0</ele><time>2026-04-25T08:02:12.92Z</time></trkpt><trkpt lat="41.9325482" lon="2.0490781"><ele>481.0</ele><time>2026-04-25T08:02:13.92Z</time></trkpt><trkpt lat="41.9326586" lon="2.049262"><ele>482.33333333333337</ele><time>2026-04-25T08:02:14.92Z</time></trkpt><trkpt lat="41.932763" lon="2.0494439"><ele>483.66666666666663</ele><time>2026-04-25T08:02:15.92Z</time></trkpt><trkpt lat="41.9328765" lon="2.0496148"><ele>485.0</ele><time>2026-04-25T08:02:16.921Z</time></trkpt><trkpt lat="41.9330178" lon="2.0497493"><ele>485.0</ele><time>2026-04-25T08:02:17.92Z</time></trkpt><trkpt lat="41.9331668" lon="2.0498597"><ele>485.0</ele><time>2026-04-25T08:02:18.921Z</time></trkpt><trkpt lat="41.9333015" lon="2.0499692"><ele>485.0</ele><time>2026-04-25T08:02:19.92Z</time></trkpt><trkpt lat="41.9334222" lon="2.0501184"><ele>486.66666666666663</ele><time>2026-04-25T08:02:20.92Z</time></trkpt><trkpt lat="41.9335255" lon="2.0502974"><ele>488.33333333333337</ele><time>2026-04-25T08:02:21.919Z</time></trkpt><trkpt lat="41.9336178" lon="2.0504714"><ele>490.0</ele><time>2026-04-25T08:02:22.92Z</time></trkpt><trkpt lat="41.9337137" lon="2.0506154"><ele>490.0</ele><time>2026-04-25T08:02:23.919Z</time></trkpt><trkpt lat="41.9338224" lon="2.0507219"><ele>490.0</ele><time>2026-04-25T08:02:24.921Z</time></trkpt><trkpt lat="41.9339459" lon="2.0507809"><ele>490.0</ele><time>2026-04-25T08:02:25.921Z</time></trkpt><trkpt lat="41.9340735" lon="2.0507795"><ele>490.0</ele><time>2026-04-25T08:02:26.921Z</time></trkpt><trkpt lat="41.9341988" lon="2.0507213"><ele>491.33333333333337</ele><time>2026-04-25T08:02:27.92Z</time></trkpt><trkpt lat="41.9343175" lon="2.0506092"><ele>492.66666666666663</ele><time>2026-04-25T08:02:28.921Z</time></trkpt><trkpt lat="41.934447" lon="2.0504731"><ele>494.0</ele><time>2026-04-25T08:02:29.921Z</time></trkpt><trkpt lat="41.9345906" lon="2.0503313"><ele>494.0</ele><time>2026-04-25T08:02:30.92Z</time></trkpt><trkpt lat="41.9347372" lon="2.0501812"><ele>494.0</ele><time>2026-04-25T08:02:31.92Z</time></trkpt><trkpt lat="41.9348796" lon="2.0500383"><ele>494.0</ele><time>2026-04-25T08:02:32.92Z</time></trkpt><trkpt lat="41.9350232" lon="2.0499267"><ele>490.0</ele><time>2026-04-25T08:02:33.921Z</time></trkpt><trkpt lat="41.9351799" lon="2.049855"><ele>486.0</ele><time>2026-04-25T08:02:34.921Z</time></trkpt><trkpt lat="41.935356" lon="2.049818"><ele>482.0</ele><time>2026-04-25T08:02:35.92Z</time></trkpt><trkpt lat="41.9355415" lon="2.049795"><ele>482.0</ele><time>2026-04-25T08:02:36.919Z</time></trkpt><trkpt lat="41.9357278" lon="2.0497606"><ele>482.0</ele><time>2026-04-25T08:02:37.92Z</time></trkpt><trkpt lat="41.9359075" lon="2.0496988"><ele>482.0</ele><time>2026-04-25T08:02:38.921Z</time></trkpt><trkpt lat="41.9360834" lon="2.0496215"><ele>481.66666666666663</ele><time>2026-04-25T08:02:39.919Z</time></trkpt><trkpt lat="41.9362526" lon="2.049563"><ele>481.33333333333337</ele><time>2026-04-25T08:02:40.92Z</time></trkpt><trkpt lat="41.9364336" lon="2.0495339"><ele>481.0</ele><time>2026-04-25T08:02:41.919Z</time></trkpt><trkpt lat="41.936621" lon="2.0495279"><ele>482.33333333333337</ele><time>2026-04-25T08:02:42.921Z</time></trkpt><trkpt lat="41.9368082" lon="2.0495288"><ele>483.66666666666663</ele><time>2026-04-25T08:02:43.921Z</time></trkpt><trkpt lat="41.9369805" lon="2.0495291"><ele>485.0</ele><time>2026-04-25T08:02:44.92Z</time></trkpt><trkpt lat="41.9371259" lon="2.0495283"><ele>485.0</ele><time>2026-04-25T08:02:45.92Z</time></trkpt><trkpt lat="41.9372489" lon="2.0495225"><ele>485.0</ele><time>2026-04-25T08:02:46.921Z</time></trkpt><trkpt lat="41.937374" lon="2.0494817"><ele>485.0</ele><time>2026-04-25T08:02:47.921Z</time></trkpt><trkpt lat="41.9374846" lon="2.0493858"><ele>485.0</ele><time>2026-04-25T08:02:48.921Z</time></trkpt><trkpt lat="41.9375622" lon="2.0492359"><ele>487.66666666666663</ele><time>2026-04-25T08:02:49.921Z</time></trkpt><trkpt lat="41.9376125" lon="2.049044"><ele>490.33333333333337</ele><time>2026-04-25T08:02:50.919Z</time></trkpt><trkpt lat="41.9376483" lon="2.0488213"><ele>493.0</ele><time>2026-04-25T08:02:51.92Z</time></trkpt><trkpt lat="41.9376778" lon="2.0485788"><ele>493.0</ele><time>2026-04-25T08:02:52.92Z</time></trkpt><trkpt lat="41.9377116" lon="2.0483238"><ele>493.0</ele><time>2026-04-25T08:02:53.921Z</time></trkpt><trkpt lat="41.937754" lon="2.0480497"><ele>493.0</ele><time>2026-04-25T08:02:54.92Z</time></trkpt><trkpt lat="41.9378003" lon="2.047763"><ele>492.33333333333337</ele><time>2026-04-25T08:02:55.921Z</time></trkpt><trkpt lat="41.9378456" lon="2.0474718"><ele>491.66666666666663</ele><time>2026-04-25T08:02:56.92Z</time></trkpt><trkpt lat="41.9378894" lon="2.0471823"><ele>491.0</ele><time>2026-04-25T08:02:57.92Z</time></trkpt><trkpt lat="41.9379262" lon="2.0468999"><ele>490.3333333333333</ele><time>2026-04-25T08:02:58.92Z</time></trkpt><trkpt lat="41.9379651" lon="2.0466336"><ele>489.66666666666663</ele><time>2026-04-25T08:02:59.92Z</time></trkpt><trkpt lat="41.9380082" lon="2.0463914"><ele>489.0</ele><time>2026-04-25T08:03:00.92Z</time></trkpt><trkpt lat="41.9380714" lon="2.0461709"><ele>485.66666666666663</ele><time>2026-04-25T08:03:01.919Z</time></trkpt><trkpt lat="41.9381656" lon="2.0459669"><ele>482.3333333333333</ele><time>2026-04-25T08:03:02.92Z</time></trkpt><trkpt lat="41.9382879" lon="2.0457822"><ele>479.0</ele><time>2026-04-25T08:03:03.92Z</time></trkpt><trkpt lat="41.938398" lon="2.0455829"><ele>478.0</ele><time>2026-04-25T08:03:04.92Z</time></trkpt><trkpt lat="41.9384742" lon="2.0453656"><ele>477.0</ele><time>2026-04-25T08:03:05.92Z</time></trkpt><trkpt lat="41.9385419" lon="2.045145"><ele>476.0</ele><time>2026-04-25T08:03:06.919Z</time></trkpt><trkpt lat="41.9386087" lon="2.0449469"><ele>478.5</ele><time>2026-04-25T08:03:07.919Z</time></trkpt><trkpt lat="41.9386858" lon="2.044779"><ele>481.0</ele><time>2026-04-25T08:03:08.919Z</time></trkpt><trkpt lat="41.9387962" lon="2.0446424"><ele>483.5</ele><time>2026-04-25T08:03:09.92Z</time></trkpt><trkpt lat="41.9389265" lon="2.0445578"><ele>486.0</ele><time>2026-04-25T08:03:10.918Z</time></trkpt><trkpt lat="41.9390592" lon="2.0445359"><ele>486.0</ele><time>2026-04-25T08:03:11.919Z</time></trkpt><trkpt lat="41.9391983" lon="2.0445437"><ele>486.0</ele><time>2026-04-25T08:03:12.919Z</time></trkpt><trkpt lat="41.9393452" lon="2.0445373"><ele>486.0</ele><time>2026-04-25T08:03:13.918Z</time></trkpt><trkpt lat="41.9394834" lon="2.0445079"><ele>486.0</ele><time>2026-04-25T08:03:14.918Z</time></trkpt><trkpt lat="41.9396139" lon="2.044451"><ele>485.75</ele><time>2026-04-25T08:03:15.92Z</time></trkpt><trkpt lat="41.9397339" lon="2.0443564"><ele>485.5</ele><time>2026-04-25T08:03:16.919Z</time></trkpt><trkpt lat="41.9398242" lon="2.0442189"><ele>485.25</ele><time>2026-04-25T08:03:17.919Z</time></trkpt><trkpt lat="41.939888" lon="2.0440418"><ele>485.0</ele><time>2026-04-25T08:03:18.92Z</time></trkpt><trkpt lat="41.9399214" lon="2.0438359"><ele>486.0</ele><time>2026-04-25T08:03:19.919Z</time></trkpt><trkpt lat="41.9399282" lon="2.0436187"><ele>487.0</ele><time>2026-04-25T08:03:20.919Z</time></trkpt><trkpt lat="41.939905" lon="2.0434049"><ele>488.0</ele><time>2026-04-25T08:03:21.919Z</time></trkpt><trkpt lat="41.9398917" lon="2.0432044"><ele>486.66666666666663</ele><time>2026-04-25T08:03:22.92Z</time></trkpt><trkpt lat="41.9399279" lon="2.0429991"><ele>485.33333333333337</ele><time>2026-04-25T08:03:23.919Z</time></trkpt><trkpt lat="41.9399842" lon="2.0427816"><ele>484.0</ele><time>2026-04-25T08:03:24.918Z</time></trkpt><trkpt lat="41.94005" lon="2.0425536"><ele>487.6666666666667</ele><time>2026-04-25T08:03:25.919Z</time></trkpt><trkpt lat="41.9401228" lon="2.0423229"><ele>491.33333333333337</ele><time>2026-04-25T08:03:26.919Z</time></trkpt><trkpt lat="41.9402026" lon="2.0420971"><ele>495.0</ele><time>2026-04-25T08:03:27.919Z</time></trkpt><trkpt lat="41.940286" lon="2.0418835"><ele>495.0</ele><time>2026-04-25T08:03:28.919Z</time></trkpt><trkpt lat="41.940364" lon="2.0416826"><ele>495.0</ele><time>2026-04-25T08:03:29.92Z</time></trkpt><trkpt lat="41.9404251" lon="2.0414988"><ele>495.0</ele><time>2026-04-25T08:03:30.919Z</time></trkpt><trkpt lat="41.9404622" lon="2.0413065"><ele>497.66666666666663</ele><time>2026-04-25T08:03:31.919Z</time></trkpt><trkpt lat="41.9404627" lon="2.0411027"><ele>500.3333333333333</ele><time>2026-04-25T08:03:32.919Z</time></trkpt><trkpt lat="41.9404377" lon="2.0408945"><ele>503.0</ele><time>2026-04-25T08:03:33.919Z</time></trkpt><trkpt lat="41.9404219" lon="2.0406909"><ele>505.5</ele><time>2026-04-25T08:03:34.919Z</time></trkpt><trkpt lat="41.9404384" lon="2.0405013"><ele>508.0</ele><time>2026-04-25T08:03:35.919Z</time></trkpt><trkpt lat="41.940488" lon="2.0403247"><ele>510.5</ele><time>2026-04-25T08:03:36.918Z</time></trkpt><trkpt lat="41.9405701" lon="2.0401742"><ele>513.0</ele><time>2026-04-25T08:03:37.919Z</time></trkpt><trkpt lat="41.940686" lon="2.0400569"><ele>514.5</ele><time>2026-04-25T08:03:38.918Z</time></trkpt><trkpt lat="41.9408095" lon="2.0399467"><ele>516.0</ele><time>2026-04-25T08:03:39.919Z</time></trkpt><trkpt lat="41.9409079" lon="2.0398206"><ele>517.5</ele><time>2026-04-25T08:03:40.919Z</time></trkpt><trkpt lat="41.9409802" lon="2.0396662"><ele>519.0</ele><time>2026-04-25T08:03:41.919Z</time></trkpt><trkpt lat="41.9410173" lon="2.0394907"><ele>519.0</ele><time>2026-04-25T08:03:42.919Z</time></trkpt><trkpt lat="41.9410237" lon="2.0393137"><ele>519.0</ele><time>2026-04-25T08:03:43.919Z</time></trkpt><trkpt lat="41.9410309" lon="2.0391349"><ele>519.0</ele><time>2026-04-25T08:03:44.92Z</time></trkpt><trkpt lat="41.9410557" lon="2.0389747"><ele>519.0</ele><time>2026-04-25T08:03:45.92Z</time></trkpt><trkpt lat="41.9410986" lon="2.0388369"><ele>522.5</ele><time>2026-04-25T08:03:46.919Z</time></trkpt><trkpt lat="41.9411709" lon="2.0387098"><ele>526.0</ele><time>2026-04-25T08:03:47.92Z</time></trkpt><trkpt lat="41.9412688" lon="2.0386222"><ele>529.5</ele><time>2026-04-25T08:03:48.92Z</time></trkpt><trkpt lat="41.9413915" lon="2.0385691"><ele>533.0</ele><time>2026-04-25T08:03:49.92Z</time></trkpt><trkpt lat="41.9415203" lon="2.0385318"><ele>533.0</ele><time>2026-04-25T08:03:50.92Z</time></trkpt><trkpt lat="41.9416576" lon="2.0384844"><ele>533.0</ele><time>2026-04-25T08:03:51.919Z</time></trkpt><trkpt lat="41.9417908" lon="2.0384368"><ele>533.0</ele><time>2026-04-25T08:03:52.92Z</time></trkpt><trkpt lat="41.9419215" lon="2.0383599"><ele>533.0</ele><time>2026-04-25T08:03:53.919Z</time></trkpt><trkpt lat="41.9420375" lon="2.0382419"><ele>535.3333333333333</ele><time>2026-04-25T08:03:54.919Z</time></trkpt><trkpt lat="41.9421417" lon="2.0380894"><ele>537.6666666666666</ele><time>2026-04-25T08:03:55.919Z</time></trkpt><trkpt lat="41.9422345" lon="2.0379049"><ele>540.0</ele><time>2026-04-25T08:03:56.919Z</time></trkpt><trkpt lat="41.9423233" lon="2.037723"><ele>540.0</ele><time>2026-04-25T08:03:57.919Z</time></trkpt><trkpt lat="41.9424164" lon="2.0375651"><ele>540.0</ele><time>2026-04-25T08:03:58.919Z</time></trkpt><trkpt lat="41.9425306" lon="2.0374334"><ele>540.0</ele><time>2026-04-25T08:03:59.919Z</time></trkpt><trkpt lat="41.9426685" lon="2.0373267"><ele>542.6666666666666</ele><time>2026-04-25T08:04:00.92Z</time></trkpt><trkpt lat="41.9428114" lon="2.037234"><ele>545.3333333333333</ele><time>2026-04-25T08:04:01.919Z</time></trkpt><trkpt lat="41.9429467" lon="2.0371435"><ele>548.0</ele><time>2026-04-25T08:04:02.919Z</time></trkpt><trkpt lat="41.9430697" lon="2.0370287"><ele>548.0</ele><time>2026-04-25T08:04:03.919Z</time></trkpt><trkpt lat="41.9431833" lon="2.0368824"><ele>548.0</ele><time>2026-04-25T08:04:04.919Z</time></trkpt><trkpt lat="41.9432969" lon="2.0367026"><ele>548.0</ele><time>2026-04-25T08:04:05.92Z</time></trkpt><trkpt lat="41.9434051" lon="2.0365192"><ele>546.5</ele><time>2026-04-25T08:04:06.92Z</time></trkpt><trkpt lat="41.9435039" lon="2.0363442"><ele>545.0</ele><time>2026-04-25T08:04:07.918Z</time></trkpt><trkpt lat="41.9435837" lon="2.0361842"><ele>543.5</ele><time>2026-04-25T08:04:08.919Z</time></trkpt><trkpt lat="41.9436419" lon="2.0360238"><ele>542.0</ele><time>2026-04-25T08:04:09.919Z</time></trkpt><trkpt lat="41.9436608" lon="2.0358629"><ele>542.25</ele><time>2026-04-25T08:04:10.92Z</time></trkpt><trkpt lat="41.943635" lon="2.0357092"><ele>542.5</ele><time>2026-04-25T08:04:11.919Z</time></trkpt><trkpt lat="41.9435628" lon="2.0355747"><ele>542.75</ele><time>2026-04-25T08:04:12.918Z</time></trkpt><trkpt lat="41.9434498" lon="2.0354635"><ele>543.0</ele><time>2026-04-25T08:04:13.919Z</time></trkpt><trkpt lat="41.9433089" lon="2.0353804"><ele>545.0</ele><time>2026-04-25T08:04:14.919Z</time></trkpt><trkpt lat="41.9431545" lon="2.0353105"><ele>547.0</ele><time>2026-04-25T08:04:15.918Z</time></trkpt><trkpt lat="41.9429928" lon="2.0352463"><ele>549.0</ele><time>2026-04-25T08:04:16.918Z</time></trkpt><trkpt lat="41.9428376" lon="2.0351794"><ele>549.0</ele><time>2026-04-25T08:04:17.919Z</time></trkpt><trkpt lat="41.9426983" lon="2.0351127"><ele>549.0</ele><time>2026-04-25T08:04:18.919Z</time></trkpt><trkpt lat="41.9425644" lon="2.035027"><ele>549.0</ele><time>2026-04-25T08:04:19.919Z</time></trkpt><trkpt lat="41.9424502" lon="2.0349097"><ele>549.0</ele><time>2026-04-25T08:04:20.918Z</time></trkpt><trkpt lat="41.9423653" lon="2.0347612"><ele>554.5</ele><time>2026-04-25T08:04:21.919Z</time></trkpt><trkpt lat="41.9423197" lon="2.0345925"><ele>560.0</ele><time>2026-04-25T08:04:22.919Z</time></trkpt><trkpt lat="41.9423161" lon="2.0344183"><ele>565.5</ele><time>2026-04-25T08:04:23.919Z</time></trkpt><trkpt lat="41.9423578" lon="2.0342537"><ele>571.0</ele><time>2026-04-25T08:04:24.918Z</time></trkpt><trkpt lat="41.9424419" lon="2.0341078"><ele>568.5</ele><time>2026-04-25T08:04:25.918Z</time></trkpt><trkpt lat="41.9425556" lon="2.0339927"><ele>566.0</ele><time>2026-04-25T08:04:26.919Z</time></trkpt><trkpt lat="41.94268" lon="2.0338889"><ele>563.5</ele><time>2026-04-25T08:04:27.92Z</time></trkpt><trkpt lat="41.9427784" lon="2.0337644"><ele>561.0</ele><time>2026-04-25T08:04:28.92Z</time></trkpt><trkpt lat="41.9428474" lon="2.0336071"><ele>561.0</ele><time>2026-04-25T08:04:29.919Z</time></trkpt><trkpt lat="41.9428799" lon="2.0334187"><ele>561.0</ele><time>2026-04-25T08:04:30.918Z</time></trkpt><trkpt lat="41.9428832" lon="2.0332118"><ele>561.0</ele><time>2026-04-25T08:04:31.919Z</time></trkpt><trkpt lat="41.9428665" lon="2.033006"><ele>564.0</ele><time>2026-04-25T08:04:32.919Z</time></trkpt><trkpt lat="41.9428741" lon="2.0328047"><ele>567.0</ele><time>2026-04-25T08:04:33.918Z</time></trkpt><trkpt lat="41.9429167" lon="2.0326008"><ele>570.0</ele><time>2026-04-25T08:04:34.919Z</time></trkpt><trkpt lat="41.9429896" lon="2.0324108"><ele>574.0</ele><time>2026-04-25T08:04:35.919Z</time></trkpt><trkpt lat="41.9430958" lon="2.0322462"><ele>578.0</ele><time>2026-04-25T08:04:36.918Z</time></trkpt><trkpt lat="41.9432193" lon="2.0321027"><ele>582.0</ele><time>2026-04-25T08:04:37.92Z</time></trkpt><trkpt lat="41.9433402" lon="2.0319747"><ele>581.25</ele><time>2026-04-25T08:04:38.92Z</time></trkpt><trkpt lat="41.943447" lon="2.0318448"><ele>580.5</ele><time>2026-04-25T08:04:39.92Z</time></trkpt><trkpt lat="41.9435228" lon="2.0316952"><ele>579.75</ele><time>2026-04-25T08:04:40.919Z</time></trkpt><trkpt lat="41.9435629" lon="2.0315145"><ele>579.0</ele><time>2026-04-25T08:04:41.92Z</time></trkpt><trkpt lat="41.9435756" lon="2.0313088"><ele>579.0</ele><time>2026-04-25T08:04:42.92Z</time></trkpt><trkpt lat="41.9435667" lon="2.031078"><ele>579.0</ele><time>2026-04-25T08:04:43.92Z</time></trkpt><trkpt lat="41.9435628" lon="2.0308328"><ele>579.0</ele><time>2026-04-25T08:04:44.92Z</time></trkpt><trkpt lat="41.9435571" lon="2.0305841"><ele>581.3333333333334</ele><time>2026-04-25T08:04:45.919Z</time></trkpt><trkpt lat="41.9435504" lon="2.0303198"><ele>583.6666666666667</ele><time>2026-04-25T08:04:46.919Z</time></trkpt><trkpt lat="41.9435473" lon="2.0300566"><ele>586.0</ele><time>2026-04-25T08:04:47.919Z</time></trkpt><trkpt lat="41.9435482" lon="2.029792"><ele>587.3333333333334</ele><time>2026-04-25T08:04:48.92Z</time></trkpt><trkpt lat="41.9435598" lon="2.0295288"><ele>588.6666666666666</ele><time>2026-04-25T08:04:49.918Z</time></trkpt><trkpt lat="41.9435963" lon="2.0292539"><ele>590.0</ele><time>2026-04-25T08:04:50.919Z</time></trkpt><trkpt lat="41.9436479" lon="2.0289685"><ele>590.0</ele><time>2026-04-25T08:04:51.919Z</time></trkpt><trkpt lat="41.9437007" lon="2.0286729"><ele>590.0</ele><time>2026-04-25T08:04:52.919Z</time></trkpt><trkpt lat="41.943747" lon="2.0283722"><ele>589.0</ele><time>2026-04-25T08:04:53.918Z</time></trkpt><trkpt lat="41.9437886" lon="2.0280701"><ele>588.0</ele><time>2026-04-25T08:04:54.919Z</time></trkpt><trkpt lat="41.9438228" lon="2.0277662"><ele>588.3333333333334</ele><time>2026-04-25T08:04:55.919Z</time></trkpt><trkpt lat="41.9438555" lon="2.0274646"><ele>588.6666666666667</ele><time>2026-04-25T08:04:56.92Z</time></trkpt><trkpt lat="41.9438847" lon="2.0271743"><ele>589.0</ele><time>2026-04-25T08:04:57.919Z</time></trkpt><trkpt lat="41.94391" lon="2.0269061"><ele>589.0</ele><time>2026-04-25T08:04:58.919Z</time></trkpt><trkpt lat="41.9439302" lon="2.0266608"><ele>589.0</ele><time>2026-04-25T08:04:59.92Z</time></trkpt><trkpt lat="41.9439433" lon="2.0264475"><ele>589.0</ele><time>2026-04-25T08:05:00.919Z</time></trkpt><trkpt lat="41.9439421" lon="2.0262559"><ele>590.6666666666667</ele><time>2026-04-25T08:05:01.919Z</time></trkpt><trkpt lat="41.9439072" lon="2.0260648"><ele>592.3333333333334</ele><time>2026-04-25T08:05:02.919Z</time></trkpt><trkpt lat="41.9438292" lon="2.0258864"><ele>594.0</ele><time>2026-04-25T08:05:03.919Z</time></trkpt><trkpt lat="41.9437237" lon="2.0257143"><ele>595.3333333333334</ele><time>2026-04-25T08:05:04.919Z</time></trkpt><trkpt lat="41.9436064" lon="2.0255386"><ele>596.6666666666667</ele><time>2026-04-25T08:05:05.919Z</time></trkpt><trkpt lat="41.9434863" lon="2.0253483"><ele>598.0</ele><time>2026-04-25T08:05:06.919Z</time></trkpt><trkpt lat="41.9433634" lon="2.0251588"><ele>600.0</ele><time>2026-04-25T08:05:07.92Z</time></trkpt><trkpt lat="41.943237" lon="2.0249671"><ele>602.0</ele><time>2026-04-25T08:05:08.919Z</time></trkpt><trkpt lat="41.9431192" lon="2.0247788"><ele>604.0</ele><time>2026-04-25T08:05:09.919Z</time></trkpt><trkpt lat="41.9430261" lon="2.0245936"><ele>604.0</ele><time>2026-04-25T08:05:10.919Z</time></trkpt><trkpt lat="41.9429598" lon="2.0243903"><ele>604.0</ele><time>2026-04-25T08:05:11.92Z</time></trkpt><trkpt lat="41.9429137" lon="2.024172"><ele>604.0</ele><time>2026-04-25T08:05:12.92Z</time></trkpt><trkpt lat="41.9428743" lon="2.0239443"><ele>607.0</ele><time>2026-04-25T08:05:13.918Z</time></trkpt><trkpt lat="41.9428342" lon="2.023714"><ele>610.0</ele><time>2026-04-25T08:05:14.919Z</time></trkpt><trkpt lat="41.9427934" lon="2.0234762"><ele>613.0</ele><time>2026-04-25T08:05:15.919Z</time></trkpt><trkpt lat="41.9427522" lon="2.0232358"><ele>613.6666666666667</ele><time>2026-04-25T08:05:16.919Z</time></trkpt><trkpt lat="41.9427094" lon="2.0229983"><ele>614.3333333333334</ele><time>2026-04-25T08:05:17.919Z</time></trkpt><trkpt lat="41.9426708" lon="2.0227746"><ele>615.0</ele><time>2026-04-25T08:05:18.92Z</time></trkpt><trkpt lat="41.9426363" lon="2.0225711"><ele>613.8</ele><time>2026-04-25T08:05:19.918Z</time></trkpt><trkpt lat="41.9426059" lon="2.0224017"><ele>612.6</ele><time>2026-04-25T08:05:20.918Z</time></trkpt><trkpt lat="41.9425818" lon="2.0222616"><ele>611.4</ele><time>2026-04-25T08:05:21.919Z</time></trkpt><trkpt lat="41.9425646" lon="2.022155"><ele>610.2</ele><time>2026-04-25T08:05:22.918Z</time></trkpt><trkpt lat="41.9425412" lon="2.022016"><ele>609.0</ele><time>2026-04-25T08:05:24.918Z</time></trkpt><trkpt lat="41.942477" lon="2.0219338"><ele>608.6</ele><time>2026-04-25T08:05:27.92Z</time></trkpt><trkpt lat="41.9423629" lon="2.021977"><ele>608.2</ele><time>2026-04-25T08:05:29.919Z</time></trkpt><trkpt lat="41.9422862" lon="2.022023"><ele>607.8000000000001</ele><time>2026-04-25T08:05:30.919Z</time></trkpt><trkpt lat="41.9422098" lon="2.0220609"><ele>607.4</ele><time>2026-04-25T08:05:31.919Z</time></trkpt><trkpt lat="41.9421255" lon="2.0221037"><ele>607.0</ele><time>2026-04-25T08:05:32.919Z</time></trkpt><trkpt lat="41.9420378" lon="2.0221489"><ele>606.9999999999999</ele><time>2026-04-25T08:05:33.92Z</time></trkpt><trkpt lat="41.9419552" lon="2.0221913"><ele>607.0</ele><time>2026-04-25T08:05:34.919Z</time></trkpt><trkpt lat="41.9418834" lon="2.022227"><ele>607.0</ele><time>2026-04-25T08:05:35.918Z</time></trkpt><trkpt lat="41.9418174" lon="2.0222571"><ele>607.0</ele><time>2026-04-25T08:05:36.919Z</time></trkpt><trkpt lat="41.941754" lon="2.0222892"><ele>607.0</ele><time>2026-04-25T08:05:37.92Z</time></trkpt><trkpt lat="41.9416921" lon="2.0223183"><ele>606.9999999999999</ele><time>2026-04-25T08:05:38.919Z</time></trkpt><trkpt lat="41.9416325" lon="2.0223504"><ele>607.0</ele><time>2026-04-25T08:05:39.918Z</time></trkpt><trkpt lat="41.9415718" lon="2.0223838"><ele>606.5</ele><time>2026-04-25T08:05:40.919Z</time></trkpt><trkpt lat="41.9415037" lon="2.0224183"><ele>606.0</ele><time>2026-04-25T08:05:41.919Z</time></trkpt><trkpt lat="41.9414314" lon="2.0224567"><ele>605.5</ele><time>2026-04-25T08:05:42.918Z</time></trkpt><trkpt lat="41.9413531" lon="2.0224999"><ele>605.0</ele><time>2026-04-25T08:05:43.919Z</time></trkpt><trkpt lat="41.9412692" lon="2.0225445"><ele>604.5</ele><time>2026-04-25T08:05:44.918Z</time></trkpt><trkpt lat="41.941177" lon="2.0225886"><ele>604.0</ele><time>2026-04-25T08:05:45.919Z</time></trkpt><trkpt lat="41.9410733" lon="2.0226315"><ele>604.0</ele><time>2026-04-25T08:05:46.919Z</time></trkpt><trkpt lat="41.9409568" lon="2.0226557"><ele>604.0</ele><time>2026-04-25T08:05:47.92Z</time></trkpt><trkpt lat="41.9408253" lon="2.0226474"><ele>604.0</ele><time>2026-04-25T08:05:48.919Z</time></trkpt><trkpt lat="41.9406833" lon="2.0226075"><ele>604.0</ele><time>2026-04-25T08:05:49.919Z</time></trkpt><trkpt lat="41.9405384" lon="2.0225347"><ele>599.6666666666667</ele><time>2026-04-25T08:05:50.919Z</time></trkpt><trkpt lat="41.9403997" lon="2.0224335"><ele>595.3333333333334</ele><time>2026-04-25T08:05:51.92Z</time></trkpt><trkpt lat="41.9402593" lon="2.0223303"><ele>591.0</ele><time>2026-04-25T08:05:52.92Z</time></trkpt><trkpt lat="41.940118" lon="2.0222191"><ele>590.0</ele><time>2026-04-25T08:05:53.919Z</time></trkpt><trkpt lat="41.9399695" lon="2.0221082"><ele>589.0</ele><time>2026-04-25T08:05:54.92Z</time></trkpt><trkpt lat="41.9398116" lon="2.021989"><ele>588.0</ele><time>2026-04-25T08:05:55.919Z</time></trkpt><trkpt lat="41.9396445" lon="2.0218592"><ele>588.0</ele><time>2026-04-25T08:05:56.918Z</time></trkpt><trkpt lat="41.9394601" lon="2.0217207"><ele>588.0</ele><time>2026-04-25T08:05:57.919Z</time></trkpt><trkpt lat="41.9392593" lon="2.0215813"><ele>588.0</ele><time>2026-04-25T08:05:58.92Z</time></trkpt><trkpt lat="41.9390452" lon="2.0214418"><ele>587.0</ele><time>2026-04-25T08:05:59.92Z</time></trkpt><trkpt lat="41.9388272" lon="2.0213037"><ele>586.0</ele><time>2026-04-25T08:06:00.919Z</time></trkpt><trkpt lat="41.938608" lon="2.0211649"><ele>586.0</ele><time>2026-04-25T08:06:01.92Z</time></trkpt><trkpt lat="41.9383913" lon="2.0210288"><ele>586.0</ele><time>2026-04-25T08:06:02.92Z</time></trkpt><trkpt lat="41.9381746" lon="2.0208935"><ele>583.0</ele><time>2026-04-25T08:06:03.919Z</time></trkpt><trkpt lat="41.9379606" lon="2.020771"><ele>580.0</ele><time>2026-04-25T08:06:04.919Z</time></trkpt><trkpt lat="41.9377448" lon="2.0206585"><ele>582.5</ele><time>2026-04-25T08:06:05.919Z</time></trkpt><trkpt lat="41.9375227" lon="2.0205588"><ele>585.0</ele><time>2026-04-25T08:06:06.92Z</time></trkpt><trkpt lat="41.9372884" lon="2.0204624"><ele>585.0</ele><time>2026-04-25T08:06:07.92Z</time></trkpt><trkpt lat="41.9370465" lon="2.0203618"><ele>585.0</ele><time>2026-04-25T08:06:08.919Z</time></trkpt><trkpt lat="41.9367981" lon="2.0202652"><ele>582.5</ele><time>2026-04-25T08:06:09.92Z</time></trkpt><trkpt lat="41.9365471" lon="2.0201629"><ele>580.0</ele><time>2026-04-25T08:06:10.92Z</time></trkpt><trkpt lat="41.9363024" lon="2.0200462"><ele>578.5</ele><time>2026-04-25T08:06:11.919Z</time></trkpt><trkpt lat="41.9360728" lon="2.0199182"><ele>577.0</ele><time>2026-04-25T08:06:12.918Z</time></trkpt><trkpt lat="41.9358535" lon="2.0197847"><ele>574.5</ele><time>2026-04-25T08:06:13.92Z</time></trkpt><trkpt lat="41.9356384" lon="2.0196561"><ele>572.0</ele><time>2026-04-25T08:06:14.919Z</time></trkpt><trkpt lat="41.9354275" lon="2.0195401"><ele>572.0</ele><time>2026-04-25T08:06:15.919Z</time></trkpt><trkpt lat="41.9352242" lon="2.0194266"><ele>572.0</ele><time>2026-04-25T08:06:16.92Z</time></trkpt><trkpt lat="41.935033" lon="2.0193189"><ele>572.0</ele><time>2026-04-25T08:06:17.919Z</time></trkpt><trkpt lat="41.9348525" lon="2.0192212"><ele>571.3333333333333</ele><time>2026-04-25T08:06:18.919Z</time></trkpt><trkpt lat="41.9346835" lon="2.0191302"><ele>570.6666666666666</ele><time>2026-04-25T08:06:19.918Z</time></trkpt><trkpt lat="41.9345231" lon="2.019039"><ele>570.0</ele><time>2026-04-25T08:06:20.918Z</time></trkpt><trkpt lat="41.9343698" lon="2.0189481"><ele>570.6666666666666</ele><time>2026-04-25T08:06:21.919Z</time></trkpt><trkpt lat="41.9342182" lon="2.0188405"><ele>571.3333333333333</ele><time>2026-04-25T08:06:22.92Z</time></trkpt><trkpt lat="41.9340653" lon="2.018727"><ele>572.0</ele><time>2026-04-25T08:06:23.92Z</time></trkpt><trkpt lat="41.9339132" lon="2.018591"><ele>572.0</ele><time>2026-04-25T08:06:24.919Z</time></trkpt><trkpt lat="41.9337456" lon="2.0184277"><ele>572.0</ele><time>2026-04-25T08:06:25.919Z</time></trkpt><trkpt lat="41.9335695" lon="2.0182384"><ele>572.0</ele><time>2026-04-25T08:06:26.92Z</time></trkpt><trkpt lat="41.9333937" lon="2.0180207"><ele>569.0</ele><time>2026-04-25T08:06:27.918Z</time></trkpt><trkpt lat="41.9332194" lon="2.0177928"><ele>566.0</ele><time>2026-04-25T08:06:28.92Z</time></trkpt><trkpt lat="41.9330343" lon="2.0175566"><ele>564.5</ele><time>2026-04-25T08:06:29.919Z</time></trkpt><trkpt lat="41.9328392" lon="2.01732"><ele>563.0</ele><time>2026-04-25T08:06:30.918Z</time></trkpt><trkpt lat="41.9326466" lon="2.0170824"><ele>563.0</ele><time>2026-04-25T08:06:31.919Z</time></trkpt><trkpt lat="41.932451" lon="2.0168455"><ele>563.0</ele><time>2026-04-25T08:06:32.919Z</time></trkpt><trkpt lat="41.932254" lon="2.0166122"><ele>562.0</ele><time>2026-04-25T08:06:33.919Z</time></trkpt><trkpt lat="41.9320537" lon="2.0163909"><ele>561.0</ele><time>2026-04-25T08:06:34.92Z</time></trkpt><trkpt lat="41.9318497" lon="2.016185"><ele>562.0</ele><time>2026-04-25T08:06:35.919Z</time></trkpt><trkpt lat="41.93165" lon="2.0159953"><ele>563.0</ele><time>2026-04-25T08:06:36.92Z</time></trkpt><trkpt lat="41.9314565" lon="2.0158155"><ele>563.0</ele><time>2026-04-25T08:06:37.918Z</time></trkpt><trkpt lat="41.9312719" lon="2.0156417"><ele>563.0</ele><time>2026-04-25T08:06:38.919Z</time></trkpt><trkpt lat="41.931102" lon="2.015472"><ele>563.0</ele><time>2026-04-25T08:06:39.92Z</time></trkpt><trkpt lat="41.9309388" lon="2.0153189"><ele>563.3333333333333</ele><time>2026-04-25T08:06:40.919Z</time></trkpt><trkpt lat="41.9307712" lon="2.0151865"><ele>563.6666666666666</ele><time>2026-04-25T08:06:41.919Z</time></trkpt><trkpt lat="41.9305845" lon="2.0150833"><ele>564.0</ele><time>2026-04-25T08:06:42.919Z</time></trkpt><trkpt lat="41.9303771" lon="2.0150097"><ele>565.0</ele><time>2026-04-25T08:06:43.92Z</time></trkpt><trkpt lat="41.9301516" lon="2.0149617"><ele>566.0</ele><time>2026-04-25T08:06:44.918Z</time></trkpt><trkpt lat="41.9299148" lon="2.0149251"><ele>561.0</ele><time>2026-04-25T08:06:45.918Z</time></trkpt><trkpt lat="41.9296776" lon="2.0148873"><ele>556.0</ele><time>2026-04-25T08:06:46.92Z</time></trkpt><trkpt lat="41.9294409" lon="2.0148492"><ele>552.5</ele><time>2026-04-25T08:06:47.92Z</time></trkpt><trkpt lat="41.9292101" lon="2.0148143"><ele>549.0</ele><time>2026-04-25T08:06:48.918Z</time></trkpt><trkpt lat="41.928993" lon="2.0147826"><ele>549.0</ele><time>2026-04-25T08:06:49.92Z</time></trkpt><trkpt lat="41.9287961" lon="2.014754"><ele>549.0</ele><time>2026-04-25T08:06:50.919Z</time></trkpt><trkpt lat="41.9286121" lon="2.014729"><ele>549.0</ele><time>2026-04-25T08:06:51.919Z</time></trkpt><trkpt lat="41.9284234" lon="2.0147234"><ele>548.3333333333334</ele><time>2026-04-25T08:06:52.92Z</time></trkpt><trkpt lat="41.9282345" lon="2.0147568"><ele>547.6666666666667</ele><time>2026-04-25T08:06:53.92Z</time></trkpt><trkpt lat="41.9280457" lon="2.0148416"><ele>547.0</ele><time>2026-04-25T08:06:54.919Z</time></trkpt><trkpt lat="41.927852" lon="2.0149565"><ele>547.0</ele><time>2026-04-25T08:06:55.92Z</time></trkpt><trkpt lat="41.9276501" lon="2.0150834"><ele>547.0</ele><time>2026-04-25T08:06:56.919Z</time></trkpt><trkpt lat="41.9274408" lon="2.0152102"><ele>547.0</ele><time>2026-04-25T08:06:57.919Z</time></trkpt><trkpt lat="41.9272305" lon="2.0153386"><ele>547.0</ele><time>2026-04-25T08:06:58.92Z</time></trkpt><trkpt lat="41.9270185" lon="2.015465"><ele>547.0</ele><time>2026-04-25T08:06:59.919Z</time></trkpt><trkpt lat="41.9268137" lon="2.0155883"><ele>547.0</ele><time>2026-04-25T08:07:00.92Z</time></trkpt><trkpt lat="41.9266239" lon="2.0157101"><ele>547.0</ele><time>2026-04-25T08:07:01.92Z</time></trkpt><trkpt lat="41.9264547" lon="2.0158265"><ele>546.0</ele><time>2026-04-25T08:07:02.918Z</time></trkpt><trkpt lat="41.9263166" lon="2.0159385"><ele>545.0</ele><time>2026-04-25T08:07:03.92Z</time></trkpt><trkpt lat="41.9261918" lon="2.0160436"><ele>544.0</ele><time>2026-04-25T08:07:04.919Z</time></trkpt><trkpt lat="41.9260659" lon="2.0161224"><ele>543.0</ele><time>2026-04-25T08:07:05.919Z</time></trkpt><trkpt lat="41.925924" lon="2.0161409"><ele>542.0</ele><time>2026-04-25T08:07:06.918Z</time></trkpt><trkpt lat="41.9257803" lon="2.0161057"><ele>541.0</ele><time>2026-04-25T08:07:07.919Z</time></trkpt><trkpt lat="41.9256643" lon="2.016016"><ele>540.0</ele><time>2026-04-25T08:07:08.919Z</time></trkpt><trkpt lat="41.9255622" lon="2.0159007"><ele>539.0</ele><time>2026-04-25T08:07:09.919Z</time></trkpt><trkpt lat="41.9254398" lon="2.0157853"><ele>537.5</ele><time>2026-04-25T08:07:10.918Z</time></trkpt><trkpt lat="41.9253093" lon="2.0156648"><ele>536.0</ele><time>2026-04-25T08:07:11.918Z</time></trkpt><trkpt lat="41.9251896" lon="2.0155513"><ele>534.5</ele><time>2026-04-25T08:07:12.92Z</time></trkpt><trkpt lat="41.9250772" lon="2.0154412"><ele>533.0</ele><time>2026-04-25T08:07:13.919Z</time></trkpt><trkpt lat="41.9249879" lon="2.0152943"><ele>532.5</ele><time>2026-04-25T08:07:14.919Z</time></trkpt><trkpt lat="41.924937" lon="2.0151086"><ele>532.0</ele><time>2026-04-25T08:07:15.919Z</time></trkpt><trkpt lat="41.9249303" lon="2.0149274"><ele>531.5</ele><time>2026-04-25T08:07:16.919Z</time></trkpt><trkpt lat="41.9249252" lon="2.014738"><ele>531.0</ele><time>2026-04-25T08:07:17.919Z</time></trkpt><trkpt lat="41.9248869" lon="2.0145298"><ele>529.0</ele><time>2026-04-25T08:07:18.919Z</time></trkpt><trkpt lat="41.9248204" lon="2.0143105"><ele>527.0</ele><time>2026-04-25T08:07:19.919Z</time></trkpt><trkpt lat="41.9247489" lon="2.0140784"><ele>525.0</ele><time>2026-04-25T08:07:20.918Z</time></trkpt><trkpt lat="41.9246719" lon="2.0138161"><ele>522.0</ele><time>2026-04-25T08:07:21.919Z</time></trkpt><trkpt lat="41.9245903" lon="2.0135415"><ele>519.0</ele><time>2026-04-25T08:07:22.92Z</time></trkpt><trkpt lat="41.9245031" lon="2.0132574"><ele>516.0</ele><time>2026-04-25T08:07:23.919Z</time></trkpt><trkpt lat="41.9244198" lon="2.0129703"><ele>514.3333333333334</ele><time>2026-04-25T08:07:24.919Z</time></trkpt><trkpt lat="41.9243375" lon="2.0126917"><ele>512.6666666666667</ele><time>2026-04-25T08:07:25.92Z</time></trkpt><trkpt lat="41.9242594" lon="2.0124247"><ele>511.0</ele><time>2026-04-25T08:07:26.919Z</time></trkpt><trkpt lat="41.9241844" lon="2.0121656"><ele>510.33333333333337</ele><time>2026-04-25T08:07:27.919Z</time></trkpt><trkpt lat="41.9240952" lon="2.0119064"><ele>509.66666666666663</ele><time>2026-04-25T08:07:28.92Z</time></trkpt><trkpt lat="41.9239818" lon="2.0116557"><ele>509.0</ele><time>2026-04-25T08:07:29.919Z</time></trkpt><trkpt lat="41.9238551" lon="2.011403"><ele>506.5</ele><time>2026-04-25T08:07:30.919Z</time></trkpt><trkpt lat="41.923727" lon="2.0111415"><ele>504.0</ele><time>2026-04-25T08:07:31.92Z</time></trkpt><trkpt lat="41.9235977" lon="2.010878"><ele>503.33333333333337</ele><time>2026-04-25T08:07:32.919Z</time></trkpt><trkpt lat="41.9234717" lon="2.0106265"><ele>502.6666666666667</ele><time>2026-04-25T08:07:33.919Z</time></trkpt><trkpt lat="41.9233542" lon="2.0103882"><ele>502.0</ele><time>2026-04-25T08:07:34.918Z</time></trkpt><trkpt lat="41.9232478" lon="2.0101682"><ele>500.33333333333337</ele><time>2026-04-25T08:07:35.92Z</time></trkpt><trkpt lat="41.9231497" lon="2.0099657"><ele>498.66666666666663</ele><time>2026-04-25T08:07:36.919Z</time></trkpt><trkpt lat="41.9230535" lon="2.0097833"><ele>497.0</ele><time>2026-04-25T08:07:37.919Z</time></trkpt><trkpt lat="41.9229334" lon="2.0096221"><ele>497.0</ele><time>2026-04-25T08:07:38.92Z</time></trkpt><trkpt lat="41.9227768" lon="2.0094878"><ele>497.0</ele><time>2026-04-25T08:07:39.918Z</time></trkpt><trkpt lat="41.9225975" lon="2.0093647"><ele>497.0</ele><time>2026-04-25T08:07:40.918Z</time></trkpt><trkpt lat="41.9224074" lon="2.0092385"><ele>493.66666666666663</ele><time>2026-04-25T08:07:41.919Z</time></trkpt><trkpt lat="41.922229" lon="2.0091167"><ele>490.33333333333337</ele><time>2026-04-25T08:07:42.919Z</time></trkpt><trkpt lat="41.9220623" lon="2.0089886"><ele>487.0</ele><time>2026-04-25T08:07:43.919Z</time></trkpt><trkpt lat="41.921916" lon="2.0088212"><ele>487.0</ele><time>2026-04-25T08:07:44.92Z</time></trkpt><trkpt lat="41.9217861" lon="2.0086215"><ele>487.0</ele><time>2026-04-25T08:07:45.919Z</time></trkpt><trkpt lat="41.9216529" lon="2.0084097"><ele>487.0</ele><time>2026-04-25T08:07:46.92Z</time></trkpt><trkpt lat="41.9215135" lon="2.0081977"><ele>485.33333333333337</ele><time>2026-04-25T08:07:47.918Z</time></trkpt><trkpt lat="41.921371" lon="2.0079777"><ele>483.66666666666663</ele><time>2026-04-25T08:07:48.919Z</time></trkpt><trkpt lat="41.9212287" lon="2.0077597"><ele>482.0</ele><time>2026-04-25T08:07:49.918Z</time></trkpt><trkpt lat="41.921088" lon="2.0075441"><ele>480.3333333333333</ele><time>2026-04-25T08:07:50.919Z</time></trkpt><trkpt lat="41.9209356" lon="2.0073323"><ele>478.66666666666663</ele><time>2026-04-25T08:07:51.919Z</time></trkpt><trkpt lat="41.9207639" lon="2.007141"><ele>477.0</ele><time>2026-04-25T08:07:52.919Z</time></trkpt><trkpt lat="41.9205749" lon="2.006972"><ele>477.0</ele><time>2026-04-25T08:07:53.919Z</time></trkpt><trkpt lat="41.9203825" lon="2.0068001"><ele>477.0</ele><time>2026-04-25T08:07:54.919Z</time></trkpt><trkpt lat="41.9201922" lon="2.0066288"><ele>473.5</ele><time>2026-04-25T08:07:55.92Z</time></trkpt><trkpt lat="41.9200028" lon="2.0064522"><ele>470.0</ele><time>2026-04-25T08:07:56.919Z</time></trkpt><trkpt lat="41.9198177" lon="2.0062559"><ele>470.0</ele><time>2026-04-25T08:07:57.919Z</time></trkpt><trkpt lat="41.9196422" lon="2.0060473"><ele>470.0</ele><time>2026-04-25T08:07:58.919Z</time></trkpt><trkpt lat="41.9194767" lon="2.0058295"><ele>467.0</ele><time>2026-04-25T08:07:59.918Z</time></trkpt><trkpt lat="41.9193152" lon="2.0056098"><ele>464.0</ele><time>2026-04-25T08:08:00.919Z</time></trkpt><trkpt lat="41.9191477" lon="2.0053939"><ele>464.0</ele><time>2026-04-25T08:08:01.92Z</time></trkpt><trkpt lat="41.9189783" lon="2.0051894"><ele>464.0</ele><time>2026-04-25T08:08:02.919Z</time></trkpt><trkpt lat="41.918791" lon="2.0050145"><ele>462.5</ele><time>2026-04-25T08:08:03.919Z</time></trkpt><trkpt lat="41.9185875" lon="2.0048554"><ele>461.0</ele><time>2026-04-25T08:08:04.918Z</time></trkpt><trkpt lat="41.9183719" lon="2.0046924"><ele>461.0</ele><time>2026-04-25T08:08:05.92Z</time></trkpt><trkpt lat="41.9181513" lon="2.0045235"><ele>461.0</ele><time>2026-04-25T08:08:06.919Z</time></trkpt><trkpt lat="41.9179232" lon="2.0043579"><ele>461.0</ele><time>2026-04-25T08:08:07.919Z</time></trkpt><trkpt lat="41.9176834" lon="2.004202"><ele>461.0</ele><time>2026-04-25T08:08:08.918Z</time></trkpt><trkpt lat="41.917433" lon="2.0040543"><ele>456.0</ele><time>2026-04-25T08:08:09.919Z</time></trkpt><trkpt lat="41.9171762" lon="2.003911"><ele>451.0</ele><time>2026-04-25T08:08:10.919Z</time></trkpt><trkpt lat="41.916917" lon="2.0037628"><ele>453.5</ele><time>2026-04-25T08:08:11.919Z</time></trkpt><trkpt lat="41.916658" lon="2.0036137"><ele>456.0</ele><time>2026-04-25T08:08:12.92Z</time></trkpt><trkpt lat="41.9164015" lon="2.0034668"><ele>451.0</ele><time>2026-04-25T08:08:13.919Z</time></trkpt><trkpt lat="41.9161503" lon="2.003321"><ele>446.0</ele><time>2026-04-25T08:08:14.919Z</time></trkpt><trkpt lat="41.9159039" lon="2.0031761"><ele>447.0</ele><time>2026-04-25T08:08:15.919Z</time></trkpt><trkpt lat="41.9156717" lon="2.0030406"><ele>448.0</ele><time>2026-04-25T08:08:16.919Z</time></trkpt><trkpt lat="41.9154511" lon="2.0029161"><ele>448.0</ele><time>2026-04-25T08:08:17.919Z</time></trkpt><trkpt lat="41.9152474" lon="2.0027999"><ele>448.0</ele><time>2026-04-25T08:08:18.919Z</time></trkpt><trkpt lat="41.915055" lon="2.00269"><ele>448.0</ele><time>2026-04-25T08:08:19.919Z</time></trkpt><trkpt lat="41.9148766" lon="2.0025868"><ele>446.6666666666667</ele><time>2026-04-25T08:08:20.919Z</time></trkpt><trkpt lat="41.9147123" lon="2.0024944"><ele>445.33333333333337</ele><time>2026-04-25T08:08:21.92Z</time></trkpt><trkpt lat="41.9145667" lon="2.0023934"><ele>444.0</ele><time>2026-04-25T08:08:22.918Z</time></trkpt><trkpt lat="41.9144363" lon="2.0022506"><ele>444.0</ele><time>2026-04-25T08:08:23.919Z</time></trkpt><trkpt lat="41.9143254" lon="2.0020681"><ele>444.0</ele><time>2026-04-25T08:08:24.919Z</time></trkpt><trkpt lat="41.9142344" lon="2.0018427"><ele>444.0</ele><time>2026-04-25T08:08:25.919Z</time></trkpt><trkpt lat="41.91415" lon="2.0015981"><ele>445.0</ele><time>2026-04-25T08:08:26.919Z</time></trkpt><trkpt lat="41.9140585" lon="2.0013483"><ele>446.0</ele><time>2026-04-25T08:08:27.919Z</time></trkpt><trkpt lat="41.9139623" lon="2.0010947"><ele>447.0</ele><time>2026-04-25T08:08:28.92Z</time></trkpt><trkpt lat="41.9138705" lon="2.0008388"><ele>445.0</ele><time>2026-04-25T08:08:29.919Z</time></trkpt><trkpt lat="41.9137828" lon="2.0005958"><ele>443.0</ele><time>2026-04-25T08:08:30.92Z</time></trkpt><trkpt lat="41.9137022" lon="2.0003729"><ele>441.0</ele><time>2026-04-25T08:08:31.92Z</time></trkpt><trkpt lat="41.9136178" lon="2.000174"><ele>441.0</ele><time>2026-04-25T08:08:32.92Z</time></trkpt><trkpt lat="41.9135102" lon="1.9999826"><ele>441.0</ele><time>2026-04-25T08:08:33.92Z</time></trkpt><trkpt lat="41.9133696" lon="1.999811"><ele>441.0</ele><time>2026-04-25T08:08:34.919Z</time></trkpt><trkpt lat="41.9132236" lon="1.9996585"><ele>444.33333333333337</ele><time>2026-04-25T08:08:35.919Z</time></trkpt><trkpt lat="41.913084" lon="1.9995324"><ele>447.6666666666667</ele><time>2026-04-25T08:08:36.919Z</time></trkpt><trkpt lat="41.9129282" lon="1.9994368"><ele>451.0</ele><time>2026-04-25T08:08:37.919Z</time></trkpt><trkpt lat="41.9127616" lon="1.9993932"><ele>451.0</ele><time>2026-04-25T08:08:38.919Z</time></trkpt><trkpt lat="41.9125992" lon="1.9993769"><ele>451.0</ele><time>2026-04-25T08:08:39.92Z</time></trkpt><trkpt lat="41.9124557" lon="1.9993487"><ele>451.0</ele><time>2026-04-25T08:08:40.919Z</time></trkpt><trkpt lat="41.9123301" lon="1.9992768"><ele>451.0</ele><time>2026-04-25T08:08:41.919Z</time></trkpt><trkpt lat="41.9122386" lon="1.9991585"><ele>448.6666666666667</ele><time>2026-04-25T08:08:42.92Z</time></trkpt><trkpt lat="41.9121714" lon="1.9989994"><ele>446.33333333333337</ele><time>2026-04-25T08:08:43.92Z</time></trkpt><trkpt lat="41.9121051" lon="1.9988072"><ele>444.0</ele><time>2026-04-25T08:08:44.92Z</time></trkpt><trkpt lat="41.9120293" lon="1.9985932"><ele>444.0</ele><time>2026-04-25T08:08:45.919Z</time></trkpt><trkpt lat="41.9119508" lon="1.9983715"><ele>444.0</ele><time>2026-04-25T08:08:46.919Z</time></trkpt><trkpt lat="41.9118668" lon="1.9981296"><ele>444.0</ele><time>2026-04-25T08:08:47.92Z</time></trkpt><trkpt lat="41.9117759" lon="1.9978843"><ele>442.33333333333337</ele><time>2026-04-25T08:08:48.92Z</time></trkpt><trkpt lat="41.9116768" lon="1.9976396"><ele>440.6666666666667</ele><time>2026-04-25T08:08:49.919Z</time></trkpt><trkpt lat="41.9115604" lon="1.9974062"><ele>439.0</ele><time>2026-04-25T08:08:50.919Z</time></trkpt><trkpt lat="41.9114281" lon="1.9971873"><ele>438.33333333333337</ele><time>2026-04-25T08:08:51.919Z</time></trkpt><trkpt lat="41.9112886" lon="1.9969789"><ele>437.66666666666663</ele><time>2026-04-25T08:08:52.919Z</time></trkpt><trkpt lat="41.9111534" lon="1.996781"><ele>437.0</ele><time>2026-04-25T08:08:53.919Z</time></trkpt><trkpt lat="41.9110151" lon="1.9966111"><ele>434.3333333333333</ele><time>2026-04-25T08:08:54.919Z</time></trkpt><trkpt lat="41.9108733" lon="1.9964768"><ele>431.66666666666663</ele><time>2026-04-25T08:08:55.919Z</time></trkpt><trkpt lat="41.9107346" lon="1.9963579"><ele>429.0</ele><time>2026-04-25T08:08:56.919Z</time></trkpt><trkpt lat="41.9106119" lon="1.9962048"><ele>429.0</ele><time>2026-04-25T08:08:57.919Z</time></trkpt><trkpt lat="41.9105156" lon="1.9960173"><ele>429.0</ele><time>2026-04-25T08:08:58.919Z</time></trkpt><trkpt lat="41.9104556" lon="1.9958369"><ele>429.0</ele><time>2026-04-25T08:08:59.919Z</time></trkpt><trkpt lat="41.9104291" lon="1.9956499"><ele>429.25</ele><time>2026-04-25T08:09:00.919Z</time></trkpt><trkpt lat="41.910448" lon="1.9954502"><ele>429.5</ele><time>2026-04-25T08:09:01.92Z</time></trkpt><trkpt lat="41.9104765" lon="1.9952575"><ele>429.75</ele><time>2026-04-25T08:09:02.919Z</time></trkpt><trkpt lat="41.910472" lon="1.9950547"><ele>430.0</ele><time>2026-04-25T08:09:03.92Z</time></trkpt><trkpt lat="41.9104279" lon="1.9948524"><ele>430.0</ele><time>2026-04-25T08:09:04.92Z</time></trkpt><trkpt lat="41.9103682" lon="1.9946513"><ele>430.0</ele><time>2026-04-25T08:09:05.919Z</time></trkpt><trkpt lat="41.9102792" lon="1.9944677"><ele>430.0</ele><time>2026-04-25T08:09:06.919Z</time></trkpt><trkpt lat="41.910148" lon="1.994304"><ele>426.33333333333337</ele><time>2026-04-25T08:09:07.92Z</time></trkpt><trkpt lat="41.9099833" lon="1.9941675"><ele>422.66666666666663</ele><time>2026-04-25T08:09:08.919Z</time></trkpt><trkpt lat="41.9098016" lon="1.9940386"><ele>419.0</ele><time>2026-04-25T08:09:09.919Z</time></trkpt><trkpt lat="41.9096161" lon="1.9939009"><ele>419.0</ele><time>2026-04-25T08:09:10.919Z</time></trkpt><trkpt lat="41.9094198" lon="1.9937548"><ele>419.0</ele><time>2026-04-25T08:09:11.919Z</time></trkpt><trkpt lat="41.9092208" lon="1.9936071"><ele>419.66666666666663</ele><time>2026-04-25T08:09:12.919Z</time></trkpt><trkpt lat="41.9090229" lon="1.9934627"><ele>420.33333333333337</ele><time>2026-04-25T08:09:13.92Z</time></trkpt><trkpt lat="41.9088297" lon="1.9933295"><ele>421.0</ele><time>2026-04-25T08:09:14.92Z</time></trkpt><trkpt lat="41.9086365" lon="1.9932157"><ele>418.5</ele><time>2026-04-25T08:09:15.918Z</time></trkpt><trkpt lat="41.9084216" lon="1.9931346"><ele>416.0</ele><time>2026-04-25T08:09:16.919Z</time></trkpt><trkpt lat="41.9081977" lon="1.9930483"><ele>416.0</ele><time>2026-04-25T08:09:17.919Z</time></trkpt><trkpt lat="41.9079676" lon="1.99296"><ele>416.0</ele><time>2026-04-25T08:09:18.919Z</time></trkpt><trkpt lat="41.9077308" lon="1.9928754"><ele>416.5</ele><time>2026-04-25T08:09:19.919Z</time></trkpt><trkpt lat="41.907494" lon="1.9927857"><ele>417.0</ele><time>2026-04-25T08:09:20.918Z</time></trkpt><trkpt lat="41.9072544" lon="1.9926955"><ele>417.0</ele><time>2026-04-25T08:09:21.92Z</time></trkpt><trkpt lat="41.9070144" lon="1.9926121"><ele>417.0</ele><time>2026-04-25T08:09:22.919Z</time></trkpt><trkpt lat="41.9067718" lon="1.9925346"><ele>415.0</ele><time>2026-04-25T08:09:23.919Z</time></trkpt><trkpt lat="41.9065265" lon="1.9924708"><ele>413.0</ele><time>2026-04-25T08:09:24.92Z</time></trkpt><trkpt lat="41.9062785" lon="1.9924224"><ele>413.0</ele><time>2026-04-25T08:09:25.919Z</time></trkpt><trkpt lat="41.906035" lon="1.99238"><ele>413.0</ele><time>2026-04-25T08:09:26.92Z</time></trkpt><trkpt lat="41.9058053" lon="1.9923453"><ele>413.0</ele><time>2026-04-25T08:09:27.92Z</time></trkpt><trkpt lat="41.9055904" lon="1.9923124"><ele>413.0</ele><time>2026-04-25T08:09:28.919Z</time></trkpt><trkpt lat="41.9054021" lon="1.9922836"><ele>413.0</ele><time>2026-04-25T08:09:29.919Z</time></trkpt><trkpt lat="41.9052367" lon="1.9922576"><ele>413.0</ele><time>2026-04-25T08:09:30.919Z</time></trkpt><trkpt lat="41.9050866" lon="1.9922318"><ele>413.0</ele><time>2026-04-25T08:09:31.919Z</time></trkpt><trkpt lat="41.9049631" lon="1.9921744"><ele>413.0</ele><time>2026-04-25T08:09:32.92Z</time></trkpt><trkpt lat="41.9048587" lon="1.9920691"><ele>413.0</ele><time>2026-04-25T08:09:33.919Z</time></trkpt><trkpt lat="41.9047826" lon="1.9919221"><ele>413.5</ele><time>2026-04-25T08:09:34.919Z</time></trkpt><trkpt lat="41.9047434" lon="1.9917478"><ele>414.0</ele><time>2026-04-25T08:09:35.92Z</time></trkpt><trkpt lat="41.9047219" lon="1.9915677"><ele>414.5</ele><time>2026-04-25T08:09:36.919Z</time></trkpt><trkpt lat="41.9046984" lon="1.9914062"><ele>415.0</ele><time>2026-04-25T08:09:37.919Z</time></trkpt><trkpt lat="41.9046594" lon="1.9912657"><ele>414.0</ele><time>2026-04-25T08:09:38.919Z</time></trkpt><trkpt lat="41.9045793" lon="1.9911483"><ele>413.0</ele><time>2026-04-25T08:09:39.92Z</time></trkpt><trkpt lat="41.9044661" lon="1.9910816"><ele>412.0</ele><time>2026-04-25T08:09:40.918Z</time></trkpt><trkpt lat="41.9043364" lon="1.9910759"><ele>411.0</ele><time>2026-04-25T08:09:41.919Z</time></trkpt><trkpt lat="41.9042021" lon="1.9911307"><ele>411.0</ele><time>2026-04-25T08:09:42.92Z</time></trkpt><trkpt lat="41.9040701" lon="1.9912442"><ele>411.0</ele><time>2026-04-25T08:09:43.919Z</time></trkpt><trkpt lat="41.9039347" lon="1.9913652"><ele>411.0</ele><time>2026-04-25T08:09:44.919Z</time></trkpt><trkpt lat="41.903799" lon="1.9914837"><ele>411.0</ele><time>2026-04-25T08:09:45.92Z</time></trkpt><trkpt lat="41.9036672" lon="1.9915812"><ele>411.0</ele><time>2026-04-25T08:09:46.919Z</time></trkpt><trkpt lat="41.9035283" lon="1.9916362"><ele>411.0</ele><time>2026-04-25T08:09:47.919Z</time></trkpt><trkpt lat="41.9033863" lon="1.9916359"><ele>411.0</ele><time>2026-04-25T08:09:48.92Z</time></trkpt><trkpt lat="41.9032531" lon="1.99158"><ele>411.66666666666663</ele><time>2026-04-25T08:09:49.919Z</time></trkpt><trkpt lat="41.9031128" lon="1.9914969"><ele>412.3333333333333</ele><time>2026-04-25T08:09:50.92Z</time></trkpt><trkpt lat="41.9029602" lon="1.9913836"><ele>413.0</ele><time>2026-04-25T08:09:51.919Z</time></trkpt><trkpt lat="41.9028003" lon="1.9912614"><ele>413.0</ele><time>2026-04-25T08:09:52.919Z</time></trkpt><trkpt lat="41.9026335" lon="1.9911305"><ele>413.0</ele><time>2026-04-25T08:09:53.919Z</time></trkpt><trkpt lat="41.9024594" lon="1.9909935"><ele>413.0</ele><time>2026-04-25T08:09:54.919Z</time></trkpt><trkpt lat="41.9022847" lon="1.9908588"><ele>413.3333333333333</ele><time>2026-04-25T08:09:55.92Z</time></trkpt><trkpt lat="41.9021131" lon="1.9907295"><ele>413.66666666666663</ele><time>2026-04-25T08:09:56.92Z</time></trkpt><trkpt lat="41.9019522" lon="1.9906038"><ele>414.0</ele><time>2026-04-25T08:09:57.919Z</time></trkpt><trkpt lat="41.9017967" lon="1.9904898"><ele>413.33333333333337</ele><time>2026-04-25T08:09:58.919Z</time></trkpt><trkpt lat="41.9016302" lon="1.9903957"><ele>412.6666666666667</ele><time>2026-04-25T08:09:59.92Z</time></trkpt><trkpt lat="41.9014461" lon="1.9903277"><ele>412.0</ele><time>2026-04-25T08:10:00.92Z</time></trkpt><trkpt lat="41.9012499" lon="1.9902741"><ele>412.0</ele><time>2026-04-25T08:10:01.919Z</time></trkpt><trkpt lat="41.9010538" lon="1.990236"><ele>412.0</ele><time>2026-04-25T08:10:02.918Z</time></trkpt><trkpt lat="41.9008693" lon="1.9902012"><ele>412.0</ele><time>2026-04-25T08:10:03.919Z</time></trkpt><trkpt lat="41.9007145" lon="1.990129"><ele>412.33333333333337</ele><time>2026-04-25T08:10:04.919Z</time></trkpt><trkpt lat="41.9005764" lon="1.9900159"><ele>412.66666666666663</ele><time>2026-04-25T08:10:05.92Z</time></trkpt><trkpt lat="41.9004401" lon="1.9898625"><ele>413.0</ele><time>2026-04-25T08:10:06.919Z</time></trkpt><trkpt lat="41.9003032" lon="1.9896825"><ele>413.0</ele><time>2026-04-25T08:10:07.918Z</time></trkpt><trkpt lat="41.9001663" lon="1.9894829"><ele>413.0</ele><time>2026-04-25T08:10:08.92Z</time></trkpt><trkpt lat="41.9000254" lon="1.9892813"><ele>413.0</ele><time>2026-04-25T08:10:09.918Z</time></trkpt><trkpt lat="41.8998799" lon="1.9890777"><ele>412.0</ele><time>2026-04-25T08:10:10.919Z</time></trkpt><trkpt lat="41.8997326" lon="1.9888767"><ele>411.0</ele><time>2026-04-25T08:10:11.919Z</time></trkpt><trkpt lat="41.8995815" lon="1.9886903"><ele>410.0</ele><time>2026-04-25T08:10:12.919Z</time></trkpt><trkpt lat="41.8994185" lon="1.9885227"><ele>409.0</ele><time>2026-04-25T08:10:13.918Z</time></trkpt><trkpt lat="41.8992391" lon="1.9883796"><ele>408.0</ele><time>2026-04-25T08:10:14.919Z</time></trkpt><trkpt lat="41.8990476" lon="1.9882526"><ele>407.0</ele><time>2026-04-25T08:10:15.919Z</time></trkpt><trkpt lat="41.8988525" lon="1.9881393"><ele>407.0</ele><time>2026-04-25T08:10:16.92Z</time></trkpt><trkpt lat="41.8986697" lon="1.9880396"><ele>407.0</ele><time>2026-04-25T08:10:17.919Z</time></trkpt><trkpt lat="41.8985098" lon="1.9879512"><ele>407.0</ele><time>2026-04-25T08:10:18.92Z</time></trkpt><trkpt lat="41.898376" lon="1.9878623"><ele>405.75</ele><time>2026-04-25T08:10:19.92Z</time></trkpt><trkpt lat="41.8982595" lon="1.9877395"><ele>404.5</ele><time>2026-04-25T08:10:20.919Z</time></trkpt><trkpt lat="41.8981705" lon="1.9875891"><ele>403.25</ele><time>2026-04-25T08:10:21.92Z</time></trkpt><trkpt lat="41.8981049" lon="1.987424"><ele>402.0</ele><time>2026-04-25T08:10:22.918Z</time></trkpt><trkpt lat="41.8980449" lon="1.9872698"><ele>404.5</ele><time>2026-04-25T08:10:23.92Z</time></trkpt><trkpt lat="41.8979611" lon="1.9871547"><ele>407.0</ele><time>2026-04-25T08:10:24.919Z</time></trkpt><trkpt lat="41.8978508" lon="1.9870751"><ele>409.5</ele><time>2026-04-25T08:10:25.919Z</time></trkpt><trkpt lat="41.8977264" lon="1.9870501"><ele>412.0</ele><time>2026-04-25T08:10:26.92Z</time></trkpt><trkpt lat="41.8976011" lon="1.987092"><ele>411.0</ele><time>2026-04-25T08:10:27.918Z</time></trkpt><trkpt lat="41.8974711" lon="1.9871804"><ele>410.0</ele><time>2026-04-25T08:10:28.919Z</time></trkpt><trkpt lat="41.8973342" lon="1.9872645"><ele>409.0</ele><time>2026-04-25T08:10:29.919Z</time></trkpt><trkpt lat="41.8971915" lon="1.9873112"><ele>408.0</ele><time>2026-04-25T08:10:30.92Z</time></trkpt><trkpt lat="41.8970382" lon="1.9873278"><ele>408.0</ele><time>2026-04-25T08:10:31.92Z</time></trkpt><trkpt lat="41.8968731" lon="1.9873466"><ele>408.0</ele><time>2026-04-25T08:10:32.92Z</time></trkpt><trkpt lat="41.8967073" lon="1.9873652"><ele>408.0</ele><time>2026-04-25T08:10:33.918Z</time></trkpt><trkpt lat="41.8965246" lon="1.9873871"><ele>410.0</ele><time>2026-04-25T08:10:34.919Z</time></trkpt><trkpt lat="41.8963331" lon="1.9874166"><ele>412.0</ele><time>2026-04-25T08:10:35.919Z</time></trkpt><trkpt lat="41.8961355" lon="1.9874606"><ele>414.0</ele><time>2026-04-25T08:10:36.919Z</time></trkpt><trkpt lat="41.8959317" lon="1.9875084"><ele>412.0</ele><time>2026-04-25T08:10:37.918Z</time></trkpt><trkpt lat="41.8957263" lon="1.9875552"><ele>410.0</ele><time>2026-04-25T08:10:38.919Z</time></trkpt><trkpt lat="41.8955209" lon="1.9875993"><ele>408.0</ele><time>2026-04-25T08:10:39.918Z</time></trkpt><trkpt lat="41.8953228" lon="1.9876421"><ele>408.0</ele><time>2026-04-25T08:10:40.919Z</time></trkpt><trkpt lat="41.8951356" lon="1.9876837"><ele>408.0</ele><time>2026-04-25T08:10:41.92Z</time></trkpt><trkpt lat="41.8949561" lon="1.9877202"><ele>408.0</ele><time>2026-04-25T08:10:42.918Z</time></trkpt><trkpt lat="41.8947908" lon="1.9877565"><ele>407.66666666666663</ele><time>2026-04-25T08:10:43.92Z</time></trkpt><trkpt lat="41.894639" lon="1.9877874"><ele>407.3333333333333</ele><time>2026-04-25T08:10:44.919Z</time></trkpt><trkpt lat="41.8944922" lon="1.9877895"><ele>407.0</ele><time>2026-04-25T08:10:45.918Z</time></trkpt><trkpt lat="41.894345" lon="1.9877486"><ele>408.66666666666663</ele><time>2026-04-25T08:10:46.92Z</time></trkpt><trkpt lat="41.8942034" lon="1.9876622"><ele>410.33333333333337</ele><time>2026-04-25T08:10:47.919Z</time></trkpt><trkpt lat="41.8940797" lon="1.9875338"><ele>412.0</ele><time>2026-04-25T08:10:48.919Z</time></trkpt><trkpt lat="41.8939592" lon="1.987371"><ele>412.0</ele><time>2026-04-25T08:10:49.918Z</time></trkpt><trkpt lat="41.8938281" lon="1.9871942"><ele>412.0</ele><time>2026-04-25T08:10:50.919Z</time></trkpt><trkpt lat="41.8936848" lon="1.9870008"><ele>412.0</ele><time>2026-04-25T08:10:51.92Z</time></trkpt><trkpt lat="41.893532" lon="1.9867972"><ele>409.6666666666667</ele><time>2026-04-25T08:10:52.919Z</time></trkpt><trkpt lat="41.8933789" lon="1.9865901"><ele>407.33333333333337</ele><time>2026-04-25T08:10:53.919Z</time></trkpt><trkpt lat="41.8932307" lon="1.9863925"><ele>405.0</ele><time>2026-04-25T08:10:54.92Z</time></trkpt><trkpt lat="41.8930919" lon="1.9862096"><ele>405.0</ele><time>2026-04-25T08:10:55.919Z</time></trkpt><trkpt lat="41.8929715" lon="1.9860421"><ele>405.0</ele><time>2026-04-25T08:10:56.92Z</time></trkpt><trkpt lat="41.8928731" lon="1.9858755"><ele>405.0</ele><time>2026-04-25T08:10:57.918Z</time></trkpt><trkpt lat="41.8927993" lon="1.9857079"><ele>405.4</ele><time>2026-04-25T08:10:58.919Z</time></trkpt><trkpt lat="41.8927506" lon="1.985562"><ele>405.8</ele><time>2026-04-25T08:10:59.919Z</time></trkpt><trkpt lat="41.8926909" lon="1.9854347"><ele>406.20000000000005</ele><time>2026-04-25T08:11:00.92Z</time></trkpt><trkpt lat="41.8925986" lon="1.985347"><ele>406.6</ele><time>2026-04-25T08:11:01.919Z</time></trkpt><trkpt lat="41.8924982" lon="1.9853261"><ele>407.0</ele><time>2026-04-25T08:11:02.919Z</time></trkpt><trkpt lat="41.892393" lon="1.9853668"><ele>404.75</ele><time>2026-04-25T08:11:03.919Z</time></trkpt><trkpt lat="41.8922932" lon="1.9854688"><ele>402.5</ele><time>2026-04-25T08:11:04.919Z</time></trkpt><trkpt lat="41.8921951" lon="1.9856053"><ele>400.25</ele><time>2026-04-25T08:11:05.919Z</time></trkpt><trkpt lat="41.8920877" lon="1.9857538"><ele>398.0</ele><time>2026-04-25T08:11:06.92Z</time></trkpt><trkpt lat="41.8919835" lon="1.9858978"><ele>397.75</ele><time>2026-04-25T08:11:07.92Z</time></trkpt><trkpt lat="41.891874" lon="1.9860021"><ele>397.5</ele><time>2026-04-25T08:11:08.92Z</time></trkpt><trkpt lat="41.8917477" lon="1.9860608"><ele>397.25</ele><time>2026-04-25T08:11:09.919Z</time></trkpt><trkpt lat="41.891609" lon="1.986075"><ele>397.0</ele><time>2026-04-25T08:11:10.919Z</time></trkpt><trkpt lat="41.8914586" lon="1.9860527"><ele>397.0</ele><time>2026-04-25T08:11:11.919Z</time></trkpt><trkpt lat="41.8912958" lon="1.9860163"><ele>397.0</ele><time>2026-04-25T08:11:12.919Z</time></trkpt><trkpt lat="41.891115" lon="1.9859774"><ele>397.0</ele><time>2026-04-25T08:11:13.919Z</time></trkpt><trkpt lat="41.8909291" lon="1.9859354"><ele>397.33333333333337</ele><time>2026-04-25T08:11:14.92Z</time></trkpt><trkpt lat="41.8907351" lon="1.9858885"><ele>397.66666666666663</ele><time>2026-04-25T08:11:15.918Z</time></trkpt><trkpt lat="41.8905344" lon="1.9858406"><ele>398.0</ele><time>2026-04-25T08:11:16.919Z</time></trkpt><trkpt lat="41.8903361" lon="1.9857942"><ele>399.66666666666663</ele><time>2026-04-25T08:11:17.92Z</time></trkpt><trkpt lat="41.8901489" lon="1.9857501"><ele>401.33333333333337</ele><time>2026-04-25T08:11:18.92Z</time></trkpt><trkpt lat="41.8899718" lon="1.9856903"><ele>403.0</ele><time>2026-04-25T08:11:19.919Z</time></trkpt><trkpt lat="41.889799" lon="1.9855941"><ele>403.0</ele><time>2026-04-25T08:11:20.92Z</time></trkpt><trkpt lat="41.8896285" lon="1.9854527"><ele>403.0</ele><time>2026-04-25T08:11:21.919Z</time></trkpt><trkpt lat="41.8894522" lon="1.9852869"><ele>403.0</ele><time>2026-04-25T08:11:22.919Z</time></trkpt><trkpt lat="41.8892673" lon="1.9851132"><ele>403.0</ele><time>2026-04-25T08:11:23.919Z</time></trkpt><trkpt lat="41.8890784" lon="1.9849391"><ele>403.0</ele><time>2026-04-25T08:11:24.919Z</time></trkpt><trkpt lat="41.8888849" lon="1.9847619"><ele>403.0</ele><time>2026-04-25T08:11:25.919Z</time></trkpt><trkpt lat="41.8886911" lon="1.9845854"><ele>403.0</ele><time>2026-04-25T08:11:26.919Z</time></trkpt><trkpt lat="41.8884976" lon="1.984409"><ele>400.5</ele><time>2026-04-25T08:11:27.918Z</time></trkpt><trkpt lat="41.8883074" lon="1.9842333"><ele>398.0</ele><time>2026-04-25T08:11:28.919Z</time></trkpt><trkpt lat="41.8881181" lon="1.9840626"><ele>398.0</ele><time>2026-04-25T08:11:29.919Z</time></trkpt><trkpt lat="41.887932" lon="1.9838916"><ele>398.0</ele><time>2026-04-25T08:11:30.92Z</time></trkpt><trkpt lat="41.8877484" lon="1.9837208"><ele>398.0</ele><time>2026-04-25T08:11:31.92Z</time></trkpt><trkpt lat="41.8875653" lon="1.9835498"><ele>397.66666666666663</ele><time>2026-04-25T08:11:32.92Z</time></trkpt><trkpt lat="41.8873824" lon="1.9833828"><ele>397.33333333333337</ele><time>2026-04-25T08:11:33.92Z</time></trkpt><trkpt lat="41.8872017" lon="1.9832215"><ele>397.0</ele><time>2026-04-25T08:11:34.92Z</time></trkpt><trkpt lat="41.8870196" lon="1.9830713"><ele>397.0</ele><time>2026-04-25T08:11:35.919Z</time></trkpt><trkpt lat="41.8868326" lon="1.9829407"><ele>397.0</ele><time>2026-04-25T08:11:36.92Z</time></trkpt><trkpt lat="41.8866478" lon="1.9828235"><ele>397.0</ele><time>2026-04-25T08:11:37.919Z</time></trkpt><trkpt lat="41.8864708" lon="1.9827216"><ele>393.0</ele><time>2026-04-25T08:11:38.92Z</time></trkpt><trkpt lat="41.8863048" lon="1.9826266"><ele>389.0</ele><time>2026-04-25T08:11:39.919Z</time></trkpt><trkpt lat="41.8861379" lon="1.9825542"><ele>385.0</ele><time>2026-04-25T08:11:40.919Z</time></trkpt><trkpt lat="41.8859625" lon="1.9825287"><ele>384.0</ele><time>2026-04-25T08:11:41.918Z</time></trkpt><trkpt lat="41.885781" lon="1.9825458"><ele>383.0</ele><time>2026-04-25T08:11:42.919Z</time></trkpt><trkpt lat="41.8855853" lon="1.9825838"><ele>382.0</ele><time>2026-04-25T08:11:43.919Z</time></trkpt><trkpt lat="41.8853821" lon="1.9826291"><ele>382.0</ele><time>2026-04-25T08:11:44.919Z</time></trkpt><trkpt lat="41.8851783" lon="1.9826805"><ele>382.0</ele><time>2026-04-25T08:11:45.919Z</time></trkpt><trkpt lat="41.8849787" lon="1.9827298"><ele>382.0</ele><time>2026-04-25T08:11:46.919Z</time></trkpt><trkpt lat="41.8847877" lon="1.9827729"><ele>382.3333333333333</ele><time>2026-04-25T08:11:47.918Z</time></trkpt><trkpt lat="41.8846066" lon="1.9828176"><ele>382.6666666666667</ele><time>2026-04-25T08:11:48.919Z</time></trkpt><trkpt lat="41.8844365" lon="1.9828552"><ele>383.0</ele><time>2026-04-25T08:11:49.918Z</time></trkpt><trkpt lat="41.884275" lon="1.9828936"><ele>382.5</ele><time>2026-04-25T08:11:50.919Z</time></trkpt><trkpt lat="41.8841288" lon="1.9829303"><ele>382.0</ele><time>2026-04-25T08:11:51.919Z</time></trkpt><trkpt lat="41.8839981" lon="1.9829607"><ele>381.5</ele><time>2026-04-25T08:11:52.92Z</time></trkpt><trkpt lat="41.8838728" lon="1.9829754"><ele>381.0</ele><time>2026-04-25T08:11:53.919Z</time></trkpt><trkpt lat="41.8837455" lon="1.9829467"><ele>381.0</ele><time>2026-04-25T08:11:54.919Z</time></trkpt><trkpt lat="41.8836323" lon="1.9828707"><ele>381.0</ele><time>2026-04-25T08:11:55.919Z</time></trkpt><trkpt lat="41.8835448" lon="1.9827495"><ele>381.0</ele><time>2026-04-25T08:11:56.918Z</time></trkpt><trkpt lat="41.8834801" lon="1.9825909"><ele>381.0</ele><time>2026-04-25T08:11:57.918Z</time></trkpt><trkpt lat="41.8834244" lon="1.9824126"><ele>381.6666666666667</ele><time>2026-04-25T08:11:58.92Z</time></trkpt><trkpt lat="41.8833625" lon="1.9822271"><ele>382.33333333333337</ele><time>2026-04-25T08:11:59.92Z</time></trkpt><trkpt lat="41.8832853" lon="1.9820379"><ele>383.0</ele><time>2026-04-25T08:12:00.92Z</time></trkpt><trkpt lat="41.8831841" lon="1.9818638"><ele>383.0</ele><time>2026-04-25T08:12:01.919Z</time></trkpt><trkpt lat="41.8830523" lon="1.9817187"><ele>383.0</ele><time>2026-04-25T08:12:02.919Z</time></trkpt><trkpt lat="41.8829067" lon="1.9815947"><ele>383.0</ele><time>2026-04-25T08:12:03.919Z</time></trkpt><trkpt lat="41.882762" lon="1.9814801"><ele>381.0</ele><time>2026-04-25T08:12:04.919Z</time></trkpt><trkpt lat="41.8826156" lon="1.9813897"><ele>379.0</ele><time>2026-04-25T08:12:05.919Z</time></trkpt><trkpt lat="41.8824541" lon="1.9813388"><ele>377.0</ele><time>2026-04-25T08:12:06.92Z</time></trkpt><trkpt lat="41.8822795" lon="1.9813208"><ele>377.0</ele><time>2026-04-25T08:12:07.919Z</time></trkpt><trkpt lat="41.8821002" lon="1.9813407"><ele>377.0</ele><time>2026-04-25T08:12:08.918Z</time></trkpt><trkpt lat="41.8819107" lon="1.98138"><ele>377.0</ele><time>2026-04-25T08:12:09.919Z</time></trkpt><trkpt lat="41.8817318" lon="1.9814138"><ele>375.0</ele><time>2026-04-25T08:12:10.919Z</time></trkpt><trkpt lat="41.8815646" lon="1.9814454"><ele>373.0</ele><time>2026-04-25T08:12:11.92Z</time></trkpt><trkpt lat="41.8814001" lon="1.9814792"><ele>371.0</ele><time>2026-04-25T08:12:12.92Z</time></trkpt><trkpt lat="41.881241" lon="1.9815119"><ele>371.0</ele><time>2026-04-25T08:12:13.918Z</time></trkpt><trkpt lat="41.8810803" lon="1.9815411"><ele>371.0</ele><time>2026-04-25T08:12:14.919Z</time></trkpt><trkpt lat="41.8809273" lon="1.9815708"><ele>371.0</ele><time>2026-04-25T08:12:15.919Z</time></trkpt><trkpt lat="41.8807723" lon="1.9816036"><ele>371.75</ele><time>2026-04-25T08:12:16.92Z</time></trkpt><trkpt lat="41.8806219" lon="1.981633"><ele>372.5</ele><time>2026-04-25T08:12:17.919Z</time></trkpt><trkpt lat="41.8804801" lon="1.9816495"><ele>373.25</ele><time>2026-04-25T08:12:18.92Z</time></trkpt><trkpt lat="41.8803318" lon="1.9816276"><ele>374.0</ele><time>2026-04-25T08:12:19.92Z</time></trkpt><trkpt lat="41.8801825" lon="1.981573"><ele>373.33333333333337</ele><time>2026-04-25T08:12:20.92Z</time></trkpt><trkpt lat="41.8800416" lon="1.9814703"><ele>372.6666666666667</ele><time>2026-04-25T08:12:21.919Z</time></trkpt><trkpt lat="41.8799195" lon="1.9813316"><ele>372.0</ele><time>2026-04-25T08:12:22.919Z</time></trkpt><trkpt lat="41.8797957" lon="1.9811571"><ele>372.0</ele><time>2026-04-25T08:12:23.919Z</time></trkpt><trkpt lat="41.8796576" lon="1.9809564"><ele>372.0</ele><time>2026-04-25T08:12:24.92Z</time></trkpt><trkpt lat="41.8795021" lon="1.9807355"><ele>372.0</ele><time>2026-04-25T08:12:25.919Z</time></trkpt><trkpt lat="41.8793338" lon="1.9805045"><ele>371.5</ele><time>2026-04-25T08:12:26.919Z</time></trkpt><trkpt lat="41.8791691" lon="1.9802623"><ele>371.0</ele><time>2026-04-25T08:12:27.919Z</time></trkpt><trkpt lat="41.8790131" lon="1.9800072"><ele>369.5</ele><time>2026-04-25T08:12:28.918Z</time></trkpt><trkpt lat="41.878854" lon="1.9797606"><ele>368.0</ele><time>2026-04-25T08:12:29.92Z</time></trkpt><trkpt lat="41.8787" lon="1.9795218"><ele>368.0</ele><time>2026-04-25T08:12:30.92Z</time></trkpt><trkpt lat="41.8785538" lon="1.9792993"><ele>368.0</ele><time>2026-04-25T08:12:31.919Z</time></trkpt><trkpt lat="41.8784128" lon="1.979097"><ele>368.0</ele><time>2026-04-25T08:12:32.918Z</time></trkpt><trkpt lat="41.8782806" lon="1.9789126"><ele>367.33333333333337</ele><time>2026-04-25T08:12:33.918Z</time></trkpt><trkpt lat="41.8781471" lon="1.9787531"><ele>366.6666666666667</ele><time>2026-04-25T08:12:34.92Z</time></trkpt><trkpt lat="41.8779977" lon="1.9786174"><ele>366.0</ele><time>2026-04-25T08:12:35.92Z</time></trkpt><trkpt lat="41.877844" lon="1.9785108"><ele>366.0</ele><time>2026-04-25T08:12:36.919Z</time></trkpt><trkpt lat="41.8776889" lon="1.9784396"><ele>366.0</ele><time>2026-04-25T08:12:37.919Z</time></trkpt><trkpt lat="41.8775383" lon="1.9783948"><ele>366.0</ele><time>2026-04-25T08:12:38.919Z</time></trkpt><trkpt lat="41.8774012" lon="1.9783617"><ele>367.25</ele><time>2026-04-25T08:12:39.919Z</time></trkpt><trkpt lat="41.8772939" lon="1.9783074"><ele>368.5</ele><time>2026-04-25T08:12:40.92Z</time></trkpt><trkpt lat="41.8772093" lon="1.9782168"><ele>369.75</ele><time>2026-04-25T08:12:41.919Z</time></trkpt><trkpt lat="41.8771447" lon="1.9780805"><ele>371.0</ele><time>2026-04-25T08:12:42.92Z</time></trkpt><trkpt lat="41.8770996" lon="1.977902"><ele>371.0</ele><time>2026-04-25T08:12:43.919Z</time></trkpt><trkpt lat="41.8770524" lon="1.9777167"><ele>371.0</ele><time>2026-04-25T08:12:44.919Z</time></trkpt><trkpt lat="41.8769759" lon="1.977528"><ele>371.0</ele><time>2026-04-25T08:12:45.919Z</time></trkpt><trkpt lat="41.8768693" lon="1.9773535"><ele>369.0</ele><time>2026-04-25T08:12:46.92Z</time></trkpt><trkpt lat="41.8767321" lon="1.9772159"><ele>367.0</ele><time>2026-04-25T08:12:47.919Z</time></trkpt><trkpt lat="41.8765743" lon="1.9770842"><ele>365.0</ele><time>2026-04-25T08:12:48.92Z</time></trkpt><trkpt lat="41.8764139" lon="1.9769466"><ele>365.0</ele><time>2026-04-25T08:12:49.92Z</time></trkpt><trkpt lat="41.8762463" lon="1.9767927"><ele>365.0</ele><time>2026-04-25T08:12:50.92Z</time></trkpt><trkpt lat="41.8760745" lon="1.9766324"><ele>365.0</ele><time>2026-04-25T08:12:51.92Z</time></trkpt><trkpt lat="41.8758977" lon="1.976474"><ele>363.6666666666667</ele><time>2026-04-25T08:12:52.919Z</time></trkpt><trkpt lat="41.8757193" lon="1.9763177"><ele>362.3333333333333</ele><time>2026-04-25T08:12:53.919Z</time></trkpt><trkpt lat="41.8755376" lon="1.9761602"><ele>361.0</ele><time>2026-04-25T08:12:54.919Z</time></trkpt><trkpt lat="41.8753591" lon="1.9759884"><ele>360.0</ele><time>2026-04-25T08:12:55.919Z</time></trkpt><trkpt lat="41.8751851" lon="1.9758065"><ele>359.0</ele><time>2026-04-25T08:12:56.919Z</time></trkpt><trkpt lat="41.8750145" lon="1.9756172"><ele>358.0</ele><time>2026-04-25T08:12:57.919Z</time></trkpt><trkpt lat="41.8748484" lon="1.9754267"><ele>358.0</ele><time>2026-04-25T08:12:58.92Z</time></trkpt><trkpt lat="41.8746875" lon="1.9752469"><ele>358.0</ele><time>2026-04-25T08:12:59.919Z</time></trkpt><trkpt lat="41.8745401" lon="1.9750799"><ele>358.0</ele><time>2026-04-25T08:13:00.919Z</time></trkpt><trkpt lat="41.8744043" lon="1.9749356"><ele>359.0</ele><time>2026-04-25T08:13:01.92Z</time></trkpt><trkpt lat="41.8742673" lon="1.9748193"><ele>360.0</ele><time>2026-04-25T08:13:02.919Z</time></trkpt><trkpt lat="41.8741088" lon="1.9747474"><ele>361.0</ele><time>2026-04-25T08:13:03.919Z</time></trkpt><trkpt lat="41.8739343" lon="1.9746984"><ele>361.0</ele><time>2026-04-25T08:13:04.919Z</time></trkpt><trkpt lat="41.8737546" lon="1.9746595"><ele>361.0</ele><time>2026-04-25T08:13:05.919Z</time></trkpt><trkpt lat="41.8735753" lon="1.9746281"><ele>361.0</ele><time>2026-04-25T08:13:06.919Z</time></trkpt><trkpt lat="41.8733878" lon="1.9746283"><ele>359.66666666666663</ele><time>2026-04-25T08:13:07.92Z</time></trkpt><trkpt lat="41.8731956" lon="1.9746596"><ele>358.3333333333333</ele><time>2026-04-25T08:13:08.92Z</time></trkpt><trkpt lat="41.8730041" lon="1.9746998"><ele>357.0</ele><time>2026-04-25T08:13:09.92Z</time></trkpt><trkpt lat="41.8728218" lon="1.9747364"><ele>357.0</ele><time>2026-04-25T08:13:10.92Z</time></trkpt><trkpt lat="41.8726549" lon="1.9747725"><ele>357.0</ele><time>2026-04-25T08:13:11.92Z</time></trkpt><trkpt lat="41.8725056" lon="1.9748035"><ele>357.0</ele><time>2026-04-25T08:13:12.919Z</time></trkpt><trkpt lat="41.8723695" lon="1.9748289"><ele>356.75</ele><time>2026-04-25T08:13:13.919Z</time></trkpt><trkpt lat="41.8722404" lon="1.974852"><ele>356.5</ele><time>2026-04-25T08:13:14.92Z</time></trkpt><trkpt lat="41.8721098" lon="1.9748641"><ele>356.25</ele><time>2026-04-25T08:13:15.919Z</time></trkpt><trkpt lat="41.8719768" lon="1.9748544"><ele>356.0</ele><time>2026-04-25T08:13:16.919Z</time></trkpt><trkpt lat="41.8718422" lon="1.9748262"><ele>355.75</ele><time>2026-04-25T08:13:17.919Z</time></trkpt><trkpt lat="41.8717073" lon="1.9747815"><ele>355.5</ele><time>2026-04-25T08:13:18.92Z</time></trkpt><trkpt lat="41.8715738" lon="1.9747335"><ele>355.25</ele><time>2026-04-25T08:13:19.92Z</time></trkpt><trkpt lat="41.8714377" lon="1.9746823"><ele>355.0</ele><time>2026-04-25T08:13:20.919Z</time></trkpt><trkpt lat="41.871301" lon="1.9746297"><ele>355.0</ele><time>2026-04-25T08:13:21.918Z</time></trkpt><trkpt lat="41.8711645" lon="1.9745782"><ele>355.0</ele><time>2026-04-25T08:13:22.919Z</time></trkpt><trkpt lat="41.8710334" lon="1.9745297"><ele>355.0</ele><time>2026-04-25T08:13:23.92Z</time></trkpt><trkpt lat="41.8709102" lon="1.9744845"><ele>355.0</ele><time>2026-04-25T08:13:24.92Z</time></trkpt><trkpt lat="41.8707942" lon="1.9744386"><ele>355.75</ele><time>2026-04-25T08:13:25.92Z</time></trkpt><trkpt lat="41.870685" lon="1.9743925"><ele>356.5</ele><time>2026-04-25T08:13:26.92Z</time></trkpt><trkpt lat="41.870575" lon="1.9743341"><ele>357.25</ele><time>2026-04-25T08:13:27.919Z</time></trkpt><trkpt lat="41.8704711" lon="1.9742524"><ele>358.0</ele><time>2026-04-25T08:13:28.919Z</time></trkpt><trkpt lat="41.8703792" lon="1.974145"><ele>358.0</ele><time>2026-04-25T08:13:29.92Z</time></trkpt><trkpt lat="41.8702936" lon="1.9740287"><ele>358.0</ele><time>2026-04-25T08:13:30.919Z</time></trkpt><trkpt lat="41.8702152" lon="1.9739125"><ele>358.0</ele><time>2026-04-25T08:13:31.919Z</time></trkpt><trkpt lat="41.8701379" lon="1.9737958"><ele>358.0</ele><time>2026-04-25T08:13:32.92Z</time></trkpt><trkpt lat="41.8700543" lon="1.97367"><ele>358.25</ele><time>2026-04-25T08:13:33.919Z</time></trkpt><trkpt lat="41.8699739" lon="1.9735404"><ele>358.5</ele><time>2026-04-25T08:13:34.919Z</time></trkpt><trkpt lat="41.8698955" lon="1.9734135"><ele>358.75</ele><time>2026-04-25T08:13:35.919Z</time></trkpt><trkpt lat="41.8698151" lon="1.9732896"><ele>359.0</ele><time>2026-04-25T08:13:36.919Z</time></trkpt><trkpt lat="41.8697354" lon="1.9731651"><ele>359.4</ele><time>2026-04-25T08:13:37.918Z</time></trkpt><trkpt lat="41.8696541" lon="1.9730445"><ele>359.79999999999995</ele><time>2026-04-25T08:13:38.919Z</time></trkpt><trkpt lat="41.8695792" lon="1.9729348"><ele>360.20000000000005</ele><time>2026-04-25T08:13:39.92Z</time></trkpt><trkpt lat="41.8695161" lon="1.9728296"><ele>360.6</ele><time>2026-04-25T08:13:40.919Z</time></trkpt><trkpt lat="41.8694749" lon="1.9727225"><ele>361.0</ele><time>2026-04-25T08:13:41.919Z</time></trkpt><trkpt lat="41.8694497" lon="1.9726011"><ele>361.6</ele><time>2026-04-25T08:13:42.919Z</time></trkpt><trkpt lat="41.8694531" lon="1.9724678"><ele>362.20000000000005</ele><time>2026-04-25T08:13:43.92Z</time></trkpt><trkpt lat="41.8694744" lon="1.9723377"><ele>362.79999999999995</ele><time>2026-04-25T08:13:44.919Z</time></trkpt><trkpt lat="41.8695081" lon="1.9722039"><ele>363.4</ele><time>2026-04-25T08:13:45.919Z</time></trkpt><trkpt lat="41.8695385" lon="1.9720659"><ele>364.0</ele><time>2026-04-25T08:13:46.92Z</time></trkpt><trkpt lat="41.869568" lon="1.9719291"><ele>364.0</ele><time>2026-04-25T08:13:47.92Z</time></trkpt><trkpt lat="41.8695927" lon="1.9717986"><ele>364.0</ele><time>2026-04-25T08:13:48.919Z</time></trkpt><trkpt lat="41.8696141" lon="1.9716798"><ele>364.0</ele><time>2026-04-25T08:13:49.918Z</time></trkpt><trkpt lat="41.8696156" lon="1.9715726"><ele>364.0</ele><time>2026-04-25T08:13:50.92Z</time></trkpt><trkpt lat="41.8695985" lon="1.9714773"><ele>364.0</ele><time>2026-04-25T08:13:51.919Z</time></trkpt><trkpt lat="41.8695598" lon="1.9713962"><ele>364.0</ele><time>2026-04-25T08:13:52.919Z</time></trkpt><trkpt lat="41.8694987" lon="1.9713288"><ele>362.4</ele><time>2026-04-25T08:13:53.919Z</time></trkpt><trkpt lat="41.8694186" lon="1.9712759"><ele>360.79999999999995</ele><time>2026-04-25T08:13:54.919Z</time></trkpt><trkpt lat="41.8693297" lon="1.9712274"><ele>359.20000000000005</ele><time>2026-04-25T08:13:55.919Z</time></trkpt><trkpt lat="41.8692494" lon="1.9711794"><ele>357.6</ele><time>2026-04-25T08:13:56.919Z</time></trkpt><trkpt lat="41.8691665" lon="1.9711237"><ele>356.0</ele><time>2026-04-25T08:13:57.919Z</time></trkpt><trkpt lat="41.8690894" lon="1.9710568"><ele>355.6</ele><time>2026-04-25T08:13:58.919Z</time></trkpt><trkpt lat="41.8690297" lon="1.9709734"><ele>355.20000000000005</ele><time>2026-04-25T08:13:59.919Z</time></trkpt><trkpt lat="41.8689922" lon="1.9708697"><ele>354.79999999999995</ele><time>2026-04-25T08:14:00.92Z</time></trkpt><trkpt lat="41.8689874" lon="1.9707573"><ele>354.4</ele><time>2026-04-25T08:14:01.92Z</time></trkpt><trkpt lat="41.8690048" lon="1.9706327"><ele>354.0</ele><time>2026-04-25T08:14:02.919Z</time></trkpt><trkpt lat="41.869031" lon="1.97049"><ele>354.0</ele><time>2026-04-25T08:14:03.919Z</time></trkpt><trkpt lat="41.8690608" lon="1.9703451"><ele>354.0</ele><time>2026-04-25T08:14:04.919Z</time></trkpt><trkpt lat="41.8691097" lon="1.970215"><ele>354.0</ele><time>2026-04-25T08:14:05.92Z</time></trkpt><trkpt lat="41.8691808" lon="1.9701044"><ele>354.0</ele><time>2026-04-25T08:14:06.92Z</time></trkpt><trkpt lat="41.8692729" lon="1.9700166"><ele>354.0</ele><time>2026-04-25T08:14:07.919Z</time></trkpt><trkpt lat="41.8693865" lon="1.9699583"><ele>355.5</ele><time>2026-04-25T08:14:08.919Z</time></trkpt><trkpt lat="41.8695091" lon="1.9699189"><ele>357.0</ele><time>2026-04-25T08:14:09.919Z</time></trkpt><trkpt lat="41.869637" lon="1.969906"><ele>358.5</ele><time>2026-04-25T08:14:10.92Z</time></trkpt><trkpt lat="41.8697682" lon="1.9699101"><ele>360.0</ele><time>2026-04-25T08:14:11.918Z</time></trkpt><trkpt lat="41.8698969" lon="1.9699206"><ele>360.0</ele><time>2026-04-25T08:14:12.92Z</time></trkpt><trkpt lat="41.8700253" lon="1.9699191"><ele>360.0</ele><time>2026-04-25T08:14:13.92Z</time></trkpt><trkpt lat="41.8701608" lon="1.9699028"><ele>360.0</ele><time>2026-04-25T08:14:14.918Z</time></trkpt><trkpt lat="41.8703077" lon="1.9698744"><ele>360.0</ele><time>2026-04-25T08:14:15.918Z</time></trkpt><trkpt lat="41.8704697" lon="1.9698344"><ele>360.6666666666667</ele><time>2026-04-25T08:14:16.92Z</time></trkpt><trkpt lat="41.8706341" lon="1.9697866"><ele>361.33333333333337</ele><time>2026-04-25T08:14:17.919Z</time></trkpt><trkpt lat="41.8708014" lon="1.9697328"><ele>362.0</ele><time>2026-04-25T08:14:18.919Z</time></trkpt><trkpt lat="41.8709651" lon="1.9696769"><ele>367.33333333333337</ele><time>2026-04-25T08:14:19.919Z</time></trkpt><trkpt lat="41.8711202" lon="1.9696226"><ele>372.6666666666667</ele><time>2026-04-25T08:14:20.919Z</time></trkpt><trkpt lat="41.8712704" lon="1.9695527"><ele>378.0</ele><time>2026-04-25T08:14:21.92Z</time></trkpt><trkpt lat="41.8714059" lon="1.9694466"><ele>378.0</ele><time>2026-04-25T08:14:22.92Z</time></trkpt><trkpt lat="41.8715196" lon="1.9693303"><ele>378.0</ele><time>2026-04-25T08:14:23.919Z</time></trkpt><trkpt lat="41.8716107" lon="1.9692192"><ele>378.0</ele><time>2026-04-25T08:14:24.918Z</time></trkpt><trkpt lat="41.8716857" lon="1.9691189"><ele>378.0</ele><time>2026-04-25T08:14:25.918Z</time></trkpt><trkpt lat="41.8717528" lon="1.9690294"><ele>379.0</ele><time>2026-04-25T08:14:26.919Z</time></trkpt><trkpt lat="41.8718097" lon="1.9689552"><ele>380.0</ele><time>2026-04-25T08:14:27.919Z</time></trkpt><trkpt lat="41.8718684" lon="1.968881"><ele>381.0</ele><time>2026-04-25T08:14:28.918Z</time></trkpt><trkpt lat="41.8719277" lon="1.9688078"><ele>382.0</ele><time>2026-04-25T08:14:29.919Z</time></trkpt><trkpt lat="41.8719765" lon="1.968745"><ele>383.0</ele><time>2026-04-25T08:14:30.919Z</time></trkpt><trkpt lat="41.872056" lon="1.9686407"><ele>384.0</ele><time>2026-04-25T08:14:32.918Z</time></trkpt><trkpt lat="41.8721267" lon="1.9685489"><ele>384.0</ele><time>2026-04-25T08:14:34.918Z</time></trkpt><trkpt lat="41.8722033" lon="1.968458"><ele>384.0</ele><time>2026-04-25T08:14:36.919Z</time></trkpt><trkpt lat="41.8723028" lon="1.9683653"><ele>384.0</ele><time>2026-04-25T08:14:38.919Z</time></trkpt><trkpt lat="41.8724258" lon="1.9682736"><ele>384.0</ele><time>2026-04-25T08:14:40.919Z</time></trkpt><trkpt lat="41.8725117" lon="1.9682189"><ele>383.0</ele><time>2026-04-25T08:14:41.92Z</time></trkpt><trkpt lat="41.8726065" lon="1.968168"><ele>382.0</ele><time>2026-04-25T08:14:42.919Z</time></trkpt><trkpt lat="41.8727137" lon="1.9681145"><ele>381.0</ele><time>2026-04-25T08:14:43.919Z</time></trkpt><trkpt lat="41.8728335" lon="1.9680658"><ele>380.0</ele><time>2026-04-25T08:14:44.919Z</time></trkpt><trkpt lat="41.8729564" lon="1.9680274"><ele>380.0</ele><time>2026-04-25T08:14:45.919Z</time></trkpt><trkpt lat="41.8730873" lon="1.9680014"><ele>380.0</ele><time>2026-04-25T08:14:46.919Z</time></trkpt><trkpt lat="41.8732163" lon="1.9679502"><ele>380.0</ele><time>2026-04-25T08:14:47.92Z</time></trkpt><trkpt lat="41.8733369" lon="1.9678545"><ele>380.0</ele><time>2026-04-25T08:14:48.92Z</time></trkpt><trkpt lat="41.8734485" lon="1.9677186"><ele>382.0</ele><time>2026-04-25T08:14:49.919Z</time></trkpt><trkpt lat="41.8735405" lon="1.9675396"><ele>384.0</ele><time>2026-04-25T08:14:50.919Z</time></trkpt><trkpt lat="41.8736297" lon="1.9673334"><ele>386.0</ele><time>2026-04-25T08:14:51.918Z</time></trkpt><trkpt lat="41.8737379" lon="1.9671279"><ele>386.0</ele><time>2026-04-25T08:14:52.919Z</time></trkpt><trkpt lat="41.8738497" lon="1.9669304"><ele>386.0</ele><time>2026-04-25T08:14:53.918Z</time></trkpt><trkpt lat="41.873959" lon="1.9667213"><ele>386.0</ele><time>2026-04-25T08:14:54.917Z</time></trkpt><trkpt lat="41.8740706" lon="1.9665179"><ele>385.3333333333333</ele><time>2026-04-25T08:14:55.918Z</time></trkpt><trkpt lat="41.874185" lon="1.9663324"><ele>384.66666666666663</ele><time>2026-04-25T08:14:56.918Z</time></trkpt><trkpt lat="41.8743126" lon="1.9661539"><ele>384.0</ele><time>2026-04-25T08:14:57.916Z</time></trkpt><trkpt lat="41.8744608" lon="1.9659924"><ele>386.33333333333337</ele><time>2026-04-25T08:14:58.918Z</time></trkpt><trkpt lat="41.8746238" lon="1.9658499"><ele>388.6666666666667</ele><time>2026-04-25T08:14:59.916Z</time></trkpt><trkpt lat="41.8747829" lon="1.9657089"><ele>391.0</ele><time>2026-04-25T08:15:00.918Z</time></trkpt><trkpt lat="41.8749271" lon="1.9655394"><ele>391.0</ele><time>2026-04-25T08:15:01.917Z</time></trkpt><trkpt lat="41.8750629" lon="1.9653459"><ele>391.0</ele><time>2026-04-25T08:15:02.917Z</time></trkpt><trkpt lat="41.8752002" lon="1.9651465"><ele>391.0</ele><time>2026-04-25T08:15:03.917Z</time></trkpt><trkpt lat="41.875325" lon="1.9649721"><ele>392.6666666666667</ele><time>2026-04-25T08:15:04.918Z</time></trkpt><trkpt lat="41.8754426" lon="1.9648244"><ele>394.33333333333337</ele><time>2026-04-25T08:15:05.918Z</time></trkpt><trkpt lat="41.8755763" lon="1.9647079"><ele>396.0</ele><time>2026-04-25T08:15:06.917Z</time></trkpt><trkpt lat="41.8757263" lon="1.9646202"><ele>396.0</ele><time>2026-04-25T08:15:07.917Z</time></trkpt><trkpt lat="41.8758814" lon="1.9645634"><ele>396.0</ele><time>2026-04-25T08:15:08.917Z</time></trkpt><trkpt lat="41.8760285" lon="1.9645002"><ele>396.0</ele><time>2026-04-25T08:15:09.916Z</time></trkpt><trkpt lat="41.8761731" lon="1.9644031"><ele>394.66666666666663</ele><time>2026-04-25T08:15:10.917Z</time></trkpt><trkpt lat="41.8763107" lon="1.964261"><ele>393.3333333333333</ele><time>2026-04-25T08:15:11.918Z</time></trkpt><trkpt lat="41.8764427" lon="1.9640876"><ele>392.0</ele><time>2026-04-25T08:15:12.917Z</time></trkpt><trkpt lat="41.876557" lon="1.9638849"><ele>392.0</ele><time>2026-04-25T08:15:13.917Z</time></trkpt><trkpt lat="41.8766499" lon="1.9636616"><ele>392.0</ele><time>2026-04-25T08:15:14.918Z</time></trkpt><trkpt lat="41.8767316" lon="1.9634392"><ele>392.0</ele><time>2026-04-25T08:15:15.918Z</time></trkpt><trkpt lat="41.876822" lon="1.9632245"><ele>395.66666666666663</ele><time>2026-04-25T08:15:16.918Z</time></trkpt><trkpt lat="41.8769367" lon="1.963025"><ele>399.33333333333337</ele><time>2026-04-25T08:15:17.917Z</time></trkpt><trkpt lat="41.8770772" lon="1.9628461"><ele>403.0</ele><time>2026-04-25T08:15:18.917Z</time></trkpt><trkpt lat="41.8772275" lon="1.9626677"><ele>401.6666666666667</ele><time>2026-04-25T08:15:19.916Z</time></trkpt><trkpt lat="41.8773669" lon="1.9624855"><ele>400.33333333333337</ele><time>2026-04-25T08:15:20.916Z</time></trkpt><trkpt lat="41.8774898" lon="1.9623013"><ele>399.0</ele><time>2026-04-25T08:15:21.916Z</time></trkpt><trkpt lat="41.877605" lon="1.9621387"><ele>402.66666666666663</ele><time>2026-04-25T08:15:22.917Z</time></trkpt><trkpt lat="41.8777358" lon="1.962006"><ele>406.3333333333333</ele><time>2026-04-25T08:15:23.918Z</time></trkpt><trkpt lat="41.8778893" lon="1.9619112"><ele>410.0</ele><time>2026-04-25T08:15:24.917Z</time></trkpt><trkpt lat="41.8780551" lon="1.9618513"><ele>410.0</ele><time>2026-04-25T08:15:25.918Z</time></trkpt><trkpt lat="41.8782397" lon="1.9618453"><ele>410.0</ele><time>2026-04-25T08:15:26.917Z</time></trkpt><trkpt lat="41.8784297" lon="1.9618687"><ele>410.0</ele><time>2026-04-25T08:15:27.917Z</time></trkpt><trkpt lat="41.8786211" lon="1.9618997"><ele>412.66666666666663</ele><time>2026-04-25T08:15:28.917Z</time></trkpt><trkpt lat="41.8788166" lon="1.9619121"><ele>415.33333333333337</ele><time>2026-04-25T08:15:29.917Z</time></trkpt><trkpt lat="41.8790149" lon="1.9618569"><ele>418.0</ele><time>2026-04-25T08:15:30.917Z</time></trkpt><trkpt lat="41.87922" lon="1.9617685"><ele>414.0</ele><time>2026-04-25T08:15:31.917Z</time></trkpt><trkpt lat="41.8794309" lon="1.9616638"><ele>410.0</ele><time>2026-04-25T08:15:32.917Z</time></trkpt><trkpt lat="41.8796451" lon="1.961555"><ele>410.0</ele><time>2026-04-25T08:15:33.916Z</time></trkpt><trkpt lat="41.8798612" lon="1.9614498"><ele>410.0</ele><time>2026-04-25T08:15:34.917Z</time></trkpt><trkpt lat="41.8800788" lon="1.9613469"><ele>412.3333333333333</ele><time>2026-04-25T08:15:35.918Z</time></trkpt><trkpt lat="41.8802843" lon="1.9612471"><ele>414.66666666666663</ele><time>2026-04-25T08:15:36.917Z</time></trkpt><trkpt lat="41.8804778" lon="1.9611467"><ele>417.0</ele><time>2026-04-25T08:15:37.917Z</time></trkpt><trkpt lat="41.8806637" lon="1.9610249"><ele>414.66666666666663</ele><time>2026-04-25T08:15:38.918Z</time></trkpt><trkpt lat="41.8808315" lon="1.9608604"><ele>412.3333333333333</ele><time>2026-04-25T08:15:39.917Z</time></trkpt><trkpt lat="41.8809826" lon="1.9606549"><ele>410.0</ele><time>2026-04-25T08:15:40.917Z</time></trkpt><trkpt lat="41.8811126" lon="1.9604207"><ele>410.0</ele><time>2026-04-25T08:15:41.916Z</time></trkpt><trkpt lat="41.88123" lon="1.9601744"><ele>410.0</ele><time>2026-04-25T08:15:42.917Z</time></trkpt><trkpt lat="41.881348" lon="1.9599399"><ele>410.0</ele><time>2026-04-25T08:15:43.917Z</time></trkpt><trkpt lat="41.8814876" lon="1.9597356"><ele>410.3333333333333</ele><time>2026-04-25T08:15:44.917Z</time></trkpt><trkpt lat="41.8816565" lon="1.9595605"><ele>410.66666666666663</ele><time>2026-04-25T08:15:45.918Z</time></trkpt><trkpt lat="41.8818382" lon="1.9593958"><ele>411.0</ele><time>2026-04-25T08:15:46.917Z</time></trkpt><trkpt lat="41.8820249" lon="1.9592205"><ele>415.0</ele><time>2026-04-25T08:15:47.917Z</time></trkpt><trkpt lat="41.8821981" lon="1.9590175"><ele>419.0</ele><time>2026-04-25T08:15:48.917Z</time></trkpt><trkpt lat="41.8823619" lon="1.9588074"><ele>419.0</ele><time>2026-04-25T08:15:49.917Z</time></trkpt><trkpt lat="41.8825359" lon="1.9586176"><ele>419.0</ele><time>2026-04-25T08:15:50.918Z</time></trkpt><trkpt lat="41.8827323" lon="1.9584566"><ele>420.5</ele><time>2026-04-25T08:15:51.916Z</time></trkpt><trkpt lat="41.882933" lon="1.9583039"><ele>422.0</ele><time>2026-04-25T08:15:52.918Z</time></trkpt><trkpt lat="41.8831359" lon="1.9581527"><ele>422.0</ele><time>2026-04-25T08:15:53.917Z</time></trkpt><trkpt lat="41.8833373" lon="1.958004"><ele>422.0</ele><time>2026-04-25T08:15:54.916Z</time></trkpt><trkpt lat="41.8835351" lon="1.9578685"><ele>425.66666666666663</ele><time>2026-04-25T08:15:55.917Z</time></trkpt><trkpt lat="41.8837247" lon="1.9577707"><ele>429.33333333333337</ele><time>2026-04-25T08:15:56.918Z</time></trkpt><trkpt lat="41.8839054" lon="1.957692"><ele>433.0</ele><time>2026-04-25T08:15:57.918Z</time></trkpt><trkpt lat="41.8840733" lon="1.957578"><ele>434.6666666666667</ele><time>2026-04-25T08:15:58.918Z</time></trkpt><trkpt lat="41.8842388" lon="1.9574318"><ele>436.33333333333337</ele><time>2026-04-25T08:15:59.918Z</time></trkpt><trkpt lat="41.8844086" lon="1.957276"><ele>438.0</ele><time>2026-04-25T08:16:00.917Z</time></trkpt><trkpt lat="41.8845822" lon="1.957128"><ele>438.0</ele><time>2026-04-25T08:16:01.917Z</time></trkpt><trkpt lat="41.8847636" lon="1.9570232"><ele>438.0</ele><time>2026-04-25T08:16:02.917Z</time></trkpt><trkpt lat="41.8849576" lon="1.956958"><ele>438.0</ele><time>2026-04-25T08:16:03.917Z</time></trkpt><trkpt lat="41.8851739" lon="1.9569239"><ele>437.66666666666663</ele><time>2026-04-25T08:16:04.917Z</time></trkpt><trkpt lat="41.8853946" lon="1.9568907"><ele>437.3333333333333</ele><time>2026-04-25T08:16:05.917Z</time></trkpt><trkpt lat="41.8856193" lon="1.9568639"><ele>437.0</ele><time>2026-04-25T08:16:06.917Z</time></trkpt><trkpt lat="41.885856" lon="1.9568295"><ele>437.5</ele><time>2026-04-25T08:16:07.917Z</time></trkpt><trkpt lat="41.8860938" lon="1.9567919"><ele>438.0</ele><time>2026-04-25T08:16:08.916Z</time></trkpt><trkpt lat="41.8863345" lon="1.956751"><ele>438.0</ele><time>2026-04-25T08:16:09.916Z</time></trkpt><trkpt lat="41.8865711" lon="1.9567102"><ele>438.0</ele><time>2026-04-25T08:16:10.918Z</time></trkpt><trkpt lat="41.8868039" lon="1.956674"><ele>438.5</ele><time>2026-04-25T08:16:11.916Z</time></trkpt><trkpt lat="41.8870317" lon="1.9566401"><ele>439.0</ele><time>2026-04-25T08:16:12.917Z</time></trkpt><trkpt lat="41.8872523" lon="1.9566083"><ele>439.0</ele><time>2026-04-25T08:16:13.917Z</time></trkpt><trkpt lat="41.8874598" lon="1.956578"><ele>439.0</ele><time>2026-04-25T08:16:14.917Z</time></trkpt><trkpt lat="41.8876485" lon="1.9565519"><ele>439.0</ele><time>2026-04-25T08:16:15.918Z</time></trkpt><trkpt lat="41.8878264" lon="1.9565258"><ele>442.6666666666667</ele><time>2026-04-25T08:16:16.917Z</time></trkpt><trkpt lat="41.8879973" lon="1.9564994"><ele>446.33333333333337</ele><time>2026-04-25T08:16:17.918Z</time></trkpt><trkpt lat="41.8881526" lon="1.9564684"><ele>450.0</ele><time>2026-04-25T08:16:18.916Z</time></trkpt><trkpt lat="41.8883011" lon="1.9564056"><ele>450.0</ele><time>2026-04-25T08:16:19.917Z</time></trkpt><trkpt lat="41.8884186" lon="1.9563168"><ele>450.0</ele><time>2026-04-25T08:16:20.917Z</time></trkpt><trkpt lat="41.8885085" lon="1.9562006"><ele>450.0</ele><time>2026-04-25T08:16:21.918Z</time></trkpt><trkpt lat="41.8885548" lon="1.9560714"><ele>450.0</ele><time>2026-04-25T08:16:22.917Z</time></trkpt><trkpt lat="41.8885626" lon="1.9559361"><ele>450.25</ele><time>2026-04-25T08:16:23.917Z</time></trkpt><trkpt lat="41.8885304" lon="1.9558123"><ele>450.5</ele><time>2026-04-25T08:16:24.917Z</time></trkpt><trkpt lat="41.888468" lon="1.9556918"><ele>450.75</ele><time>2026-04-25T08:16:25.918Z</time></trkpt><trkpt lat="41.888388" lon="1.9555544"><ele>451.0</ele><time>2026-04-25T08:16:26.916Z</time></trkpt><trkpt lat="41.8883245" lon="1.955392"><ele>451.0</ele><time>2026-04-25T08:16:27.917Z</time></trkpt><trkpt lat="41.8882887" lon="1.9552155"><ele>451.0</ele><time>2026-04-25T08:16:28.917Z</time></trkpt><trkpt lat="41.8882904" lon="1.9550189"><ele>451.0</ele><time>2026-04-25T08:16:29.917Z</time></trkpt><trkpt lat="41.8883201" lon="1.9548188"><ele>451.0</ele><time>2026-04-25T08:16:30.918Z</time></trkpt><trkpt lat="41.8883752" lon="1.954617"><ele>456.6666666666667</ele><time>2026-04-25T08:16:31.918Z</time></trkpt><trkpt lat="41.8884571" lon="1.954429"><ele>462.33333333333337</ele><time>2026-04-25T08:16:32.917Z</time></trkpt><trkpt lat="41.8885661" lon="1.9542607"><ele>468.0</ele><time>2026-04-25T08:16:33.917Z</time></trkpt><trkpt lat="41.8886941" lon="1.9541034"><ele>469.66666666666663</ele><time>2026-04-25T08:16:34.918Z</time></trkpt><trkpt lat="41.8888286" lon="1.9539484"><ele>471.3333333333333</ele><time>2026-04-25T08:16:35.918Z</time></trkpt><trkpt lat="41.88896" lon="1.9537942"><ele>473.0</ele><time>2026-04-25T08:16:36.917Z</time></trkpt><trkpt lat="41.8890803" lon="1.9536494"><ele>473.0</ele><time>2026-04-25T08:16:37.917Z</time></trkpt><trkpt lat="41.8891916" lon="1.9535149"><ele>473.0</ele><time>2026-04-25T08:16:38.916Z</time></trkpt><trkpt lat="41.8892825" lon="1.9533682"><ele>473.0</ele><time>2026-04-25T08:16:39.918Z</time></trkpt><trkpt lat="41.8893455" lon="1.9532121"><ele>473.0</ele><time>2026-04-25T08:16:40.917Z</time></trkpt><trkpt lat="41.8893584" lon="1.9530449"><ele>472.5</ele><time>2026-04-25T08:16:41.918Z</time></trkpt><trkpt lat="41.8893229" lon="1.952876"><ele>472.0</ele><time>2026-04-25T08:16:42.917Z</time></trkpt><trkpt lat="41.8892585" lon="1.9527102"><ele>471.5</ele><time>2026-04-25T08:16:43.917Z</time></trkpt><trkpt lat="41.8892145" lon="1.9525385"><ele>471.0</ele><time>2026-04-25T08:16:44.918Z</time></trkpt><trkpt lat="41.8892085" lon="1.9523588"><ele>471.0</ele><time>2026-04-25T08:16:45.918Z</time></trkpt><trkpt lat="41.8892164" lon="1.9521908"><ele>471.0</ele><time>2026-04-25T08:16:46.916Z</time></trkpt><trkpt lat="41.8892086" lon="1.9520436"><ele>471.0</ele><time>2026-04-25T08:16:47.917Z</time></trkpt><trkpt lat="41.889166" lon="1.9519132"><ele>471.0</ele><time>2026-04-25T08:16:48.917Z</time></trkpt><trkpt lat="41.8890858" lon="1.9518265"><ele>471.0</ele><time>2026-04-25T08:16:49.917Z</time></trkpt><trkpt lat="41.8889793" lon="1.9517912"><ele>471.0</ele><time>2026-04-25T08:16:50.918Z</time></trkpt><trkpt lat="41.8888623" lon="1.9518159"><ele>471.0</ele><time>2026-04-25T08:16:51.916Z</time></trkpt><trkpt lat="41.8887346" lon="1.951875"><ele>471.0</ele><time>2026-04-25T08:16:52.916Z</time></trkpt><trkpt lat="41.8885959" lon="1.9519401"><ele>471.0</ele><time>2026-04-25T08:16:53.917Z</time></trkpt><trkpt lat="41.8884615" lon="1.9519991"><ele>470.6</ele><time>2026-04-25T08:16:54.917Z</time></trkpt><trkpt lat="41.8883391" lon="1.9520171"><ele>470.20000000000005</ele><time>2026-04-25T08:16:55.917Z</time></trkpt><trkpt lat="41.88823" lon="1.9519776"><ele>469.79999999999995</ele><time>2026-04-25T08:16:56.917Z</time></trkpt><trkpt lat="41.8881472" lon="1.9518921"><ele>469.4</ele><time>2026-04-25T08:16:57.917Z</time></trkpt><trkpt lat="41.8880919" lon="1.951774"><ele>469.0</ele><time>2026-04-25T08:16:58.917Z</time></trkpt><trkpt lat="41.8880482" lon="1.951621"><ele>472.5</ele><time>2026-04-25T08:16:59.916Z</time></trkpt><trkpt lat="41.8880148" lon="1.9514494"><ele>476.0</ele><time>2026-04-25T08:17:00.917Z</time></trkpt><trkpt lat="41.8880091" lon="1.9512711"><ele>479.5</ele><time>2026-04-25T08:17:01.917Z</time></trkpt><trkpt lat="41.88803" lon="1.951103"><ele>483.0</ele><time>2026-04-25T08:17:02.917Z</time></trkpt><trkpt lat="41.8880339" lon="1.9509515"><ele>485.2</ele><time>2026-04-25T08:17:03.916Z</time></trkpt><trkpt lat="41.8880108" lon="1.9508109"><ele>487.4</ele><time>2026-04-25T08:17:04.918Z</time></trkpt><trkpt lat="41.8879488" lon="1.9506891"><ele>489.59999999999997</ele><time>2026-04-25T08:17:05.917Z</time></trkpt><trkpt lat="41.8878561" lon="1.9506147"><ele>491.79999999999995</ele><time>2026-04-25T08:17:06.917Z</time></trkpt><trkpt lat="41.8877383" lon="1.9505972"><ele>494.0</ele><time>2026-04-25T08:17:07.918Z</time></trkpt><trkpt lat="41.8876177" lon="1.9506115"><ele>492.75</ele><time>2026-04-25T08:17:08.917Z</time></trkpt><trkpt lat="41.8875001" lon="1.9505824"><ele>491.5</ele><time>2026-04-25T08:17:09.918Z</time></trkpt><trkpt lat="41.8873852" lon="1.9505054"><ele>490.25</ele><time>2026-04-25T08:17:10.916Z</time></trkpt><trkpt lat="41.8872645" lon="1.9504152"><ele>489.0</ele><time>2026-04-25T08:17:11.917Z</time></trkpt><trkpt lat="41.8871406" lon="1.9503265"><ele>489.0</ele><time>2026-04-25T08:17:12.916Z</time></trkpt><trkpt lat="41.8870255" lon="1.9502374"><ele>489.0</ele><time>2026-04-25T08:17:13.917Z</time></trkpt><trkpt lat="41.8869421" lon="1.9501321"><ele>489.0</ele><time>2026-04-25T08:17:14.918Z</time></trkpt><trkpt lat="41.8868934" lon="1.9500108"><ele>489.0</ele><time>2026-04-25T08:17:15.917Z</time></trkpt><trkpt lat="41.8868939" lon="1.9498705"><ele>492.25</ele><time>2026-04-25T08:17:16.917Z</time></trkpt><trkpt lat="41.8869267" lon="1.9497176"><ele>495.5</ele><time>2026-04-25T08:17:17.918Z</time></trkpt><trkpt lat="41.8869755" lon="1.9495543"><ele>498.75</ele><time>2026-04-25T08:17:18.917Z</time></trkpt><trkpt lat="41.887033" lon="1.9493823"><ele>502.0</ele><time>2026-04-25T08:17:19.918Z</time></trkpt><trkpt lat="41.887113" lon="1.949227"><ele>501.5</ele><time>2026-04-25T08:17:20.918Z</time></trkpt><trkpt lat="41.8872157" lon="1.9491001"><ele>501.0</ele><time>2026-04-25T08:17:21.917Z</time></trkpt><trkpt lat="41.8873367" lon="1.9490028"><ele>500.5</ele><time>2026-04-25T08:17:22.917Z</time></trkpt><trkpt lat="41.8874675" lon="1.948917"><ele>500.0</ele><time>2026-04-25T08:17:23.916Z</time></trkpt><trkpt lat="41.8875873" lon="1.9488396"><ele>504.0</ele><time>2026-04-25T08:17:24.918Z</time></trkpt><trkpt lat="41.8876956" lon="1.9487524"><ele>508.0</ele><time>2026-04-25T08:17:25.916Z</time></trkpt><trkpt lat="41.8877761" lon="1.9486317"><ele>512.0</ele><time>2026-04-25T08:17:26.917Z</time></trkpt><trkpt lat="41.8878254" lon="1.948476"><ele>516.0</ele><time>2026-04-25T08:17:27.917Z</time></trkpt><trkpt lat="41.8878284" lon="1.9483078"><ele>516.0</ele><time>2026-04-25T08:17:28.916Z</time></trkpt><trkpt lat="41.8877828" lon="1.9481375"><ele>516.0</ele><time>2026-04-25T08:17:29.917Z</time></trkpt><trkpt lat="41.8876963" lon="1.9479869"><ele>516.0</ele><time>2026-04-25T08:17:30.918Z</time></trkpt><trkpt lat="41.8875964" lon="1.9478556"><ele>516.0</ele><time>2026-04-25T08:17:31.917Z</time></trkpt><trkpt lat="41.8875002" lon="1.947711"><ele>510.33333333333337</ele><time>2026-04-25T08:17:32.918Z</time></trkpt><trkpt lat="41.8874238" lon="1.9475379"><ele>504.6666666666667</ele><time>2026-04-25T08:17:33.917Z</time></trkpt><trkpt lat="41.8873767" lon="1.9473415"><ele>499.0</ele><time>2026-04-25T08:17:34.916Z</time></trkpt><trkpt lat="41.8873652" lon="1.9471266"><ele>499.0</ele><time>2026-04-25T08:17:35.917Z</time></trkpt><trkpt lat="41.887365" lon="1.9469184"><ele>499.0</ele><time>2026-04-25T08:17:36.918Z</time></trkpt><trkpt lat="41.8873376" lon="1.9467213"><ele>499.0</ele><time>2026-04-25T08:17:37.917Z</time></trkpt><trkpt lat="41.8872759" lon="1.9465361"><ele>500.75</ele><time>2026-04-25T08:17:38.917Z</time></trkpt><trkpt lat="41.8872112" lon="1.9463709"><ele>502.5</ele><time>2026-04-25T08:17:39.918Z</time></trkpt><trkpt lat="41.8871801" lon="1.9462065"><ele>504.25</ele><time>2026-04-25T08:17:40.916Z</time></trkpt><trkpt lat="41.8871805" lon="1.9460313"><ele>506.0</ele><time>2026-04-25T08:17:41.917Z</time></trkpt><trkpt lat="41.8872199" lon="1.9458539"><ele>507.0</ele><time>2026-04-25T08:17:42.916Z</time></trkpt><trkpt lat="41.8872654" lon="1.9456724"><ele>508.0</ele><time>2026-04-25T08:17:43.917Z</time></trkpt><trkpt lat="41.8872733" lon="1.9454811"><ele>509.0</ele><time>2026-04-25T08:17:44.918Z</time></trkpt><trkpt lat="41.8872432" lon="1.9452854"><ele>510.0</ele><time>2026-04-25T08:17:45.918Z</time></trkpt><trkpt lat="41.8872074" lon="1.9450893"><ele>509.25</ele><time>2026-04-25T08:17:46.917Z</time></trkpt><trkpt lat="41.8872009" lon="1.9448958"><ele>508.5</ele><time>2026-04-25T08:17:47.917Z</time></trkpt><trkpt lat="41.8872323" lon="1.9446995"><ele>507.75</ele><time>2026-04-25T08:17:48.917Z</time></trkpt><trkpt lat="41.8872818" lon="1.9445118"><ele>507.0</ele><time>2026-04-25T08:17:49.917Z</time></trkpt><trkpt lat="41.8873262" lon="1.9443353"><ele>504.75</ele><time>2026-04-25T08:17:50.917Z</time></trkpt><trkpt lat="41.8873565" lon="1.9441604"><ele>502.5</ele><time>2026-04-25T08:17:51.918Z</time></trkpt><trkpt lat="41.8873511" lon="1.94398"><ele>500.25</ele><time>2026-04-25T08:17:52.918Z</time></trkpt><trkpt lat="41.8873084" lon="1.9437909"><ele>498.0</ele><time>2026-04-25T08:17:53.917Z</time></trkpt><trkpt lat="41.8872291" lon="1.9436077"><ele>498.0</ele><time>2026-04-25T08:17:54.916Z</time></trkpt><trkpt lat="41.8871322" lon="1.9434341"><ele>498.0</ele><time>2026-04-25T08:17:55.917Z</time></trkpt><trkpt lat="41.8870439" lon="1.9432693"><ele>498.0</ele><time>2026-04-25T08:17:56.916Z</time></trkpt><trkpt lat="41.886981" lon="1.9431187"><ele>498.0</ele><time>2026-04-25T08:17:57.917Z</time></trkpt><trkpt lat="41.8869528" lon="1.9429794"><ele>496.25</ele><time>2026-04-25T08:17:58.917Z</time></trkpt><trkpt lat="41.8869637" lon="1.9428469"><ele>494.5</ele><time>2026-04-25T08:17:59.917Z</time></trkpt><trkpt lat="41.8870191" lon="1.942725"><ele>492.75</ele><time>2026-04-25T08:18:00.918Z</time></trkpt><trkpt lat="41.887109" lon="1.9426156"><ele>491.0</ele><time>2026-04-25T08:18:01.917Z</time></trkpt><trkpt lat="41.8872059" lon="1.9425068"><ele>488.75</ele><time>2026-04-25T08:18:02.916Z</time></trkpt><trkpt lat="41.8872817" lon="1.9423747"><ele>486.5</ele><time>2026-04-25T08:18:03.917Z</time></trkpt><trkpt lat="41.8873406" lon="1.9422139"><ele>484.25</ele><time>2026-04-25T08:18:04.917Z</time></trkpt><trkpt lat="41.8873694" lon="1.9420423"><ele>482.0</ele><time>2026-04-25T08:18:05.916Z</time></trkpt><trkpt lat="41.8873669" lon="1.9418709"><ele>482.0</ele><time>2026-04-25T08:18:06.917Z</time></trkpt><trkpt lat="41.8873242" lon="1.9417028"><ele>482.0</ele><time>2026-04-25T08:18:07.917Z</time></trkpt><trkpt lat="41.8872388" lon="1.9415493"><ele>482.0</ele><time>2026-04-25T08:18:08.918Z</time></trkpt><trkpt lat="41.8871282" lon="1.9414195"><ele>482.0</ele><time>2026-04-25T08:18:09.916Z</time></trkpt><trkpt lat="41.8869947" lon="1.9413087"><ele>482.0</ele><time>2026-04-25T08:18:10.917Z</time></trkpt><trkpt lat="41.8868514" lon="1.9412181"><ele>482.0</ele><time>2026-04-25T08:18:11.916Z</time></trkpt><trkpt lat="41.8867153" lon="1.9411412"><ele>482.0</ele><time>2026-04-25T08:18:12.918Z</time></trkpt><trkpt lat="41.8865986" lon="1.9410445"><ele>482.0</ele><time>2026-04-25T08:18:13.917Z</time></trkpt><trkpt lat="41.8865113" lon="1.9409133"><ele>478.5</ele><time>2026-04-25T08:18:14.917Z</time></trkpt><trkpt lat="41.8864527" lon="1.9407512"><ele>475.0</ele><time>2026-04-25T08:18:15.917Z</time></trkpt><trkpt lat="41.88642" lon="1.9405615"><ele>471.5</ele><time>2026-04-25T08:18:16.916Z</time></trkpt><trkpt lat="41.8863953" lon="1.9403611"><ele>468.0</ele><time>2026-04-25T08:18:17.917Z</time></trkpt><trkpt lat="41.8863788" lon="1.9401607"><ele>467.5</ele><time>2026-04-25T08:18:18.918Z</time></trkpt><trkpt lat="41.8863745" lon="1.9399719"><ele>467.0</ele><time>2026-04-25T08:18:19.916Z</time></trkpt><trkpt lat="41.8863947" lon="1.9397961"><ele>466.5</ele><time>2026-04-25T08:18:20.917Z</time></trkpt><trkpt lat="41.8864488" lon="1.9396302"><ele>466.0</ele><time>2026-04-25T08:18:21.918Z</time></trkpt><trkpt lat="41.8865283" lon="1.9394867"><ele>466.0</ele><time>2026-04-25T08:18:22.916Z</time></trkpt><trkpt lat="41.8866331" lon="1.939394"><ele>466.0</ele><time>2026-04-25T08:18:23.917Z</time></trkpt><trkpt lat="41.8867572" lon="1.9393512"><ele>466.0</ele><time>2026-04-25T08:18:24.917Z</time></trkpt><trkpt lat="41.8868979" lon="1.9393381"><ele>466.0</ele><time>2026-04-25T08:18:25.917Z</time></trkpt><trkpt lat="41.887046" lon="1.9393234"><ele>467.75</ele><time>2026-04-25T08:18:26.918Z</time></trkpt><trkpt lat="41.8871893" lon="1.939253"><ele>469.5</ele><time>2026-04-25T08:18:27.917Z</time></trkpt><trkpt lat="41.8873163" lon="1.9391586"><ele>471.25</ele><time>2026-04-25T08:18:28.917Z</time></trkpt><trkpt lat="41.8874323" lon="1.9390438"><ele>473.0</ele><time>2026-04-25T08:18:29.917Z</time></trkpt><trkpt lat="41.8875316" lon="1.9388915"><ele>469.66666666666663</ele><time>2026-04-25T08:18:30.917Z</time></trkpt><trkpt lat="41.8876087" lon="1.9387094"><ele>466.33333333333337</ele><time>2026-04-25T08:18:31.916Z</time></trkpt><trkpt lat="41.8876591" lon="1.938506"><ele>463.0</ele><time>2026-04-25T08:18:32.916Z</time></trkpt><trkpt lat="41.8876836" lon="1.9382872"><ele>462.6666666666667</ele><time>2026-04-25T08:18:33.918Z</time></trkpt><trkpt lat="41.8876882" lon="1.93806"><ele>462.33333333333337</ele><time>2026-04-25T08:18:34.918Z</time></trkpt><trkpt lat="41.8876613" lon="1.9378171"><ele>462.0</ele><time>2026-04-25T08:18:35.917Z</time></trkpt><trkpt lat="41.8876109" lon="1.9375724"><ele>456.33333333333337</ele><time>2026-04-25T08:18:36.916Z</time></trkpt><trkpt lat="41.8875523" lon="1.9373239"><ele>450.6666666666667</ele><time>2026-04-25T08:18:37.917Z</time></trkpt><trkpt lat="41.8874901" lon="1.937081"><ele>445.0</ele><time>2026-04-25T08:18:38.917Z</time></trkpt><trkpt lat="41.8874147" lon="1.9368511"><ele>444.6666666666667</ele><time>2026-04-25T08:18:39.917Z</time></trkpt><trkpt lat="41.887314" lon="1.9366404"><ele>444.33333333333337</ele><time>2026-04-25T08:18:40.916Z</time></trkpt><trkpt lat="41.8871862" lon="1.9364543"><ele>444.0</ele><time>2026-04-25T08:18:41.917Z</time></trkpt><trkpt lat="41.8870473" lon="1.9362851"><ele>444.0</ele><time>2026-04-25T08:18:42.917Z</time></trkpt><trkpt lat="41.8869153" lon="1.9361206"><ele>444.0</ele><time>2026-04-25T08:18:43.918Z</time></trkpt><trkpt lat="41.8868" lon="1.9359362"><ele>444.0</ele><time>2026-04-25T08:18:44.917Z</time></trkpt><trkpt lat="41.8867024" lon="1.9357466"><ele>442.0</ele><time>2026-04-25T08:18:45.917Z</time></trkpt><trkpt lat="41.8866191" lon="1.9355586"><ele>440.0</ele><time>2026-04-25T08:18:46.918Z</time></trkpt><trkpt lat="41.8865554" lon="1.9353594"><ele>438.0</ele><time>2026-04-25T08:18:47.917Z</time></trkpt><trkpt lat="41.8865176" lon="1.9351364"><ele>437.33333333333337</ele><time>2026-04-25T08:18:48.917Z</time></trkpt><trkpt lat="41.8864978" lon="1.9348927"><ele>436.6666666666667</ele><time>2026-04-25T08:18:49.918Z</time></trkpt><trkpt lat="41.8864837" lon="1.9346344"><ele>436.0</ele><time>2026-04-25T08:18:50.918Z</time></trkpt><trkpt lat="41.886469" lon="1.9343673"><ele>434.33333333333337</ele><time>2026-04-25T08:18:51.917Z</time></trkpt><trkpt lat="41.8864576" lon="1.9340924"><ele>432.66666666666663</ele><time>2026-04-25T08:18:52.918Z</time></trkpt><trkpt lat="41.8864569" lon="1.9338152"><ele>431.0</ele><time>2026-04-25T08:18:53.917Z</time></trkpt><trkpt lat="41.8864702" lon="1.9335432"><ele>429.0</ele><time>2026-04-25T08:18:54.916Z</time></trkpt><trkpt lat="41.8864811" lon="1.9332733"><ele>427.0</ele><time>2026-04-25T08:18:55.916Z</time></trkpt><trkpt lat="41.8864861" lon="1.9330072"><ele>425.0</ele><time>2026-04-25T08:18:56.918Z</time></trkpt><trkpt lat="41.8864783" lon="1.9327487"><ele>423.3333333333333</ele><time>2026-04-25T08:18:57.917Z</time></trkpt><trkpt lat="41.8864582" lon="1.9325018"><ele>421.66666666666663</ele><time>2026-04-25T08:18:58.917Z</time></trkpt><trkpt lat="41.8864381" lon="1.9322825"><ele>420.0</ele><time>2026-04-25T08:18:59.916Z</time></trkpt><trkpt lat="41.886416" lon="1.9320907"><ele>420.0</ele><time>2026-04-25T08:19:00.917Z</time></trkpt><trkpt lat="41.8863674" lon="1.9319054"><ele>420.0</ele><time>2026-04-25T08:19:01.917Z</time></trkpt><trkpt lat="41.8862869" lon="1.9317314"><ele>420.0</ele><time>2026-04-25T08:19:02.917Z</time></trkpt><trkpt lat="41.8861788" lon="1.9315817"><ele>420.66666666666663</ele><time>2026-04-25T08:19:03.917Z</time></trkpt><trkpt lat="41.8860436" lon="1.9314614"><ele>421.3333333333333</ele><time>2026-04-25T08:19:04.917Z</time></trkpt><trkpt lat="41.8858853" lon="1.9313786"><ele>422.0</ele><time>2026-04-25T08:19:05.917Z</time></trkpt><trkpt lat="41.8857201" lon="1.9313201"><ele>422.0</ele><time>2026-04-25T08:19:06.918Z</time></trkpt><trkpt lat="41.8855432" lon="1.9312756"><ele>422.0</ele><time>2026-04-25T08:19:07.917Z</time></trkpt><trkpt lat="41.8853638" lon="1.9312559"><ele>422.0</ele><time>2026-04-25T08:19:08.916Z</time></trkpt><trkpt lat="41.8851851" lon="1.9312755"><ele>421.66666666666663</ele><time>2026-04-25T08:19:09.917Z</time></trkpt><trkpt lat="41.8850114" lon="1.9313217"><ele>421.33333333333337</ele><time>2026-04-25T08:19:10.917Z</time></trkpt><trkpt lat="41.8848449" lon="1.9313486"><ele>421.0</ele><time>2026-04-25T08:19:11.917Z</time></trkpt><trkpt lat="41.8846954" lon="1.9313239"><ele>421.0</ele><time>2026-04-25T08:19:12.917Z</time></trkpt><trkpt lat="41.8845532" lon="1.9312501"><ele>421.0</ele><time>2026-04-25T08:19:13.916Z</time></trkpt><trkpt lat="41.8844223" lon="1.9311343"><ele>421.0</ele><time>2026-04-25T08:19:14.917Z</time></trkpt><trkpt lat="41.8843049" lon="1.9309666"><ele>422.6666666666667</ele><time>2026-04-25T08:19:15.917Z</time></trkpt><trkpt lat="41.884189" lon="1.9307835"><ele>424.33333333333337</ele><time>2026-04-25T08:19:16.917Z</time></trkpt><trkpt lat="41.8840591" lon="1.9306079"><ele>426.0</ele><time>2026-04-25T08:19:17.917Z</time></trkpt><trkpt lat="41.8839114" lon="1.9304512"><ele>426.0</ele><time>2026-04-25T08:19:18.918Z</time></trkpt><trkpt lat="41.8837514" lon="1.9303082"><ele>426.0</ele><time>2026-04-25T08:19:19.917Z</time></trkpt><trkpt lat="41.883588" lon="1.9301639"><ele>426.0</ele><time>2026-04-25T08:19:20.917Z</time></trkpt><trkpt lat="41.8834258" lon="1.9300214"><ele>427.0</ele><time>2026-04-25T08:19:21.916Z</time></trkpt><trkpt lat="41.8832768" lon="1.9298795"><ele>428.0</ele><time>2026-04-25T08:19:22.917Z</time></trkpt><trkpt lat="41.8831366" lon="1.9297292"><ele>429.0</ele><time>2026-04-25T08:19:23.917Z</time></trkpt><trkpt lat="41.8830038" lon="1.9295551"><ele>429.0</ele><time>2026-04-25T08:19:24.917Z</time></trkpt><trkpt lat="41.8828795" lon="1.9293523"><ele>429.0</ele><time>2026-04-25T08:19:25.917Z</time></trkpt><trkpt lat="41.8827674" lon="1.9291261"><ele>429.0</ele><time>2026-04-25T08:19:26.917Z</time></trkpt><trkpt lat="41.8826723" lon="1.9288972"><ele>428.66666666666663</ele><time>2026-04-25T08:19:27.916Z</time></trkpt><trkpt lat="41.8825802" lon="1.9286725"><ele>428.3333333333333</ele><time>2026-04-25T08:19:28.917Z</time></trkpt><trkpt lat="41.8824675" lon="1.9284574"><ele>428.0</ele><time>2026-04-25T08:19:29.916Z</time></trkpt><trkpt lat="41.8823267" lon="1.9282598"><ele>428.0</ele><time>2026-04-25T08:19:30.918Z</time></trkpt><trkpt lat="41.8821661" lon="1.928074"><ele>428.0</ele><time>2026-04-25T08:19:31.917Z</time></trkpt><trkpt lat="41.8819956" lon="1.9278879"><ele>428.0</ele><time>2026-04-25T08:19:32.916Z</time></trkpt><trkpt lat="41.8818204" lon="1.9276955"><ele>428.5</ele><time>2026-04-25T08:19:33.917Z</time></trkpt><trkpt lat="41.8816416" lon="1.9275008"><ele>429.0</ele><time>2026-04-25T08:19:34.917Z</time></trkpt><trkpt lat="41.8814598" lon="1.9273046"><ele>429.0</ele><time>2026-04-25T08:19:35.917Z</time></trkpt><trkpt lat="41.8812771" lon="1.927107"><ele>429.0</ele><time>2026-04-25T08:19:36.918Z</time></trkpt><trkpt lat="41.8810972" lon="1.9269124"><ele>428.66666666666663</ele><time>2026-04-25T08:19:37.917Z</time></trkpt><trkpt lat="41.8809261" lon="1.9267255"><ele>428.3333333333333</ele><time>2026-04-25T08:19:38.917Z</time></trkpt><trkpt lat="41.8807699" lon="1.9265512"><ele>428.0</ele><time>2026-04-25T08:19:39.917Z</time></trkpt><trkpt lat="41.8806316" lon="1.9263808"><ele>428.0</ele><time>2026-04-25T08:19:40.917Z</time></trkpt><trkpt lat="41.8805029" lon="1.9261905"><ele>428.0</ele><time>2026-04-25T08:19:41.918Z</time></trkpt><trkpt lat="41.8803815" lon="1.9259712"><ele>428.0</ele><time>2026-04-25T08:19:42.917Z</time></trkpt><trkpt lat="41.8802637" lon="1.9257387"><ele>427.66666666666663</ele><time>2026-04-25T08:19:43.917Z</time></trkpt><trkpt lat="41.8801464" lon="1.9254991"><ele>427.33333333333337</ele><time>2026-04-25T08:19:44.917Z</time></trkpt><trkpt lat="41.8800273" lon="1.9252607"><ele>427.0</ele><time>2026-04-25T08:19:45.917Z</time></trkpt><trkpt lat="41.8799144" lon="1.9250248"><ele>427.0</ele><time>2026-04-25T08:19:46.917Z</time></trkpt><trkpt lat="41.8798122" lon="1.9247928"><ele>427.0</ele><time>2026-04-25T08:19:47.917Z</time></trkpt><trkpt lat="41.8797275" lon="1.9245549"><ele>427.0</ele><time>2026-04-25T08:19:48.918Z</time></trkpt><trkpt lat="41.87966" lon="1.9243019"><ele>427.33333333333337</ele><time>2026-04-25T08:19:49.916Z</time></trkpt><trkpt lat="41.8796027" lon="1.9240359"><ele>427.66666666666663</ele><time>2026-04-25T08:19:50.917Z</time></trkpt><trkpt lat="41.8795437" lon="1.9237646"><ele>428.0</ele><time>2026-04-25T08:19:51.917Z</time></trkpt><trkpt lat="41.8794813" lon="1.9234929"><ele>427.3333333333333</ele><time>2026-04-25T08:19:52.916Z</time></trkpt><trkpt lat="41.8794208" lon="1.9232203"><ele>426.66666666666663</ele><time>2026-04-25T08:19:53.917Z</time></trkpt><trkpt lat="41.8793615" lon="1.9229522"><ele>426.0</ele><time>2026-04-25T08:19:54.916Z</time></trkpt><trkpt lat="41.8792998" lon="1.9226888"><ele>422.66666666666663</ele><time>2026-04-25T08:19:55.917Z</time></trkpt><trkpt lat="41.8792425" lon="1.9224314"><ele>419.3333333333333</ele><time>2026-04-25T08:19:56.917Z</time></trkpt><trkpt lat="41.8791828" lon="1.9221799"><ele>416.0</ele><time>2026-04-25T08:19:57.916Z</time></trkpt><trkpt lat="41.8791222" lon="1.921944"><ele>414.3333333333333</ele><time>2026-04-25T08:19:58.917Z</time></trkpt><trkpt lat="41.8790514" lon="1.9217268"><ele>412.66666666666663</ele><time>2026-04-25T08:19:59.917Z</time></trkpt><trkpt lat="41.8789694" lon="1.9215282"><ele>411.0</ele><time>2026-04-25T08:20:00.916Z</time></trkpt><trkpt lat="41.8788651" lon="1.9213465"><ele>411.0</ele><time>2026-04-25T08:20:01.918Z</time></trkpt><trkpt lat="41.878729" lon="1.9212006"><ele>411.0</ele><time>2026-04-25T08:20:02.917Z</time></trkpt><trkpt lat="41.878569" lon="1.9210917"><ele>411.0</ele><time>2026-04-25T08:20:03.917Z</time></trkpt><trkpt lat="41.878384" lon="1.9210117"><ele>409.66666666666663</ele><time>2026-04-25T08:20:04.917Z</time></trkpt><trkpt lat="41.8781884" lon="1.920942"><ele>408.3333333333333</ele><time>2026-04-25T08:20:05.918Z</time></trkpt><trkpt lat="41.877988" lon="1.9208673"><ele>407.0</ele><time>2026-04-25T08:20:06.916Z</time></trkpt><trkpt lat="41.8777901" lon="1.9207975"><ele>406.66666666666663</ele><time>2026-04-25T08:20:07.918Z</time></trkpt><trkpt lat="41.8776064" lon="1.9207316"><ele>406.33333333333337</ele><time>2026-04-25T08:20:08.918Z</time></trkpt><trkpt lat="41.877433" lon="1.9206585"><ele>406.0</ele><time>2026-04-25T08:20:09.918Z</time></trkpt><trkpt lat="41.8772635" lon="1.920548"><ele>406.0</ele><time>2026-04-25T08:20:10.916Z</time></trkpt><trkpt lat="41.8770934" lon="1.9204183"><ele>406.0</ele><time>2026-04-25T08:20:11.917Z</time></trkpt><trkpt lat="41.8769238" lon="1.9202691"><ele>406.0</ele><time>2026-04-25T08:20:12.918Z</time></trkpt><trkpt lat="41.8767531" lon="1.9201075"><ele>406.6666666666667</ele><time>2026-04-25T08:20:13.917Z</time></trkpt><trkpt lat="41.8765789" lon="1.9199437"><ele>407.33333333333337</ele><time>2026-04-25T08:20:14.917Z</time></trkpt><trkpt lat="41.8764075" lon="1.919783"><ele>408.0</ele><time>2026-04-25T08:20:15.918Z</time></trkpt><trkpt lat="41.876245" lon="1.9196272"><ele>408.0</ele><time>2026-04-25T08:20:16.918Z</time></trkpt><trkpt lat="41.8760979" lon="1.9194862"><ele>408.0</ele><time>2026-04-25T08:20:17.917Z</time></trkpt><trkpt lat="41.8759693" lon="1.9193649"><ele>408.0</ele><time>2026-04-25T08:20:18.917Z</time></trkpt><trkpt lat="41.875851" lon="1.9192568"><ele>408.25</ele><time>2026-04-25T08:20:19.918Z</time></trkpt><trkpt lat="41.8757333" lon="1.9191719"><ele>408.5</ele><time>2026-04-25T08:20:20.917Z</time></trkpt><trkpt lat="41.8755978" lon="1.9191272"><ele>408.75</ele><time>2026-04-25T08:20:21.917Z</time></trkpt><trkpt lat="41.8754549" lon="1.9191312"><ele>409.0</ele><time>2026-04-25T08:20:22.917Z</time></trkpt><trkpt lat="41.875315" lon="1.9191963"><ele>409.6666666666667</ele><time>2026-04-25T08:20:23.917Z</time></trkpt><trkpt lat="41.8751724" lon="1.9192957"><ele>410.33333333333337</ele><time>2026-04-25T08:20:24.917Z</time></trkpt><trkpt lat="41.8750286" lon="1.9193932"><ele>411.0</ele><time>2026-04-25T08:20:25.917Z</time></trkpt><trkpt lat="41.8748867" lon="1.9194681"><ele>411.0</ele><time>2026-04-25T08:20:26.917Z</time></trkpt><trkpt lat="41.8747481" lon="1.9195037"><ele>411.0</ele><time>2026-04-25T08:20:27.917Z</time></trkpt><trkpt lat="41.8746049" lon="1.9194954"><ele>411.0</ele><time>2026-04-25T08:20:28.917Z</time></trkpt><trkpt lat="41.8744639" lon="1.9194339"><ele>411.0</ele><time>2026-04-25T08:20:29.918Z</time></trkpt><trkpt lat="41.8743218" lon="1.9193348"><ele>412.0</ele><time>2026-04-25T08:20:30.917Z</time></trkpt><trkpt lat="41.8741709" lon="1.9192176"><ele>413.0</ele><time>2026-04-25T08:20:31.916Z</time></trkpt><trkpt lat="41.8740152" lon="1.9191045"><ele>414.0</ele><time>2026-04-25T08:20:32.918Z</time></trkpt><trkpt lat="41.8738491" lon="1.9189895"><ele>414.0</ele><time>2026-04-25T08:20:33.917Z</time></trkpt><trkpt lat="41.8736755" lon="1.9188724"><ele>414.0</ele><time>2026-04-25T08:20:34.917Z</time></trkpt><trkpt lat="41.8735018" lon="1.9187506"><ele>414.0</ele><time>2026-04-25T08:20:35.918Z</time></trkpt><trkpt lat="41.8733273" lon="1.9186285"><ele>414.0</ele><time>2026-04-25T08:20:36.918Z</time></trkpt><trkpt lat="41.8731518" lon="1.9185068"><ele>414.0</ele><time>2026-04-25T08:20:37.918Z</time></trkpt><trkpt lat="41.8729795" lon="1.9183822"><ele>414.0</ele><time>2026-04-25T08:20:38.916Z</time></trkpt><trkpt lat="41.8728149" lon="1.9182633"><ele>414.0</ele><time>2026-04-25T08:20:39.918Z</time></trkpt><trkpt lat="41.8726577" lon="1.9181532"><ele>414.0</ele><time>2026-04-25T08:20:40.917Z</time></trkpt><trkpt lat="41.8725115" lon="1.9180342"><ele>414.0</ele><time>2026-04-25T08:20:41.917Z</time></trkpt><trkpt lat="41.8723768" lon="1.9178928"><ele>413.66666666666663</ele><time>2026-04-25T08:20:42.917Z</time></trkpt><trkpt lat="41.8722477" lon="1.9177254"><ele>413.3333333333333</ele><time>2026-04-25T08:20:43.917Z</time></trkpt><trkpt lat="41.8721251" lon="1.9175456"><ele>413.0</ele><time>2026-04-25T08:20:44.917Z</time></trkpt><trkpt lat="41.8720256" lon="1.9173607"><ele>414.66666666666663</ele><time>2026-04-25T08:20:45.917Z</time></trkpt><trkpt lat="41.8719504" lon="1.9171789"><ele>416.33333333333337</ele><time>2026-04-25T08:20:46.918Z</time></trkpt><trkpt lat="41.8719032" lon="1.9169797"><ele>418.0</ele><time>2026-04-25T08:20:47.917Z</time></trkpt><trkpt lat="41.8718842" lon="1.9167503"><ele>419.33333333333337</ele><time>2026-04-25T08:20:48.917Z</time></trkpt><trkpt lat="41.8718823" lon="1.9164929"><ele>420.66666666666663</ele><time>2026-04-25T08:20:49.917Z</time></trkpt><trkpt lat="41.8718803" lon="1.9162162"><ele>422.0</ele><time>2026-04-25T08:20:50.917Z</time></trkpt><trkpt lat="41.8718773" lon="1.9159345"><ele>420.3333333333333</ele><time>2026-04-25T08:20:51.917Z</time></trkpt><trkpt lat="41.8718741" lon="1.915637"><ele>418.66666666666663</ele><time>2026-04-25T08:20:52.918Z</time></trkpt><trkpt lat="41.8718728" lon="1.915332"><ele>417.0</ele><time>2026-04-25T08:20:53.917Z</time></trkpt><trkpt lat="41.8718717" lon="1.9150227"><ele>413.0</ele><time>2026-04-25T08:20:54.918Z</time></trkpt><trkpt lat="41.8718665" lon="1.9147091"><ele>409.0</ele><time>2026-04-25T08:20:55.918Z</time></trkpt><trkpt lat="41.8718577" lon="1.9143903"><ele>408.5</ele><time>2026-04-25T08:20:56.917Z</time></trkpt><trkpt lat="41.8718373" lon="1.9140683"><ele>408.0</ele><time>2026-04-25T08:20:57.918Z</time></trkpt><trkpt lat="41.871804" lon="1.9137448"><ele>405.5</ele><time>2026-04-25T08:20:58.916Z</time></trkpt><trkpt lat="41.8717625" lon="1.9134206"><ele>403.0</ele><time>2026-04-25T08:20:59.916Z</time></trkpt><trkpt lat="41.8717196" lon="1.9130983"><ele>402.5</ele><time>2026-04-25T08:21:00.918Z</time></trkpt><trkpt lat="41.8716816" lon="1.9127772"><ele>402.0</ele><time>2026-04-25T08:21:01.918Z</time></trkpt><trkpt lat="41.8716462" lon="1.9124721"><ele>402.66666666666663</ele><time>2026-04-25T08:21:02.918Z</time></trkpt><trkpt lat="41.8716136" lon="1.9121861"><ele>403.3333333333333</ele><time>2026-04-25T08:21:03.917Z</time></trkpt><trkpt lat="41.87158" lon="1.9119214"><ele>404.0</ele><time>2026-04-25T08:21:04.918Z</time></trkpt><trkpt lat="41.8715516" lon="1.911671"><ele>406.3333333333333</ele><time>2026-04-25T08:21:05.917Z</time></trkpt><trkpt lat="41.8715366" lon="1.9114156"><ele>408.66666666666663</ele><time>2026-04-25T08:21:06.916Z</time></trkpt><trkpt lat="41.8715516" lon="1.9111571"><ele>411.0</ele><time>2026-04-25T08:21:07.917Z</time></trkpt><trkpt lat="41.8716012" lon="1.9109066"><ele>411.0</ele><time>2026-04-25T08:21:08.917Z</time></trkpt><trkpt lat="41.8716869" lon="1.9106675"><ele>411.0</ele><time>2026-04-25T08:21:09.917Z</time></trkpt><trkpt lat="41.8718016" lon="1.9104482"><ele>411.0</ele><time>2026-04-25T08:21:10.917Z</time></trkpt><trkpt lat="41.8719315" lon="1.9102608"><ele>411.66666666666663</ele><time>2026-04-25T08:21:11.918Z</time></trkpt><trkpt lat="41.8720783" lon="1.9101072"><ele>412.3333333333333</ele><time>2026-04-25T08:21:12.916Z</time></trkpt><trkpt lat="41.8722474" lon="1.9099831"><ele>413.0</ele><time>2026-04-25T08:21:13.917Z</time></trkpt><trkpt lat="41.8724376" lon="1.9098787"><ele>415.3333333333333</ele><time>2026-04-25T08:21:14.916Z</time></trkpt><trkpt lat="41.8726377" lon="1.9097758"><ele>417.66666666666663</ele><time>2026-04-25T08:21:15.917Z</time></trkpt><trkpt lat="41.8728382" lon="1.9096647"><ele>420.0</ele><time>2026-04-25T08:21:16.917Z</time></trkpt><trkpt lat="41.873041" lon="1.9095526"><ele>420.0</ele><time>2026-04-25T08:21:17.917Z</time></trkpt><trkpt lat="41.8732491" lon="1.9094377"><ele>420.0</ele><time>2026-04-25T08:21:18.917Z</time></trkpt><trkpt lat="41.873459" lon="1.9093175"><ele>417.0</ele><time>2026-04-25T08:21:19.916Z</time></trkpt><trkpt lat="41.8736721" lon="1.9091991"><ele>414.0</ele><time>2026-04-25T08:21:20.918Z</time></trkpt><trkpt lat="41.8738856" lon="1.9090813"><ele>414.0</ele><time>2026-04-25T08:21:21.917Z</time></trkpt><trkpt lat="41.8741008" lon="1.9089652"><ele>414.0</ele><time>2026-04-25T08:21:22.917Z</time></trkpt><trkpt lat="41.8743158" lon="1.908847"><ele>414.5</ele><time>2026-04-25T08:21:23.918Z</time></trkpt><trkpt lat="41.8745303" lon="1.9087271"><ele>415.0</ele><time>2026-04-25T08:21:24.918Z</time></trkpt><trkpt lat="41.8747373" lon="1.9086125"><ele>415.0</ele><time>2026-04-25T08:21:25.917Z</time></trkpt><trkpt lat="41.8749318" lon="1.9085053"><ele>415.0</ele><time>2026-04-25T08:21:26.917Z</time></trkpt><trkpt lat="41.8751125" lon="1.9084053"><ele>415.0</ele><time>2026-04-25T08:21:27.917Z</time></trkpt><trkpt lat="41.8752771" lon="1.9083031"><ele>413.6666666666667</ele><time>2026-04-25T08:21:28.917Z</time></trkpt><trkpt lat="41.8754258" lon="1.9081805"><ele>412.33333333333337</ele><time>2026-04-25T08:21:29.918Z</time></trkpt><trkpt lat="41.8755645" lon="1.9080219"><ele>411.0</ele><time>2026-04-25T08:21:30.916Z</time></trkpt><trkpt lat="41.8756898" lon="1.9078368"><ele>411.0</ele><time>2026-04-25T08:21:31.918Z</time></trkpt><trkpt lat="41.8758011" lon="1.9076137"><ele>411.0</ele><time>2026-04-25T08:21:32.917Z</time></trkpt><trkpt lat="41.8759075" lon="1.9073646"><ele>411.0</ele><time>2026-04-25T08:21:33.917Z</time></trkpt><trkpt lat="41.8760157" lon="1.9070993"><ele>412.0</ele><time>2026-04-25T08:21:34.917Z</time></trkpt><trkpt lat="41.8761286" lon="1.9068228"><ele>413.0</ele><time>2026-04-25T08:21:35.917Z</time></trkpt><trkpt lat="41.8762425" lon="1.906542"><ele>413.0</ele><time>2026-04-25T08:21:36.916Z</time></trkpt><trkpt lat="41.8763571" lon="1.9062627"><ele>413.0</ele><time>2026-04-25T08:21:37.917Z</time></trkpt><trkpt lat="41.8764692" lon="1.905988"><ele>412.5</ele><time>2026-04-25T08:21:38.917Z</time></trkpt><trkpt lat="41.8765809" lon="1.9057143"><ele>412.0</ele><time>2026-04-25T08:21:39.916Z</time></trkpt><trkpt lat="41.8766899" lon="1.9054494"><ele>412.33333333333337</ele><time>2026-04-25T08:21:40.918Z</time></trkpt><trkpt lat="41.8767919" lon="1.9052048"><ele>412.66666666666663</ele><time>2026-04-25T08:21:41.916Z</time></trkpt><trkpt lat="41.8768893" lon="1.9049812"><ele>413.0</ele><time>2026-04-25T08:21:42.916Z</time></trkpt><trkpt lat="41.876975" lon="1.9047782"><ele>413.3333333333333</ele><time>2026-04-25T08:21:43.916Z</time></trkpt><trkpt lat="41.8770416" lon="1.9045943"><ele>413.66666666666663</ele><time>2026-04-25T08:21:44.918Z</time></trkpt><trkpt lat="41.87709" lon="1.9044096"><ele>414.0</ele><time>2026-04-25T08:21:45.917Z</time></trkpt><trkpt lat="41.8771074" lon="1.9042075"><ele>414.33333333333337</ele><time>2026-04-25T08:21:46.917Z</time></trkpt><trkpt lat="41.8770944" lon="1.9039962"><ele>414.6666666666667</ele><time>2026-04-25T08:21:47.918Z</time></trkpt><trkpt lat="41.8770519" lon="1.9037848"><ele>415.0</ele><time>2026-04-25T08:21:48.917Z</time></trkpt><trkpt lat="41.876974" lon="1.9035789"><ele>415.0</ele><time>2026-04-25T08:21:49.917Z</time></trkpt><trkpt lat="41.8768743" lon="1.9033724"><ele>415.0</ele><time>2026-04-25T08:21:50.917Z</time></trkpt><trkpt lat="41.876763" lon="1.90316"><ele>415.0</ele><time>2026-04-25T08:21:51.918Z</time></trkpt><trkpt lat="41.8766496" lon="1.9029376"><ele>415.0</ele><time>2026-04-25T08:21:52.917Z</time></trkpt><trkpt lat="41.8765366" lon="1.9027085"><ele>415.0</ele><time>2026-04-25T08:21:53.918Z</time></trkpt><trkpt lat="41.8764181" lon="1.9024838"><ele>415.0</ele><time>2026-04-25T08:21:54.918Z</time></trkpt><trkpt lat="41.876296" lon="1.9022805"><ele>413.33333333333337</ele><time>2026-04-25T08:21:55.918Z</time></trkpt><trkpt lat="41.8761574" lon="1.9020898"><ele>411.66666666666663</ele><time>2026-04-25T08:21:56.917Z</time></trkpt><trkpt lat="41.8759999" lon="1.9019153"><ele>410.0</ele><time>2026-04-25T08:21:57.918Z</time></trkpt><trkpt lat="41.8758257" lon="1.9017599"><ele>409.66666666666663</ele><time>2026-04-25T08:21:58.918Z</time></trkpt><trkpt lat="41.8756362" lon="1.9016257"><ele>409.33333333333337</ele><time>2026-04-25T08:21:59.917Z</time></trkpt><trkpt lat="41.8754365" lon="1.9015044"><ele>409.0</ele><time>2026-04-25T08:22:00.918Z</time></trkpt><trkpt lat="41.8752301" lon="1.9013898"><ele>410.6666666666667</ele><time>2026-04-25T08:22:01.916Z</time></trkpt><trkpt lat="41.8750238" lon="1.9012759"><ele>412.33333333333337</ele><time>2026-04-25T08:22:02.917Z</time></trkpt><trkpt lat="41.8748284" lon="1.901166"><ele>414.0</ele><time>2026-04-25T08:22:03.917Z</time></trkpt><trkpt lat="41.8746469" lon="1.9010709"><ele>414.0</ele><time>2026-04-25T08:22:04.917Z</time></trkpt><trkpt lat="41.8744733" lon="1.901005"><ele>414.0</ele><time>2026-04-25T08:22:05.918Z</time></trkpt><trkpt lat="41.8742918" lon="1.9009725"><ele>414.0</ele><time>2026-04-25T08:22:06.917Z</time></trkpt><trkpt lat="41.8741004" lon="1.9009789"><ele>417.0</ele><time>2026-04-25T08:22:07.917Z</time></trkpt><trkpt lat="41.8739036" lon="1.9010019"><ele>420.0</ele><time>2026-04-25T08:22:08.917Z</time></trkpt><trkpt lat="41.8737105" lon="1.9009918"><ele>423.0</ele><time>2026-04-25T08:22:09.917Z</time></trkpt><trkpt lat="41.8735161" lon="1.9009457"><ele>418.0</ele><time>2026-04-25T08:22:10.917Z</time></trkpt><trkpt lat="41.8733265" lon="1.9008628"><ele>413.0</ele><time>2026-04-25T08:22:11.917Z</time></trkpt><trkpt lat="41.8731495" lon="1.900745"><ele>408.0</ele><time>2026-04-25T08:22:12.918Z</time></trkpt><trkpt lat="41.8729872" lon="1.9005998"><ele>408.0</ele><time>2026-04-25T08:22:13.916Z</time></trkpt><trkpt lat="41.8728231" lon="1.9004516"><ele>408.0</ele><time>2026-04-25T08:22:14.917Z</time></trkpt><trkpt lat="41.8726461" lon="1.9003227"><ele>408.0</ele><time>2026-04-25T08:22:15.917Z</time></trkpt><trkpt lat="41.8724555" lon="1.900215"><ele>406.33333333333337</ele><time>2026-04-25T08:22:16.916Z</time></trkpt><trkpt lat="41.8722556" lon="1.900116"><ele>404.6666666666667</ele><time>2026-04-25T08:22:17.918Z</time></trkpt><trkpt lat="41.8720516" lon="1.9000194"><ele>403.0</ele><time>2026-04-25T08:22:18.917Z</time></trkpt><trkpt lat="41.8718475" lon="1.8999258"><ele>404.0</ele><time>2026-04-25T08:22:19.917Z</time></trkpt><trkpt lat="41.8716496" lon="1.8998359"><ele>405.0</ele><time>2026-04-25T08:22:20.918Z</time></trkpt><trkpt lat="41.8714623" lon="1.8997571"><ele>406.0</ele><time>2026-04-25T08:22:21.918Z</time></trkpt><trkpt lat="41.8712874" lon="1.8996879"><ele>406.0</ele><time>2026-04-25T08:22:22.918Z</time></trkpt><trkpt lat="41.8711113" lon="1.8996397"><ele>406.0</ele><time>2026-04-25T08:22:23.917Z</time></trkpt><trkpt lat="41.8709233" lon="1.8996228"><ele>406.0</ele><time>2026-04-25T08:22:24.917Z</time></trkpt><trkpt lat="41.8707261" lon="1.8996221"><ele>406.6666666666667</ele><time>2026-04-25T08:22:25.918Z</time></trkpt><trkpt lat="41.87052" lon="1.899631"><ele>407.33333333333337</ele><time>2026-04-25T08:22:26.918Z</time></trkpt><trkpt lat="41.870309" lon="1.8996452"><ele>408.0</ele><time>2026-04-25T08:22:27.918Z</time></trkpt><trkpt lat="41.8700942" lon="1.89966"><ele>406.0</ele><time>2026-04-25T08:22:28.916Z</time></trkpt><trkpt lat="41.8698803" lon="1.8996775"><ele>404.0</ele><time>2026-04-25T08:22:29.917Z</time></trkpt><trkpt lat="41.8696793" lon="1.8996946"><ele>402.0</ele><time>2026-04-25T08:22:30.918Z</time></trkpt><trkpt lat="41.8694864" lon="1.89971"><ele>402.0</ele><time>2026-04-25T08:22:31.917Z</time></trkpt><trkpt lat="41.869317" lon="1.8997234"><ele>402.0</ele><time>2026-04-25T08:22:32.917Z</time></trkpt><trkpt lat="41.8691597" lon="1.8997279"><ele>402.0</ele><time>2026-04-25T08:22:33.918Z</time></trkpt><trkpt lat="41.8690071" lon="1.8997018"><ele>401.33333333333337</ele><time>2026-04-25T08:22:34.918Z</time></trkpt><trkpt lat="41.8688656" lon="1.8996303"><ele>400.6666666666667</ele><time>2026-04-25T08:22:35.917Z</time></trkpt><trkpt lat="41.8687455" lon="1.8995032"><ele>400.0</ele><time>2026-04-25T08:22:36.916Z</time></trkpt><trkpt lat="41.8686528" lon="1.899331"><ele>397.6666666666667</ele><time>2026-04-25T08:22:37.917Z</time></trkpt><trkpt lat="41.868585" lon="1.8991241"><ele>395.33333333333337</ele><time>2026-04-25T08:22:38.917Z</time></trkpt><trkpt lat="41.8685384" lon="1.8988937"><ele>393.0</ele><time>2026-04-25T08:22:39.917Z</time></trkpt><trkpt lat="41.8684962" lon="1.8986512"><ele>391.0</ele><time>2026-04-25T08:22:40.917Z</time></trkpt><trkpt lat="41.8684442" lon="1.8984043"><ele>389.0</ele><time>2026-04-25T08:22:41.917Z</time></trkpt><trkpt lat="41.8683937" lon="1.8981568"><ele>387.0</ele><time>2026-04-25T08:22:42.918Z</time></trkpt><trkpt lat="41.8683417" lon="1.8979161"><ele>390.33333333333337</ele><time>2026-04-25T08:22:43.918Z</time></trkpt><trkpt lat="41.8682951" lon="1.8976885"><ele>393.6666666666667</ele><time>2026-04-25T08:22:44.918Z</time></trkpt><trkpt lat="41.8682546" lon="1.8974758"><ele>397.0</ele><time>2026-04-25T08:22:45.917Z</time></trkpt><trkpt lat="41.868202" lon="1.8972644"><ele>397.0</ele><time>2026-04-25T08:22:46.918Z</time></trkpt><trkpt lat="41.868119" lon="1.8970709"><ele>397.0</ele><time>2026-04-25T08:22:47.916Z</time></trkpt><trkpt lat="41.8680087" lon="1.8969027"><ele>397.0</ele><time>2026-04-25T08:22:48.916Z</time></trkpt><trkpt lat="41.867867" lon="1.8967728"><ele>397.6666666666667</ele><time>2026-04-25T08:22:49.917Z</time></trkpt><trkpt lat="41.8677024" lon="1.8966667"><ele>398.33333333333337</ele><time>2026-04-25T08:22:50.917Z</time></trkpt><trkpt lat="41.8675335" lon="1.8965536"><ele>399.0</ele><time>2026-04-25T08:22:51.916Z</time></trkpt><trkpt lat="41.8673665" lon="1.8964204"><ele>399.0</ele><time>2026-04-25T08:22:52.917Z</time></trkpt><trkpt lat="41.8671988" lon="1.8962687"><ele>399.0</ele><time>2026-04-25T08:22:53.916Z</time></trkpt><trkpt lat="41.8670243" lon="1.8961188"><ele>399.0</ele><time>2026-04-25T08:22:54.917Z</time></trkpt><trkpt lat="41.8668416" lon="1.895978"><ele>397.33333333333337</ele><time>2026-04-25T08:22:55.917Z</time></trkpt><trkpt lat="41.8666495" lon="1.8958511"><ele>395.6666666666667</ele><time>2026-04-25T08:22:56.917Z</time></trkpt><trkpt lat="41.8664496" lon="1.8957445"><ele>394.0</ele><time>2026-04-25T08:22:57.918Z</time></trkpt><trkpt lat="41.8662529" lon="1.8956479"><ele>394.0</ele><time>2026-04-25T08:22:58.918Z</time></trkpt><trkpt lat="41.866069" lon="1.8955521"><ele>394.0</ele><time>2026-04-25T08:22:59.917Z</time></trkpt><trkpt lat="41.8658949" lon="1.8954664"><ele>394.0</ele><time>2026-04-25T08:23:00.918Z</time></trkpt><trkpt lat="41.8657424" lon="1.8953896"><ele>395.5</ele><time>2026-04-25T08:23:01.917Z</time></trkpt><trkpt lat="41.8656177" lon="1.8953137"><ele>397.0</ele><time>2026-04-25T08:23:02.918Z</time></trkpt><trkpt lat="41.8655225" lon="1.8952091"><ele>398.5</ele><time>2026-04-25T08:23:03.917Z</time></trkpt><trkpt lat="41.8654635" lon="1.8950648"><ele>400.0</ele><time>2026-04-25T08:23:04.917Z</time></trkpt><trkpt lat="41.8654462" lon="1.8948829"><ele>397.0</ele><time>2026-04-25T08:23:05.917Z</time></trkpt><trkpt lat="41.8654648" lon="1.8946799"><ele>394.0</ele><time>2026-04-25T08:23:06.917Z</time></trkpt><trkpt lat="41.8654876" lon="1.8944944"><ele>391.0</ele><time>2026-04-25T08:23:07.918Z</time></trkpt><trkpt lat="41.8654716" lon="1.8943132"><ele>388.0</ele><time>2026-04-25T08:23:08.918Z</time></trkpt><trkpt lat="41.8654167" lon="1.8941394"><ele>386.0</ele><time>2026-04-25T08:23:09.917Z</time></trkpt><trkpt lat="41.8653206" lon="1.8939866"><ele>384.0</ele><time>2026-04-25T08:23:10.918Z</time></trkpt><trkpt lat="41.8651929" lon="1.8938366"><ele>382.0</ele><time>2026-04-25T08:23:11.917Z</time></trkpt><trkpt lat="41.8650524" lon="1.8936814"><ele>382.0</ele><time>2026-04-25T08:23:12.917Z</time></trkpt><trkpt lat="41.8649077" lon="1.8935206"><ele>382.0</ele><time>2026-04-25T08:23:13.917Z</time></trkpt><trkpt lat="41.8647733" lon="1.8933661"><ele>382.0</ele><time>2026-04-25T08:23:14.917Z</time></trkpt><trkpt lat="41.864658" lon="1.8932091"><ele>379.0</ele><time>2026-04-25T08:23:15.917Z</time></trkpt><trkpt lat="41.8645668" lon="1.8930279"><ele>376.0</ele><time>2026-04-25T08:23:16.917Z</time></trkpt><trkpt lat="41.8644809" lon="1.8928457"><ele>373.0</ele><time>2026-04-25T08:23:17.917Z</time></trkpt><trkpt lat="41.8643726" lon="1.8926904"><ele>372.3333333333333</ele><time>2026-04-25T08:23:18.917Z</time></trkpt><trkpt lat="41.8642485" lon="1.8925432"><ele>371.6666666666667</ele><time>2026-04-25T08:23:19.917Z</time></trkpt><trkpt lat="41.8641405" lon="1.8923852"><ele>371.0</ele><time>2026-04-25T08:23:20.917Z</time></trkpt><trkpt lat="41.8640503" lon="1.8922232"><ele>371.0</ele><time>2026-04-25T08:23:21.917Z</time></trkpt><trkpt lat="41.8639421" lon="1.8920769"><ele>371.0</ele><time>2026-04-25T08:23:22.916Z</time></trkpt><trkpt lat="41.8638157" lon="1.8919697"><ele>371.0</ele><time>2026-04-25T08:23:23.917Z</time></trkpt><trkpt lat="41.8636833" lon="1.8919124"><ele>371.0</ele><time>2026-04-25T08:23:24.917Z</time></trkpt><trkpt lat="41.8635489" lon="1.8918739"><ele>372.6666666666667</ele><time>2026-04-25T08:23:25.917Z</time></trkpt><trkpt lat="41.8634159" lon="1.8917865"><ele>374.3333333333333</ele><time>2026-04-25T08:23:26.918Z</time></trkpt><trkpt lat="41.8633012" lon="1.8916504"><ele>376.0</ele><time>2026-04-25T08:23:27.917Z</time></trkpt><trkpt lat="41.8632217" lon="1.8914744"><ele>372.66666666666663</ele><time>2026-04-25T08:23:28.917Z</time></trkpt><trkpt lat="41.8631544" lon="1.891279"><ele>369.3333333333333</ele><time>2026-04-25T08:23:29.917Z</time></trkpt><trkpt lat="41.8630937" lon="1.8910585"><ele>366.0</ele><time>2026-04-25T08:23:30.917Z</time></trkpt><trkpt lat="41.8630414" lon="1.8908324"><ele>362.0</ele><time>2026-04-25T08:23:31.917Z</time></trkpt><trkpt lat="41.8630058" lon="1.8906023"><ele>358.0</ele><time>2026-04-25T08:23:32.918Z</time></trkpt><trkpt lat="41.8629563" lon="1.8903683"><ele>354.0</ele><time>2026-04-25T08:23:33.916Z</time></trkpt><trkpt lat="41.8628821" lon="1.8901278"><ele>356.6666666666667</ele><time>2026-04-25T08:23:34.917Z</time></trkpt><trkpt lat="41.8627955" lon="1.8898762"><ele>359.33333333333337</ele><time>2026-04-25T08:23:35.917Z</time></trkpt><trkpt lat="41.8627044" lon="1.88962"><ele>362.0</ele><time>2026-04-25T08:23:36.917Z</time></trkpt><trkpt lat="41.8626061" lon="1.8893529"><ele>356.5</ele><time>2026-04-25T08:23:37.917Z</time></trkpt><trkpt lat="41.8625018" lon="1.8890872"><ele>351.0</ele><time>2026-04-25T08:23:38.917Z</time></trkpt><trkpt lat="41.8623868" lon="1.8888186"><ele>351.0</ele><time>2026-04-25T08:23:39.917Z</time></trkpt><trkpt lat="41.8622637" lon="1.888545"><ele>351.0</ele><time>2026-04-25T08:23:40.917Z</time></trkpt><trkpt lat="41.8621344" lon="1.8882693"><ele>344.0</ele><time>2026-04-25T08:23:41.917Z</time></trkpt><trkpt lat="41.8620032" lon="1.8880001"><ele>337.0</ele><time>2026-04-25T08:23:42.916Z</time></trkpt><trkpt lat="41.8618767" lon="1.8877377"><ele>340.0</ele><time>2026-04-25T08:23:43.918Z</time></trkpt><trkpt lat="41.8617569" lon="1.8874872"><ele>343.0</ele><time>2026-04-25T08:23:44.918Z</time></trkpt><trkpt lat="41.8616419" lon="1.8872451"><ele>346.0</ele><time>2026-04-25T08:23:45.916Z</time></trkpt><trkpt lat="41.861534" lon="1.8870128"><ele>346.0</ele><time>2026-04-25T08:23:46.918Z</time></trkpt><trkpt lat="41.8614316" lon="1.8867854"><ele>346.0</ele><time>2026-04-25T08:23:47.916Z</time></trkpt><trkpt lat="41.8613332" lon="1.8865347"><ele>346.0</ele><time>2026-04-25T08:23:48.917Z</time></trkpt><trkpt lat="41.8612471" lon="1.8862498"><ele>337.0</ele><time>2026-04-25T08:23:49.918Z</time></trkpt><trkpt lat="41.8611619" lon="1.8859439"><ele>328.0</ele><time>2026-04-25T08:23:50.917Z</time></trkpt><trkpt lat="41.8610778" lon="1.8856258"><ele>328.0</ele><time>2026-04-25T08:23:51.916Z</time></trkpt><trkpt lat="41.8609952" lon="1.8853"><ele>328.0</ele><time>2026-04-25T08:23:52.917Z</time></trkpt><trkpt lat="41.8609102" lon="1.8849707"><ele>328.0</ele><time>2026-04-25T08:23:53.916Z</time></trkpt><trkpt lat="41.8608289" lon="1.8846437"><ele>328.0</ele><time>2026-04-25T08:23:54.918Z</time></trkpt><trkpt lat="41.8607423" lon="1.8843263"><ele>324.5</ele><time>2026-04-25T08:23:55.917Z</time></trkpt><trkpt lat="41.8606583" lon="1.8840191"><ele>321.0</ele><time>2026-04-25T08:23:56.916Z</time></trkpt><trkpt lat="41.8605806" lon="1.8837187"><ele>317.0</ele><time>2026-04-25T08:23:57.917Z</time></trkpt><trkpt lat="41.8605068" lon="1.8834206"><ele>313.0</ele><time>2026-04-25T08:23:58.916Z</time></trkpt><trkpt lat="41.8604442" lon="1.88313"><ele>313.0</ele><time>2026-04-25T08:23:59.917Z</time></trkpt><trkpt lat="41.8603905" lon="1.882852"><ele>313.0</ele><time>2026-04-25T08:24:00.917Z</time></trkpt><trkpt lat="41.8603364" lon="1.8825966"><ele>313.0</ele><time>2026-04-25T08:24:01.918Z</time></trkpt><trkpt lat="41.8602765" lon="1.8823603"><ele>311.66666666666663</ele><time>2026-04-25T08:24:02.917Z</time></trkpt><trkpt lat="41.8601997" lon="1.8821428"><ele>310.3333333333333</ele><time>2026-04-25T08:24:03.918Z</time></trkpt><trkpt lat="41.8600922" lon="1.8819346"><ele>309.0</ele><time>2026-04-25T08:24:04.917Z</time></trkpt><trkpt lat="41.8599601" lon="1.8817259"><ele>309.0</ele><time>2026-04-25T08:24:05.917Z</time></trkpt><trkpt lat="41.8598215" lon="1.8815218"><ele>309.0</ele><time>2026-04-25T08:24:06.917Z</time></trkpt><trkpt lat="41.8596981" lon="1.8813304"><ele>309.0</ele><time>2026-04-25T08:24:07.916Z</time></trkpt><trkpt lat="41.8595922" lon="1.8811619"><ele>309.0</ele><time>2026-04-25T08:24:08.917Z</time></trkpt><trkpt lat="41.8595029" lon="1.881012"><ele>309.0</ele><time>2026-04-25T08:24:09.917Z</time></trkpt><trkpt lat="41.8594278" lon="1.8808733"><ele>309.0</ele><time>2026-04-25T08:24:10.916Z</time></trkpt><trkpt lat="41.8593943" lon="1.8807097"><ele>309.0</ele><time>2026-04-25T08:24:11.917Z</time></trkpt><trkpt lat="41.8593976" lon="1.8805373"><ele>306.5</ele><time>2026-04-25T08:24:12.917Z</time></trkpt><trkpt lat="41.8594287" lon="1.8803792"><ele>304.0</ele><time>2026-04-25T08:24:13.917Z</time></trkpt><trkpt lat="41.8594904" lon="1.8802316"><ele>301.5</ele><time>2026-04-25T08:24:14.917Z</time></trkpt><trkpt lat="41.8595704" lon="1.8800923"><ele>299.0</ele><time>2026-04-25T08:24:15.918Z</time></trkpt><trkpt lat="41.8596647" lon="1.8799441"><ele>298.75</ele><time>2026-04-25T08:24:16.916Z</time></trkpt><trkpt lat="41.8597574" lon="1.879795"><ele>298.5</ele><time>2026-04-25T08:24:17.918Z</time></trkpt><trkpt lat="41.8598481" lon="1.879652"><ele>298.25</ele><time>2026-04-25T08:24:18.918Z</time></trkpt><trkpt lat="41.8599291" lon="1.8795204"><ele>298.0</ele><time>2026-04-25T08:24:19.916Z</time></trkpt><trkpt lat="41.8599993" lon="1.8793782"><ele>299.66666666666663</ele><time>2026-04-25T08:24:20.918Z</time></trkpt><trkpt lat="41.8600507" lon="1.8791965"><ele>301.3333333333333</ele><time>2026-04-25T08:24:21.917Z</time></trkpt><trkpt lat="41.8600866" lon="1.8789924"><ele>303.0</ele><time>2026-04-25T08:24:22.917Z</time></trkpt><trkpt lat="41.860111" lon="1.8787692"><ele>304.3333333333333</ele><time>2026-04-25T08:24:23.917Z</time></trkpt><trkpt lat="41.8601337" lon="1.878541"><ele>305.66666666666663</ele><time>2026-04-25T08:24:24.917Z</time></trkpt><trkpt lat="41.8601545" lon="1.8782972"><ele>307.0</ele><time>2026-04-25T08:24:25.918Z</time></trkpt><trkpt lat="41.8601739" lon="1.8780462"><ele>308.3333333333333</ele><time>2026-04-25T08:24:26.917Z</time></trkpt><trkpt lat="41.8601961" lon="1.8777983"><ele>309.6666666666667</ele><time>2026-04-25T08:24:27.917Z</time></trkpt><trkpt lat="41.8602174" lon="1.8775537"><ele>311.0</ele><time>2026-04-25T08:24:28.916Z</time></trkpt><trkpt lat="41.8602399" lon="1.8773197"><ele>312.0</ele><time>2026-04-25T08:24:29.917Z</time></trkpt><trkpt lat="41.8602607" lon="1.8771121"><ele>313.0</ele><time>2026-04-25T08:24:30.917Z</time></trkpt><trkpt lat="41.8602766" lon="1.8769422"><ele>314.0</ele><time>2026-04-25T08:24:31.917Z</time></trkpt><trkpt lat="41.8602852" lon="1.8768211"><ele>315.0</ele><time>2026-04-25T08:24:32.917Z</time></trkpt><trkpt lat="41.8602905" lon="1.8767151"><ele>315.4</ele><time>2026-04-25T08:24:33.917Z</time></trkpt><trkpt lat="41.8602929" lon="1.8765988"><ele>315.8</ele><time>2026-04-25T08:24:34.918Z</time></trkpt><trkpt lat="41.860299" lon="1.8764635"><ele>316.2</ele><time>2026-04-25T08:24:35.918Z</time></trkpt><trkpt lat="41.8603053" lon="1.8763079"><ele>316.6</ele><time>2026-04-25T08:24:36.917Z</time></trkpt><trkpt lat="41.8603124" lon="1.8761496"><ele>317.0</ele><time>2026-04-25T08:24:37.917Z</time></trkpt><trkpt lat="41.8603192" lon="1.8759819"><ele>317.0</ele><time>2026-04-25T08:24:38.917Z</time></trkpt><trkpt lat="41.8603273" lon="1.8758127"><ele>317.0</ele><time>2026-04-25T08:24:39.918Z</time></trkpt><trkpt lat="41.8603352" lon="1.8756358"><ele>317.0</ele><time>2026-04-25T08:24:40.916Z</time></trkpt><trkpt lat="41.8603454" lon="1.8754579"><ele>317.0</ele><time>2026-04-25T08:24:41.917Z</time></trkpt><trkpt lat="41.860359" lon="1.8752969"><ele>317.0</ele><time>2026-04-25T08:24:42.917Z</time></trkpt><trkpt lat="41.8603924" lon="1.8751568"><ele>317.0</ele><time>2026-04-25T08:24:43.917Z</time></trkpt><trkpt lat="41.8604427" lon="1.875038"><ele>317.0</ele><time>2026-04-25T08:24:44.916Z</time></trkpt><trkpt lat="41.8604975" lon="1.8749634"><ele>317.0</ele><time>2026-04-25T08:24:45.916Z</time></trkpt><trkpt lat="41.8605718" lon="1.8749275"><ele>317.0</ele><time>2026-04-25T08:24:47.917Z</time></trkpt><trkpt lat="41.8606389" lon="1.8749058"><ele>317.0</ele><time>2026-04-25T08:24:52.918Z</time></trkpt><trkpt lat="41.8607479" lon="1.8748096"><ele>317.33333333333337</ele><time>2026-04-25T08:24:54.916Z</time></trkpt><trkpt lat="41.8608145" lon="1.8747339"><ele>317.6666666666667</ele><time>2026-04-25T08:24:55.917Z</time></trkpt><trkpt lat="41.8608827" lon="1.8746695"><ele>318.0</ele><time>2026-04-25T08:24:56.917Z</time></trkpt><trkpt lat="41.8609493" lon="1.8746145"><ele>318.3333333333333</ele><time>2026-04-25T08:24:57.917Z</time></trkpt><trkpt lat="41.8610278" lon="1.8745591"><ele>318.66666666666663</ele><time>2026-04-25T08:24:58.917Z</time></trkpt><trkpt lat="41.8611109" lon="1.8745013"><ele>319.0</ele><time>2026-04-25T08:24:59.916Z</time></trkpt><trkpt lat="41.861186" lon="1.8744471"><ele>319.7142857142857</ele><time>2026-04-25T08:25:00.917Z</time></trkpt><trkpt lat="41.8612487" lon="1.8743962"><ele>320.4285714285714</ele><time>2026-04-25T08:25:01.918Z</time></trkpt><trkpt lat="41.8613153" lon="1.8743393"><ele>321.1428571428571</ele><time>2026-04-25T08:25:02.916Z</time></trkpt><trkpt lat="41.8613879" lon="1.8742869"><ele>321.8571428571429</ele><time>2026-04-25T08:25:03.917Z</time></trkpt><trkpt lat="41.8614562" lon="1.8742362"><ele>322.57142857142856</ele><time>2026-04-25T08:25:04.917Z</time></trkpt><trkpt lat="41.8615183" lon="1.8741957"><ele>323.2857142857143</ele><time>2026-04-25T08:25:05.918Z</time></trkpt><trkpt lat="41.8615754" lon="1.8741568"><ele>324.0</ele><time>2026-04-25T08:25:06.917Z</time></trkpt><trkpt lat="41.861677" lon="1.8740822"><ele>324.1666666666667</ele><time>2026-04-25T08:25:08.916Z</time></trkpt><trkpt lat="41.8617625" lon="1.8740198"><ele>324.3333333333333</ele><time>2026-04-25T08:25:10.918Z</time></trkpt><trkpt lat="41.8618341" lon="1.8739608"><ele>324.5</ele><time>2026-04-25T08:25:12.917Z</time></trkpt><trkpt lat="41.8619343" lon="1.8738811"><ele>324.66666666666663</ele><time>2026-04-25T08:25:14.917Z</time></trkpt><trkpt lat="41.861992" lon="1.8738366"><ele>324.8333333333333</ele><time>2026-04-25T08:25:15.917Z</time></trkpt><trkpt lat="41.8620519" lon="1.8737897"><ele>325.0</ele><time>2026-04-25T08:25:16.917Z</time></trkpt><trkpt lat="41.8621128" lon="1.8737402"><ele>326.25</ele><time>2026-04-25T08:25:17.916Z</time></trkpt><trkpt lat="41.8622148" lon="1.8736693"><ele>327.5</ele><time>2026-04-25T08:25:19.916Z</time></trkpt><trkpt lat="41.8623065" lon="1.8736011"><ele>328.75</ele><time>2026-04-25T08:25:21.916Z</time></trkpt><trkpt lat="41.8624077" lon="1.8735174"><ele>330.0</ele><time>2026-04-25T08:25:23.915Z</time></trkpt><trkpt lat="41.8625205" lon="1.8734445"><ele>331.0</ele><time>2026-04-25T08:25:25.917Z</time></trkpt><trkpt lat="41.8626359" lon="1.8734094"><ele>332.0</ele><time>2026-04-25T08:25:27.916Z</time></trkpt><trkpt lat="41.8627603" lon="1.8734451"><ele>333.0</ele><time>2026-04-25T08:25:29.917Z</time></trkpt><trkpt lat="41.8628247" lon="1.8734779"><ele>334.0</ele><time>2026-04-25T08:25:30.916Z</time></trkpt><trkpt lat="41.8629395" lon="1.8735341"><ele>335.0</ele><time>2026-04-25T08:25:32.916Z</time></trkpt><trkpt lat="41.8630511" lon="1.8735953"><ele>335.0</ele><time>2026-04-25T08:25:34.917Z</time></trkpt><trkpt lat="41.8631616" lon="1.8736573"><ele>335.0</ele><time>2026-04-25T08:25:36.917Z</time></trkpt><trkpt lat="41.8632719" lon="1.873717"><ele>335.0</ele><time>2026-04-25T08:25:38.917Z</time></trkpt><trkpt lat="41.8633346" lon="1.8737543"><ele>335.0</ele><time>2026-04-25T08:25:39.917Z</time></trkpt><trkpt lat="41.8634057" lon="1.8737945"><ele>335.0</ele><time>2026-04-25T08:25:40.916Z</time></trkpt><trkpt lat="41.8634731" lon="1.8738394"><ele>335.2857142857143</ele><time>2026-04-25T08:25:41.916Z</time></trkpt><trkpt lat="41.8635387" lon="1.8738737"><ele>335.57142857142856</ele><time>2026-04-25T08:25:42.916Z</time></trkpt><trkpt lat="41.863606" lon="1.8739108"><ele>335.8571428571429</ele><time>2026-04-25T08:25:43.916Z</time></trkpt><trkpt lat="41.8636724" lon="1.8739456"><ele>336.1428571428571</ele><time>2026-04-25T08:25:44.916Z</time></trkpt><trkpt lat="41.8637378" lon="1.8739796"><ele>336.42857142857144</ele><time>2026-04-25T08:25:45.916Z</time></trkpt><trkpt lat="41.8638003" lon="1.8740167"><ele>336.7142857142857</ele><time>2026-04-25T08:25:46.916Z</time></trkpt><trkpt lat="41.8638646" lon="1.8740537"><ele>337.0</ele><time>2026-04-25T08:25:47.917Z</time></trkpt><trkpt lat="41.8639303" lon="1.8740892"><ele>337.00000000000006</ele><time>2026-04-25T08:25:48.916Z</time></trkpt><trkpt lat="41.8639954" lon="1.8741213"><ele>337.0</ele><time>2026-04-25T08:25:49.915Z</time></trkpt><trkpt lat="41.8640591" lon="1.8741542"><ele>337.0</ele><time>2026-04-25T08:25:50.917Z</time></trkpt><trkpt lat="41.8641208" lon="1.8741868"><ele>337.0</ele><time>2026-04-25T08:25:51.917Z</time></trkpt><trkpt lat="41.8641789" lon="1.8742224"><ele>337.0</ele><time>2026-04-25T08:25:52.916Z</time></trkpt><trkpt lat="41.8642429" lon="1.8742567"><ele>337.00000000000006</ele><time>2026-04-25T08:25:53.917Z</time></trkpt><trkpt lat="41.8643105" lon="1.8742974"><ele>337.0</ele><time>2026-04-25T08:25:54.916Z</time></trkpt><trkpt lat="41.8643771" lon="1.8743385"><ele>336.66666666666663</ele><time>2026-04-25T08:25:55.916Z</time></trkpt><trkpt lat="41.8644388" lon="1.8743731"><ele>336.3333333333333</ele><time>2026-04-25T08:25:56.915Z</time></trkpt><trkpt lat="41.864547" lon="1.8744361"><ele>336.0</ele><time>2026-04-25T08:25:58.916Z</time></trkpt><trkpt lat="41.8646053" lon="1.874468"><ele>335.6666666666667</ele><time>2026-04-25T08:25:59.915Z</time></trkpt><trkpt lat="41.864674" lon="1.8745034"><ele>335.33333333333337</ele><time>2026-04-25T08:26:00.916Z</time></trkpt><trkpt lat="41.8647494" lon="1.8745457"><ele>335.0</ele><time>2026-04-25T08:26:01.916Z</time></trkpt><trkpt lat="41.8648249" lon="1.87459"><ele>335.0</ele><time>2026-04-25T08:26:02.916Z</time></trkpt><trkpt lat="41.8649097" lon="1.8746355"><ele>335.0</ele><time>2026-04-25T08:26:03.916Z</time></trkpt><trkpt lat="41.8650034" lon="1.8746862"><ele>335.0</ele><time>2026-04-25T08:26:04.916Z</time></trkpt><trkpt lat="41.8650967" lon="1.8747404"><ele>335.0</ele><time>2026-04-25T08:26:05.916Z</time></trkpt><trkpt lat="41.865184" lon="1.8747899"><ele>335.0</ele><time>2026-04-25T08:26:06.916Z</time></trkpt><trkpt lat="41.8652617" lon="1.8748354"><ele>335.4285714285714</ele><time>2026-04-25T08:26:07.916Z</time></trkpt><trkpt lat="41.8653351" lon="1.8748739"><ele>335.85714285714283</ele><time>2026-04-25T08:26:08.916Z</time></trkpt><trkpt lat="41.8654053" lon="1.8749151"><ele>336.2857142857143</ele><time>2026-04-25T08:26:09.916Z</time></trkpt><trkpt lat="41.8654735" lon="1.8749537"><ele>336.71428571428567</ele><time>2026-04-25T08:26:10.916Z</time></trkpt><trkpt lat="41.8655367" lon="1.8749906"><ele>337.1428571428571</ele><time>2026-04-25T08:26:11.916Z</time></trkpt><trkpt lat="41.8656008" lon="1.875025"><ele>337.57142857142856</ele><time>2026-04-25T08:26:12.916Z</time></trkpt><trkpt lat="41.865665" lon="1.8750603"><ele>338.0</ele><time>2026-04-25T08:26:13.915Z</time></trkpt><trkpt lat="41.8657275" lon="1.8750998"><ele>337.33333333333337</ele><time>2026-04-25T08:26:14.915Z</time></trkpt><trkpt lat="41.8657986" lon="1.8751355"><ele>336.6666666666667</ele><time>2026-04-25T08:26:15.916Z</time></trkpt><trkpt lat="41.8658768" lon="1.8751743"><ele>336.0</ele><time>2026-04-25T08:26:16.917Z</time></trkpt><trkpt lat="41.865965" lon="1.875219"><ele>335.3333333333333</ele><time>2026-04-25T08:26:17.917Z</time></trkpt><trkpt lat="41.8660515" lon="1.8752652"><ele>334.66666666666663</ele><time>2026-04-25T08:26:18.917Z</time></trkpt><trkpt lat="41.8661392" lon="1.8753131"><ele>334.0</ele><time>2026-04-25T08:26:19.915Z</time></trkpt><trkpt lat="41.8662281" lon="1.8753596"><ele>334.0</ele><time>2026-04-25T08:26:20.916Z</time></trkpt><trkpt lat="41.8663125" lon="1.8754052"><ele>334.0</ele><time>2026-04-25T08:26:21.916Z</time></trkpt><trkpt lat="41.8663938" lon="1.8754498"><ele>334.0</ele><time>2026-04-25T08:26:22.917Z</time></trkpt><trkpt lat="41.8664705" lon="1.875492"><ele>334.0</ele><time>2026-04-25T08:26:23.917Z</time></trkpt><trkpt lat="41.8665404" lon="1.8755343"><ele>334.0</ele><time>2026-04-25T08:26:24.917Z</time></trkpt><trkpt lat="41.8666042" lon="1.8755808"><ele>334.0</ele><time>2026-04-25T08:26:25.915Z</time></trkpt><trkpt lat="41.8666644" lon="1.8756297"><ele>334.0</ele><time>2026-04-25T08:26:26.917Z</time></trkpt><trkpt lat="41.8667257" lon="1.8756673"><ele>334.0</ele><time>2026-04-25T08:26:27.917Z</time></trkpt><trkpt lat="41.8667891" lon="1.8756828"><ele>334.0</ele><time>2026-04-25T08:26:28.917Z</time></trkpt><trkpt lat="41.8668539" lon="1.8756645"><ele>334.0</ele><time>2026-04-25T08:26:29.916Z</time></trkpt><trkpt lat="41.8669007" lon="1.8756079"><ele>334.0</ele><time>2026-04-25T08:26:30.916Z</time></trkpt><trkpt lat="41.8669249" lon="1.8755195"><ele>334.0</ele><time>2026-04-25T08:26:31.917Z</time></trkpt><trkpt lat="41.8669481" lon="1.8754112"><ele>334.0</ele><time>2026-04-25T08:26:32.915Z</time></trkpt><trkpt lat="41.8670025" lon="1.8753132"><ele>333.75</ele><time>2026-04-25T08:26:33.916Z</time></trkpt><trkpt lat="41.8670719" lon="1.8752109"><ele>333.5</ele><time>2026-04-25T08:26:34.916Z</time></trkpt><trkpt lat="41.8671592" lon="1.8750928"><ele>333.25</ele><time>2026-04-25T08:26:35.916Z</time></trkpt><trkpt lat="41.8672481" lon="1.8749675"><ele>333.0</ele><time>2026-04-25T08:26:36.917Z</time></trkpt><trkpt lat="41.8673401" lon="1.8748298"><ele>333.6666666666667</ele><time>2026-04-25T08:26:37.917Z</time></trkpt><trkpt lat="41.8674403" lon="1.8746771"><ele>334.33333333333337</ele><time>2026-04-25T08:26:38.916Z</time></trkpt><trkpt lat="41.8675406" lon="1.8745125"><ele>335.0</ele><time>2026-04-25T08:26:39.915Z</time></trkpt><trkpt lat="41.867639" lon="1.8743277"><ele>336.0</ele><time>2026-04-25T08:26:40.916Z</time></trkpt><trkpt lat="41.8677301" lon="1.8741375"><ele>337.0</ele><time>2026-04-25T08:26:41.916Z</time></trkpt><trkpt lat="41.8678187" lon="1.8739349"><ele>338.0</ele><time>2026-04-25T08:26:42.917Z</time></trkpt><trkpt lat="41.867907" lon="1.8737271"><ele>338.0</ele><time>2026-04-25T08:26:43.915Z</time></trkpt><trkpt lat="41.8679961" lon="1.873523"><ele>338.0</ele><time>2026-04-25T08:26:44.915Z</time></trkpt><trkpt lat="41.8680832" lon="1.8733232"><ele>338.0</ele><time>2026-04-25T08:26:45.915Z</time></trkpt><trkpt lat="41.8681504" lon="1.873145"><ele>338.33333333333337</ele><time>2026-04-25T08:26:46.916Z</time></trkpt><trkpt lat="41.8682401" lon="1.8729579"><ele>338.6666666666667</ele><time>2026-04-25T08:26:47.916Z</time></trkpt><trkpt lat="41.8683285" lon="1.872768"><ele>339.0</ele><time>2026-04-25T08:26:48.916Z</time></trkpt><trkpt lat="41.8684141" lon="1.872574"><ele>337.3333333333333</ele><time>2026-04-25T08:26:49.915Z</time></trkpt><trkpt lat="41.868499" lon="1.8723655"><ele>335.66666666666663</ele><time>2026-04-25T08:26:50.917Z</time></trkpt><trkpt lat="41.8685798" lon="1.8721468"><ele>334.0</ele><time>2026-04-25T08:26:51.915Z</time></trkpt><trkpt lat="41.8686556" lon="1.871919"><ele>336.0</ele><time>2026-04-25T08:26:52.916Z</time></trkpt><trkpt lat="41.8687275" lon="1.8716936"><ele>338.0</ele><time>2026-04-25T08:26:53.915Z</time></trkpt><trkpt lat="41.8687908" lon="1.8714665"><ele>340.0</ele><time>2026-04-25T08:26:54.917Z</time></trkpt><trkpt lat="41.8688515" lon="1.8712496"><ele>340.0</ele><time>2026-04-25T08:26:55.916Z</time></trkpt><trkpt lat="41.8689072" lon="1.8710453"><ele>340.0</ele><time>2026-04-25T08:26:56.916Z</time></trkpt><trkpt lat="41.8689655" lon="1.8708394"><ele>340.0</ele><time>2026-04-25T08:26:57.916Z</time></trkpt><trkpt lat="41.869022" lon="1.870633"><ele>341.0</ele><time>2026-04-25T08:26:58.916Z</time></trkpt><trkpt lat="41.86908" lon="1.8704255"><ele>342.0</ele><time>2026-04-25T08:26:59.915Z</time></trkpt><trkpt lat="41.8691396" lon="1.8702136"><ele>343.0</ele><time>2026-04-25T08:27:00.916Z</time></trkpt><trkpt lat="41.869201" lon="1.8699985"><ele>343.0</ele><time>2026-04-25T08:27:01.916Z</time></trkpt><trkpt lat="41.8692606" lon="1.8697828"><ele>343.0</ele><time>2026-04-25T08:27:02.916Z</time></trkpt><trkpt lat="41.869321" lon="1.8695704"><ele>343.0</ele><time>2026-04-25T08:27:03.916Z</time></trkpt><trkpt lat="41.8693794" lon="1.869361"><ele>343.66666666666663</ele><time>2026-04-25T08:27:04.917Z</time></trkpt><trkpt lat="41.8694399" lon="1.8691466"><ele>344.3333333333333</ele><time>2026-04-25T08:27:05.916Z</time></trkpt><trkpt lat="41.8694972" lon="1.8689375"><ele>345.0</ele><time>2026-04-25T08:27:06.915Z</time></trkpt><trkpt lat="41.8695542" lon="1.8687321"><ele>345.0</ele><time>2026-04-25T08:27:07.915Z</time></trkpt><trkpt lat="41.8696103" lon="1.8685346"><ele>345.0</ele><time>2026-04-25T08:27:08.917Z</time></trkpt><trkpt lat="41.8696616" lon="1.8683382"><ele>345.0</ele><time>2026-04-25T08:27:09.917Z</time></trkpt><trkpt lat="41.8697036" lon="1.8681381"><ele>345.0</ele><time>2026-04-25T08:27:10.916Z</time></trkpt><trkpt lat="41.8697323" lon="1.8679312"><ele>345.0</ele><time>2026-04-25T08:27:11.916Z</time></trkpt><trkpt lat="41.8697527" lon="1.8677095"><ele>345.0</ele><time>2026-04-25T08:27:12.916Z</time></trkpt><trkpt lat="41.8697678" lon="1.867494"><ele>345.0</ele><time>2026-04-25T08:27:13.915Z</time></trkpt><trkpt lat="41.8697773" lon="1.8672923"><ele>345.0</ele><time>2026-04-25T08:27:14.916Z</time></trkpt><trkpt lat="41.8697926" lon="1.8671068"><ele>345.0</ele><time>2026-04-25T08:27:15.915Z</time></trkpt><trkpt lat="41.8698319" lon="1.8669528"><ele>345.0</ele><time>2026-04-25T08:27:16.916Z</time></trkpt><trkpt lat="41.8699006" lon="1.8668381"><ele>345.5</ele><time>2026-04-25T08:27:17.916Z</time></trkpt><trkpt lat="41.8699886" lon="1.8667705"><ele>346.0</ele><time>2026-04-25T08:27:18.916Z</time></trkpt><trkpt lat="41.8700997" lon="1.866715"><ele>346.5</ele><time>2026-04-25T08:27:19.916Z</time></trkpt><trkpt lat="41.8702213" lon="1.8666374"><ele>347.0</ele><time>2026-04-25T08:27:20.917Z</time></trkpt><trkpt lat="41.870341" lon="1.8665222"><ele>348.6666666666667</ele><time>2026-04-25T08:27:21.916Z</time></trkpt><trkpt lat="41.8704488" lon="1.8663859"><ele>350.3333333333333</ele><time>2026-04-25T08:27:22.917Z</time></trkpt><trkpt lat="41.870559" lon="1.8662265"><ele>352.0</ele><time>2026-04-25T08:27:23.917Z</time></trkpt><trkpt lat="41.8706682" lon="1.8660475"><ele>351.3333333333333</ele><time>2026-04-25T08:27:24.917Z</time></trkpt><trkpt lat="41.8707671" lon="1.8658468"><ele>350.6666666666667</ele><time>2026-04-25T08:27:25.917Z</time></trkpt><trkpt lat="41.8708548" lon="1.8656177"><ele>350.0</ele><time>2026-04-25T08:27:26.916Z</time></trkpt><trkpt lat="41.8709378" lon="1.8653684"><ele>351.33333333333337</ele><time>2026-04-25T08:27:27.916Z</time></trkpt><trkpt lat="41.8710214" lon="1.8651051"><ele>352.6666666666667</ele><time>2026-04-25T08:27:28.916Z</time></trkpt><trkpt lat="41.8711046" lon="1.8648346"><ele>354.0</ele><time>2026-04-25T08:27:29.917Z</time></trkpt><trkpt lat="41.8711863" lon="1.8645599"><ele>357.0</ele><time>2026-04-25T08:27:30.916Z</time></trkpt><trkpt lat="41.8712727" lon="1.8642714"><ele>360.0</ele><time>2026-04-25T08:27:31.916Z</time></trkpt><trkpt lat="41.8713505" lon="1.8639816"><ele>360.0</ele><time>2026-04-25T08:27:32.915Z</time></trkpt><trkpt lat="41.8714194" lon="1.8636869"><ele>360.0</ele><time>2026-04-25T08:27:33.917Z</time></trkpt><trkpt lat="41.8714874" lon="1.8634002"><ele>361.0</ele><time>2026-04-25T08:27:34.916Z</time></trkpt><trkpt lat="41.8715509" lon="1.8631319"><ele>362.0</ele><time>2026-04-25T08:27:35.917Z</time></trkpt><trkpt lat="41.8716111" lon="1.8628814"><ele>363.0</ele><time>2026-04-25T08:27:36.915Z</time></trkpt><trkpt lat="41.8716831" lon="1.8626499"><ele>363.3333333333333</ele><time>2026-04-25T08:27:37.916Z</time></trkpt><trkpt lat="41.8717801" lon="1.8624234"><ele>363.66666666666663</ele><time>2026-04-25T08:27:38.915Z</time></trkpt><trkpt lat="41.8719051" lon="1.8622121"><ele>364.0</ele><time>2026-04-25T08:27:39.916Z</time></trkpt><trkpt lat="41.872049" lon="1.8620089"><ele>364.0</ele><time>2026-04-25T08:27:40.915Z</time></trkpt><trkpt lat="41.8721991" lon="1.8617982"><ele>364.0</ele><time>2026-04-25T08:27:41.915Z</time></trkpt><trkpt lat="41.8723551" lon="1.861581"><ele>364.0</ele><time>2026-04-25T08:27:42.917Z</time></trkpt><trkpt lat="41.8725124" lon="1.8613574"><ele>366.5</ele><time>2026-04-25T08:27:43.917Z</time></trkpt><trkpt lat="41.8726705" lon="1.8611343"><ele>369.0</ele><time>2026-04-25T08:27:44.916Z</time></trkpt><trkpt lat="41.8728248" lon="1.8609167"><ele>369.0</ele><time>2026-04-25T08:27:45.916Z</time></trkpt><trkpt lat="41.8729718" lon="1.8607093"><ele>369.0</ele><time>2026-04-25T08:27:46.915Z</time></trkpt><trkpt lat="41.8731114" lon="1.8605057"><ele>369.0</ele><time>2026-04-25T08:27:47.917Z</time></trkpt><trkpt lat="41.8732354" lon="1.8602869"><ele>369.3333333333333</ele><time>2026-04-25T08:27:48.917Z</time></trkpt><trkpt lat="41.8733364" lon="1.8600375"><ele>369.66666666666663</ele><time>2026-04-25T08:27:49.917Z</time></trkpt><trkpt lat="41.8734274" lon="1.8597658"><ele>370.0</ele><time>2026-04-25T08:27:50.915Z</time></trkpt><trkpt lat="41.8735237" lon="1.8594821"><ele>371.5</ele><time>2026-04-25T08:27:51.916Z</time></trkpt><trkpt lat="41.8736239" lon="1.859193"><ele>373.0</ele><time>2026-04-25T08:27:52.917Z</time></trkpt><trkpt lat="41.8737252" lon="1.8588968"><ele>373.0</ele><time>2026-04-25T08:27:53.917Z</time></trkpt><trkpt lat="41.8738252" lon="1.8586011"><ele>373.0</ele><time>2026-04-25T08:27:54.916Z</time></trkpt><trkpt lat="41.8739208" lon="1.8583093"><ele>374.0</ele><time>2026-04-25T08:27:55.917Z</time></trkpt><trkpt lat="41.874014" lon="1.8580326"><ele>375.0</ele><time>2026-04-25T08:27:56.916Z</time></trkpt><trkpt lat="41.874103" lon="1.8577752"><ele>376.0</ele><time>2026-04-25T08:27:57.916Z</time></trkpt><trkpt lat="41.8741791" lon="1.8575324"><ele>377.0</ele><time>2026-04-25T08:27:58.916Z</time></trkpt><trkpt lat="41.8742385" lon="1.8572956"><ele>378.0</ele><time>2026-04-25T08:27:59.916Z</time></trkpt><trkpt lat="41.8742728" lon="1.8570406"><ele>379.0</ele><time>2026-04-25T08:28:00.916Z</time></trkpt><trkpt lat="41.8742871" lon="1.8567672"><ele>380.3333333333333</ele><time>2026-04-25T08:28:01.917Z</time></trkpt><trkpt lat="41.8742899" lon="1.8565025"><ele>381.6666666666667</ele><time>2026-04-25T08:28:02.917Z</time></trkpt><trkpt lat="41.8743072" lon="1.8562687"><ele>383.0</ele><time>2026-04-25T08:28:03.916Z</time></trkpt><trkpt lat="41.8743614" lon="1.8560635"><ele>383.25</ele><time>2026-04-25T08:28:04.916Z</time></trkpt><trkpt lat="41.8744557" lon="1.8559067"><ele>383.5</ele><time>2026-04-25T08:28:05.915Z</time></trkpt><trkpt lat="41.8745686" lon="1.8557823"><ele>383.75</ele><time>2026-04-25T08:28:06.917Z</time></trkpt><trkpt lat="41.8746623" lon="1.8556488"><ele>384.0</ele><time>2026-04-25T08:28:07.916Z</time></trkpt><trkpt lat="41.8747252" lon="1.8554771"><ele>384.0</ele><time>2026-04-25T08:28:08.916Z</time></trkpt><trkpt lat="41.8747632" lon="1.8552743"><ele>384.0</ele><time>2026-04-25T08:28:09.917Z</time></trkpt><trkpt lat="41.8747925" lon="1.8550452"><ele>384.0</ele><time>2026-04-25T08:28:10.915Z</time></trkpt><trkpt lat="41.8748241" lon="1.8547951"><ele>385.0</ele><time>2026-04-25T08:28:11.916Z</time></trkpt><trkpt lat="41.8748573" lon="1.8545267"><ele>386.0</ele><time>2026-04-25T08:28:12.917Z</time></trkpt><trkpt lat="41.8748883" lon="1.8542472"><ele>387.0</ele><time>2026-04-25T08:28:13.917Z</time></trkpt><trkpt lat="41.8749206" lon="1.8539649"><ele>387.5</ele><time>2026-04-25T08:28:14.917Z</time></trkpt><trkpt lat="41.8749587" lon="1.8536672"><ele>388.0</ele><time>2026-04-25T08:28:15.917Z</time></trkpt><trkpt lat="41.874995" lon="1.8533663"><ele>390.5</ele><time>2026-04-25T08:28:16.917Z</time></trkpt><trkpt lat="41.8750348" lon="1.853059"><ele>393.0</ele><time>2026-04-25T08:28:17.917Z</time></trkpt><trkpt lat="41.8750718" lon="1.8527469"><ele>400.0</ele><time>2026-04-25T08:28:18.916Z</time></trkpt><trkpt lat="41.8751085" lon="1.8524321"><ele>407.0</ele><time>2026-04-25T08:28:19.916Z</time></trkpt><trkpt lat="41.8751468" lon="1.8521184"><ele>407.0</ele><time>2026-04-25T08:28:20.915Z</time></trkpt><trkpt lat="41.8751849" lon="1.8518065"><ele>407.0</ele><time>2026-04-25T08:28:21.916Z</time></trkpt><trkpt lat="41.8752222" lon="1.8514981"><ele>408.0</ele><time>2026-04-25T08:28:22.916Z</time></trkpt><trkpt lat="41.8752564" lon="1.8511956"><ele>409.0</ele><time>2026-04-25T08:28:23.917Z</time></trkpt><trkpt lat="41.8752918" lon="1.8509042"><ele>410.0</ele><time>2026-04-25T08:28:24.916Z</time></trkpt><trkpt lat="41.8753246" lon="1.8506287"><ele>410.0</ele><time>2026-04-25T08:28:25.917Z</time></trkpt><trkpt lat="41.8753571" lon="1.8503796"><ele>410.0</ele><time>2026-04-25T08:28:26.917Z</time></trkpt><trkpt lat="41.8753866" lon="1.8501572"><ele>410.0</ele><time>2026-04-25T08:28:27.916Z</time></trkpt><trkpt lat="41.8754201" lon="1.8499753"><ele>411.0</ele><time>2026-04-25T08:28:28.916Z</time></trkpt><trkpt lat="41.8754877" lon="1.8498041"><ele>412.0</ele><time>2026-04-25T08:28:29.916Z</time></trkpt><trkpt lat="41.8755856" lon="1.8496491"><ele>413.0</ele><time>2026-04-25T08:28:30.916Z</time></trkpt><trkpt lat="41.8757081" lon="1.849508"><ele>413.0</ele><time>2026-04-25T08:28:31.917Z</time></trkpt><trkpt lat="41.8758545" lon="1.8493862"><ele>413.0</ele><time>2026-04-25T08:28:32.917Z</time></trkpt><trkpt lat="41.8760067" lon="1.849275"><ele>413.0</ele><time>2026-04-25T08:28:33.916Z</time></trkpt><trkpt lat="41.8761565" lon="1.8491626"><ele>415.66666666666663</ele><time>2026-04-25T08:28:34.916Z</time></trkpt><trkpt lat="41.8763031" lon="1.849042"><ele>418.33333333333337</ele><time>2026-04-25T08:28:35.916Z</time></trkpt><trkpt lat="41.8764366" lon="1.8489047"><ele>421.0</ele><time>2026-04-25T08:28:36.916Z</time></trkpt><trkpt lat="41.8765489" lon="1.8487377"><ele>421.0</ele><time>2026-04-25T08:28:37.916Z</time></trkpt><trkpt lat="41.8766605" lon="1.8485388"><ele>421.0</ele><time>2026-04-25T08:28:38.916Z</time></trkpt><trkpt lat="41.8767767" lon="1.8483249"><ele>421.0</ele><time>2026-04-25T08:28:39.916Z</time></trkpt><trkpt lat="41.8768921" lon="1.8481065"><ele>419.33333333333337</ele><time>2026-04-25T08:28:40.916Z</time></trkpt><trkpt lat="41.8770106" lon="1.8478799"><ele>417.66666666666663</ele><time>2026-04-25T08:28:41.916Z</time></trkpt><trkpt lat="41.8771232" lon="1.8476471"><ele>416.0</ele><time>2026-04-25T08:28:42.916Z</time></trkpt><trkpt lat="41.8772183" lon="1.8474046"><ele>416.0</ele><time>2026-04-25T08:28:43.917Z</time></trkpt><trkpt lat="41.8772938" lon="1.8471585"><ele>416.0</ele><time>2026-04-25T08:28:44.916Z</time></trkpt><trkpt lat="41.8773641" lon="1.8469338"><ele>416.0</ele><time>2026-04-25T08:28:45.917Z</time></trkpt><trkpt lat="41.8774406" lon="1.8467486"><ele>417.5</ele><time>2026-04-25T08:28:46.917Z</time></trkpt><trkpt lat="41.8775317" lon="1.8465883"><ele>419.0</ele><time>2026-04-25T08:28:47.916Z</time></trkpt><trkpt lat="41.8776212" lon="1.8464595"><ele>420.5</ele><time>2026-04-25T08:28:48.916Z</time></trkpt><trkpt lat="41.8776897" lon="1.8463207"><ele>422.0</ele><time>2026-04-25T08:28:49.917Z</time></trkpt><trkpt lat="41.8777305" lon="1.8461539"><ele>417.5</ele><time>2026-04-25T08:28:50.915Z</time></trkpt><trkpt lat="41.8777346" lon="1.8459696"><ele>413.0</ele><time>2026-04-25T08:28:51.916Z</time></trkpt><trkpt lat="41.8777051" lon="1.8457823"><ele>408.5</ele><time>2026-04-25T08:28:52.916Z</time></trkpt><trkpt lat="41.8776817" lon="1.8455973"><ele>404.0</ele><time>2026-04-25T08:28:53.915Z</time></trkpt><trkpt lat="41.8776994" lon="1.8454085"><ele>404.0</ele><time>2026-04-25T08:28:54.916Z</time></trkpt><trkpt lat="41.8777382" lon="1.8452266"><ele>404.0</ele><time>2026-04-25T08:28:55.916Z</time></trkpt><trkpt lat="41.8777564" lon="1.8450542"><ele>404.0</ele><time>2026-04-25T08:28:56.917Z</time></trkpt><trkpt lat="41.8777336" lon="1.844862"><ele>404.0</ele><time>2026-04-25T08:28:57.917Z</time></trkpt><trkpt lat="41.8776739" lon="1.8446814"><ele>408.3333333333333</ele><time>2026-04-25T08:28:58.916Z</time></trkpt><trkpt lat="41.8775917" lon="1.8444907"><ele>412.66666666666663</ele><time>2026-04-25T08:28:59.916Z</time></trkpt><trkpt lat="41.8775074" lon="1.8442929"><ele>417.0</ele><time>2026-04-25T08:29:00.916Z</time></trkpt><trkpt lat="41.8774265" lon="1.8440951"><ele>417.0</ele><time>2026-04-25T08:29:01.916Z</time></trkpt><trkpt lat="41.8773454" lon="1.8439145"><ele>417.0</ele><time>2026-04-25T08:29:02.916Z</time></trkpt><trkpt lat="41.877268" lon="1.8437575"><ele>417.0</ele><time>2026-04-25T08:29:03.916Z</time></trkpt><trkpt lat="41.8772046" lon="1.8436059"><ele>417.0</ele><time>2026-04-25T08:29:04.917Z</time></trkpt><trkpt lat="41.877168" lon="1.8434426"><ele>416.75</ele><time>2026-04-25T08:29:05.917Z</time></trkpt><trkpt lat="41.8771765" lon="1.8432805"><ele>416.5</ele><time>2026-04-25T08:29:06.917Z</time></trkpt><trkpt lat="41.8772286" lon="1.8431316"><ele>416.25</ele><time>2026-04-25T08:29:07.915Z</time></trkpt><trkpt lat="41.8773165" lon="1.8430138"><ele>416.0</ele><time>2026-04-25T08:29:08.915Z</time></trkpt><trkpt lat="41.8774403" lon="1.8429449"><ele>416.0</ele><time>2026-04-25T08:29:09.915Z</time></trkpt><trkpt lat="41.8775864" lon="1.8429285"><ele>416.0</ele><time>2026-04-25T08:29:10.917Z</time></trkpt><trkpt lat="41.87773" lon="1.8429271"><ele>416.0</ele><time>2026-04-25T08:29:11.916Z</time></trkpt><trkpt lat="41.8778599" lon="1.8429197"><ele>416.0</ele><time>2026-04-25T08:29:12.915Z</time></trkpt><trkpt lat="41.8779636" lon="1.8428929"><ele>414.8</ele><time>2026-04-25T08:29:13.916Z</time></trkpt><trkpt lat="41.8780487" lon="1.842826"><ele>413.6</ele><time>2026-04-25T08:29:14.916Z</time></trkpt><trkpt lat="41.8781094" lon="1.8427093"><ele>412.4</ele><time>2026-04-25T08:29:15.916Z</time></trkpt><trkpt lat="41.8781229" lon="1.8425595"><ele>411.2</ele><time>2026-04-25T08:29:16.916Z</time></trkpt><trkpt lat="41.8780859" lon="1.8423984"><ele>410.0</ele><time>2026-04-25T08:29:17.916Z</time></trkpt><trkpt lat="41.8780099" lon="1.8422447"><ele>410.0</ele><time>2026-04-25T08:29:18.915Z</time></trkpt><trkpt lat="41.8779189" lon="1.8421071"><ele>410.0</ele><time>2026-04-25T08:29:19.915Z</time></trkpt><trkpt lat="41.8778386" lon="1.8419807"><ele>410.0</ele><time>2026-04-25T08:29:20.916Z</time></trkpt><trkpt lat="41.8777832" lon="1.8418407"><ele>410.0</ele><time>2026-04-25T08:29:21.916Z</time></trkpt><trkpt lat="41.8777807" lon="1.8416913"><ele>410.5</ele><time>2026-04-25T08:29:22.916Z</time></trkpt><trkpt lat="41.8778232" lon="1.8415496"><ele>411.0</ele><time>2026-04-25T08:29:23.915Z</time></trkpt><trkpt lat="41.8779075" lon="1.8414227"><ele>411.5</ele><time>2026-04-25T08:29:24.916Z</time></trkpt><trkpt lat="41.8780208" lon="1.8413451"><ele>412.0</ele><time>2026-04-25T08:29:25.915Z</time></trkpt><trkpt lat="41.8781421" lon="1.8412964"><ele>412.0</ele><time>2026-04-25T08:29:26.915Z</time></trkpt><trkpt lat="41.8782651" lon="1.8412422"><ele>412.0</ele><time>2026-04-25T08:29:27.916Z</time></trkpt><trkpt lat="41.878377" lon="1.8411742"><ele>412.0</ele><time>2026-04-25T08:29:28.916Z</time></trkpt><trkpt lat="41.8784697" lon="1.8410728"><ele>412.0</ele><time>2026-04-25T08:29:29.917Z</time></trkpt><trkpt lat="41.8785242" lon="1.8409386"><ele>414.0</ele><time>2026-04-25T08:29:30.916Z</time></trkpt><trkpt lat="41.8785303" lon="1.8407849"><ele>416.0</ele><time>2026-04-25T08:29:31.917Z</time></trkpt><trkpt lat="41.8784827" lon="1.8406372"><ele>418.0</ele><time>2026-04-25T08:29:32.916Z</time></trkpt><trkpt lat="41.8784087" lon="1.8404825"><ele>420.0</ele><time>2026-04-25T08:29:33.916Z</time></trkpt><trkpt lat="41.878326" lon="1.8403168"><ele>420.0</ele><time>2026-04-25T08:29:34.916Z</time></trkpt><trkpt lat="41.8782366" lon="1.84015"><ele>420.0</ele><time>2026-04-25T08:29:35.916Z</time></trkpt><trkpt lat="41.878148" lon="1.8399807"><ele>420.0</ele><time>2026-04-25T08:29:36.916Z</time></trkpt><trkpt lat="41.8780675" lon="1.839826"><ele>420.0</ele><time>2026-04-25T08:29:37.917Z</time></trkpt><trkpt lat="41.8779907" lon="1.8396762"><ele>419.25</ele><time>2026-04-25T08:29:38.916Z</time></trkpt><trkpt lat="41.8779409" lon="1.839516"><ele>418.5</ele><time>2026-04-25T08:29:39.917Z</time></trkpt><trkpt lat="41.8779238" lon="1.8393629"><ele>417.75</ele><time>2026-04-25T08:29:40.915Z</time></trkpt><trkpt lat="41.8779453" lon="1.8392176"><ele>417.0</ele><time>2026-04-25T08:29:41.916Z</time></trkpt><trkpt lat="41.8779928" lon="1.8390686"><ele>416.75</ele><time>2026-04-25T08:29:42.917Z</time></trkpt><trkpt lat="41.8780357" lon="1.8389073"><ele>416.5</ele><time>2026-04-25T08:29:43.917Z</time></trkpt><trkpt lat="41.8780568" lon="1.8387358"><ele>416.25</ele><time>2026-04-25T08:29:44.916Z</time></trkpt><trkpt lat="41.8780921" lon="1.8385796"><ele>416.0</ele><time>2026-04-25T08:29:45.916Z</time></trkpt><trkpt lat="41.8781333" lon="1.838446"><ele>416.0</ele><time>2026-04-25T08:29:46.915Z</time></trkpt><trkpt lat="41.8781387" lon="1.8382997"><ele>416.0</ele><time>2026-04-25T08:29:47.916Z</time></trkpt><trkpt lat="41.8781063" lon="1.8381495"><ele>416.0</ele><time>2026-04-25T08:29:48.916Z</time></trkpt><trkpt lat="41.8780368" lon="1.8380173"><ele>416.0</ele><time>2026-04-25T08:29:49.916Z</time></trkpt><trkpt lat="41.877961" lon="1.8379043"><ele>416.0</ele><time>2026-04-25T08:29:50.916Z</time></trkpt><trkpt lat="41.8779086" lon="1.8377804"><ele>416.0</ele><time>2026-04-25T08:29:51.917Z</time></trkpt><trkpt lat="41.8778998" lon="1.8376301"><ele>416.0</ele><time>2026-04-25T08:29:52.915Z</time></trkpt><trkpt lat="41.8779338" lon="1.8374871"><ele>416.0</ele><time>2026-04-25T08:29:53.917Z</time></trkpt><trkpt lat="41.8779994" lon="1.8373852"><ele>416.0</ele><time>2026-04-25T08:29:54.917Z</time></trkpt><trkpt lat="41.8780909" lon="1.8373326"><ele>416.8</ele><time>2026-04-25T08:29:55.916Z</time></trkpt><trkpt lat="41.8781985" lon="1.837318"><ele>417.6</ele><time>2026-04-25T08:29:56.916Z</time></trkpt><trkpt lat="41.8783009" lon="1.8372853"><ele>418.4</ele><time>2026-04-25T08:29:57.915Z</time></trkpt><trkpt lat="41.8783927" lon="1.8372044"><ele>419.2</ele><time>2026-04-25T08:29:58.916Z</time></trkpt><trkpt lat="41.8784593" lon="1.837077"><ele>420.0</ele><time>2026-04-25T08:29:59.916Z</time></trkpt><trkpt lat="41.8785091" lon="1.8369214"><ele>418.25</ele><time>2026-04-25T08:30:00.916Z</time></trkpt><trkpt lat="41.8785577" lon="1.8367504"><ele>416.5</ele><time>2026-04-25T08:30:01.917Z</time></trkpt><trkpt lat="41.8786085" lon="1.8365643"><ele>414.75</ele><time>2026-04-25T08:30:02.916Z</time></trkpt><trkpt lat="41.8786533" lon="1.8363908"><ele>413.0</ele><time>2026-04-25T08:30:03.916Z</time></trkpt><trkpt lat="41.8786805" lon="1.8362134"><ele>413.0</ele><time>2026-04-25T08:30:04.917Z</time></trkpt><trkpt lat="41.8786765" lon="1.8360174"><ele>413.0</ele><time>2026-04-25T08:30:05.915Z</time></trkpt><trkpt lat="41.8786481" lon="1.8358146"><ele>413.0</ele><time>2026-04-25T08:30:06.915Z</time></trkpt><trkpt lat="41.8786097" lon="1.8356035"><ele>413.3333333333333</ele><time>2026-04-25T08:30:07.916Z</time></trkpt><trkpt lat="41.8785642" lon="1.8353946"><ele>413.66666666666663</ele><time>2026-04-25T08:30:08.916Z</time></trkpt><trkpt lat="41.8785212" lon="1.8351979"><ele>414.0</ele><time>2026-04-25T08:30:09.916Z</time></trkpt><trkpt lat="41.8784756" lon="1.835025"><ele>416.5</ele><time>2026-04-25T08:30:10.917Z</time></trkpt><trkpt lat="41.8784115" lon="1.8348699"><ele>419.0</ele><time>2026-04-25T08:30:11.917Z</time></trkpt><trkpt lat="41.8783188" lon="1.8347435"><ele>421.5</ele><time>2026-04-25T08:30:12.916Z</time></trkpt><trkpt lat="41.8782113" lon="1.8346393"><ele>424.0</ele><time>2026-04-25T08:30:13.916Z</time></trkpt><trkpt lat="41.8781129" lon="1.8345379"><ele>424.0</ele><time>2026-04-25T08:30:14.917Z</time></trkpt><trkpt lat="41.8780537" lon="1.8344087"><ele>424.0</ele><time>2026-04-25T08:30:15.916Z</time></trkpt><trkpt lat="41.8780341" lon="1.8342494"><ele>424.0</ele><time>2026-04-25T08:30:16.916Z</time></trkpt><trkpt lat="41.8780481" lon="1.8340816"><ele>424.0</ele><time>2026-04-25T08:30:17.916Z</time></trkpt><trkpt lat="41.8780896" lon="1.8339171"><ele>423.5</ele><time>2026-04-25T08:30:18.916Z</time></trkpt><trkpt lat="41.8781404" lon="1.8337653"><ele>423.0</ele><time>2026-04-25T08:30:19.916Z</time></trkpt><trkpt lat="41.8782145" lon="1.8336369"><ele>422.5</ele><time>2026-04-25T08:30:20.917Z</time></trkpt><trkpt lat="41.8783161" lon="1.8335676"><ele>422.0</ele><time>2026-04-25T08:30:21.916Z</time></trkpt><trkpt lat="41.8784181" lon="1.8335702"><ele>422.5</ele><time>2026-04-25T08:30:22.915Z</time></trkpt><trkpt lat="41.8785232" lon="1.8336221"><ele>423.0</ele><time>2026-04-25T08:30:23.915Z</time></trkpt><trkpt lat="41.8786376" lon="1.8337027"><ele>423.5</ele><time>2026-04-25T08:30:24.916Z</time></trkpt><trkpt lat="41.8787617" lon="1.8337985"><ele>424.0</ele><time>2026-04-25T08:30:25.915Z</time></trkpt><trkpt lat="41.8788867" lon="1.8338959"><ele>424.0</ele><time>2026-04-25T08:30:26.916Z</time></trkpt><trkpt lat="41.8790072" lon="1.8339771"><ele>424.0</ele><time>2026-04-25T08:30:27.917Z</time></trkpt><trkpt lat="41.8791227" lon="1.8340311"><ele>424.0</ele><time>2026-04-25T08:30:28.917Z</time></trkpt><trkpt lat="41.8792302" lon="1.834035"><ele>424.0</ele><time>2026-04-25T08:30:29.917Z</time></trkpt><trkpt lat="41.8793356" lon="1.8339831"><ele>423.75</ele><time>2026-04-25T08:30:30.915Z</time></trkpt><trkpt lat="41.8794278" lon="1.833881"><ele>423.5</ele><time>2026-04-25T08:30:31.916Z</time></trkpt><trkpt lat="41.8795047" lon="1.8337268"><ele>423.25</ele><time>2026-04-25T08:30:32.916Z</time></trkpt><trkpt lat="41.8795657" lon="1.8335519"><ele>423.0</ele><time>2026-04-25T08:30:33.917Z</time></trkpt><trkpt lat="41.8795993" lon="1.833368"><ele>423.75</ele><time>2026-04-25T08:30:34.916Z</time></trkpt><trkpt lat="41.8795929" lon="1.8331782"><ele>424.5</ele><time>2026-04-25T08:30:35.917Z</time></trkpt><trkpt lat="41.8795493" lon="1.8329897"><ele>425.25</ele><time>2026-04-25T08:30:36.917Z</time></trkpt><trkpt lat="41.8794863" lon="1.8327985"><ele>426.0</ele><time>2026-04-25T08:30:37.915Z</time></trkpt><trkpt lat="41.8794289" lon="1.8325809"><ele>426.33333333333337</ele><time>2026-04-25T08:30:38.916Z</time></trkpt><trkpt lat="41.8793962" lon="1.8323524"><ele>426.6666666666667</ele><time>2026-04-25T08:30:39.916Z</time></trkpt><trkpt lat="41.8793762" lon="1.8321087"><ele>427.0</ele><time>2026-04-25T08:30:40.915Z</time></trkpt><trkpt lat="41.8793607" lon="1.8318608"><ele>428.0</ele><time>2026-04-25T08:30:41.916Z</time></trkpt><trkpt lat="41.8793331" lon="1.8316068"><ele>429.0</ele><time>2026-04-25T08:30:42.916Z</time></trkpt><trkpt lat="41.8792819" lon="1.8313501"><ele>430.0</ele><time>2026-04-25T08:30:43.915Z</time></trkpt><trkpt lat="41.8792157" lon="1.8310868"><ele>432.0</ele><time>2026-04-25T08:30:44.916Z</time></trkpt><trkpt lat="41.8791408" lon="1.8308204"><ele>434.0</ele><time>2026-04-25T08:30:45.917Z</time></trkpt><trkpt lat="41.8790582" lon="1.8305574"><ele>436.0</ele><time>2026-04-25T08:30:46.917Z</time></trkpt><trkpt lat="41.8789739" lon="1.8302942"><ele>435.0</ele><time>2026-04-25T08:30:47.915Z</time></trkpt><trkpt lat="41.878893" lon="1.830041"><ele>434.0</ele><time>2026-04-25T08:30:48.917Z</time></trkpt><trkpt lat="41.8788183" lon="1.8298095"><ele>433.0</ele><time>2026-04-25T08:30:49.916Z</time></trkpt><trkpt lat="41.8787565" lon="1.8296013"><ele>433.0</ele><time>2026-04-25T08:30:50.916Z</time></trkpt><trkpt lat="41.8787132" lon="1.8294068"><ele>433.0</ele><time>2026-04-25T08:30:51.916Z</time></trkpt><trkpt lat="41.8787075" lon="1.8292033"><ele>433.0</ele><time>2026-04-25T08:30:52.917Z</time></trkpt><trkpt lat="41.8787456" lon="1.8290038"><ele>433.0</ele><time>2026-04-25T08:30:53.915Z</time></trkpt><trkpt lat="41.8787925" lon="1.8288117"><ele>433.0</ele><time>2026-04-25T08:30:54.916Z</time></trkpt><trkpt lat="41.8788087" lon="1.828634"><ele>433.0</ele><time>2026-04-25T08:30:55.917Z</time></trkpt><trkpt lat="41.8787893" lon="1.8284663"><ele>433.0</ele><time>2026-04-25T08:30:56.916Z</time></trkpt><trkpt lat="41.8787304" lon="1.828299"><ele>433.6666666666667</ele><time>2026-04-25T08:30:57.916Z</time></trkpt><trkpt lat="41.8786486" lon="1.8281316"><ele>434.33333333333337</ele><time>2026-04-25T08:30:58.916Z</time></trkpt><trkpt lat="41.8785617" lon="1.8279446"><ele>435.0</ele><time>2026-04-25T08:30:59.915Z</time></trkpt><trkpt lat="41.8784823" lon="1.8277314"><ele>437.0</ele><time>2026-04-25T08:31:00.917Z</time></trkpt><trkpt lat="41.8784202" lon="1.8274914"><ele>439.0</ele><time>2026-04-25T08:31:01.917Z</time></trkpt><trkpt lat="41.8783656" lon="1.8272338"><ele>441.0</ele><time>2026-04-25T08:31:02.917Z</time></trkpt><trkpt lat="41.8783051" lon="1.8269688"><ele>441.66666666666663</ele><time>2026-04-25T08:31:03.916Z</time></trkpt><trkpt lat="41.8782489" lon="1.8267018"><ele>442.3333333333333</ele><time>2026-04-25T08:31:04.916Z</time></trkpt><trkpt lat="41.8781949" lon="1.8264284"><ele>443.0</ele><time>2026-04-25T08:31:05.915Z</time></trkpt><trkpt lat="41.8781389" lon="1.8261582"><ele>443.66666666666663</ele><time>2026-04-25T08:31:06.915Z</time></trkpt><trkpt lat="41.8780738" lon="1.8258947"><ele>444.33333333333337</ele><time>2026-04-25T08:31:07.915Z</time></trkpt><trkpt lat="41.877993" lon="1.8256416"><ele>445.0</ele><time>2026-04-25T08:31:08.915Z</time></trkpt><trkpt lat="41.877898" lon="1.8253998"><ele>445.0</ele><time>2026-04-25T08:31:09.916Z</time></trkpt><trkpt lat="41.8777938" lon="1.8251689"><ele>445.0</ele><time>2026-04-25T08:31:10.916Z</time></trkpt><trkpt lat="41.8776907" lon="1.8249564"><ele>445.0</ele><time>2026-04-25T08:31:11.916Z</time></trkpt><trkpt lat="41.8775989" lon="1.8247653"><ele>447.0</ele><time>2026-04-25T08:31:12.916Z</time></trkpt><trkpt lat="41.8775257" lon="1.8245938"><ele>449.0</ele><time>2026-04-25T08:31:13.916Z</time></trkpt><trkpt lat="41.8774803" lon="1.8244268"><ele>451.0</ele><time>2026-04-25T08:31:14.916Z</time></trkpt><trkpt lat="41.877468" lon="1.8242498"><ele>453.0</ele><time>2026-04-25T08:31:15.915Z</time></trkpt><trkpt lat="41.8774939" lon="1.8240626"><ele>453.0</ele><time>2026-04-25T08:31:16.916Z</time></trkpt><trkpt lat="41.8775584" lon="1.8238755"><ele>453.0</ele><time>2026-04-25T08:31:17.917Z</time></trkpt><trkpt lat="41.8776422" lon="1.8236847"><ele>453.0</ele><time>2026-04-25T08:31:18.915Z</time></trkpt><trkpt lat="41.8777255" lon="1.8234897"><ele>454.0</ele><time>2026-04-25T08:31:19.917Z</time></trkpt><trkpt lat="41.8778048" lon="1.8232948"><ele>455.0</ele><time>2026-04-25T08:31:20.916Z</time></trkpt><trkpt lat="41.8778784" lon="1.8230893"><ele>456.0</ele><time>2026-04-25T08:31:21.916Z</time></trkpt><trkpt lat="41.8779265" lon="1.8228757"><ele>456.0</ele><time>2026-04-25T08:31:22.917Z</time></trkpt><trkpt lat="41.8779425" lon="1.8226562"><ele>456.0</ele><time>2026-04-25T08:31:23.916Z</time></trkpt><trkpt lat="41.8779269" lon="1.8224387"><ele>456.0</ele><time>2026-04-25T08:31:24.917Z</time></trkpt><trkpt lat="41.8778857" lon="1.8222292"><ele>457.66666666666663</ele><time>2026-04-25T08:31:25.916Z</time></trkpt><trkpt lat="41.8778552" lon="1.822026"><ele>459.3333333333333</ele><time>2026-04-25T08:31:26.916Z</time></trkpt><trkpt lat="41.8778733" lon="1.8218297"><ele>461.0</ele><time>2026-04-25T08:31:27.917Z</time></trkpt><trkpt lat="41.8779191" lon="1.8216343"><ele>462.0</ele><time>2026-04-25T08:31:28.916Z</time></trkpt><trkpt lat="41.8779423" lon="1.8214338"><ele>463.0</ele><time>2026-04-25T08:31:29.916Z</time></trkpt><trkpt lat="41.8779348" lon="1.8212243"><ele>464.0</ele><time>2026-04-25T08:31:30.916Z</time></trkpt><trkpt lat="41.8778955" lon="1.8210109"><ele>466.0</ele><time>2026-04-25T08:31:31.916Z</time></trkpt><trkpt lat="41.8778418" lon="1.8207872"><ele>468.0</ele><time>2026-04-25T08:31:32.916Z</time></trkpt><trkpt lat="41.8777849" lon="1.8205494"><ele>470.0</ele><time>2026-04-25T08:31:33.916Z</time></trkpt><trkpt lat="41.8777161" lon="1.8203059"><ele>472.0</ele><time>2026-04-25T08:31:34.917Z</time></trkpt><trkpt lat="41.8776479" lon="1.8200553"><ele>474.0</ele><time>2026-04-25T08:31:35.916Z</time></trkpt><trkpt lat="41.8775864" lon="1.8198099"><ele>476.0</ele><time>2026-04-25T08:31:36.916Z</time></trkpt><trkpt lat="41.877529" lon="1.81958"><ele>476.0</ele><time>2026-04-25T08:31:37.917Z</time></trkpt><trkpt lat="41.8774847" lon="1.819358"><ele>476.0</ele><time>2026-04-25T08:31:38.916Z</time></trkpt><trkpt lat="41.8774604" lon="1.8191259"><ele>476.0</ele><time>2026-04-25T08:31:39.916Z</time></trkpt><trkpt lat="41.8774512" lon="1.818878"><ele>475.3333333333333</ele><time>2026-04-25T08:31:40.916Z</time></trkpt><trkpt lat="41.8774392" lon="1.818616"><ele>474.66666666666663</ele><time>2026-04-25T08:31:41.915Z</time></trkpt><trkpt lat="41.8774253" lon="1.818341"><ele>474.0</ele><time>2026-04-25T08:31:42.915Z</time></trkpt><trkpt lat="41.8774161" lon="1.8180577"><ele>473.33333333333337</ele><time>2026-04-25T08:31:43.916Z</time></trkpt><trkpt lat="41.8774066" lon="1.8177737"><ele>472.6666666666667</ele><time>2026-04-25T08:31:44.917Z</time></trkpt><trkpt lat="41.8773967" lon="1.8174952"><ele>472.0</ele><time>2026-04-25T08:31:45.916Z</time></trkpt><trkpt lat="41.8773858" lon="1.8172295"><ele>471.6666666666667</ele><time>2026-04-25T08:31:46.916Z</time></trkpt><trkpt lat="41.8773713" lon="1.8169707"><ele>471.33333333333337</ele><time>2026-04-25T08:31:47.917Z</time></trkpt><trkpt lat="41.8773588" lon="1.8167135"><ele>471.0</ele><time>2026-04-25T08:31:48.916Z</time></trkpt><trkpt lat="41.8773311" lon="1.8164577"><ele>470.66666666666663</ele><time>2026-04-25T08:31:49.917Z</time></trkpt><trkpt lat="41.8772814" lon="1.8161952"><ele>470.3333333333333</ele><time>2026-04-25T08:31:50.916Z</time></trkpt><trkpt lat="41.8772207" lon="1.8159261"><ele>470.0</ele><time>2026-04-25T08:31:51.917Z</time></trkpt><trkpt lat="41.8771488" lon="1.8156592"><ele>470.0</ele><time>2026-04-25T08:31:52.917Z</time></trkpt><trkpt lat="41.8770761" lon="1.8154008"><ele>470.0</ele><time>2026-04-25T08:31:53.916Z</time></trkpt><trkpt lat="41.877013" lon="1.8151628"><ele>470.0</ele><time>2026-04-25T08:31:54.915Z</time></trkpt><trkpt lat="41.8769557" lon="1.8149442"><ele>469.66666666666663</ele><time>2026-04-25T08:31:55.916Z</time></trkpt><trkpt lat="41.8768901" lon="1.8147258"><ele>469.33333333333337</ele><time>2026-04-25T08:31:56.916Z</time></trkpt><trkpt lat="41.8768008" lon="1.8145032"><ele>469.0</ele><time>2026-04-25T08:31:57.917Z</time></trkpt><trkpt lat="41.8766977" lon="1.8142762"><ele>468.6666666666667</ele><time>2026-04-25T08:31:58.916Z</time></trkpt><trkpt lat="41.8765918" lon="1.8140395"><ele>468.33333333333337</ele><time>2026-04-25T08:31:59.917Z</time></trkpt><trkpt lat="41.8764706" lon="1.813806"><ele>468.0</ele><time>2026-04-25T08:32:00.917Z</time></trkpt><trkpt lat="41.8763469" lon="1.8135614"><ele>469.0</ele><time>2026-04-25T08:32:01.916Z</time></trkpt><trkpt lat="41.8762218" lon="1.8133096"><ele>470.0</ele><time>2026-04-25T08:32:02.917Z</time></trkpt><trkpt lat="41.8760939" lon="1.8130567"><ele>470.0</ele><time>2026-04-25T08:32:03.915Z</time></trkpt><trkpt lat="41.8759647" lon="1.8128035"><ele>470.0</ele><time>2026-04-25T08:32:04.916Z</time></trkpt><trkpt lat="41.8758358" lon="1.8125481"><ele>470.5</ele><time>2026-04-25T08:32:05.916Z</time></trkpt><trkpt lat="41.8757062" lon="1.8122935"><ele>471.0</ele><time>2026-04-25T08:32:06.915Z</time></trkpt><trkpt lat="41.875577" lon="1.8120367"><ele>472.66666666666663</ele><time>2026-04-25T08:32:07.916Z</time></trkpt><trkpt lat="41.8754537" lon="1.811792"><ele>474.3333333333333</ele><time>2026-04-25T08:32:08.915Z</time></trkpt><trkpt lat="41.8753306" lon="1.81155"><ele>476.0</ele><time>2026-04-25T08:32:09.917Z</time></trkpt><trkpt lat="41.8752127" lon="1.8112954"><ele>476.0</ele><time>2026-04-25T08:32:10.916Z</time></trkpt><trkpt lat="41.8751032" lon="1.8110308"><ele>476.0</ele><time>2026-04-25T08:32:11.917Z</time></trkpt><trkpt lat="41.8750043" lon="1.8107679"><ele>476.0</ele><time>2026-04-25T08:32:12.916Z</time></trkpt><trkpt lat="41.8749105" lon="1.8105122"><ele>476.0</ele><time>2026-04-25T08:32:13.917Z</time></trkpt><trkpt lat="41.8748268" lon="1.8102678"><ele>476.0</ele><time>2026-04-25T08:32:14.917Z</time></trkpt><trkpt lat="41.8747477" lon="1.8100456"><ele>476.0</ele><time>2026-04-25T08:32:15.915Z</time></trkpt><trkpt lat="41.8746669" lon="1.8098368"><ele>476.3333333333333</ele><time>2026-04-25T08:32:16.916Z</time></trkpt><trkpt lat="41.8745616" lon="1.8096428"><ele>476.66666666666663</ele><time>2026-04-25T08:32:17.916Z</time></trkpt><trkpt lat="41.8744325" lon="1.8094657"><ele>477.0</ele><time>2026-04-25T08:32:18.916Z</time></trkpt><trkpt lat="41.8742777" lon="1.8093165"><ele>473.66666666666663</ele><time>2026-04-25T08:32:19.917Z</time></trkpt><trkpt lat="41.8740988" lon="1.8092011"><ele>470.3333333333333</ele><time>2026-04-25T08:32:20.916Z</time></trkpt><trkpt lat="41.8739067" lon="1.8090933"><ele>467.0</ele><time>2026-04-25T08:32:21.916Z</time></trkpt><trkpt lat="41.8737058" lon="1.8089801"><ele>467.0</ele><time>2026-04-25T08:32:22.917Z</time></trkpt><trkpt lat="41.8734989" lon="1.808867"><ele>467.0</ele><time>2026-04-25T08:32:23.916Z</time></trkpt><trkpt lat="41.87329" lon="1.8087537"><ele>467.0</ele><time>2026-04-25T08:32:24.916Z</time></trkpt><trkpt lat="41.8730828" lon="1.80864"><ele>466.3333333333333</ele><time>2026-04-25T08:32:25.916Z</time></trkpt><trkpt lat="41.8728834" lon="1.8085293"><ele>465.66666666666663</ele><time>2026-04-25T08:32:26.916Z</time></trkpt><trkpt lat="41.8726968" lon="1.808428"><ele>465.0</ele><time>2026-04-25T08:32:27.916Z</time></trkpt><trkpt lat="41.8725221" lon="1.8083354"><ele>464.66666666666663</ele><time>2026-04-25T08:32:28.917Z</time></trkpt><trkpt lat="41.872367" lon="1.8082307"><ele>464.3333333333333</ele><time>2026-04-25T08:32:29.917Z</time></trkpt><trkpt lat="41.8722379" lon="1.8080876"><ele>464.0</ele><time>2026-04-25T08:32:30.917Z</time></trkpt><trkpt lat="41.8721225" lon="1.8079095"><ele>464.0</ele><time>2026-04-25T08:32:31.917Z</time></trkpt><trkpt lat="41.8720326" lon="1.8076957"><ele>464.0</ele><time>2026-04-25T08:32:32.916Z</time></trkpt><trkpt lat="41.8719699" lon="1.8074497"><ele>464.0</ele><time>2026-04-25T08:32:33.916Z</time></trkpt><trkpt lat="41.8719217" lon="1.8071877"><ele>463.3333333333333</ele><time>2026-04-25T08:32:34.916Z</time></trkpt><trkpt lat="41.8718754" lon="1.8069197"><ele>462.66666666666663</ele><time>2026-04-25T08:32:35.916Z</time></trkpt><trkpt lat="41.8718291" lon="1.8066503"><ele>462.0</ele><time>2026-04-25T08:32:36.915Z</time></trkpt><trkpt lat="41.8717747" lon="1.8063976"><ele>460.33333333333337</ele><time>2026-04-25T08:32:37.916Z</time></trkpt><trkpt lat="41.8717046" lon="1.8061486"><ele>458.6666666666667</ele><time>2026-04-25T08:32:38.916Z</time></trkpt><trkpt lat="41.8716079" lon="1.8059062"><ele>457.0</ele><time>2026-04-25T08:32:39.916Z</time></trkpt><trkpt lat="41.8714978" lon="1.8056656"><ele>455.6666666666667</ele><time>2026-04-25T08:32:40.917Z</time></trkpt><trkpt lat="41.8713845" lon="1.8054211"><ele>454.33333333333337</ele><time>2026-04-25T08:32:41.917Z</time></trkpt><trkpt lat="41.8712739" lon="1.8051814"><ele>453.0</ele><time>2026-04-25T08:32:42.916Z</time></trkpt><trkpt lat="41.8711659" lon="1.8049546"><ele>452.33333333333337</ele><time>2026-04-25T08:32:43.916Z</time></trkpt><trkpt lat="41.8710459" lon="1.804737"><ele>451.6666666666667</ele><time>2026-04-25T08:32:44.917Z</time></trkpt><trkpt lat="41.8709018" lon="1.8045289"><ele>451.0</ele><time>2026-04-25T08:32:45.916Z</time></trkpt><trkpt lat="41.8707431" lon="1.8043166"><ele>447.5</ele><time>2026-04-25T08:32:46.916Z</time></trkpt><trkpt lat="41.8705752" lon="1.8040956"><ele>444.0</ele><time>2026-04-25T08:32:47.915Z</time></trkpt><trkpt lat="41.870403" lon="1.8038694"><ele>444.0</ele><time>2026-04-25T08:32:48.916Z</time></trkpt><trkpt lat="41.8702273" lon="1.8036447"><ele>444.0</ele><time>2026-04-25T08:32:49.916Z</time></trkpt><trkpt lat="41.870055" lon="1.8034228"><ele>443.33333333333337</ele><time>2026-04-25T08:32:50.915Z</time></trkpt><trkpt lat="41.8698916" lon="1.803206"><ele>442.6666666666667</ele><time>2026-04-25T08:32:51.916Z</time></trkpt><trkpt lat="41.869738" lon="1.8029963"><ele>442.0</ele><time>2026-04-25T08:32:52.917Z</time></trkpt><trkpt lat="41.8695967" lon="1.8028079"><ele>440.6666666666667</ele><time>2026-04-25T08:32:53.917Z</time></trkpt><trkpt lat="41.8694704" lon="1.8026417"><ele>439.33333333333337</ele><time>2026-04-25T08:32:54.916Z</time></trkpt><trkpt lat="41.8693611" lon="1.8025036"><ele>438.0</ele><time>2026-04-25T08:32:55.917Z</time></trkpt><trkpt lat="41.8692706" lon="1.8023825"><ele>438.0</ele><time>2026-04-25T08:32:56.916Z</time></trkpt><trkpt lat="41.8692064" lon="1.8022446"><ele>438.0</ele><time>2026-04-25T08:32:57.916Z</time></trkpt><trkpt lat="41.8691827" lon="1.8020744"><ele>438.0</ele><time>2026-04-25T08:32:58.916Z</time></trkpt><trkpt lat="41.8691984" lon="1.8018996"><ele>438.0</ele><time>2026-04-25T08:32:59.916Z</time></trkpt><trkpt lat="41.8692323" lon="1.8017133"><ele>436.5</ele><time>2026-04-25T08:33:00.916Z</time></trkpt><trkpt lat="41.8692644" lon="1.8015308"><ele>435.0</ele><time>2026-04-25T08:33:01.916Z</time></trkpt><trkpt lat="41.8692901" lon="1.8013552"><ele>433.5</ele><time>2026-04-25T08:33:02.915Z</time></trkpt><trkpt lat="41.8692881" lon="1.8011936"><ele>432.0</ele><time>2026-04-25T08:33:03.916Z</time></trkpt><trkpt lat="41.8692424" lon="1.8010482"><ele>432.5</ele><time>2026-04-25T08:33:04.916Z</time></trkpt><trkpt lat="41.8691553" lon="1.8009302"><ele>433.0</ele><time>2026-04-25T08:33:05.915Z</time></trkpt><trkpt lat="41.8690433" lon="1.8008534"><ele>433.5</ele><time>2026-04-25T08:33:06.916Z</time></trkpt><trkpt lat="41.8689079" lon="1.8008196"><ele>434.0</ele><time>2026-04-25T08:33:07.915Z</time></trkpt><trkpt lat="41.8687573" lon="1.8007895"><ele>434.0</ele><time>2026-04-25T08:33:08.916Z</time></trkpt><trkpt lat="41.8685928" lon="1.8007502"><ele>434.0</ele><time>2026-04-25T08:33:09.916Z</time></trkpt><trkpt lat="41.8684208" lon="1.800713"><ele>434.0</ele><time>2026-04-25T08:33:10.916Z</time></trkpt><trkpt lat="41.868247" lon="1.8006719"><ele>434.3333333333333</ele><time>2026-04-25T08:33:11.916Z</time></trkpt><trkpt lat="41.8680745" lon="1.8006138"><ele>434.66666666666663</ele><time>2026-04-25T08:33:12.916Z</time></trkpt><trkpt lat="41.8679095" lon="1.8005217"><ele>435.0</ele><time>2026-04-25T08:33:13.915Z</time></trkpt><trkpt lat="41.8677411" lon="1.8004048"><ele>435.66666666666663</ele><time>2026-04-25T08:33:14.916Z</time></trkpt><trkpt lat="41.8675621" lon="1.8002779"><ele>436.3333333333333</ele><time>2026-04-25T08:33:15.916Z</time></trkpt><trkpt lat="41.8673755" lon="1.8001476"><ele>437.0</ele><time>2026-04-25T08:33:16.916Z</time></trkpt><trkpt lat="41.8671842" lon="1.8000135"><ele>437.0</ele><time>2026-04-25T08:33:17.916Z</time></trkpt><trkpt lat="41.8669944" lon="1.7998766"><ele>437.0</ele><time>2026-04-25T08:33:18.915Z</time></trkpt><trkpt lat="41.8668097" lon="1.7997465"><ele>437.0</ele><time>2026-04-25T08:33:19.916Z</time></trkpt><trkpt lat="41.8666318" lon="1.7996218"><ele>434.66666666666663</ele><time>2026-04-25T08:33:20.917Z</time></trkpt><trkpt lat="41.8664555" lon="1.7995127"><ele>432.33333333333337</ele><time>2026-04-25T08:33:21.917Z</time></trkpt><trkpt lat="41.8662675" lon="1.7994431"><ele>430.0</ele><time>2026-04-25T08:33:22.915Z</time></trkpt><trkpt lat="41.8660677" lon="1.7994254"><ele>428.6666666666667</ele><time>2026-04-25T08:33:23.917Z</time></trkpt><trkpt lat="41.865868" lon="1.7994465"><ele>427.33333333333337</ele><time>2026-04-25T08:33:24.915Z</time></trkpt><trkpt lat="41.8656657" lon="1.799496"><ele>426.0</ele><time>2026-04-25T08:33:25.916Z</time></trkpt><trkpt lat="41.8654642" lon="1.7995846"><ele>426.0</ele><time>2026-04-25T08:33:26.916Z</time></trkpt><trkpt lat="41.8652589" lon="1.7996919"><ele>426.0</ele><time>2026-04-25T08:33:27.916Z</time></trkpt><trkpt lat="41.8650503" lon="1.7998019"><ele>426.0</ele><time>2026-04-25T08:33:28.916Z</time></trkpt><trkpt lat="41.8648457" lon="1.7999065"><ele>425.0</ele><time>2026-04-25T08:33:29.917Z</time></trkpt><trkpt lat="41.864655" lon="1.8000066"><ele>424.0</ele><time>2026-04-25T08:33:30.916Z</time></trkpt><trkpt lat="41.8644804" lon="1.8000966"><ele>423.0</ele><time>2026-04-25T08:33:31.916Z</time></trkpt><trkpt lat="41.8643341" lon="1.8001686"><ele>423.75</ele><time>2026-04-25T08:33:32.917Z</time></trkpt><trkpt lat="41.8642113" lon="1.8002127"><ele>424.5</ele><time>2026-04-25T08:33:33.916Z</time></trkpt><trkpt lat="41.8640831" lon="1.8002104"><ele>425.25</ele><time>2026-04-25T08:33:34.915Z</time></trkpt><trkpt lat="41.8639593" lon="1.8001461"><ele>426.0</ele><time>2026-04-25T08:33:35.915Z</time></trkpt><trkpt lat="41.8638448" lon="1.8000404"><ele>428.25</ele><time>2026-04-25T08:33:36.917Z</time></trkpt><trkpt lat="41.8637381" lon="1.7999154"><ele>430.5</ele><time>2026-04-25T08:33:37.917Z</time></trkpt><trkpt lat="41.8636516" lon="1.7997704"><ele>432.75</ele><time>2026-04-25T08:33:38.917Z</time></trkpt><trkpt lat="41.8635974" lon="1.7995932"><ele>435.0</ele><time>2026-04-25T08:33:39.916Z</time></trkpt><trkpt lat="41.8635687" lon="1.7993891"><ele>438.0</ele><time>2026-04-25T08:33:40.916Z</time></trkpt><trkpt lat="41.863548" lon="1.7991641"><ele>441.0</ele><time>2026-04-25T08:33:41.916Z</time></trkpt><trkpt lat="41.8635267" lon="1.7989371"><ele>444.0</ele><time>2026-04-25T08:33:42.916Z</time></trkpt><trkpt lat="41.8634892" lon="1.7987031"><ele>439.0</ele><time>2026-04-25T08:33:43.916Z</time></trkpt><trkpt lat="41.8634361" lon="1.7984721"><ele>434.0</ele><time>2026-04-25T08:33:44.916Z</time></trkpt><trkpt lat="41.8633611" lon="1.7982584"><ele>429.0</ele><time>2026-04-25T08:33:45.916Z</time></trkpt><trkpt lat="41.863263" lon="1.7980577"><ele>429.0</ele><time>2026-04-25T08:33:46.916Z</time></trkpt><trkpt lat="41.8631377" lon="1.7978681"><ele>429.0</ele><time>2026-04-25T08:33:47.915Z</time></trkpt><trkpt lat="41.8629919" lon="1.7976962"><ele>429.0</ele><time>2026-04-25T08:33:48.917Z</time></trkpt><trkpt lat="41.8628329" lon="1.7975368"><ele>431.33333333333337</ele><time>2026-04-25T08:33:49.916Z</time></trkpt><trkpt lat="41.8626746" lon="1.7973831"><ele>433.6666666666667</ele><time>2026-04-25T08:33:50.917Z</time></trkpt><trkpt lat="41.8625283" lon="1.7972399"><ele>436.0</ele><time>2026-04-25T08:33:51.916Z</time></trkpt><trkpt lat="41.8623762" lon="1.7971244"><ele>429.6666666666667</ele><time>2026-04-25T08:33:52.917Z</time></trkpt><trkpt lat="41.8622047" lon="1.7970467"><ele>423.33333333333337</ele><time>2026-04-25T08:33:53.917Z</time></trkpt><trkpt lat="41.8620235" lon="1.7969988"><ele>417.0</ele><time>2026-04-25T08:33:54.917Z</time></trkpt><trkpt lat="41.8618382" lon="1.7969544"><ele>418.66666666666663</ele><time>2026-04-25T08:33:55.916Z</time></trkpt><trkpt lat="41.8616552" lon="1.7968903"><ele>420.3333333333333</ele><time>2026-04-25T08:33:56.916Z</time></trkpt><trkpt lat="41.8614761" lon="1.7967939"><ele>422.0</ele><time>2026-04-25T08:33:57.915Z</time></trkpt><trkpt lat="41.861308" lon="1.7966685"><ele>422.0</ele><time>2026-04-25T08:33:58.917Z</time></trkpt><trkpt lat="41.8611427" lon="1.7965295"><ele>422.0</ele><time>2026-04-25T08:33:59.916Z</time></trkpt><trkpt lat="41.8609811" lon="1.7964001"><ele>422.0</ele><time>2026-04-25T08:34:00.916Z</time></trkpt><trkpt lat="41.8608372" lon="1.7962803"><ele>421.5</ele><time>2026-04-25T08:34:01.917Z</time></trkpt><trkpt lat="41.8607152" lon="1.796175"><ele>421.0</ele><time>2026-04-25T08:34:02.917Z</time></trkpt><trkpt lat="41.8606197" lon="1.796055"><ele>420.5</ele><time>2026-04-25T08:34:03.916Z</time></trkpt><trkpt lat="41.8605624" lon="1.7958979"><ele>420.0</ele><time>2026-04-25T08:34:04.916Z</time></trkpt><trkpt lat="41.8605493" lon="1.7957173"><ele>420.0</ele><time>2026-04-25T08:34:05.916Z</time></trkpt><trkpt lat="41.8605631" lon="1.7955242"><ele>420.0</ele><time>2026-04-25T08:34:06.916Z</time></trkpt><trkpt lat="41.8605842" lon="1.7953136"><ele>420.0</ele><time>2026-04-25T08:34:07.917Z</time></trkpt><trkpt lat="41.8605999" lon="1.7951098"><ele>419.5</ele><time>2026-04-25T08:34:08.916Z</time></trkpt><trkpt lat="41.8606017" lon="1.7949224"><ele>419.0</ele><time>2026-04-25T08:34:09.917Z</time></trkpt><trkpt lat="41.8605726" lon="1.7947415"><ele>418.5</ele><time>2026-04-25T08:34:10.917Z</time></trkpt><trkpt lat="41.8605007" lon="1.7945775"><ele>418.0</ele><time>2026-04-25T08:34:11.916Z</time></trkpt><trkpt lat="41.8603943" lon="1.7944351"><ele>417.0</ele><time>2026-04-25T08:34:12.916Z</time></trkpt><trkpt lat="41.8602639" lon="1.7943047"><ele>416.0</ele><time>2026-04-25T08:34:13.916Z</time></trkpt><trkpt lat="41.8601228" lon="1.7941774"><ele>415.0</ele><time>2026-04-25T08:34:14.916Z</time></trkpt><trkpt lat="41.8599772" lon="1.7940544"><ele>415.0</ele><time>2026-04-25T08:34:15.915Z</time></trkpt><trkpt lat="41.859831" lon="1.7939518"><ele>415.0</ele><time>2026-04-25T08:34:16.916Z</time></trkpt><trkpt lat="41.8596831" lon="1.7938756"><ele>415.0</ele><time>2026-04-25T08:34:17.916Z</time></trkpt><trkpt lat="41.8595422" lon="1.7938154"><ele>415.0</ele><time>2026-04-25T08:34:18.915Z</time></trkpt><trkpt lat="41.8594281" lon="1.7937536"><ele>415.0</ele><time>2026-04-25T08:34:19.916Z</time></trkpt><trkpt lat="41.8593274" lon="1.7936614"><ele>415.0</ele><time>2026-04-25T08:34:20.916Z</time></trkpt><trkpt lat="41.8592522" lon="1.7935279"><ele>415.0</ele><time>2026-04-25T08:34:21.916Z</time></trkpt><trkpt lat="41.8592027" lon="1.7933656"><ele>413.6666666666667</ele><time>2026-04-25T08:34:22.916Z</time></trkpt><trkpt lat="41.8591841" lon="1.7931742"><ele>412.33333333333337</ele><time>2026-04-25T08:34:23.916Z</time></trkpt><trkpt lat="41.8591805" lon="1.7929611"><ele>411.0</ele><time>2026-04-25T08:34:24.916Z</time></trkpt><trkpt lat="41.8591637" lon="1.792739"><ele>411.33333333333337</ele><time>2026-04-25T08:34:25.915Z</time></trkpt><trkpt lat="41.859118" lon="1.7925157"><ele>411.6666666666667</ele><time>2026-04-25T08:34:26.916Z</time></trkpt><trkpt lat="41.8590638" lon="1.792286"><ele>412.0</ele><time>2026-04-25T08:34:27.917Z</time></trkpt><trkpt lat="41.8590096" lon="1.7920631"><ele>412.0</ele><time>2026-04-25T08:34:28.916Z</time></trkpt><trkpt lat="41.8589594" lon="1.791856"><ele>412.0</ele><time>2026-04-25T08:34:29.917Z</time></trkpt><trkpt lat="41.8589186" lon="1.7916773"><ele>412.0</ele><time>2026-04-25T08:34:30.917Z</time></trkpt><trkpt lat="41.8588702" lon="1.7915182"><ele>412.0</ele><time>2026-04-25T08:34:31.917Z</time></trkpt><trkpt lat="41.8587853" lon="1.7913778"><ele>411.0</ele><time>2026-04-25T08:34:32.917Z</time></trkpt><trkpt lat="41.8586697" lon="1.7912925"><ele>410.0</ele><time>2026-04-25T08:34:33.916Z</time></trkpt><trkpt lat="41.8585311" lon="1.7912457"><ele>409.0</ele><time>2026-04-25T08:34:34.916Z</time></trkpt><trkpt lat="41.8583777" lon="1.7912106"><ele>408.0</ele><time>2026-04-25T08:34:35.915Z</time></trkpt><trkpt lat="41.8582135" lon="1.791185"><ele>406.0</ele><time>2026-04-25T08:34:36.916Z</time></trkpt><trkpt lat="41.8580465" lon="1.7911735"><ele>404.0</ele><time>2026-04-25T08:34:37.917Z</time></trkpt><trkpt lat="41.8578856" lon="1.7911893"><ele>402.0</ele><time>2026-04-25T08:34:38.916Z</time></trkpt><trkpt lat="41.857741" lon="1.7912058"><ele>400.66666666666663</ele><time>2026-04-25T08:34:39.917Z</time></trkpt><trkpt lat="41.8575972" lon="1.7912014"><ele>399.3333333333333</ele><time>2026-04-25T08:34:40.916Z</time></trkpt><trkpt lat="41.8574506" lon="1.7911588"><ele>398.0</ele><time>2026-04-25T08:34:41.916Z</time></trkpt><trkpt lat="41.8573048" lon="1.7910761"><ele>400.66666666666663</ele><time>2026-04-25T08:34:42.917Z</time></trkpt><trkpt lat="41.8571641" lon="1.7909669"><ele>403.33333333333337</ele><time>2026-04-25T08:34:43.917Z</time></trkpt><trkpt lat="41.8570314" lon="1.7908475"><ele>406.0</ele><time>2026-04-25T08:34:44.917Z</time></trkpt><trkpt lat="41.8569198" lon="1.7907296"><ele>406.0</ele><time>2026-04-25T08:34:45.916Z</time></trkpt><trkpt lat="41.8568405" lon="1.7906059"><ele>406.0</ele><time>2026-04-25T08:34:46.916Z</time></trkpt><trkpt lat="41.8567978" lon="1.7904541"><ele>406.0</ele><time>2026-04-25T08:34:47.916Z</time></trkpt><trkpt lat="41.8567935" lon="1.7902781"><ele>406.0</ele><time>2026-04-25T08:34:48.916Z</time></trkpt><trkpt lat="41.8567967" lon="1.7900908"><ele>403.0</ele><time>2026-04-25T08:34:49.915Z</time></trkpt><trkpt lat="41.8567635" lon="1.789892"><ele>400.0</ele><time>2026-04-25T08:34:50.917Z</time></trkpt><trkpt lat="41.85671" lon="1.7896834"><ele>397.0</ele><time>2026-04-25T08:34:51.917Z</time></trkpt><trkpt lat="41.8566536" lon="1.7894661"><ele>399.0</ele><time>2026-04-25T08:34:52.916Z</time></trkpt><trkpt lat="41.8565925" lon="1.7892462"><ele>401.0</ele><time>2026-04-25T08:34:53.916Z</time></trkpt><trkpt lat="41.856532" lon="1.7890416"><ele>403.0</ele><time>2026-04-25T08:34:54.916Z</time></trkpt><trkpt lat="41.85648" lon="1.7888641"><ele>403.0</ele><time>2026-04-25T08:34:55.916Z</time></trkpt><trkpt lat="41.8564066" lon="1.7887029"><ele>403.0</ele><time>2026-04-25T08:34:56.916Z</time></trkpt><trkpt lat="41.8562963" lon="1.7885808"><ele>403.0</ele><time>2026-04-25T08:34:57.916Z</time></trkpt><trkpt lat="41.8561554" lon="1.7885025"><ele>403.0</ele><time>2026-04-25T08:34:58.916Z</time></trkpt><trkpt lat="41.855994" lon="1.7884467"><ele>401.6666666666667</ele><time>2026-04-25T08:34:59.916Z</time></trkpt><trkpt lat="41.85582" lon="1.7883891"><ele>400.33333333333337</ele><time>2026-04-25T08:35:00.916Z</time></trkpt><trkpt lat="41.8556443" lon="1.7883236"><ele>399.0</ele><time>2026-04-25T08:35:01.916Z</time></trkpt><trkpt lat="41.8554659" lon="1.7882621"><ele>399.0</ele><time>2026-04-25T08:35:02.917Z</time></trkpt><trkpt lat="41.8552831" lon="1.7881943"><ele>399.0</ele><time>2026-04-25T08:35:03.917Z</time></trkpt><trkpt lat="41.8551129" lon="1.7881331"><ele>399.0</ele><time>2026-04-25T08:35:04.917Z</time></trkpt><trkpt lat="41.8549618" lon="1.7880777"><ele>397.5</ele><time>2026-04-25T08:35:05.915Z</time></trkpt><trkpt lat="41.8548249" lon="1.7880239"><ele>396.0</ele><time>2026-04-25T08:35:06.915Z</time></trkpt><trkpt lat="41.8547071" lon="1.7879465"><ele>394.5</ele><time>2026-04-25T08:35:07.916Z</time></trkpt><trkpt lat="41.8546202" lon="1.787816"><ele>393.0</ele><time>2026-04-25T08:35:08.916Z</time></trkpt><trkpt lat="41.8545643" lon="1.7876447"><ele>393.0</ele><time>2026-04-25T08:35:09.917Z</time></trkpt><trkpt lat="41.8545234" lon="1.7874606"><ele>393.0</ele><time>2026-04-25T08:35:10.916Z</time></trkpt><trkpt lat="41.8544697" lon="1.7872849"><ele>393.0</ele><time>2026-04-25T08:35:11.916Z</time></trkpt><trkpt lat="41.854384" lon="1.7871179"><ele>393.0</ele><time>2026-04-25T08:35:12.916Z</time></trkpt><trkpt lat="41.8542699" lon="1.7869825"><ele>391.25</ele><time>2026-04-25T08:35:13.917Z</time></trkpt><trkpt lat="41.85414" lon="1.7868786"><ele>389.5</ele><time>2026-04-25T08:35:14.916Z</time></trkpt><trkpt lat="41.8540111" lon="1.7867833"><ele>387.75</ele><time>2026-04-25T08:35:15.916Z</time></trkpt><trkpt lat="41.8539085" lon="1.7866775"><ele>386.0</ele><time>2026-04-25T08:35:16.915Z</time></trkpt><trkpt lat="41.8538293" lon="1.7865543"><ele>386.0</ele><time>2026-04-25T08:35:17.916Z</time></trkpt><trkpt lat="41.8537973" lon="1.7863975"><ele>386.0</ele><time>2026-04-25T08:35:18.915Z</time></trkpt><trkpt lat="41.8537989" lon="1.7862173"><ele>386.0</ele><time>2026-04-25T08:35:19.916Z</time></trkpt><trkpt lat="41.8538153" lon="1.7860204"><ele>386.0</ele><time>2026-04-25T08:35:20.916Z</time></trkpt><trkpt lat="41.8538328" lon="1.7858192"><ele>384.3333333333333</ele><time>2026-04-25T08:35:21.916Z</time></trkpt><trkpt lat="41.853859" lon="1.7856213"><ele>382.66666666666663</ele><time>2026-04-25T08:35:22.916Z</time></trkpt><trkpt lat="41.8539268" lon="1.7854366"><ele>381.0</ele><time>2026-04-25T08:35:23.915Z</time></trkpt><trkpt lat="41.854026" lon="1.7852689"><ele>379.0</ele><time>2026-04-25T08:35:24.915Z</time></trkpt><trkpt lat="41.8541405" lon="1.7851069"><ele>377.0</ele><time>2026-04-25T08:35:25.917Z</time></trkpt><trkpt lat="41.8542561" lon="1.7849377"><ele>375.0</ele><time>2026-04-25T08:35:26.917Z</time></trkpt><trkpt lat="41.8543692" lon="1.7847629"><ele>376.0</ele><time>2026-04-25T08:35:27.916Z</time></trkpt><trkpt lat="41.8544815" lon="1.7845983"><ele>377.0</ele><time>2026-04-25T08:35:28.916Z</time></trkpt><trkpt lat="41.854588" lon="1.7844343"><ele>378.0</ele><time>2026-04-25T08:35:29.917Z</time></trkpt><trkpt lat="41.8546733" lon="1.7842392"><ele>378.0</ele><time>2026-04-25T08:35:30.916Z</time></trkpt><trkpt lat="41.8547277" lon="1.7840182"><ele>378.0</ele><time>2026-04-25T08:35:31.916Z</time></trkpt><trkpt lat="41.8547598" lon="1.7837866"><ele>378.0</ele><time>2026-04-25T08:35:32.916Z</time></trkpt><trkpt lat="41.8547944" lon="1.7835498"><ele>375.0</ele><time>2026-04-25T08:35:33.916Z</time></trkpt><trkpt lat="41.8548479" lon="1.7833356"><ele>372.0</ele><time>2026-04-25T08:35:34.916Z</time></trkpt><trkpt lat="41.8549151" lon="1.7831474"><ele>369.0</ele><time>2026-04-25T08:35:35.917Z</time></trkpt><trkpt lat="41.8549746" lon="1.7829758"><ele>369.0</ele><time>2026-04-25T08:35:36.916Z</time></trkpt><trkpt lat="41.8550035" lon="1.7828105"><ele>369.0</ele><time>2026-04-25T08:35:37.916Z</time></trkpt><trkpt lat="41.8549946" lon="1.7826399"><ele>369.0</ele><time>2026-04-25T08:35:38.916Z</time></trkpt><trkpt lat="41.854942" lon="1.7824732"><ele>369.0</ele><time>2026-04-25T08:35:39.915Z</time></trkpt><trkpt lat="41.8548638" lon="1.782307"><ele>368.5</ele><time>2026-04-25T08:35:40.916Z</time></trkpt><trkpt lat="41.8547831" lon="1.782138"><ele>368.0</ele><time>2026-04-25T08:35:41.916Z</time></trkpt><trkpt lat="41.8546961" lon="1.7819794"><ele>367.5</ele><time>2026-04-25T08:35:42.917Z</time></trkpt><trkpt lat="41.8545926" lon="1.7818495"><ele>367.0</ele><time>2026-04-25T08:35:43.916Z</time></trkpt><trkpt lat="41.8544628" lon="1.7817668"><ele>367.0</ele><time>2026-04-25T08:35:44.916Z</time></trkpt><trkpt lat="41.8543109" lon="1.7817346"><ele>367.0</ele><time>2026-04-25T08:35:45.916Z</time></trkpt><trkpt lat="41.8541482" lon="1.7817333"><ele>367.0</ele><time>2026-04-25T08:35:46.916Z</time></trkpt><trkpt lat="41.8539829" lon="1.78175"><ele>368.0</ele><time>2026-04-25T08:35:47.916Z</time></trkpt><trkpt lat="41.8538264" lon="1.7817887"><ele>369.0</ele><time>2026-04-25T08:35:48.916Z</time></trkpt><trkpt lat="41.853674" lon="1.7818191"><ele>370.0</ele><time>2026-04-25T08:35:49.916Z</time></trkpt><trkpt lat="41.8535145" lon="1.781801"><ele>369.66666666666663</ele><time>2026-04-25T08:35:50.915Z</time></trkpt><trkpt lat="41.853354" lon="1.7817486"><ele>369.3333333333333</ele><time>2026-04-25T08:35:51.917Z</time></trkpt><trkpt lat="41.8531885" lon="1.7816678"><ele>369.0</ele><time>2026-04-25T08:35:52.916Z</time></trkpt><trkpt lat="41.8530205" lon="1.7815831"><ele>369.0</ele><time>2026-04-25T08:35:53.916Z</time></trkpt><trkpt lat="41.8528634" lon="1.7815081"><ele>369.0</ele><time>2026-04-25T08:35:54.916Z</time></trkpt><trkpt lat="41.8527064" lon="1.781455"><ele>369.0</ele><time>2026-04-25T08:35:55.915Z</time></trkpt><trkpt lat="41.8525416" lon="1.7814463"><ele>369.0</ele><time>2026-04-25T08:35:56.915Z</time></trkpt><trkpt lat="41.8523726" lon="1.781486"><ele>369.0</ele><time>2026-04-25T08:35:57.916Z</time></trkpt><trkpt lat="41.8521997" lon="1.781544"><ele>369.0</ele><time>2026-04-25T08:35:58.917Z</time></trkpt><trkpt lat="41.8520267" lon="1.7816101"><ele>369.0</ele><time>2026-04-25T08:35:59.916Z</time></trkpt><trkpt lat="41.8518574" lon="1.7816656"><ele>369.0</ele><time>2026-04-25T08:36:00.917Z</time></trkpt><trkpt lat="41.8516974" lon="1.7816845"><ele>369.0</ele><time>2026-04-25T08:36:01.915Z</time></trkpt><trkpt lat="41.8515269" lon="1.7816737"><ele>369.3333333333333</ele><time>2026-04-25T08:36:02.915Z</time></trkpt><trkpt lat="41.8513506" lon="1.781649"><ele>369.66666666666663</ele><time>2026-04-25T08:36:03.914Z</time></trkpt><trkpt lat="41.8511698" lon="1.7816261"><ele>370.0</ele><time>2026-04-25T08:36:04.915Z</time></trkpt><trkpt lat="41.8509826" lon="1.7815993"><ele>370.3333333333333</ele><time>2026-04-25T08:36:05.915Z</time></trkpt><trkpt lat="41.8507965" lon="1.7815731"><ele>370.6666666666667</ele><time>2026-04-25T08:36:06.916Z</time></trkpt><trkpt lat="41.8506182" lon="1.7815424"><ele>371.0</ele><time>2026-04-25T08:36:07.915Z</time></trkpt><trkpt lat="41.8504493" lon="1.781497"><ele>371.0</ele><time>2026-04-25T08:36:08.915Z</time></trkpt><trkpt lat="41.8502812" lon="1.7814097"><ele>371.0</ele><time>2026-04-25T08:36:09.915Z</time></trkpt><trkpt lat="41.8501099" lon="1.7812979"><ele>371.0</ele><time>2026-04-25T08:36:10.915Z</time></trkpt><trkpt lat="41.8499374" lon="1.7811769"><ele>369.6666666666667</ele><time>2026-04-25T08:36:11.915Z</time></trkpt><trkpt lat="41.8497625" lon="1.7810561"><ele>368.3333333333333</ele><time>2026-04-25T08:36:12.915Z</time></trkpt><trkpt lat="41.8495877" lon="1.7809361"><ele>367.0</ele><time>2026-04-25T08:36:13.915Z</time></trkpt><trkpt lat="41.8494282" lon="1.7808267"><ele>367.0</ele><time>2026-04-25T08:36:14.915Z</time></trkpt><trkpt lat="41.8492854" lon="1.7807244"><ele>367.0</ele><time>2026-04-25T08:36:15.914Z</time></trkpt><trkpt lat="41.8491616" lon="1.7806204"><ele>367.0</ele><time>2026-04-25T08:36:16.915Z</time></trkpt><trkpt lat="41.8490564" lon="1.780478"><ele>367.0</ele><time>2026-04-25T08:36:17.916Z</time></trkpt><trkpt lat="41.8489677" lon="1.7802966"><ele>367.0</ele><time>2026-04-25T08:36:18.915Z</time></trkpt><trkpt lat="41.8489021" lon="1.7800916"><ele>367.0</ele><time>2026-04-25T08:36:19.914Z</time></trkpt><trkpt lat="41.8488374" lon="1.7798941"><ele>369.66666666666663</ele><time>2026-04-25T08:36:20.916Z</time></trkpt><trkpt lat="41.8487465" lon="1.7797129"><ele>372.3333333333333</ele><time>2026-04-25T08:36:21.915Z</time></trkpt><trkpt lat="41.8486241" lon="1.7795672"><ele>375.0</ele><time>2026-04-25T08:36:22.915Z</time></trkpt><trkpt lat="41.8484771" lon="1.7794648"><ele>374.0</ele><time>2026-04-25T08:36:23.915Z</time></trkpt><trkpt lat="41.8483124" lon="1.7793937"><ele>373.0</ele><time>2026-04-25T08:36:24.914Z</time></trkpt><trkpt lat="41.8481374" lon="1.7793191"><ele>372.0</ele><time>2026-04-25T08:36:25.915Z</time></trkpt><trkpt lat="41.8479556" lon="1.7792322"><ele>372.0</ele><time>2026-04-25T08:36:26.915Z</time></trkpt><trkpt lat="41.8477689" lon="1.7791415"><ele>372.0</ele><time>2026-04-25T08:36:27.915Z</time></trkpt><trkpt lat="41.8475801" lon="1.7790497"><ele>372.0</ele><time>2026-04-25T08:36:28.915Z</time></trkpt><trkpt lat="41.8473972" lon="1.7789453"><ele>368.0</ele><time>2026-04-25T08:36:29.916Z</time></trkpt><trkpt lat="41.8472268" lon="1.7788272"><ele>364.0</ele><time>2026-04-25T08:36:30.915Z</time></trkpt><trkpt lat="41.8470601" lon="1.7786935"><ele>360.0</ele><time>2026-04-25T08:36:31.915Z</time></trkpt><trkpt lat="41.8469086" lon="1.7785354"><ele>361.6666666666667</ele><time>2026-04-25T08:36:32.916Z</time></trkpt><trkpt lat="41.8467826" lon="1.7783459"><ele>363.33333333333337</ele><time>2026-04-25T08:36:33.915Z</time></trkpt><trkpt lat="41.846678" lon="1.778148"><ele>365.0</ele><time>2026-04-25T08:36:34.914Z</time></trkpt><trkpt lat="41.8465601" lon="1.7779767"><ele>365.0</ele><time>2026-04-25T08:36:35.915Z</time></trkpt><trkpt lat="41.8464122" lon="1.7778482"><ele>365.0</ele><time>2026-04-25T08:36:36.915Z</time></trkpt><trkpt lat="41.8462532" lon="1.7777306"><ele>365.0</ele><time>2026-04-25T08:36:37.916Z</time></trkpt><trkpt lat="41.8461003" lon="1.7776126"><ele>363.0</ele><time>2026-04-25T08:36:38.914Z</time></trkpt><trkpt lat="41.8459718" lon="1.7774931"><ele>361.0</ele><time>2026-04-25T08:36:39.915Z</time></trkpt><trkpt lat="41.8458729" lon="1.7773408"><ele>359.0</ele><time>2026-04-25T08:36:40.916Z</time></trkpt><trkpt lat="41.845789" lon="1.7771699"><ele>359.0</ele><time>2026-04-25T08:36:41.915Z</time></trkpt><trkpt lat="41.8456857" lon="1.7770209"><ele>359.0</ele><time>2026-04-25T08:36:42.915Z</time></trkpt><trkpt lat="41.8455612" lon="1.7768906"><ele>359.0</ele><time>2026-04-25T08:36:43.915Z</time></trkpt><trkpt lat="41.8454358" lon="1.7767667"><ele>362.0</ele><time>2026-04-25T08:36:44.915Z</time></trkpt><trkpt lat="41.8453335" lon="1.7766466"><ele>365.0</ele><time>2026-04-25T08:36:45.914Z</time></trkpt><trkpt lat="41.8452615" lon="1.776514"><ele>368.0</ele><time>2026-04-25T08:36:46.915Z</time></trkpt><trkpt lat="41.8452261" lon="1.7763626"><ele>371.0</ele><time>2026-04-25T08:36:47.915Z</time></trkpt><trkpt lat="41.8452087" lon="1.7762181"><ele>371.0</ele><time>2026-04-25T08:36:48.914Z</time></trkpt><trkpt lat="41.8451574" lon="1.7760878"><ele>371.0</ele><time>2026-04-25T08:36:49.915Z</time></trkpt><trkpt lat="41.8450694" lon="1.7760116"><ele>371.0</ele><time>2026-04-25T08:36:50.916Z</time></trkpt><trkpt lat="41.8449532" lon="1.7759856"><ele>371.0</ele><time>2026-04-25T08:36:51.916Z</time></trkpt><trkpt lat="41.8448193" lon="1.776013"><ele>363.33333333333337</ele><time>2026-04-25T08:36:52.915Z</time></trkpt><trkpt lat="41.8446713" lon="1.7760565"><ele>355.6666666666667</ele><time>2026-04-25T08:36:53.915Z</time></trkpt><trkpt lat="41.8445139" lon="1.7760961"><ele>348.0</ele><time>2026-04-25T08:36:54.915Z</time></trkpt><trkpt lat="41.8443513" lon="1.7761328"><ele>346.0</ele><time>2026-04-25T08:36:55.915Z</time></trkpt><trkpt lat="41.8441916" lon="1.7761747"><ele>344.0</ele><time>2026-04-25T08:36:56.915Z</time></trkpt><trkpt lat="41.8440529" lon="1.7762112"><ele>342.0</ele><time>2026-04-25T08:36:57.916Z</time></trkpt><trkpt lat="41.8439376" lon="1.7762285"><ele>340.0</ele><time>2026-04-25T08:36:58.915Z</time></trkpt><trkpt lat="41.8438289" lon="1.7761981"><ele>340.0</ele><time>2026-04-25T08:36:59.915Z</time></trkpt><trkpt lat="41.8437348" lon="1.7761079"><ele>340.0</ele><time>2026-04-25T08:37:00.915Z</time></trkpt><trkpt lat="41.843669" lon="1.7759681"><ele>340.0</ele><time>2026-04-25T08:37:01.914Z</time></trkpt><trkpt lat="41.8436243" lon="1.7757949"><ele>340.0</ele><time>2026-04-25T08:37:02.916Z</time></trkpt><trkpt lat="41.8435862" lon="1.7756035"><ele>342.0</ele><time>2026-04-25T08:37:03.915Z</time></trkpt><trkpt lat="41.8435452" lon="1.7754067"><ele>344.0</ele><time>2026-04-25T08:37:04.915Z</time></trkpt><trkpt lat="41.8434836" lon="1.7752165"><ele>346.0</ele><time>2026-04-25T08:37:05.915Z</time></trkpt><trkpt lat="41.8433908" lon="1.7750413"><ele>346.0</ele><time>2026-04-25T08:37:06.914Z</time></trkpt><trkpt lat="41.8432741" lon="1.7748885"><ele>346.0</ele><time>2026-04-25T08:37:07.914Z</time></trkpt><trkpt lat="41.8431485" lon="1.7747439"><ele>346.0</ele><time>2026-04-25T08:37:08.916Z</time></trkpt><trkpt lat="41.8430443" lon="1.7745652"><ele>346.0</ele><time>2026-04-25T08:37:09.915Z</time></trkpt><trkpt lat="41.8429583" lon="1.7743656"><ele>346.0</ele><time>2026-04-25T08:37:10.915Z</time></trkpt><trkpt lat="41.8428756" lon="1.7741555"><ele>346.0</ele><time>2026-04-25T08:37:11.915Z</time></trkpt><trkpt lat="41.8427909" lon="1.7739272"><ele>348.0</ele><time>2026-04-25T08:37:12.916Z</time></trkpt><trkpt lat="41.8427085" lon="1.7736887"><ele>350.0</ele><time>2026-04-25T08:37:13.916Z</time></trkpt><trkpt lat="41.8426243" lon="1.773456"><ele>352.0</ele><time>2026-04-25T08:37:14.915Z</time></trkpt><trkpt lat="41.8425433" lon="1.7732278"><ele>346.0</ele><time>2026-04-25T08:37:15.915Z</time></trkpt><trkpt lat="41.8424739" lon="1.7730064"><ele>340.0</ele><time>2026-04-25T08:37:16.915Z</time></trkpt><trkpt lat="41.8424155" lon="1.7727917"><ele>334.0</ele><time>2026-04-25T08:37:17.916Z</time></trkpt><trkpt lat="41.8423642" lon="1.7725876"><ele>334.0</ele><time>2026-04-25T08:37:18.916Z</time></trkpt><trkpt lat="41.8423051" lon="1.7724017"><ele>334.0</ele><time>2026-04-25T08:37:19.916Z</time></trkpt><trkpt lat="41.8422245" lon="1.7722381"><ele>334.0</ele><time>2026-04-25T08:37:20.915Z</time></trkpt><trkpt lat="41.8421254" lon="1.7721033"><ele>334.0</ele><time>2026-04-25T08:37:21.915Z</time></trkpt><trkpt lat="41.8420019" lon="1.7719973"><ele>334.0</ele><time>2026-04-25T08:37:22.916Z</time></trkpt><trkpt lat="41.8418619" lon="1.7719353"><ele>334.0</ele><time>2026-04-25T08:37:23.914Z</time></trkpt><trkpt lat="41.8417091" lon="1.7719184"><ele>334.0</ele><time>2026-04-25T08:37:24.915Z</time></trkpt><trkpt lat="41.8415466" lon="1.7719267"><ele>329.0</ele><time>2026-04-25T08:37:25.915Z</time></trkpt><trkpt lat="41.8413831" lon="1.7719195"><ele>324.0</ele><time>2026-04-25T08:37:26.914Z</time></trkpt><trkpt lat="41.8412302" lon="1.7718918"><ele>319.0</ele><time>2026-04-25T08:37:27.915Z</time></trkpt><trkpt lat="41.8410762" lon="1.7718938"><ele>316.66666666666663</ele><time>2026-04-25T08:37:28.914Z</time></trkpt><trkpt lat="41.8409205" lon="1.7719331"><ele>314.3333333333333</ele><time>2026-04-25T08:37:29.915Z</time></trkpt><trkpt lat="41.8407694" lon="1.7719965"><ele>312.0</ele><time>2026-04-25T08:37:30.914Z</time></trkpt><trkpt lat="41.8406374" lon="1.7720616"><ele>312.0</ele><time>2026-04-25T08:37:31.915Z</time></trkpt><trkpt lat="41.8405169" lon="1.7720909"><ele>312.0</ele><time>2026-04-25T08:37:32.915Z</time></trkpt><trkpt lat="41.8403881" lon="1.7720777"><ele>312.0</ele><time>2026-04-25T08:37:33.914Z</time></trkpt><trkpt lat="41.84026" lon="1.7720119"><ele>312.0</ele><time>2026-04-25T08:37:34.916Z</time></trkpt><trkpt lat="41.8401359" lon="1.771904"><ele>315.6666666666667</ele><time>2026-04-25T08:37:35.916Z</time></trkpt><trkpt lat="41.840011" lon="1.7717698"><ele>319.33333333333337</ele><time>2026-04-25T08:37:36.915Z</time></trkpt><trkpt lat="41.8398919" lon="1.7716149"><ele>323.0</ele><time>2026-04-25T08:37:37.915Z</time></trkpt><trkpt lat="41.8397818" lon="1.771439"><ele>323.0</ele><time>2026-04-25T08:37:38.915Z</time></trkpt><trkpt lat="41.8396768" lon="1.7712552"><ele>323.0</ele><time>2026-04-25T08:37:39.915Z</time></trkpt><trkpt lat="41.839578" lon="1.7710805"><ele>323.0</ele><time>2026-04-25T08:37:40.914Z</time></trkpt><trkpt lat="41.8394921" lon="1.7709197"><ele>325.25</ele><time>2026-04-25T08:37:41.915Z</time></trkpt><trkpt lat="41.8394323" lon="1.7707653"><ele>327.5</ele><time>2026-04-25T08:37:42.915Z</time></trkpt><trkpt lat="41.8394027" lon="1.7705878"><ele>329.75</ele><time>2026-04-25T08:37:43.914Z</time></trkpt><trkpt lat="41.8393887" lon="1.7703899"><ele>332.0</ele><time>2026-04-25T08:37:44.914Z</time></trkpt><trkpt lat="41.83934" lon="1.7701919"><ele>326.33333333333337</ele><time>2026-04-25T08:37:45.915Z</time></trkpt><trkpt lat="41.8392625" lon="1.7699933"><ele>320.6666666666667</ele><time>2026-04-25T08:37:46.915Z</time></trkpt><trkpt lat="41.8391814" lon="1.769785"><ele>315.0</ele><time>2026-04-25T08:37:47.915Z</time></trkpt><trkpt lat="41.839097" lon="1.7695687"><ele>318.0</ele><time>2026-04-25T08:37:48.916Z</time></trkpt><trkpt lat="41.83901" lon="1.769349"><ele>321.0</ele><time>2026-04-25T08:37:49.915Z</time></trkpt><trkpt lat="41.8389217" lon="1.7691268"><ele>324.0</ele><time>2026-04-25T08:37:50.916Z</time></trkpt><trkpt lat="41.8388311" lon="1.7689059"><ele>324.0</ele><time>2026-04-25T08:37:51.916Z</time></trkpt><trkpt lat="41.8387447" lon="1.7686883"><ele>324.0</ele><time>2026-04-25T08:37:52.916Z</time></trkpt><trkpt lat="41.8386617" lon="1.7684803"><ele>324.0</ele><time>2026-04-25T08:37:53.915Z</time></trkpt><trkpt lat="41.8385872" lon="1.7682856"><ele>325.25</ele><time>2026-04-25T08:37:54.915Z</time></trkpt><trkpt lat="41.8385145" lon="1.7681099"><ele>326.5</ele><time>2026-04-25T08:37:55.915Z</time></trkpt><trkpt lat="41.8384241" lon="1.7679611"><ele>327.75</ele><time>2026-04-25T08:37:56.915Z</time></trkpt><trkpt lat="41.8383105" lon="1.7678488"><ele>329.0</ele><time>2026-04-25T08:37:57.915Z</time></trkpt><trkpt lat="41.8381834" lon="1.7677712"><ele>322.6666666666667</ele><time>2026-04-25T08:37:58.916Z</time></trkpt><trkpt lat="41.8380358" lon="1.7677177"><ele>316.3333333333333</ele><time>2026-04-25T08:37:59.915Z</time></trkpt><trkpt lat="41.8378762" lon="1.7676946"><ele>310.0</ele><time>2026-04-25T08:38:00.915Z</time></trkpt><trkpt lat="41.8377063" lon="1.7677198"><ele>307.66666666666663</ele><time>2026-04-25T08:38:01.914Z</time></trkpt><trkpt lat="41.8375314" lon="1.767768"><ele>305.3333333333333</ele><time>2026-04-25T08:38:02.916Z</time></trkpt><trkpt lat="41.8373548" lon="1.7678235"><ele>303.0</ele><time>2026-04-25T08:38:03.916Z</time></trkpt><trkpt lat="41.8371853" lon="1.7678604"><ele>303.0</ele><time>2026-04-25T08:38:04.914Z</time></trkpt><trkpt lat="41.8370191" lon="1.7678652"><ele>303.0</ele><time>2026-04-25T08:38:05.915Z</time></trkpt><trkpt lat="41.8368554" lon="1.7678421"><ele>303.0</ele><time>2026-04-25T08:38:06.916Z</time></trkpt><trkpt lat="41.8367033" lon="1.7678019"><ele>302.0</ele><time>2026-04-25T08:38:07.916Z</time></trkpt><trkpt lat="41.8365565" lon="1.7677232"><ele>301.0</ele><time>2026-04-25T08:38:08.915Z</time></trkpt><trkpt lat="41.8364214" lon="1.7676072"><ele>300.0</ele><time>2026-04-25T08:38:09.916Z</time></trkpt><trkpt lat="41.8362948" lon="1.7674737"><ele>302.3333333333333</ele><time>2026-04-25T08:38:10.914Z</time></trkpt><trkpt lat="41.8361864" lon="1.7673175"><ele>304.66666666666663</ele><time>2026-04-25T08:38:11.916Z</time></trkpt><trkpt lat="41.8361094" lon="1.7671372"><ele>307.0</ele><time>2026-04-25T08:38:12.915Z</time></trkpt><trkpt lat="41.8360566" lon="1.7669354"><ele>309.3333333333333</ele><time>2026-04-25T08:38:13.915Z</time></trkpt><trkpt lat="41.8360193" lon="1.7667218"><ele>311.6666666666667</ele><time>2026-04-25T08:38:14.915Z</time></trkpt><trkpt lat="41.8359974" lon="1.7664948"><ele>314.0</ele><time>2026-04-25T08:38:15.915Z</time></trkpt><trkpt lat="41.8359899" lon="1.7662594"><ele>314.0</ele><time>2026-04-25T08:38:16.915Z</time></trkpt><trkpt lat="41.8359797" lon="1.7660227"><ele>314.0</ele><time>2026-04-25T08:38:17.914Z</time></trkpt><trkpt lat="41.835954" lon="1.7657895"><ele>314.0</ele><time>2026-04-25T08:38:18.914Z</time></trkpt><trkpt lat="41.8359026" lon="1.7655703"><ele>309.6666666666667</ele><time>2026-04-25T08:38:19.915Z</time></trkpt><trkpt lat="41.8358236" lon="1.7653671"><ele>305.3333333333333</ele><time>2026-04-25T08:38:20.915Z</time></trkpt><trkpt lat="41.8357325" lon="1.7651726"><ele>301.0</ele><time>2026-04-25T08:38:21.916Z</time></trkpt><trkpt lat="41.8356444" lon="1.7649845"><ele>300.25</ele><time>2026-04-25T08:38:22.915Z</time></trkpt><trkpt lat="41.8355619" lon="1.7648114"><ele>299.5</ele><time>2026-04-25T08:38:23.915Z</time></trkpt><trkpt lat="41.8354852" lon="1.7646509"><ele>298.75</ele><time>2026-04-25T08:38:24.914Z</time></trkpt><trkpt lat="41.835419" lon="1.7645084"><ele>298.0</ele><time>2026-04-25T08:38:25.915Z</time></trkpt><trkpt lat="41.8353609" lon="1.7643814"><ele>298.3333333333333</ele><time>2026-04-25T08:38:26.915Z</time></trkpt><trkpt lat="41.8353097" lon="1.7642657"><ele>298.66666666666663</ele><time>2026-04-25T08:38:27.914Z</time></trkpt><trkpt lat="41.8352665" lon="1.7641594"><ele>299.0</ele><time>2026-04-25T08:38:28.915Z</time></trkpt><trkpt lat="41.8352288" lon="1.7640628"><ele>299.3333333333333</ele><time>2026-04-25T08:38:29.916Z</time></trkpt><trkpt lat="41.8351918" lon="1.7639745"><ele>299.6666666666667</ele><time>2026-04-25T08:38:30.915Z</time></trkpt><trkpt lat="41.8351575" lon="1.7638863"><ele>300.0</ele><time>2026-04-25T08:38:31.916Z</time></trkpt><trkpt lat="41.8351274" lon="1.7638096"><ele>298.8333333333333</ele><time>2026-04-25T08:38:32.916Z</time></trkpt><trkpt lat="41.8350781" lon="1.7636955"><ele>297.6666666666667</ele><time>2026-04-25T08:38:34.916Z</time></trkpt><trkpt lat="41.835046" lon="1.7636226"><ele>296.5</ele><time>2026-04-25T08:38:36.914Z</time></trkpt><trkpt lat="41.8350086" lon="1.7635524"><ele>295.33333333333337</ele><time>2026-04-25T08:39:04.916Z</time></trkpt><trkpt lat="41.8349181" lon="1.7634653"><ele>294.1666666666667</ele><time>2026-04-25T08:39:06.916Z</time></trkpt><trkpt lat="41.8348728" lon="1.7633961"><ele>293.0</ele><time>2026-04-25T08:39:07.915Z</time></trkpt><trkpt lat="41.8348336" lon="1.7633173"><ele>293.0</ele><time>2026-04-25T08:39:08.916Z</time></trkpt><trkpt lat="41.8347909" lon="1.7632329"><ele>293.0</ele><time>2026-04-25T08:39:09.915Z</time></trkpt><trkpt lat="41.8347496" lon="1.763145"><ele>293.0</ele><time>2026-04-25T08:39:10.915Z</time></trkpt><trkpt lat="41.8347027" lon="1.7630537"><ele>293.0</ele><time>2026-04-25T08:39:11.914Z</time></trkpt><trkpt lat="41.834653" lon="1.7629587"><ele>293.0</ele><time>2026-04-25T08:39:12.915Z</time></trkpt><trkpt lat="41.8346045" lon="1.7628636"><ele>293.0</ele><time>2026-04-25T08:39:13.914Z</time></trkpt><trkpt lat="41.8345602" lon="1.7627699"><ele>293.0</ele><time>2026-04-25T08:39:14.915Z</time></trkpt><trkpt lat="41.8345139" lon="1.7626739"><ele>293.0</ele><time>2026-04-25T08:39:15.915Z</time></trkpt><trkpt lat="41.8344676" lon="1.7625747"><ele>293.0</ele><time>2026-04-25T08:39:16.914Z</time></trkpt><trkpt lat="41.834421" lon="1.7624722"><ele>293.0</ele><time>2026-04-25T08:39:17.915Z</time></trkpt><trkpt lat="41.8343765" lon="1.7623755"><ele>293.0</ele><time>2026-04-25T08:39:18.915Z</time></trkpt><trkpt lat="41.8343333" lon="1.7622755"><ele>293.0</ele><time>2026-04-25T08:39:19.915Z</time></trkpt><trkpt lat="41.8342888" lon="1.762172"><ele>293.0</ele><time>2026-04-25T08:39:20.914Z</time></trkpt><trkpt lat="41.8342476" lon="1.7620639"><ele>293.0</ele><time>2026-04-25T08:39:21.916Z</time></trkpt><trkpt lat="41.8342058" lon="1.7619536"><ele>293.0</ele><time>2026-04-25T08:39:22.915Z</time></trkpt><trkpt lat="41.8341659" lon="1.7618379"><ele>293.0</ele><time>2026-04-25T08:39:23.916Z</time></trkpt><trkpt lat="41.8341267" lon="1.7617164"><ele>293.0</ele><time>2026-04-25T08:39:24.916Z</time></trkpt><trkpt lat="41.834085" lon="1.7615897"><ele>293.0</ele><time>2026-04-25T08:39:25.916Z</time></trkpt><trkpt lat="41.8340451" lon="1.7614616"><ele>293.0</ele><time>2026-04-25T08:39:26.916Z</time></trkpt><trkpt lat="41.8340045" lon="1.7613297"><ele>293.0</ele><time>2026-04-25T08:39:27.914Z</time></trkpt><trkpt lat="41.8339641" lon="1.7611899"><ele>293.0</ele><time>2026-04-25T08:39:28.916Z</time></trkpt><trkpt lat="41.8339186" lon="1.7610424"><ele>293.0</ele><time>2026-04-25T08:39:29.916Z</time></trkpt><trkpt lat="41.8338731" lon="1.7608894"><ele>293.5</ele><time>2026-04-25T08:39:30.915Z</time></trkpt><trkpt lat="41.8338294" lon="1.7607308"><ele>294.0</ele><time>2026-04-25T08:39:31.914Z</time></trkpt><trkpt lat="41.8337844" lon="1.7605701"><ele>294.5</ele><time>2026-04-25T08:39:32.916Z</time></trkpt><trkpt lat="41.8337392" lon="1.7604122"><ele>295.0</ele><time>2026-04-25T08:39:33.916Z</time></trkpt><trkpt lat="41.8336966" lon="1.7602557"><ele>295.25</ele><time>2026-04-25T08:39:34.914Z</time></trkpt><trkpt lat="41.8336569" lon="1.7600959"><ele>295.5</ele><time>2026-04-25T08:39:35.915Z</time></trkpt><trkpt lat="41.8336123" lon="1.7599415"><ele>295.75</ele><time>2026-04-25T08:39:36.915Z</time></trkpt><trkpt lat="41.833566" lon="1.7597925"><ele>296.0</ele><time>2026-04-25T08:39:37.916Z</time></trkpt><trkpt lat="41.8335213" lon="1.7596521"><ele>294.0</ele><time>2026-04-25T08:39:38.915Z</time></trkpt><trkpt lat="41.8334703" lon="1.7595044"><ele>292.0</ele><time>2026-04-25T08:39:39.915Z</time></trkpt><trkpt lat="41.8334178" lon="1.7593489"><ele>290.0</ele><time>2026-04-25T08:39:40.915Z</time></trkpt><trkpt lat="41.8333649" lon="1.7591817"><ele>288.0</ele><time>2026-04-25T08:39:41.915Z</time></trkpt><trkpt lat="41.8333096" lon="1.7590078"><ele>288.0</ele><time>2026-04-25T08:39:42.914Z</time></trkpt><trkpt lat="41.8332533" lon="1.7588348"><ele>288.0</ele><time>2026-04-25T08:39:43.916Z</time></trkpt><trkpt lat="41.8331931" lon="1.7586631"><ele>288.0</ele><time>2026-04-25T08:39:44.915Z</time></trkpt><trkpt lat="41.8331296" lon="1.7584936"><ele>288.0</ele><time>2026-04-25T08:39:45.916Z</time></trkpt><trkpt lat="41.833059" lon="1.7583294"><ele>290.5</ele><time>2026-04-25T08:39:46.916Z</time></trkpt><trkpt lat="41.8329878" lon="1.7581711"><ele>293.0</ele><time>2026-04-25T08:39:47.915Z</time></trkpt><trkpt lat="41.8329158" lon="1.7580159"><ele>295.5</ele><time>2026-04-25T08:39:48.915Z</time></trkpt><trkpt lat="41.8328431" lon="1.7578587"><ele>298.0</ele><time>2026-04-25T08:39:49.915Z</time></trkpt><trkpt lat="41.8327697" lon="1.7577008"><ele>300.5</ele><time>2026-04-25T08:39:50.915Z</time></trkpt><trkpt lat="41.8327039" lon="1.7575324"><ele>303.0</ele><time>2026-04-25T08:39:51.916Z</time></trkpt><trkpt lat="41.8326396" lon="1.7573555"><ele>305.5</ele><time>2026-04-25T08:39:52.915Z</time></trkpt><trkpt lat="41.8325833" lon="1.7571789"><ele>308.0</ele><time>2026-04-25T08:39:53.915Z</time></trkpt><trkpt lat="41.8325281" lon="1.7570213"><ele>304.75</ele><time>2026-04-25T08:39:54.916Z</time></trkpt><trkpt lat="41.8324766" lon="1.7568664"><ele>301.5</ele><time>2026-04-25T08:39:55.916Z</time></trkpt><trkpt lat="41.8324192" lon="1.7567139"><ele>298.25</ele><time>2026-04-25T08:39:56.915Z</time></trkpt><trkpt lat="41.8323542" lon="1.7565691"><ele>295.0</ele><time>2026-04-25T08:39:57.915Z</time></trkpt><trkpt lat="41.8322841" lon="1.7564343"><ele>295.0</ele><time>2026-04-25T08:39:58.915Z</time></trkpt><trkpt lat="41.8322068" lon="1.7563047"><ele>295.0</ele><time>2026-04-25T08:39:59.916Z</time></trkpt><trkpt lat="41.8321213" lon="1.7561886"><ele>295.0</ele><time>2026-04-25T08:40:00.914Z</time></trkpt><trkpt lat="41.8320236" lon="1.7560902"><ele>295.0</ele><time>2026-04-25T08:40:01.914Z</time></trkpt><trkpt lat="41.8319191" lon="1.7559991"><ele>293.75</ele><time>2026-04-25T08:40:02.916Z</time></trkpt><trkpt lat="41.831815" lon="1.7559085"><ele>292.5</ele><time>2026-04-25T08:40:03.915Z</time></trkpt><trkpt lat="41.8317183" lon="1.7558124"><ele>291.25</ele><time>2026-04-25T08:40:04.915Z</time></trkpt><trkpt lat="41.8316358" lon="1.7557094"><ele>290.0</ele><time>2026-04-25T08:40:05.915Z</time></trkpt><trkpt lat="41.8315656" lon="1.7556012"><ele>290.0</ele><time>2026-04-25T08:40:06.914Z</time></trkpt><trkpt lat="41.8315034" lon="1.7555005"><ele>290.0</ele><time>2026-04-25T08:40:07.915Z</time></trkpt><trkpt lat="41.8314464" lon="1.7554118"><ele>290.0</ele><time>2026-04-25T08:40:08.915Z</time></trkpt><trkpt lat="41.8313902" lon="1.7553422"><ele>290.0</ele><time>2026-04-25T08:40:09.916Z</time></trkpt><trkpt lat="41.83134" lon="1.7552907"><ele>290.0</ele><time>2026-04-25T08:40:10.916Z</time></trkpt><trkpt lat="41.8312683" lon="1.7552452"><ele>290.0</ele><time>2026-04-25T08:40:28.916Z</time></trkpt><trkpt lat="41.8312038" lon="1.7551963"><ele>289.6</ele><time>2026-04-25T08:40:30.916Z</time></trkpt><trkpt lat="41.8311257" lon="1.7551272"><ele>289.2</ele><time>2026-04-25T08:40:32.915Z</time></trkpt><trkpt lat="41.8310249" lon="1.7550287"><ele>288.8</ele><time>2026-04-25T08:40:34.915Z</time></trkpt><trkpt lat="41.8309646" lon="1.7549599"><ele>288.4</ele><time>2026-04-25T08:40:35.915Z</time></trkpt><trkpt lat="41.8308978" lon="1.7548864"><ele>288.0</ele><time>2026-04-25T08:40:36.915Z</time></trkpt><trkpt lat="41.8308249" lon="1.7547992"><ele>288.0</ele><time>2026-04-25T08:40:37.914Z</time></trkpt><trkpt lat="41.830747" lon="1.7547078"><ele>288.0</ele><time>2026-04-25T08:40:38.915Z</time></trkpt><trkpt lat="41.8306732" lon="1.7546188"><ele>288.0</ele><time>2026-04-25T08:40:39.916Z</time></trkpt><trkpt lat="41.8306061" lon="1.7545426"><ele>288.0</ele><time>2026-04-25T08:40:40.915Z</time></trkpt><trkpt lat="41.8305439" lon="1.7544723"><ele>288.0</ele><time>2026-04-25T08:40:41.915Z</time></trkpt><trkpt lat="41.8304893" lon="1.754408"><ele>288.0</ele><time>2026-04-25T08:40:42.916Z</time></trkpt><trkpt lat="41.83044" lon="1.7543524"><ele>287.8</ele><time>2026-04-25T08:40:43.915Z</time></trkpt><trkpt lat="41.8303909" lon="1.7542954"><ele>287.6</ele><time>2026-04-25T08:40:44.915Z</time></trkpt><trkpt lat="41.8302976" lon="1.754187"><ele>287.4</ele><time>2026-04-25T08:40:46.915Z</time></trkpt><trkpt lat="41.8302149" lon="1.7540926"><ele>287.2</ele><time>2026-04-25T08:40:48.916Z</time></trkpt><trkpt lat="41.8301492" lon="1.7540078"><ele>287.0</ele><time>2026-04-25T08:40:50.916Z</time></trkpt><trkpt lat="41.8300956" lon="1.7539416"><ele>287.0</ele><time>2026-04-25T08:40:52.915Z</time></trkpt><trkpt lat="41.8300392" lon="1.7538798"><ele>287.0</ele><time>2026-04-25T08:40:55.916Z</time></trkpt><trkpt lat="41.8299686" lon="1.7537838"><ele>287.0</ele><time>2026-04-25T08:41:04.914Z</time></trkpt><trkpt lat="41.8299563" lon="1.7536936"><ele>287.0</ele><time>2026-04-25T08:41:06.915Z</time></trkpt><trkpt lat="41.8300004" lon="1.7535974"><ele>287.0</ele><time>2026-04-25T08:41:08.915Z</time></trkpt><trkpt lat="41.8300729" lon="1.753495"><ele>287.0</ele><time>2026-04-25T08:41:10.915Z</time></trkpt><trkpt lat="41.830139" lon="1.7533962"><ele>287.6666666666667</ele><time>2026-04-25T08:41:12.914Z</time></trkpt><trkpt lat="41.8302" lon="1.7533114"><ele>288.33333333333337</ele><time>2026-04-25T08:41:14.915Z</time></trkpt><trkpt lat="41.8302618" lon="1.7532262"><ele>289.0</ele><time>2026-04-25T08:41:16.915Z</time></trkpt><trkpt lat="41.8303324" lon="1.7531174"><ele>289.6666666666667</ele><time>2026-04-25T08:41:18.914Z</time></trkpt><trkpt lat="41.830378" lon="1.75305"><ele>290.3333333333333</ele><time>2026-04-25T08:41:19.915Z</time></trkpt><trkpt lat="41.830426" lon="1.7529809"><ele>291.0</ele><time>2026-04-25T08:41:20.914Z</time></trkpt><trkpt lat="41.8304704" lon="1.7529105"><ele>291.0</ele><time>2026-04-25T08:41:21.916Z</time></trkpt><trkpt lat="41.8305137" lon="1.7528423"><ele>291.0</ele><time>2026-04-25T08:41:22.916Z</time></trkpt><trkpt lat="41.8305882" lon="1.7527236"><ele>291.0</ele><time>2026-04-25T08:41:24.916Z</time></trkpt><trkpt lat="41.8306467" lon="1.7526308"><ele>291.0</ele><time>2026-04-25T08:41:26.915Z</time></trkpt><trkpt lat="41.8307246" lon="1.7525212"><ele>291.0</ele><time>2026-04-25T08:41:28.916Z</time></trkpt><trkpt lat="41.8308078" lon="1.7523935"><ele>290.85714285714283</ele><time>2026-04-25T08:41:30.915Z</time></trkpt><trkpt lat="41.8308523" lon="1.7523243"><ele>290.71428571428567</ele><time>2026-04-25T08:41:31.915Z</time></trkpt><trkpt lat="41.8308942" lon="1.7522572"><ele>290.57142857142856</ele><time>2026-04-25T08:41:32.914Z</time></trkpt><trkpt lat="41.8309403" lon="1.7521861"><ele>290.42857142857144</ele><time>2026-04-25T08:41:33.916Z</time></trkpt><trkpt lat="41.8309883" lon="1.7521088"><ele>290.28571428571433</ele><time>2026-04-25T08:41:34.915Z</time></trkpt><trkpt lat="41.8310345" lon="1.7520334"><ele>290.14285714285717</ele><time>2026-04-25T08:41:35.915Z</time></trkpt><trkpt lat="41.8310784" lon="1.7519631"><ele>290.0</ele><time>2026-04-25T08:41:36.915Z</time></trkpt><trkpt lat="41.8311542" lon="1.7518354"><ele>290.33333333333337</ele><time>2026-04-25T08:41:38.914Z</time></trkpt><trkpt lat="41.831222" lon="1.7517506"><ele>290.6666666666667</ele><time>2026-04-25T08:41:40.914Z</time></trkpt><trkpt lat="41.8312955" lon="1.7517602"><ele>291.0</ele><time>2026-04-25T08:41:42.915Z</time></trkpt><trkpt lat="41.8313373" lon="1.7518576"><ele>291.3333333333333</ele><time>2026-04-25T08:41:44.915Z</time></trkpt><trkpt lat="41.831365" lon="1.7520204"><ele>291.66666666666663</ele><time>2026-04-25T08:41:46.916Z</time></trkpt><trkpt lat="41.8313751" lon="1.7521064"><ele>292.0</ele><time>2026-04-25T08:41:47.914Z</time></trkpt><trkpt lat="41.8314015" lon="1.7522686"><ele>293.0</ele><time>2026-04-25T08:41:49.914Z</time></trkpt><trkpt lat="41.8314226" lon="1.7524369"><ele>294.0</ele><time>2026-04-25T08:41:51.916Z</time></trkpt><trkpt lat="41.8314316" lon="1.7525259"><ele>295.0</ele><time>2026-04-25T08:41:52.915Z</time></trkpt><trkpt lat="41.831443" lon="1.7526114"><ele>296.0</ele><time>2026-04-25T08:41:53.914Z</time></trkpt><trkpt lat="41.8314551" lon="1.7527017"><ele>297.0</ele><time>2026-04-25T08:41:54.915Z</time></trkpt><trkpt lat="41.8314712" lon="1.7527933"><ele>298.0</ele><time>2026-04-25T08:41:55.914Z</time></trkpt><trkpt lat="41.8314836" lon="1.7528797"><ele>298.6</ele><time>2026-04-25T08:41:56.916Z</time></trkpt><trkpt lat="41.8315106" lon="1.7530375"><ele>299.20000000000005</ele><time>2026-04-25T08:41:58.914Z</time></trkpt><trkpt lat="41.8315218" lon="1.7531232"><ele>299.8</ele><time>2026-04-25T08:41:59.914Z</time></trkpt><trkpt lat="41.8315372" lon="1.7532863"><ele>300.40000000000003</ele><time>2026-04-25T08:42:01.914Z</time></trkpt><trkpt lat="41.8315569" lon="1.7534413"><ele>301.0</ele><time>2026-04-25T08:42:03.915Z</time></trkpt><trkpt lat="41.8315787" lon="1.7535856"><ele>301.0</ele><time>2026-04-25T08:42:05.914Z</time></trkpt><trkpt lat="41.8315722" lon="1.7537027"><ele>301.0</ele><time>2026-04-25T08:42:07.916Z</time></trkpt><trkpt lat="41.831504" lon="1.7538368"><ele>301.0</ele><time>2026-04-25T08:42:09.916Z</time></trkpt><trkpt lat="41.8314636" lon="1.7539234"><ele>301.0</ele><time>2026-04-25T08:42:10.915Z</time></trkpt><trkpt lat="41.8314307" lon="1.7540195"><ele>301.0</ele><time>2026-04-25T08:42:11.915Z</time></trkpt><trkpt lat="41.8314001" lon="1.7541202"><ele>301.0</ele><time>2026-04-25T08:42:12.916Z</time></trkpt><trkpt lat="41.8313769" lon="1.7542226"><ele>301.0</ele><time>2026-04-25T08:42:13.915Z</time></trkpt><trkpt lat="41.8313556" lon="1.7543262"><ele>301.0</ele><time>2026-04-25T08:42:14.914Z</time></trkpt><trkpt lat="41.8313298" lon="1.7544201"><ele>301.0</ele><time>2026-04-25T08:42:15.915Z</time></trkpt><trkpt lat="41.831298" lon="1.7544982"><ele>301.0</ele><time>2026-04-25T08:42:16.914Z</time></trkpt><trkpt lat="41.8312319" lon="1.7546114"><ele>301.0</ele><time>2026-04-25T08:42:18.916Z</time></trkpt><trkpt lat="41.8311881" lon="1.754686"><ele>301.0</ele><time>2026-04-25T08:42:20.914Z</time></trkpt><trkpt lat="41.8311426" lon="1.7547688"><ele>300.6</ele><time>2026-04-25T08:42:22.915Z</time></trkpt><trkpt lat="41.8310812" lon="1.7548663"><ele>300.20000000000005</ele><time>2026-04-25T08:42:24.915Z</time></trkpt><trkpt lat="41.8310265" lon="1.7549678"><ele>299.79999999999995</ele><time>2026-04-25T08:42:26.915Z</time></trkpt><trkpt lat="41.831047" lon="1.7550875"><ele>299.4</ele><time>2026-04-25T08:42:28.915Z</time></trkpt><trkpt lat="41.8311516" lon="1.7551876"><ele>299.0</ele><time>2026-04-25T08:42:30.915Z</time></trkpt><trkpt lat="41.8312185" lon="1.7552447"><ele>297.2</ele><time>2026-04-25T08:42:31.914Z</time></trkpt><trkpt lat="41.8312874" lon="1.7553086"><ele>295.4</ele><time>2026-04-25T08:42:32.915Z</time></trkpt><trkpt lat="41.8313633" lon="1.7553807"><ele>293.6</ele><time>2026-04-25T08:42:33.914Z</time></trkpt><trkpt lat="41.8314407" lon="1.7554721"><ele>291.8</ele><time>2026-04-25T08:42:34.915Z</time></trkpt><trkpt lat="41.8315119" lon="1.7555793"><ele>290.0</ele><time>2026-04-25T08:42:35.914Z</time></trkpt><trkpt lat="41.8315776" lon="1.7556845"><ele>290.0</ele><time>2026-04-25T08:42:36.916Z</time></trkpt><trkpt lat="41.83165" lon="1.7557891"><ele>290.0</ele><time>2026-04-25T08:42:37.915Z</time></trkpt><trkpt lat="41.8317356" lon="1.7558864"><ele>290.0</ele><time>2026-04-25T08:42:38.916Z</time></trkpt><trkpt lat="41.8318311" lon="1.7559773"><ele>290.0</ele><time>2026-04-25T08:42:39.916Z</time></trkpt><trkpt lat="41.831932" lon="1.7560589"><ele>291.25</ele><time>2026-04-25T08:42:40.915Z</time></trkpt><trkpt lat="41.8320329" lon="1.7561365"><ele>292.5</ele><time>2026-04-25T08:42:41.915Z</time></trkpt><trkpt lat="41.8321269" lon="1.7562245"><ele>293.75</ele><time>2026-04-25T08:42:42.915Z</time></trkpt><trkpt lat="41.8322095" lon="1.7563347"><ele>295.0</ele><time>2026-04-25T08:42:43.915Z</time></trkpt><trkpt lat="41.8322774" lon="1.7564652"><ele>295.0</ele><time>2026-04-25T08:42:44.915Z</time></trkpt><trkpt lat="41.8323387" lon="1.7566103"><ele>295.0</ele><time>2026-04-25T08:42:45.915Z</time></trkpt><trkpt lat="41.8324009" lon="1.7567615"><ele>295.0</ele><time>2026-04-25T08:42:46.915Z</time></trkpt><trkpt lat="41.8324591" lon="1.7569207"><ele>295.0</ele><time>2026-04-25T08:42:47.916Z</time></trkpt><trkpt lat="41.8325153" lon="1.7570873"><ele>295.75</ele><time>2026-04-25T08:42:48.915Z</time></trkpt><trkpt lat="41.8325708" lon="1.7572574"><ele>296.5</ele><time>2026-04-25T08:42:49.915Z</time></trkpt><trkpt lat="41.8326305" lon="1.7574241"><ele>297.25</ele><time>2026-04-25T08:42:50.915Z</time></trkpt><trkpt lat="41.8326931" lon="1.7575889"><ele>298.0</ele><time>2026-04-25T08:42:51.915Z</time></trkpt><trkpt lat="41.8327598" lon="1.7577525"><ele>298.0</ele><time>2026-04-25T08:42:52.916Z</time></trkpt><trkpt lat="41.8328327" lon="1.7579091"><ele>298.0</ele><time>2026-04-25T08:42:53.915Z</time></trkpt><trkpt lat="41.8329059" lon="1.7580645"><ele>298.0</ele><time>2026-04-25T08:42:54.915Z</time></trkpt><trkpt lat="41.8329764" lon="1.7582203"><ele>298.0</ele><time>2026-04-25T08:42:55.914Z</time></trkpt><trkpt lat="41.8330465" lon="1.7583707"><ele>298.0</ele><time>2026-04-25T08:42:56.916Z</time></trkpt><trkpt lat="41.833108" lon="1.7585198"><ele>298.0</ele><time>2026-04-25T08:42:57.914Z</time></trkpt><trkpt lat="41.833166" lon="1.7586709"><ele>298.0</ele><time>2026-04-25T08:42:58.915Z</time></trkpt><trkpt lat="41.8332172" lon="1.7588225"><ele>298.0</ele><time>2026-04-25T08:42:59.915Z</time></trkpt><trkpt lat="41.8332657" lon="1.7589698"><ele>295.5</ele><time>2026-04-25T08:43:00.915Z</time></trkpt><trkpt lat="41.8333123" lon="1.759115"><ele>293.0</ele><time>2026-04-25T08:43:01.915Z</time></trkpt><trkpt lat="41.8333592" lon="1.7592567"><ele>290.5</ele><time>2026-04-25T08:43:02.915Z</time></trkpt><trkpt lat="41.8334068" lon="1.7593959"><ele>288.0</ele><time>2026-04-25T08:43:03.915Z</time></trkpt><trkpt lat="41.8334504" lon="1.7595324"><ele>289.3333333333333</ele><time>2026-04-25T08:43:04.915Z</time></trkpt><trkpt lat="41.8334909" lon="1.7596579"><ele>290.6666666666667</ele><time>2026-04-25T08:43:05.916Z</time></trkpt><trkpt lat="41.8335288" lon="1.759775"><ele>292.0</ele><time>2026-04-25T08:43:06.915Z</time></trkpt><trkpt lat="41.8335611" lon="1.7598764"><ele>293.33333333333337</ele><time>2026-04-25T08:43:07.915Z</time></trkpt><trkpt lat="41.8335878" lon="1.7599654"><ele>294.6666666666667</ele><time>2026-04-25T08:43:08.915Z</time></trkpt><trkpt lat="41.8336149" lon="1.7600593"><ele>296.0</ele><time>2026-04-25T08:43:09.914Z</time></trkpt><trkpt lat="41.8336472" lon="1.7601672"><ele>295.8</ele><time>2026-04-25T08:43:10.915Z</time></trkpt><trkpt lat="41.8336829" lon="1.760287"><ele>295.6</ele><time>2026-04-25T08:43:11.915Z</time></trkpt><trkpt lat="41.8337171" lon="1.7604218"><ele>295.4</ele><time>2026-04-25T08:43:12.915Z</time></trkpt><trkpt lat="41.8337519" lon="1.760558"><ele>295.2</ele><time>2026-04-25T08:43:13.915Z</time></trkpt><trkpt lat="41.8337923" lon="1.760702"><ele>295.0</ele><time>2026-04-25T08:43:14.915Z</time></trkpt><trkpt lat="41.8338382" lon="1.7608549"><ele>295.0</ele><time>2026-04-25T08:43:15.915Z</time></trkpt><trkpt lat="41.8338826" lon="1.761014"><ele>295.0</ele><time>2026-04-25T08:43:16.914Z</time></trkpt><trkpt lat="41.8339282" lon="1.7611772"><ele>295.0</ele><time>2026-04-25T08:43:17.916Z</time></trkpt><trkpt lat="41.8339765" lon="1.761341"><ele>295.0</ele><time>2026-04-25T08:43:18.915Z</time></trkpt><trkpt lat="41.8340259" lon="1.7615028"><ele>294.5</ele><time>2026-04-25T08:43:19.915Z</time></trkpt><trkpt lat="41.8340767" lon="1.7616618"><ele>294.0</ele><time>2026-04-25T08:43:20.915Z</time></trkpt><trkpt lat="41.83413" lon="1.7618158"><ele>293.5</ele><time>2026-04-25T08:43:21.914Z</time></trkpt><trkpt lat="41.8341856" lon="1.7619677"><ele>293.0</ele><time>2026-04-25T08:43:22.915Z</time></trkpt><trkpt lat="41.8342421" lon="1.7621161"><ele>293.0</ele><time>2026-04-25T08:43:23.915Z</time></trkpt><trkpt lat="41.8342969" lon="1.762265"><ele>293.0</ele><time>2026-04-25T08:43:24.915Z</time></trkpt><trkpt lat="41.8343606" lon="1.7624055"><ele>293.0</ele><time>2026-04-25T08:43:25.916Z</time></trkpt><trkpt lat="41.8344256" lon="1.7625425"><ele>293.0</ele><time>2026-04-25T08:43:26.915Z</time></trkpt><trkpt lat="41.8344894" lon="1.7626785"><ele>293.0</ele><time>2026-04-25T08:43:27.916Z</time></trkpt><trkpt lat="41.8345543" lon="1.7628114"><ele>293.0</ele><time>2026-04-25T08:43:28.914Z</time></trkpt><trkpt lat="41.8346157" lon="1.7629397"><ele>293.0</ele><time>2026-04-25T08:43:29.916Z</time></trkpt><trkpt lat="41.834674" lon="1.7630616"><ele>293.0</ele><time>2026-04-25T08:43:30.915Z</time></trkpt><trkpt lat="41.8347358" lon="1.7631768"><ele>293.0</ele><time>2026-04-25T08:43:31.915Z</time></trkpt><trkpt lat="41.8347979" lon="1.7632899"><ele>293.0</ele><time>2026-04-25T08:43:32.915Z</time></trkpt><trkpt lat="41.8348586" lon="1.7634062"><ele>293.0</ele><time>2026-04-25T08:43:33.915Z</time></trkpt><trkpt lat="41.8349188" lon="1.7635259"><ele>293.0</ele><time>2026-04-25T08:43:34.914Z</time></trkpt><trkpt lat="41.8349743" lon="1.763638"><ele>293.0</ele><time>2026-04-25T08:43:35.916Z</time></trkpt><trkpt lat="41.8350267" lon="1.7637417"><ele>293.0</ele><time>2026-04-25T08:43:36.915Z</time></trkpt><trkpt lat="41.8350804" lon="1.763851"><ele>293.0</ele><time>2026-04-25T08:43:37.916Z</time></trkpt><trkpt lat="41.8351372" lon="1.7639749"><ele>293.0</ele><time>2026-04-25T08:43:38.915Z</time></trkpt><trkpt lat="41.8351976" lon="1.7640989"><ele>293.0</ele><time>2026-04-25T08:43:39.915Z</time></trkpt><trkpt lat="41.8352555" lon="1.7642234"><ele>293.0</ele><time>2026-04-25T08:43:40.916Z</time></trkpt><trkpt lat="41.8353119" lon="1.7643408"><ele>293.0</ele><time>2026-04-25T08:43:41.914Z</time></trkpt><trkpt lat="41.8353645" lon="1.7644557"><ele>293.83333333333337</ele><time>2026-04-25T08:43:42.915Z</time></trkpt><trkpt lat="41.8354161" lon="1.764559"><ele>294.6666666666667</ele><time>2026-04-25T08:43:43.914Z</time></trkpt><trkpt lat="41.8354612" lon="1.7646576"><ele>295.5</ele><time>2026-04-25T08:43:44.915Z</time></trkpt><trkpt lat="41.8355008" lon="1.7647436"><ele>296.3333333333333</ele><time>2026-04-25T08:43:45.915Z</time></trkpt><trkpt lat="41.8355375" lon="1.7648191"><ele>297.16666666666663</ele><time>2026-04-25T08:43:46.914Z</time></trkpt><trkpt lat="41.8355991" lon="1.7649392"><ele>298.0</ele><time>2026-04-25T08:43:48.915Z</time></trkpt><trkpt lat="41.8356547" lon="1.7650513"><ele>298.0</ele><time>2026-04-25T08:43:50.915Z</time></trkpt><trkpt lat="41.8357097" lon="1.7651026"><ele>298.0</ele><time>2026-04-25T08:43:52.915Z</time></trkpt><trkpt lat="41.8357428" lon="1.7650276"><ele>298.0</ele><time>2026-04-25T08:44:07.916Z</time></trkpt></trkseg><trkseg><trkpt lat="41.8356758" lon="1.7649368"><ele>298.0</ele><time>2026-04-25T08:59:36.912Z</time></trkpt><trkpt lat="41.8356362" lon="1.7648695"><ele>298.0</ele><time>2026-04-25T08:59:38.914Z</time></trkpt><trkpt lat="41.8355627" lon="1.7647762"><ele>298.0</ele><time>2026-04-25T08:59:40.913Z</time></trkpt><trkpt lat="41.8355134" lon="1.7647083"><ele>298.0</ele><time>2026-04-25T08:59:41.913Z</time></trkpt><trkpt lat="41.8354692" lon="1.7646273"><ele>298.0</ele><time>2026-04-25T08:59:42.913Z</time></trkpt><trkpt lat="41.835422" lon="1.7645285"><ele>298.0</ele><time>2026-04-25T08:59:43.913Z</time></trkpt><trkpt lat="41.8353853" lon="1.7644418"><ele>298.4</ele><time>2026-04-25T08:59:44.914Z</time></trkpt><trkpt lat="41.8353296" lon="1.7643184"><ele>298.8</ele><time>2026-04-25T08:59:46.913Z</time></trkpt><trkpt lat="41.8352729" lon="1.7642008"><ele>299.2</ele><time>2026-04-25T08:59:48.914Z</time></trkpt><trkpt lat="41.8352072" lon="1.7640544"><ele>299.6</ele><time>2026-04-25T08:59:50.914Z</time></trkpt><trkpt lat="41.8351682" lon="1.7639745"><ele>300.0</ele><time>2026-04-25T08:59:51.914Z</time></trkpt><trkpt lat="41.8351314" lon="1.7638901"><ele>298.8333333333333</ele><time>2026-04-25T08:59:52.912Z</time></trkpt><trkpt lat="41.8350895" lon="1.763805"><ele>297.6666666666667</ele><time>2026-04-25T08:59:53.914Z</time></trkpt><trkpt lat="41.8350474" lon="1.7637241"><ele>296.5</ele><time>2026-04-25T08:59:54.912Z</time></trkpt><trkpt lat="41.8350044" lon="1.7636399"><ele>295.33333333333337</ele><time>2026-04-25T08:59:55.913Z</time></trkpt><trkpt lat="41.8349624" lon="1.763557"><ele>294.1666666666667</ele><time>2026-04-25T08:59:56.913Z</time></trkpt><trkpt lat="41.8349186" lon="1.7634715"><ele>293.0</ele><time>2026-04-25T08:59:57.914Z</time></trkpt><trkpt lat="41.8348715" lon="1.7633679"><ele>293.0</ele><time>2026-04-25T08:59:58.913Z</time></trkpt><trkpt lat="41.8348157" lon="1.7632525"><ele>293.0</ele><time>2026-04-25T08:59:59.913Z</time></trkpt><trkpt lat="41.8347503" lon="1.7631331"><ele>293.0</ele><time>2026-04-25T09:00:00.913Z</time></trkpt><trkpt lat="41.8346837" lon="1.7630016"><ele>293.0</ele><time>2026-04-25T09:00:01.912Z</time></trkpt><trkpt lat="41.8346092" lon="1.7628585"><ele>293.0</ele><time>2026-04-25T09:00:02.913Z</time></trkpt><trkpt lat="41.8345355" lon="1.762707"><ele>293.0</ele><time>2026-04-25T09:00:03.913Z</time></trkpt><trkpt lat="41.8344632" lon="1.762551"><ele>293.0</ele><time>2026-04-25T09:00:04.912Z</time></trkpt><trkpt lat="41.8343901" lon="1.7623959"><ele>293.0</ele><time>2026-04-25T09:00:05.914Z</time></trkpt><trkpt lat="41.8343201" lon="1.7622395"><ele>293.0</ele><time>2026-04-25T09:00:06.914Z</time></trkpt><trkpt lat="41.8342551" lon="1.7620816"><ele>293.0</ele><time>2026-04-25T09:00:07.913Z</time></trkpt><trkpt lat="41.8341964" lon="1.7619252"><ele>293.0</ele><time>2026-04-25T09:00:08.913Z</time></trkpt><trkpt lat="41.834144" lon="1.7617685"><ele>293.0</ele><time>2026-04-25T09:00:09.912Z</time></trkpt><trkpt lat="41.8340917" lon="1.7616107"><ele>293.0</ele><time>2026-04-25T09:00:10.914Z</time></trkpt><trkpt lat="41.8340406" lon="1.76145"><ele>293.0</ele><time>2026-04-25T09:00:11.914Z</time></trkpt><trkpt lat="41.8339933" lon="1.7612841"><ele>293.0</ele><time>2026-04-25T09:00:12.912Z</time></trkpt><trkpt lat="41.833946" lon="1.7611165"><ele>293.0</ele><time>2026-04-25T09:00:13.913Z</time></trkpt><trkpt lat="41.8338989" lon="1.7609501"><ele>293.5</ele><time>2026-04-25T09:00:14.914Z</time></trkpt><trkpt lat="41.8338526" lon="1.7607839"><ele>294.0</ele><time>2026-04-25T09:00:15.914Z</time></trkpt><trkpt lat="41.8338085" lon="1.760621"><ele>294.5</ele><time>2026-04-25T09:00:16.914Z</time></trkpt><trkpt lat="41.8337666" lon="1.760462"><ele>295.0</ele><time>2026-04-25T09:00:17.914Z</time></trkpt><trkpt lat="41.8337263" lon="1.7603123"><ele>295.2</ele><time>2026-04-25T09:00:18.914Z</time></trkpt><trkpt lat="41.8336905" lon="1.7601701"><ele>295.4</ele><time>2026-04-25T09:00:19.914Z</time></trkpt><trkpt lat="41.8336491" lon="1.7600374"><ele>295.6</ele><time>2026-04-25T09:00:20.913Z</time></trkpt><trkpt lat="41.833612" lon="1.7599111"><ele>295.8</ele><time>2026-04-25T09:00:21.912Z</time></trkpt><trkpt lat="41.8335739" lon="1.7597887"><ele>296.0</ele><time>2026-04-25T09:00:22.913Z</time></trkpt><trkpt lat="41.8335326" lon="1.7596643"><ele>296.0</ele><time>2026-04-25T09:00:23.913Z</time></trkpt><trkpt lat="41.8334865" lon="1.7595317"><ele>296.0</ele><time>2026-04-25T09:00:24.914Z</time></trkpt><trkpt lat="41.8334436" lon="1.7593958"><ele>296.0</ele><time>2026-04-25T09:00:25.913Z</time></trkpt><trkpt lat="41.8333977" lon="1.7592468"><ele>296.0</ele><time>2026-04-25T09:00:26.913Z</time></trkpt><trkpt lat="41.833348" lon="1.7590931"><ele>296.5</ele><time>2026-04-25T09:00:27.914Z</time></trkpt><trkpt lat="41.8333009" lon="1.758947"><ele>297.0</ele><time>2026-04-25T09:00:28.914Z</time></trkpt><trkpt lat="41.8332553" lon="1.7588067"><ele>297.5</ele><time>2026-04-25T09:00:29.914Z</time></trkpt><trkpt lat="41.8332075" lon="1.7586636"><ele>298.0</ele><time>2026-04-25T09:00:30.913Z</time></trkpt><trkpt lat="41.8331541" lon="1.7585212"><ele>298.0</ele><time>2026-04-25T09:00:31.912Z</time></trkpt><trkpt lat="41.8330929" lon="1.7583789"><ele>298.0</ele><time>2026-04-25T09:00:32.914Z</time></trkpt><trkpt lat="41.8330282" lon="1.758235"><ele>298.0</ele><time>2026-04-25T09:00:33.913Z</time></trkpt><trkpt lat="41.8329649" lon="1.7580927"><ele>298.0</ele><time>2026-04-25T09:00:34.913Z</time></trkpt><trkpt lat="41.8329024" lon="1.7579629"><ele>298.0</ele><time>2026-04-25T09:00:35.914Z</time></trkpt><trkpt lat="41.8328398" lon="1.7578345"><ele>298.0</ele><time>2026-04-25T09:00:36.914Z</time></trkpt><trkpt lat="41.8327808" lon="1.7577035"><ele>298.0</ele><time>2026-04-25T09:00:37.913Z</time></trkpt><trkpt lat="41.8327235" lon="1.7575713"><ele>298.0</ele><time>2026-04-25T09:00:38.914Z</time></trkpt><trkpt lat="41.832668" lon="1.7574348"><ele>297.25</ele><time>2026-04-25T09:00:39.913Z</time></trkpt><trkpt lat="41.8326181" lon="1.7572928"><ele>296.5</ele><time>2026-04-25T09:00:40.912Z</time></trkpt><trkpt lat="41.8325694" lon="1.7571506"><ele>295.75</ele><time>2026-04-25T09:00:41.912Z</time></trkpt><trkpt lat="41.8325209" lon="1.7570013"><ele>295.0</ele><time>2026-04-25T09:00:42.913Z</time></trkpt><trkpt lat="41.8324717" lon="1.7568551"><ele>295.0</ele><time>2026-04-25T09:00:43.913Z</time></trkpt><trkpt lat="41.8324188" lon="1.7567079"><ele>295.0</ele><time>2026-04-25T09:00:44.914Z</time></trkpt><trkpt lat="41.8323565" lon="1.7565694"><ele>295.0</ele><time>2026-04-25T09:00:45.912Z</time></trkpt><trkpt lat="41.8322869" lon="1.7564371"><ele>295.0</ele><time>2026-04-25T09:00:46.912Z</time></trkpt><trkpt lat="41.8322145" lon="1.7563105"><ele>295.0</ele><time>2026-04-25T09:00:47.914Z</time></trkpt><trkpt lat="41.8321383" lon="1.7562024"><ele>295.0</ele><time>2026-04-25T09:00:48.912Z</time></trkpt><trkpt lat="41.832053" lon="1.7561114"><ele>295.0</ele><time>2026-04-25T09:00:49.913Z</time></trkpt><trkpt lat="41.8319586" lon="1.7560319"><ele>295.0</ele><time>2026-04-25T09:00:50.913Z</time></trkpt><trkpt lat="41.8318596" lon="1.755956"><ele>295.0</ele><time>2026-04-25T09:00:51.914Z</time></trkpt><trkpt lat="41.8317629" lon="1.755871"><ele>294.0</ele><time>2026-04-25T09:00:52.914Z</time></trkpt><trkpt lat="41.8316755" lon="1.7557731"><ele>293.0</ele><time>2026-04-25T09:00:53.913Z</time></trkpt><trkpt lat="41.8316038" lon="1.7556683"><ele>292.0</ele><time>2026-04-25T09:00:54.914Z</time></trkpt><trkpt lat="41.8315455" lon="1.7555634"><ele>291.0</ele><time>2026-04-25T09:00:55.914Z</time></trkpt><trkpt lat="41.8314921" lon="1.7554697"><ele>290.0</ele><time>2026-04-25T09:00:56.913Z</time></trkpt><trkpt lat="41.8314408" lon="1.7553966"><ele>290.0</ele><time>2026-04-25T09:00:57.913Z</time></trkpt><trkpt lat="41.8313526" lon="1.7553007"><ele>290.0</ele><time>2026-04-25T09:00:59.912Z</time></trkpt><trkpt lat="41.8312827" lon="1.7552454"><ele>290.0</ele><time>2026-04-25T09:01:01.913Z</time></trkpt><trkpt lat="41.8312092" lon="1.7552077"><ele>290.0</ele><time>2026-04-25T09:01:27.913Z</time></trkpt><trkpt lat="41.8311242" lon="1.7551434"><ele>290.0</ele><time>2026-04-25T09:01:29.912Z</time></trkpt><trkpt lat="41.8310718" lon="1.7550889"><ele>290.0</ele><time>2026-04-25T09:01:30.913Z</time></trkpt><trkpt lat="41.8310171" lon="1.7550237"><ele>289.6666666666667</ele><time>2026-04-25T09:01:31.914Z</time></trkpt><trkpt lat="41.8309629" lon="1.7549587"><ele>289.33333333333337</ele><time>2026-04-25T09:01:32.914Z</time></trkpt><trkpt lat="41.8309012" lon="1.7548872"><ele>289.0</ele><time>2026-04-25T09:01:33.914Z</time></trkpt><trkpt lat="41.8308382" lon="1.7548089"><ele>288.6666666666667</ele><time>2026-04-25T09:01:34.913Z</time></trkpt><trkpt lat="41.8307678" lon="1.7547257"><ele>288.3333333333333</ele><time>2026-04-25T09:01:35.913Z</time></trkpt><trkpt lat="41.830695" lon="1.7546403"><ele>288.0</ele><time>2026-04-25T09:01:36.913Z</time></trkpt><trkpt lat="41.830622" lon="1.7545683"><ele>288.0</ele><time>2026-04-25T09:01:37.923Z</time></trkpt><trkpt lat="41.8305564" lon="1.7544928"><ele>288.0</ele><time>2026-04-25T09:01:38.923Z</time></trkpt><trkpt lat="41.8304974" lon="1.7544239"><ele>288.0</ele><time>2026-04-25T09:01:39.922Z</time></trkpt><trkpt lat="41.8304442" lon="1.7543602"><ele>288.0</ele><time>2026-04-25T09:01:40.922Z</time></trkpt><trkpt lat="41.8303962" lon="1.754303"><ele>288.0</ele><time>2026-04-25T09:01:41.922Z</time></trkpt><trkpt lat="41.8303456" lon="1.7542438"><ele>288.0</ele><time>2026-04-25T09:01:42.923Z</time></trkpt><trkpt lat="41.8302576" lon="1.7541404"><ele>287.8</ele><time>2026-04-25T09:01:44.923Z</time></trkpt><trkpt lat="41.830209" lon="1.7540837"><ele>287.6</ele><time>2026-04-25T09:01:45.922Z</time></trkpt><trkpt lat="41.8301224" lon="1.753982"><ele>287.4</ele><time>2026-04-25T09:01:47.921Z</time></trkpt><trkpt lat="41.8300312" lon="1.7538745"><ele>287.2</ele><time>2026-04-25T09:01:49.922Z</time></trkpt><trkpt lat="41.8299482" lon="1.7537757"><ele>287.0</ele><time>2026-04-25T09:01:51.923Z</time></trkpt><trkpt lat="41.8298965" lon="1.7537156"><ele>287.0</ele><time>2026-04-25T09:01:53.923Z</time></trkpt><trkpt lat="41.8298264" lon="1.7536493"><ele>287.0</ele><time>2026-04-25T09:02:02.922Z</time></trkpt><trkpt lat="41.8297537" lon="1.7535632"><ele>287.0</ele><time>2026-04-25T09:02:04.925Z</time></trkpt><trkpt lat="41.8296797" lon="1.7534792"><ele>287.0</ele><time>2026-04-25T09:02:06.923Z</time></trkpt><trkpt lat="41.8295958" lon="1.7534905"><ele>287.0</ele><time>2026-04-25T09:02:08.923Z</time></trkpt><trkpt lat="41.8295093" lon="1.7536105"><ele>287.0</ele><time>2026-04-25T09:02:10.921Z</time></trkpt><trkpt lat="41.8294587" lon="1.7536924"><ele>287.0</ele><time>2026-04-25T09:02:11.922Z</time></trkpt><trkpt lat="41.8293976" lon="1.7537874"><ele>287.0</ele><time>2026-04-25T09:02:12.923Z</time></trkpt><trkpt lat="41.8293319" lon="1.7538902"><ele>287.0</ele><time>2026-04-25T09:02:13.924Z</time></trkpt><trkpt lat="41.8292611" lon="1.7539965"><ele>287.0</ele><time>2026-04-25T09:02:14.92Z</time></trkpt><trkpt lat="41.8291845" lon="1.7541017"><ele>286.0</ele><time>2026-04-25T09:02:15.921Z</time></trkpt><trkpt lat="41.8290984" lon="1.754204"><ele>285.0</ele><time>2026-04-25T09:02:16.922Z</time></trkpt><trkpt lat="41.8289965" lon="1.7543109"><ele>284.0</ele><time>2026-04-25T09:02:17.924Z</time></trkpt><trkpt lat="41.8289016" lon="1.7544026"><ele>283.0</ele><time>2026-04-25T09:02:18.923Z</time></trkpt><trkpt lat="41.8288019" lon="1.7544953"><ele>282.8</ele><time>2026-04-25T09:02:19.924Z</time></trkpt><trkpt lat="41.8287071" lon="1.7545823"><ele>282.6</ele><time>2026-04-25T09:02:20.923Z</time></trkpt><trkpt lat="41.8286194" lon="1.754663"><ele>282.4</ele><time>2026-04-25T09:02:21.924Z</time></trkpt><trkpt lat="41.8285386" lon="1.754735"><ele>282.2</ele><time>2026-04-25T09:02:22.924Z</time></trkpt><trkpt lat="41.8284656" lon="1.7548038"><ele>282.0</ele><time>2026-04-25T09:02:23.921Z</time></trkpt><trkpt lat="41.8283947" lon="1.7548711"><ele>281.6666666666667</ele><time>2026-04-25T09:02:24.922Z</time></trkpt><trkpt lat="41.8283247" lon="1.7549384"><ele>281.3333333333333</ele><time>2026-04-25T09:02:25.922Z</time></trkpt><trkpt lat="41.8282564" lon="1.7550066"><ele>281.0</ele><time>2026-04-25T09:02:26.922Z</time></trkpt><trkpt lat="41.8281882" lon="1.7550791"><ele>280.66666666666663</ele><time>2026-04-25T09:02:27.922Z</time></trkpt><trkpt lat="41.8281158" lon="1.7551577"><ele>280.3333333333333</ele><time>2026-04-25T09:02:28.923Z</time></trkpt><trkpt lat="41.8280428" lon="1.7552417"><ele>280.0</ele><time>2026-04-25T09:02:29.921Z</time></trkpt><trkpt lat="41.8279705" lon="1.7553334"><ele>279.8</ele><time>2026-04-25T09:02:30.921Z</time></trkpt><trkpt lat="41.8278978" lon="1.7554341"><ele>279.6</ele><time>2026-04-25T09:02:31.923Z</time></trkpt><trkpt lat="41.8278245" lon="1.7555384"><ele>279.4</ele><time>2026-04-25T09:02:32.923Z</time></trkpt><trkpt lat="41.827746" lon="1.7556516"><ele>279.2</ele><time>2026-04-25T09:02:33.923Z</time></trkpt><trkpt lat="41.8276772" lon="1.7557526"><ele>279.0</ele><time>2026-04-25T09:02:34.923Z</time></trkpt><trkpt lat="41.8276056" lon="1.7558559"><ele>279.0</ele><time>2026-04-25T09:02:35.924Z</time></trkpt><trkpt lat="41.8275344" lon="1.7559559"><ele>279.0</ele><time>2026-04-25T09:02:36.922Z</time></trkpt><trkpt lat="41.8274658" lon="1.7560537"><ele>279.0</ele><time>2026-04-25T09:02:37.922Z</time></trkpt><trkpt lat="41.8273997" lon="1.7561548"><ele>279.0</ele><time>2026-04-25T09:02:38.924Z</time></trkpt><trkpt lat="41.8273315" lon="1.7562609"><ele>279.0</ele><time>2026-04-25T09:02:39.924Z</time></trkpt><trkpt lat="41.8272584" lon="1.7563716"><ele>278.5</ele><time>2026-04-25T09:02:40.92Z</time></trkpt><trkpt lat="41.8271806" lon="1.7564854"><ele>278.0</ele><time>2026-04-25T09:02:41.924Z</time></trkpt><trkpt lat="41.8271008" lon="1.7565989"><ele>277.5</ele><time>2026-04-25T09:02:42.922Z</time></trkpt><trkpt lat="41.8270195" lon="1.7567116"><ele>277.0</ele><time>2026-04-25T09:02:43.922Z</time></trkpt><trkpt lat="41.8269454" lon="1.7568132"><ele>277.5</ele><time>2026-04-25T09:02:44.922Z</time></trkpt><trkpt lat="41.8268825" lon="1.7569021"><ele>278.0</ele><time>2026-04-25T09:02:45.922Z</time></trkpt><trkpt lat="41.8268278" lon="1.7569827"><ele>278.5</ele><time>2026-04-25T09:02:46.923Z</time></trkpt><trkpt lat="41.8267796" lon="1.7570595"><ele>279.0</ele><time>2026-04-25T09:02:47.923Z</time></trkpt><trkpt lat="41.8267255" lon="1.7571318"><ele>279.5</ele><time>2026-04-25T09:02:48.925Z</time></trkpt><trkpt lat="41.8266528" lon="1.7571902"><ele>280.0</ele><time>2026-04-25T09:02:49.922Z</time></trkpt><trkpt lat="41.8265837" lon="1.7572163"><ele>280.5</ele><time>2026-04-25T09:02:50.922Z</time></trkpt><trkpt lat="41.826511" lon="1.7572451"><ele>281.0</ele><time>2026-04-25T09:02:51.923Z</time></trkpt><trkpt lat="41.8264491" lon="1.7572988"><ele>281.5</ele><time>2026-04-25T09:02:52.922Z</time></trkpt><trkpt lat="41.8264015" lon="1.757388"><ele>282.0</ele><time>2026-04-25T09:02:53.922Z</time></trkpt><trkpt lat="41.8263654" lon="1.7575032"><ele>282.5</ele><time>2026-04-25T09:02:54.923Z</time></trkpt><trkpt lat="41.8263264" lon="1.75763"><ele>283.0</ele><time>2026-04-25T09:02:55.922Z</time></trkpt><trkpt lat="41.826271" lon="1.757754"><ele>283.0</ele><time>2026-04-25T09:02:56.923Z</time></trkpt><trkpt lat="41.8261977" lon="1.7578769"><ele>283.0</ele><time>2026-04-25T09:02:57.922Z</time></trkpt><trkpt lat="41.8261102" lon="1.758004"><ele>283.0</ele><time>2026-04-25T09:02:58.923Z</time></trkpt><trkpt lat="41.8260142" lon="1.7581393"><ele>283.0</ele><time>2026-04-25T09:02:59.922Z</time></trkpt><trkpt lat="41.825915" lon="1.7582811"><ele>283.0</ele><time>2026-04-25T09:03:00.922Z</time></trkpt><trkpt lat="41.8258076" lon="1.7584337"><ele>283.0</ele><time>2026-04-25T09:03:01.923Z</time></trkpt><trkpt lat="41.8256935" lon="1.7585942"><ele>283.0</ele><time>2026-04-25T09:03:02.921Z</time></trkpt><trkpt lat="41.8255767" lon="1.7587607"><ele>285.3333333333333</ele><time>2026-04-25T09:03:03.922Z</time></trkpt><trkpt lat="41.8254621" lon="1.7589352"><ele>287.6666666666667</ele><time>2026-04-25T09:03:04.921Z</time></trkpt><trkpt lat="41.8253513" lon="1.7591338"><ele>290.0</ele><time>2026-04-25T09:03:05.922Z</time></trkpt><trkpt lat="41.8252732" lon="1.7593209"><ele>290.6666666666667</ele><time>2026-04-25T09:03:06.924Z</time></trkpt><trkpt lat="41.825202" lon="1.7595298"><ele>291.3333333333333</ele><time>2026-04-25T09:03:07.921Z</time></trkpt><trkpt lat="41.8251321" lon="1.7597386"><ele>292.0</ele><time>2026-04-25T09:03:08.92Z</time></trkpt><trkpt lat="41.825055" lon="1.7599357"><ele>291.3333333333333</ele><time>2026-04-25T09:03:09.923Z</time></trkpt><trkpt lat="41.8249678" lon="1.7601148"><ele>290.6666666666667</ele><time>2026-04-25T09:03:10.922Z</time></trkpt><trkpt lat="41.8248729" lon="1.7602748"><ele>290.0</ele><time>2026-04-25T09:03:11.92Z</time></trkpt><trkpt lat="41.8247748" lon="1.7604228"><ele>290.0</ele><time>2026-04-25T09:03:12.92Z</time></trkpt><trkpt lat="41.8246717" lon="1.7605638"><ele>290.0</ele><time>2026-04-25T09:03:13.919Z</time></trkpt><trkpt lat="41.8245631" lon="1.7607003"><ele>290.0</ele><time>2026-04-25T09:03:14.921Z</time></trkpt><trkpt lat="41.8244498" lon="1.7608386"><ele>290.0</ele><time>2026-04-25T09:03:15.922Z</time></trkpt><trkpt lat="41.8243283" lon="1.7609723"><ele>291.0</ele><time>2026-04-25T09:03:16.92Z</time></trkpt><trkpt lat="41.8241936" lon="1.7610897"><ele>292.0</ele><time>2026-04-25T09:03:17.921Z</time></trkpt><trkpt lat="41.8240463" lon="1.7611804"><ele>293.0</ele><time>2026-04-25T09:03:18.92Z</time></trkpt><trkpt lat="41.8238921" lon="1.7612532"><ele>293.0</ele><time>2026-04-25T09:03:19.921Z</time></trkpt><trkpt lat="41.8237352" lon="1.7613234"><ele>293.0</ele><time>2026-04-25T09:03:20.921Z</time></trkpt><trkpt lat="41.8235676" lon="1.7613987"><ele>293.0</ele><time>2026-04-25T09:03:21.922Z</time></trkpt><trkpt lat="41.82342" lon="1.7614639"><ele>290.33333333333337</ele><time>2026-04-25T09:03:22.921Z</time></trkpt><trkpt lat="41.8232633" lon="1.7615322"><ele>287.6666666666667</ele><time>2026-04-25T09:03:23.922Z</time></trkpt><trkpt lat="41.8231108" lon="1.7615986"><ele>285.0</ele><time>2026-04-25T09:03:24.92Z</time></trkpt><trkpt lat="41.822969" lon="1.7616605"><ele>285.0</ele><time>2026-04-25T09:03:25.92Z</time></trkpt><trkpt lat="41.8228318" lon="1.7617079"><ele>285.0</ele><time>2026-04-25T09:03:26.921Z</time></trkpt><trkpt lat="41.8226918" lon="1.7617275"><ele>285.0</ele><time>2026-04-25T09:03:27.921Z</time></trkpt><trkpt lat="41.8225448" lon="1.7617215"><ele>285.0</ele><time>2026-04-25T09:03:28.92Z</time></trkpt><trkpt lat="41.8223916" lon="1.7616969"><ele>284.6666666666667</ele><time>2026-04-25T09:03:29.92Z</time></trkpt><trkpt lat="41.8222323" lon="1.7616616"><ele>284.33333333333337</ele><time>2026-04-25T09:03:30.921Z</time></trkpt><trkpt lat="41.8220674" lon="1.7616231"><ele>284.0</ele><time>2026-04-25T09:03:31.919Z</time></trkpt><trkpt lat="41.8218951" lon="1.7615847"><ele>284.6666666666667</ele><time>2026-04-25T09:03:32.919Z</time></trkpt><trkpt lat="41.8217166" lon="1.7615456"><ele>285.3333333333333</ele><time>2026-04-25T09:03:33.922Z</time></trkpt><trkpt lat="41.8215364" lon="1.7615034"><ele>286.0</ele><time>2026-04-25T09:03:34.919Z</time></trkpt><trkpt lat="41.8213601" lon="1.7614578"><ele>286.0</ele><time>2026-04-25T09:03:35.919Z</time></trkpt><trkpt lat="41.8211877" lon="1.7614145"><ele>286.0</ele><time>2026-04-25T09:03:36.919Z</time></trkpt><trkpt lat="41.821008" lon="1.7613693"><ele>286.0</ele><time>2026-04-25T09:03:37.92Z</time></trkpt><trkpt lat="41.8208527" lon="1.7613321"><ele>287.3333333333333</ele><time>2026-04-25T09:03:38.921Z</time></trkpt><trkpt lat="41.8206866" lon="1.7612945"><ele>288.6666666666667</ele><time>2026-04-25T09:03:39.922Z</time></trkpt><trkpt lat="41.8205195" lon="1.761258"><ele>290.0</ele><time>2026-04-25T09:03:40.921Z</time></trkpt><trkpt lat="41.8203535" lon="1.7612209"><ele>290.0</ele><time>2026-04-25T09:03:41.922Z</time></trkpt><trkpt lat="41.8201876" lon="1.7611823"><ele>290.0</ele><time>2026-04-25T09:03:42.921Z</time></trkpt><trkpt lat="41.8200206" lon="1.7611436"><ele>290.0</ele><time>2026-04-25T09:03:43.922Z</time></trkpt><trkpt lat="41.8198534" lon="1.7611049"><ele>288.33333333333337</ele><time>2026-04-25T09:03:44.922Z</time></trkpt><trkpt lat="41.8196883" lon="1.7610668"><ele>286.6666666666667</ele><time>2026-04-25T09:03:45.922Z</time></trkpt><trkpt lat="41.8195301" lon="1.7610297"><ele>285.0</ele><time>2026-04-25T09:03:46.919Z</time></trkpt><trkpt lat="41.8193778" lon="1.7609929"><ele>284.75</ele><time>2026-04-25T09:03:47.92Z</time></trkpt><trkpt lat="41.8192389" lon="1.760958"><ele>284.5</ele><time>2026-04-25T09:03:48.92Z</time></trkpt><trkpt lat="41.8191101" lon="1.7609255"><ele>284.25</ele><time>2026-04-25T09:03:49.923Z</time></trkpt><trkpt lat="41.8189999" lon="1.7608978"><ele>284.0</ele><time>2026-04-25T09:03:50.92Z</time></trkpt><trkpt lat="41.8189045" lon="1.7608738"><ele>284.0</ele><time>2026-04-25T09:03:51.919Z</time></trkpt><trkpt lat="41.8188182" lon="1.7608534"><ele>284.0</ele><time>2026-04-25T09:03:52.921Z</time></trkpt><trkpt lat="41.8187378" lon="1.7608339"><ele>284.0</ele><time>2026-04-25T09:03:53.921Z</time></trkpt><trkpt lat="41.8186753" lon="1.7608201"><ele>284.0</ele><time>2026-04-25T09:03:54.923Z</time></trkpt><trkpt lat="41.8186085" lon="1.760806"><ele>284.0</ele><time>2026-04-25T09:03:55.921Z</time></trkpt><trkpt lat="41.818533" lon="1.7607875"><ele>284.0</ele><time>2026-04-25T09:03:56.922Z</time></trkpt><trkpt lat="41.8184451" lon="1.7607665"><ele>282.8</ele><time>2026-04-25T09:03:57.922Z</time></trkpt><trkpt lat="41.8183478" lon="1.7607461"><ele>281.59999999999997</ele><time>2026-04-25T09:03:58.919Z</time></trkpt><trkpt lat="41.8182473" lon="1.7607303"><ele>280.4</ele><time>2026-04-25T09:03:59.921Z</time></trkpt><trkpt lat="41.8181455" lon="1.7607234"><ele>279.2</ele><time>2026-04-25T09:04:00.922Z</time></trkpt><trkpt lat="41.8180444" lon="1.7607314"><ele>278.0</ele><time>2026-04-25T09:04:01.921Z</time></trkpt><trkpt lat="41.8179437" lon="1.760757"><ele>278.0</ele><time>2026-04-25T09:04:02.921Z</time></trkpt><trkpt lat="41.8178446" lon="1.7608027"><ele>278.0</ele><time>2026-04-25T09:04:03.922Z</time></trkpt><trkpt lat="41.8177478" lon="1.7608591"><ele>278.0</ele><time>2026-04-25T09:04:04.921Z</time></trkpt><trkpt lat="41.8176513" lon="1.7609227"><ele>278.0</ele><time>2026-04-25T09:04:05.921Z</time></trkpt><trkpt lat="41.8175561" lon="1.7609876"><ele>278.0</ele><time>2026-04-25T09:04:06.921Z</time></trkpt><trkpt lat="41.8174604" lon="1.7610527"><ele>278.0</ele><time>2026-04-25T09:04:07.921Z</time></trkpt><trkpt lat="41.8173639" lon="1.7611188"><ele>278.0</ele><time>2026-04-25T09:04:08.92Z</time></trkpt><trkpt lat="41.817259" lon="1.7611887"><ele>278.0</ele><time>2026-04-25T09:04:09.92Z</time></trkpt><trkpt lat="41.8171676" lon="1.7612481"><ele>278.0</ele><time>2026-04-25T09:04:10.921Z</time></trkpt><trkpt lat="41.8170684" lon="1.7613138"><ele>278.0</ele><time>2026-04-25T09:04:11.92Z</time></trkpt><trkpt lat="41.8169723" lon="1.7613775"><ele>278.0</ele><time>2026-04-25T09:04:12.923Z</time></trkpt><trkpt lat="41.8168616" lon="1.7614506"><ele>278.0</ele><time>2026-04-25T09:04:13.921Z</time></trkpt><trkpt lat="41.8167568" lon="1.7615195"><ele>278.0</ele><time>2026-04-25T09:04:14.921Z</time></trkpt><trkpt lat="41.8166506" lon="1.7615907"><ele>278.0</ele><time>2026-04-25T09:04:15.923Z</time></trkpt><trkpt lat="41.8165411" lon="1.761666"><ele>278.75</ele><time>2026-04-25T09:04:16.922Z</time></trkpt><trkpt lat="41.816425" lon="1.7617458"><ele>279.5</ele><time>2026-04-25T09:04:17.922Z</time></trkpt><trkpt lat="41.8163067" lon="1.7618261"><ele>280.25</ele><time>2026-04-25T09:04:18.92Z</time></trkpt><trkpt lat="41.816187" lon="1.7619069"><ele>281.0</ele><time>2026-04-25T09:04:19.922Z</time></trkpt><trkpt lat="41.8160668" lon="1.7619885"><ele>279.5</ele><time>2026-04-25T09:04:20.922Z</time></trkpt><trkpt lat="41.8159458" lon="1.7620709"><ele>278.0</ele><time>2026-04-25T09:04:21.92Z</time></trkpt><trkpt lat="41.815822" lon="1.7621547"><ele>276.5</ele><time>2026-04-25T09:04:22.922Z</time></trkpt><trkpt lat="41.8156929" lon="1.7622437"><ele>275.0</ele><time>2026-04-25T09:04:23.921Z</time></trkpt><trkpt lat="41.8155576" lon="1.7623378"><ele>275.0</ele><time>2026-04-25T09:04:24.923Z</time></trkpt><trkpt lat="41.8154165" lon="1.7624338"><ele>275.0</ele><time>2026-04-25T09:04:25.921Z</time></trkpt><trkpt lat="41.8152741" lon="1.7625294"><ele>275.0</ele><time>2026-04-25T09:04:26.92Z</time></trkpt><trkpt lat="41.8151256" lon="1.7626302"><ele>279.0</ele><time>2026-04-25T09:04:27.92Z</time></trkpt><trkpt lat="41.8149879" lon="1.7627235"><ele>283.0</ele><time>2026-04-25T09:04:28.92Z</time></trkpt><trkpt lat="41.814834" lon="1.7628223"><ele>287.0</ele><time>2026-04-25T09:04:29.921Z</time></trkpt><trkpt lat="41.8146875" lon="1.7629082"><ele>287.0</ele><time>2026-04-25T09:04:30.921Z</time></trkpt><trkpt lat="41.814539" lon="1.7629783"><ele>287.0</ele><time>2026-04-25T09:04:31.921Z</time></trkpt><trkpt lat="41.8143898" lon="1.7630283"><ele>287.0</ele><time>2026-04-25T09:04:32.92Z</time></trkpt><trkpt lat="41.8142407" lon="1.7630597"><ele>287.0</ele><time>2026-04-25T09:04:33.92Z</time></trkpt><trkpt lat="41.8140912" lon="1.7630758"><ele>287.0</ele><time>2026-04-25T09:04:34.92Z</time></trkpt><trkpt lat="41.8139403" lon="1.7630789"><ele>287.0</ele><time>2026-04-25T09:04:35.921Z</time></trkpt><trkpt lat="41.8137862" lon="1.7630661"><ele>287.0</ele><time>2026-04-25T09:04:36.922Z</time></trkpt><trkpt lat="41.813626" lon="1.7630304"><ele>287.0</ele><time>2026-04-25T09:04:37.921Z</time></trkpt><trkpt lat="41.8134663" lon="1.7629689"><ele>287.0</ele><time>2026-04-25T09:04:38.921Z</time></trkpt><trkpt lat="41.8133091" lon="1.7628811"><ele>290.6666666666667</ele><time>2026-04-25T09:04:39.92Z</time></trkpt><trkpt lat="41.8131581" lon="1.7627699"><ele>294.3333333333333</ele><time>2026-04-25T09:04:40.921Z</time></trkpt><trkpt lat="41.813004" lon="1.762634"><ele>298.0</ele><time>2026-04-25T09:04:41.921Z</time></trkpt><trkpt lat="41.812872" lon="1.7625019"><ele>296.0</ele><time>2026-04-25T09:04:42.92Z</time></trkpt><trkpt lat="41.8127337" lon="1.7623488"><ele>294.0</ele><time>2026-04-25T09:04:43.919Z</time></trkpt><trkpt lat="41.8126113" lon="1.7621988"><ele>292.0</ele><time>2026-04-25T09:04:44.922Z</time></trkpt><trkpt lat="41.8124804" lon="1.7620162"><ele>285.0</ele><time>2026-04-25T09:04:45.92Z</time></trkpt><trkpt lat="41.812364" lon="1.761834"><ele>278.0</ele><time>2026-04-25T09:04:46.921Z</time></trkpt><trkpt lat="41.8122516" lon="1.7616472"><ele>271.0</ele><time>2026-04-25T09:04:47.921Z</time></trkpt><trkpt lat="41.8121362" lon="1.7614667"><ele>271.0</ele><time>2026-04-25T09:04:48.921Z</time></trkpt><trkpt lat="41.8120222" lon="1.7613106"><ele>271.0</ele><time>2026-04-25T09:04:49.921Z</time></trkpt><trkpt lat="41.8118842" lon="1.7611508"><ele>271.0</ele><time>2026-04-25T09:04:50.92Z</time></trkpt><trkpt lat="41.8117452" lon="1.7610138"><ele>269.3333333333333</ele><time>2026-04-25T09:04:51.92Z</time></trkpt><trkpt lat="41.8115978" lon="1.7608898"><ele>267.6666666666667</ele><time>2026-04-25T09:04:52.921Z</time></trkpt><trkpt lat="41.8114443" lon="1.7607829"><ele>266.0</ele><time>2026-04-25T09:04:53.92Z</time></trkpt><trkpt lat="41.8112915" lon="1.7606951"><ele>266.0</ele><time>2026-04-25T09:04:54.921Z</time></trkpt><trkpt lat="41.8111359" lon="1.7606323"><ele>266.0</ele><time>2026-04-25T09:04:55.921Z</time></trkpt><trkpt lat="41.8109812" lon="1.7606"><ele>266.0</ele><time>2026-04-25T09:04:56.921Z</time></trkpt><trkpt lat="41.8108262" lon="1.7605972"><ele>266.6666666666667</ele><time>2026-04-25T09:04:57.92Z</time></trkpt><trkpt lat="41.8106695" lon="1.7606211"><ele>267.3333333333333</ele><time>2026-04-25T09:04:58.921Z</time></trkpt><trkpt lat="41.8105115" lon="1.7606713"><ele>268.0</ele><time>2026-04-25T09:04:59.921Z</time></trkpt><trkpt lat="41.8103623" lon="1.7607361"><ele>268.0</ele><time>2026-04-25T09:05:00.922Z</time></trkpt><trkpt lat="41.8101932" lon="1.7608226"><ele>268.0</ele><time>2026-04-25T09:05:01.921Z</time></trkpt><trkpt lat="41.8100306" lon="1.7609081"><ele>268.0</ele><time>2026-04-25T09:05:02.922Z</time></trkpt><trkpt lat="41.8098658" lon="1.7609883"><ele>274.0</ele><time>2026-04-25T09:05:03.921Z</time></trkpt><trkpt lat="41.8096929" lon="1.7610596"><ele>280.0</ele><time>2026-04-25T09:05:04.922Z</time></trkpt><trkpt lat="41.8095161" lon="1.7611212"><ele>286.0</ele><time>2026-04-25T09:05:05.921Z</time></trkpt><trkpt lat="41.8093293" lon="1.7611739"><ele>284.0</ele><time>2026-04-25T09:05:06.923Z</time></trkpt><trkpt lat="41.809133" lon="1.7612187"><ele>282.0</ele><time>2026-04-25T09:05:07.921Z</time></trkpt><trkpt lat="41.8089268" lon="1.7612618"><ele>280.0</ele><time>2026-04-25T09:05:08.921Z</time></trkpt><trkpt lat="41.8087116" lon="1.7613072"><ele>278.66666666666663</ele><time>2026-04-25T09:05:09.921Z</time></trkpt><trkpt lat="41.8084925" lon="1.7613583"><ele>277.3333333333333</ele><time>2026-04-25T09:05:10.921Z</time></trkpt><trkpt lat="41.8082741" lon="1.7614254"><ele>276.0</ele><time>2026-04-25T09:05:11.92Z</time></trkpt><trkpt lat="41.8080579" lon="1.7615117"><ele>276.0</ele><time>2026-04-25T09:05:12.92Z</time></trkpt><trkpt lat="41.8078436" lon="1.7616078"><ele>276.0</ele><time>2026-04-25T09:05:13.921Z</time></trkpt><trkpt lat="41.8076312" lon="1.7617065"><ele>273.3333333333333</ele><time>2026-04-25T09:05:14.919Z</time></trkpt><trkpt lat="41.8074183" lon="1.7618065"><ele>270.66666666666663</ele><time>2026-04-25T09:05:15.92Z</time></trkpt><trkpt lat="41.8072114" lon="1.7619023"><ele>268.0</ele><time>2026-04-25T09:05:16.922Z</time></trkpt><trkpt lat="41.8069792" lon="1.7620057"><ele>271.66666666666663</ele><time>2026-04-25T09:05:17.921Z</time></trkpt><trkpt lat="41.8067663" lon="1.7620973"><ele>275.3333333333333</ele><time>2026-04-25T09:05:18.922Z</time></trkpt><trkpt lat="41.8065613" lon="1.7621855"><ele>279.0</ele><time>2026-04-25T09:05:19.921Z</time></trkpt><trkpt lat="41.8063596" lon="1.7622745"><ele>279.0</ele><time>2026-04-25T09:05:20.92Z</time></trkpt><trkpt lat="41.8061727" lon="1.7623591"><ele>279.0</ele><time>2026-04-25T09:05:21.92Z</time></trkpt><trkpt lat="41.8059635" lon="1.7624555"><ele>279.0</ele><time>2026-04-25T09:05:22.921Z</time></trkpt><trkpt lat="41.8057726" lon="1.7625446"><ele>276.3333333333333</ele><time>2026-04-25T09:05:23.921Z</time></trkpt><trkpt lat="41.8055908" lon="1.7626394"><ele>273.66666666666663</ele><time>2026-04-25T09:05:24.921Z</time></trkpt><trkpt lat="41.8054179" lon="1.7627495"><ele>271.0</ele><time>2026-04-25T09:05:25.922Z</time></trkpt><trkpt lat="41.8052552" lon="1.7628821"><ele>271.66666666666663</ele><time>2026-04-25T09:05:26.92Z</time></trkpt><trkpt lat="41.8050994" lon="1.7630391"><ele>272.3333333333333</ele><time>2026-04-25T09:05:27.921Z</time></trkpt><trkpt lat="41.8049459" lon="1.7632146"><ele>273.0</ele><time>2026-04-25T09:05:28.921Z</time></trkpt><trkpt lat="41.8047851" lon="1.763413"><ele>277.0</ele><time>2026-04-25T09:05:29.92Z</time></trkpt><trkpt lat="41.8046413" lon="1.7635983"><ele>281.0</ele><time>2026-04-25T09:05:30.92Z</time></trkpt><trkpt lat="41.8044897" lon="1.7637977"><ele>285.0</ele><time>2026-04-25T09:05:31.921Z</time></trkpt><trkpt lat="41.8043482" lon="1.7639865"><ele>281.6666666666667</ele><time>2026-04-25T09:05:32.921Z</time></trkpt><trkpt lat="41.804188" lon="1.7642019"><ele>278.33333333333337</ele><time>2026-04-25T09:05:33.922Z</time></trkpt><trkpt lat="41.804038" lon="1.7644016"><ele>275.0</ele><time>2026-04-25T09:05:34.921Z</time></trkpt><trkpt lat="41.8038888" lon="1.7646008"><ele>275.0</ele><time>2026-04-25T09:05:35.921Z</time></trkpt><trkpt lat="41.8037422" lon="1.7647982"><ele>275.0</ele><time>2026-04-25T09:05:36.92Z</time></trkpt><trkpt lat="41.8036074" lon="1.7649811"><ele>275.0</ele><time>2026-04-25T09:05:37.922Z</time></trkpt><trkpt lat="41.8034543" lon="1.7651871"><ele>276.6666666666667</ele><time>2026-04-25T09:05:38.921Z</time></trkpt><trkpt lat="41.8033056" lon="1.7653759"><ele>278.3333333333333</ele><time>2026-04-25T09:05:39.922Z</time></trkpt><trkpt lat="41.8031472" lon="1.7655543"><ele>280.0</ele><time>2026-04-25T09:05:40.923Z</time></trkpt><trkpt lat="41.8029811" lon="1.7657161"><ele>280.0</ele><time>2026-04-25T09:05:41.919Z</time></trkpt><trkpt lat="41.8028029" lon="1.7658667"><ele>280.0</ele><time>2026-04-25T09:05:42.921Z</time></trkpt><trkpt lat="41.8026212" lon="1.7660041"><ele>280.0</ele><time>2026-04-25T09:05:43.92Z</time></trkpt><trkpt lat="41.8024409" lon="1.7661347"><ele>280.66666666666663</ele><time>2026-04-25T09:05:44.92Z</time></trkpt><trkpt lat="41.8022651" lon="1.766262"><ele>281.3333333333333</ele><time>2026-04-25T09:05:45.922Z</time></trkpt><trkpt lat="41.8020963" lon="1.7663901"><ele>282.0</ele><time>2026-04-25T09:05:46.922Z</time></trkpt><trkpt lat="41.8019364" lon="1.7665237"><ele>281.6666666666667</ele><time>2026-04-25T09:05:47.922Z</time></trkpt><trkpt lat="41.8017923" lon="1.7666584"><ele>281.33333333333337</ele><time>2026-04-25T09:05:48.924Z</time></trkpt><trkpt lat="41.8016318" lon="1.7668222"><ele>281.0</ele><time>2026-04-25T09:05:49.922Z</time></trkpt><trkpt lat="41.8014854" lon="1.7669904"><ele>281.0</ele><time>2026-04-25T09:05:50.921Z</time></trkpt><trkpt lat="41.8013432" lon="1.767173"><ele>281.0</ele><time>2026-04-25T09:05:51.92Z</time></trkpt><trkpt lat="41.8012047" lon="1.7673674"><ele>281.0</ele><time>2026-04-25T09:05:52.922Z</time></trkpt><trkpt lat="41.8010783" lon="1.7675556"><ele>281.0</ele><time>2026-04-25T09:05:53.92Z</time></trkpt><trkpt lat="41.8009362" lon="1.7677738"><ele>281.0</ele><time>2026-04-25T09:05:54.921Z</time></trkpt><trkpt lat="41.8008015" lon="1.7679811"><ele>281.0</ele><time>2026-04-25T09:05:55.92Z</time></trkpt><trkpt lat="41.8006659" lon="1.7681901"><ele>281.0</ele><time>2026-04-25T09:05:56.92Z</time></trkpt><trkpt lat="41.800531" lon="1.768399"><ele>281.0</ele><time>2026-04-25T09:05:57.92Z</time></trkpt><trkpt lat="41.8003999" lon="1.768607"><ele>281.0</ele><time>2026-04-25T09:05:58.92Z</time></trkpt><trkpt lat="41.8002712" lon="1.7688125"><ele>281.0</ele><time>2026-04-25T09:05:59.919Z</time></trkpt><trkpt lat="41.800144" lon="1.7690138"><ele>281.0</ele><time>2026-04-25T09:06:00.92Z</time></trkpt><trkpt lat="41.8000186" lon="1.7692107"><ele>281.0</ele><time>2026-04-25T09:06:01.92Z</time></trkpt><trkpt lat="41.7998968" lon="1.7694002"><ele>281.0</ele><time>2026-04-25T09:06:02.919Z</time></trkpt><trkpt lat="41.799779" lon="1.7695821"><ele>281.0</ele><time>2026-04-25T09:06:03.92Z</time></trkpt><trkpt lat="41.7996728" lon="1.7697472"><ele>281.0</ele><time>2026-04-25T09:06:04.92Z</time></trkpt><trkpt lat="41.7995551" lon="1.7699305"><ele>281.0</ele><time>2026-04-25T09:06:05.92Z</time></trkpt><trkpt lat="41.7994471" lon="1.7701011"><ele>281.0</ele><time>2026-04-25T09:06:06.92Z</time></trkpt><trkpt lat="41.79934" lon="1.7702769"><ele>281.0</ele><time>2026-04-25T09:06:07.921Z</time></trkpt><trkpt lat="41.7992344" lon="1.7704618"><ele>280.0</ele><time>2026-04-25T09:06:08.92Z</time></trkpt><trkpt lat="41.7991382" lon="1.7706437"><ele>279.0</ele><time>2026-04-25T09:06:09.92Z</time></trkpt><trkpt lat="41.799031" lon="1.7708598"><ele>278.0</ele><time>2026-04-25T09:06:10.921Z</time></trkpt><trkpt lat="41.798934" lon="1.7710724"><ele>277.0</ele><time>2026-04-25T09:06:11.92Z</time></trkpt><trkpt lat="41.7988459" lon="1.7712969"><ele>276.0</ele><time>2026-04-25T09:06:12.92Z</time></trkpt><trkpt lat="41.7987706" lon="1.7715326"><ele>275.0</ele><time>2026-04-25T09:06:13.921Z</time></trkpt><trkpt lat="41.7987056" lon="1.7717793"><ele>274.6666666666667</ele><time>2026-04-25T09:06:14.921Z</time></trkpt><trkpt lat="41.7986468" lon="1.7720338"><ele>274.3333333333333</ele><time>2026-04-25T09:06:15.919Z</time></trkpt><trkpt lat="41.7985947" lon="1.7722917"><ele>274.0</ele><time>2026-04-25T09:06:16.921Z</time></trkpt><trkpt lat="41.7985477" lon="1.7725538"><ele>273.3333333333333</ele><time>2026-04-25T09:06:17.919Z</time></trkpt><trkpt lat="41.798501" lon="1.7728167"><ele>272.6666666666667</ele><time>2026-04-25T09:06:18.92Z</time></trkpt><trkpt lat="41.7984516" lon="1.7730805"><ele>272.0</ele><time>2026-04-25T09:06:19.92Z</time></trkpt><trkpt lat="41.7984034" lon="1.7733268"><ele>271.33333333333337</ele><time>2026-04-25T09:06:20.919Z</time></trkpt><trkpt lat="41.7983469" lon="1.7736062"><ele>270.6666666666667</ele><time>2026-04-25T09:06:21.923Z</time></trkpt><trkpt lat="41.7982927" lon="1.7738657"><ele>270.0</ele><time>2026-04-25T09:06:22.921Z</time></trkpt><trkpt lat="41.7982379" lon="1.7741204"><ele>269.0</ele><time>2026-04-25T09:06:23.921Z</time></trkpt><trkpt lat="41.7981771" lon="1.774366"><ele>268.0</ele><time>2026-04-25T09:06:24.921Z</time></trkpt><trkpt lat="41.7981063" lon="1.7745864"><ele>267.0</ele><time>2026-04-25T09:06:25.92Z</time></trkpt><trkpt lat="41.798001" lon="1.7748206"><ele>267.0</ele><time>2026-04-25T09:06:26.922Z</time></trkpt><trkpt lat="41.7978797" lon="1.7750234"><ele>267.0</ele><time>2026-04-25T09:06:27.921Z</time></trkpt><trkpt lat="41.7977401" lon="1.7752114"><ele>267.0</ele><time>2026-04-25T09:06:28.921Z</time></trkpt><trkpt lat="41.7975898" lon="1.7753898"><ele>266.3333333333333</ele><time>2026-04-25T09:06:29.921Z</time></trkpt><trkpt lat="41.7974318" lon="1.7755656"><ele>265.66666666666663</ele><time>2026-04-25T09:06:30.921Z</time></trkpt><trkpt lat="41.7972704" lon="1.7757406"><ele>265.0</ele><time>2026-04-25T09:06:31.92Z</time></trkpt><trkpt lat="41.7971068" lon="1.7759169"><ele>265.0</ele><time>2026-04-25T09:06:32.922Z</time></trkpt><trkpt lat="41.7969433" lon="1.7760958"><ele>265.0</ele><time>2026-04-25T09:06:33.919Z</time></trkpt><trkpt lat="41.7967791" lon="1.7762797"><ele>265.0</ele><time>2026-04-25T09:06:34.921Z</time></trkpt><trkpt lat="41.7966141" lon="1.7764645"><ele>265.0</ele><time>2026-04-25T09:06:35.922Z</time></trkpt><trkpt lat="41.7964593" lon="1.7766373"><ele>265.0</ele><time>2026-04-25T09:06:36.92Z</time></trkpt><trkpt lat="41.7962823" lon="1.776832"><ele>265.0</ele><time>2026-04-25T09:06:37.92Z</time></trkpt><trkpt lat="41.7961115" lon="1.7770083"><ele>265.3333333333333</ele><time>2026-04-25T09:06:38.921Z</time></trkpt><trkpt lat="41.7959309" lon="1.77717"><ele>265.6666666666667</ele><time>2026-04-25T09:06:39.92Z</time></trkpt><trkpt lat="41.7957392" lon="1.7773136"><ele>266.0</ele><time>2026-04-25T09:06:40.922Z</time></trkpt><trkpt lat="41.7955515" lon="1.7774312"><ele>266.0</ele><time>2026-04-25T09:06:41.922Z</time></trkpt><trkpt lat="41.7953293" lon="1.7775404"><ele>266.0</ele><time>2026-04-25T09:06:42.923Z</time></trkpt><trkpt lat="41.7951135" lon="1.7776121"><ele>262.6666666666667</ele><time>2026-04-25T09:06:43.921Z</time></trkpt><trkpt lat="41.7948933" lon="1.7776565"><ele>259.3333333333333</ele><time>2026-04-25T09:06:44.921Z</time></trkpt><trkpt lat="41.7946717" lon="1.7776829"><ele>256.0</ele><time>2026-04-25T09:06:45.92Z</time></trkpt><trkpt lat="41.7944509" lon="1.7776989"><ele>265.0</ele><time>2026-04-25T09:06:46.92Z</time></trkpt><trkpt lat="41.7942376" lon="1.7777107"><ele>274.0</ele><time>2026-04-25T09:06:47.921Z</time></trkpt><trkpt lat="41.7940356" lon="1.7777231"><ele>283.0</ele><time>2026-04-25T09:06:48.922Z</time></trkpt><trkpt lat="41.7938445" lon="1.7777412"><ele>283.0</ele><time>2026-04-25T09:06:49.921Z</time></trkpt><trkpt lat="41.7936584" lon="1.7777708"><ele>283.0</ele><time>2026-04-25T09:06:50.921Z</time></trkpt><trkpt lat="41.7934761" lon="1.7778185"><ele>283.0</ele><time>2026-04-25T09:06:51.922Z</time></trkpt><trkpt lat="41.7933114" lon="1.7778776"><ele>278.0</ele><time>2026-04-25T09:06:52.922Z</time></trkpt><trkpt lat="41.7931276" lon="1.7779492"><ele>273.0</ele><time>2026-04-25T09:06:53.92Z</time></trkpt><trkpt lat="41.7929615" lon="1.7780179"><ele>268.0</ele><time>2026-04-25T09:06:54.919Z</time></trkpt><trkpt lat="41.7927989" lon="1.7780892"><ele>263.3333333333333</ele><time>2026-04-25T09:06:55.921Z</time></trkpt><trkpt lat="41.792638" lon="1.7781601"><ele>258.6666666666667</ele><time>2026-04-25T09:06:56.921Z</time></trkpt><trkpt lat="41.7924904" lon="1.7782247"><ele>254.0</ele><time>2026-04-25T09:06:57.922Z</time></trkpt><trkpt lat="41.7923283" lon="1.7782984"><ele>254.0</ele><time>2026-04-25T09:06:58.921Z</time></trkpt><trkpt lat="41.7921797" lon="1.7783685"><ele>254.0</ele><time>2026-04-25T09:06:59.921Z</time></trkpt><trkpt lat="41.7920328" lon="1.7784401"><ele>254.0</ele><time>2026-04-25T09:07:00.922Z</time></trkpt><trkpt lat="41.7918887" lon="1.778514"><ele>255.0</ele><time>2026-04-25T09:07:01.921Z</time></trkpt><trkpt lat="41.7917494" lon="1.7785926"><ele>256.0</ele><time>2026-04-25T09:07:02.922Z</time></trkpt><trkpt lat="41.7916144" lon="1.7786757"><ele>257.0</ele><time>2026-04-25T09:07:03.921Z</time></trkpt><trkpt lat="41.7914818" lon="1.7787608"><ele>258.0</ele><time>2026-04-25T09:07:04.921Z</time></trkpt><trkpt lat="41.7913518" lon="1.7788462"><ele>258.0</ele><time>2026-04-25T09:07:05.921Z</time></trkpt><trkpt lat="41.7912304" lon="1.7789244"><ele>258.0</ele><time>2026-04-25T09:07:06.921Z</time></trkpt><trkpt lat="41.7911262" lon="1.7789884"><ele>258.0</ele><time>2026-04-25T09:07:07.922Z</time></trkpt><trkpt lat="41.7910389" lon="1.7790407"><ele>258.0</ele><time>2026-04-25T09:07:08.921Z</time></trkpt><trkpt lat="41.790939" lon="1.7790967"><ele>258.0</ele><time>2026-04-25T09:07:09.92Z</time></trkpt><trkpt lat="41.7908377" lon="1.7791412"><ele>258.0</ele><time>2026-04-25T09:07:10.92Z</time></trkpt><trkpt lat="41.7907363" lon="1.7791947"><ele>258.0</ele><time>2026-04-25T09:07:11.923Z</time></trkpt><trkpt lat="41.7906402" lon="1.7792726"><ele>258.0</ele><time>2026-04-25T09:07:12.921Z</time></trkpt><trkpt lat="41.7905457" lon="1.7793622"><ele>258.0</ele><time>2026-04-25T09:07:13.922Z</time></trkpt><trkpt lat="41.7904272" lon="1.7794702"><ele>258.0</ele><time>2026-04-25T09:07:14.922Z</time></trkpt><trkpt lat="41.7903084" lon="1.7795758"><ele>258.0</ele><time>2026-04-25T09:07:15.919Z</time></trkpt><trkpt lat="41.7901843" lon="1.7796912"><ele>258.0</ele><time>2026-04-25T09:07:16.92Z</time></trkpt><trkpt lat="41.7900587" lon="1.7798177"><ele>256.0</ele><time>2026-04-25T09:07:17.921Z</time></trkpt><trkpt lat="41.7899406" lon="1.7799615"><ele>254.0</ele><time>2026-04-25T09:07:18.92Z</time></trkpt><trkpt lat="41.7898311" lon="1.7801222"><ele>252.0</ele><time>2026-04-25T09:07:19.921Z</time></trkpt><trkpt lat="41.7897208" lon="1.7802866"><ele>252.33333333333331</ele><time>2026-04-25T09:07:20.92Z</time></trkpt><trkpt lat="41.7895992" lon="1.7804434"><ele>252.66666666666666</ele><time>2026-04-25T09:07:21.922Z</time></trkpt><trkpt lat="41.7894685" lon="1.7805918"><ele>253.0</ele><time>2026-04-25T09:07:22.92Z</time></trkpt><trkpt lat="41.7893351" lon="1.7807332"><ele>253.0</ele><time>2026-04-25T09:07:23.92Z</time></trkpt><trkpt lat="41.789206" lon="1.7808563"><ele>253.0</ele><time>2026-04-25T09:07:24.921Z</time></trkpt><trkpt lat="41.7890483" lon="1.7809769"><ele>253.0</ele><time>2026-04-25T09:07:25.921Z</time></trkpt><trkpt lat="41.7888869" lon="1.7810683"><ele>254.33333333333331</ele><time>2026-04-25T09:07:26.921Z</time></trkpt><trkpt lat="41.7887116" lon="1.7811375"><ele>255.66666666666669</ele><time>2026-04-25T09:07:27.92Z</time></trkpt><trkpt lat="41.7885229" lon="1.7811943"><ele>257.0</ele><time>2026-04-25T09:07:28.92Z</time></trkpt><trkpt lat="41.7883358" lon="1.781242"><ele>257.0</ele><time>2026-04-25T09:07:29.922Z</time></trkpt><trkpt lat="41.7881175" lon="1.7812945"><ele>257.0</ele><time>2026-04-25T09:07:30.923Z</time></trkpt><trkpt lat="41.7879146" lon="1.7813435"><ele>257.0</ele><time>2026-04-25T09:07:31.921Z</time></trkpt><trkpt lat="41.7877163" lon="1.7813925"><ele>256.0</ele><time>2026-04-25T09:07:32.921Z</time></trkpt><trkpt lat="41.787522" lon="1.7814407"><ele>255.0</ele><time>2026-04-25T09:07:33.92Z</time></trkpt><trkpt lat="41.7873366" lon="1.7814896"><ele>254.0</ele><time>2026-04-25T09:07:34.922Z</time></trkpt><trkpt lat="41.787162" lon="1.7815466"><ele>254.0</ele><time>2026-04-25T09:07:35.921Z</time></trkpt><trkpt lat="41.7869947" lon="1.7816128"><ele>254.0</ele><time>2026-04-25T09:07:36.919Z</time></trkpt><trkpt lat="41.786827" lon="1.7816814"><ele>254.0</ele><time>2026-04-25T09:07:37.923Z</time></trkpt><trkpt lat="41.7866592" lon="1.7817367"><ele>251.33333333333334</ele><time>2026-04-25T09:07:38.921Z</time></trkpt><trkpt lat="41.7864944" lon="1.7817732"><ele>248.66666666666669</ele><time>2026-04-25T09:07:39.919Z</time></trkpt><trkpt lat="41.7863459" lon="1.7817928"><ele>246.0</ele><time>2026-04-25T09:07:40.92Z</time></trkpt><trkpt lat="41.7861887" lon="1.7818084"><ele>246.0</ele><time>2026-04-25T09:07:41.921Z</time></trkpt><trkpt lat="41.7860509" lon="1.7818214"><ele>246.0</ele><time>2026-04-25T09:07:42.921Z</time></trkpt><trkpt lat="41.7859288" lon="1.7818338"><ele>246.0</ele><time>2026-04-25T09:07:43.921Z</time></trkpt><trkpt lat="41.7858016" lon="1.7818546"><ele>246.0</ele><time>2026-04-25T09:07:44.922Z</time></trkpt><trkpt lat="41.7856983" lon="1.7818726"><ele>249.0</ele><time>2026-04-25T09:07:45.921Z</time></trkpt><trkpt lat="41.7855855" lon="1.7819013"><ele>252.00000000000003</ele><time>2026-04-25T09:07:46.922Z</time></trkpt><trkpt lat="41.7854839" lon="1.7819386"><ele>255.00000000000003</ele><time>2026-04-25T09:07:47.921Z</time></trkpt><trkpt lat="41.7853981" lon="1.7819759"><ele>258.0</ele><time>2026-04-25T09:07:48.921Z</time></trkpt><trkpt lat="41.7853143" lon="1.7820176"><ele>261.0</ele><time>2026-04-25T09:07:49.92Z</time></trkpt><trkpt lat="41.7852479" lon="1.7820503"><ele>259.40000000000003</ele><time>2026-04-25T09:07:50.922Z</time></trkpt><trkpt lat="41.7851317" lon="1.7820282"><ele>257.8</ele><time>2026-04-25T09:07:52.922Z</time></trkpt><trkpt lat="41.7850775" lon="1.7818809"><ele>256.20000000000005</ele><time>2026-04-25T09:07:54.92Z</time></trkpt><trkpt lat="41.7850719" lon="1.7817764"><ele>254.60000000000002</ele><time>2026-04-25T09:07:55.922Z</time></trkpt><trkpt lat="41.7850715" lon="1.7816655"><ele>253.0</ele><time>2026-04-25T09:07:56.92Z</time></trkpt><trkpt lat="41.7850722" lon="1.7815289"><ele>250.8</ele><time>2026-04-25T09:07:57.92Z</time></trkpt><trkpt lat="41.7850725" lon="1.7813913"><ele>248.60000000000002</ele><time>2026-04-25T09:07:58.922Z</time></trkpt><trkpt lat="41.7850704" lon="1.781261"><ele>246.39999999999998</ele><time>2026-04-25T09:07:59.922Z</time></trkpt><trkpt lat="41.7850669" lon="1.7811031"><ele>244.2</ele><time>2026-04-25T09:08:00.921Z</time></trkpt><trkpt lat="41.7850647" lon="1.7809545"><ele>242.0</ele><time>2026-04-25T09:08:01.921Z</time></trkpt><trkpt lat="41.7850639" lon="1.7807808"><ele>242.0</ele><time>2026-04-25T09:08:02.921Z</time></trkpt><trkpt lat="41.7850684" lon="1.7806106"><ele>242.0</ele><time>2026-04-25T09:08:03.922Z</time></trkpt><trkpt lat="41.7850899" lon="1.7804405"><ele>242.0</ele><time>2026-04-25T09:08:04.919Z</time></trkpt><trkpt lat="41.7851377" lon="1.7802713"><ele>242.0</ele><time>2026-04-25T09:08:05.92Z</time></trkpt><trkpt lat="41.7852127" lon="1.7801195"><ele>243.5</ele><time>2026-04-25T09:08:06.921Z</time></trkpt><trkpt lat="41.7853072" lon="1.7799989"><ele>245.0</ele><time>2026-04-25T09:08:07.921Z</time></trkpt><trkpt lat="41.7854067" lon="1.7799004"><ele>246.5</ele><time>2026-04-25T09:08:08.92Z</time></trkpt><trkpt lat="41.7855038" lon="1.7798122"><ele>248.0</ele><time>2026-04-25T09:08:09.922Z</time></trkpt><trkpt lat="41.785596" lon="1.7797266"><ele>248.0</ele><time>2026-04-25T09:08:10.919Z</time></trkpt><trkpt lat="41.785693" lon="1.7796369"><ele>248.0</ele><time>2026-04-25T09:08:11.921Z</time></trkpt><trkpt lat="41.78579" lon="1.7795474"><ele>248.0</ele><time>2026-04-25T09:08:12.921Z</time></trkpt><trkpt lat="41.7859084" lon="1.7794384"><ele>248.0</ele><time>2026-04-25T09:08:13.92Z</time></trkpt><trkpt lat="41.7860187" lon="1.7793386"><ele>248.75</ele><time>2026-04-25T09:08:14.922Z</time></trkpt><trkpt lat="41.7861304" lon="1.779238"><ele>249.5</ele><time>2026-04-25T09:08:15.92Z</time></trkpt><trkpt lat="41.7862409" lon="1.7791427"><ele>250.25</ele><time>2026-04-25T09:08:16.921Z</time></trkpt><trkpt lat="41.7863392" lon="1.7790544"><ele>251.0</ele><time>2026-04-25T09:08:17.921Z</time></trkpt><trkpt lat="41.786446" lon="1.7789522"><ele>251.0</ele><time>2026-04-25T09:08:18.921Z</time></trkpt><trkpt lat="41.7865516" lon="1.778849"><ele>251.0</ele><time>2026-04-25T09:08:19.922Z</time></trkpt><trkpt lat="41.7866547" lon="1.7787481"><ele>251.0</ele><time>2026-04-25T09:08:20.922Z</time></trkpt><trkpt lat="41.7867766" lon="1.7786313"><ele>251.0</ele><time>2026-04-25T09:08:21.92Z</time></trkpt><trkpt lat="41.7868932" lon="1.7785233"><ele>252.0</ele><time>2026-04-25T09:08:22.921Z</time></trkpt><trkpt lat="41.7870086" lon="1.7784164"><ele>253.0</ele><time>2026-04-25T09:08:23.922Z</time></trkpt><trkpt lat="41.7871256" lon="1.778309"><ele>254.0</ele><time>2026-04-25T09:08:24.924Z</time></trkpt><trkpt lat="41.7872456" lon="1.7781986"><ele>255.0</ele><time>2026-04-25T09:08:25.92Z</time></trkpt><trkpt lat="41.7873656" lon="1.7780839"><ele>255.0</ele><time>2026-04-25T09:08:26.921Z</time></trkpt><trkpt lat="41.7874834" lon="1.7779669"><ele>255.0</ele><time>2026-04-25T09:08:27.92Z</time></trkpt><trkpt lat="41.7875877" lon="1.7778498"><ele>255.0</ele><time>2026-04-25T09:08:28.925Z</time></trkpt><trkpt lat="41.7876876" lon="1.7776971"><ele>255.0</ele><time>2026-04-25T09:08:29.925Z</time></trkpt><trkpt lat="41.7877643" lon="1.7775335"><ele>255.75</ele><time>2026-04-25T09:08:30.921Z</time></trkpt><trkpt lat="41.7878306" lon="1.7773702"><ele>256.5</ele><time>2026-04-25T09:08:31.921Z</time></trkpt><trkpt lat="41.7879183" lon="1.7771899"><ele>257.25</ele><time>2026-04-25T09:08:32.92Z</time></trkpt><trkpt lat="41.788017" lon="1.7770463"><ele>258.0</ele><time>2026-04-25T09:08:33.922Z</time></trkpt><trkpt lat="41.7881544" lon="1.7768937"><ele>257.0</ele><time>2026-04-25T09:08:34.92Z</time></trkpt><trkpt lat="41.7882987" lon="1.7767619"><ele>256.0</ele><time>2026-04-25T09:08:35.921Z</time></trkpt><trkpt lat="41.7884506" lon="1.7766252"><ele>255.0</ele><time>2026-04-25T09:08:36.919Z</time></trkpt><trkpt lat="41.7886049" lon="1.7764856"><ele>255.0</ele><time>2026-04-25T09:08:37.919Z</time></trkpt><trkpt lat="41.7887587" lon="1.7763455"><ele>255.0</ele><time>2026-04-25T09:08:38.921Z</time></trkpt><trkpt lat="41.7888926" lon="1.7762235"><ele>255.0</ele><time>2026-04-25T09:08:39.921Z</time></trkpt><trkpt lat="41.7890306" lon="1.7760863"><ele>256.3333333333333</ele><time>2026-04-25T09:08:40.92Z</time></trkpt><trkpt lat="41.7891426" lon="1.7759343"><ele>257.66666666666663</ele><time>2026-04-25T09:08:41.921Z</time></trkpt><trkpt lat="41.7892298" lon="1.7757469"><ele>259.0</ele><time>2026-04-25T09:08:42.921Z</time></trkpt><trkpt lat="41.7892918" lon="1.7755365"><ele>259.0</ele><time>2026-04-25T09:08:43.922Z</time></trkpt><trkpt lat="41.7893378" lon="1.7753337"><ele>259.0</ele><time>2026-04-25T09:08:44.923Z</time></trkpt><trkpt lat="41.7893808" lon="1.7751219"><ele>259.0</ele><time>2026-04-25T09:08:45.92Z</time></trkpt><trkpt lat="41.7894265" lon="1.7749436"><ele>260.25</ele><time>2026-04-25T09:08:46.926Z</time></trkpt><trkpt lat="41.7894945" lon="1.7747931"><ele>261.5</ele><time>2026-04-25T09:08:47.922Z</time></trkpt><trkpt lat="41.7895933" lon="1.774683"><ele>262.75</ele><time>2026-04-25T09:08:48.92Z</time></trkpt><trkpt lat="41.7897073" lon="1.7746303"><ele>264.0</ele><time>2026-04-25T09:08:49.92Z</time></trkpt><trkpt lat="41.7898522" lon="1.7746172"><ele>264.0</ele><time>2026-04-25T09:08:50.921Z</time></trkpt><trkpt lat="41.790005" lon="1.7746082"><ele>264.0</ele><time>2026-04-25T09:08:51.92Z</time></trkpt><trkpt lat="41.7901604" lon="1.7745863"><ele>264.0</ele><time>2026-04-25T09:08:52.921Z</time></trkpt><trkpt lat="41.790354" lon="1.7745428"><ele>263.6666666666667</ele><time>2026-04-25T09:08:53.921Z</time></trkpt><trkpt lat="41.7905462" lon="1.774482"><ele>263.33333333333337</ele><time>2026-04-25T09:08:54.921Z</time></trkpt><trkpt lat="41.7907306" lon="1.7744152"><ele>263.0</ele><time>2026-04-25T09:08:55.922Z</time></trkpt><trkpt lat="41.790949" lon="1.7743329"><ele>270.0</ele><time>2026-04-25T09:08:56.921Z</time></trkpt><trkpt lat="41.7911601" lon="1.7742535"><ele>277.0</ele><time>2026-04-25T09:08:57.921Z</time></trkpt><trkpt lat="41.7913787" lon="1.7741725"><ele>284.0</ele><time>2026-04-25T09:08:58.921Z</time></trkpt><trkpt lat="41.7915971" lon="1.7740991"><ele>284.0</ele><time>2026-04-25T09:08:59.92Z</time></trkpt><trkpt lat="41.791805" lon="1.7740514"><ele>284.0</ele><time>2026-04-25T09:09:00.92Z</time></trkpt><trkpt lat="41.7920375" lon="1.7740235"><ele>284.0</ele><time>2026-04-25T09:09:01.922Z</time></trkpt><trkpt lat="41.7922432" lon="1.7740019"><ele>282.6666666666667</ele><time>2026-04-25T09:09:02.92Z</time></trkpt><trkpt lat="41.7924229" lon="1.7739718"><ele>281.3333333333333</ele><time>2026-04-25T09:09:03.922Z</time></trkpt><trkpt lat="41.7926092" lon="1.7739224"><ele>280.0</ele><time>2026-04-25T09:09:04.92Z</time></trkpt><trkpt lat="41.7927599" lon="1.7738655"><ele>279.25</ele><time>2026-04-25T09:09:05.921Z</time></trkpt><trkpt lat="41.7929173" lon="1.7737906"><ele>278.5</ele><time>2026-04-25T09:09:06.919Z</time></trkpt><trkpt lat="41.7930351" lon="1.7737167"><ele>277.75</ele><time>2026-04-25T09:09:07.919Z</time></trkpt><trkpt lat="41.7931243" lon="1.7736304"><ele>277.0</ele><time>2026-04-25T09:09:08.921Z</time></trkpt><trkpt lat="41.7931816" lon="1.7735142"><ele>280.5</ele><time>2026-04-25T09:09:09.921Z</time></trkpt><trkpt lat="41.793198" lon="1.7733727"><ele>284.0</ele><time>2026-04-25T09:09:10.921Z</time></trkpt><trkpt lat="41.7931847" lon="1.7732225"><ele>287.5</ele><time>2026-04-25T09:09:11.919Z</time></trkpt><trkpt lat="41.7931557" lon="1.7730271"><ele>291.0</ele><time>2026-04-25T09:09:12.92Z</time></trkpt><trkpt lat="41.7931255" lon="1.7728393"><ele>292.25</ele><time>2026-04-25T09:09:13.92Z</time></trkpt><trkpt lat="41.7930838" lon="1.7726601"><ele>293.5</ele><time>2026-04-25T09:09:14.921Z</time></trkpt><trkpt lat="41.793018" lon="1.7725024"><ele>294.75</ele><time>2026-04-25T09:09:15.92Z</time></trkpt><trkpt lat="41.7929281" lon="1.7723901"><ele>296.0</ele><time>2026-04-25T09:09:16.921Z</time></trkpt><trkpt lat="41.7927991" lon="1.7723187"><ele>298.75</ele><time>2026-04-25T09:09:17.921Z</time></trkpt><trkpt lat="41.7926543" lon="1.7722884"><ele>301.5</ele><time>2026-04-25T09:09:18.921Z</time></trkpt><trkpt lat="41.7925134" lon="1.7722667"><ele>304.25</ele><time>2026-04-25T09:09:19.92Z</time></trkpt><trkpt lat="41.7923799" lon="1.7722328"><ele>307.0</ele><time>2026-04-25T09:09:20.921Z</time></trkpt><trkpt lat="41.7922715" lon="1.7721667"><ele>307.0</ele><time>2026-04-25T09:09:21.921Z</time></trkpt><trkpt lat="41.7921733" lon="1.7720376"><ele>307.0</ele><time>2026-04-25T09:09:22.921Z</time></trkpt><trkpt lat="41.7921089" lon="1.7718736"><ele>307.0</ele><time>2026-04-25T09:09:23.92Z</time></trkpt><trkpt lat="41.7920564" lon="1.7716969"><ele>307.0</ele><time>2026-04-25T09:09:24.921Z</time></trkpt><trkpt lat="41.7919966" lon="1.7714762"><ele>306.3333333333333</ele><time>2026-04-25T09:09:25.921Z</time></trkpt><trkpt lat="41.7919351" lon="1.7712657"><ele>305.6666666666667</ele><time>2026-04-25T09:09:26.92Z</time></trkpt><trkpt lat="41.7918768" lon="1.7710609"><ele>305.0</ele><time>2026-04-25T09:09:27.92Z</time></trkpt><trkpt lat="41.7918172" lon="1.7708275"><ele>309.33333333333337</ele><time>2026-04-25T09:09:28.92Z</time></trkpt><trkpt lat="41.7917829" lon="1.7706073"><ele>313.6666666666667</ele><time>2026-04-25T09:09:29.921Z</time></trkpt><trkpt lat="41.7917815" lon="1.770393"><ele>318.0</ele><time>2026-04-25T09:09:30.92Z</time></trkpt><trkpt lat="41.7918067" lon="1.7701993"><ele>318.5</ele><time>2026-04-25T09:09:31.919Z</time></trkpt><trkpt lat="41.7918337" lon="1.7700417"><ele>319.0</ele><time>2026-04-25T09:09:32.921Z</time></trkpt><trkpt lat="41.7918368" lon="1.7698815"><ele>319.5</ele><time>2026-04-25T09:09:33.921Z</time></trkpt><trkpt lat="41.7917958" lon="1.7697435"><ele>320.0</ele><time>2026-04-25T09:09:34.92Z</time></trkpt><trkpt lat="41.7917185" lon="1.7696326"><ele>320.0</ele><time>2026-04-25T09:09:35.921Z</time></trkpt><trkpt lat="41.791609" lon="1.769519"><ele>320.0</ele><time>2026-04-25T09:09:36.921Z</time></trkpt><trkpt lat="41.7915061" lon="1.7694263"><ele>320.0</ele><time>2026-04-25T09:09:37.923Z</time></trkpt><trkpt lat="41.7914067" lon="1.7692957"><ele>320.0</ele><time>2026-04-25T09:09:38.921Z</time></trkpt><trkpt lat="41.791346" lon="1.7691382"><ele>320.2</ele><time>2026-04-25T09:09:39.921Z</time></trkpt><trkpt lat="41.7913234" lon="1.7689834"><ele>320.4</ele><time>2026-04-25T09:09:40.921Z</time></trkpt><trkpt lat="41.7913061" lon="1.7688123"><ele>320.6</ele><time>2026-04-25T09:09:41.92Z</time></trkpt><trkpt lat="41.7912708" lon="1.768681"><ele>320.8</ele><time>2026-04-25T09:09:42.92Z</time></trkpt><trkpt lat="41.7912099" lon="1.768593"><ele>321.0</ele><time>2026-04-25T09:09:43.92Z</time></trkpt><trkpt lat="41.7911104" lon="1.7685194"><ele>323.25</ele><time>2026-04-25T09:09:44.92Z</time></trkpt><trkpt lat="41.7910043" lon="1.7684341"><ele>325.5</ele><time>2026-04-25T09:09:45.922Z</time></trkpt><trkpt lat="41.7909015" lon="1.7683196"><ele>327.75</ele><time>2026-04-25T09:09:46.921Z</time></trkpt><trkpt lat="41.7908052" lon="1.7681696"><ele>330.0</ele><time>2026-04-25T09:09:47.923Z</time></trkpt><trkpt lat="41.7907108" lon="1.7680345"><ele>330.0</ele><time>2026-04-25T09:09:48.921Z</time></trkpt><trkpt lat="41.7905844" lon="1.7679053"><ele>330.0</ele><time>2026-04-25T09:09:49.921Z</time></trkpt><trkpt lat="41.7904459" lon="1.7677891"><ele>330.0</ele><time>2026-04-25T09:09:50.921Z</time></trkpt><trkpt lat="41.7903118" lon="1.7676907"><ele>333.0</ele><time>2026-04-25T09:09:51.921Z</time></trkpt><trkpt lat="41.7901704" lon="1.7675786"><ele>336.0</ele><time>2026-04-25T09:09:52.921Z</time></trkpt><trkpt lat="41.7900571" lon="1.7674709"><ele>339.0</ele><time>2026-04-25T09:09:53.921Z</time></trkpt><trkpt lat="41.7899477" lon="1.767321"><ele>339.0</ele><time>2026-04-25T09:09:54.92Z</time></trkpt><trkpt lat="41.789866" lon="1.7671518"><ele>339.0</ele><time>2026-04-25T09:09:55.919Z</time></trkpt><trkpt lat="41.7898027" lon="1.7669778"><ele>339.0</ele><time>2026-04-25T09:09:56.92Z</time></trkpt><trkpt lat="41.7897379" lon="1.7667683"><ele>339.6666666666667</ele><time>2026-04-25T09:09:57.921Z</time></trkpt><trkpt lat="41.7896811" lon="1.76657"><ele>340.33333333333337</ele><time>2026-04-25T09:09:58.92Z</time></trkpt><trkpt lat="41.7896355" lon="1.7663881"><ele>341.0</ele><time>2026-04-25T09:09:59.921Z</time></trkpt><trkpt lat="41.7895956" lon="1.7661849"><ele>342.75</ele><time>2026-04-25T09:10:00.92Z</time></trkpt><trkpt lat="41.7895767" lon="1.7659948"><ele>344.5</ele><time>2026-04-25T09:10:01.92Z</time></trkpt><trkpt lat="41.789583" lon="1.7658068"><ele>346.25</ele><time>2026-04-25T09:10:02.92Z</time></trkpt><trkpt lat="41.7896212" lon="1.7656313"><ele>348.0</ele><time>2026-04-25T09:10:03.921Z</time></trkpt><trkpt lat="41.7896814" lon="1.7654883"><ele>348.0</ele><time>2026-04-25T09:10:04.921Z</time></trkpt><trkpt lat="41.7897598" lon="1.7653514"><ele>348.0</ele><time>2026-04-25T09:10:05.918Z</time></trkpt><trkpt lat="41.7898231" lon="1.7652545"><ele>348.0</ele><time>2026-04-25T09:10:06.921Z</time></trkpt><trkpt lat="41.7898695" lon="1.7651835"><ele>348.0</ele><time>2026-04-25T09:10:07.92Z</time></trkpt><trkpt lat="41.7899142" lon="1.7651176"><ele>348.0</ele><time>2026-04-25T09:10:08.921Z</time></trkpt><trkpt lat="41.7900239" lon="1.7650381"><ele>347.8333333333333</ele><time>2026-04-25T09:10:10.92Z</time></trkpt><trkpt lat="41.7900926" lon="1.7650531"><ele>347.6666666666667</ele><time>2026-04-25T09:10:11.918Z</time></trkpt><trkpt lat="41.7901446" lon="1.7651123"><ele>347.5</ele><time>2026-04-25T09:10:12.921Z</time></trkpt><trkpt lat="41.7901807" lon="1.765225"><ele>347.33333333333337</ele><time>2026-04-25T09:10:13.919Z</time></trkpt><trkpt lat="41.7902019" lon="1.7653619"><ele>347.1666666666667</ele><time>2026-04-25T09:10:14.919Z</time></trkpt><trkpt lat="41.7902194" lon="1.765501"><ele>347.0</ele><time>2026-04-25T09:10:15.921Z</time></trkpt><trkpt lat="41.7902396" lon="1.7656664"><ele>348.0</ele><time>2026-04-25T09:10:16.919Z</time></trkpt><trkpt lat="41.7902678" lon="1.765816"><ele>349.0</ele><time>2026-04-25T09:10:17.92Z</time></trkpt><trkpt lat="41.7903177" lon="1.7659427"><ele>350.0</ele><time>2026-04-25T09:10:18.92Z</time></trkpt><trkpt lat="41.7903905" lon="1.7660292"><ele>351.0</ele><time>2026-04-25T09:10:19.921Z</time></trkpt><trkpt lat="41.7904774" lon="1.7660611"><ele>352.0</ele><time>2026-04-25T09:10:20.92Z</time></trkpt><trkpt lat="41.7905845" lon="1.7660355"><ele>352.0</ele><time>2026-04-25T09:10:21.917Z</time></trkpt><trkpt lat="41.7906817" lon="1.7659618"><ele>352.0</ele><time>2026-04-25T09:10:22.921Z</time></trkpt><trkpt lat="41.7907676" lon="1.7658598"><ele>352.0</ele><time>2026-04-25T09:10:23.92Z</time></trkpt><trkpt lat="41.7908452" lon="1.7657058"><ele>352.0</ele><time>2026-04-25T09:10:24.919Z</time></trkpt><trkpt lat="41.7908977" lon="1.7655423"><ele>352.0</ele><time>2026-04-25T09:10:25.92Z</time></trkpt><trkpt lat="41.7909498" lon="1.7653378"><ele>352.0</ele><time>2026-04-25T09:10:26.919Z</time></trkpt><trkpt lat="41.7909903" lon="1.7651402"><ele>352.0</ele><time>2026-04-25T09:10:27.919Z</time></trkpt><trkpt lat="41.791008" lon="1.7649581"><ele>354.75</ele><time>2026-04-25T09:10:28.921Z</time></trkpt><trkpt lat="41.7909984" lon="1.7647695"><ele>357.5</ele><time>2026-04-25T09:10:29.918Z</time></trkpt><trkpt lat="41.7909933" lon="1.7645956"><ele>360.25</ele><time>2026-04-25T09:10:30.922Z</time></trkpt><trkpt lat="41.791007" lon="1.7644457"><ele>363.0</ele><time>2026-04-25T09:10:31.921Z</time></trkpt><trkpt lat="41.7910617" lon="1.7643086"><ele>368.75</ele><time>2026-04-25T09:10:32.919Z</time></trkpt><trkpt lat="41.7911487" lon="1.7642223"><ele>374.5</ele><time>2026-04-25T09:10:33.919Z</time></trkpt><trkpt lat="41.7912576" lon="1.7641699"><ele>380.25</ele><time>2026-04-25T09:10:34.919Z</time></trkpt><trkpt lat="41.7913628" lon="1.7640924"><ele>386.0</ele><time>2026-04-25T09:10:35.919Z</time></trkpt><trkpt lat="41.7914492" lon="1.7639811"><ele>386.0</ele><time>2026-04-25T09:10:36.919Z</time></trkpt><trkpt lat="41.7915336" lon="1.7638224"><ele>386.0</ele><time>2026-04-25T09:10:37.919Z</time></trkpt><trkpt lat="41.791614" lon="1.7636555"><ele>386.0</ele><time>2026-04-25T09:10:38.919Z</time></trkpt><trkpt lat="41.7916885" lon="1.7635012"><ele>386.0</ele><time>2026-04-25T09:10:39.92Z</time></trkpt><trkpt lat="41.7917846" lon="1.763342"><ele>391.75</ele><time>2026-04-25T09:10:40.919Z</time></trkpt><trkpt lat="41.7918891" lon="1.7632332"><ele>397.5</ele><time>2026-04-25T09:10:41.92Z</time></trkpt><trkpt lat="41.7920198" lon="1.7631356"><ele>403.25</ele><time>2026-04-25T09:10:42.919Z</time></trkpt><trkpt lat="41.792137" lon="1.7630688"><ele>409.0</ele><time>2026-04-25T09:10:43.921Z</time></trkpt><trkpt lat="41.792234" lon="1.7630104"><ele>409.0</ele><time>2026-04-25T09:10:44.92Z</time></trkpt><trkpt lat="41.792325" lon="1.7629238"><ele>409.0</ele><time>2026-04-25T09:10:45.92Z</time></trkpt><trkpt lat="41.7923782" lon="1.7628122"><ele>409.0</ele><time>2026-04-25T09:10:46.92Z</time></trkpt><trkpt lat="41.7923843" lon="1.7626907"><ele>409.0</ele><time>2026-04-25T09:10:47.921Z</time></trkpt><trkpt lat="41.7923461" lon="1.7625374"><ele>409.0</ele><time>2026-04-25T09:10:48.92Z</time></trkpt><trkpt lat="41.7922856" lon="1.7623833"><ele>407.5</ele><time>2026-04-25T09:10:49.921Z</time></trkpt><trkpt lat="41.7922163" lon="1.7622152"><ele>406.0</ele><time>2026-04-25T09:10:50.921Z</time></trkpt><trkpt lat="41.7921495" lon="1.7620443"><ele>404.5</ele><time>2026-04-25T09:10:51.921Z</time></trkpt><trkpt lat="41.7920992" lon="1.7618841"><ele>403.0</ele><time>2026-04-25T09:10:52.924Z</time></trkpt><trkpt lat="41.7920669" lon="1.7616958"><ele>403.0</ele><time>2026-04-25T09:10:53.919Z</time></trkpt><trkpt lat="41.7920739" lon="1.7615122"><ele>403.0</ele><time>2026-04-25T09:10:54.92Z</time></trkpt><trkpt lat="41.7921134" lon="1.7613485"><ele>403.0</ele><time>2026-04-25T09:10:55.92Z</time></trkpt><trkpt lat="41.7921839" lon="1.7611895"><ele>403.0</ele><time>2026-04-25T09:10:56.921Z</time></trkpt><trkpt lat="41.7922541" lon="1.7610809"><ele>401.0</ele><time>2026-04-25T09:10:57.92Z</time></trkpt><trkpt lat="41.7923385" lon="1.7609889"><ele>399.0</ele><time>2026-04-25T09:10:58.919Z</time></trkpt><trkpt lat="41.7924274" lon="1.760927"><ele>397.0</ele><time>2026-04-25T09:10:59.919Z</time></trkpt><trkpt lat="41.7925215" lon="1.7608915"><ele>395.0</ele><time>2026-04-25T09:11:00.917Z</time></trkpt><trkpt lat="41.7926411" lon="1.7608906"><ele>393.0</ele><time>2026-04-25T09:11:01.92Z</time></trkpt><trkpt lat="41.7927608" lon="1.7609332"><ele>393.0</ele><time>2026-04-25T09:11:02.921Z</time></trkpt><trkpt lat="41.7928752" lon="1.7609971"><ele>393.0</ele><time>2026-04-25T09:11:03.919Z</time></trkpt><trkpt lat="41.7930064" lon="1.7610673"><ele>393.0</ele><time>2026-04-25T09:11:04.919Z</time></trkpt><trkpt lat="41.7931269" lon="1.7611085"><ele>393.0</ele><time>2026-04-25T09:11:05.92Z</time></trkpt><trkpt lat="41.7932387" lon="1.7611276"><ele>397.0</ele><time>2026-04-25T09:11:06.918Z</time></trkpt><trkpt lat="41.7933428" lon="1.7611361"><ele>401.0</ele><time>2026-04-25T09:11:07.92Z</time></trkpt><trkpt lat="41.7934303" lon="1.7611186"><ele>405.0</ele><time>2026-04-25T09:11:08.919Z</time></trkpt><trkpt lat="41.793509" lon="1.7610527"><ele>409.0</ele><time>2026-04-25T09:11:09.919Z</time></trkpt><trkpt lat="41.7935456" lon="1.7609421"><ele>413.0</ele><time>2026-04-25T09:11:10.921Z</time></trkpt><trkpt lat="41.7935427" lon="1.7608112"><ele>414.75</ele><time>2026-04-25T09:11:11.921Z</time></trkpt><trkpt lat="41.7935131" lon="1.7606404"><ele>416.5</ele><time>2026-04-25T09:11:12.919Z</time></trkpt><trkpt lat="41.7934918" lon="1.7604794"><ele>418.25</ele><time>2026-04-25T09:11:13.922Z</time></trkpt><trkpt lat="41.793488" lon="1.7602854"><ele>420.0</ele><time>2026-04-25T09:11:14.921Z</time></trkpt><trkpt lat="41.7935111" lon="1.760109"><ele>416.0</ele><time>2026-04-25T09:11:15.921Z</time></trkpt><trkpt lat="41.7935638" lon="1.7599655"><ele>412.0</ele><time>2026-04-25T09:11:16.92Z</time></trkpt><trkpt lat="41.7936626" lon="1.7598394"><ele>408.0</ele><time>2026-04-25T09:11:17.919Z</time></trkpt><trkpt lat="41.7937809" lon="1.7597789"><ele>404.0</ele><time>2026-04-25T09:11:18.92Z</time></trkpt><trkpt lat="41.7939083" lon="1.7597591"><ele>404.0</ele><time>2026-04-25T09:11:19.919Z</time></trkpt><trkpt lat="41.7940638" lon="1.7597537"><ele>404.0</ele><time>2026-04-25T09:11:20.923Z</time></trkpt><trkpt lat="41.7942041" lon="1.7597515"><ele>404.0</ele><time>2026-04-25T09:11:21.92Z</time></trkpt><trkpt lat="41.794336" lon="1.759732"><ele>404.0</ele><time>2026-04-25T09:11:22.918Z</time></trkpt><trkpt lat="41.7944522" lon="1.7596686"><ele>406.25</ele><time>2026-04-25T09:11:23.92Z</time></trkpt><trkpt lat="41.7945416" lon="1.7595562"><ele>408.5</ele><time>2026-04-25T09:11:24.921Z</time></trkpt><trkpt lat="41.7946282" lon="1.7593927"><ele>410.75</ele><time>2026-04-25T09:11:25.921Z</time></trkpt><trkpt lat="41.7947103" lon="1.7592274"><ele>413.0</ele><time>2026-04-25T09:11:26.921Z</time></trkpt><trkpt lat="41.7947973" lon="1.7590787"><ele>413.0</ele><time>2026-04-25T09:11:27.921Z</time></trkpt><trkpt lat="41.7949134" lon="1.7589342"><ele>413.0</ele><time>2026-04-25T09:11:28.919Z</time></trkpt><trkpt lat="41.7950298" lon="1.7588331"><ele>413.0</ele><time>2026-04-25T09:11:29.919Z</time></trkpt><trkpt lat="41.7951754" lon="1.7587498"><ele>419.0</ele><time>2026-04-25T09:11:30.921Z</time></trkpt><trkpt lat="41.7953243" lon="1.7587084"><ele>425.0</ele><time>2026-04-25T09:11:31.92Z</time></trkpt><trkpt lat="41.7954699" lon="1.7587002"><ele>431.0</ele><time>2026-04-25T09:11:32.92Z</time></trkpt><trkpt lat="41.7956367" lon="1.7587086"><ele>431.0</ele><time>2026-04-25T09:11:33.919Z</time></trkpt><trkpt lat="41.7957853" lon="1.7587203"><ele>431.0</ele><time>2026-04-25T09:11:34.92Z</time></trkpt><trkpt lat="41.7959162" lon="1.7587197"><ele>431.0</ele><time>2026-04-25T09:11:35.92Z</time></trkpt><trkpt lat="41.7960507" lon="1.7586851"><ele>431.0</ele><time>2026-04-25T09:11:36.921Z</time></trkpt><trkpt lat="41.796152" lon="1.7585967"><ele>431.25</ele><time>2026-04-25T09:11:37.919Z</time></trkpt><trkpt lat="41.7962318" lon="1.7584628"><ele>431.5</ele><time>2026-04-25T09:11:38.921Z</time></trkpt><trkpt lat="41.7962886" lon="1.7583117"><ele>431.75</ele><time>2026-04-25T09:11:39.92Z</time></trkpt><trkpt lat="41.7963469" lon="1.7581787"><ele>432.0</ele><time>2026-04-25T09:11:40.921Z</time></trkpt><trkpt lat="41.7964409" lon="1.7580663"><ele>432.0</ele><time>2026-04-25T09:11:41.919Z</time></trkpt><trkpt lat="41.7965622" lon="1.7579817"><ele>432.0</ele><time>2026-04-25T09:11:42.919Z</time></trkpt><trkpt lat="41.796692" lon="1.7578997"><ele>432.0</ele><time>2026-04-25T09:11:43.919Z</time></trkpt><trkpt lat="41.796841" lon="1.7577975"><ele>432.0</ele><time>2026-04-25T09:11:44.92Z</time></trkpt><trkpt lat="41.7969669" lon="1.7576826"><ele>432.0</ele><time>2026-04-25T09:11:45.918Z</time></trkpt><trkpt lat="41.7970884" lon="1.7575454"><ele>432.0</ele><time>2026-04-25T09:11:46.919Z</time></trkpt><trkpt lat="41.7972232" lon="1.7574136"><ele>432.0</ele><time>2026-04-25T09:11:47.919Z</time></trkpt><trkpt lat="41.7973596" lon="1.7573353"><ele>432.0</ele><time>2026-04-25T09:11:48.92Z</time></trkpt><trkpt lat="41.7975238" lon="1.7572795"><ele>432.0</ele><time>2026-04-25T09:11:49.921Z</time></trkpt><trkpt lat="41.7976681" lon="1.7572056"><ele>432.0</ele><time>2026-04-25T09:11:50.919Z</time></trkpt><trkpt lat="41.7977987" lon="1.7570895"><ele>432.0</ele><time>2026-04-25T09:11:51.919Z</time></trkpt><trkpt lat="41.7979341" lon="1.7569326"><ele>432.0</ele><time>2026-04-25T09:11:52.919Z</time></trkpt><trkpt lat="41.7980665" lon="1.7567945"><ele>432.0</ele><time>2026-04-25T09:11:53.922Z</time></trkpt><trkpt lat="41.7982119" lon="1.7566946"><ele>432.0</ele><time>2026-04-25T09:11:54.92Z</time></trkpt><trkpt lat="41.7983822" lon="1.7566197"><ele>432.0</ele><time>2026-04-25T09:11:55.92Z</time></trkpt><trkpt lat="41.7985495" lon="1.7565827"><ele>432.0</ele><time>2026-04-25T09:11:56.92Z</time></trkpt><trkpt lat="41.7987288" lon="1.7565735"><ele>435.0</ele><time>2026-04-25T09:11:57.918Z</time></trkpt><trkpt lat="41.7988842" lon="1.7565669"><ele>438.0</ele><time>2026-04-25T09:11:58.918Z</time></trkpt><trkpt lat="41.7990135" lon="1.7565529"><ele>441.0</ele><time>2026-04-25T09:11:59.92Z</time></trkpt><trkpt lat="41.7991415" lon="1.7565241"><ele>444.0</ele><time>2026-04-25T09:12:00.917Z</time></trkpt><trkpt lat="41.799233" lon="1.7564757"><ele>444.0</ele><time>2026-04-25T09:12:01.919Z</time></trkpt><trkpt lat="41.7993058" lon="1.7563906"><ele>444.0</ele><time>2026-04-25T09:12:02.92Z</time></trkpt><trkpt lat="41.7993387" lon="1.7562712"><ele>444.0</ele><time>2026-04-25T09:12:03.919Z</time></trkpt><trkpt lat="41.7993191" lon="1.7561671"><ele>444.0</ele><time>2026-04-25T09:12:04.921Z</time></trkpt><trkpt lat="41.799253" lon="1.7560687"><ele>444.0</ele><time>2026-04-25T09:12:05.92Z</time></trkpt><trkpt lat="41.7991673" lon="1.7559826"><ele>443.79999999999995</ele><time>2026-04-25T09:12:06.92Z</time></trkpt><trkpt lat="41.7990909" lon="1.755882"><ele>443.59999999999997</ele><time>2026-04-25T09:12:07.92Z</time></trkpt><trkpt lat="41.7990369" lon="1.7557458"><ele>443.4</ele><time>2026-04-25T09:12:08.921Z</time></trkpt><trkpt lat="41.7990363" lon="1.7556117"><ele>443.2</ele><time>2026-04-25T09:12:09.921Z</time></trkpt><trkpt lat="41.7990764" lon="1.7554875"><ele>443.0</ele><time>2026-04-25T09:12:10.92Z</time></trkpt><trkpt lat="41.7991503" lon="1.7553456"><ele>443.0</ele><time>2026-04-25T09:12:11.919Z</time></trkpt><trkpt lat="41.7992283" lon="1.7552144"><ele>443.0</ele><time>2026-04-25T09:12:12.919Z</time></trkpt><trkpt lat="41.799328" lon="1.7550589"><ele>443.0</ele><time>2026-04-25T09:12:13.92Z</time></trkpt><trkpt lat="41.7994389" lon="1.7549216"><ele>443.0</ele><time>2026-04-25T09:12:14.919Z</time></trkpt><trkpt lat="41.7995573" lon="1.7548153"><ele>448.0</ele><time>2026-04-25T09:12:15.921Z</time></trkpt><trkpt lat="41.7997048" lon="1.7547131"><ele>453.0</ele><time>2026-04-25T09:12:16.921Z</time></trkpt><trkpt lat="41.7998348" lon="1.7546273"><ele>458.0</ele><time>2026-04-25T09:12:17.92Z</time></trkpt><trkpt lat="41.799973" lon="1.7545048"><ele>460.66666666666663</ele><time>2026-04-25T09:12:18.92Z</time></trkpt><trkpt lat="41.8000823" lon="1.7543506"><ele>463.33333333333337</ele><time>2026-04-25T09:12:19.92Z</time></trkpt><trkpt lat="41.8001686" lon="1.7541805"><ele>466.0</ele><time>2026-04-25T09:12:20.92Z</time></trkpt><trkpt lat="41.80026" lon="1.7539797"><ele>466.0</ele><time>2026-04-25T09:12:21.92Z</time></trkpt><trkpt lat="41.8003514" lon="1.7538098"><ele>466.0</ele><time>2026-04-25T09:12:22.92Z</time></trkpt><trkpt lat="41.8004593" lon="1.7536789"><ele>466.0</ele><time>2026-04-25T09:12:23.919Z</time></trkpt><trkpt lat="41.8006036" lon="1.7535548"><ele>467.33333333333337</ele><time>2026-04-25T09:12:24.919Z</time></trkpt><trkpt lat="41.8007502" lon="1.7534376"><ele>468.66666666666663</ele><time>2026-04-25T09:12:25.922Z</time></trkpt><trkpt lat="41.8008939" lon="1.7533238"><ele>470.0</ele><time>2026-04-25T09:12:26.919Z</time></trkpt><trkpt lat="41.8010612" lon="1.753187"><ele>470.0</ele><time>2026-04-25T09:12:27.92Z</time></trkpt><trkpt lat="41.8012042" lon="1.7530529"><ele>470.0</ele><time>2026-04-25T09:12:28.92Z</time></trkpt><trkpt lat="41.8013538" lon="1.7528736"><ele>470.0</ele><time>2026-04-25T09:12:29.919Z</time></trkpt><trkpt lat="41.8014766" lon="1.7526892"><ele>469.0</ele><time>2026-04-25T09:12:30.92Z</time></trkpt><trkpt lat="41.801584" lon="1.7525065"><ele>468.0</ele><time>2026-04-25T09:12:31.921Z</time></trkpt><trkpt lat="41.8016926" lon="1.7522953"><ele>467.0</ele><time>2026-04-25T09:12:32.921Z</time></trkpt><trkpt lat="41.8017682" lon="1.752099"><ele>466.66666666666663</ele><time>2026-04-25T09:12:33.921Z</time></trkpt><trkpt lat="41.801829" lon="1.7518628"><ele>466.33333333333337</ele><time>2026-04-25T09:12:34.921Z</time></trkpt><trkpt lat="41.8018731" lon="1.7516282"><ele>466.0</ele><time>2026-04-25T09:12:35.92Z</time></trkpt><trkpt lat="41.8019087" lon="1.7514106"><ele>465.0</ele><time>2026-04-25T09:12:36.92Z</time></trkpt><trkpt lat="41.8019463" lon="1.7511802"><ele>464.0</ele><time>2026-04-25T09:12:37.92Z</time></trkpt><trkpt lat="41.8019782" lon="1.7509935"><ele>463.0</ele><time>2026-04-25T09:12:38.92Z</time></trkpt><trkpt lat="41.8019996" lon="1.7508444"><ele>462.0</ele><time>2026-04-25T09:12:39.919Z</time></trkpt><trkpt lat="41.8020046" lon="1.7506882"><ele>461.40000000000003</ele><time>2026-04-25T09:12:40.921Z</time></trkpt><trkpt lat="41.8019807" lon="1.7505444"><ele>460.80000000000007</ele><time>2026-04-25T09:12:41.918Z</time></trkpt><trkpt lat="41.8019244" lon="1.7504196"><ele>460.2</ele><time>2026-04-25T09:12:42.921Z</time></trkpt><trkpt lat="41.8018429" lon="1.750335"><ele>459.6</ele><time>2026-04-25T09:12:43.919Z</time></trkpt><trkpt lat="41.8017535" lon="1.7503058"><ele>459.0</ele><time>2026-04-25T09:12:44.919Z</time></trkpt><trkpt lat="41.8016565" lon="1.750337"><ele>462.25</ele><time>2026-04-25T09:12:45.919Z</time></trkpt><trkpt lat="41.8015737" lon="1.7504209"><ele>465.5</ele><time>2026-04-25T09:12:46.921Z</time></trkpt><trkpt lat="41.801501" lon="1.7505305"><ele>468.75</ele><time>2026-04-25T09:12:47.921Z</time></trkpt><trkpt lat="41.8014141" lon="1.7506776"><ele>472.0</ele><time>2026-04-25T09:12:48.92Z</time></trkpt><trkpt lat="41.8013302" lon="1.7508058"><ele>472.0</ele><time>2026-04-25T09:12:49.919Z</time></trkpt><trkpt lat="41.8012343" lon="1.7509358"><ele>472.0</ele><time>2026-04-25T09:12:50.921Z</time></trkpt><trkpt lat="41.8011362" lon="1.7510607"><ele>472.0</ele><time>2026-04-25T09:12:51.921Z</time></trkpt><trkpt lat="41.8010593" lon="1.7511532"><ele>472.0</ele><time>2026-04-25T09:12:52.919Z</time></trkpt><trkpt lat="41.8009806" lon="1.7512241"><ele>472.00000000000006</ele><time>2026-04-25T09:12:53.919Z</time></trkpt><trkpt lat="41.8009122" lon="1.7512413"><ele>472.0</ele><time>2026-04-25T09:12:54.921Z</time></trkpt><trkpt lat="41.8008375" lon="1.7511346"><ele>472.0</ele><time>2026-04-25T09:12:56.92Z</time></trkpt><trkpt lat="41.8008551" lon="1.7510445"><ele>472.0</ele><time>2026-04-25T09:12:57.92Z</time></trkpt><trkpt lat="41.8009043" lon="1.7509597"><ele>472.00000000000006</ele><time>2026-04-25T09:12:58.921Z</time></trkpt><trkpt lat="41.8009792" lon="1.7508507"><ele>472.0</ele><time>2026-04-25T09:12:59.919Z</time></trkpt><trkpt lat="41.8010479" lon="1.7507414"><ele>472.0</ele><time>2026-04-25T09:13:00.92Z</time></trkpt><trkpt lat="41.8011254" lon="1.7505973"><ele>472.0</ele><time>2026-04-25T09:13:01.921Z</time></trkpt><trkpt lat="41.8011875" lon="1.7504387"><ele>472.0</ele><time>2026-04-25T09:13:02.919Z</time></trkpt><trkpt lat="41.801226" lon="1.7502681"><ele>472.0</ele><time>2026-04-25T09:13:03.921Z</time></trkpt><trkpt lat="41.8012515" lon="1.7500497"><ele>475.33333333333337</ele><time>2026-04-25T09:13:04.921Z</time></trkpt><trkpt lat="41.8012651" lon="1.7498452"><ele>478.66666666666663</ele><time>2026-04-25T09:13:05.92Z</time></trkpt><trkpt lat="41.8012759" lon="1.749619"><ele>482.0</ele><time>2026-04-25T09:13:06.919Z</time></trkpt><trkpt lat="41.8012895" lon="1.7493726"><ele>484.0</ele><time>2026-04-25T09:13:07.92Z</time></trkpt><trkpt lat="41.801309" lon="1.7491561"><ele>486.0</ele><time>2026-04-25T09:13:08.921Z</time></trkpt><trkpt lat="41.8013378" lon="1.7489157"><ele>488.0</ele><time>2026-04-25T09:13:09.92Z</time></trkpt><trkpt lat="41.8013667" lon="1.7487045"><ele>490.25</ele><time>2026-04-25T09:13:10.92Z</time></trkpt><trkpt lat="41.8013925" lon="1.7485254"><ele>492.5</ele><time>2026-04-25T09:13:11.921Z</time></trkpt><trkpt lat="41.8014195" lon="1.748347"><ele>494.75</ele><time>2026-04-25T09:13:12.919Z</time></trkpt><trkpt lat="41.8014613" lon="1.7482021"><ele>497.0</ele><time>2026-04-25T09:13:13.921Z</time></trkpt><trkpt lat="41.8015313" lon="1.7480923"><ele>497.0</ele><time>2026-04-25T09:13:14.92Z</time></trkpt><trkpt lat="41.8016455" lon="1.7480092"><ele>497.0</ele><time>2026-04-25T09:13:15.919Z</time></trkpt><trkpt lat="41.8017586" lon="1.7479636"><ele>497.0</ele><time>2026-04-25T09:13:16.92Z</time></trkpt><trkpt lat="41.801879" lon="1.7479191"><ele>497.0</ele><time>2026-04-25T09:13:17.92Z</time></trkpt><trkpt lat="41.8019697" lon="1.7478653"><ele>493.20000000000005</ele><time>2026-04-25T09:13:18.921Z</time></trkpt><trkpt lat="41.8020383" lon="1.7477841"><ele>489.40000000000003</ele><time>2026-04-25T09:13:19.919Z</time></trkpt><trkpt lat="41.8020873" lon="1.7476549"><ele>485.59999999999997</ele><time>2026-04-25T09:13:20.919Z</time></trkpt><trkpt lat="41.8020971" lon="1.7475389"><ele>481.79999999999995</ele><time>2026-04-25T09:13:21.921Z</time></trkpt><trkpt lat="41.8020667" lon="1.7474252"><ele>478.0</ele><time>2026-04-25T09:13:22.918Z</time></trkpt><trkpt lat="41.8019888" lon="1.7473326"><ele>478.0</ele><time>2026-04-25T09:13:23.921Z</time></trkpt><trkpt lat="41.8018903" lon="1.7472686"><ele>478.0</ele><time>2026-04-25T09:13:24.919Z</time></trkpt><trkpt lat="41.8017633" lon="1.7471999"><ele>478.0</ele><time>2026-04-25T09:13:25.919Z</time></trkpt><trkpt lat="41.8016344" lon="1.747126"><ele>478.0</ele><time>2026-04-25T09:13:26.921Z</time></trkpt><trkpt lat="41.8015126" lon="1.7470382"><ele>481.0</ele><time>2026-04-25T09:13:27.921Z</time></trkpt><trkpt lat="41.8013765" lon="1.7469173"><ele>484.0</ele><time>2026-04-25T09:13:28.921Z</time></trkpt><trkpt lat="41.8012557" lon="1.7467919"><ele>487.0</ele><time>2026-04-25T09:13:29.922Z</time></trkpt><trkpt lat="41.8011536" lon="1.7466699"><ele>487.0</ele><time>2026-04-25T09:13:30.921Z</time></trkpt><trkpt lat="41.801064" lon="1.7465172"><ele>487.0</ele><time>2026-04-25T09:13:31.921Z</time></trkpt><trkpt lat="41.8010174" lon="1.7463598"><ele>487.0</ele><time>2026-04-25T09:13:32.919Z</time></trkpt><trkpt lat="41.8010108" lon="1.7461617"><ele>487.0</ele><time>2026-04-25T09:13:33.92Z</time></trkpt><trkpt lat="41.8010369" lon="1.7459625"><ele>484.6666666666667</ele><time>2026-04-25T09:13:34.92Z</time></trkpt><trkpt lat="41.8010697" lon="1.7457715"><ele>482.33333333333337</ele><time>2026-04-25T09:13:35.921Z</time></trkpt><trkpt lat="41.8011116" lon="1.7455429"><ele>480.0</ele><time>2026-04-25T09:13:36.921Z</time></trkpt><trkpt lat="41.8011576" lon="1.7453415"><ele>485.66666666666663</ele><time>2026-04-25T09:13:37.924Z</time></trkpt><trkpt lat="41.8012257" lon="1.7451426"><ele>491.3333333333333</ele><time>2026-04-25T09:13:38.921Z</time></trkpt><trkpt lat="41.801309" lon="1.7449522"><ele>497.0</ele><time>2026-04-25T09:13:39.92Z</time></trkpt><trkpt lat="41.801374" lon="1.7447845"><ele>497.0</ele><time>2026-04-25T09:13:40.918Z</time></trkpt><trkpt lat="41.8014248" lon="1.7445754"><ele>497.0</ele><time>2026-04-25T09:13:41.92Z</time></trkpt><trkpt lat="41.8014459" lon="1.7443572"><ele>497.0</ele><time>2026-04-25T09:13:42.92Z</time></trkpt><trkpt lat="41.8014494" lon="1.744138"><ele>499.3333333333333</ele><time>2026-04-25T09:13:43.92Z</time></trkpt><trkpt lat="41.8014463" lon="1.7438749"><ele>501.66666666666663</ele><time>2026-04-25T09:13:44.919Z</time></trkpt><trkpt lat="41.8014445" lon="1.7436139"><ele>504.0</ele><time>2026-04-25T09:13:45.919Z</time></trkpt><trkpt lat="41.8014448" lon="1.7433626"><ele>504.0</ele><time>2026-04-25T09:13:46.92Z</time></trkpt><trkpt lat="41.8014454" lon="1.7430747"><ele>504.0</ele><time>2026-04-25T09:13:47.919Z</time></trkpt><trkpt lat="41.8014465" lon="1.7428239"><ele>504.0</ele><time>2026-04-25T09:13:48.921Z</time></trkpt><trkpt lat="41.8014484" lon="1.7425401"><ele>504.0</ele><time>2026-04-25T09:13:49.92Z</time></trkpt><trkpt lat="41.8014496" lon="1.7422776"><ele>504.0</ele><time>2026-04-25T09:13:50.92Z</time></trkpt><trkpt lat="41.8014455" lon="1.7420349"><ele>504.0</ele><time>2026-04-25T09:13:51.92Z</time></trkpt><trkpt lat="41.8014211" lon="1.7417605"><ele>502.66666666666663</ele><time>2026-04-25T09:13:52.919Z</time></trkpt><trkpt lat="41.8013737" lon="1.7415195"><ele>501.3333333333333</ele><time>2026-04-25T09:13:53.919Z</time></trkpt><trkpt lat="41.8013033" lon="1.7412648"><ele>500.0</ele><time>2026-04-25T09:13:54.92Z</time></trkpt><trkpt lat="41.8012147" lon="1.7409989"><ele>498.0</ele><time>2026-04-25T09:13:55.919Z</time></trkpt><trkpt lat="41.8011302" lon="1.7407833"><ele>496.0</ele><time>2026-04-25T09:13:56.919Z</time></trkpt><trkpt lat="41.8010195" lon="1.7405796"><ele>494.0</ele><time>2026-04-25T09:13:57.921Z</time></trkpt><trkpt lat="41.8009043" lon="1.7404184"><ele>500.66666666666663</ele><time>2026-04-25T09:13:58.921Z</time></trkpt><trkpt lat="41.8008117" lon="1.7402606"><ele>507.33333333333337</ele><time>2026-04-25T09:13:59.919Z</time></trkpt><trkpt lat="41.8007347" lon="1.7400554"><ele>514.0</ele><time>2026-04-25T09:14:00.92Z</time></trkpt><trkpt lat="41.8006959" lon="1.7398449"><ele>516.0</ele><time>2026-04-25T09:14:01.921Z</time></trkpt><trkpt lat="41.8006806" lon="1.7396266"><ele>518.0</ele><time>2026-04-25T09:14:02.921Z</time></trkpt><trkpt lat="41.8006762" lon="1.7393701"><ele>520.0</ele><time>2026-04-25T09:14:03.92Z</time></trkpt><trkpt lat="41.8006761" lon="1.7391446"><ele>520.0</ele><time>2026-04-25T09:14:04.922Z</time></trkpt><trkpt lat="41.8006861" lon="1.7388901"><ele>520.0</ele><time>2026-04-25T09:14:05.919Z</time></trkpt><trkpt lat="41.8007202" lon="1.7386515"><ele>520.0</ele><time>2026-04-25T09:14:06.92Z</time></trkpt><trkpt lat="41.800774" lon="1.7384256"><ele>521.0</ele><time>2026-04-25T09:14:07.92Z</time></trkpt><trkpt lat="41.8008474" lon="1.738162"><ele>522.0</ele><time>2026-04-25T09:14:08.92Z</time></trkpt><trkpt lat="41.8009132" lon="1.7379264"><ele>523.0</ele><time>2026-04-25T09:14:09.921Z</time></trkpt><trkpt lat="41.800984" lon="1.7376733"><ele>516.3333333333334</ele><time>2026-04-25T09:14:10.92Z</time></trkpt><trkpt lat="41.8010531" lon="1.737406"><ele>509.66666666666663</ele><time>2026-04-25T09:14:11.921Z</time></trkpt><trkpt lat="41.8011024" lon="1.7371684"><ele>503.0</ele><time>2026-04-25T09:14:12.919Z</time></trkpt><trkpt lat="41.801149" lon="1.7368936"><ele>507.66666666666663</ele><time>2026-04-25T09:14:13.92Z</time></trkpt><trkpt lat="41.8012009" lon="1.7366458"><ele>512.3333333333334</ele><time>2026-04-25T09:14:14.921Z</time></trkpt><trkpt lat="41.8012584" lon="1.7364357"><ele>517.0</ele><time>2026-04-25T09:14:15.919Z</time></trkpt><trkpt lat="41.8013294" lon="1.736215"><ele>520.6666666666667</ele><time>2026-04-25T09:14:16.92Z</time></trkpt><trkpt lat="41.8013814" lon="1.7360173"><ele>524.3333333333334</ele><time>2026-04-25T09:14:17.922Z</time></trkpt><trkpt lat="41.8014015" lon="1.735828"><ele>528.0</ele><time>2026-04-25T09:14:18.92Z</time></trkpt><trkpt lat="41.8013891" lon="1.7355996"><ele>528.0</ele><time>2026-04-25T09:14:19.921Z</time></trkpt><trkpt lat="41.8013665" lon="1.7353846"><ele>528.0</ele><time>2026-04-25T09:14:20.919Z</time></trkpt><trkpt lat="41.8013537" lon="1.7351305"><ele>528.0</ele><time>2026-04-25T09:14:21.921Z</time></trkpt><trkpt lat="41.8013435" lon="1.7348856"><ele>528.0</ele><time>2026-04-25T09:14:22.92Z</time></trkpt><trkpt lat="41.8013114" lon="1.7346563"><ele>528.0</ele><time>2026-04-25T09:14:23.917Z</time></trkpt><trkpt lat="41.8012554" lon="1.7343944"><ele>528.0</ele><time>2026-04-25T09:14:24.918Z</time></trkpt><trkpt lat="41.8012029" lon="1.7341644"><ele>527.3333333333334</ele><time>2026-04-25T09:14:25.917Z</time></trkpt><trkpt lat="41.8011692" lon="1.733923"><ele>526.6666666666667</ele><time>2026-04-25T09:14:26.92Z</time></trkpt><trkpt lat="41.8011546" lon="1.733672"><ele>526.0</ele><time>2026-04-25T09:14:27.92Z</time></trkpt><trkpt lat="41.8011334" lon="1.7334547"><ele>522.0</ele><time>2026-04-25T09:14:28.92Z</time></trkpt><trkpt lat="41.8010746" lon="1.7332153"><ele>518.0</ele><time>2026-04-25T09:14:29.921Z</time></trkpt><trkpt lat="41.8009918" lon="1.7330007"><ele>514.0</ele><time>2026-04-25T09:14:30.92Z</time></trkpt><trkpt lat="41.8009078" lon="1.7327988"><ele>525.0</ele><time>2026-04-25T09:14:31.92Z</time></trkpt><trkpt lat="41.8008301" lon="1.7325532"><ele>536.0</ele><time>2026-04-25T09:14:32.919Z</time></trkpt><trkpt lat="41.8007837" lon="1.7323065"><ele>547.0</ele><time>2026-04-25T09:14:33.919Z</time></trkpt><trkpt lat="41.8007632" lon="1.7320714"><ele>547.3333333333334</ele><time>2026-04-25T09:14:34.92Z</time></trkpt><trkpt lat="41.8007685" lon="1.7318098"><ele>547.6666666666666</ele><time>2026-04-25T09:14:35.921Z</time></trkpt><trkpt lat="41.8007939" lon="1.7315889"><ele>548.0</ele><time>2026-04-25T09:14:36.921Z</time></trkpt><trkpt lat="41.800828" lon="1.7313486"><ele>548.0</ele><time>2026-04-25T09:14:37.923Z</time></trkpt><trkpt lat="41.8008474" lon="1.7311257"><ele>548.0</ele><time>2026-04-25T09:14:38.919Z</time></trkpt><trkpt lat="41.8008485" lon="1.7309172"><ele>548.0</ele><time>2026-04-25T09:14:39.919Z</time></trkpt><trkpt lat="41.8008296" lon="1.7306847"><ele>548.75</ele><time>2026-04-25T09:14:40.919Z</time></trkpt><trkpt lat="41.8008062" lon="1.7304916"><ele>549.5</ele><time>2026-04-25T09:14:41.919Z</time></trkpt><trkpt lat="41.800797" lon="1.7302985"><ele>550.25</ele><time>2026-04-25T09:14:42.921Z</time></trkpt><trkpt lat="41.8008151" lon="1.7300994"><ele>551.0</ele><time>2026-04-25T09:14:43.921Z</time></trkpt><trkpt lat="41.8008524" lon="1.7299222"><ele>551.6666666666666</ele><time>2026-04-25T09:14:44.922Z</time></trkpt><trkpt lat="41.8009057" lon="1.7297097"><ele>552.3333333333334</ele><time>2026-04-25T09:14:45.92Z</time></trkpt><trkpt lat="41.8009409" lon="1.7294992"><ele>553.0</ele><time>2026-04-25T09:14:46.918Z</time></trkpt><trkpt lat="41.8009512" lon="1.7292918"><ele>554.0</ele><time>2026-04-25T09:14:47.92Z</time></trkpt><trkpt lat="41.8009525" lon="1.7290543"><ele>555.0</ele><time>2026-04-25T09:14:48.918Z</time></trkpt><trkpt lat="41.8009711" lon="1.7288469"><ele>556.0</ele><time>2026-04-25T09:14:49.921Z</time></trkpt><trkpt lat="41.8009959" lon="1.7286647"><ele>555.5</ele><time>2026-04-25T09:14:50.921Z</time></trkpt><trkpt lat="41.8010017" lon="1.7284597"><ele>555.0</ele><time>2026-04-25T09:14:51.92Z</time></trkpt><trkpt lat="41.8009741" lon="1.7282755"><ele>554.5</ele><time>2026-04-25T09:14:52.92Z</time></trkpt><trkpt lat="41.8009307" lon="1.7280868"><ele>554.0</ele><time>2026-04-25T09:14:53.92Z</time></trkpt><trkpt lat="41.8009039" lon="1.7278961"><ele>553.5</ele><time>2026-04-25T09:14:54.92Z</time></trkpt><trkpt lat="41.8009112" lon="1.7277264"><ele>553.0</ele><time>2026-04-25T09:14:55.919Z</time></trkpt><trkpt lat="41.8009666" lon="1.7275323"><ele>552.5</ele><time>2026-04-25T09:14:56.92Z</time></trkpt><trkpt lat="41.8010364" lon="1.7273531"><ele>552.0</ele><time>2026-04-25T09:14:57.92Z</time></trkpt><trkpt lat="41.8011075" lon="1.7271614"><ele>546.6666666666666</ele><time>2026-04-25T09:14:58.921Z</time></trkpt><trkpt lat="41.8011729" lon="1.7269576"><ele>541.3333333333333</ele><time>2026-04-25T09:14:59.921Z</time></trkpt><trkpt lat="41.801208" lon="1.7267789"><ele>536.0</ele><time>2026-04-25T09:15:00.92Z</time></trkpt><trkpt lat="41.8012129" lon="1.7265712"><ele>536.0</ele><time>2026-04-25T09:15:01.92Z</time></trkpt><trkpt lat="41.8011947" lon="1.7263648"><ele>536.0</ele><time>2026-04-25T09:15:02.926Z</time></trkpt><trkpt lat="41.8011718" lon="1.7261589"><ele>536.0</ele><time>2026-04-25T09:15:03.92Z</time></trkpt><trkpt lat="41.8011478" lon="1.7259115"><ele>540.6666666666666</ele><time>2026-04-25T09:15:04.919Z</time></trkpt><trkpt lat="41.8011267" lon="1.7256701"><ele>545.3333333333334</ele><time>2026-04-25T09:15:05.918Z</time></trkpt><trkpt lat="41.8011062" lon="1.7254435"><ele>550.0</ele><time>2026-04-25T09:15:06.92Z</time></trkpt><trkpt lat="41.8010822" lon="1.7251856"><ele>552.3333333333334</ele><time>2026-04-25T09:15:07.919Z</time></trkpt><trkpt lat="41.8010656" lon="1.7249614"><ele>554.6666666666666</ele><time>2026-04-25T09:15:08.921Z</time></trkpt><trkpt lat="41.8010612" lon="1.7247113"><ele>557.0</ele><time>2026-04-25T09:15:09.92Z</time></trkpt><trkpt lat="41.8010785" lon="1.724476"><ele>559.6666666666666</ele><time>2026-04-25T09:15:10.92Z</time></trkpt><trkpt lat="41.8011107" lon="1.7242566"><ele>562.3333333333334</ele><time>2026-04-25T09:15:11.919Z</time></trkpt><trkpt lat="41.8011617" lon="1.7240168"><ele>565.0</ele><time>2026-04-25T09:15:12.919Z</time></trkpt><trkpt lat="41.8012164" lon="1.7238226"><ele>565.0</ele><time>2026-04-25T09:15:13.919Z</time></trkpt><trkpt lat="41.8012859" lon="1.7236365"><ele>565.0</ele><time>2026-04-25T09:15:14.919Z</time></trkpt><trkpt lat="41.8013655" lon="1.7234646"><ele>565.0</ele><time>2026-04-25T09:15:15.922Z</time></trkpt><trkpt lat="41.8014182" lon="1.7233161"><ele>565.0</ele><time>2026-04-25T09:15:16.919Z</time></trkpt><trkpt lat="41.8014401" lon="1.7231399"><ele>565.3333333333334</ele><time>2026-04-25T09:15:17.919Z</time></trkpt><trkpt lat="41.8014207" lon="1.7229381"><ele>565.6666666666666</ele><time>2026-04-25T09:15:18.919Z</time></trkpt><trkpt lat="41.8013872" lon="1.7227448"><ele>566.0</ele><time>2026-04-25T09:15:19.92Z</time></trkpt><trkpt lat="41.8013404" lon="1.7225176"><ele>566.0</ele><time>2026-04-25T09:15:20.92Z</time></trkpt><trkpt lat="41.8012974" lon="1.722308"><ele>566.0</ele><time>2026-04-25T09:15:21.92Z</time></trkpt><trkpt lat="41.801257" lon="1.7221168"><ele>566.0</ele><time>2026-04-25T09:15:22.921Z</time></trkpt><trkpt lat="41.8012149" lon="1.7219164"><ele>566.2</ele><time>2026-04-25T09:15:23.92Z</time></trkpt><trkpt lat="41.8011817" lon="1.7217568"><ele>566.4000000000001</ele><time>2026-04-25T09:15:24.921Z</time></trkpt><trkpt lat="41.8011541" lon="1.7216011"><ele>566.6</ele><time>2026-04-25T09:15:25.919Z</time></trkpt><trkpt lat="41.8011527" lon="1.7214689"><ele>566.8000000000001</ele><time>2026-04-25T09:15:26.92Z</time></trkpt><trkpt lat="41.8011859" lon="1.7213548"><ele>567.0</ele><time>2026-04-25T09:15:27.922Z</time></trkpt><trkpt lat="41.8012643" lon="1.7212452"><ele>567.0</ele><time>2026-04-25T09:15:28.921Z</time></trkpt><trkpt lat="41.8013659" lon="1.7211733"><ele>567.0</ele><time>2026-04-25T09:15:29.921Z</time></trkpt><trkpt lat="41.8014899" lon="1.7211337"><ele>567.0</ele><time>2026-04-25T09:15:30.921Z</time></trkpt><trkpt lat="41.8016284" lon="1.7211224"><ele>567.0</ele><time>2026-04-25T09:15:31.92Z</time></trkpt><trkpt lat="41.8017475" lon="1.7211155"><ele>566.25</ele><time>2026-04-25T09:15:32.92Z</time></trkpt><trkpt lat="41.8018741" lon="1.721092"><ele>565.5</ele><time>2026-04-25T09:15:33.92Z</time></trkpt><trkpt lat="41.8019768" lon="1.7210313"><ele>564.75</ele><time>2026-04-25T09:15:34.92Z</time></trkpt><trkpt lat="41.8020474" lon="1.7209318"><ele>564.0</ele><time>2026-04-25T09:15:35.921Z</time></trkpt><trkpt lat="41.8021031" lon="1.7207985"><ele>564.0</ele><time>2026-04-25T09:15:36.919Z</time></trkpt><trkpt lat="41.8021657" lon="1.7206944"><ele>564.0</ele><time>2026-04-25T09:15:37.921Z</time></trkpt><trkpt lat="41.8022413" lon="1.720634"><ele>564.0</ele><time>2026-04-25T09:15:38.92Z</time></trkpt><trkpt lat="41.8023425" lon="1.720623"><ele>564.0</ele><time>2026-04-25T09:15:39.919Z</time></trkpt><trkpt lat="41.802439" lon="1.7206667"><ele>564.0</ele><time>2026-04-25T09:15:40.92Z</time></trkpt><trkpt lat="41.8025473" lon="1.7207257"><ele>566.5</ele><time>2026-04-25T09:15:41.921Z</time></trkpt><trkpt lat="41.8026723" lon="1.7207608"><ele>569.0</ele><time>2026-04-25T09:15:42.92Z</time></trkpt><trkpt lat="41.8027815" lon="1.7207498"><ele>571.5</ele><time>2026-04-25T09:15:43.92Z</time></trkpt><trkpt lat="41.8028966" lon="1.7206755"><ele>574.0</ele><time>2026-04-25T09:15:44.918Z</time></trkpt><trkpt lat="41.8029742" lon="1.7205554"><ele>574.0</ele><time>2026-04-25T09:15:45.92Z</time></trkpt><trkpt lat="41.8030515" lon="1.7203979"><ele>574.0</ele><time>2026-04-25T09:15:46.92Z</time></trkpt><trkpt lat="41.8031415" lon="1.7202723"><ele>574.0</ele><time>2026-04-25T09:15:47.92Z</time></trkpt><trkpt lat="41.8032458" lon="1.7201834"><ele>574.0</ele><time>2026-04-25T09:15:48.919Z</time></trkpt><trkpt lat="41.8033586" lon="1.7200917"><ele>574.25</ele><time>2026-04-25T09:15:49.921Z</time></trkpt><trkpt lat="41.8034396" lon="1.7199773"><ele>574.5</ele><time>2026-04-25T09:15:50.92Z</time></trkpt><trkpt lat="41.80348" lon="1.7198323"><ele>574.75</ele><time>2026-04-25T09:15:51.918Z</time></trkpt><trkpt lat="41.8035143" lon="1.719674"><ele>575.0</ele><time>2026-04-25T09:15:52.921Z</time></trkpt><trkpt lat="41.8035677" lon="1.7195672"><ele>575.0</ele><time>2026-04-25T09:15:53.919Z</time></trkpt><trkpt lat="41.8036498" lon="1.7195189"><ele>575.0</ele><time>2026-04-25T09:15:54.92Z</time></trkpt><trkpt lat="41.8037532" lon="1.719527"><ele>575.0</ele><time>2026-04-25T09:15:55.92Z</time></trkpt><trkpt lat="41.8038516" lon="1.7195566"><ele>575.0</ele><time>2026-04-25T09:15:56.921Z</time></trkpt><trkpt lat="41.8039481" lon="1.7195513"><ele>575.0</ele><time>2026-04-25T09:15:57.921Z</time></trkpt><trkpt lat="41.8040309" lon="1.7194845"><ele>574.75</ele><time>2026-04-25T09:15:58.92Z</time></trkpt><trkpt lat="41.8040737" lon="1.7193666"><ele>574.5</ele><time>2026-04-25T09:15:59.92Z</time></trkpt><trkpt lat="41.804063" lon="1.7192055"><ele>574.25</ele><time>2026-04-25T09:16:00.921Z</time></trkpt><trkpt lat="41.804011" lon="1.7190492"><ele>574.0</ele><time>2026-04-25T09:16:01.919Z</time></trkpt><trkpt lat="41.8039343" lon="1.718867"><ele>574.0</ele><time>2026-04-25T09:16:02.92Z</time></trkpt><trkpt lat="41.8038518" lon="1.7187043"><ele>574.0</ele><time>2026-04-25T09:16:03.92Z</time></trkpt><trkpt lat="41.8037679" lon="1.718574"><ele>574.0</ele><time>2026-04-25T09:16:04.923Z</time></trkpt><trkpt lat="41.8036723" lon="1.7184473"><ele>574.0</ele><time>2026-04-25T09:16:05.92Z</time></trkpt><trkpt lat="41.8035991" lon="1.7183282"><ele>575.5</ele><time>2026-04-25T09:16:06.918Z</time></trkpt><trkpt lat="41.8035648" lon="1.7181957"><ele>577.0</ele><time>2026-04-25T09:16:07.918Z</time></trkpt><trkpt lat="41.8035751" lon="1.7180313"><ele>578.5</ele><time>2026-04-25T09:16:08.921Z</time></trkpt><trkpt lat="41.8036205" lon="1.7178744"><ele>580.0</ele><time>2026-04-25T09:16:09.92Z</time></trkpt><trkpt lat="41.8036794" lon="1.7177169"><ele>580.0</ele><time>2026-04-25T09:16:10.921Z</time></trkpt><trkpt lat="41.8037572" lon="1.7175743"><ele>580.0</ele><time>2026-04-25T09:16:11.92Z</time></trkpt><trkpt lat="41.8038606" lon="1.7174662"><ele>580.0</ele><time>2026-04-25T09:16:12.919Z</time></trkpt><trkpt lat="41.8039914" lon="1.7173553"><ele>580.0</ele><time>2026-04-25T09:16:13.921Z</time></trkpt><trkpt lat="41.8041127" lon="1.7172357"><ele>580.0</ele><time>2026-04-25T09:16:14.919Z</time></trkpt><trkpt lat="41.8042171" lon="1.7170958"><ele>580.0</ele><time>2026-04-25T09:16:15.92Z</time></trkpt><trkpt lat="41.8043193" lon="1.7169088"><ele>580.0</ele><time>2026-04-25T09:16:16.918Z</time></trkpt><trkpt lat="41.8043926" lon="1.7167364"><ele>582.75</ele><time>2026-04-25T09:16:17.917Z</time></trkpt><trkpt lat="41.8044684" lon="1.7165509"><ele>585.5</ele><time>2026-04-25T09:16:18.92Z</time></trkpt><trkpt lat="41.804548" lon="1.7164048"><ele>588.25</ele><time>2026-04-25T09:16:19.92Z</time></trkpt><trkpt lat="41.8046433" lon="1.7162939"><ele>591.0</ele><time>2026-04-25T09:16:20.917Z</time></trkpt><trkpt lat="41.804774" lon="1.7161969"><ele>591.0</ele><time>2026-04-25T09:16:21.918Z</time></trkpt><trkpt lat="41.8049192" lon="1.7161349"><ele>591.0</ele><time>2026-04-25T09:16:22.917Z</time></trkpt><trkpt lat="41.8050685" lon="1.716096"><ele>591.0</ele><time>2026-04-25T09:16:23.923Z</time></trkpt><trkpt lat="41.8052491" lon="1.7160542"><ele>586.0</ele><time>2026-04-25T09:16:24.918Z</time></trkpt><trkpt lat="41.8054239" lon="1.7160112"><ele>581.0</ele><time>2026-04-25T09:16:25.919Z</time></trkpt><trkpt lat="41.8056022" lon="1.715966"><ele>576.0</ele><time>2026-04-25T09:16:26.919Z</time></trkpt><trkpt lat="41.8057801" lon="1.7159226"><ele>576.0</ele><time>2026-04-25T09:16:27.922Z</time></trkpt><trkpt lat="41.8059403" lon="1.7159"><ele>576.0</ele><time>2026-04-25T09:16:28.917Z</time></trkpt><trkpt lat="41.8061112" lon="1.7159113"><ele>576.0</ele><time>2026-04-25T09:16:29.923Z</time></trkpt><trkpt lat="41.80626" lon="1.7159361"><ele>577.0</ele><time>2026-04-25T09:16:30.918Z</time></trkpt><trkpt lat="41.8063851" lon="1.7159487"><ele>578.0</ele><time>2026-04-25T09:16:31.919Z</time></trkpt><trkpt lat="41.8065205" lon="1.7159217"><ele>579.0</ele><time>2026-04-25T09:16:32.919Z</time></trkpt><trkpt lat="41.8066339" lon="1.7158482"><ele>580.0</ele><time>2026-04-25T09:16:33.917Z</time></trkpt><trkpt lat="41.8067577" lon="1.715719"><ele>581.6666666666667</ele><time>2026-04-25T09:16:34.919Z</time></trkpt><trkpt lat="41.806866" lon="1.7155715"><ele>583.3333333333334</ele><time>2026-04-25T09:16:35.917Z</time></trkpt><trkpt lat="41.8069578" lon="1.7154065"><ele>585.0</ele><time>2026-04-25T09:16:36.921Z</time></trkpt><trkpt lat="41.8070572" lon="1.715205"><ele>585.0</ele><time>2026-04-25T09:16:37.919Z</time></trkpt><trkpt lat="41.8071631" lon="1.7150307"><ele>585.0</ele><time>2026-04-25T09:16:38.917Z</time></trkpt><trkpt lat="41.8072738" lon="1.7148873"><ele>585.0</ele><time>2026-04-25T09:16:39.918Z</time></trkpt><trkpt lat="41.8074082" lon="1.714755"><ele>585.0</ele><time>2026-04-25T09:16:40.918Z</time></trkpt><trkpt lat="41.8075438" lon="1.7146718"><ele>585.0</ele><time>2026-04-25T09:16:41.919Z</time></trkpt><trkpt lat="41.8076925" lon="1.714628"><ele>585.0</ele><time>2026-04-25T09:16:42.921Z</time></trkpt><trkpt lat="41.8078471" lon="1.7146157"><ele>588.6666666666666</ele><time>2026-04-25T09:16:43.918Z</time></trkpt><trkpt lat="41.808" lon="1.7146166"><ele>592.3333333333333</ele><time>2026-04-25T09:16:44.923Z</time></trkpt><trkpt lat="41.8081719" lon="1.7146337"><ele>596.0</ele><time>2026-04-25T09:16:45.917Z</time></trkpt><trkpt lat="41.8083192" lon="1.7146713"><ele>596.0</ele><time>2026-04-25T09:16:46.918Z</time></trkpt><trkpt lat="41.8084335" lon="1.7147274"><ele>596.0</ele><time>2026-04-25T09:16:47.917Z</time></trkpt><trkpt lat="41.8085467" lon="1.7147857"><ele>596.0</ele><time>2026-04-25T09:16:48.917Z</time></trkpt><trkpt lat="41.8086437" lon="1.7148056"><ele>596.0</ele><time>2026-04-25T09:16:49.919Z</time></trkpt><trkpt lat="41.808748" lon="1.7147754"><ele>596.0</ele><time>2026-04-25T09:16:50.917Z</time></trkpt><trkpt lat="41.8088281" lon="1.7146856"><ele>596.0</ele><time>2026-04-25T09:16:51.918Z</time></trkpt><trkpt lat="41.8088838" lon="1.7145607"><ele>596.0</ele><time>2026-04-25T09:16:52.918Z</time></trkpt><trkpt lat="41.8089239" lon="1.7143915"><ele>596.0</ele><time>2026-04-25T09:16:53.919Z</time></trkpt><trkpt lat="41.8089451" lon="1.7142225"><ele>596.0</ele><time>2026-04-25T09:16:54.917Z</time></trkpt><trkpt lat="41.8089713" lon="1.7140738"><ele>596.25</ele><time>2026-04-25T09:16:55.918Z</time></trkpt><trkpt lat="41.8090181" lon="1.7139254"><ele>596.5</ele><time>2026-04-25T09:16:56.917Z</time></trkpt><trkpt lat="41.8090943" lon="1.7138215"><ele>596.75</ele><time>2026-04-25T09:16:57.919Z</time></trkpt><trkpt lat="41.8091944" lon="1.7137474"><ele>597.0</ele><time>2026-04-25T09:16:58.92Z</time></trkpt><trkpt lat="41.8093012" lon="1.713675"><ele>600.0</ele><time>2026-04-25T09:16:59.919Z</time></trkpt><trkpt lat="41.8093931" lon="1.7135948"><ele>603.0</ele><time>2026-04-25T09:17:00.918Z</time></trkpt><trkpt lat="41.8094745" lon="1.7134625"><ele>606.0</ele><time>2026-04-25T09:17:01.918Z</time></trkpt><trkpt lat="41.8095132" lon="1.7133077"><ele>609.0</ele><time>2026-04-25T09:17:02.917Z</time></trkpt><trkpt lat="41.809519" lon="1.713161"><ele>609.0</ele><time>2026-04-25T09:17:03.918Z</time></trkpt><trkpt lat="41.8095345" lon="1.713001"><ele>609.0</ele><time>2026-04-25T09:17:04.919Z</time></trkpt><trkpt lat="41.809573" lon="1.7128852"><ele>609.0</ele><time>2026-04-25T09:17:05.917Z</time></trkpt><trkpt lat="41.8096585" lon="1.712784"><ele>609.0</ele><time>2026-04-25T09:17:06.918Z</time></trkpt><trkpt lat="41.8097751" lon="1.7127263"><ele>608.75</ele><time>2026-04-25T09:17:07.919Z</time></trkpt><trkpt lat="41.8099014" lon="1.7126833"><ele>608.5</ele><time>2026-04-25T09:17:08.917Z</time></trkpt><trkpt lat="41.810051" lon="1.7126207"><ele>608.25</ele><time>2026-04-25T09:17:09.918Z</time></trkpt><trkpt lat="41.8101838" lon="1.7125244"><ele>608.0</ele><time>2026-04-25T09:17:10.917Z</time></trkpt><trkpt lat="41.8102898" lon="1.7123961"><ele>608.0</ele><time>2026-04-25T09:17:11.917Z</time></trkpt><trkpt lat="41.8103946" lon="1.7122235"><ele>608.0</ele><time>2026-04-25T09:17:12.918Z</time></trkpt><trkpt lat="41.8104937" lon="1.7120674"><ele>608.0</ele><time>2026-04-25T09:17:13.918Z</time></trkpt><trkpt lat="41.8106107" lon="1.7119405"><ele>607.6666666666666</ele><time>2026-04-25T09:17:14.918Z</time></trkpt><trkpt lat="41.8107495" lon="1.7118466"><ele>607.3333333333334</ele><time>2026-04-25T09:17:15.919Z</time></trkpt><trkpt lat="41.8108896" lon="1.7117821"><ele>607.0</ele><time>2026-04-25T09:17:16.919Z</time></trkpt><trkpt lat="41.8110468" lon="1.7117163"><ele>609.5</ele><time>2026-04-25T09:17:17.919Z</time></trkpt><trkpt lat="41.8111863" lon="1.7116556"><ele>612.0</ele><time>2026-04-25T09:17:18.918Z</time></trkpt><trkpt lat="41.8113033" lon="1.7116009"><ele>614.5</ele><time>2026-04-25T09:17:19.917Z</time></trkpt><trkpt lat="41.8114155" lon="1.7115401"><ele>617.0</ele><time>2026-04-25T09:17:20.918Z</time></trkpt><trkpt lat="41.8115002" lon="1.7114774"><ele>617.0</ele><time>2026-04-25T09:17:21.917Z</time></trkpt><trkpt lat="41.8115725" lon="1.7113713"><ele>617.0</ele><time>2026-04-25T09:17:22.918Z</time></trkpt><trkpt lat="41.8116089" lon="1.7112417"><ele>617.0</ele><time>2026-04-25T09:17:23.918Z</time></trkpt><trkpt lat="41.8116103" lon="1.7111087"><ele>617.0</ele><time>2026-04-25T09:17:24.918Z</time></trkpt><trkpt lat="41.8115685" lon="1.710962"><ele>617.0</ele><time>2026-04-25T09:17:25.92Z</time></trkpt><trkpt lat="41.8114912" lon="1.7108578"><ele>615.5</ele><time>2026-04-25T09:17:26.918Z</time></trkpt><trkpt lat="41.811398" lon="1.7108089"><ele>614.0</ele><time>2026-04-25T09:17:27.919Z</time></trkpt><trkpt lat="41.811274" lon="1.7108015"><ele>612.5</ele><time>2026-04-25T09:17:28.917Z</time></trkpt><trkpt lat="41.8111483" lon="1.7108173"><ele>611.0</ele><time>2026-04-25T09:17:29.918Z</time></trkpt><trkpt lat="41.8110094" lon="1.7108399"><ele>612.0</ele><time>2026-04-25T09:17:30.918Z</time></trkpt><trkpt lat="41.8108565" lon="1.7108599"><ele>613.0</ele><time>2026-04-25T09:17:31.917Z</time></trkpt><trkpt lat="41.8107092" lon="1.7108796"><ele>614.0</ele><time>2026-04-25T09:17:32.917Z</time></trkpt><trkpt lat="41.810546" lon="1.7109109"><ele>614.0</ele><time>2026-04-25T09:17:33.917Z</time></trkpt><trkpt lat="41.8104017" lon="1.7109651"><ele>614.0</ele><time>2026-04-25T09:17:34.917Z</time></trkpt><trkpt lat="41.8102723" lon="1.7110365"><ele>614.0</ele><time>2026-04-25T09:17:35.917Z</time></trkpt><trkpt lat="41.8101291" lon="1.7111256"><ele>614.0</ele><time>2026-04-25T09:17:36.918Z</time></trkpt><trkpt lat="41.8100048" lon="1.7112062"><ele>612.25</ele><time>2026-04-25T09:17:37.916Z</time></trkpt><trkpt lat="41.8098723" lon="1.7112892"><ele>610.5</ele><time>2026-04-25T09:17:38.918Z</time></trkpt><trkpt lat="41.8097621" lon="1.7113503"><ele>608.75</ele><time>2026-04-25T09:17:39.919Z</time></trkpt><trkpt lat="41.8096708" lon="1.7113756"><ele>607.0</ele><time>2026-04-25T09:17:40.918Z</time></trkpt><trkpt lat="41.8095721" lon="1.7113494"><ele>607.0</ele><time>2026-04-25T09:17:41.919Z</time></trkpt><trkpt lat="41.8095023" lon="1.7112648"><ele>607.0</ele><time>2026-04-25T09:17:42.918Z</time></trkpt><trkpt lat="41.8094726" lon="1.7111461"><ele>607.0</ele><time>2026-04-25T09:17:43.917Z</time></trkpt><trkpt lat="41.8094903" lon="1.7109979"><ele>607.0</ele><time>2026-04-25T09:17:44.917Z</time></trkpt><trkpt lat="41.8095431" lon="1.7108561"><ele>607.0</ele><time>2026-04-25T09:17:45.917Z</time></trkpt><trkpt lat="41.8096016" lon="1.7107094"><ele>613.0</ele><time>2026-04-25T09:17:46.918Z</time></trkpt><trkpt lat="41.8096695" lon="1.7105387"><ele>619.0</ele><time>2026-04-25T09:17:47.919Z</time></trkpt><trkpt lat="41.8097322" lon="1.7103737"><ele>625.0</ele><time>2026-04-25T09:17:48.918Z</time></trkpt><trkpt lat="41.8098076" lon="1.7101721"><ele>626.0</ele><time>2026-04-25T09:17:49.92Z</time></trkpt><trkpt lat="41.8098815" lon="1.7099713"><ele>627.0</ele><time>2026-04-25T09:17:50.918Z</time></trkpt><trkpt lat="41.8099507" lon="1.7097803"><ele>628.0</ele><time>2026-04-25T09:17:51.919Z</time></trkpt><trkpt lat="41.8100211" lon="1.7095549"><ele>628.6666666666667</ele><time>2026-04-25T09:17:52.918Z</time></trkpt><trkpt lat="41.8100672" lon="1.7093477"><ele>629.3333333333334</ele><time>2026-04-25T09:17:53.918Z</time></trkpt><trkpt lat="41.8100999" lon="1.7090986"><ele>630.0</ele><time>2026-04-25T09:17:54.917Z</time></trkpt><trkpt lat="41.8101068" lon="1.7088567"><ele>630.0</ele><time>2026-04-25T09:17:55.92Z</time></trkpt><trkpt lat="41.8101012" lon="1.7086283"><ele>630.0</ele><time>2026-04-25T09:17:56.918Z</time></trkpt><trkpt lat="41.8100936" lon="1.7083857"><ele>630.0</ele><time>2026-04-25T09:17:57.918Z</time></trkpt><trkpt lat="41.8100884" lon="1.7081196"><ele>631.0</ele><time>2026-04-25T09:17:58.92Z</time></trkpt><trkpt lat="41.8100855" lon="1.7078828"><ele>632.0</ele><time>2026-04-25T09:17:59.918Z</time></trkpt><trkpt lat="41.8100854" lon="1.7076136"><ele>633.0</ele><time>2026-04-25T09:18:00.919Z</time></trkpt><trkpt lat="41.8100853" lon="1.7073647"><ele>634.3333333333334</ele><time>2026-04-25T09:18:01.92Z</time></trkpt><trkpt lat="41.810083" lon="1.7071405"><ele>635.6666666666667</ele><time>2026-04-25T09:18:02.919Z</time></trkpt><trkpt lat="41.8100739" lon="1.7068918"><ele>637.0</ele><time>2026-04-25T09:18:03.92Z</time></trkpt><trkpt lat="41.8100483" lon="1.7066757"><ele>638.3333333333334</ele><time>2026-04-25T09:18:04.919Z</time></trkpt><trkpt lat="41.8099931" lon="1.7064297"><ele>639.6666666666666</ele><time>2026-04-25T09:18:05.921Z</time></trkpt><trkpt lat="41.8099233" lon="1.7062058"><ele>641.0</ele><time>2026-04-25T09:18:06.92Z</time></trkpt><trkpt lat="41.8098473" lon="1.7059995"><ele>643.0</ele><time>2026-04-25T09:18:07.919Z</time></trkpt><trkpt lat="41.8097658" lon="1.7057724"><ele>645.0</ele><time>2026-04-25T09:18:08.921Z</time></trkpt><trkpt lat="41.8097078" lon="1.7055622"><ele>647.0</ele><time>2026-04-25T09:18:09.917Z</time></trkpt><trkpt lat="41.8096639" lon="1.7053285"><ele>649.0</ele><time>2026-04-25T09:18:10.919Z</time></trkpt><trkpt lat="41.8096314" lon="1.7050854"><ele>651.0</ele><time>2026-04-25T09:18:11.92Z</time></trkpt><trkpt lat="41.8096117" lon="1.7048761"><ele>653.0</ele><time>2026-04-25T09:18:12.919Z</time></trkpt><trkpt lat="41.8096085" lon="1.7046622"><ele>653.0</ele><time>2026-04-25T09:18:13.921Z</time></trkpt><trkpt lat="41.8096392" lon="1.704455"><ele>653.0</ele><time>2026-04-25T09:18:14.918Z</time></trkpt><trkpt lat="41.8096968" lon="1.7042944"><ele>653.0</ele><time>2026-04-25T09:18:15.918Z</time></trkpt><trkpt lat="41.8097962" lon="1.7041279"><ele>653.0</ele><time>2026-04-25T09:18:16.918Z</time></trkpt><trkpt lat="41.8099104" lon="1.7039723"><ele>653.0</ele><time>2026-04-25T09:18:17.919Z</time></trkpt><trkpt lat="41.8100251" lon="1.7038194"><ele>653.0</ele><time>2026-04-25T09:18:18.918Z</time></trkpt><trkpt lat="41.8101632" lon="1.7036352"><ele>653.0</ele><time>2026-04-25T09:18:19.918Z</time></trkpt><trkpt lat="41.8102898" lon="1.703466"><ele>655.6666666666666</ele><time>2026-04-25T09:18:20.918Z</time></trkpt><trkpt lat="41.8104371" lon="1.7032729"><ele>658.3333333333334</ele><time>2026-04-25T09:18:21.917Z</time></trkpt><trkpt lat="41.8105753" lon="1.7030902"><ele>661.0</ele><time>2026-04-25T09:18:22.916Z</time></trkpt><trkpt lat="41.8107006" lon="1.7029202"><ele>660.3333333333334</ele><time>2026-04-25T09:18:23.917Z</time></trkpt><trkpt lat="41.810835" lon="1.702733"><ele>659.6666666666666</ele><time>2026-04-25T09:18:24.917Z</time></trkpt><trkpt lat="41.81095" lon="1.7025767"><ele>659.0</ele><time>2026-04-25T09:18:25.917Z</time></trkpt><trkpt lat="41.8110802" lon="1.7024193"><ele>659.0</ele><time>2026-04-25T09:18:26.919Z</time></trkpt><trkpt lat="41.8112283" lon="1.7022701"><ele>659.0</ele><time>2026-04-25T09:18:27.918Z</time></trkpt><trkpt lat="41.8113584" lon="1.7021639"><ele>659.0</ele><time>2026-04-25T09:18:28.918Z</time></trkpt><trkpt lat="41.8114906" lon="1.7020856"><ele>659.0</ele><time>2026-04-25T09:18:29.919Z</time></trkpt><trkpt lat="41.8116276" lon="1.7020525"><ele>659.0</ele><time>2026-04-25T09:18:30.918Z</time></trkpt><trkpt lat="41.8117527" lon="1.7020719"><ele>659.0</ele><time>2026-04-25T09:18:31.917Z</time></trkpt><trkpt lat="41.8118921" lon="1.7021385"><ele>659.0</ele><time>2026-04-25T09:18:32.917Z</time></trkpt><trkpt lat="41.8120122" lon="1.7022461"><ele>659.5</ele><time>2026-04-25T09:18:33.917Z</time></trkpt><trkpt lat="41.812113" lon="1.7023773"><ele>660.0</ele><time>2026-04-25T09:18:34.918Z</time></trkpt><trkpt lat="41.8122141" lon="1.702545"><ele>660.5</ele><time>2026-04-25T09:18:35.916Z</time></trkpt><trkpt lat="41.8122833" lon="1.7026918"><ele>661.0</ele><time>2026-04-25T09:18:36.918Z</time></trkpt><trkpt lat="41.8123448" lon="1.702841"><ele>661.0</ele><time>2026-04-25T09:18:37.917Z</time></trkpt><trkpt lat="41.8124028" lon="1.7029598"><ele>661.0</ele><time>2026-04-25T09:18:38.918Z</time></trkpt><trkpt lat="41.8124663" lon="1.7030369"><ele>661.0</ele><time>2026-04-25T09:18:39.918Z</time></trkpt><trkpt lat="41.8125578" lon="1.7030699"><ele>661.0</ele><time>2026-04-25T09:18:40.917Z</time></trkpt><trkpt lat="41.8126441" lon="1.703036"><ele>661.0</ele><time>2026-04-25T09:18:41.918Z</time></trkpt><trkpt lat="41.8127214" lon="1.7029382"><ele>660.25</ele><time>2026-04-25T09:18:42.917Z</time></trkpt><trkpt lat="41.8127749" lon="1.7027859"><ele>659.5</ele><time>2026-04-25T09:18:43.918Z</time></trkpt><trkpt lat="41.8128138" lon="1.7026315"><ele>658.75</ele><time>2026-04-25T09:18:44.917Z</time></trkpt><trkpt lat="41.8128567" lon="1.7024788"><ele>658.0</ele><time>2026-04-25T09:18:45.917Z</time></trkpt><trkpt lat="41.8129245" lon="1.7023421"><ele>658.0</ele><time>2026-04-25T09:18:46.919Z</time></trkpt><trkpt lat="41.8130144" lon="1.7022543"><ele>658.0</ele><time>2026-04-25T09:18:47.918Z</time></trkpt><trkpt lat="41.8131429" lon="1.702195"><ele>658.0</ele><time>2026-04-25T09:18:48.919Z</time></trkpt><trkpt lat="41.8132777" lon="1.7021469"><ele>658.0</ele><time>2026-04-25T09:18:49.92Z</time></trkpt><trkpt lat="41.813401" lon="1.7020804"><ele>658.5</ele><time>2026-04-25T09:18:50.919Z</time></trkpt><trkpt lat="41.8135283" lon="1.7019703"><ele>659.0</ele><time>2026-04-25T09:18:51.919Z</time></trkpt><trkpt lat="41.8136224" lon="1.7018594"><ele>659.5</ele><time>2026-04-25T09:18:52.92Z</time></trkpt><trkpt lat="41.8137251" lon="1.701761"><ele>660.0</ele><time>2026-04-25T09:18:53.919Z</time></trkpt><trkpt lat="41.8138315" lon="1.7017159"><ele>660.0</ele><time>2026-04-25T09:18:54.92Z</time></trkpt><trkpt lat="41.8139426" lon="1.7017142"><ele>660.0</ele><time>2026-04-25T09:18:55.919Z</time></trkpt><trkpt lat="41.8140816" lon="1.7017407"><ele>660.0</ele><time>2026-04-25T09:18:56.919Z</time></trkpt><trkpt lat="41.8142132" lon="1.7017787"><ele>660.0</ele><time>2026-04-25T09:18:57.918Z</time></trkpt><trkpt lat="41.8143602" lon="1.7018252"><ele>661.0</ele><time>2026-04-25T09:18:58.92Z</time></trkpt><trkpt lat="41.8145224" lon="1.701874"><ele>662.0</ele><time>2026-04-25T09:18:59.92Z</time></trkpt><trkpt lat="41.8146673" lon="1.7019166"><ele>663.0</ele><time>2026-04-25T09:19:00.919Z</time></trkpt><trkpt lat="41.81482" lon="1.7019622"><ele>668.0</ele><time>2026-04-25T09:19:01.919Z</time></trkpt><trkpt lat="41.8149752" lon="1.7020159"><ele>673.0</ele><time>2026-04-25T09:19:02.92Z</time></trkpt><trkpt lat="41.8151081" lon="1.7020858"><ele>678.0</ele><time>2026-04-25T09:19:03.919Z</time></trkpt><trkpt lat="41.8152526" lon="1.7021916"><ele>678.0</ele><time>2026-04-25T09:19:04.92Z</time></trkpt><trkpt lat="41.8153821" lon="1.7022988"><ele>678.0</ele><time>2026-04-25T09:19:05.917Z</time></trkpt><trkpt lat="41.8155134" lon="1.7023851"><ele>678.0</ele><time>2026-04-25T09:19:06.919Z</time></trkpt><trkpt lat="41.8156673" lon="1.7024533"><ele>678.0</ele><time>2026-04-25T09:19:07.918Z</time></trkpt><trkpt lat="41.8158082" lon="1.7024861"><ele>678.0</ele><time>2026-04-25T09:19:08.918Z</time></trkpt><trkpt lat="41.8159705" lon="1.7025011"><ele>678.0</ele><time>2026-04-25T09:19:09.917Z</time></trkpt><trkpt lat="41.8161128" lon="1.7024939"><ele>678.0</ele><time>2026-04-25T09:19:10.92Z</time></trkpt><trkpt lat="41.8162265" lon="1.7024598"><ele>679.75</ele><time>2026-04-25T09:19:11.918Z</time></trkpt><trkpt lat="41.8163361" lon="1.7023904"><ele>681.5</ele><time>2026-04-25T09:19:12.917Z</time></trkpt><trkpt lat="41.8164163" lon="1.7022971"><ele>683.25</ele><time>2026-04-25T09:19:13.916Z</time></trkpt><trkpt lat="41.8164748" lon="1.7021645"><ele>685.0</ele><time>2026-04-25T09:19:14.919Z</time></trkpt><trkpt lat="41.8164902" lon="1.7019968"><ele>686.0</ele><time>2026-04-25T09:19:15.918Z</time></trkpt><trkpt lat="41.8164677" lon="1.7018426"><ele>687.0</ele><time>2026-04-25T09:19:16.917Z</time></trkpt><trkpt lat="41.8164315" lon="1.7016841"><ele>688.0</ele><time>2026-04-25T09:19:17.918Z</time></trkpt><trkpt lat="41.8163985" lon="1.7015322"><ele>689.0</ele><time>2026-04-25T09:19:18.919Z</time></trkpt><trkpt lat="41.8163948" lon="1.7014041"><ele>689.0</ele><time>2026-04-25T09:19:19.919Z</time></trkpt><trkpt lat="41.816435" lon="1.7012668"><ele>689.0</ele><time>2026-04-25T09:19:20.918Z</time></trkpt><trkpt lat="41.8165139" lon="1.7011605"><ele>689.0</ele><time>2026-04-25T09:19:21.917Z</time></trkpt><trkpt lat="41.8165967" lon="1.7010669"><ele>689.0</ele><time>2026-04-25T09:19:22.917Z</time></trkpt><trkpt lat="41.8166734" lon="1.7009296"><ele>689.4000000000001</ele><time>2026-04-25T09:19:23.918Z</time></trkpt><trkpt lat="41.8167166" lon="1.7007849"><ele>689.8</ele><time>2026-04-25T09:19:24.917Z</time></trkpt><trkpt lat="41.8167216" lon="1.7006256"><ele>690.2</ele><time>2026-04-25T09:19:25.918Z</time></trkpt><trkpt lat="41.8166742" lon="1.7004953"><ele>690.5999999999999</ele><time>2026-04-25T09:19:26.919Z</time></trkpt><trkpt lat="41.8165917" lon="1.700412"><ele>691.0</ele><time>2026-04-25T09:19:27.919Z</time></trkpt><trkpt lat="41.8164716" lon="1.7003529"><ele>691.0</ele><time>2026-04-25T09:19:28.92Z</time></trkpt><trkpt lat="41.8163719" lon="1.7002956"><ele>691.0</ele><time>2026-04-25T09:19:29.92Z</time></trkpt><trkpt lat="41.8162802" lon="1.7002033"><ele>691.0</ele><time>2026-04-25T09:19:30.919Z</time></trkpt><trkpt lat="41.8162065" lon="1.7000549"><ele>691.0</ele><time>2026-04-25T09:19:31.919Z</time></trkpt><trkpt lat="41.8161642" lon="1.6998999"><ele>693.75</ele><time>2026-04-25T09:19:32.921Z</time></trkpt><trkpt lat="41.8161295" lon="1.6997296"><ele>696.5</ele><time>2026-04-25T09:19:33.92Z</time></trkpt><trkpt lat="41.8161169" lon="1.6995417"><ele>699.25</ele><time>2026-04-25T09:19:34.919Z</time></trkpt><trkpt lat="41.816138" lon="1.6993737"><ele>702.0</ele><time>2026-04-25T09:19:35.918Z</time></trkpt><trkpt lat="41.8161887" lon="1.6991885"><ele>704.25</ele><time>2026-04-25T09:19:36.92Z</time></trkpt><trkpt lat="41.8162237" lon="1.6990017"><ele>706.5</ele><time>2026-04-25T09:19:37.92Z</time></trkpt><trkpt lat="41.8162345" lon="1.698814"><ele>708.75</ele><time>2026-04-25T09:19:38.92Z</time></trkpt><trkpt lat="41.8162278" lon="1.6985932"><ele>711.0</ele><time>2026-04-25T09:19:39.918Z</time></trkpt><trkpt lat="41.8162293" lon="1.6983891"><ele>713.0</ele><time>2026-04-25T09:19:40.919Z</time></trkpt><trkpt lat="41.8162511" lon="1.6981612"><ele>715.0</ele><time>2026-04-25T09:19:41.92Z</time></trkpt><trkpt lat="41.8162764" lon="1.6979563"><ele>717.0</ele><time>2026-04-25T09:19:42.92Z</time></trkpt><trkpt lat="41.8162804" lon="1.6977669"><ele>718.75</ele><time>2026-04-25T09:19:43.918Z</time></trkpt><trkpt lat="41.8162638" lon="1.6975637"><ele>720.5</ele><time>2026-04-25T09:19:44.918Z</time></trkpt><trkpt lat="41.8162104" lon="1.6974003"><ele>722.25</ele><time>2026-04-25T09:19:45.919Z</time></trkpt><trkpt lat="41.8161098" lon="1.6972552"><ele>724.0</ele><time>2026-04-25T09:19:46.92Z</time></trkpt><trkpt lat="41.8159746" lon="1.6971368"><ele>722.75</ele><time>2026-04-25T09:19:47.919Z</time></trkpt><trkpt lat="41.8158573" lon="1.6970373"><ele>721.5</ele><time>2026-04-25T09:19:48.917Z</time></trkpt><trkpt lat="41.8157671" lon="1.6969071"><ele>720.25</ele><time>2026-04-25T09:19:49.917Z</time></trkpt><trkpt lat="41.815692" lon="1.696734"><ele>719.0</ele><time>2026-04-25T09:19:50.917Z</time></trkpt><trkpt lat="41.815633" lon="1.6965591"><ele>719.0</ele><time>2026-04-25T09:19:51.919Z</time></trkpt><trkpt lat="41.8155715" lon="1.6963579"><ele>719.0</ele><time>2026-04-25T09:19:52.918Z</time></trkpt><trkpt lat="41.8154986" lon="1.696134"><ele>719.0</ele><time>2026-04-25T09:19:53.919Z</time></trkpt><trkpt lat="41.8154282" lon="1.6959248"><ele>723.3333333333333</ele><time>2026-04-25T09:19:54.919Z</time></trkpt><trkpt lat="41.8153456" lon="1.6956781"><ele>727.6666666666666</ele><time>2026-04-25T09:19:55.92Z</time></trkpt><trkpt lat="41.8152729" lon="1.6954564"><ele>732.0</ele><time>2026-04-25T09:19:56.922Z</time></trkpt><trkpt lat="41.8151953" lon="1.6951943"><ele>732.6666666666666</ele><time>2026-04-25T09:19:57.917Z</time></trkpt><trkpt lat="41.8151316" lon="1.6949332"><ele>733.3333333333333</ele><time>2026-04-25T09:19:58.919Z</time></trkpt><trkpt lat="41.8150744" lon="1.6946796"><ele>734.0</ele><time>2026-04-25T09:19:59.919Z</time></trkpt><trkpt lat="41.8150088" lon="1.6943853"><ele>734.0</ele><time>2026-04-25T09:20:00.931Z</time></trkpt><trkpt lat="41.8149503" lon="1.6941224"><ele>734.0</ele><time>2026-04-25T09:20:01.92Z</time></trkpt><trkpt lat="41.8148865" lon="1.6938359"><ele>734.0</ele><time>2026-04-25T09:20:02.918Z</time></trkpt><trkpt lat="41.8148215" lon="1.6935345"><ele>737.0</ele><time>2026-04-25T09:20:03.918Z</time></trkpt><trkpt lat="41.8147657" lon="1.6932733"><ele>740.0</ele><time>2026-04-25T09:20:04.918Z</time></trkpt><trkpt lat="41.8147091" lon="1.6929971"><ele>743.0</ele><time>2026-04-25T09:20:05.917Z</time></trkpt><trkpt lat="41.8146576" lon="1.6926994"><ele>745.3333333333333</ele><time>2026-04-25T09:20:06.918Z</time></trkpt><trkpt lat="41.8146225" lon="1.6924296"><ele>747.6666666666666</ele><time>2026-04-25T09:20:07.918Z</time></trkpt><trkpt lat="41.8145909" lon="1.6921201"><ele>750.0</ele><time>2026-04-25T09:20:08.917Z</time></trkpt><trkpt lat="41.8145691" lon="1.6918323"><ele>752.3333333333334</ele><time>2026-04-25T09:20:09.917Z</time></trkpt><trkpt lat="41.8145551" lon="1.6915678"><ele>754.6666666666667</ele><time>2026-04-25T09:20:10.92Z</time></trkpt><trkpt lat="41.8145583" lon="1.6912754"><ele>757.0</ele><time>2026-04-25T09:20:11.918Z</time></trkpt><trkpt lat="41.8145837" lon="1.6910211"><ele>758.3333333333334</ele><time>2026-04-25T09:20:12.918Z</time></trkpt><trkpt lat="41.8146105" lon="1.6907325"><ele>759.6666666666666</ele><time>2026-04-25T09:20:13.918Z</time></trkpt><trkpt lat="41.8146109" lon="1.6904522"><ele>761.0</ele><time>2026-04-25T09:20:14.918Z</time></trkpt><trkpt lat="41.8145917" lon="1.6901829"><ele>761.0</ele><time>2026-04-25T09:20:15.918Z</time></trkpt><trkpt lat="41.8145617" lon="1.6898884"><ele>761.0</ele><time>2026-04-25T09:20:16.917Z</time></trkpt><trkpt lat="41.8145316" lon="1.6895883"><ele>761.0</ele><time>2026-04-25T09:20:17.917Z</time></trkpt><trkpt lat="41.8145024" lon="1.6892922"><ele>761.3333333333333</ele><time>2026-04-25T09:20:18.916Z</time></trkpt><trkpt lat="41.8144635" lon="1.6889841"><ele>761.6666666666666</ele><time>2026-04-25T09:20:19.918Z</time></trkpt><trkpt lat="41.8144116" lon="1.6887285"><ele>762.0</ele><time>2026-04-25T09:20:20.918Z</time></trkpt><trkpt lat="41.8143376" lon="1.6884772"><ele>763.0</ele><time>2026-04-25T09:20:21.919Z</time></trkpt><trkpt lat="41.8142557" lon="1.6882304"><ele>764.0</ele><time>2026-04-25T09:20:22.918Z</time></trkpt><trkpt lat="41.8141897" lon="1.6880112"><ele>765.0</ele><time>2026-04-25T09:20:23.917Z</time></trkpt><trkpt lat="41.8141236" lon="1.6877485"><ele>765.0</ele><time>2026-04-25T09:20:24.917Z</time></trkpt><trkpt lat="41.814075" lon="1.6874884"><ele>765.0</ele><time>2026-04-25T09:20:25.919Z</time></trkpt><trkpt lat="41.8140314" lon="1.6872348"><ele>765.0</ele><time>2026-04-25T09:20:26.918Z</time></trkpt><trkpt lat="41.813979" lon="1.6869432"><ele>766.6666666666667</ele><time>2026-04-25T09:20:27.918Z</time></trkpt><trkpt lat="41.8139289" lon="1.6866767"><ele>768.3333333333334</ele><time>2026-04-25T09:20:28.916Z</time></trkpt><trkpt lat="41.8138701" lon="1.6863757"><ele>770.0</ele><time>2026-04-25T09:20:29.917Z</time></trkpt><trkpt lat="41.8138093" lon="1.6860753"><ele>770.0</ele><time>2026-04-25T09:20:30.918Z</time></trkpt><trkpt lat="41.8137478" lon="1.6858004"><ele>770.0</ele><time>2026-04-25T09:20:31.918Z</time></trkpt><trkpt lat="41.8136616" lon="1.6854926"><ele>771.0</ele><time>2026-04-25T09:20:32.919Z</time></trkpt><trkpt lat="41.8135703" lon="1.6852206"><ele>772.0</ele><time>2026-04-25T09:20:33.92Z</time></trkpt><trkpt lat="41.8134628" lon="1.6849275"><ele>772.0</ele><time>2026-04-25T09:20:34.92Z</time></trkpt><trkpt lat="41.813342" lon="1.6846115"><ele>772.0</ele><time>2026-04-25T09:20:35.92Z</time></trkpt><trkpt lat="41.8132343" lon="1.684332"><ele>774.5</ele><time>2026-04-25T09:20:36.918Z</time></trkpt><trkpt lat="41.813121" lon="1.6840316"><ele>777.0</ele><time>2026-04-25T09:20:37.918Z</time></trkpt><trkpt lat="41.813001" lon="1.6837126"><ele>777.0</ele><time>2026-04-25T09:20:38.919Z</time></trkpt><trkpt lat="41.8128957" lon="1.6834399"><ele>777.0</ele><time>2026-04-25T09:20:39.917Z</time></trkpt><trkpt lat="41.8127813" lon="1.6831545"><ele>777.0</ele><time>2026-04-25T09:20:40.921Z</time></trkpt><trkpt lat="41.8126572" lon="1.682861"><ele>777.0</ele><time>2026-04-25T09:20:41.92Z</time></trkpt><trkpt lat="41.8125514" lon="1.6826165"><ele>779.3333333333333</ele><time>2026-04-25T09:20:42.92Z</time></trkpt><trkpt lat="41.8124362" lon="1.6823555"><ele>781.6666666666666</ele><time>2026-04-25T09:20:43.919Z</time></trkpt><trkpt lat="41.8123422" lon="1.6821402"><ele>784.0</ele><time>2026-04-25T09:20:44.92Z</time></trkpt><trkpt lat="41.812243" lon="1.6818976"><ele>787.3333333333333</ele><time>2026-04-25T09:20:45.919Z</time></trkpt><trkpt lat="41.8121651" lon="1.6816551"><ele>790.6666666666667</ele><time>2026-04-25T09:20:46.92Z</time></trkpt><trkpt lat="41.812106" lon="1.6814147"><ele>794.0</ele><time>2026-04-25T09:20:47.919Z</time></trkpt><trkpt lat="41.8120444" lon="1.6811359"><ele>791.0</ele><time>2026-04-25T09:20:48.918Z</time></trkpt><trkpt lat="41.8119741" lon="1.6808922"><ele>788.0</ele><time>2026-04-25T09:20:49.92Z</time></trkpt><trkpt lat="41.811876" lon="1.6806476"><ele>785.0</ele><time>2026-04-25T09:20:50.92Z</time></trkpt><trkpt lat="41.8117525" lon="1.6804032"><ele>791.0</ele><time>2026-04-25T09:20:51.922Z</time></trkpt><trkpt lat="41.8116398" lon="1.6802011"><ele>797.0</ele><time>2026-04-25T09:20:52.919Z</time></trkpt><trkpt lat="41.8115298" lon="1.6799922"><ele>803.0</ele><time>2026-04-25T09:20:53.918Z</time></trkpt><trkpt lat="41.8114329" lon="1.6797511"><ele>803.0</ele><time>2026-04-25T09:20:54.92Z</time></trkpt><trkpt lat="41.811371" lon="1.6795215"><ele>803.0</ele><time>2026-04-25T09:20:55.919Z</time></trkpt><trkpt lat="41.811311" lon="1.6792406"><ele>803.0</ele><time>2026-04-25T09:20:56.922Z</time></trkpt><trkpt lat="41.8112568" lon="1.6789718"><ele>806.6666666666667</ele><time>2026-04-25T09:20:57.918Z</time></trkpt><trkpt lat="41.8112019" lon="1.6787237"><ele>810.3333333333333</ele><time>2026-04-25T09:20:58.917Z</time></trkpt><trkpt lat="41.8111268" lon="1.6784608"><ele>814.0</ele><time>2026-04-25T09:20:59.918Z</time></trkpt><trkpt lat="41.8110475" lon="1.6782564"><ele>815.6666666666666</ele><time>2026-04-25T09:21:00.923Z</time></trkpt><trkpt lat="41.810955" lon="1.6780686"><ele>817.3333333333333</ele><time>2026-04-25T09:21:01.919Z</time></trkpt><trkpt lat="41.810842" lon="1.6779024"><ele>819.0</ele><time>2026-04-25T09:21:02.918Z</time></trkpt><trkpt lat="41.8107233" lon="1.6777673"><ele>819.0</ele><time>2026-04-25T09:21:03.92Z</time></trkpt><trkpt lat="41.8105836" lon="1.6776196"><ele>819.0</ele><time>2026-04-25T09:21:04.92Z</time></trkpt><trkpt lat="41.8104311" lon="1.6774769"><ele>819.0</ele><time>2026-04-25T09:21:05.919Z</time></trkpt><trkpt lat="41.8102698" lon="1.6773515"><ele>819.3333333333333</ele><time>2026-04-25T09:21:06.921Z</time></trkpt><trkpt lat="41.8101017" lon="1.6772232"><ele>819.6666666666666</ele><time>2026-04-25T09:21:07.921Z</time></trkpt><trkpt lat="41.8099613" lon="1.6770882"><ele>820.0</ele><time>2026-04-25T09:21:08.92Z</time></trkpt><trkpt lat="41.8098242" lon="1.6769199"><ele>820.0</ele><time>2026-04-25T09:21:09.921Z</time></trkpt><trkpt lat="41.8096854" lon="1.6767256"><ele>820.0</ele><time>2026-04-25T09:21:10.922Z</time></trkpt><trkpt lat="41.8095674" lon="1.6765451"><ele>820.0</ele><time>2026-04-25T09:21:11.921Z</time></trkpt><trkpt lat="41.8094592" lon="1.676349"><ele>820.0</ele><time>2026-04-25T09:21:12.921Z</time></trkpt><trkpt lat="41.8093622" lon="1.6761385"><ele>820.0</ele><time>2026-04-25T09:21:13.921Z</time></trkpt><trkpt lat="41.8092861" lon="1.6759532"><ele>820.0</ele><time>2026-04-25T09:21:14.92Z</time></trkpt><trkpt lat="41.8092109" lon="1.6757376"><ele>819.4</ele><time>2026-04-25T09:21:15.917Z</time></trkpt><trkpt lat="41.8091628" lon="1.6755642"><ele>818.8</ele><time>2026-04-25T09:21:16.917Z</time></trkpt><trkpt lat="41.809128" lon="1.675413"><ele>818.2</ele><time>2026-04-25T09:21:17.919Z</time></trkpt><trkpt lat="41.8091042" lon="1.6752964"><ele>817.6</ele><time>2026-04-25T09:21:18.926Z</time></trkpt><trkpt lat="41.8090875" lon="1.6751743"><ele>817.0</ele><time>2026-04-25T09:21:20.92Z</time></trkpt><trkpt lat="41.8090601" lon="1.6750751"><ele>817.0</ele><time>2026-04-25T09:21:40.919Z</time></trkpt><trkpt lat="41.8090012" lon="1.6749119"><ele>817.0</ele><time>2026-04-25T09:21:42.919Z</time></trkpt><trkpt lat="41.8089789" lon="1.6748231"><ele>817.0</ele><time>2026-04-25T09:21:43.92Z</time></trkpt><trkpt lat="41.8089541" lon="1.6747157"><ele>817.0</ele><time>2026-04-25T09:21:44.92Z</time></trkpt><trkpt lat="41.808924" lon="1.6745849"><ele>817.0</ele><time>2026-04-25T09:21:45.92Z</time></trkpt><trkpt lat="41.8088932" lon="1.6744557"><ele>819.75</ele><time>2026-04-25T09:21:46.92Z</time></trkpt><trkpt lat="41.8088523" lon="1.6743121"><ele>822.5</ele><time>2026-04-25T09:21:47.919Z</time></trkpt><trkpt lat="41.8088077" lon="1.6741626"><ele>825.25</ele><time>2026-04-25T09:21:48.919Z</time></trkpt><trkpt lat="41.8087585" lon="1.674013"><ele>828.0</ele><time>2026-04-25T09:21:49.919Z</time></trkpt><trkpt lat="41.8087077" lon="1.6738598"><ele>828.0</ele><time>2026-04-25T09:21:50.921Z</time></trkpt><trkpt lat="41.8086553" lon="1.6737052"><ele>828.0</ele><time>2026-04-25T09:21:51.919Z</time></trkpt><trkpt lat="41.8086028" lon="1.6735478"><ele>828.0</ele><time>2026-04-25T09:21:52.918Z</time></trkpt><trkpt lat="41.8085507" lon="1.6733961"><ele>828.0</ele><time>2026-04-25T09:21:53.919Z</time></trkpt><trkpt lat="41.8085008" lon="1.6732536"><ele>827.5999999999999</ele><time>2026-04-25T09:21:54.918Z</time></trkpt><trkpt lat="41.8084535" lon="1.6731167"><ele>827.1999999999999</ele><time>2026-04-25T09:21:55.918Z</time></trkpt><trkpt lat="41.8084107" lon="1.6729876"><ele>826.8</ele><time>2026-04-25T09:21:56.919Z</time></trkpt><trkpt lat="41.8083735" lon="1.6728602"><ele>826.4</ele><time>2026-04-25T09:21:57.919Z</time></trkpt><trkpt lat="41.8083378" lon="1.6727221"><ele>826.0</ele><time>2026-04-25T09:21:58.92Z</time></trkpt><trkpt lat="41.8083118" lon="1.6725931"><ele>826.0</ele><time>2026-04-25T09:21:59.919Z</time></trkpt><trkpt lat="41.8082941" lon="1.6724496"><ele>826.0</ele><time>2026-04-25T09:22:00.919Z</time></trkpt><trkpt lat="41.8082893" lon="1.6722891"><ele>826.0</ele><time>2026-04-25T09:22:01.92Z</time></trkpt><trkpt lat="41.8082937" lon="1.6721445"><ele>826.0</ele><time>2026-04-25T09:22:02.919Z</time></trkpt><trkpt lat="41.8082947" lon="1.6719864"><ele>827.25</ele><time>2026-04-25T09:22:03.919Z</time></trkpt><trkpt lat="41.8082916" lon="1.6718225"><ele>828.5</ele><time>2026-04-25T09:22:04.919Z</time></trkpt><trkpt lat="41.8082878" lon="1.6716496"><ele>829.75</ele><time>2026-04-25T09:22:05.918Z</time></trkpt><trkpt lat="41.8082869" lon="1.6714591"><ele>831.0</ele><time>2026-04-25T09:22:06.917Z</time></trkpt><trkpt lat="41.8082929" lon="1.6712889"><ele>831.0</ele><time>2026-04-25T09:22:07.919Z</time></trkpt><trkpt lat="41.8083088" lon="1.6711095"><ele>831.0</ele><time>2026-04-25T09:22:08.919Z</time></trkpt><trkpt lat="41.8083246" lon="1.6709351"><ele>831.0</ele><time>2026-04-25T09:22:09.919Z</time></trkpt><trkpt lat="41.8083309" lon="1.6707651"><ele>831.0</ele><time>2026-04-25T09:22:10.918Z</time></trkpt><trkpt lat="41.8083292" lon="1.670598"><ele>831.75</ele><time>2026-04-25T09:22:11.92Z</time></trkpt><trkpt lat="41.8083209" lon="1.6704346"><ele>832.5</ele><time>2026-04-25T09:22:12.92Z</time></trkpt><trkpt lat="41.8083073" lon="1.6702694"><ele>833.25</ele><time>2026-04-25T09:22:13.919Z</time></trkpt><trkpt lat="41.808289" lon="1.6700994"><ele>834.0</ele><time>2026-04-25T09:22:14.917Z</time></trkpt><trkpt lat="41.8082653" lon="1.6699232"><ele>835.5</ele><time>2026-04-25T09:22:15.919Z</time></trkpt><trkpt lat="41.8082377" lon="1.6697426"><ele>837.0</ele><time>2026-04-25T09:22:16.918Z</time></trkpt><trkpt lat="41.8082004" lon="1.6695444"><ele>838.5</ele><time>2026-04-25T09:22:17.919Z</time></trkpt><trkpt lat="41.8081519" lon="1.6693612"><ele>840.0</ele><time>2026-04-25T09:22:18.918Z</time></trkpt><trkpt lat="41.8080882" lon="1.6691548"><ele>839.6666666666667</ele><time>2026-04-25T09:22:19.92Z</time></trkpt><trkpt lat="41.8080191" lon="1.668939"><ele>839.3333333333334</ele><time>2026-04-25T09:22:20.919Z</time></trkpt><trkpt lat="41.8079503" lon="1.6687204"><ele>839.0</ele><time>2026-04-25T09:22:21.92Z</time></trkpt><trkpt lat="41.8078858" lon="1.668495"><ele>839.0</ele><time>2026-04-25T09:22:22.92Z</time></trkpt><trkpt lat="41.8078417" lon="1.6682992"><ele>839.0</ele><time>2026-04-25T09:22:23.918Z</time></trkpt><trkpt lat="41.8078028" lon="1.6680917"><ele>839.0</ele><time>2026-04-25T09:22:24.918Z</time></trkpt><trkpt lat="41.8077752" lon="1.667898"><ele>836.75</ele><time>2026-04-25T09:22:25.919Z</time></trkpt><trkpt lat="41.8077505" lon="1.6676867"><ele>834.5</ele><time>2026-04-25T09:22:26.92Z</time></trkpt><trkpt lat="41.8077263" lon="1.667498"><ele>832.25</ele><time>2026-04-25T09:22:27.92Z</time></trkpt><trkpt lat="41.8076999" lon="1.6673225"><ele>830.0</ele><time>2026-04-25T09:22:28.921Z</time></trkpt><trkpt lat="41.8076693" lon="1.6671579"><ele>834.75</ele><time>2026-04-25T09:22:29.92Z</time></trkpt><trkpt lat="41.8076316" lon="1.6670118"><ele>839.5</ele><time>2026-04-25T09:22:30.919Z</time></trkpt><trkpt lat="41.8075823" lon="1.6668767"><ele>844.25</ele><time>2026-04-25T09:22:31.921Z</time></trkpt><trkpt lat="41.8075144" lon="1.6667447"><ele>849.0</ele><time>2026-04-25T09:22:32.921Z</time></trkpt><trkpt lat="41.8074219" lon="1.6666024"><ele>849.0</ele><time>2026-04-25T09:22:33.92Z</time></trkpt><trkpt lat="41.8073323" lon="1.6664726"><ele>849.0</ele><time>2026-04-25T09:22:34.916Z</time></trkpt><trkpt lat="41.8072334" lon="1.6663269"><ele>849.0</ele><time>2026-04-25T09:22:35.92Z</time></trkpt><trkpt lat="41.807133" lon="1.666171"><ele>849.0</ele><time>2026-04-25T09:22:36.917Z</time></trkpt><trkpt lat="41.8070323" lon="1.6660097"><ele>847.0</ele><time>2026-04-25T09:22:37.92Z</time></trkpt><trkpt lat="41.8069316" lon="1.6658422"><ele>845.0</ele><time>2026-04-25T09:22:38.917Z</time></trkpt><trkpt lat="41.8068332" lon="1.6656757"><ele>843.0</ele><time>2026-04-25T09:22:39.918Z</time></trkpt><trkpt lat="41.8067369" lon="1.6655131"><ele>846.0</ele><time>2026-04-25T09:22:40.916Z</time></trkpt><trkpt lat="41.8066498" lon="1.6653649"><ele>849.0</ele><time>2026-04-25T09:22:41.918Z</time></trkpt><trkpt lat="41.8065568" lon="1.665199"><ele>852.0</ele><time>2026-04-25T09:22:42.917Z</time></trkpt><trkpt lat="41.8064801" lon="1.6650437"><ele>855.0</ele><time>2026-04-25T09:22:43.919Z</time></trkpt><trkpt lat="41.8064199" lon="1.6648825"><ele>855.0</ele><time>2026-04-25T09:22:44.918Z</time></trkpt><trkpt lat="41.8063822" lon="1.6647207"><ele>855.0</ele><time>2026-04-25T09:22:45.918Z</time></trkpt><trkpt lat="41.8063644" lon="1.6645408"><ele>855.0</ele><time>2026-04-25T09:22:46.918Z</time></trkpt><trkpt lat="41.8063612" lon="1.6643797"><ele>855.0</ele><time>2026-04-25T09:22:47.918Z</time></trkpt><trkpt lat="41.8063598" lon="1.6641991"><ele>855.0</ele><time>2026-04-25T09:22:48.917Z</time></trkpt><trkpt lat="41.8063605" lon="1.6639955"><ele>855.0</ele><time>2026-04-25T09:22:49.92Z</time></trkpt><trkpt lat="41.8063633" lon="1.6638075"><ele>855.0</ele><time>2026-04-25T09:22:50.919Z</time></trkpt><trkpt lat="41.8063666" lon="1.6635998"><ele>855.0</ele><time>2026-04-25T09:22:51.918Z</time></trkpt><trkpt lat="41.8063724" lon="1.6633919"><ele>854.5</ele><time>2026-04-25T09:22:52.917Z</time></trkpt><trkpt lat="41.8063764" lon="1.66319"><ele>854.0</ele><time>2026-04-25T09:22:53.919Z</time></trkpt><trkpt lat="41.8063841" lon="1.6629923"><ele>853.5</ele><time>2026-04-25T09:22:54.918Z</time></trkpt><trkpt lat="41.8064066" lon="1.6627944"><ele>853.0</ele><time>2026-04-25T09:22:55.918Z</time></trkpt><trkpt lat="41.8064447" lon="1.6625915"><ele>855.0</ele><time>2026-04-25T09:22:56.919Z</time></trkpt><trkpt lat="41.8064863" lon="1.6623973"><ele>857.0</ele><time>2026-04-25T09:22:57.916Z</time></trkpt><trkpt lat="41.8065336" lon="1.6621775"><ele>859.0</ele><time>2026-04-25T09:22:58.918Z</time></trkpt><trkpt lat="41.8065698" lon="1.6619766"><ele>860.6666666666666</ele><time>2026-04-25T09:22:59.919Z</time></trkpt><trkpt lat="41.806593" lon="1.6617765"><ele>862.3333333333333</ele><time>2026-04-25T09:23:00.918Z</time></trkpt><trkpt lat="41.8065971" lon="1.6615753"><ele>864.0</ele><time>2026-04-25T09:23:01.916Z</time></trkpt><trkpt lat="41.8065782" lon="1.6613537"><ele>864.0</ele><time>2026-04-25T09:23:02.917Z</time></trkpt><trkpt lat="41.8065416" lon="1.661156"><ele>864.0</ele><time>2026-04-25T09:23:03.917Z</time></trkpt><trkpt lat="41.8064917" lon="1.6609417"><ele>864.0</ele><time>2026-04-25T09:23:04.919Z</time></trkpt><trkpt lat="41.8064356" lon="1.6607275"><ele>866.0</ele><time>2026-04-25T09:23:05.917Z</time></trkpt><trkpt lat="41.8063792" lon="1.6605232"><ele>868.0</ele><time>2026-04-25T09:23:06.919Z</time></trkpt><trkpt lat="41.8063195" lon="1.6603287"><ele>870.0</ele><time>2026-04-25T09:23:07.917Z</time></trkpt><trkpt lat="41.8062486" lon="1.6601427"><ele>870.0</ele><time>2026-04-25T09:23:08.917Z</time></trkpt><trkpt lat="41.8061636" lon="1.6599636"><ele>870.0</ele><time>2026-04-25T09:23:09.918Z</time></trkpt><trkpt lat="41.8060644" lon="1.6597752"><ele>870.0</ele><time>2026-04-25T09:23:10.918Z</time></trkpt><trkpt lat="41.8059753" lon="1.6596057"><ele>875.0</ele><time>2026-04-25T09:23:11.92Z</time></trkpt><trkpt lat="41.8058802" lon="1.6594272"><ele>880.0</ele><time>2026-04-25T09:23:12.918Z</time></trkpt><trkpt lat="41.8057814" lon="1.6592491"><ele>885.0</ele><time>2026-04-25T09:23:13.919Z</time></trkpt><trkpt lat="41.805683" lon="1.6590695"><ele>885.0</ele><time>2026-04-25T09:23:14.919Z</time></trkpt><trkpt lat="41.8055884" lon="1.6588978"><ele>885.0</ele><time>2026-04-25T09:23:15.919Z</time></trkpt><trkpt lat="41.8055012" lon="1.6587365"><ele>885.0</ele><time>2026-04-25T09:23:16.918Z</time></trkpt><trkpt lat="41.8054107" lon="1.658595"><ele>885.0</ele><time>2026-04-25T09:23:17.917Z</time></trkpt><trkpt lat="41.8053118" lon="1.6584566"><ele>885.0</ele><time>2026-04-25T09:23:18.917Z</time></trkpt><trkpt lat="41.8051997" lon="1.6583245"><ele>885.0</ele><time>2026-04-25T09:23:19.918Z</time></trkpt><trkpt lat="41.8050805" lon="1.6581887"><ele>885.0</ele><time>2026-04-25T09:23:20.918Z</time></trkpt><trkpt lat="41.8049579" lon="1.6580372"><ele>885.0</ele><time>2026-04-25T09:23:21.919Z</time></trkpt><trkpt lat="41.8048317" lon="1.657876"><ele>885.0</ele><time>2026-04-25T09:23:22.919Z</time></trkpt><trkpt lat="41.8047075" lon="1.6577146"><ele>885.0</ele><time>2026-04-25T09:23:23.917Z</time></trkpt><trkpt lat="41.8045891" lon="1.6575662"><ele>884.0</ele><time>2026-04-25T09:23:24.919Z</time></trkpt><trkpt lat="41.8044696" lon="1.6574261"><ele>883.0</ele><time>2026-04-25T09:23:25.918Z</time></trkpt><trkpt lat="41.804336" lon="1.6572803"><ele>882.0</ele><time>2026-04-25T09:23:26.918Z</time></trkpt><trkpt lat="41.8042063" lon="1.6571455"><ele>882.0</ele><time>2026-04-25T09:23:27.918Z</time></trkpt><trkpt lat="41.8040596" lon="1.6569913"><ele>882.0</ele><time>2026-04-25T09:23:28.919Z</time></trkpt><trkpt lat="41.8039075" lon="1.6568292"><ele>882.0</ele><time>2026-04-25T09:23:29.919Z</time></trkpt><trkpt lat="41.8037546" lon="1.6566643"><ele>880.6666666666667</ele><time>2026-04-25T09:23:30.919Z</time></trkpt><trkpt lat="41.8036052" lon="1.6564981"><ele>879.3333333333334</ele><time>2026-04-25T09:23:31.919Z</time></trkpt><trkpt lat="41.8034649" lon="1.6563259"><ele>878.0</ele><time>2026-04-25T09:23:32.917Z</time></trkpt><trkpt lat="41.8033402" lon="1.6561454"><ele>881.0</ele><time>2026-04-25T09:23:33.92Z</time></trkpt><trkpt lat="41.8032353" lon="1.6559546"><ele>884.0</ele><time>2026-04-25T09:23:34.919Z</time></trkpt><trkpt lat="41.8031506" lon="1.6557486"><ele>887.0</ele><time>2026-04-25T09:23:35.918Z</time></trkpt><trkpt lat="41.8030826" lon="1.6555304"><ele>887.0</ele><time>2026-04-25T09:23:36.92Z</time></trkpt><trkpt lat="41.8030153" lon="1.655308"><ele>887.0</ele><time>2026-04-25T09:23:37.92Z</time></trkpt><trkpt lat="41.8029307" lon="1.6550934"><ele>887.0</ele><time>2026-04-25T09:23:38.917Z</time></trkpt><trkpt lat="41.8028333" lon="1.6548807"><ele>890.3333333333334</ele><time>2026-04-25T09:23:39.916Z</time></trkpt><trkpt lat="41.8027408" lon="1.654661"><ele>893.6666666666667</ele><time>2026-04-25T09:23:40.916Z</time></trkpt><trkpt lat="41.8026659" lon="1.6544283"><ele>897.0</ele><time>2026-04-25T09:23:41.918Z</time></trkpt><trkpt lat="41.8025915" lon="1.654174"><ele>897.0</ele><time>2026-04-25T09:23:42.922Z</time></trkpt><trkpt lat="41.8025279" lon="1.6539437"><ele>897.0</ele><time>2026-04-25T09:23:43.917Z</time></trkpt><trkpt lat="41.8024632" lon="1.6537052"><ele>897.0</ele><time>2026-04-25T09:23:44.92Z</time></trkpt><trkpt lat="41.8024087" lon="1.6534911"><ele>894.3333333333333</ele><time>2026-04-25T09:23:45.917Z</time></trkpt><trkpt lat="41.8023572" lon="1.653256"><ele>891.6666666666666</ele><time>2026-04-25T09:23:46.919Z</time></trkpt><trkpt lat="41.802323" lon="1.6530347"><ele>889.0</ele><time>2026-04-25T09:23:47.919Z</time></trkpt><trkpt lat="41.8023059" lon="1.6528069"><ele>888.0</ele><time>2026-04-25T09:23:48.916Z</time></trkpt><trkpt lat="41.8023034" lon="1.6525694"><ele>887.0</ele><time>2026-04-25T09:23:49.918Z</time></trkpt><trkpt lat="41.8023033" lon="1.6523256"><ele>886.0</ele><time>2026-04-25T09:23:50.919Z</time></trkpt><trkpt lat="41.8022947" lon="1.6520873"><ele>886.0</ele><time>2026-04-25T09:23:51.919Z</time></trkpt><trkpt lat="41.8022765" lon="1.6518598"><ele>886.0</ele><time>2026-04-25T09:23:52.918Z</time></trkpt><trkpt lat="41.8022691" lon="1.6516319"><ele>886.0</ele><time>2026-04-25T09:23:53.919Z</time></trkpt><trkpt lat="41.8022804" lon="1.6513981"><ele>886.0</ele><time>2026-04-25T09:23:54.917Z</time></trkpt><trkpt lat="41.8023042" lon="1.6511551"><ele>886.0</ele><time>2026-04-25T09:23:55.92Z</time></trkpt><trkpt lat="41.8023336" lon="1.6509034"><ele>886.0</ele><time>2026-04-25T09:23:56.918Z</time></trkpt><trkpt lat="41.8023649" lon="1.6506542"><ele>886.6666666666666</ele><time>2026-04-25T09:23:57.926Z</time></trkpt><trkpt lat="41.8023931" lon="1.6504146"><ele>887.3333333333333</ele><time>2026-04-25T09:23:58.919Z</time></trkpt><trkpt lat="41.8024011" lon="1.6501915"><ele>888.0</ele><time>2026-04-25T09:23:59.917Z</time></trkpt><trkpt lat="41.8023838" lon="1.6499726"><ele>888.3333333333333</ele><time>2026-04-25T09:24:00.918Z</time></trkpt><trkpt lat="41.8023465" lon="1.6497691"><ele>888.6666666666666</ele><time>2026-04-25T09:24:01.92Z</time></trkpt><trkpt lat="41.8022871" lon="1.6495461"><ele>889.0</ele><time>2026-04-25T09:24:02.917Z</time></trkpt><trkpt lat="41.802212" lon="1.649348"><ele>889.6666666666666</ele><time>2026-04-25T09:24:03.919Z</time></trkpt><trkpt lat="41.8021137" lon="1.6491714"><ele>890.3333333333333</ele><time>2026-04-25T09:24:04.918Z</time></trkpt><trkpt lat="41.801994" lon="1.649024"><ele>891.0</ele><time>2026-04-25T09:24:05.917Z</time></trkpt><trkpt lat="41.8018631" lon="1.6489161"><ele>891.0</ele><time>2026-04-25T09:24:06.917Z</time></trkpt><trkpt lat="41.8017327" lon="1.6488212"><ele>891.0</ele><time>2026-04-25T09:24:07.917Z</time></trkpt><trkpt lat="41.8016087" lon="1.6487114"><ele>891.0</ele><time>2026-04-25T09:24:08.919Z</time></trkpt><trkpt lat="41.8014914" lon="1.6485825"><ele>891.0</ele><time>2026-04-25T09:24:09.918Z</time></trkpt><trkpt lat="41.8013807" lon="1.648446"><ele>893.5</ele><time>2026-04-25T09:24:10.918Z</time></trkpt><trkpt lat="41.8012809" lon="1.6482785"><ele>896.0</ele><time>2026-04-25T09:24:11.909Z</time></trkpt><trkpt lat="41.8011788" lon="1.6481418"><ele>898.5</ele><time>2026-04-25T09:24:12.908Z</time></trkpt><trkpt lat="41.8010753" lon="1.6480199"><ele>901.0</ele><time>2026-04-25T09:24:13.909Z</time></trkpt><trkpt lat="41.8009567" lon="1.6479197"><ele>901.0</ele><time>2026-04-25T09:24:14.909Z</time></trkpt><trkpt lat="41.8008212" lon="1.6478292"><ele>901.0</ele><time>2026-04-25T09:24:15.908Z</time></trkpt><trkpt lat="41.8006901" lon="1.6477367"><ele>901.0</ele><time>2026-04-25T09:24:16.91Z</time></trkpt><trkpt lat="41.8005694" lon="1.6476247"><ele>901.0</ele><time>2026-04-25T09:24:17.909Z</time></trkpt><trkpt lat="41.8004687" lon="1.6474845"><ele>890.0</ele><time>2026-04-25T09:24:18.909Z</time></trkpt><trkpt lat="41.8003874" lon="1.647304"><ele>879.0</ele><time>2026-04-25T09:24:19.91Z</time></trkpt><trkpt lat="41.800316" lon="1.6471001"><ele>868.0</ele><time>2026-04-25T09:24:20.909Z</time></trkpt><trkpt lat="41.8002371" lon="1.6468877"><ele>873.6666666666666</ele><time>2026-04-25T09:24:21.91Z</time></trkpt><trkpt lat="41.8001541" lon="1.6466747"><ele>879.3333333333333</ele><time>2026-04-25T09:24:22.909Z</time></trkpt><trkpt lat="41.8000789" lon="1.6464595"><ele>885.0</ele><time>2026-04-25T09:24:23.909Z</time></trkpt><trkpt lat="41.8000122" lon="1.6462439"><ele>878.6666666666667</ele><time>2026-04-25T09:24:24.909Z</time></trkpt><trkpt lat="41.7999575" lon="1.6460188"><ele>872.3333333333334</ele><time>2026-04-25T09:24:25.908Z</time></trkpt><trkpt lat="41.7999115" lon="1.6457852"><ele>866.0</ele><time>2026-04-25T09:24:26.909Z</time></trkpt><trkpt lat="41.7998637" lon="1.6455442"><ele>866.0</ele><time>2026-04-25T09:24:27.909Z</time></trkpt><trkpt lat="41.7998193" lon="1.6452983"><ele>866.0</ele><time>2026-04-25T09:24:28.909Z</time></trkpt><trkpt lat="41.7997751" lon="1.6450539"><ele>866.0</ele><time>2026-04-25T09:24:29.909Z</time></trkpt><trkpt lat="41.7997324" lon="1.6448059"><ele>860.6666666666667</ele><time>2026-04-25T09:24:30.91Z</time></trkpt><trkpt lat="41.7996919" lon="1.6445631"><ele>855.3333333333333</ele><time>2026-04-25T09:24:31.91Z</time></trkpt><trkpt lat="41.7996542" lon="1.6443428"><ele>850.0</ele><time>2026-04-25T09:24:32.909Z</time></trkpt><trkpt lat="41.7996238" lon="1.6441336"><ele>849.3333333333333</ele><time>2026-04-25T09:24:33.909Z</time></trkpt><trkpt lat="41.7996153" lon="1.6439066"><ele>848.6666666666667</ele><time>2026-04-25T09:24:34.909Z</time></trkpt><trkpt lat="41.7996227" lon="1.6436739"><ele>848.0</ele><time>2026-04-25T09:24:35.909Z</time></trkpt><trkpt lat="41.7996312" lon="1.6434393"><ele>848.0</ele><time>2026-04-25T09:24:36.91Z</time></trkpt><trkpt lat="41.7996362" lon="1.6432031"><ele>848.0</ele><time>2026-04-25T09:24:37.91Z</time></trkpt><trkpt lat="41.799638" lon="1.6429736"><ele>848.0</ele><time>2026-04-25T09:24:38.909Z</time></trkpt><trkpt lat="41.7996474" lon="1.642755"><ele>851.0</ele><time>2026-04-25T09:24:39.909Z</time></trkpt><trkpt lat="41.799677" lon="1.6425493"><ele>854.0</ele><time>2026-04-25T09:24:40.909Z</time></trkpt><trkpt lat="41.7997315" lon="1.6423519"><ele>857.0</ele><time>2026-04-25T09:24:41.908Z</time></trkpt><trkpt lat="41.7997925" lon="1.6421537"><ele>859.0</ele><time>2026-04-25T09:24:42.908Z</time></trkpt><trkpt lat="41.7998571" lon="1.6419587"><ele>861.0</ele><time>2026-04-25T09:24:43.909Z</time></trkpt><trkpt lat="41.7999069" lon="1.6417707"><ele>863.0</ele><time>2026-04-25T09:24:44.908Z</time></trkpt><trkpt lat="41.7999491" lon="1.6415981"><ele>865.0</ele><time>2026-04-25T09:24:45.91Z</time></trkpt><trkpt lat="41.8000025" lon="1.6414214"><ele>865.0</ele><time>2026-04-25T09:24:46.909Z</time></trkpt><trkpt lat="41.800059" lon="1.6412488"><ele>865.0</ele><time>2026-04-25T09:24:47.908Z</time></trkpt><trkpt lat="41.8000889" lon="1.6410758"><ele>865.0</ele><time>2026-04-25T09:24:48.909Z</time></trkpt><trkpt lat="41.8000837" lon="1.6408904"><ele>865.0</ele><time>2026-04-25T09:24:49.908Z</time></trkpt><trkpt lat="41.8000385" lon="1.640713"><ele>865.0</ele><time>2026-04-25T09:24:50.909Z</time></trkpt><trkpt lat="41.7999801" lon="1.6405286"><ele>865.0</ele><time>2026-04-25T09:24:51.909Z</time></trkpt><trkpt lat="41.7999354" lon="1.6403359"><ele>865.0</ele><time>2026-04-25T09:24:52.91Z</time></trkpt><trkpt lat="41.7999073" lon="1.6401467"><ele>865.0</ele><time>2026-04-25T09:24:53.909Z</time></trkpt><trkpt lat="41.7998869" lon="1.6399621"><ele>864.5</ele><time>2026-04-25T09:24:54.91Z</time></trkpt><trkpt lat="41.7998548" lon="1.6397905"><ele>864.0</ele><time>2026-04-25T09:24:55.909Z</time></trkpt><trkpt lat="41.7997966" lon="1.6396138"><ele>863.5</ele><time>2026-04-25T09:24:56.909Z</time></trkpt><trkpt lat="41.7997167" lon="1.6394282"><ele>863.0</ele><time>2026-04-25T09:24:57.909Z</time></trkpt><trkpt lat="41.799629" lon="1.6392296"><ele>859.6666666666667</ele><time>2026-04-25T09:24:58.909Z</time></trkpt><trkpt lat="41.7995398" lon="1.6390168"><ele>856.3333333333333</ele><time>2026-04-25T09:24:59.908Z</time></trkpt><trkpt lat="41.7994478" lon="1.6387982"><ele>853.0</ele><time>2026-04-25T09:25:00.909Z</time></trkpt><trkpt lat="41.799355" lon="1.6385795"><ele>861.0</ele><time>2026-04-25T09:25:01.909Z</time></trkpt><trkpt lat="41.7992652" lon="1.6383591"><ele>869.0</ele><time>2026-04-25T09:25:02.91Z</time></trkpt><trkpt lat="41.7991752" lon="1.6381432"><ele>877.0</ele><time>2026-04-25T09:25:03.909Z</time></trkpt><trkpt lat="41.7990888" lon="1.6379317"><ele>874.0</ele><time>2026-04-25T09:25:04.909Z</time></trkpt><trkpt lat="41.7990012" lon="1.6377233"><ele>871.0</ele><time>2026-04-25T09:25:05.909Z</time></trkpt><trkpt lat="41.7989109" lon="1.6375196"><ele>868.0</ele><time>2026-04-25T09:25:06.91Z</time></trkpt><trkpt lat="41.7988138" lon="1.6373218"><ele>868.0</ele><time>2026-04-25T09:25:07.91Z</time></trkpt><trkpt lat="41.7987129" lon="1.6371273"><ele>868.0</ele><time>2026-04-25T09:25:08.91Z</time></trkpt><trkpt lat="41.7986133" lon="1.6369361"><ele>868.0</ele><time>2026-04-25T09:25:09.909Z</time></trkpt><trkpt lat="41.798525" lon="1.6367511"><ele>872.0</ele><time>2026-04-25T09:25:10.909Z</time></trkpt><trkpt lat="41.7984446" lon="1.6365626"><ele>876.0</ele><time>2026-04-25T09:25:11.908Z</time></trkpt><trkpt lat="41.7983798" lon="1.6363644"><ele>880.0</ele><time>2026-04-25T09:25:12.909Z</time></trkpt><trkpt lat="41.7983331" lon="1.6361576"><ele>877.3333333333333</ele><time>2026-04-25T09:25:13.908Z</time></trkpt><trkpt lat="41.7982995" lon="1.63594"><ele>874.6666666666667</ele><time>2026-04-25T09:25:14.909Z</time></trkpt><trkpt lat="41.7982866" lon="1.6357121"><ele>872.0</ele><time>2026-04-25T09:25:15.91Z</time></trkpt><trkpt lat="41.7982861" lon="1.6354889"><ele>871.5</ele><time>2026-04-25T09:25:16.91Z</time></trkpt><trkpt lat="41.7982965" lon="1.6352792"><ele>871.0</ele><time>2026-04-25T09:25:17.91Z</time></trkpt><trkpt lat="41.7983224" lon="1.6350903"><ele>870.5</ele><time>2026-04-25T09:25:18.909Z</time></trkpt><trkpt lat="41.7983657" lon="1.6349288"><ele>870.0</ele><time>2026-04-25T09:25:19.909Z</time></trkpt><trkpt lat="41.7984278" lon="1.634794"><ele>867.5</ele><time>2026-04-25T09:25:20.908Z</time></trkpt><trkpt lat="41.7985111" lon="1.6346812"><ele>865.0</ele><time>2026-04-25T09:25:21.909Z</time></trkpt><trkpt lat="41.7986098" lon="1.6345708"><ele>862.5</ele><time>2026-04-25T09:25:22.909Z</time></trkpt><trkpt lat="41.7986993" lon="1.6344268"><ele>860.0</ele><time>2026-04-25T09:25:23.91Z</time></trkpt><trkpt lat="41.7987807" lon="1.6342627"><ele>860.0</ele><time>2026-04-25T09:25:24.909Z</time></trkpt><trkpt lat="41.7988642" lon="1.6340937"><ele>860.0</ele><time>2026-04-25T09:25:25.91Z</time></trkpt><trkpt lat="41.7989585" lon="1.6339412"><ele>860.0</ele><time>2026-04-25T09:25:26.91Z</time></trkpt><trkpt lat="41.7990576" lon="1.6338173"><ele>860.0</ele><time>2026-04-25T09:25:27.909Z</time></trkpt><trkpt lat="41.7991597" lon="1.6337162"><ele>861.6</ele><time>2026-04-25T09:25:28.91Z</time></trkpt><trkpt lat="41.7992458" lon="1.6336266"><ele>863.2</ele><time>2026-04-25T09:25:29.909Z</time></trkpt><trkpt lat="41.7993061" lon="1.6335244"><ele>864.8</ele><time>2026-04-25T09:25:30.909Z</time></trkpt><trkpt lat="41.7993352" lon="1.6334023"><ele>866.4</ele><time>2026-04-25T09:25:31.908Z</time></trkpt><trkpt lat="41.7993299" lon="1.6332705"><ele>868.0</ele><time>2026-04-25T09:25:32.909Z</time></trkpt><trkpt lat="41.7992948" lon="1.6331248"><ele>868.0</ele><time>2026-04-25T09:25:33.909Z</time></trkpt><trkpt lat="41.7992442" lon="1.6329678"><ele>868.0</ele><time>2026-04-25T09:25:34.909Z</time></trkpt><trkpt lat="41.7991803" lon="1.632799"><ele>868.0</ele><time>2026-04-25T09:25:35.908Z</time></trkpt><trkpt lat="41.7991103" lon="1.6326294"><ele>868.0</ele><time>2026-04-25T09:25:36.909Z</time></trkpt><trkpt lat="41.7990389" lon="1.6324545"><ele>868.75</ele><time>2026-04-25T09:25:37.91Z</time></trkpt><trkpt lat="41.7989855" lon="1.6322872"><ele>869.5</ele><time>2026-04-25T09:25:38.909Z</time></trkpt><trkpt lat="41.7989681" lon="1.6321283"><ele>870.25</ele><time>2026-04-25T09:25:39.909Z</time></trkpt><trkpt lat="41.7989826" lon="1.6319633"><ele>871.0</ele><time>2026-04-25T09:25:40.909Z</time></trkpt><trkpt lat="41.7990253" lon="1.6318113"><ele>871.0</ele><time>2026-04-25T09:25:41.908Z</time></trkpt><trkpt lat="41.7990595" lon="1.6316693"><ele>871.0</ele><time>2026-04-25T09:25:42.909Z</time></trkpt><trkpt lat="41.7990685" lon="1.6315193"><ele>871.0</ele><time>2026-04-25T09:25:43.909Z</time></trkpt><trkpt lat="41.7990406" lon="1.6313676"><ele>871.0</ele><time>2026-04-25T09:25:44.909Z</time></trkpt><trkpt lat="41.7989798" lon="1.6312176"><ele>872.25</ele><time>2026-04-25T09:25:45.909Z</time></trkpt><trkpt lat="41.7989014" lon="1.6310753"><ele>873.5</ele><time>2026-04-25T09:25:46.909Z</time></trkpt><trkpt lat="41.7988099" lon="1.630952"><ele>874.75</ele><time>2026-04-25T09:25:47.908Z</time></trkpt><trkpt lat="41.7987254" lon="1.6308441"><ele>876.0</ele><time>2026-04-25T09:25:48.909Z</time></trkpt><trkpt lat="41.7986661" lon="1.630735"><ele>876.0</ele><time>2026-04-25T09:25:49.909Z</time></trkpt><trkpt lat="41.7986363" lon="1.6306209"><ele>875.9999999999999</ele><time>2026-04-25T09:25:50.91Z</time></trkpt><trkpt lat="41.7986379" lon="1.6304909"><ele>875.9999999999999</ele><time>2026-04-25T09:25:51.91Z</time></trkpt><trkpt lat="41.7986569" lon="1.6303541"><ele>876.0</ele><time>2026-04-25T09:25:52.909Z</time></trkpt><trkpt lat="41.7986722" lon="1.6302076"><ele>876.0</ele><time>2026-04-25T09:25:53.91Z</time></trkpt><trkpt lat="41.7986685" lon="1.6300524"><ele>876.8</ele><time>2026-04-25T09:25:54.91Z</time></trkpt><trkpt lat="41.7986599" lon="1.6299037"><ele>877.5999999999999</ele><time>2026-04-25T09:25:55.91Z</time></trkpt><trkpt lat="41.7986423" lon="1.6297757"><ele>878.4</ele><time>2026-04-25T09:25:56.908Z</time></trkpt><trkpt lat="41.7986099" lon="1.6296716"><ele>879.2</ele><time>2026-04-25T09:25:57.909Z</time></trkpt><trkpt lat="41.7985593" lon="1.6295867"><ele>880.0</ele><time>2026-04-25T09:25:58.909Z</time></trkpt><trkpt lat="41.7984981" lon="1.6295113"><ele>879.0</ele><time>2026-04-25T09:25:59.91Z</time></trkpt><trkpt lat="41.7984305" lon="1.629462"><ele>878.0</ele><time>2026-04-25T09:26:00.908Z</time></trkpt><trkpt lat="41.7983425" lon="1.6294235"><ele>877.0</ele><time>2026-04-25T09:26:01.908Z</time></trkpt><trkpt lat="41.798245" lon="1.6293858"><ele>876.0</ele><time>2026-04-25T09:26:02.908Z</time></trkpt><trkpt lat="41.7981426" lon="1.6293871"><ele>875.0</ele><time>2026-04-25T09:26:03.908Z</time></trkpt><trkpt lat="41.7980439" lon="1.6294248"><ele>874.5</ele><time>2026-04-25T09:26:04.909Z</time></trkpt><trkpt lat="41.7979423" lon="1.6294795"><ele>874.0</ele><time>2026-04-25T09:26:05.91Z</time></trkpt><trkpt lat="41.7978296" lon="1.6294896"><ele>873.5</ele><time>2026-04-25T09:26:06.909Z</time></trkpt><trkpt lat="41.797712" lon="1.6294799"><ele>873.0</ele><time>2026-04-25T09:26:07.909Z</time></trkpt><trkpt lat="41.7975961" lon="1.6294501"><ele>873.0</ele><time>2026-04-25T09:26:08.909Z</time></trkpt><trkpt lat="41.7974797" lon="1.6293894"><ele>873.0</ele><time>2026-04-25T09:26:09.909Z</time></trkpt><trkpt lat="41.7973642" lon="1.6293174"><ele>873.0</ele><time>2026-04-25T09:26:10.908Z</time></trkpt><trkpt lat="41.7972625" lon="1.6292443"><ele>873.0</ele><time>2026-04-25T09:26:11.908Z</time></trkpt><trkpt lat="41.7971864" lon="1.6291615"><ele>873.0</ele><time>2026-04-25T09:26:12.908Z</time></trkpt><trkpt lat="41.7971325" lon="1.6290621"><ele>873.0</ele><time>2026-04-25T09:26:13.909Z</time></trkpt><trkpt lat="41.7971006" lon="1.6289447"><ele>873.0</ele><time>2026-04-25T09:26:14.91Z</time></trkpt><trkpt lat="41.7970996" lon="1.6288265"><ele>873.0</ele><time>2026-04-25T09:26:15.909Z</time></trkpt><trkpt lat="41.7971288" lon="1.6287091"><ele>873.0</ele><time>2026-04-25T09:26:16.909Z</time></trkpt><trkpt lat="41.797188" lon="1.6286008"><ele>873.5999999999999</ele><time>2026-04-25T09:26:17.908Z</time></trkpt><trkpt lat="41.7972612" lon="1.6285059"><ele>874.1999999999999</ele><time>2026-04-25T09:26:18.91Z</time></trkpt><trkpt lat="41.7973292" lon="1.6283973"><ele>874.8</ele><time>2026-04-25T09:26:19.91Z</time></trkpt><trkpt lat="41.7973651" lon="1.6282568"><ele>875.4</ele><time>2026-04-25T09:26:20.91Z</time></trkpt><trkpt lat="41.797366" lon="1.6281041"><ele>876.0</ele><time>2026-04-25T09:26:21.908Z</time></trkpt><trkpt lat="41.7973445" lon="1.6279485"><ele>876.75</ele><time>2026-04-25T09:26:22.91Z</time></trkpt><trkpt lat="41.7973017" lon="1.6277928"><ele>877.5</ele><time>2026-04-25T09:26:23.908Z</time></trkpt><trkpt lat="41.7972358" lon="1.6276536"><ele>878.25</ele><time>2026-04-25T09:26:24.909Z</time></trkpt><trkpt lat="41.7971554" lon="1.6275409"><ele>879.0</ele><time>2026-04-25T09:26:25.909Z</time></trkpt><trkpt lat="41.7970829" lon="1.6274318"><ele>879.0</ele><time>2026-04-25T09:26:26.908Z</time></trkpt><trkpt lat="41.7970367" lon="1.6273042"><ele>879.0</ele><time>2026-04-25T09:26:27.91Z</time></trkpt><trkpt lat="41.7970102" lon="1.6271587"><ele>879.0</ele><time>2026-04-25T09:26:28.91Z</time></trkpt><trkpt lat="41.7969943" lon="1.6270005"><ele>879.0</ele><time>2026-04-25T09:26:29.909Z</time></trkpt><trkpt lat="41.7969742" lon="1.6268386"><ele>880.5</ele><time>2026-04-25T09:26:30.909Z</time></trkpt><trkpt lat="41.7969176" lon="1.6266869"><ele>882.0</ele><time>2026-04-25T09:26:31.909Z</time></trkpt><trkpt lat="41.7968372" lon="1.626547"><ele>883.5</ele><time>2026-04-25T09:26:32.91Z</time></trkpt><trkpt lat="41.7967536" lon="1.6264073"><ele>885.0</ele><time>2026-04-25T09:26:33.909Z</time></trkpt><trkpt lat="41.7966815" lon="1.6262502"><ele>882.5</ele><time>2026-04-25T09:26:34.909Z</time></trkpt><trkpt lat="41.7966165" lon="1.6260893"><ele>880.0</ele><time>2026-04-25T09:26:35.909Z</time></trkpt><trkpt lat="41.7965305" lon="1.6259454"><ele>877.5</ele><time>2026-04-25T09:26:36.909Z</time></trkpt><trkpt lat="41.7964292" lon="1.6258197"><ele>875.0</ele><time>2026-04-25T09:26:37.909Z</time></trkpt><trkpt lat="41.7963108" lon="1.6257116"><ele>875.0</ele><time>2026-04-25T09:26:38.909Z</time></trkpt><trkpt lat="41.7961883" lon="1.625608"><ele>875.0</ele><time>2026-04-25T09:26:39.909Z</time></trkpt><trkpt lat="41.7960704" lon="1.6255015"><ele>875.0</ele><time>2026-04-25T09:26:40.908Z</time></trkpt><trkpt lat="41.7959664" lon="1.6253938"><ele>875.0</ele><time>2026-04-25T09:26:41.909Z</time></trkpt><trkpt lat="41.7958709" lon="1.6252942"><ele>875.8</ele><time>2026-04-25T09:26:42.908Z</time></trkpt><trkpt lat="41.7957934" lon="1.6252075"><ele>876.6</ele><time>2026-04-25T09:26:43.909Z</time></trkpt><trkpt lat="41.7957418" lon="1.6251148"><ele>877.4000000000001</ele><time>2026-04-25T09:26:44.91Z</time></trkpt><trkpt lat="41.7957204" lon="1.6250071"><ele>878.2</ele><time>2026-04-25T09:26:45.91Z</time></trkpt><trkpt lat="41.7957306" lon="1.6248879"><ele>879.0</ele><time>2026-04-25T09:26:46.908Z</time></trkpt><trkpt lat="41.7957768" lon="1.6247754"><ele>879.0</ele><time>2026-04-25T09:26:47.91Z</time></trkpt><trkpt lat="41.7958513" lon="1.6246821"><ele>879.0000000000001</ele><time>2026-04-25T09:26:48.908Z</time></trkpt><trkpt lat="41.7959442" lon="1.6245952"><ele>879.0000000000001</ele><time>2026-04-25T09:26:49.909Z</time></trkpt><trkpt lat="41.7960237" lon="1.6244915"><ele>879.0</ele><time>2026-04-25T09:26:50.908Z</time></trkpt><trkpt lat="41.7960849" lon="1.6243566"><ele>879.0</ele><time>2026-04-25T09:26:51.908Z</time></trkpt><trkpt lat="41.7961203" lon="1.6242124"><ele>878.5</ele><time>2026-04-25T09:26:52.91Z</time></trkpt><trkpt lat="41.7961194" lon="1.6240588"><ele>878.0</ele><time>2026-04-25T09:26:53.909Z</time></trkpt><trkpt lat="41.7960829" lon="1.6239081"><ele>877.5</ele><time>2026-04-25T09:26:54.909Z</time></trkpt><trkpt lat="41.796039" lon="1.62375"><ele>877.0</ele><time>2026-04-25T09:26:55.91Z</time></trkpt><trkpt lat="41.7959975" lon="1.6235855"><ele>877.0</ele><time>2026-04-25T09:26:56.909Z</time></trkpt><trkpt lat="41.795967" lon="1.6234113"><ele>877.0</ele><time>2026-04-25T09:26:57.909Z</time></trkpt><trkpt lat="41.7959537" lon="1.6232341"><ele>877.0</ele><time>2026-04-25T09:26:58.91Z</time></trkpt><trkpt lat="41.7959599" lon="1.6230683"><ele>877.0</ele><time>2026-04-25T09:26:59.91Z</time></trkpt><trkpt lat="41.7959908" lon="1.6229017"><ele>881.25</ele><time>2026-04-25T09:27:00.91Z</time></trkpt><trkpt lat="41.7960425" lon="1.6227323"><ele>885.5</ele><time>2026-04-25T09:27:01.908Z</time></trkpt><trkpt lat="41.7961071" lon="1.6225629"><ele>889.75</ele><time>2026-04-25T09:27:02.909Z</time></trkpt><trkpt lat="41.7961862" lon="1.6223967"><ele>894.0</ele><time>2026-04-25T09:27:03.909Z</time></trkpt><trkpt lat="41.7962676" lon="1.6222354"><ele>894.0</ele><time>2026-04-25T09:27:04.908Z</time></trkpt><trkpt lat="41.7963451" lon="1.6220823"><ele>894.0</ele><time>2026-04-25T09:27:05.908Z</time></trkpt><trkpt lat="41.7964087" lon="1.6219399"><ele>894.0</ele><time>2026-04-25T09:27:06.909Z</time></trkpt><trkpt lat="41.7964588" lon="1.6218159"><ele>894.0</ele><time>2026-04-25T09:27:07.91Z</time></trkpt><trkpt lat="41.7964932" lon="1.6217067"><ele>893.3333333333334</ele><time>2026-04-25T09:27:08.91Z</time></trkpt><trkpt lat="41.7965134" lon="1.6216225"><ele>892.6666666666667</ele><time>2026-04-25T09:27:09.909Z</time></trkpt><trkpt lat="41.7965592" lon="1.6215196"><ele>892.0</ele><time>2026-04-25T09:27:11.909Z</time></trkpt><trkpt lat="41.7966118" lon="1.6214474"><ele>891.3333333333334</ele><time>2026-04-25T09:27:15.909Z</time></trkpt><trkpt lat="41.796649" lon="1.6213454"><ele>890.6666666666667</ele><time>2026-04-25T09:27:17.908Z</time></trkpt><trkpt lat="41.7966417" lon="1.6212602"><ele>890.0</ele><time>2026-04-25T09:27:18.909Z</time></trkpt><trkpt lat="41.7966285" lon="1.6211573"><ele>889.0</ele><time>2026-04-25T09:27:19.91Z</time></trkpt><trkpt lat="41.7966159" lon="1.6210425"><ele>888.0</ele><time>2026-04-25T09:27:20.909Z</time></trkpt><trkpt lat="41.7966095" lon="1.6209233"><ele>887.0</ele><time>2026-04-25T09:27:21.91Z</time></trkpt><trkpt lat="41.7966129" lon="1.620796"><ele>886.0</ele><time>2026-04-25T09:27:22.909Z</time></trkpt><trkpt lat="41.7966226" lon="1.6206685"><ele>885.0</ele><time>2026-04-25T09:27:23.909Z</time></trkpt><trkpt lat="41.7966322" lon="1.6205378"><ele>885.0</ele><time>2026-04-25T09:27:24.909Z</time></trkpt><trkpt lat="41.7966408" lon="1.6203948"><ele>885.0</ele><time>2026-04-25T09:27:25.909Z</time></trkpt><trkpt lat="41.796645" lon="1.6202476"><ele>885.0</ele><time>2026-04-25T09:27:26.909Z</time></trkpt><trkpt lat="41.7966569" lon="1.6200936"><ele>885.0</ele><time>2026-04-25T09:27:27.909Z</time></trkpt><trkpt lat="41.7966795" lon="1.6199393"><ele>885.0</ele><time>2026-04-25T09:27:28.908Z</time></trkpt><trkpt lat="41.7967108" lon="1.619789"><ele>885.2</ele><time>2026-04-25T09:27:29.909Z</time></trkpt><trkpt lat="41.7967388" lon="1.6196406"><ele>885.4</ele><time>2026-04-25T09:27:30.909Z</time></trkpt><trkpt lat="41.7967689" lon="1.6195076"><ele>885.5999999999999</ele><time>2026-04-25T09:27:31.91Z</time></trkpt><trkpt lat="41.7968241" lon="1.6194032"><ele>885.8</ele><time>2026-04-25T09:27:32.908Z</time></trkpt><trkpt lat="41.7969046" lon="1.6193405"><ele>886.0</ele><time>2026-04-25T09:27:33.91Z</time></trkpt><trkpt lat="41.7969961" lon="1.6192906"><ele>882.4</ele><time>2026-04-25T09:27:34.91Z</time></trkpt><trkpt lat="41.797084" lon="1.6192347"><ele>878.8</ele><time>2026-04-25T09:27:35.909Z</time></trkpt><trkpt lat="41.7971608" lon="1.6191527"><ele>875.1999999999999</ele><time>2026-04-25T09:27:36.91Z</time></trkpt><trkpt lat="41.7972248" lon="1.6190375"><ele>871.5999999999999</ele><time>2026-04-25T09:27:37.91Z</time></trkpt><trkpt lat="41.7972785" lon="1.618891"><ele>868.0</ele><time>2026-04-25T09:27:38.908Z</time></trkpt><trkpt lat="41.7973217" lon="1.6187175"><ele>868.25</ele><time>2026-04-25T09:27:39.909Z</time></trkpt><trkpt lat="41.7973608" lon="1.6185347"><ele>868.5</ele><time>2026-04-25T09:27:40.909Z</time></trkpt><trkpt lat="41.797408" lon="1.6183529"><ele>868.75</ele><time>2026-04-25T09:27:41.909Z</time></trkpt><trkpt lat="41.7974639" lon="1.6181764"><ele>869.0</ele><time>2026-04-25T09:27:42.908Z</time></trkpt><trkpt lat="41.7975318" lon="1.6180052"><ele>869.0</ele><time>2026-04-25T09:27:43.909Z</time></trkpt><trkpt lat="41.7976093" lon="1.6178421"><ele>869.0</ele><time>2026-04-25T09:27:44.909Z</time></trkpt><trkpt lat="41.7976887" lon="1.6176901"><ele>869.0</ele><time>2026-04-25T09:27:45.909Z</time></trkpt><trkpt lat="41.7977667" lon="1.6175353"><ele>869.0</ele><time>2026-04-25T09:27:46.91Z</time></trkpt><trkpt lat="41.7978433" lon="1.6173832"><ele>865.25</ele><time>2026-04-25T09:27:47.91Z</time></trkpt><trkpt lat="41.7979118" lon="1.6172334"><ele>861.5</ele><time>2026-04-25T09:27:48.908Z</time></trkpt><trkpt lat="41.7979728" lon="1.6170883"><ele>857.75</ele><time>2026-04-25T09:27:49.909Z</time></trkpt><trkpt lat="41.7980232" lon="1.6169555"><ele>854.0</ele><time>2026-04-25T09:27:50.909Z</time></trkpt><trkpt lat="41.7980636" lon="1.6168387"><ele>853.0000000000001</ele><time>2026-04-25T09:27:51.908Z</time></trkpt><trkpt lat="41.7980824" lon="1.6167322"><ele>852.0</ele><time>2026-04-25T09:27:52.91Z</time></trkpt><trkpt lat="41.7980722" lon="1.6166292"><ele>851.0</ele><time>2026-04-25T09:27:53.909Z</time></trkpt><trkpt lat="41.7980264" lon="1.6165355"><ele>850.0</ele><time>2026-04-25T09:27:54.908Z</time></trkpt><trkpt lat="41.7979531" lon="1.6164713"><ele>849.0000000000001</ele><time>2026-04-25T09:27:55.909Z</time></trkpt><trkpt lat="41.7978608" lon="1.6164365"><ele>848.0</ele><time>2026-04-25T09:27:56.909Z</time></trkpt><trkpt lat="41.7977524" lon="1.6164059"><ele>848.5999999999999</ele><time>2026-04-25T09:27:57.908Z</time></trkpt><trkpt lat="41.7976568" lon="1.6163636"><ele>849.1999999999999</ele><time>2026-04-25T09:27:58.91Z</time></trkpt><trkpt lat="41.797565" lon="1.6162968"><ele>849.8</ele><time>2026-04-25T09:27:59.909Z</time></trkpt><trkpt lat="41.7974811" lon="1.6162051"><ele>850.4</ele><time>2026-04-25T09:28:00.91Z</time></trkpt><trkpt lat="41.7974266" lon="1.6160753"><ele>851.0</ele><time>2026-04-25T09:28:01.908Z</time></trkpt><trkpt lat="41.7973834" lon="1.6159498"><ele>850.4</ele><time>2026-04-25T09:28:02.909Z</time></trkpt><trkpt lat="41.7973691" lon="1.6158095"><ele>849.8</ele><time>2026-04-25T09:28:03.909Z</time></trkpt><trkpt lat="41.7973846" lon="1.6156696"><ele>849.1999999999999</ele><time>2026-04-25T09:28:04.908Z</time></trkpt><trkpt lat="41.797422" lon="1.6155302"><ele>848.5999999999999</ele><time>2026-04-25T09:28:05.909Z</time></trkpt><trkpt lat="41.79748" lon="1.6153922"><ele>848.0</ele><time>2026-04-25T09:28:06.91Z</time></trkpt><trkpt lat="41.797549" lon="1.6152589"><ele>848.0</ele><time>2026-04-25T09:28:07.909Z</time></trkpt><trkpt lat="41.7976164" lon="1.6151279"><ele>848.0</ele><time>2026-04-25T09:28:08.909Z</time></trkpt><trkpt lat="41.7976963" lon="1.6149986"><ele>848.0</ele><time>2026-04-25T09:28:09.91Z</time></trkpt><trkpt lat="41.7977932" lon="1.6148726"><ele>848.0</ele><time>2026-04-25T09:28:10.91Z</time></trkpt><trkpt lat="41.797897" lon="1.6147413"><ele>843.75</ele><time>2026-04-25T09:28:11.908Z</time></trkpt><trkpt lat="41.7979933" lon="1.614603"><ele>839.5</ele><time>2026-04-25T09:28:12.909Z</time></trkpt><trkpt lat="41.7980806" lon="1.6144571"><ele>835.25</ele><time>2026-04-25T09:28:13.91Z</time></trkpt><trkpt lat="41.7981786" lon="1.6143197"><ele>831.0</ele><time>2026-04-25T09:28:14.909Z</time></trkpt><trkpt lat="41.7982904" lon="1.6141918"><ele>831.0</ele><time>2026-04-25T09:28:15.91Z</time></trkpt><trkpt lat="41.7984088" lon="1.6140731"><ele>831.0</ele><time>2026-04-25T09:28:16.91Z</time></trkpt><trkpt lat="41.798526" lon="1.6139481"><ele>831.0</ele><time>2026-04-25T09:28:17.91Z</time></trkpt><trkpt lat="41.798633" lon="1.6138117"><ele>831.0</ele><time>2026-04-25T09:28:18.909Z</time></trkpt><trkpt lat="41.7987302" lon="1.6136688"><ele>829.0</ele><time>2026-04-25T09:28:19.908Z</time></trkpt><trkpt lat="41.7988217" lon="1.6135294"><ele>827.0</ele><time>2026-04-25T09:28:20.908Z</time></trkpt><trkpt lat="41.7989057" lon="1.6134025"><ele>825.0</ele><time>2026-04-25T09:28:21.909Z</time></trkpt><trkpt lat="41.7989825" lon="1.6132884"><ele>823.0</ele><time>2026-04-25T09:28:22.91Z</time></trkpt><trkpt lat="41.7990506" lon="1.6131804"><ele>823.0</ele><time>2026-04-25T09:28:23.909Z</time></trkpt><trkpt lat="41.799094" lon="1.6130711"><ele>823.0</ele><time>2026-04-25T09:28:24.91Z</time></trkpt><trkpt lat="41.7991107" lon="1.6129513"><ele>823.0</ele><time>2026-04-25T09:28:25.909Z</time></trkpt><trkpt lat="41.7991034" lon="1.6128174"><ele>823.0</ele><time>2026-04-25T09:28:26.909Z</time></trkpt><trkpt lat="41.7990726" lon="1.6126783"><ele>823.0</ele><time>2026-04-25T09:28:27.909Z</time></trkpt><trkpt lat="41.7990246" lon="1.6125386"><ele>821.8</ele><time>2026-04-25T09:28:28.91Z</time></trkpt><trkpt lat="41.7989707" lon="1.6124177"><ele>820.5999999999999</ele><time>2026-04-25T09:28:29.909Z</time></trkpt><trkpt lat="41.7989025" lon="1.6123229"><ele>819.4000000000001</ele><time>2026-04-25T09:28:30.909Z</time></trkpt><trkpt lat="41.7988138" lon="1.6122469"><ele>818.2</ele><time>2026-04-25T09:28:31.909Z</time></trkpt><trkpt lat="41.7987079" lon="1.6121837"><ele>817.0</ele><time>2026-04-25T09:28:32.909Z</time></trkpt><trkpt lat="41.7985992" lon="1.6121224"><ele>816.8</ele><time>2026-04-25T09:28:33.91Z</time></trkpt><trkpt lat="41.7984967" lon="1.6120583"><ele>816.6</ele><time>2026-04-25T09:28:34.908Z</time></trkpt><trkpt lat="41.7984218" lon="1.6119682"><ele>816.4</ele><time>2026-04-25T09:28:35.909Z</time></trkpt><trkpt lat="41.7983742" lon="1.611851"><ele>816.1999999999999</ele><time>2026-04-25T09:28:36.909Z</time></trkpt><trkpt lat="41.7983629" lon="1.6117154"><ele>816.0</ele><time>2026-04-25T09:28:37.91Z</time></trkpt><trkpt lat="41.7983965" lon="1.6115841"><ele>816.0</ele><time>2026-04-25T09:28:38.91Z</time></trkpt><trkpt lat="41.7984676" lon="1.6114681"><ele>816.0</ele><time>2026-04-25T09:28:39.91Z</time></trkpt><trkpt lat="41.7985608" lon="1.6113687"><ele>816.0</ele><time>2026-04-25T09:28:40.91Z</time></trkpt><trkpt lat="41.7986591" lon="1.6112845"><ele>816.0</ele><time>2026-04-25T09:28:41.909Z</time></trkpt><trkpt lat="41.7987461" lon="1.6112021"><ele>814.4</ele><time>2026-04-25T09:28:42.909Z</time></trkpt><trkpt lat="41.7988149" lon="1.6111187"><ele>812.8</ele><time>2026-04-25T09:28:43.91Z</time></trkpt><trkpt lat="41.7988629" lon="1.6110207"><ele>811.1999999999999</ele><time>2026-04-25T09:28:44.91Z</time></trkpt><trkpt lat="41.7988841" lon="1.6109009"><ele>809.5999999999999</ele><time>2026-04-25T09:28:45.909Z</time></trkpt><trkpt lat="41.7988693" lon="1.610769"><ele>808.0</ele><time>2026-04-25T09:28:46.908Z</time></trkpt><trkpt lat="41.7988154" lon="1.6106418"><ele>808.0</ele><time>2026-04-25T09:28:47.909Z</time></trkpt><trkpt lat="41.7987367" lon="1.6105506"><ele>808.0</ele><time>2026-04-25T09:28:48.909Z</time></trkpt><trkpt lat="41.7986422" lon="1.6104987"><ele>808.0</ele><time>2026-04-25T09:28:49.909Z</time></trkpt><trkpt lat="41.798533" lon="1.6104673"><ele>808.0</ele><time>2026-04-25T09:28:50.909Z</time></trkpt><trkpt lat="41.7984157" lon="1.6104431"><ele>808.0</ele><time>2026-04-25T09:28:51.908Z</time></trkpt><trkpt lat="41.7982954" lon="1.610412"><ele>807.8</ele><time>2026-04-25T09:28:52.909Z</time></trkpt><trkpt lat="41.7981944" lon="1.6103674"><ele>807.5999999999999</ele><time>2026-04-25T09:28:53.909Z</time></trkpt><trkpt lat="41.7981128" lon="1.6103058"><ele>807.4000000000001</ele><time>2026-04-25T09:28:54.909Z</time></trkpt><trkpt lat="41.7980507" lon="1.610218"><ele>807.2</ele><time>2026-04-25T09:28:55.91Z</time></trkpt><trkpt lat="41.798021" lon="1.6101021"><ele>807.0</ele><time>2026-04-25T09:28:56.91Z</time></trkpt><trkpt lat="41.7980336" lon="1.6099792"><ele>807.0</ele><time>2026-04-25T09:28:57.91Z</time></trkpt><trkpt lat="41.7980937" lon="1.6098735"><ele>807.0</ele><time>2026-04-25T09:28:58.909Z</time></trkpt><trkpt lat="41.798185" lon="1.6097983"><ele>807.0</ele><time>2026-04-25T09:28:59.908Z</time></trkpt><trkpt lat="41.7982928" lon="1.6097303"><ele>807.0</ele><time>2026-04-25T09:29:00.908Z</time></trkpt><trkpt lat="41.7984131" lon="1.6096556"><ele>805.25</ele><time>2026-04-25T09:29:01.909Z</time></trkpt><trkpt lat="41.7985435" lon="1.6095819"><ele>803.5</ele><time>2026-04-25T09:29:02.908Z</time></trkpt><trkpt lat="41.7986795" lon="1.6095119"><ele>801.75</ele><time>2026-04-25T09:29:03.909Z</time></trkpt><trkpt lat="41.7988154" lon="1.6094441"><ele>800.0</ele><time>2026-04-25T09:29:04.908Z</time></trkpt><trkpt lat="41.798944" lon="1.6093654"><ele>800.0</ele><time>2026-04-25T09:29:05.908Z</time></trkpt><trkpt lat="41.7990623" lon="1.6092772"><ele>800.0</ele><time>2026-04-25T09:29:06.908Z</time></trkpt><trkpt lat="41.7991781" lon="1.6091741"><ele>800.0</ele><time>2026-04-25T09:29:07.908Z</time></trkpt><trkpt lat="41.799294" lon="1.6090573"><ele>800.0</ele><time>2026-04-25T09:29:08.908Z</time></trkpt><trkpt lat="41.7994125" lon="1.6089365"><ele>797.3333333333334</ele><time>2026-04-25T09:29:09.908Z</time></trkpt><trkpt lat="41.799533" lon="1.6088061"><ele>794.6666666666667</ele><time>2026-04-25T09:29:10.908Z</time></trkpt><trkpt lat="41.7996567" lon="1.6086781"><ele>792.0</ele><time>2026-04-25T09:29:11.908Z</time></trkpt><trkpt lat="41.7997765" lon="1.6085596"><ele>792.0</ele><time>2026-04-25T09:29:12.908Z</time></trkpt><trkpt lat="41.7998911" lon="1.6084494"><ele>792.0</ele><time>2026-04-25T09:29:13.908Z</time></trkpt><trkpt lat="41.7999905" lon="1.6083528"><ele>792.0</ele><time>2026-04-25T09:29:14.908Z</time></trkpt><trkpt lat="41.8000754" lon="1.6082646"><ele>792.0</ele><time>2026-04-25T09:29:15.908Z</time></trkpt><trkpt lat="41.8001433" lon="1.6081773"><ele>790.6</ele><time>2026-04-25T09:29:16.908Z</time></trkpt><trkpt lat="41.8001804" lon="1.6080626"><ele>789.2</ele><time>2026-04-25T09:29:17.908Z</time></trkpt><trkpt lat="41.8001839" lon="1.6079385"><ele>787.8</ele><time>2026-04-25T09:29:18.908Z</time></trkpt><trkpt lat="41.8001469" lon="1.6078167"><ele>786.4</ele><time>2026-04-25T09:29:19.908Z</time></trkpt><trkpt lat="41.8000765" lon="1.6076942"><ele>785.0</ele><time>2026-04-25T09:29:20.909Z</time></trkpt><trkpt lat="41.7999826" lon="1.6075922"><ele>785.0</ele><time>2026-04-25T09:29:21.907Z</time></trkpt><trkpt lat="41.7998732" lon="1.6075098"><ele>785.0</ele><time>2026-04-25T09:29:22.908Z</time></trkpt><trkpt lat="41.7997537" lon="1.6074325"><ele>785.0</ele><time>2026-04-25T09:29:23.907Z</time></trkpt><trkpt lat="41.7996284" lon="1.6073574"><ele>785.0</ele><time>2026-04-25T09:29:24.908Z</time></trkpt><trkpt lat="41.799508" lon="1.6072869"><ele>785.0</ele><time>2026-04-25T09:29:25.909Z</time></trkpt><trkpt lat="41.7993993" lon="1.6072224"><ele>785.0</ele><time>2026-04-25T09:29:26.909Z</time></trkpt><trkpt lat="41.799308" lon="1.6071586"><ele>785.0</ele><time>2026-04-25T09:29:27.908Z</time></trkpt><trkpt lat="41.7992473" lon="1.6070607"><ele>785.0</ele><time>2026-04-25T09:29:28.908Z</time></trkpt><trkpt lat="41.7992231" lon="1.6069314"><ele>785.0</ele><time>2026-04-25T09:29:29.909Z</time></trkpt><trkpt lat="41.7992436" lon="1.6067993"><ele>786.0</ele><time>2026-04-25T09:29:30.908Z</time></trkpt><trkpt lat="41.799309" lon="1.606682"><ele>787.0</ele><time>2026-04-25T09:29:31.909Z</time></trkpt><trkpt lat="41.7994019" lon="1.6065949"><ele>788.0</ele><time>2026-04-25T09:29:32.909Z</time></trkpt><trkpt lat="41.7995141" lon="1.6065143"><ele>789.0</ele><time>2026-04-25T09:29:33.909Z</time></trkpt><trkpt lat="41.7996425" lon="1.606436"><ele>786.25</ele><time>2026-04-25T09:29:34.909Z</time></trkpt><trkpt lat="41.7997755" lon="1.6063538"><ele>783.5</ele><time>2026-04-25T09:29:35.909Z</time></trkpt><trkpt lat="41.7998975" lon="1.6062596"><ele>780.75</ele><time>2026-04-25T09:29:36.908Z</time></trkpt><trkpt lat="41.8000093" lon="1.6061688"><ele>778.0</ele><time>2026-04-25T09:29:37.908Z</time></trkpt><trkpt lat="41.8001051" lon="1.6060828"><ele>774.4</ele><time>2026-04-25T09:29:38.908Z</time></trkpt><trkpt lat="41.8001779" lon="1.6059989"><ele>770.8</ele><time>2026-04-25T09:29:39.908Z</time></trkpt><trkpt lat="41.8002312" lon="1.605898"><ele>767.2</ele><time>2026-04-25T09:29:40.909Z</time></trkpt><trkpt lat="41.8002601" lon="1.6057775"><ele>763.6</ele><time>2026-04-25T09:29:41.907Z</time></trkpt><trkpt lat="41.8002556" lon="1.6056376"><ele>760.0</ele><time>2026-04-25T09:29:42.909Z</time></trkpt><trkpt lat="41.8002247" lon="1.6054874"><ele>760.0</ele><time>2026-04-25T09:29:43.909Z</time></trkpt><trkpt lat="41.8001741" lon="1.6053442"><ele>760.0</ele><time>2026-04-25T09:29:44.908Z</time></trkpt><trkpt lat="41.8001105" lon="1.605222"><ele>760.0</ele><time>2026-04-25T09:29:45.907Z</time></trkpt><trkpt lat="41.8000302" lon="1.6051298"><ele>760.0</ele><time>2026-04-25T09:29:46.908Z</time></trkpt><trkpt lat="41.7999259" lon="1.6050616"><ele>762.25</ele><time>2026-04-25T09:29:47.908Z</time></trkpt><trkpt lat="41.7998102" lon="1.6050008"><ele>764.5</ele><time>2026-04-25T09:29:48.908Z</time></trkpt><trkpt lat="41.7996983" lon="1.6049384"><ele>766.75</ele><time>2026-04-25T09:29:49.908Z</time></trkpt><trkpt lat="41.7996046" lon="1.6048644"><ele>769.0</ele><time>2026-04-25T09:29:50.909Z</time></trkpt><trkpt lat="41.799541" lon="1.6047642"><ele>769.0</ele><time>2026-04-25T09:29:51.909Z</time></trkpt><trkpt lat="41.7995145" lon="1.6046489"><ele>769.0</ele><time>2026-04-25T09:29:52.908Z</time></trkpt><trkpt lat="41.79953" lon="1.6045343"><ele>769.0</ele><time>2026-04-25T09:29:53.908Z</time></trkpt><trkpt lat="41.7995842" lon="1.6044342"><ele>769.0</ele><time>2026-04-25T09:29:54.908Z</time></trkpt><trkpt lat="41.7996663" lon="1.6043447"><ele>769.0</ele><time>2026-04-25T09:29:55.908Z</time></trkpt><trkpt lat="41.7997525" lon="1.6042347"><ele>768.25</ele><time>2026-04-25T09:29:56.909Z</time></trkpt><trkpt lat="41.7998172" lon="1.6040978"><ele>767.5</ele><time>2026-04-25T09:29:57.907Z</time></trkpt><trkpt lat="41.7998808" lon="1.6039616"><ele>766.75</ele><time>2026-04-25T09:29:58.908Z</time></trkpt><trkpt lat="41.7999662" lon="1.6038523"><ele>766.0</ele><time>2026-04-25T09:29:59.907Z</time></trkpt><trkpt lat="41.800064" lon="1.6037931"><ele>766.0</ele><time>2026-04-25T09:30:00.909Z</time></trkpt><trkpt lat="41.800166" lon="1.6037888"><ele>766.0</ele><time>2026-04-25T09:30:01.908Z</time></trkpt><trkpt lat="41.8002767" lon="1.60382"><ele>766.0</ele><time>2026-04-25T09:30:02.909Z</time></trkpt><trkpt lat="41.8003914" lon="1.6038692"><ele>766.0</ele><time>2026-04-25T09:30:03.907Z</time></trkpt><trkpt lat="41.8005005" lon="1.6039188"><ele>765.5</ele><time>2026-04-25T09:30:04.907Z</time></trkpt><trkpt lat="41.800603" lon="1.6039443"><ele>765.0</ele><time>2026-04-25T09:30:05.908Z</time></trkpt><trkpt lat="41.8007046" lon="1.6039344"><ele>764.5</ele><time>2026-04-25T09:30:06.909Z</time></trkpt><trkpt lat="41.8008141" lon="1.6038726"><ele>764.0</ele><time>2026-04-25T09:30:07.907Z</time></trkpt><trkpt lat="41.8009173" lon="1.6037654"><ele>763.5</ele><time>2026-04-25T09:30:08.909Z</time></trkpt><trkpt lat="41.8010258" lon="1.6036472"><ele>763.0</ele><time>2026-04-25T09:30:09.909Z</time></trkpt><trkpt lat="41.8011468" lon="1.6035625"><ele>762.5</ele><time>2026-04-25T09:30:10.908Z</time></trkpt><trkpt lat="41.8012758" lon="1.6035204"><ele>762.0</ele><time>2026-04-25T09:30:11.909Z</time></trkpt><trkpt lat="41.8013987" lon="1.6034952"><ele>762.0</ele><time>2026-04-25T09:30:12.908Z</time></trkpt><trkpt lat="41.8014953" lon="1.6034475"><ele>762.0</ele><time>2026-04-25T09:30:13.908Z</time></trkpt><trkpt lat="41.8015605" lon="1.6033771"><ele>762.0</ele><time>2026-04-25T09:30:14.909Z</time></trkpt><trkpt lat="41.8015975" lon="1.603282"><ele>762.0</ele><time>2026-04-25T09:30:15.907Z</time></trkpt><trkpt lat="41.8016012" lon="1.6031551"><ele>762.0</ele><time>2026-04-25T09:30:16.909Z</time></trkpt><trkpt lat="41.8015596" lon="1.6030203"><ele>762.0</ele><time>2026-04-25T09:30:17.907Z</time></trkpt><trkpt lat="41.8014899" lon="1.6028869"><ele>762.0</ele><time>2026-04-25T09:30:18.909Z</time></trkpt><trkpt lat="41.8014052" lon="1.60274"><ele>762.0</ele><time>2026-04-25T09:30:19.908Z</time></trkpt><trkpt lat="41.8013345" lon="1.6025818"><ele>762.0</ele><time>2026-04-25T09:30:20.907Z</time></trkpt><trkpt lat="41.8012924" lon="1.6024206"><ele>760.25</ele><time>2026-04-25T09:30:21.908Z</time></trkpt><trkpt lat="41.8012538" lon="1.6022717"><ele>758.5</ele><time>2026-04-25T09:30:22.908Z</time></trkpt><trkpt lat="41.8011852" lon="1.602145"><ele>756.75</ele><time>2026-04-25T09:30:23.908Z</time></trkpt><trkpt lat="41.8010858" lon="1.6020374"><ele>755.0</ele><time>2026-04-25T09:30:24.907Z</time></trkpt><trkpt lat="41.8009824" lon="1.6019289"><ele>754.5</ele><time>2026-04-25T09:30:25.908Z</time></trkpt><trkpt lat="41.8009014" lon="1.6017922"><ele>754.0</ele><time>2026-04-25T09:30:26.908Z</time></trkpt><trkpt lat="41.8008418" lon="1.6016345"><ele>753.5</ele><time>2026-04-25T09:30:27.908Z</time></trkpt><trkpt lat="41.8008117" lon="1.6014624"><ele>753.0</ele><time>2026-04-25T09:30:28.908Z</time></trkpt><trkpt lat="41.8008038" lon="1.6012901"><ele>751.5</ele><time>2026-04-25T09:30:29.907Z</time></trkpt><trkpt lat="41.8008216" lon="1.6011274"><ele>750.0</ele><time>2026-04-25T09:30:30.908Z</time></trkpt><trkpt lat="41.8008725" lon="1.6009853"><ele>748.5</ele><time>2026-04-25T09:30:31.909Z</time></trkpt><trkpt lat="41.800952" lon="1.6008463"><ele>747.0</ele><time>2026-04-25T09:30:32.908Z</time></trkpt><trkpt lat="41.8010472" lon="1.600712"><ele>743.25</ele><time>2026-04-25T09:30:33.907Z</time></trkpt><trkpt lat="41.8011531" lon="1.6005829"><ele>739.5</ele><time>2026-04-25T09:30:34.908Z</time></trkpt><trkpt lat="41.8012713" lon="1.6004735"><ele>735.75</ele><time>2026-04-25T09:30:35.907Z</time></trkpt><trkpt lat="41.8013868" lon="1.6003758"><ele>732.0</ele><time>2026-04-25T09:30:36.908Z</time></trkpt><trkpt lat="41.8014704" lon="1.6002763"><ele>732.0</ele><time>2026-04-25T09:30:37.907Z</time></trkpt><trkpt lat="41.8015306" lon="1.6001492"><ele>732.0</ele><time>2026-04-25T09:30:38.907Z</time></trkpt><trkpt lat="41.8015603" lon="1.5999934"><ele>732.0</ele><time>2026-04-25T09:30:39.908Z</time></trkpt><trkpt lat="41.801566" lon="1.5998202"><ele>732.0</ele><time>2026-04-25T09:30:40.908Z</time></trkpt><trkpt lat="41.8015673" lon="1.5996327"><ele>731.25</ele><time>2026-04-25T09:30:41.908Z</time></trkpt><trkpt lat="41.8015896" lon="1.5994477"><ele>730.5</ele><time>2026-04-25T09:30:42.908Z</time></trkpt><trkpt lat="41.8016334" lon="1.5992669"><ele>729.75</ele><time>2026-04-25T09:30:43.907Z</time></trkpt><trkpt lat="41.8016858" lon="1.5991004"><ele>729.0</ele><time>2026-04-25T09:30:44.908Z</time></trkpt><trkpt lat="41.8017459" lon="1.598955"><ele>729.0</ele><time>2026-04-25T09:30:45.908Z</time></trkpt><trkpt lat="41.8018254" lon="1.598846"><ele>729.0</ele><time>2026-04-25T09:30:46.908Z</time></trkpt><trkpt lat="41.8019252" lon="1.5987928"><ele>729.0</ele><time>2026-04-25T09:30:47.908Z</time></trkpt><trkpt lat="41.8020447" lon="1.5987913"><ele>729.0</ele><time>2026-04-25T09:30:48.909Z</time></trkpt><trkpt lat="41.802179" lon="1.5988143"><ele>726.5</ele><time>2026-04-25T09:30:49.909Z</time></trkpt><trkpt lat="41.8023246" lon="1.5988315"><ele>724.0</ele><time>2026-04-25T09:30:50.908Z</time></trkpt><trkpt lat="41.8024688" lon="1.5988348"><ele>721.5</ele><time>2026-04-25T09:30:51.909Z</time></trkpt><trkpt lat="41.8026061" lon="1.5988258"><ele>719.0</ele><time>2026-04-25T09:30:52.908Z</time></trkpt><trkpt lat="41.8027268" lon="1.5988013"><ele>717.25</ele><time>2026-04-25T09:30:53.909Z</time></trkpt><trkpt lat="41.8028321" lon="1.5987466"><ele>715.5</ele><time>2026-04-25T09:30:54.907Z</time></trkpt><trkpt lat="41.8029175" lon="1.5986578"><ele>713.75</ele><time>2026-04-25T09:30:55.908Z</time></trkpt><trkpt lat="41.8029843" lon="1.5985337"><ele>712.0</ele><time>2026-04-25T09:30:56.909Z</time></trkpt><trkpt lat="41.8030367" lon="1.5983764"><ele>712.0</ele><time>2026-04-25T09:30:57.908Z</time></trkpt><trkpt lat="41.8030897" lon="1.5981926"><ele>712.0</ele><time>2026-04-25T09:30:58.908Z</time></trkpt><trkpt lat="41.8031492" lon="1.5979933"><ele>712.0</ele><time>2026-04-25T09:30:59.907Z</time></trkpt><trkpt lat="41.803222" lon="1.5977885"><ele>712.3333333333334</ele><time>2026-04-25T09:31:00.909Z</time></trkpt><trkpt lat="41.8033029" lon="1.597578"><ele>712.6666666666666</ele><time>2026-04-25T09:31:01.908Z</time></trkpt><trkpt lat="41.8033884" lon="1.5973615"><ele>713.0</ele><time>2026-04-25T09:31:02.908Z</time></trkpt><trkpt lat="41.8034757" lon="1.5971469"><ele>710.0</ele><time>2026-04-25T09:31:03.909Z</time></trkpt><trkpt lat="41.8035626" lon="1.5969332"><ele>707.0</ele><time>2026-04-25T09:31:04.908Z</time></trkpt><trkpt lat="41.8036501" lon="1.5967281"><ele>704.0</ele><time>2026-04-25T09:31:05.909Z</time></trkpt><trkpt lat="41.8037364" lon="1.5965348"><ele>704.0</ele><time>2026-04-25T09:31:06.908Z</time></trkpt><trkpt lat="41.8038352" lon="1.5963602"><ele>704.0</ele><time>2026-04-25T09:31:07.908Z</time></trkpt><trkpt lat="41.8039434" lon="1.5962061"><ele>704.0</ele><time>2026-04-25T09:31:08.908Z</time></trkpt><trkpt lat="41.8040523" lon="1.596071"><ele>704.75</ele><time>2026-04-25T09:31:09.907Z</time></trkpt><trkpt lat="41.8041477" lon="1.5959456"><ele>705.5</ele><time>2026-04-25T09:31:10.909Z</time></trkpt><trkpt lat="41.8042304" lon="1.5958147"><ele>706.25</ele><time>2026-04-25T09:31:11.908Z</time></trkpt><trkpt lat="41.804305" lon="1.5956843"><ele>707.0</ele><time>2026-04-25T09:31:12.909Z</time></trkpt><trkpt lat="41.8043839" lon="1.5955593"><ele>707.0</ele><time>2026-04-25T09:31:13.909Z</time></trkpt><trkpt lat="41.8044642" lon="1.5954371"><ele>707.0</ele><time>2026-04-25T09:31:14.908Z</time></trkpt><trkpt lat="41.8045332" lon="1.5953097"><ele>707.0</ele><time>2026-04-25T09:31:15.908Z</time></trkpt><trkpt lat="41.8045892" lon="1.5951789"><ele>707.0</ele><time>2026-04-25T09:31:16.908Z</time></trkpt><trkpt lat="41.8046351" lon="1.5950544"><ele>708.2</ele><time>2026-04-25T09:31:17.908Z</time></trkpt><trkpt lat="41.8046954" lon="1.5949548"><ele>709.4000000000001</ele><time>2026-04-25T09:31:18.908Z</time></trkpt><trkpt lat="41.804789" lon="1.5948999"><ele>710.5999999999999</ele><time>2026-04-25T09:31:19.907Z</time></trkpt><trkpt lat="41.8048943" lon="1.5948958"><ele>711.8</ele><time>2026-04-25T09:31:20.908Z</time></trkpt><trkpt lat="41.804999" lon="1.5949422"><ele>713.0</ele><time>2026-04-25T09:31:21.909Z</time></trkpt><trkpt lat="41.8050979" lon="1.5950297"><ele>715.5</ele><time>2026-04-25T09:31:22.907Z</time></trkpt><trkpt lat="41.8051802" lon="1.5951538"><ele>718.0</ele><time>2026-04-25T09:31:23.909Z</time></trkpt><trkpt lat="41.8052462" lon="1.5952931"><ele>720.5</ele><time>2026-04-25T09:31:24.909Z</time></trkpt><trkpt lat="41.8053047" lon="1.5954327"><ele>723.0</ele><time>2026-04-25T09:31:25.908Z</time></trkpt><trkpt lat="41.8053658" lon="1.5955743"><ele>723.0</ele><time>2026-04-25T09:31:26.908Z</time></trkpt><trkpt lat="41.805433" lon="1.5957222"><ele>723.0</ele><time>2026-04-25T09:31:27.908Z</time></trkpt><trkpt lat="41.8055034" lon="1.5958792"><ele>723.0</ele><time>2026-04-25T09:31:28.908Z</time></trkpt><trkpt lat="41.8055779" lon="1.5960427"><ele>723.0</ele><time>2026-04-25T09:31:29.909Z</time></trkpt><trkpt lat="41.8056628" lon="1.5962064"><ele>719.3333333333334</ele><time>2026-04-25T09:31:30.909Z</time></trkpt><trkpt lat="41.805755" lon="1.5963705"><ele>715.6666666666667</ele><time>2026-04-25T09:31:31.909Z</time></trkpt><trkpt lat="41.8058527" lon="1.5965305"><ele>712.0</ele><time>2026-04-25T09:31:32.908Z</time></trkpt><trkpt lat="41.8059598" lon="1.5966833"><ele>713.5</ele><time>2026-04-25T09:31:33.908Z</time></trkpt><trkpt lat="41.8060658" lon="1.5968325"><ele>715.0</ele><time>2026-04-25T09:31:34.907Z</time></trkpt><trkpt lat="41.8061583" lon="1.5969878"><ele>716.5</ele><time>2026-04-25T09:31:35.907Z</time></trkpt><trkpt lat="41.8062378" lon="1.5971447"><ele>718.0</ele><time>2026-04-25T09:31:36.908Z</time></trkpt><trkpt lat="41.8063097" lon="1.5972971"><ele>718.0</ele><time>2026-04-25T09:31:37.908Z</time></trkpt><trkpt lat="41.8063744" lon="1.5974346"><ele>718.0</ele><time>2026-04-25T09:31:38.908Z</time></trkpt><trkpt lat="41.8064358" lon="1.5975403"><ele>718.0</ele><time>2026-04-25T09:31:39.908Z</time></trkpt><trkpt lat="41.8064932" lon="1.5976155"><ele>718.0</ele><time>2026-04-25T09:31:40.907Z</time></trkpt><trkpt lat="41.806555" lon="1.597661"><ele>718.0</ele><time>2026-04-25T09:31:41.908Z</time></trkpt><trkpt lat="41.8066238" lon="1.5976827"><ele>718.0</ele><time>2026-04-25T09:31:42.908Z</time></trkpt><trkpt lat="41.8066912" lon="1.5976721"><ele>718.0</ele><time>2026-04-25T09:31:43.908Z</time></trkpt><trkpt lat="41.8067553" lon="1.5976307"><ele>718.0</ele><time>2026-04-25T09:31:44.908Z</time></trkpt><trkpt lat="41.8068091" lon="1.5975669"><ele>718.0</ele><time>2026-04-25T09:31:45.908Z</time></trkpt><trkpt lat="41.8068556" lon="1.5974798"><ele>718.0</ele><time>2026-04-25T09:31:46.908Z</time></trkpt><trkpt lat="41.8068997" lon="1.5973731"><ele>718.0</ele><time>2026-04-25T09:31:47.908Z</time></trkpt><trkpt lat="41.8069568" lon="1.5972434"><ele>718.0</ele><time>2026-04-25T09:31:48.908Z</time></trkpt><trkpt lat="41.8070245" lon="1.5971068"><ele>716.75</ele><time>2026-04-25T09:31:49.909Z</time></trkpt><trkpt lat="41.8071068" lon="1.5969665"><ele>715.5</ele><time>2026-04-25T09:31:50.908Z</time></trkpt><trkpt lat="41.8072016" lon="1.5968185"><ele>714.25</ele><time>2026-04-25T09:31:51.908Z</time></trkpt><trkpt lat="41.8073062" lon="1.596668"><ele>713.0</ele><time>2026-04-25T09:31:52.908Z</time></trkpt><trkpt lat="41.8074147" lon="1.596515"><ele>713.0</ele><time>2026-04-25T09:31:53.908Z</time></trkpt><trkpt lat="41.8075265" lon="1.5963648"><ele>713.0</ele><time>2026-04-25T09:31:54.909Z</time></trkpt><trkpt lat="41.8076372" lon="1.5962278"><ele>713.0</ele><time>2026-04-25T09:31:55.908Z</time></trkpt><trkpt lat="41.8077346" lon="1.5960864"><ele>709.25</ele><time>2026-04-25T09:31:56.908Z</time></trkpt><trkpt lat="41.8078186" lon="1.5959269"><ele>705.5</ele><time>2026-04-25T09:31:57.908Z</time></trkpt><trkpt lat="41.8078881" lon="1.5957494"><ele>701.75</ele><time>2026-04-25T09:31:58.909Z</time></trkpt><trkpt lat="41.8079495" lon="1.5955686"><ele>698.0</ele><time>2026-04-25T09:31:59.908Z</time></trkpt><trkpt lat="41.8080224" lon="1.5953952"><ele>699.0</ele><time>2026-04-25T09:32:00.909Z</time></trkpt><trkpt lat="41.8081077" lon="1.5952358"><ele>700.0</ele><time>2026-04-25T09:32:01.907Z</time></trkpt><trkpt lat="41.8081929" lon="1.5950857"><ele>701.0</ele><time>2026-04-25T09:32:02.907Z</time></trkpt><trkpt lat="41.8082658" lon="1.5949229"><ele>702.0</ele><time>2026-04-25T09:32:03.909Z</time></trkpt><trkpt lat="41.8083262" lon="1.5947437"><ele>702.0</ele><time>2026-04-25T09:32:04.907Z</time></trkpt><trkpt lat="41.8083703" lon="1.5945552"><ele>702.0</ele><time>2026-04-25T09:32:05.909Z</time></trkpt><trkpt lat="41.8084" lon="1.59436"><ele>702.0</ele><time>2026-04-25T09:32:06.909Z</time></trkpt><trkpt lat="41.8084149" lon="1.5941519"><ele>701.6666666666666</ele><time>2026-04-25T09:32:07.907Z</time></trkpt><trkpt lat="41.8084182" lon="1.5939372"><ele>701.3333333333333</ele><time>2026-04-25T09:32:08.907Z</time></trkpt><trkpt lat="41.8084141" lon="1.5937198"><ele>701.0</ele><time>2026-04-25T09:32:09.908Z</time></trkpt><trkpt lat="41.8084083" lon="1.5935049"><ele>700.0</ele><time>2026-04-25T09:32:10.909Z</time></trkpt><trkpt lat="41.8084076" lon="1.5933082"><ele>699.0</ele><time>2026-04-25T09:32:11.907Z</time></trkpt><trkpt lat="41.8084171" lon="1.5931259"><ele>698.0</ele><time>2026-04-25T09:32:12.908Z</time></trkpt><trkpt lat="41.8084434" lon="1.5929637"><ele>697.0</ele><time>2026-04-25T09:32:13.908Z</time></trkpt><trkpt lat="41.8084919" lon="1.5928344"><ele>696.4000000000001</ele><time>2026-04-25T09:32:14.908Z</time></trkpt><trkpt lat="41.808562" lon="1.5927404"><ele>695.8000000000001</ele><time>2026-04-25T09:32:15.908Z</time></trkpt><trkpt lat="41.8086501" lon="1.5926948"><ele>695.2</ele><time>2026-04-25T09:32:16.909Z</time></trkpt><trkpt lat="41.8087437" lon="1.5927163"><ele>694.6</ele><time>2026-04-25T09:32:17.908Z</time></trkpt><trkpt lat="41.8088254" lon="1.5927988"><ele>694.0</ele><time>2026-04-25T09:32:18.908Z</time></trkpt><trkpt lat="41.80889" lon="1.5929199"><ele>694.0</ele><time>2026-04-25T09:32:19.907Z</time></trkpt><trkpt lat="41.8089399" lon="1.5930705"><ele>694.0</ele><time>2026-04-25T09:32:20.909Z</time></trkpt><trkpt lat="41.8089962" lon="1.593234"><ele>694.0</ele><time>2026-04-25T09:32:21.908Z</time></trkpt><trkpt lat="41.8090629" lon="1.593388"><ele>694.0</ele><time>2026-04-25T09:32:22.908Z</time></trkpt><trkpt lat="41.8091417" lon="1.5935319"><ele>694.0</ele><time>2026-04-25T09:32:23.907Z</time></trkpt><trkpt lat="41.8092397" lon="1.5936657"><ele>694.0</ele><time>2026-04-25T09:32:24.907Z</time></trkpt><trkpt lat="41.8093409" lon="1.5937973"><ele>694.0</ele><time>2026-04-25T09:32:25.908Z</time></trkpt><trkpt lat="41.809443" lon="1.5939272"><ele>694.0</ele><time>2026-04-25T09:32:26.908Z</time></trkpt><trkpt lat="41.8095502" lon="1.5940498"><ele>696.75</ele><time>2026-04-25T09:32:27.908Z</time></trkpt><trkpt lat="41.8096707" lon="1.5941676"><ele>699.5</ele><time>2026-04-25T09:32:28.909Z</time></trkpt><trkpt lat="41.8097964" lon="1.5942753"><ele>702.25</ele><time>2026-04-25T09:32:29.908Z</time></trkpt><trkpt lat="41.8099154" lon="1.5943791"><ele>705.0</ele><time>2026-04-25T09:32:30.907Z</time></trkpt><trkpt lat="41.8100225" lon="1.5944833"><ele>705.0</ele><time>2026-04-25T09:32:31.908Z</time></trkpt><trkpt lat="41.8101163" lon="1.5945863"><ele>705.0</ele><time>2026-04-25T09:32:32.909Z</time></trkpt><trkpt lat="41.8102125" lon="1.5946681"><ele>705.0</ele><time>2026-04-25T09:32:33.909Z</time></trkpt><trkpt lat="41.8103128" lon="1.5947112"><ele>705.0</ele><time>2026-04-25T09:32:34.909Z</time></trkpt><trkpt lat="41.8104107" lon="1.5947208"><ele>705.0</ele><time>2026-04-25T09:32:35.909Z</time></trkpt><trkpt lat="41.8105168" lon="1.5947083"><ele>705.0</ele><time>2026-04-25T09:32:36.908Z</time></trkpt><trkpt lat="41.8106381" lon="1.5946982"><ele>705.0</ele><time>2026-04-25T09:32:37.909Z</time></trkpt><trkpt lat="41.8107679" lon="1.5947068"><ele>705.0</ele><time>2026-04-25T09:32:38.908Z</time></trkpt><trkpt lat="41.810907" lon="1.5947092"><ele>705.0</ele><time>2026-04-25T09:32:39.907Z</time></trkpt><trkpt lat="41.811056" lon="1.5946988"><ele>707.6666666666666</ele><time>2026-04-25T09:32:40.909Z</time></trkpt><trkpt lat="41.8112099" lon="1.5946799"><ele>710.3333333333333</ele><time>2026-04-25T09:32:41.908Z</time></trkpt><trkpt lat="41.8113704" lon="1.5946501"><ele>713.0</ele><time>2026-04-25T09:32:42.909Z</time></trkpt><trkpt lat="41.8115302" lon="1.5946152"><ele>713.0</ele><time>2026-04-25T09:32:43.908Z</time></trkpt><trkpt lat="41.8116841" lon="1.5945852"><ele>713.0</ele><time>2026-04-25T09:32:44.908Z</time></trkpt><trkpt lat="41.8118287" lon="1.5945747"><ele>713.0</ele><time>2026-04-25T09:32:45.908Z</time></trkpt><trkpt lat="41.8119654" lon="1.5945924"><ele>713.0</ele><time>2026-04-25T09:32:46.909Z</time></trkpt><trkpt lat="41.8120944" lon="1.5946217"><ele>714.0</ele><time>2026-04-25T09:32:47.909Z</time></trkpt><trkpt lat="41.8122099" lon="1.5946392"><ele>715.0</ele><time>2026-04-25T09:32:48.908Z</time></trkpt><trkpt lat="41.8123254" lon="1.594646"><ele>716.0</ele><time>2026-04-25T09:32:49.907Z</time></trkpt><trkpt lat="41.8124421" lon="1.5946748"><ele>717.0</ele><time>2026-04-25T09:32:50.909Z</time></trkpt><trkpt lat="41.812539" lon="1.5947351"><ele>717.0</ele><time>2026-04-25T09:32:51.908Z</time></trkpt><trkpt lat="41.8125994" lon="1.5948375"><ele>717.0</ele><time>2026-04-25T09:32:52.908Z</time></trkpt><trkpt lat="41.8126268" lon="1.5949662"><ele>717.0</ele><time>2026-04-25T09:32:53.909Z</time></trkpt><trkpt lat="41.8126364" lon="1.5951227"><ele>717.0</ele><time>2026-04-25T09:32:54.909Z</time></trkpt><trkpt lat="41.8126514" lon="1.5952986"><ele>717.0</ele><time>2026-04-25T09:32:55.908Z</time></trkpt><trkpt lat="41.8126749" lon="1.5954922"><ele>720.3333333333334</ele><time>2026-04-25T09:32:56.909Z</time></trkpt><trkpt lat="41.8126993" lon="1.5956952"><ele>723.6666666666667</ele><time>2026-04-25T09:32:57.907Z</time></trkpt><trkpt lat="41.8127206" lon="1.5959123"><ele>727.0</ele><time>2026-04-25T09:32:58.909Z</time></trkpt><trkpt lat="41.8127401" lon="1.5961308"><ele>729.3333333333334</ele><time>2026-04-25T09:32:59.908Z</time></trkpt><trkpt lat="41.8127603" lon="1.5963415"><ele>731.6666666666666</ele><time>2026-04-25T09:33:00.908Z</time></trkpt><trkpt lat="41.8127796" lon="1.5965552"><ele>734.0</ele><time>2026-04-25T09:33:01.908Z</time></trkpt><trkpt lat="41.8127977" lon="1.5967558"><ele>734.0</ele><time>2026-04-25T09:33:02.908Z</time></trkpt><trkpt lat="41.8128152" lon="1.5969415"><ele>734.0</ele><time>2026-04-25T09:33:03.909Z</time></trkpt><trkpt lat="41.8128292" lon="1.5971268"><ele>734.0</ele><time>2026-04-25T09:33:04.909Z</time></trkpt><trkpt lat="41.812836" lon="1.5973076"><ele>734.0</ele><time>2026-04-25T09:33:05.907Z</time></trkpt><trkpt lat="41.812838" lon="1.5974868"><ele>736.25</ele><time>2026-04-25T09:33:06.908Z</time></trkpt><trkpt lat="41.8128333" lon="1.5976678"><ele>738.5</ele><time>2026-04-25T09:33:07.908Z</time></trkpt><trkpt lat="41.8128293" lon="1.5978488"><ele>740.75</ele><time>2026-04-25T09:33:08.909Z</time></trkpt><trkpt lat="41.8128347" lon="1.5980174"><ele>743.0</ele><time>2026-04-25T09:33:09.908Z</time></trkpt><trkpt lat="41.8128568" lon="1.5981861"><ele>743.5</ele><time>2026-04-25T09:33:10.908Z</time></trkpt><trkpt lat="41.812907" lon="1.5983436"><ele>744.0</ele><time>2026-04-25T09:33:11.909Z</time></trkpt><trkpt lat="41.8129858" lon="1.5984924"><ele>744.5</ele><time>2026-04-25T09:33:12.908Z</time></trkpt><trkpt lat="41.8130896" lon="1.5986348"><ele>745.0</ele><time>2026-04-25T09:33:13.908Z</time></trkpt><trkpt lat="41.8132133" lon="1.5987777"><ele>746.6666666666667</ele><time>2026-04-25T09:33:14.908Z</time></trkpt><trkpt lat="41.8133497" lon="1.5989207"><ele>748.3333333333334</ele><time>2026-04-25T09:33:15.909Z</time></trkpt><trkpt lat="41.8135008" lon="1.5990666"><ele>750.0</ele><time>2026-04-25T09:33:16.909Z</time></trkpt><trkpt lat="41.8136478" lon="1.5992168"><ele>750.0</ele><time>2026-04-25T09:33:17.908Z</time></trkpt><trkpt lat="41.8137693" lon="1.5993859"><ele>750.0</ele><time>2026-04-25T09:33:18.909Z</time></trkpt><trkpt lat="41.8138741" lon="1.5995701"><ele>750.0</ele><time>2026-04-25T09:33:19.908Z</time></trkpt><trkpt lat="41.8139629" lon="1.5997693"><ele>749.3333333333334</ele><time>2026-04-25T09:33:20.908Z</time></trkpt><trkpt lat="41.8140366" lon="1.5999719"><ele>748.6666666666667</ele><time>2026-04-25T09:33:21.908Z</time></trkpt><trkpt lat="41.8140919" lon="1.6001806"><ele>748.0</ele><time>2026-04-25T09:33:22.909Z</time></trkpt><trkpt lat="41.8141224" lon="1.6003999"><ele>748.0</ele><time>2026-04-25T09:33:23.908Z</time></trkpt><trkpt lat="41.8141378" lon="1.600611"><ele>748.0</ele><time>2026-04-25T09:33:24.908Z</time></trkpt><trkpt lat="41.8141548" lon="1.6008008"><ele>748.0</ele><time>2026-04-25T09:33:25.908Z</time></trkpt><trkpt lat="41.8141947" lon="1.6009756"><ele>748.0</ele><time>2026-04-25T09:33:26.908Z</time></trkpt><trkpt lat="41.8142696" lon="1.6011467"><ele>751.3333333333334</ele><time>2026-04-25T09:33:27.908Z</time></trkpt><trkpt lat="41.8143663" lon="1.6013103"><ele>754.6666666666666</ele><time>2026-04-25T09:33:28.908Z</time></trkpt><trkpt lat="41.8144772" lon="1.6014757"><ele>758.0</ele><time>2026-04-25T09:33:29.908Z</time></trkpt><trkpt lat="41.8145956" lon="1.6016456"><ele>758.0</ele><time>2026-04-25T09:33:30.908Z</time></trkpt><trkpt lat="41.814715" lon="1.6018152"><ele>758.0</ele><time>2026-04-25T09:33:31.907Z</time></trkpt><trkpt lat="41.8148347" lon="1.6019789"><ele>758.0</ele><time>2026-04-25T09:33:32.908Z</time></trkpt><trkpt lat="41.8149619" lon="1.6021123"><ele>759.0</ele><time>2026-04-25T09:33:33.908Z</time></trkpt><trkpt lat="41.8150886" lon="1.6022416"><ele>760.0</ele><time>2026-04-25T09:33:34.909Z</time></trkpt><trkpt lat="41.8152015" lon="1.6023852"><ele>761.0</ele><time>2026-04-25T09:33:35.908Z</time></trkpt><trkpt lat="41.8153108" lon="1.6025291"><ele>761.0</ele><time>2026-04-25T09:33:36.908Z</time></trkpt><trkpt lat="41.8154147" lon="1.6026895"><ele>761.0</ele><time>2026-04-25T09:33:37.908Z</time></trkpt><trkpt lat="41.8155057" lon="1.6028694"><ele>761.0</ele><time>2026-04-25T09:33:38.908Z</time></trkpt><trkpt lat="41.8155821" lon="1.6030664"><ele>760.3333333333333</ele><time>2026-04-25T09:33:39.908Z</time></trkpt><trkpt lat="41.8156447" lon="1.6032701"><ele>759.6666666666666</ele><time>2026-04-25T09:33:40.908Z</time></trkpt><trkpt lat="41.8156966" lon="1.6034666"><ele>759.0</ele><time>2026-04-25T09:33:41.908Z</time></trkpt><trkpt lat="41.8157394" lon="1.603653"><ele>759.0</ele><time>2026-04-25T09:33:42.907Z</time></trkpt><trkpt lat="41.8157681" lon="1.6038463"><ele>759.0</ele><time>2026-04-25T09:33:43.908Z</time></trkpt><trkpt lat="41.8157769" lon="1.604042"><ele>759.0</ele><time>2026-04-25T09:33:44.907Z</time></trkpt><trkpt lat="41.8157947" lon="1.604242"><ele>759.0</ele><time>2026-04-25T09:33:45.908Z</time></trkpt><trkpt lat="41.8158356" lon="1.6044422"><ele>758.3333333333334</ele><time>2026-04-25T09:33:46.908Z</time></trkpt><trkpt lat="41.8159038" lon="1.6046452"><ele>757.6666666666667</ele><time>2026-04-25T09:33:47.908Z</time></trkpt><trkpt lat="41.8159834" lon="1.6048553"><ele>757.0</ele><time>2026-04-25T09:33:48.909Z</time></trkpt><trkpt lat="41.816066" lon="1.6050738"><ele>756.0</ele><time>2026-04-25T09:33:49.909Z</time></trkpt><trkpt lat="41.8161458" lon="1.6052965"><ele>755.0</ele><time>2026-04-25T09:33:50.908Z</time></trkpt><trkpt lat="41.8162231" lon="1.6055179"><ele>754.0</ele><time>2026-04-25T09:33:51.908Z</time></trkpt><trkpt lat="41.8162877" lon="1.605742"><ele>754.0</ele><time>2026-04-25T09:33:52.909Z</time></trkpt><trkpt lat="41.8163061" lon="1.6059619"><ele>754.0</ele><time>2026-04-25T09:33:53.909Z</time></trkpt><trkpt lat="41.8162977" lon="1.6061701"><ele>754.0</ele><time>2026-04-25T09:33:54.909Z</time></trkpt><trkpt lat="41.8162893" lon="1.6063858"><ele>753.6666666666667</ele><time>2026-04-25T09:33:55.908Z</time></trkpt><trkpt lat="41.8162871" lon="1.6066087"><ele>753.3333333333334</ele><time>2026-04-25T09:33:56.908Z</time></trkpt><trkpt lat="41.8162868" lon="1.6068334"><ele>753.0</ele><time>2026-04-25T09:33:57.907Z</time></trkpt><trkpt lat="41.816301" lon="1.6070483"><ele>753.0</ele><time>2026-04-25T09:33:58.908Z</time></trkpt><trkpt lat="41.8163395" lon="1.60727"><ele>753.0</ele><time>2026-04-25T09:33:59.909Z</time></trkpt><trkpt lat="41.8163913" lon="1.6075025"><ele>753.0</ele><time>2026-04-25T09:34:00.908Z</time></trkpt><trkpt lat="41.8164491" lon="1.6077485"><ele>751.6666666666666</ele><time>2026-04-25T09:34:01.909Z</time></trkpt><trkpt lat="41.8165145" lon="1.6080012"><ele>750.3333333333333</ele><time>2026-04-25T09:34:02.908Z</time></trkpt><trkpt lat="41.8165824" lon="1.6082564"><ele>749.0</ele><time>2026-04-25T09:34:03.908Z</time></trkpt><trkpt lat="41.8166545" lon="1.6085076"><ele>748.6666666666666</ele><time>2026-04-25T09:34:04.908Z</time></trkpt><trkpt lat="41.8167336" lon="1.6087493"><ele>748.3333333333334</ele><time>2026-04-25T09:34:05.907Z</time></trkpt><trkpt lat="41.8168251" lon="1.6089816"><ele>748.0</ele><time>2026-04-25T09:34:06.909Z</time></trkpt><trkpt lat="41.816923" lon="1.6092036"><ele>747.3333333333334</ele><time>2026-04-25T09:34:07.907Z</time></trkpt><trkpt lat="41.8170162" lon="1.6094218"><ele>746.6666666666666</ele><time>2026-04-25T09:34:08.909Z</time></trkpt><trkpt lat="41.817089" lon="1.609649"><ele>746.0</ele><time>2026-04-25T09:34:09.909Z</time></trkpt><trkpt lat="41.8171414" lon="1.6098826"><ele>746.0</ele><time>2026-04-25T09:34:10.908Z</time></trkpt><trkpt lat="41.8171943" lon="1.6101139"><ele>746.0</ele><time>2026-04-25T09:34:11.909Z</time></trkpt><trkpt lat="41.8172767" lon="1.6103251"><ele>746.0</ele><time>2026-04-25T09:34:12.907Z</time></trkpt><trkpt lat="41.8173843" lon="1.6105256"><ele>745.3333333333333</ele><time>2026-04-25T09:34:13.907Z</time></trkpt><trkpt lat="41.8175088" lon="1.6107121"><ele>744.6666666666666</ele><time>2026-04-25T09:34:14.908Z</time></trkpt><trkpt lat="41.8176326" lon="1.610901"><ele>744.0</ele><time>2026-04-25T09:34:15.909Z</time></trkpt><trkpt lat="41.8177349" lon="1.6111068"><ele>744.3333333333334</ele><time>2026-04-25T09:34:16.908Z</time></trkpt><trkpt lat="41.8178323" lon="1.6113205"><ele>744.6666666666667</ele><time>2026-04-25T09:34:17.909Z</time></trkpt><trkpt lat="41.8179382" lon="1.6115195"><ele>745.0</ele><time>2026-04-25T09:34:18.908Z</time></trkpt><trkpt lat="41.8180443" lon="1.6116998"><ele>745.0</ele><time>2026-04-25T09:34:19.909Z</time></trkpt><trkpt lat="41.8181465" lon="1.6118555"><ele>745.0</ele><time>2026-04-25T09:34:20.908Z</time></trkpt><trkpt lat="41.8182473" lon="1.6119787"><ele>745.0</ele><time>2026-04-25T09:34:21.908Z</time></trkpt><trkpt lat="41.8183438" lon="1.6120723"><ele>745.0</ele><time>2026-04-25T09:34:22.908Z</time></trkpt><trkpt lat="41.818441" lon="1.6121368"><ele>744.8</ele><time>2026-04-25T09:34:23.908Z</time></trkpt><trkpt lat="41.8185343" lon="1.6121612"><ele>744.6</ele><time>2026-04-25T09:34:24.908Z</time></trkpt><trkpt lat="41.8186316" lon="1.6121534"><ele>744.4000000000001</ele><time>2026-04-25T09:34:25.908Z</time></trkpt><trkpt lat="41.8187453" lon="1.6121128"><ele>744.2</ele><time>2026-04-25T09:34:26.908Z</time></trkpt><trkpt lat="41.8188732" lon="1.6120546"><ele>744.0</ele><time>2026-04-25T09:34:27.907Z</time></trkpt><trkpt lat="41.8190055" lon="1.6119892"><ele>744.0</ele><time>2026-04-25T09:34:28.907Z</time></trkpt><trkpt lat="41.8191308" lon="1.6119328"><ele>744.0</ele><time>2026-04-25T09:34:29.908Z</time></trkpt><trkpt lat="41.8192429" lon="1.611918"><ele>744.0</ele><time>2026-04-25T09:34:30.908Z</time></trkpt><trkpt lat="41.8193506" lon="1.6119429"><ele>744.0</ele><time>2026-04-25T09:34:31.907Z</time></trkpt><trkpt lat="41.8194611" lon="1.6120102"><ele>741.25</ele><time>2026-04-25T09:34:32.909Z</time></trkpt><trkpt lat="41.8195818" lon="1.6120998"><ele>738.5</ele><time>2026-04-25T09:34:33.909Z</time></trkpt><trkpt lat="41.8197088" lon="1.6122026"><ele>735.75</ele><time>2026-04-25T09:34:34.908Z</time></trkpt><trkpt lat="41.81984" lon="1.6123147"><ele>733.0</ele><time>2026-04-25T09:34:35.908Z</time></trkpt><trkpt lat="41.8199788" lon="1.6124401"><ele>733.0</ele><time>2026-04-25T09:34:36.909Z</time></trkpt><trkpt lat="41.8201201" lon="1.6125744"><ele>733.0</ele><time>2026-04-25T09:34:37.909Z</time></trkpt><trkpt lat="41.8202609" lon="1.6127097"><ele>733.0</ele><time>2026-04-25T09:34:38.907Z</time></trkpt><trkpt lat="41.8204009" lon="1.6128458"><ele>730.6666666666667</ele><time>2026-04-25T09:34:39.909Z</time></trkpt><trkpt lat="41.8205379" lon="1.6129788"><ele>728.3333333333334</ele><time>2026-04-25T09:34:40.907Z</time></trkpt><trkpt lat="41.8206729" lon="1.6131064"><ele>726.0</ele><time>2026-04-25T09:34:41.909Z</time></trkpt><trkpt lat="41.8208103" lon="1.6132184"><ele>726.0</ele><time>2026-04-25T09:34:42.907Z</time></trkpt><trkpt lat="41.8209511" lon="1.613313"><ele>726.0</ele><time>2026-04-25T09:34:43.908Z</time></trkpt><trkpt lat="41.8210951" lon="1.6133841"><ele>726.0</ele><time>2026-04-25T09:34:44.907Z</time></trkpt><trkpt lat="41.8212427" lon="1.6134348"><ele>723.3333333333334</ele><time>2026-04-25T09:34:45.908Z</time></trkpt><trkpt lat="41.8213981" lon="1.6134501"><ele>720.6666666666667</ele><time>2026-04-25T09:34:46.907Z</time></trkpt><trkpt lat="41.8215607" lon="1.6134303"><ele>718.0</ele><time>2026-04-25T09:34:47.907Z</time></trkpt><trkpt lat="41.8217282" lon="1.6133971"><ele>715.3333333333334</ele><time>2026-04-25T09:34:48.907Z</time></trkpt><trkpt lat="41.821899" lon="1.6133548"><ele>712.6666666666666</ele><time>2026-04-25T09:34:49.908Z</time></trkpt><trkpt lat="41.8220641" lon="1.6133136"><ele>710.0</ele><time>2026-04-25T09:34:50.908Z</time></trkpt><trkpt lat="41.8222244" lon="1.6132875"><ele>710.0</ele><time>2026-04-25T09:34:51.907Z</time></trkpt><trkpt lat="41.8223836" lon="1.6132963"><ele>710.0</ele><time>2026-04-25T09:34:52.908Z</time></trkpt><trkpt lat="41.8225495" lon="1.613343"><ele>710.0</ele><time>2026-04-25T09:34:53.908Z</time></trkpt><trkpt lat="41.8227367" lon="1.6133993"><ele>708.3333333333333</ele><time>2026-04-25T09:34:54.908Z</time></trkpt><trkpt lat="41.8229355" lon="1.6134408"><ele>706.6666666666666</ele><time>2026-04-25T09:34:55.908Z</time></trkpt><trkpt lat="41.8231393" lon="1.6134889"><ele>705.0</ele><time>2026-04-25T09:34:56.907Z</time></trkpt><trkpt lat="41.8233422" lon="1.6135519"><ele>705.0</ele><time>2026-04-25T09:34:57.908Z</time></trkpt><trkpt lat="41.8235395" lon="1.6136061"><ele>705.0</ele><time>2026-04-25T09:34:58.908Z</time></trkpt><trkpt lat="41.823728" lon="1.6136422"><ele>705.0</ele><time>2026-04-25T09:34:59.909Z</time></trkpt><trkpt lat="41.8239092" lon="1.6136766"><ele>705.0</ele><time>2026-04-25T09:35:00.909Z</time></trkpt><trkpt lat="41.8240779" lon="1.6137137"><ele>705.0</ele><time>2026-04-25T09:35:01.909Z</time></trkpt><trkpt lat="41.8242243" lon="1.6137536"><ele>705.0</ele><time>2026-04-25T09:35:02.909Z</time></trkpt><trkpt lat="41.8243373" lon="1.613792"><ele>705.0</ele><time>2026-04-25T09:35:03.909Z</time></trkpt><trkpt lat="41.8244312" lon="1.6138394"><ele>703.75</ele><time>2026-04-25T09:35:04.908Z</time></trkpt><trkpt lat="41.8245144" lon="1.6139193"><ele>702.5</ele><time>2026-04-25T09:35:05.909Z</time></trkpt><trkpt lat="41.8246025" lon="1.6140382"><ele>701.25</ele><time>2026-04-25T09:35:06.909Z</time></trkpt><trkpt lat="41.8246986" lon="1.6141782"><ele>700.0</ele><time>2026-04-25T09:35:07.908Z</time></trkpt><trkpt lat="41.8248015" lon="1.614335"><ele>700.3333333333334</ele><time>2026-04-25T09:35:08.907Z</time></trkpt><trkpt lat="41.8249086" lon="1.6145099"><ele>700.6666666666666</ele><time>2026-04-25T09:35:09.908Z</time></trkpt><trkpt lat="41.8250134" lon="1.6147039"><ele>701.0</ele><time>2026-04-25T09:35:10.909Z</time></trkpt><trkpt lat="41.8251173" lon="1.6149128"><ele>698.6666666666666</ele><time>2026-04-25T09:35:11.908Z</time></trkpt><trkpt lat="41.8252145" lon="1.6151293"><ele>696.3333333333334</ele><time>2026-04-25T09:35:12.908Z</time></trkpt><trkpt lat="41.8252991" lon="1.6153495"><ele>694.0</ele><time>2026-04-25T09:35:13.908Z</time></trkpt><trkpt lat="41.8253777" lon="1.6155639"><ele>694.0</ele><time>2026-04-25T09:35:14.908Z</time></trkpt><trkpt lat="41.825451" lon="1.6157665"><ele>694.0</ele><time>2026-04-25T09:35:15.907Z</time></trkpt><trkpt lat="41.8255189" lon="1.6159438"><ele>694.0</ele><time>2026-04-25T09:35:16.909Z</time></trkpt><trkpt lat="41.8255906" lon="1.6160958"><ele>694.25</ele><time>2026-04-25T09:35:17.907Z</time></trkpt><trkpt lat="41.825682" lon="1.6162226"><ele>694.5</ele><time>2026-04-25T09:35:18.909Z</time></trkpt><trkpt lat="41.8257956" lon="1.6163276"><ele>694.75</ele><time>2026-04-25T09:35:19.909Z</time></trkpt><trkpt lat="41.8259126" lon="1.6164137"><ele>695.0</ele><time>2026-04-25T09:35:20.909Z</time></trkpt><trkpt lat="41.8260216" lon="1.6164787"><ele>694.5</ele><time>2026-04-25T09:35:21.909Z</time></trkpt><trkpt lat="41.8261346" lon="1.6165142"><ele>694.0</ele><time>2026-04-25T09:35:22.909Z</time></trkpt><trkpt lat="41.8262554" lon="1.6165076"><ele>693.5</ele><time>2026-04-25T09:35:23.907Z</time></trkpt><trkpt lat="41.8263872" lon="1.6164739"><ele>693.0</ele><time>2026-04-25T09:35:24.909Z</time></trkpt><trkpt lat="41.8265064" lon="1.6164536"><ele>693.0</ele><time>2026-04-25T09:35:25.907Z</time></trkpt><trkpt lat="41.8266114" lon="1.6164118"><ele>693.0</ele><time>2026-04-25T09:35:26.909Z</time></trkpt><trkpt lat="41.8267069" lon="1.6163167"><ele>693.0</ele><time>2026-04-25T09:35:27.907Z</time></trkpt><trkpt lat="41.8267944" lon="1.6161883"><ele>693.0</ele><time>2026-04-25T09:35:28.908Z</time></trkpt><trkpt lat="41.8268914" lon="1.6160615"><ele>687.25</ele><time>2026-04-25T09:35:29.907Z</time></trkpt><trkpt lat="41.8270028" lon="1.6159744"><ele>681.5</ele><time>2026-04-25T09:35:30.909Z</time></trkpt><trkpt lat="41.8271269" lon="1.6159368"><ele>675.75</ele><time>2026-04-25T09:35:31.907Z</time></trkpt><trkpt lat="41.8272546" lon="1.6159538"><ele>670.0</ele><time>2026-04-25T09:35:32.908Z</time></trkpt><trkpt lat="41.8273742" lon="1.616012"><ele>670.0</ele><time>2026-04-25T09:35:33.908Z</time></trkpt><trkpt lat="41.8274825" lon="1.6161059"><ele>670.0</ele><time>2026-04-25T09:35:34.909Z</time></trkpt><trkpt lat="41.8275768" lon="1.6162139"><ele>670.0</ele><time>2026-04-25T09:35:35.908Z</time></trkpt><trkpt lat="41.8276828" lon="1.6162869"><ele>670.0</ele><time>2026-04-25T09:35:36.908Z</time></trkpt><trkpt lat="41.827805" lon="1.6163191"><ele>669.75</ele><time>2026-04-25T09:35:37.909Z</time></trkpt><trkpt lat="41.8279391" lon="1.6163408"><ele>669.5</ele><time>2026-04-25T09:35:38.907Z</time></trkpt><trkpt lat="41.828063" lon="1.6163751"><ele>669.25</ele><time>2026-04-25T09:35:39.909Z</time></trkpt><trkpt lat="41.8281776" lon="1.616446"><ele>669.0</ele><time>2026-04-25T09:35:40.908Z</time></trkpt><trkpt lat="41.8282898" lon="1.6165429"><ele>669.0</ele><time>2026-04-25T09:35:41.908Z</time></trkpt><trkpt lat="41.8284118" lon="1.6166348"><ele>669.0</ele><time>2026-04-25T09:35:42.908Z</time></trkpt><trkpt lat="41.8285378" lon="1.6166984"><ele>669.0</ele><time>2026-04-25T09:35:43.909Z</time></trkpt><trkpt lat="41.8286545" lon="1.6167407"><ele>669.0</ele><time>2026-04-25T09:35:44.908Z</time></trkpt><trkpt lat="41.8287606" lon="1.6167498"><ele>666.4000000000001</ele><time>2026-04-25T09:35:45.907Z</time></trkpt><trkpt lat="41.8288517" lon="1.6167146"><ele>663.8</ele><time>2026-04-25T09:35:46.908Z</time></trkpt><trkpt lat="41.828932" lon="1.6166374"><ele>661.2</ele><time>2026-04-25T09:35:47.907Z</time></trkpt><trkpt lat="41.8290104" lon="1.6165201"><ele>658.5999999999999</ele><time>2026-04-25T09:35:48.908Z</time></trkpt><trkpt lat="41.8290969" lon="1.616383"><ele>656.0</ele><time>2026-04-25T09:35:49.909Z</time></trkpt><trkpt lat="41.8291973" lon="1.6162387"><ele>654.25</ele><time>2026-04-25T09:35:50.908Z</time></trkpt><trkpt lat="41.8292989" lon="1.6160935"><ele>652.5</ele><time>2026-04-25T09:35:51.908Z</time></trkpt><trkpt lat="41.8293862" lon="1.6159525"><ele>650.75</ele><time>2026-04-25T09:35:52.907Z</time></trkpt><trkpt lat="41.8294583" lon="1.6158168"><ele>649.0</ele><time>2026-04-25T09:35:53.908Z</time></trkpt><trkpt lat="41.829537" lon="1.6156974"><ele>646.25</ele><time>2026-04-25T09:35:54.907Z</time></trkpt><trkpt lat="41.8296355" lon="1.6156025"><ele>643.5</ele><time>2026-04-25T09:35:55.908Z</time></trkpt><trkpt lat="41.82976" lon="1.6155489"><ele>640.75</ele><time>2026-04-25T09:35:56.906Z</time></trkpt><trkpt lat="41.8298987" lon="1.6155385"><ele>638.0</ele><time>2026-04-25T09:35:57.906Z</time></trkpt><trkpt lat="41.8300382" lon="1.6155681"><ele>633.25</ele><time>2026-04-25T09:35:58.906Z</time></trkpt><trkpt lat="41.8301607" lon="1.6156458"><ele>628.5</ele><time>2026-04-25T09:35:59.906Z</time></trkpt><trkpt lat="41.830265" lon="1.615763"><ele>623.75</ele><time>2026-04-25T09:36:00.907Z</time></trkpt><trkpt lat="41.8303583" lon="1.6159029"><ele>619.0</ele><time>2026-04-25T09:36:01.907Z</time></trkpt><trkpt lat="41.8304405" lon="1.6160502"><ele>619.0</ele><time>2026-04-25T09:36:02.907Z</time></trkpt><trkpt lat="41.8305065" lon="1.616194"><ele>619.0</ele><time>2026-04-25T09:36:03.906Z</time></trkpt><trkpt lat="41.830577" lon="1.6163111"><ele>619.0</ele><time>2026-04-25T09:36:04.908Z</time></trkpt><trkpt lat="41.8306674" lon="1.6163979"><ele>619.0</ele><time>2026-04-25T09:36:05.908Z</time></trkpt><trkpt lat="41.8307802" lon="1.6164583"><ele>619.0</ele><time>2026-04-25T09:36:06.907Z</time></trkpt><trkpt lat="41.8309149" lon="1.6165112"><ele>619.0</ele><time>2026-04-25T09:36:07.906Z</time></trkpt><trkpt lat="41.8310584" lon="1.6165806"><ele>619.0</ele><time>2026-04-25T09:36:08.907Z</time></trkpt><trkpt lat="41.8311972" lon="1.6166857"><ele>615.6666666666667</ele><time>2026-04-25T09:36:09.906Z</time></trkpt><trkpt lat="41.8313345" lon="1.6168065"><ele>612.3333333333334</ele><time>2026-04-25T09:36:10.907Z</time></trkpt><trkpt lat="41.8314735" lon="1.6169368"><ele>609.0</ele><time>2026-04-25T09:36:11.907Z</time></trkpt><trkpt lat="41.8316063" lon="1.6170669"><ele>608.5</ele><time>2026-04-25T09:36:12.907Z</time></trkpt><trkpt lat="41.8317288" lon="1.6171937"><ele>608.0</ele><time>2026-04-25T09:36:13.908Z</time></trkpt><trkpt lat="41.8318423" lon="1.6172992"><ele>607.5</ele><time>2026-04-25T09:36:14.907Z</time></trkpt><trkpt lat="41.8319637" lon="1.617381"><ele>607.0</ele><time>2026-04-25T09:36:15.907Z</time></trkpt><trkpt lat="41.8320958" lon="1.6174301"><ele>607.0</ele><time>2026-04-25T09:36:16.907Z</time></trkpt><trkpt lat="41.8322423" lon="1.6174577"><ele>607.0</ele><time>2026-04-25T09:36:17.907Z</time></trkpt><trkpt lat="41.8323971" lon="1.6174744"><ele>607.0</ele><time>2026-04-25T09:36:18.908Z</time></trkpt><trkpt lat="41.8325563" lon="1.6174714"><ele>605.3333333333334</ele><time>2026-04-25T09:36:19.908Z</time></trkpt><trkpt lat="41.8327219" lon="1.6174551"><ele>603.6666666666666</ele><time>2026-04-25T09:36:20.906Z</time></trkpt><trkpt lat="41.8328795" lon="1.6174448"><ele>602.0</ele><time>2026-04-25T09:36:21.908Z</time></trkpt><trkpt lat="41.8330276" lon="1.6174418"><ele>602.0</ele><time>2026-04-25T09:36:22.907Z</time></trkpt><trkpt lat="41.8331683" lon="1.6174505"><ele>602.0</ele><time>2026-04-25T09:36:23.906Z</time></trkpt><trkpt lat="41.8332992" lon="1.6174965"><ele>602.0</ele><time>2026-04-25T09:36:24.906Z</time></trkpt><trkpt lat="41.8334266" lon="1.6175866"><ele>602.0</ele><time>2026-04-25T09:36:25.908Z</time></trkpt><trkpt lat="41.8335551" lon="1.6177018"><ele>600.0</ele><time>2026-04-25T09:36:26.906Z</time></trkpt><trkpt lat="41.8336983" lon="1.6178245"><ele>598.0</ele><time>2026-04-25T09:36:27.907Z</time></trkpt><trkpt lat="41.8338532" lon="1.6179472"><ele>596.0</ele><time>2026-04-25T09:36:28.907Z</time></trkpt><trkpt lat="41.8340169" lon="1.6180659"><ele>596.0</ele><time>2026-04-25T09:36:29.906Z</time></trkpt><trkpt lat="41.8341768" lon="1.6181846"><ele>596.0</ele><time>2026-04-25T09:36:30.908Z</time></trkpt><trkpt lat="41.834332" lon="1.6183052"><ele>596.0</ele><time>2026-04-25T09:36:31.907Z</time></trkpt><trkpt lat="41.8344871" lon="1.6184185"><ele>594.6666666666666</ele><time>2026-04-25T09:36:32.906Z</time></trkpt><trkpt lat="41.8346499" lon="1.6185271"><ele>593.3333333333334</ele><time>2026-04-25T09:36:33.907Z</time></trkpt><trkpt lat="41.8348242" lon="1.6186206"><ele>592.0</ele><time>2026-04-25T09:36:34.908Z</time></trkpt><trkpt lat="41.8350064" lon="1.6187055"><ele>591.6666666666667</ele><time>2026-04-25T09:36:35.907Z</time></trkpt><trkpt lat="41.8351883" lon="1.6187801"><ele>591.3333333333334</ele><time>2026-04-25T09:36:36.908Z</time></trkpt><trkpt lat="41.8353589" lon="1.6188604"><ele>591.0</ele><time>2026-04-25T09:36:37.907Z</time></trkpt><trkpt lat="41.8355216" lon="1.6189522"><ele>591.0</ele><time>2026-04-25T09:36:38.908Z</time></trkpt><trkpt lat="41.8356658" lon="1.6190692"><ele>591.0</ele><time>2026-04-25T09:36:39.907Z</time></trkpt><trkpt lat="41.8357991" lon="1.6192148"><ele>591.0</ele><time>2026-04-25T09:36:40.908Z</time></trkpt><trkpt lat="41.8359266" lon="1.6193727"><ele>591.3333333333334</ele><time>2026-04-25T09:36:41.907Z</time></trkpt><trkpt lat="41.8360567" lon="1.6195307"><ele>591.6666666666667</ele><time>2026-04-25T09:36:42.907Z</time></trkpt><trkpt lat="41.8361922" lon="1.6196854"><ele>592.0</ele><time>2026-04-25T09:36:43.908Z</time></trkpt><trkpt lat="41.8363324" lon="1.6198303"><ele>592.0</ele><time>2026-04-25T09:36:44.907Z</time></trkpt><trkpt lat="41.8364656" lon="1.6199658"><ele>592.0</ele><time>2026-04-25T09:36:45.908Z</time></trkpt><trkpt lat="41.8365857" lon="1.620101"><ele>592.0</ele><time>2026-04-25T09:36:46.907Z</time></trkpt><trkpt lat="41.8366878" lon="1.6202418"><ele>593.0</ele><time>2026-04-25T09:36:47.907Z</time></trkpt><trkpt lat="41.8367625" lon="1.6204035"><ele>594.0</ele><time>2026-04-25T09:36:48.907Z</time></trkpt><trkpt lat="41.8368148" lon="1.620596"><ele>595.0</ele><time>2026-04-25T09:36:49.907Z</time></trkpt><trkpt lat="41.8368586" lon="1.6208097"><ele>595.0</ele><time>2026-04-25T09:36:50.908Z</time></trkpt><trkpt lat="41.836894" lon="1.6210391"><ele>595.0</ele><time>2026-04-25T09:36:51.907Z</time></trkpt><trkpt lat="41.8369145" lon="1.6212633"><ele>595.0</ele><time>2026-04-25T09:36:52.908Z</time></trkpt><trkpt lat="41.8369415" lon="1.6214682"><ele>593.5</ele><time>2026-04-25T09:36:53.906Z</time></trkpt><trkpt lat="41.8369915" lon="1.6216415"><ele>592.0</ele><time>2026-04-25T09:36:54.907Z</time></trkpt><trkpt lat="41.8370633" lon="1.6218023"><ele>590.5</ele><time>2026-04-25T09:36:55.908Z</time></trkpt><trkpt lat="41.8371584" lon="1.6219563"><ele>589.0</ele><time>2026-04-25T09:36:56.907Z</time></trkpt><trkpt lat="41.8372668" lon="1.6221144"><ele>586.0</ele><time>2026-04-25T09:36:57.906Z</time></trkpt><trkpt lat="41.8373823" lon="1.6222793"><ele>583.0</ele><time>2026-04-25T09:36:58.908Z</time></trkpt><trkpt lat="41.8375017" lon="1.6224516"><ele>580.0</ele><time>2026-04-25T09:36:59.907Z</time></trkpt><trkpt lat="41.8376244" lon="1.6226326"><ele>576.0</ele><time>2026-04-25T09:37:00.906Z</time></trkpt><trkpt lat="41.8377515" lon="1.6228197"><ele>572.0</ele><time>2026-04-25T09:37:01.907Z</time></trkpt><trkpt lat="41.837888" lon="1.6230146"><ele>568.0</ele><time>2026-04-25T09:37:02.906Z</time></trkpt><trkpt lat="41.8380267" lon="1.6232146"><ele>568.0</ele><time>2026-04-25T09:37:03.906Z</time></trkpt><trkpt lat="41.8381684" lon="1.623413"><ele>568.0</ele><time>2026-04-25T09:37:04.907Z</time></trkpt><trkpt lat="41.8383095" lon="1.6236014"><ele>568.0</ele><time>2026-04-25T09:37:05.906Z</time></trkpt><trkpt lat="41.83844" lon="1.6237869"><ele>564.3333333333334</ele><time>2026-04-25T09:37:06.907Z</time></trkpt><trkpt lat="41.8385638" lon="1.623966"><ele>560.6666666666666</ele><time>2026-04-25T09:37:07.907Z</time></trkpt><trkpt lat="41.8386888" lon="1.6241341"><ele>557.0</ele><time>2026-04-25T09:37:08.907Z</time></trkpt><trkpt lat="41.8388071" lon="1.6243022"><ele>557.0</ele><time>2026-04-25T09:37:09.906Z</time></trkpt><trkpt lat="41.8389092" lon="1.6244781"><ele>557.0</ele><time>2026-04-25T09:37:10.908Z</time></trkpt><trkpt lat="41.8389966" lon="1.6246753"><ele>557.0</ele><time>2026-04-25T09:37:11.907Z</time></trkpt><trkpt lat="41.8390646" lon="1.6248885"><ele>557.3333333333333</ele><time>2026-04-25T09:37:12.908Z</time></trkpt><trkpt lat="41.8391126" lon="1.6251034"><ele>557.6666666666666</ele><time>2026-04-25T09:37:13.907Z</time></trkpt><trkpt lat="41.8391583" lon="1.6253064"><ele>558.0</ele><time>2026-04-25T09:37:14.907Z</time></trkpt><trkpt lat="41.8392214" lon="1.6254837"><ele>556.5</ele><time>2026-04-25T09:37:15.906Z</time></trkpt><trkpt lat="41.8392943" lon="1.6256412"><ele>555.0</ele><time>2026-04-25T09:37:16.907Z</time></trkpt><trkpt lat="41.8393704" lon="1.6257904"><ele>553.5</ele><time>2026-04-25T09:37:17.906Z</time></trkpt><trkpt lat="41.839424" lon="1.6259307"><ele>552.0</ele><time>2026-04-25T09:37:18.907Z</time></trkpt><trkpt lat="41.8394366" lon="1.6260746"><ele>552.0</ele><time>2026-04-25T09:37:19.908Z</time></trkpt><trkpt lat="41.839404" lon="1.6262074"><ele>552.0</ele><time>2026-04-25T09:37:20.907Z</time></trkpt><trkpt lat="41.8393336" lon="1.6263171"><ele>552.0</ele><time>2026-04-25T09:37:21.907Z</time></trkpt><trkpt lat="41.8392487" lon="1.6264217"><ele>552.0</ele><time>2026-04-25T09:37:22.907Z</time></trkpt><trkpt lat="41.8391713" lon="1.6265207"><ele>552.0</ele><time>2026-04-25T09:37:23.907Z</time></trkpt><trkpt lat="41.8391118" lon="1.6266288"><ele>551.0</ele><time>2026-04-25T09:37:24.907Z</time></trkpt><trkpt lat="41.8390791" lon="1.6267657"><ele>550.0</ele><time>2026-04-25T09:37:25.907Z</time></trkpt><trkpt lat="41.839074" lon="1.6269259"><ele>549.0</ele><time>2026-04-25T09:37:26.906Z</time></trkpt><trkpt lat="41.8390962" lon="1.6270875"><ele>548.0</ele><time>2026-04-25T09:37:27.906Z</time></trkpt><trkpt lat="41.83914" lon="1.6272276"><ele>548.75</ele><time>2026-04-25T09:37:28.907Z</time></trkpt><trkpt lat="41.8392119" lon="1.6273413"><ele>549.5</ele><time>2026-04-25T09:37:29.907Z</time></trkpt><trkpt lat="41.8393068" lon="1.6274217"><ele>550.25</ele><time>2026-04-25T09:37:30.907Z</time></trkpt><trkpt lat="41.8394011" lon="1.6275111"><ele>551.0</ele><time>2026-04-25T09:37:31.907Z</time></trkpt><trkpt lat="41.8394764" lon="1.6276539"><ele>547.5</ele><time>2026-04-25T09:37:32.907Z</time></trkpt><trkpt lat="41.8395526" lon="1.6278148"><ele>544.0</ele><time>2026-04-25T09:37:33.907Z</time></trkpt><trkpt lat="41.8396302" lon="1.6279828"><ele>540.5</ele><time>2026-04-25T09:37:34.907Z</time></trkpt><trkpt lat="41.8397058" lon="1.6281384"><ele>537.0</ele><time>2026-04-25T09:37:35.908Z</time></trkpt><trkpt lat="41.8397839" lon="1.6282804"><ele>537.0</ele><time>2026-04-25T09:37:36.907Z</time></trkpt><trkpt lat="41.8398756" lon="1.6284013"><ele>537.0</ele><time>2026-04-25T09:37:37.907Z</time></trkpt><trkpt lat="41.8399783" lon="1.6285055"><ele>537.0</ele><time>2026-04-25T09:37:38.907Z</time></trkpt><trkpt lat="41.8400787" lon="1.6286196"><ele>537.0</ele><time>2026-04-25T09:37:39.907Z</time></trkpt><trkpt lat="41.8401556" lon="1.6287584"><ele>535.25</ele><time>2026-04-25T09:37:40.907Z</time></trkpt><trkpt lat="41.8402314" lon="1.6288825"><ele>533.5</ele><time>2026-04-25T09:37:41.907Z</time></trkpt><trkpt lat="41.8403281" lon="1.6289897"><ele>531.75</ele><time>2026-04-25T09:37:42.907Z</time></trkpt><trkpt lat="41.8404336" lon="1.62909"><ele>530.0</ele><time>2026-04-25T09:37:43.907Z</time></trkpt><trkpt lat="41.8405464" lon="1.6291869"><ele>530.0</ele><time>2026-04-25T09:37:44.908Z</time></trkpt><trkpt lat="41.8406692" lon="1.6292676"><ele>530.0</ele><time>2026-04-25T09:37:45.908Z</time></trkpt><trkpt lat="41.840795" lon="1.6293327"><ele>530.0</ele><time>2026-04-25T09:37:46.907Z</time></trkpt><trkpt lat="41.8409194" lon="1.629387"><ele>530.0</ele><time>2026-04-25T09:37:47.907Z</time></trkpt><trkpt lat="41.8410537" lon="1.6294134"><ele>527.6666666666666</ele><time>2026-04-25T09:37:48.908Z</time></trkpt><trkpt lat="41.8411941" lon="1.6294132"><ele>525.3333333333334</ele><time>2026-04-25T09:37:49.907Z</time></trkpt><trkpt lat="41.8413426" lon="1.6294109"><ele>523.0</ele><time>2026-04-25T09:37:50.908Z</time></trkpt><trkpt lat="41.8415028" lon="1.629444"><ele>516.3333333333334</ele><time>2026-04-25T09:37:51.907Z</time></trkpt><trkpt lat="41.8416647" lon="1.6294962"><ele>509.66666666666663</ele><time>2026-04-25T09:37:52.907Z</time></trkpt><trkpt lat="41.8418188" lon="1.6295533"><ele>503.0</ele><time>2026-04-25T09:37:53.907Z</time></trkpt><trkpt lat="41.8419612" lon="1.6296022"><ele>502.75</ele><time>2026-04-25T09:37:54.907Z</time></trkpt><trkpt lat="41.8420983" lon="1.6296318"><ele>502.5</ele><time>2026-04-25T09:37:55.908Z</time></trkpt><trkpt lat="41.8422337" lon="1.6296369"><ele>502.25</ele><time>2026-04-25T09:37:56.908Z</time></trkpt><trkpt lat="41.8423642" lon="1.629635"><ele>502.0</ele><time>2026-04-25T09:37:57.908Z</time></trkpt><trkpt lat="41.8424858" lon="1.6296576"><ele>502.0</ele><time>2026-04-25T09:37:58.907Z</time></trkpt><trkpt lat="41.8426048" lon="1.6297139"><ele>502.0</ele><time>2026-04-25T09:37:59.908Z</time></trkpt><trkpt lat="41.8427195" lon="1.6298008"><ele>502.0</ele><time>2026-04-25T09:38:00.908Z</time></trkpt><trkpt lat="41.8428385" lon="1.629922"><ele>502.0</ele><time>2026-04-25T09:38:01.907Z</time></trkpt><trkpt lat="41.8429634" lon="1.6300495"><ele>499.75</ele><time>2026-04-25T09:38:02.907Z</time></trkpt><trkpt lat="41.8430891" lon="1.6301669"><ele>497.5</ele><time>2026-04-25T09:38:03.908Z</time></trkpt><trkpt lat="41.8432047" lon="1.6302744"><ele>495.25</ele><time>2026-04-25T09:38:04.907Z</time></trkpt><trkpt lat="41.8433053" lon="1.6303928"><ele>493.0</ele><time>2026-04-25T09:38:05.907Z</time></trkpt><trkpt lat="41.8433848" lon="1.630518"><ele>493.00000000000006</ele><time>2026-04-25T09:38:06.908Z</time></trkpt><trkpt lat="41.8434462" lon="1.6306377"><ele>493.0</ele><time>2026-04-25T09:38:07.906Z</time></trkpt><trkpt lat="41.8434898" lon="1.6307424"><ele>493.0</ele><time>2026-04-25T09:38:08.907Z</time></trkpt><trkpt lat="41.8435217" lon="1.6308245"><ele>493.0</ele><time>2026-04-25T09:38:09.908Z</time></trkpt><trkpt lat="41.8435753" lon="1.6309107"><ele>493.00000000000006</ele><time>2026-04-25T09:38:11.907Z</time></trkpt><trkpt lat="41.8436429" lon="1.630899"><ele>493.0</ele><time>2026-04-25T09:38:13.907Z</time></trkpt><trkpt lat="41.8437448" lon="1.6308226"><ele>492.1666666666667</ele><time>2026-04-25T09:38:15.907Z</time></trkpt><trkpt lat="41.8438126" lon="1.630796"><ele>491.33333333333337</ele><time>2026-04-25T09:38:16.907Z</time></trkpt><trkpt lat="41.8438736" lon="1.6307743"><ele>490.5</ele><time>2026-04-25T09:38:17.906Z</time></trkpt><trkpt lat="41.8439611" lon="1.6307411"><ele>489.66666666666663</ele><time>2026-04-25T09:38:19.907Z</time></trkpt><trkpt lat="41.8440365" lon="1.6307082"><ele>488.8333333333333</ele><time>2026-04-25T09:38:22.908Z</time></trkpt><trkpt lat="41.8440881" lon="1.630635"><ele>488.0</ele><time>2026-04-25T09:38:30.907Z</time></trkpt><trkpt lat="41.8440686" lon="1.6304951"><ele>488.0</ele><time>2026-04-25T09:38:32.907Z</time></trkpt><trkpt lat="41.8440384" lon="1.6303977"><ele>487.99999999999994</ele><time>2026-04-25T09:38:33.906Z</time></trkpt><trkpt lat="41.8440022" lon="1.6302866"><ele>487.99999999999994</ele><time>2026-04-25T09:38:34.907Z</time></trkpt><trkpt lat="41.8439552" lon="1.6301563"><ele>488.0</ele><time>2026-04-25T09:38:35.907Z</time></trkpt><trkpt lat="41.8439033" lon="1.6300076"><ele>488.0</ele><time>2026-04-25T09:38:36.908Z</time></trkpt><trkpt lat="41.8438531" lon="1.6298514"><ele>490.0</ele><time>2026-04-25T09:38:37.907Z</time></trkpt><trkpt lat="41.843794" lon="1.6296852"><ele>492.0</ele><time>2026-04-25T09:38:38.908Z</time></trkpt><trkpt lat="41.8437289" lon="1.6295036"><ele>494.0</ele><time>2026-04-25T09:38:39.907Z</time></trkpt><trkpt lat="41.8436523" lon="1.6293194"><ele>496.0</ele><time>2026-04-25T09:38:40.907Z</time></trkpt><trkpt lat="41.8435609" lon="1.6291454"><ele>496.0</ele><time>2026-04-25T09:38:41.907Z</time></trkpt><trkpt lat="41.8434516" lon="1.6289745"><ele>496.0</ele><time>2026-04-25T09:38:42.907Z</time></trkpt><trkpt lat="41.8433353" lon="1.6287885"><ele>496.0</ele><time>2026-04-25T09:38:43.907Z</time></trkpt><trkpt lat="41.8432268" lon="1.6285797"><ele>496.0</ele><time>2026-04-25T09:38:44.907Z</time></trkpt><trkpt lat="41.8431338" lon="1.6283518"><ele>496.0</ele><time>2026-04-25T09:38:45.908Z</time></trkpt><trkpt lat="41.8430454" lon="1.6281109"><ele>496.0</ele><time>2026-04-25T09:38:46.907Z</time></trkpt><trkpt lat="41.8429522" lon="1.6278684"><ele>495.33333333333337</ele><time>2026-04-25T09:38:47.908Z</time></trkpt><trkpt lat="41.8428448" lon="1.6276281"><ele>494.66666666666663</ele><time>2026-04-25T09:38:48.907Z</time></trkpt><trkpt lat="41.8427273" lon="1.627372"><ele>494.0</ele><time>2026-04-25T09:38:49.906Z</time></trkpt><trkpt lat="41.8426055" lon="1.6271032"><ele>497.5</ele><time>2026-04-25T09:38:50.907Z</time></trkpt><trkpt lat="41.8424792" lon="1.6268208"><ele>501.0</ele><time>2026-04-25T09:38:51.908Z</time></trkpt><trkpt lat="41.8423525" lon="1.6265266"><ele>501.0</ele><time>2026-04-25T09:38:52.907Z</time></trkpt><trkpt lat="41.8422401" lon="1.6262327"><ele>501.0</ele><time>2026-04-25T09:38:53.908Z</time></trkpt><trkpt lat="41.8421415" lon="1.6259414"><ele>506.5</ele><time>2026-04-25T09:38:54.906Z</time></trkpt><trkpt lat="41.842053" lon="1.6256508"><ele>512.0</ele><time>2026-04-25T09:38:55.907Z</time></trkpt><trkpt lat="41.8419678" lon="1.6253609"><ele>516.0</ele><time>2026-04-25T09:38:56.907Z</time></trkpt><trkpt lat="41.8418656" lon="1.6250858"><ele>520.0</ele><time>2026-04-25T09:38:57.908Z</time></trkpt><trkpt lat="41.8417461" lon="1.6248294"><ele>515.3333333333334</ele><time>2026-04-25T09:38:58.908Z</time></trkpt><trkpt lat="41.8416158" lon="1.6245799"><ele>510.66666666666663</ele><time>2026-04-25T09:38:59.908Z</time></trkpt><trkpt lat="41.8414806" lon="1.6243431"><ele>506.0</ele><time>2026-04-25T09:39:00.908Z</time></trkpt><trkpt lat="41.8413465" lon="1.6241306"><ele>506.0</ele><time>2026-04-25T09:39:01.908Z</time></trkpt><trkpt lat="41.8412178" lon="1.6239245"><ele>506.0</ele><time>2026-04-25T09:39:02.906Z</time></trkpt><trkpt lat="41.8411136" lon="1.6236952"><ele>506.0</ele><time>2026-04-25T09:39:03.907Z</time></trkpt><trkpt lat="41.8410379" lon="1.6234403"><ele>504.3333333333333</ele><time>2026-04-25T09:39:04.907Z</time></trkpt><trkpt lat="41.8409857" lon="1.6231663"><ele>502.66666666666663</ele><time>2026-04-25T09:39:05.907Z</time></trkpt><trkpt lat="41.840946" lon="1.6228982"><ele>501.0</ele><time>2026-04-25T09:39:06.906Z</time></trkpt><trkpt lat="41.8409117" lon="1.6226459"><ele>501.0</ele><time>2026-04-25T09:39:07.907Z</time></trkpt><trkpt lat="41.8409046" lon="1.6223838"><ele>501.0</ele><time>2026-04-25T09:39:08.907Z</time></trkpt><trkpt lat="41.8409363" lon="1.6221228"><ele>501.0</ele><time>2026-04-25T09:39:09.907Z</time></trkpt><trkpt lat="41.8410083" lon="1.6218761"><ele>505.33333333333337</ele><time>2026-04-25T09:39:10.907Z</time></trkpt><trkpt lat="41.8411131" lon="1.6216449"><ele>509.6666666666667</ele><time>2026-04-25T09:39:11.907Z</time></trkpt><trkpt lat="41.8412283" lon="1.6214185"><ele>514.0</ele><time>2026-04-25T09:39:12.907Z</time></trkpt><trkpt lat="41.8413488" lon="1.6212093"><ele>511.33333333333337</ele><time>2026-04-25T09:39:13.908Z</time></trkpt><trkpt lat="41.8414552" lon="1.6210101"><ele>508.66666666666663</ele><time>2026-04-25T09:39:14.907Z</time></trkpt><trkpt lat="41.8415477" lon="1.6208003"><ele>506.0</ele><time>2026-04-25T09:39:15.906Z</time></trkpt><trkpt lat="41.8416129" lon="1.6205627"><ele>507.3333333333333</ele><time>2026-04-25T09:39:16.907Z</time></trkpt><trkpt lat="41.8416392" lon="1.6203038"><ele>508.66666666666663</ele><time>2026-04-25T09:39:17.908Z</time></trkpt><trkpt lat="41.8416389" lon="1.6200342"><ele>510.0</ele><time>2026-04-25T09:39:18.907Z</time></trkpt><trkpt lat="41.8416299" lon="1.6197566"><ele>510.66666666666663</ele><time>2026-04-25T09:39:19.908Z</time></trkpt><trkpt lat="41.8416224" lon="1.6194827"><ele>511.3333333333333</ele><time>2026-04-25T09:39:20.908Z</time></trkpt><trkpt lat="41.841608" lon="1.6192141"><ele>512.0</ele><time>2026-04-25T09:39:21.907Z</time></trkpt><trkpt lat="41.8415854" lon="1.6189535"><ele>512.0</ele><time>2026-04-25T09:39:22.907Z</time></trkpt><trkpt lat="41.8415596" lon="1.6187011"><ele>512.0</ele><time>2026-04-25T09:39:23.906Z</time></trkpt><trkpt lat="41.8415164" lon="1.6184652"><ele>512.0</ele><time>2026-04-25T09:39:24.907Z</time></trkpt><trkpt lat="41.8414362" lon="1.6182375"><ele>512.6666666666666</ele><time>2026-04-25T09:39:25.907Z</time></trkpt><trkpt lat="41.8413193" lon="1.6180175"><ele>513.3333333333334</ele><time>2026-04-25T09:39:26.907Z</time></trkpt><trkpt lat="41.8411781" lon="1.6177978"><ele>514.0</ele><time>2026-04-25T09:39:27.907Z</time></trkpt><trkpt lat="41.8410349" lon="1.6175621"><ele>510.0</ele><time>2026-04-25T09:39:28.907Z</time></trkpt><trkpt lat="41.8408931" lon="1.6172989"><ele>506.0</ele><time>2026-04-25T09:39:29.908Z</time></trkpt><trkpt lat="41.8407457" lon="1.6170379"><ele>507.3333333333333</ele><time>2026-04-25T09:39:30.907Z</time></trkpt><trkpt lat="41.8405984" lon="1.616812"><ele>508.66666666666663</ele><time>2026-04-25T09:39:31.907Z</time></trkpt><trkpt lat="41.8404658" lon="1.616597"><ele>510.0</ele><time>2026-04-25T09:39:32.907Z</time></trkpt><trkpt lat="41.8403645" lon="1.616379"><ele>512.0</ele><time>2026-04-25T09:39:33.907Z</time></trkpt><trkpt lat="41.8402944" lon="1.6161502"><ele>514.0</ele><time>2026-04-25T09:39:34.907Z</time></trkpt><trkpt lat="41.8402653" lon="1.6158966"><ele>516.0</ele><time>2026-04-25T09:39:35.908Z</time></trkpt><trkpt lat="41.8402608" lon="1.6156364"><ele>516.0</ele><time>2026-04-25T09:39:36.906Z</time></trkpt><trkpt lat="41.8402547" lon="1.6153812"><ele>516.0</ele><time>2026-04-25T09:39:37.907Z</time></trkpt><trkpt lat="41.8402278" lon="1.615146"><ele>516.0</ele><time>2026-04-25T09:39:38.907Z</time></trkpt><trkpt lat="41.8401646" lon="1.614924"><ele>514.6666666666666</ele><time>2026-04-25T09:39:39.908Z</time></trkpt><trkpt lat="41.8400561" lon="1.6147238"><ele>513.3333333333333</ele><time>2026-04-25T09:39:40.908Z</time></trkpt><trkpt lat="41.8399167" lon="1.6145375"><ele>512.0</ele><time>2026-04-25T09:39:41.907Z</time></trkpt><trkpt lat="41.8397564" lon="1.6143481"><ele>512.0</ele><time>2026-04-25T09:39:42.907Z</time></trkpt><trkpt lat="41.8395983" lon="1.6141576"><ele>512.0</ele><time>2026-04-25T09:39:43.907Z</time></trkpt><trkpt lat="41.8394579" lon="1.6139697"><ele>512.0</ele><time>2026-04-25T09:39:44.907Z</time></trkpt><trkpt lat="41.8393489" lon="1.6137542"><ele>512.3333333333333</ele><time>2026-04-25T09:39:45.907Z</time></trkpt><trkpt lat="41.8392632" lon="1.6135194"><ele>512.6666666666666</ele><time>2026-04-25T09:39:46.907Z</time></trkpt><trkpt lat="41.8392092" lon="1.6132639"><ele>513.0</ele><time>2026-04-25T09:39:47.908Z</time></trkpt><trkpt lat="41.8391818" lon="1.612997"><ele>515.0</ele><time>2026-04-25T09:39:48.908Z</time></trkpt><trkpt lat="41.8391544" lon="1.6127284"><ele>517.0</ele><time>2026-04-25T09:39:49.908Z</time></trkpt><trkpt lat="41.8391084" lon="1.6124738"><ele>519.0</ele><time>2026-04-25T09:39:50.907Z</time></trkpt><trkpt lat="41.8390433" lon="1.6122234"><ele>522.0</ele><time>2026-04-25T09:39:51.906Z</time></trkpt><trkpt lat="41.8389584" lon="1.6119828"><ele>525.0</ele><time>2026-04-25T09:39:52.908Z</time></trkpt><trkpt lat="41.8388579" lon="1.6117442"><ele>528.0</ele><time>2026-04-25T09:39:53.907Z</time></trkpt><trkpt lat="41.8387541" lon="1.6115009"><ele>528.0</ele><time>2026-04-25T09:39:54.907Z</time></trkpt><trkpt lat="41.8386589" lon="1.6112539"><ele>528.0</ele><time>2026-04-25T09:39:55.907Z</time></trkpt><trkpt lat="41.8385791" lon="1.6109875"><ele>528.0</ele><time>2026-04-25T09:39:56.906Z</time></trkpt><trkpt lat="41.8385127" lon="1.6107071"><ele>527.5</ele><time>2026-04-25T09:39:57.907Z</time></trkpt><trkpt lat="41.8384433" lon="1.6104043"><ele>527.0</ele><time>2026-04-25T09:39:58.907Z</time></trkpt><trkpt lat="41.838363" lon="1.6100868"><ele>530.0</ele><time>2026-04-25T09:39:59.907Z</time></trkpt><trkpt lat="41.8382815" lon="1.6097589"><ele>533.0</ele><time>2026-04-25T09:40:00.908Z</time></trkpt><trkpt lat="41.8382009" lon="1.6094391"><ele>535.5</ele><time>2026-04-25T09:40:01.908Z</time></trkpt><trkpt lat="41.8381244" lon="1.6091347"><ele>538.0</ele><time>2026-04-25T09:40:02.906Z</time></trkpt><trkpt lat="41.8380559" lon="1.6088422"><ele>539.3333333333334</ele><time>2026-04-25T09:40:03.907Z</time></trkpt><trkpt lat="41.8379978" lon="1.6085513"><ele>540.6666666666666</ele><time>2026-04-25T09:40:04.907Z</time></trkpt><trkpt lat="41.837947" lon="1.6082768"><ele>542.0</ele><time>2026-04-25T09:40:05.908Z</time></trkpt><trkpt lat="41.8378955" lon="1.608011"><ele>542.6666666666666</ele><time>2026-04-25T09:40:06.907Z</time></trkpt><trkpt lat="41.8378357" lon="1.6077507"><ele>543.3333333333334</ele><time>2026-04-25T09:40:07.908Z</time></trkpt><trkpt lat="41.8377562" lon="1.6075024"><ele>544.0</ele><time>2026-04-25T09:40:08.908Z</time></trkpt><trkpt lat="41.8376452" lon="1.6072696"><ele>543.0</ele><time>2026-04-25T09:40:09.906Z</time></trkpt><trkpt lat="41.8375066" lon="1.6070679"><ele>542.0</ele><time>2026-04-25T09:40:10.908Z</time></trkpt><trkpt lat="41.8373454" lon="1.6069034"><ele>541.0</ele><time>2026-04-25T09:40:11.908Z</time></trkpt><trkpt lat="41.8371762" lon="1.6067631"><ele>541.0</ele><time>2026-04-25T09:40:12.907Z</time></trkpt><trkpt lat="41.8370149" lon="1.6066275"><ele>541.0</ele><time>2026-04-25T09:40:13.906Z</time></trkpt><trkpt lat="41.8368789" lon="1.606483"><ele>541.0</ele><time>2026-04-25T09:40:14.906Z</time></trkpt><trkpt lat="41.8367453" lon="1.6063575"><ele>537.3333333333334</ele><time>2026-04-25T09:40:15.907Z</time></trkpt><trkpt lat="41.8366004" lon="1.6062719"><ele>533.6666666666666</ele><time>2026-04-25T09:40:16.908Z</time></trkpt><trkpt lat="41.8364416" lon="1.6062189"><ele>530.0</ele><time>2026-04-25T09:40:17.907Z</time></trkpt><trkpt lat="41.8362735" lon="1.6061859"><ele>530.3333333333333</ele><time>2026-04-25T09:40:18.907Z</time></trkpt><trkpt lat="41.8361173" lon="1.6061565"><ele>530.6666666666666</ele><time>2026-04-25T09:40:19.907Z</time></trkpt><trkpt lat="41.835971" lon="1.6060922"><ele>531.0</ele><time>2026-04-25T09:40:20.907Z</time></trkpt><trkpt lat="41.8358318" lon="1.6059823"><ele>531.0</ele><time>2026-04-25T09:40:21.907Z</time></trkpt><trkpt lat="41.8357075" lon="1.6058228"><ele>531.0</ele><time>2026-04-25T09:40:22.907Z</time></trkpt><trkpt lat="41.8355849" lon="1.6056288"><ele>531.0</ele><time>2026-04-25T09:40:23.906Z</time></trkpt><trkpt lat="41.8354531" lon="1.6054167"><ele>532.0</ele><time>2026-04-25T09:40:24.907Z</time></trkpt><trkpt lat="41.8353117" lon="1.6051999"><ele>533.0</ele><time>2026-04-25T09:40:25.908Z</time></trkpt><trkpt lat="41.835167" lon="1.604982"><ele>534.0</ele><time>2026-04-25T09:40:26.907Z</time></trkpt><trkpt lat="41.8350281" lon="1.6047786"><ele>532.6666666666666</ele><time>2026-04-25T09:40:27.908Z</time></trkpt><trkpt lat="41.8349031" lon="1.6046043"><ele>531.3333333333333</ele><time>2026-04-25T09:40:28.907Z</time></trkpt><trkpt lat="41.8348032" lon="1.6044515"><ele>530.0</ele><time>2026-04-25T09:40:29.907Z</time></trkpt><trkpt lat="41.8347542" lon="1.6042849"><ele>530.0</ele><time>2026-04-25T09:40:30.906Z</time></trkpt><trkpt lat="41.8347446" lon="1.6041002"><ele>530.0</ele><time>2026-04-25T09:40:31.907Z</time></trkpt><trkpt lat="41.8347717" lon="1.6039112"><ele>530.0</ele><time>2026-04-25T09:40:32.907Z</time></trkpt><trkpt lat="41.8348013" lon="1.6037069"><ele>530.0</ele><time>2026-04-25T09:40:33.907Z</time></trkpt><trkpt lat="41.8348157" lon="1.6034831"><ele>531.0</ele><time>2026-04-25T09:40:34.907Z</time></trkpt><trkpt lat="41.8348134" lon="1.6032433"><ele>532.0</ele><time>2026-04-25T09:40:35.906Z</time></trkpt><trkpt lat="41.8347869" lon="1.6029984"><ele>533.0</ele><time>2026-04-25T09:40:36.907Z</time></trkpt><trkpt lat="41.8347322" lon="1.6027485"><ele>535.3333333333333</ele><time>2026-04-25T09:40:37.906Z</time></trkpt><trkpt lat="41.8346595" lon="1.6024946"><ele>537.6666666666666</ele><time>2026-04-25T09:40:38.907Z</time></trkpt><trkpt lat="41.8345794" lon="1.6022343"><ele>540.0</ele><time>2026-04-25T09:40:39.907Z</time></trkpt><trkpt lat="41.8344966" lon="1.6019673"><ele>540.3333333333334</ele><time>2026-04-25T09:40:40.907Z</time></trkpt><trkpt lat="41.8344122" lon="1.6016985"><ele>540.6666666666667</ele><time>2026-04-25T09:40:41.908Z</time></trkpt><trkpt lat="41.8343266" lon="1.6014427"><ele>541.0</ele><time>2026-04-25T09:40:42.908Z</time></trkpt><trkpt lat="41.8342434" lon="1.6012012"><ele>543.0</ele><time>2026-04-25T09:40:43.908Z</time></trkpt><trkpt lat="41.8341512" lon="1.6009646"><ele>545.0</ele><time>2026-04-25T09:40:44.908Z</time></trkpt><trkpt lat="41.834034" lon="1.600725"><ele>547.0</ele><time>2026-04-25T09:40:45.908Z</time></trkpt><trkpt lat="41.8339019" lon="1.6004941"><ele>552.0</ele><time>2026-04-25T09:40:46.907Z</time></trkpt><trkpt lat="41.8337563" lon="1.6002588"><ele>557.0</ele><time>2026-04-25T09:40:47.907Z</time></trkpt><trkpt lat="41.8336036" lon="1.6000115"><ele>550.5</ele><time>2026-04-25T09:40:48.907Z</time></trkpt><trkpt lat="41.8334437" lon="1.5997704"><ele>544.0</ele><time>2026-04-25T09:40:49.907Z</time></trkpt><trkpt lat="41.8332699" lon="1.5995511"><ele>547.5</ele><time>2026-04-25T09:40:50.907Z</time></trkpt><trkpt lat="41.8330887" lon="1.5993401"><ele>551.0</ele><time>2026-04-25T09:40:51.908Z</time></trkpt><trkpt lat="41.8329049" lon="1.5991235"><ele>551.0</ele><time>2026-04-25T09:40:52.907Z</time></trkpt><trkpt lat="41.8327176" lon="1.5989147"><ele>551.0</ele><time>2026-04-25T09:40:53.907Z</time></trkpt><trkpt lat="41.8325219" lon="1.5987211"><ele>549.0</ele><time>2026-04-25T09:40:54.907Z</time></trkpt><trkpt lat="41.8323219" lon="1.5985347"><ele>547.0</ele><time>2026-04-25T09:40:55.907Z</time></trkpt><trkpt lat="41.8321274" lon="1.5983321"><ele>547.0</ele><time>2026-04-25T09:40:56.908Z</time></trkpt><trkpt lat="41.8319399" lon="1.5981097"><ele>547.0</ele><time>2026-04-25T09:40:57.908Z</time></trkpt><trkpt lat="41.8317575" lon="1.5978774"><ele>546.0</ele><time>2026-04-25T09:40:58.908Z</time></trkpt><trkpt lat="41.8315695" lon="1.5976479"><ele>545.0</ele><time>2026-04-25T09:40:59.907Z</time></trkpt><trkpt lat="41.8313898" lon="1.5974283"><ele>545.0</ele><time>2026-04-25T09:41:00.907Z</time></trkpt><trkpt lat="41.8312349" lon="1.5972134"><ele>545.0</ele><time>2026-04-25T09:41:01.908Z</time></trkpt><trkpt lat="41.8311081" lon="1.597002"><ele>545.0</ele><time>2026-04-25T09:41:02.908Z</time></trkpt><trkpt lat="41.8309991" lon="1.5968067"><ele>546.6666666666666</ele><time>2026-04-25T09:41:03.906Z</time></trkpt><trkpt lat="41.8308738" lon="1.5966546"><ele>548.3333333333334</ele><time>2026-04-25T09:41:04.907Z</time></trkpt><trkpt lat="41.8307231" lon="1.5965388"><ele>550.0</ele><time>2026-04-25T09:41:05.907Z</time></trkpt><trkpt lat="41.8305579" lon="1.5964484"><ele>550.0</ele><time>2026-04-25T09:41:06.908Z</time></trkpt><trkpt lat="41.8303962" lon="1.59634"><ele>550.0</ele><time>2026-04-25T09:41:07.906Z</time></trkpt><trkpt lat="41.8302469" lon="1.5961867"><ele>550.0</ele><time>2026-04-25T09:41:08.907Z</time></trkpt><trkpt lat="41.8301086" lon="1.5959992"><ele>550.3333333333334</ele><time>2026-04-25T09:41:09.907Z</time></trkpt><trkpt lat="41.8299775" lon="1.5957857"><ele>550.6666666666666</ele><time>2026-04-25T09:41:10.907Z</time></trkpt><trkpt lat="41.8298587" lon="1.5955442"><ele>551.0</ele><time>2026-04-25T09:41:11.906Z</time></trkpt><trkpt lat="41.8297457" lon="1.5952851"><ele>552.6666666666666</ele><time>2026-04-25T09:41:12.908Z</time></trkpt><trkpt lat="41.8296365" lon="1.5950207"><ele>554.3333333333334</ele><time>2026-04-25T09:41:13.908Z</time></trkpt><trkpt lat="41.8295312" lon="1.5947577"><ele>556.0</ele><time>2026-04-25T09:41:14.907Z</time></trkpt><trkpt lat="41.8294253" lon="1.5944889"><ele>554.5</ele><time>2026-04-25T09:41:15.907Z</time></trkpt><trkpt lat="41.829317" lon="1.59422"><ele>553.0</ele><time>2026-04-25T09:41:16.907Z</time></trkpt><trkpt lat="41.8291972" lon="1.5939521"><ele>553.0</ele><time>2026-04-25T09:41:17.907Z</time></trkpt><trkpt lat="41.8290549" lon="1.5936936"><ele>553.0</ele><time>2026-04-25T09:41:18.907Z</time></trkpt><trkpt lat="41.8288982" lon="1.5934505"><ele>553.0</ele><time>2026-04-25T09:41:19.907Z</time></trkpt><trkpt lat="41.8287384" lon="1.5932332"><ele>553.0</ele><time>2026-04-25T09:41:20.907Z</time></trkpt><trkpt lat="41.8285855" lon="1.5930263"><ele>553.0</ele><time>2026-04-25T09:41:21.907Z</time></trkpt><trkpt lat="41.8284654" lon="1.5928251"><ele>553.0</ele><time>2026-04-25T09:41:22.907Z</time></trkpt><trkpt lat="41.8283826" lon="1.592609"><ele>553.0</ele><time>2026-04-25T09:41:23.908Z</time></trkpt><trkpt lat="41.8283213" lon="1.592372"><ele>553.0</ele><time>2026-04-25T09:41:24.908Z</time></trkpt><trkpt lat="41.8282664" lon="1.5921249"><ele>554.6666666666667</ele><time>2026-04-25T09:41:25.907Z</time></trkpt><trkpt lat="41.8282081" lon="1.5918763"><ele>556.3333333333334</ele><time>2026-04-25T09:41:26.908Z</time></trkpt><trkpt lat="41.8281404" lon="1.591636"><ele>558.0</ele><time>2026-04-25T09:41:27.908Z</time></trkpt><trkpt lat="41.8280464" lon="1.5914047"><ele>558.0</ele><time>2026-04-25T09:41:28.908Z</time></trkpt><trkpt lat="41.8279254" lon="1.5911787"><ele>558.0</ele><time>2026-04-25T09:41:29.908Z</time></trkpt><trkpt lat="41.8277878" lon="1.5909464"><ele>558.0</ele><time>2026-04-25T09:41:30.906Z</time></trkpt><trkpt lat="41.8276524" lon="1.5906913"><ele>557.0</ele><time>2026-04-25T09:41:31.907Z</time></trkpt><trkpt lat="41.827529" lon="1.5904105"><ele>556.0</ele><time>2026-04-25T09:41:32.907Z</time></trkpt><trkpt lat="41.8274041" lon="1.5901232"><ele>561.5</ele><time>2026-04-25T09:41:33.907Z</time></trkpt><trkpt lat="41.8272807" lon="1.5898393"><ele>567.0</ele><time>2026-04-25T09:41:34.907Z</time></trkpt><trkpt lat="41.8271647" lon="1.5895699"><ele>576.5</ele><time>2026-04-25T09:41:35.908Z</time></trkpt><trkpt lat="41.8270438" lon="1.5893105"><ele>586.0</ele><time>2026-04-25T09:41:36.907Z</time></trkpt><trkpt lat="41.8268977" lon="1.5890866"><ele>585.3333333333334</ele><time>2026-04-25T09:41:37.908Z</time></trkpt><trkpt lat="41.8267288" lon="1.5889082"><ele>584.6666666666666</ele><time>2026-04-25T09:41:38.907Z</time></trkpt><trkpt lat="41.8265476" lon="1.5887333"><ele>584.0</ele><time>2026-04-25T09:41:39.908Z</time></trkpt><trkpt lat="41.8263692" lon="1.5885407"><ele>584.0</ele><time>2026-04-25T09:41:40.906Z</time></trkpt><trkpt lat="41.8261964" lon="1.5883235"><ele>584.0</ele><time>2026-04-25T09:41:41.907Z</time></trkpt><trkpt lat="41.8260112" lon="1.5881163"><ele>579.0</ele><time>2026-04-25T09:41:42.908Z</time></trkpt><trkpt lat="41.825812" lon="1.5879258"><ele>574.0</ele><time>2026-04-25T09:41:43.908Z</time></trkpt><trkpt lat="41.825602" lon="1.5877315"><ele>574.0</ele><time>2026-04-25T09:41:44.908Z</time></trkpt><trkpt lat="41.8253951" lon="1.5875083"><ele>574.0</ele><time>2026-04-25T09:41:45.906Z</time></trkpt><trkpt lat="41.8251982" lon="1.587262"><ele>573.5</ele><time>2026-04-25T09:41:46.907Z</time></trkpt><trkpt lat="41.8250085" lon="1.5870041"><ele>573.0</ele><time>2026-04-25T09:41:47.907Z</time></trkpt><trkpt lat="41.8248226" lon="1.5867502"><ele>573.0</ele><time>2026-04-25T09:41:48.907Z</time></trkpt><trkpt lat="41.8246405" lon="1.586507"><ele>573.0</ele><time>2026-04-25T09:41:49.908Z</time></trkpt><trkpt lat="41.8244649" lon="1.5862702"><ele>571.5</ele><time>2026-04-25T09:41:50.907Z</time></trkpt><trkpt lat="41.8242964" lon="1.5860331"><ele>570.0</ele><time>2026-04-25T09:41:51.907Z</time></trkpt><trkpt lat="41.8241455" lon="1.5857838"><ele>570.0</ele><time>2026-04-25T09:41:52.907Z</time></trkpt><trkpt lat="41.8240109" lon="1.5855364"><ele>570.0</ele><time>2026-04-25T09:41:53.907Z</time></trkpt><trkpt lat="41.823883" lon="1.585306"><ele>570.0</ele><time>2026-04-25T09:41:54.908Z</time></trkpt><trkpt lat="41.8237578" lon="1.5850907"><ele>571.6666666666666</ele><time>2026-04-25T09:41:55.908Z</time></trkpt><trkpt lat="41.8236362" lon="1.5848614"><ele>573.3333333333333</ele><time>2026-04-25T09:41:56.907Z</time></trkpt><trkpt lat="41.823534" lon="1.5846071"><ele>575.0</ele><time>2026-04-25T09:41:57.907Z</time></trkpt><trkpt lat="41.8234424" lon="1.5843596"><ele>575.0</ele><time>2026-04-25T09:41:58.907Z</time></trkpt><trkpt lat="41.8233523" lon="1.5841132"><ele>575.0</ele><time>2026-04-25T09:41:59.907Z</time></trkpt><trkpt lat="41.8232533" lon="1.5839054"><ele>575.0</ele><time>2026-04-25T09:42:00.907Z</time></trkpt><trkpt lat="41.8231362" lon="1.5837535"><ele>581.0</ele><time>2026-04-25T09:42:01.908Z</time></trkpt><trkpt lat="41.823001" lon="1.5836546"><ele>587.0</ele><time>2026-04-25T09:42:02.907Z</time></trkpt><trkpt lat="41.8228404" lon="1.5835813"><ele>593.0</ele><time>2026-04-25T09:42:03.907Z</time></trkpt><trkpt lat="41.8226679" lon="1.5835403"><ele>592.0</ele><time>2026-04-25T09:42:04.906Z</time></trkpt><trkpt lat="41.8224938" lon="1.5834944"><ele>591.0</ele><time>2026-04-25T09:42:05.907Z</time></trkpt><trkpt lat="41.8223279" lon="1.5834013"><ele>590.0</ele><time>2026-04-25T09:42:06.907Z</time></trkpt><trkpt lat="41.8221809" lon="1.5832535"><ele>590.0</ele><time>2026-04-25T09:42:07.907Z</time></trkpt><trkpt lat="41.822061" lon="1.5830628"><ele>590.0</ele><time>2026-04-25T09:42:08.906Z</time></trkpt><trkpt lat="41.8219558" lon="1.5828416"><ele>590.0</ele><time>2026-04-25T09:42:09.907Z</time></trkpt><trkpt lat="41.8218492" lon="1.582607"><ele>590.6666666666666</ele><time>2026-04-25T09:42:10.907Z</time></trkpt><trkpt lat="41.8217388" lon="1.5823682"><ele>591.3333333333334</ele><time>2026-04-25T09:42:11.907Z</time></trkpt><trkpt lat="41.8216347" lon="1.5821141"><ele>592.0</ele><time>2026-04-25T09:42:12.908Z</time></trkpt><trkpt lat="41.8215453" lon="1.581847"><ele>595.6666666666667</ele><time>2026-04-25T09:42:13.906Z</time></trkpt><trkpt lat="41.8214696" lon="1.5815755"><ele>599.3333333333334</ele><time>2026-04-25T09:42:14.907Z</time></trkpt><trkpt lat="41.8214007" lon="1.5813088"><ele>603.0</ele><time>2026-04-25T09:42:15.907Z</time></trkpt><trkpt lat="41.8213352" lon="1.5810459"><ele>606.6666666666666</ele><time>2026-04-25T09:42:16.908Z</time></trkpt><trkpt lat="41.8212745" lon="1.5807823"><ele>610.3333333333333</ele><time>2026-04-25T09:42:17.907Z</time></trkpt><trkpt lat="41.8212315" lon="1.5804966"><ele>614.0</ele><time>2026-04-25T09:42:18.908Z</time></trkpt><trkpt lat="41.821211" lon="1.5801844"><ele>615.0</ele><time>2026-04-25T09:42:19.907Z</time></trkpt><trkpt lat="41.8212035" lon="1.5798511"><ele>616.0</ele><time>2026-04-25T09:42:20.906Z</time></trkpt><trkpt lat="41.8211881" lon="1.5794999"><ele>616.0</ele><time>2026-04-25T09:42:21.906Z</time></trkpt><trkpt lat="41.8211527" lon="1.5791471"><ele>616.0</ele><time>2026-04-25T09:42:22.906Z</time></trkpt><trkpt lat="41.8211116" lon="1.5787947"><ele>617.0</ele><time>2026-04-25T09:42:23.907Z</time></trkpt><trkpt lat="41.8210663" lon="1.5784429"><ele>618.0</ele><time>2026-04-25T09:42:24.908Z</time></trkpt><trkpt lat="41.8210094" lon="1.5780945"><ele>608.0</ele><time>2026-04-25T09:42:25.907Z</time></trkpt><trkpt lat="41.8209479" lon="1.5777539"><ele>598.0</ele><time>2026-04-25T09:42:26.907Z</time></trkpt><trkpt lat="41.8208906" lon="1.5774199"><ele>598.0</ele><time>2026-04-25T09:42:27.907Z</time></trkpt><trkpt lat="41.820836" lon="1.5770894"><ele>598.0</ele><time>2026-04-25T09:42:28.907Z</time></trkpt><trkpt lat="41.8208078" lon="1.576759"><ele>599.0</ele><time>2026-04-25T09:42:29.907Z</time></trkpt><trkpt lat="41.820805" lon="1.5764514"><ele>600.0</ele><time>2026-04-25T09:42:30.907Z</time></trkpt><trkpt lat="41.8208025" lon="1.5761575"><ele>601.0</ele><time>2026-04-25T09:42:31.907Z</time></trkpt><trkpt lat="41.8208019" lon="1.5758832"><ele>601.6666666666667</ele><time>2026-04-25T09:42:32.906Z</time></trkpt><trkpt lat="41.8208014" lon="1.5756361"><ele>602.3333333333334</ele><time>2026-04-25T09:42:33.906Z</time></trkpt><trkpt lat="41.8207874" lon="1.5754114"><ele>603.0</ele><time>2026-04-25T09:42:34.906Z</time></trkpt><trkpt lat="41.8207318" lon="1.5751924"><ele>605.3333333333334</ele><time>2026-04-25T09:42:35.906Z</time></trkpt><trkpt lat="41.8206432" lon="1.5749782"><ele>607.6666666666667</ele><time>2026-04-25T09:42:36.906Z</time></trkpt><trkpt lat="41.820534" lon="1.5747684"><ele>610.0</ele><time>2026-04-25T09:42:37.906Z</time></trkpt><trkpt lat="41.8204349" lon="1.5745401"><ele>614.0</ele><time>2026-04-25T09:42:38.906Z</time></trkpt><trkpt lat="41.820353" lon="1.5742984"><ele>618.0</ele><time>2026-04-25T09:42:39.907Z</time></trkpt><trkpt lat="41.8202786" lon="1.5740626"><ele>622.0</ele><time>2026-04-25T09:42:40.906Z</time></trkpt><trkpt lat="41.8201788" lon="1.5738226"><ele>619.0</ele><time>2026-04-25T09:42:41.905Z</time></trkpt><trkpt lat="41.8200488" lon="1.5735982"><ele>616.0</ele><time>2026-04-25T09:42:42.906Z</time></trkpt><trkpt lat="41.819891" lon="1.5733892"><ele>613.0</ele><time>2026-04-25T09:42:43.907Z</time></trkpt><trkpt lat="41.8197138" lon="1.5731947"><ele>613.0</ele><time>2026-04-25T09:42:44.906Z</time></trkpt><trkpt lat="41.8195332" lon="1.5730077"><ele>613.0</ele><time>2026-04-25T09:42:45.905Z</time></trkpt><trkpt lat="41.8193669" lon="1.5728324"><ele>613.0</ele><time>2026-04-25T09:42:46.907Z</time></trkpt><trkpt lat="41.8192209" lon="1.572658"><ele>614.0</ele><time>2026-04-25T09:42:47.906Z</time></trkpt><trkpt lat="41.8191024" lon="1.5724657"><ele>615.0</ele><time>2026-04-25T09:42:48.907Z</time></trkpt><trkpt lat="41.8190083" lon="1.572245"><ele>616.0</ele><time>2026-04-25T09:42:49.906Z</time></trkpt><trkpt lat="41.8189269" lon="1.5720008"><ele>617.6666666666667</ele><time>2026-04-25T09:42:50.906Z</time></trkpt><trkpt lat="41.8188452" lon="1.5717361"><ele>619.3333333333334</ele><time>2026-04-25T09:42:51.906Z</time></trkpt><trkpt lat="41.8187626" lon="1.5714691"><ele>621.0</ele><time>2026-04-25T09:42:52.906Z</time></trkpt><trkpt lat="41.8186804" lon="1.5712015"><ele>622.6666666666666</ele><time>2026-04-25T09:42:53.906Z</time></trkpt><trkpt lat="41.8185924" lon="1.5709283"><ele>624.3333333333333</ele><time>2026-04-25T09:42:54.907Z</time></trkpt><trkpt lat="41.8185082" lon="1.5706746"><ele>626.0</ele><time>2026-04-25T09:42:55.907Z</time></trkpt><trkpt lat="41.818433" lon="1.5704429"><ele>624.0</ele><time>2026-04-25T09:42:56.906Z</time></trkpt><trkpt lat="41.8183687" lon="1.570202"><ele>622.0</ele><time>2026-04-25T09:42:57.907Z</time></trkpt><trkpt lat="41.818336" lon="1.5699414"><ele>620.0</ele><time>2026-04-25T09:42:58.906Z</time></trkpt><trkpt lat="41.8183284" lon="1.5696676"><ele>620.6666666666666</ele><time>2026-04-25T09:42:59.905Z</time></trkpt><trkpt lat="41.8183254" lon="1.5693851"><ele>621.3333333333334</ele><time>2026-04-25T09:43:00.906Z</time></trkpt><trkpt lat="41.8183042" lon="1.5691035"><ele>622.0</ele><time>2026-04-25T09:43:01.905Z</time></trkpt><trkpt lat="41.8182708" lon="1.5688339"><ele>622.6666666666667</ele><time>2026-04-25T09:43:02.905Z</time></trkpt><trkpt lat="41.8182493" lon="1.5685784"><ele>623.3333333333334</ele><time>2026-04-25T09:43:03.906Z</time></trkpt><trkpt lat="41.8182562" lon="1.56832"><ele>624.0</ele><time>2026-04-25T09:43:04.906Z</time></trkpt><trkpt lat="41.8182883" lon="1.5680533"><ele>624.3333333333334</ele><time>2026-04-25T09:43:05.906Z</time></trkpt><trkpt lat="41.8183444" lon="1.5677871"><ele>624.6666666666667</ele><time>2026-04-25T09:43:06.906Z</time></trkpt><trkpt lat="41.8184262" lon="1.5675192"><ele>625.0</ele><time>2026-04-25T09:43:07.906Z</time></trkpt><trkpt lat="41.8185413" lon="1.5672621"><ele>629.0</ele><time>2026-04-25T09:43:08.907Z</time></trkpt><trkpt lat="41.8186728" lon="1.5670165"><ele>633.0</ele><time>2026-04-25T09:43:09.906Z</time></trkpt><trkpt lat="41.8188202" lon="1.5667653"><ele>633.0</ele><time>2026-04-25T09:43:10.907Z</time></trkpt><trkpt lat="41.818976" lon="1.5665031"><ele>633.0</ele><time>2026-04-25T09:43:11.906Z</time></trkpt><trkpt lat="41.8191357" lon="1.5662276"><ele>633.5</ele><time>2026-04-25T09:43:12.907Z</time></trkpt><trkpt lat="41.8192944" lon="1.5659434"><ele>634.0</ele><time>2026-04-25T09:43:13.906Z</time></trkpt><trkpt lat="41.8194405" lon="1.5656448"><ele>635.0</ele><time>2026-04-25T09:43:14.906Z</time></trkpt><trkpt lat="41.8195683" lon="1.5653396"><ele>636.0</ele><time>2026-04-25T09:43:15.906Z</time></trkpt><trkpt lat="41.8196965" lon="1.5650416"><ele>636.0</ele><time>2026-04-25T09:43:16.907Z</time></trkpt><trkpt lat="41.8198315" lon="1.5647836"><ele>636.0</ele><time>2026-04-25T09:43:17.906Z</time></trkpt><trkpt lat="41.8199523" lon="1.5645401"><ele>636.0</ele><time>2026-04-25T09:43:18.905Z</time></trkpt><trkpt lat="41.8200596" lon="1.5643114"><ele>636.0</ele><time>2026-04-25T09:43:19.905Z</time></trkpt><trkpt lat="41.8201551" lon="1.5641029"><ele>636.0</ele><time>2026-04-25T09:43:20.906Z</time></trkpt><trkpt lat="41.8202408" lon="1.5639087"><ele>638.25</ele><time>2026-04-25T09:43:21.906Z</time></trkpt><trkpt lat="41.8203087" lon="1.5637431"><ele>640.5</ele><time>2026-04-25T09:43:22.906Z</time></trkpt><trkpt lat="41.8203494" lon="1.5635786"><ele>642.75</ele><time>2026-04-25T09:43:23.907Z</time></trkpt><trkpt lat="41.8203483" lon="1.5634086"><ele>645.0</ele><time>2026-04-25T09:43:24.906Z</time></trkpt><trkpt lat="41.8203" lon="1.5632415"><ele>645.0</ele><time>2026-04-25T09:43:25.907Z</time></trkpt><trkpt lat="41.8202078" lon="1.5630964"><ele>645.0</ele><time>2026-04-25T09:43:26.907Z</time></trkpt><trkpt lat="41.8200835" lon="1.5629617"><ele>645.0</ele><time>2026-04-25T09:43:27.907Z</time></trkpt><trkpt lat="41.8199368" lon="1.5628179"><ele>644.6666666666666</ele><time>2026-04-25T09:43:28.907Z</time></trkpt><trkpt lat="41.8197773" lon="1.5626578"><ele>644.3333333333333</ele><time>2026-04-25T09:43:29.907Z</time></trkpt><trkpt lat="41.8196093" lon="1.5624927"><ele>644.0</ele><time>2026-04-25T09:43:30.906Z</time></trkpt><trkpt lat="41.819433" lon="1.5623285"><ele>646.6666666666666</ele><time>2026-04-25T09:43:31.906Z</time></trkpt><trkpt lat="41.8192538" lon="1.5621691"><ele>649.3333333333334</ele><time>2026-04-25T09:43:32.907Z</time></trkpt><trkpt lat="41.8190595" lon="1.5620072"><ele>652.0</ele><time>2026-04-25T09:43:33.905Z</time></trkpt><trkpt lat="41.8188582" lon="1.5618448"><ele>653.0</ele><time>2026-04-25T09:43:34.906Z</time></trkpt><trkpt lat="41.8186517" lon="1.5616827"><ele>654.0</ele><time>2026-04-25T09:43:35.907Z</time></trkpt><trkpt lat="41.818447" lon="1.561522"><ele>657.0</ele><time>2026-04-25T09:43:36.905Z</time></trkpt><trkpt lat="41.8182526" lon="1.5613777"><ele>660.0</ele><time>2026-04-25T09:43:37.907Z</time></trkpt><trkpt lat="41.8180804" lon="1.561245"><ele>663.0</ele><time>2026-04-25T09:43:38.906Z</time></trkpt><trkpt lat="41.8179269" lon="1.5611054"><ele>665.6666666666666</ele><time>2026-04-25T09:43:39.906Z</time></trkpt><trkpt lat="41.81779" lon="1.5609211"><ele>668.3333333333333</ele><time>2026-04-25T09:43:40.906Z</time></trkpt><trkpt lat="41.8176733" lon="1.560714"><ele>671.0</ele><time>2026-04-25T09:43:41.906Z</time></trkpt><trkpt lat="41.8175834" lon="1.5604947"><ele>672.3333333333333</ele><time>2026-04-25T09:43:42.906Z</time></trkpt><trkpt lat="41.8175226" lon="1.560266"><ele>673.6666666666666</ele><time>2026-04-25T09:43:43.907Z</time></trkpt><trkpt lat="41.8174635" lon="1.5600065"><ele>675.0</ele><time>2026-04-25T09:43:44.906Z</time></trkpt><trkpt lat="41.8173955" lon="1.5597359"><ele>677.0</ele><time>2026-04-25T09:43:45.906Z</time></trkpt><trkpt lat="41.8173105" lon="1.5594586"><ele>679.0</ele><time>2026-04-25T09:43:46.906Z</time></trkpt><trkpt lat="41.8172069" lon="1.5591704"><ele>679.0</ele><time>2026-04-25T09:43:47.905Z</time></trkpt><trkpt lat="41.817092" lon="1.5588728"><ele>679.0</ele><time>2026-04-25T09:43:48.907Z</time></trkpt><trkpt lat="41.8169702" lon="1.5585698"><ele>678.5</ele><time>2026-04-25T09:43:49.907Z</time></trkpt><trkpt lat="41.8168453" lon="1.5582697"><ele>678.0</ele><time>2026-04-25T09:43:50.907Z</time></trkpt><trkpt lat="41.816725" lon="1.557979"><ele>674.3333333333334</ele><time>2026-04-25T09:43:51.906Z</time></trkpt><trkpt lat="41.8166063" lon="1.5577149"><ele>670.6666666666667</ele><time>2026-04-25T09:43:52.905Z</time></trkpt><trkpt lat="41.8164795" lon="1.5574813"><ele>667.0</ele><time>2026-04-25T09:43:53.906Z</time></trkpt><trkpt lat="41.8163382" lon="1.557256"><ele>671.0</ele><time>2026-04-25T09:43:54.907Z</time></trkpt><trkpt lat="41.8161939" lon="1.5570199"><ele>675.0</ele><time>2026-04-25T09:43:55.906Z</time></trkpt><trkpt lat="41.8160564" lon="1.5567613"><ele>670.0</ele><time>2026-04-25T09:43:56.905Z</time></trkpt><trkpt lat="41.8159212" lon="1.5564866"><ele>665.0</ele><time>2026-04-25T09:43:57.906Z</time></trkpt><trkpt lat="41.8157815" lon="1.5562056"><ele>665.5</ele><time>2026-04-25T09:43:58.907Z</time></trkpt><trkpt lat="41.8156376" lon="1.5559277"><ele>666.0</ele><time>2026-04-25T09:43:59.906Z</time></trkpt><trkpt lat="41.8154908" lon="1.5556629"><ele>666.0</ele><time>2026-04-25T09:44:00.906Z</time></trkpt><trkpt lat="41.8153334" lon="1.5554186"><ele>666.0</ele><time>2026-04-25T09:44:01.906Z</time></trkpt><trkpt lat="41.8151617" lon="1.5552001"><ele>669.0</ele><time>2026-04-25T09:44:02.907Z</time></trkpt><trkpt lat="41.8149823" lon="1.5550001"><ele>672.0</ele><time>2026-04-25T09:44:03.906Z</time></trkpt><trkpt lat="41.8148048" lon="1.5548097"><ele>672.0</ele><time>2026-04-25T09:44:04.906Z</time></trkpt><trkpt lat="41.81465" lon="1.5546192"><ele>672.0</ele><time>2026-04-25T09:44:05.907Z</time></trkpt><trkpt lat="41.8145154" lon="1.554416"><ele>672.0</ele><time>2026-04-25T09:44:06.907Z</time></trkpt><trkpt lat="41.8143918" lon="1.5541963"><ele>673.0</ele><time>2026-04-25T09:44:07.907Z</time></trkpt><trkpt lat="41.8142797" lon="1.5539593"><ele>674.0</ele><time>2026-04-25T09:44:08.907Z</time></trkpt><trkpt lat="41.8141697" lon="1.5537141"><ele>675.0</ele><time>2026-04-25T09:44:09.907Z</time></trkpt><trkpt lat="41.8140561" lon="1.5534732"><ele>677.6666666666666</ele><time>2026-04-25T09:44:10.905Z</time></trkpt><trkpt lat="41.8139521" lon="1.5532322"><ele>680.3333333333333</ele><time>2026-04-25T09:44:11.906Z</time></trkpt><trkpt lat="41.8138826" lon="1.5529904"><ele>683.0</ele><time>2026-04-25T09:44:12.906Z</time></trkpt><trkpt lat="41.8138253" lon="1.5527331"><ele>686.3333333333333</ele><time>2026-04-25T09:44:13.905Z</time></trkpt><trkpt lat="41.8137729" lon="1.5524679"><ele>689.6666666666666</ele><time>2026-04-25T09:44:14.906Z</time></trkpt><trkpt lat="41.8137151" lon="1.5522062"><ele>693.0</ele><time>2026-04-25T09:44:15.906Z</time></trkpt><trkpt lat="41.8136553" lon="1.5519642"><ele>695.3333333333334</ele><time>2026-04-25T09:44:16.905Z</time></trkpt><trkpt lat="41.8136172" lon="1.5517257"><ele>697.6666666666667</ele><time>2026-04-25T09:44:17.906Z</time></trkpt><trkpt lat="41.8135941" lon="1.5514899"><ele>700.0</ele><time>2026-04-25T09:44:18.906Z</time></trkpt><trkpt lat="41.8135649" lon="1.5512738"><ele>699.0</ele><time>2026-04-25T09:44:19.906Z</time></trkpt><trkpt lat="41.8135238" lon="1.5510716"><ele>698.0</ele><time>2026-04-25T09:44:20.906Z</time></trkpt><trkpt lat="41.813477" lon="1.5508935"><ele>697.0</ele><time>2026-04-25T09:44:21.906Z</time></trkpt><trkpt lat="41.8134361" lon="1.5507333"><ele>696.0</ele><time>2026-04-25T09:44:22.906Z</time></trkpt><trkpt lat="41.8134016" lon="1.5505971"><ele>694.5</ele><time>2026-04-25T09:44:23.906Z</time></trkpt><trkpt lat="41.8133726" lon="1.5504777"><ele>693.0</ele><time>2026-04-25T09:44:24.905Z</time></trkpt><trkpt lat="41.8133627" lon="1.5503842"><ele>691.5</ele><time>2026-04-25T09:44:25.906Z</time></trkpt><trkpt lat="41.8133882" lon="1.5502754"><ele>690.0</ele><time>2026-04-25T09:44:27.905Z</time></trkpt><trkpt lat="41.8134473" lon="1.5502143"><ele>688.5</ele><time>2026-04-25T09:47:01.906Z</time></trkpt><trkpt lat="41.8135399" lon="1.5501355"><ele>687.0</ele><time>2026-04-25T09:47:03.906Z</time></trkpt><trkpt lat="41.8136062" lon="1.5500739"><ele>687.0</ele><time>2026-04-25T09:47:04.906Z</time></trkpt><trkpt lat="41.8136764" lon="1.5500054"><ele>687.0</ele><time>2026-04-25T09:47:05.906Z</time></trkpt><trkpt lat="41.8137525" lon="1.5499189"><ele>687.0</ele><time>2026-04-25T09:47:06.906Z</time></trkpt><trkpt lat="41.8138315" lon="1.5498276"><ele>687.0</ele><time>2026-04-25T09:47:07.905Z</time></trkpt><trkpt lat="41.8139109" lon="1.5497241"><ele>687.0</ele><time>2026-04-25T09:47:08.907Z</time></trkpt><trkpt lat="41.8139893" lon="1.5496095"><ele>689.5</ele><time>2026-04-25T09:47:09.905Z</time></trkpt><trkpt lat="41.8140659" lon="1.5494851"><ele>692.0</ele><time>2026-04-25T09:47:10.905Z</time></trkpt><trkpt lat="41.8141393" lon="1.5493466"><ele>694.5</ele><time>2026-04-25T09:47:11.907Z</time></trkpt><trkpt lat="41.8142073" lon="1.549194"><ele>697.0</ele><time>2026-04-25T09:47:12.906Z</time></trkpt><trkpt lat="41.8142801" lon="1.5490396"><ele>698.5</ele><time>2026-04-25T09:47:13.906Z</time></trkpt><trkpt lat="41.8143615" lon="1.5488874"><ele>700.0</ele><time>2026-04-25T09:47:14.907Z</time></trkpt><trkpt lat="41.8144516" lon="1.5487423"><ele>701.5</ele><time>2026-04-25T09:47:15.907Z</time></trkpt><trkpt lat="41.8145466" lon="1.5486048"><ele>703.0</ele><time>2026-04-25T09:47:16.906Z</time></trkpt><trkpt lat="41.8146454" lon="1.5484739"><ele>703.0</ele><time>2026-04-25T09:47:17.906Z</time></trkpt><trkpt lat="41.814747" lon="1.5483522"><ele>703.0</ele><time>2026-04-25T09:47:18.906Z</time></trkpt><trkpt lat="41.8148511" lon="1.5482268"><ele>703.0</ele><time>2026-04-25T09:47:19.907Z</time></trkpt><trkpt lat="41.8149561" lon="1.5480975"><ele>703.0</ele><time>2026-04-25T09:47:20.906Z</time></trkpt><trkpt lat="41.8150659" lon="1.5479624"><ele>706.3333333333334</ele><time>2026-04-25T09:47:21.905Z</time></trkpt><trkpt lat="41.8151776" lon="1.5478215"><ele>709.6666666666666</ele><time>2026-04-25T09:47:22.905Z</time></trkpt><trkpt lat="41.8152994" lon="1.5476764"><ele>713.0</ele><time>2026-04-25T09:47:23.907Z</time></trkpt><trkpt lat="41.8154266" lon="1.547541"><ele>713.0</ele><time>2026-04-25T09:47:24.906Z</time></trkpt><trkpt lat="41.8155727" lon="1.5474163"><ele>713.0</ele><time>2026-04-25T09:47:25.906Z</time></trkpt><trkpt lat="41.8157376" lon="1.547305"><ele>713.0</ele><time>2026-04-25T09:47:26.905Z</time></trkpt><trkpt lat="41.815911" lon="1.5471933"><ele>716.6666666666666</ele><time>2026-04-25T09:47:27.906Z</time></trkpt><trkpt lat="41.8160758" lon="1.5470697"><ele>720.3333333333334</ele><time>2026-04-25T09:47:28.906Z</time></trkpt><trkpt lat="41.816231" lon="1.5469506"><ele>724.0</ele><time>2026-04-25T09:47:29.907Z</time></trkpt><trkpt lat="41.8163735" lon="1.5468456"><ele>724.0</ele><time>2026-04-25T09:47:30.906Z</time></trkpt><trkpt lat="41.8165134" lon="1.5467539"><ele>724.0</ele><time>2026-04-25T09:47:31.906Z</time></trkpt><trkpt lat="41.8166456" lon="1.5466991"><ele>724.0</ele><time>2026-04-25T09:47:32.907Z</time></trkpt><trkpt lat="41.8167619" lon="1.5466777"><ele>724.0</ele><time>2026-04-25T09:47:33.905Z</time></trkpt><trkpt lat="41.8168649" lon="1.5466825"><ele>728.25</ele><time>2026-04-25T09:47:34.906Z</time></trkpt><trkpt lat="41.8169686" lon="1.5467257"><ele>732.5</ele><time>2026-04-25T09:47:35.906Z</time></trkpt><trkpt lat="41.8170756" lon="1.5467996"><ele>736.75</ele><time>2026-04-25T09:47:36.907Z</time></trkpt><trkpt lat="41.8171882" lon="1.5468702"><ele>741.0</ele><time>2026-04-25T09:47:37.906Z</time></trkpt><trkpt lat="41.8173121" lon="1.5469207"><ele>741.0</ele><time>2026-04-25T09:47:38.906Z</time></trkpt><trkpt lat="41.8174435" lon="1.546951"><ele>741.0</ele><time>2026-04-25T09:47:39.905Z</time></trkpt><trkpt lat="41.8175746" lon="1.5469443"><ele>741.0</ele><time>2026-04-25T09:47:40.907Z</time></trkpt><trkpt lat="41.8177065" lon="1.5468921"><ele>741.0</ele><time>2026-04-25T09:47:41.905Z</time></trkpt><trkpt lat="41.8178457" lon="1.5467933"><ele>738.0</ele><time>2026-04-25T09:47:42.907Z</time></trkpt><trkpt lat="41.8179896" lon="1.5466692"><ele>735.0</ele><time>2026-04-25T09:47:43.907Z</time></trkpt><trkpt lat="41.818134" lon="1.5465394"><ele>732.0</ele><time>2026-04-25T09:47:44.906Z</time></trkpt><trkpt lat="41.8182921" lon="1.5464154"><ele>732.0</ele><time>2026-04-25T09:47:45.906Z</time></trkpt><trkpt lat="41.818453" lon="1.5463356"><ele>732.0</ele><time>2026-04-25T09:47:46.905Z</time></trkpt><trkpt lat="41.8186086" lon="1.546271"><ele>732.0</ele><time>2026-04-25T09:47:47.906Z</time></trkpt><trkpt lat="41.8187429" lon="1.5462133"><ele>732.5</ele><time>2026-04-25T09:47:48.907Z</time></trkpt><trkpt lat="41.8188685" lon="1.5461251"><ele>733.0</ele><time>2026-04-25T09:47:49.907Z</time></trkpt><trkpt lat="41.8189763" lon="1.5459978"><ele>733.5</ele><time>2026-04-25T09:47:50.906Z</time></trkpt><trkpt lat="41.8190582" lon="1.5458258"><ele>734.0</ele><time>2026-04-25T09:47:51.905Z</time></trkpt><trkpt lat="41.8191197" lon="1.5456257"><ele>734.0</ele><time>2026-04-25T09:47:52.907Z</time></trkpt><trkpt lat="41.8191795" lon="1.5454307"><ele>734.0</ele><time>2026-04-25T09:47:53.905Z</time></trkpt><trkpt lat="41.8192626" lon="1.5452752"><ele>734.0</ele><time>2026-04-25T09:47:54.906Z</time></trkpt><trkpt lat="41.8193826" lon="1.545151"><ele>735.6666666666666</ele><time>2026-04-25T09:47:55.906Z</time></trkpt><trkpt lat="41.8195269" lon="1.5450742"><ele>737.3333333333334</ele><time>2026-04-25T09:47:56.906Z</time></trkpt><trkpt lat="41.8196788" lon="1.5450333"><ele>739.0</ele><time>2026-04-25T09:47:57.907Z</time></trkpt><trkpt lat="41.8198275" lon="1.5449848"><ele>739.0</ele><time>2026-04-25T09:47:58.906Z</time></trkpt><trkpt lat="41.8199736" lon="1.5448882"><ele>739.0</ele><time>2026-04-25T09:47:59.906Z</time></trkpt><trkpt lat="41.8201194" lon="1.5447519"><ele>739.0</ele><time>2026-04-25T09:48:00.905Z</time></trkpt><trkpt lat="41.820275" lon="1.5445981"><ele>740.0</ele><time>2026-04-25T09:48:01.906Z</time></trkpt><trkpt lat="41.8204356" lon="1.5444235"><ele>741.0</ele><time>2026-04-25T09:48:02.905Z</time></trkpt><trkpt lat="41.8205941" lon="1.5442395"><ele>742.0</ele><time>2026-04-25T09:48:03.907Z</time></trkpt><trkpt lat="41.8207587" lon="1.544042"><ele>742.0</ele><time>2026-04-25T09:48:04.907Z</time></trkpt><trkpt lat="41.8209223" lon="1.5438356"><ele>742.0</ele><time>2026-04-25T09:48:05.907Z</time></trkpt><trkpt lat="41.8210858" lon="1.5436284"><ele>742.0</ele><time>2026-04-25T09:48:06.906Z</time></trkpt><trkpt lat="41.821249" lon="1.5434242"><ele>744.0</ele><time>2026-04-25T09:48:07.906Z</time></trkpt><trkpt lat="41.8214103" lon="1.5432235"><ele>746.0</ele><time>2026-04-25T09:48:08.906Z</time></trkpt><trkpt lat="41.8215681" lon="1.5430225"><ele>748.0</ele><time>2026-04-25T09:48:09.905Z</time></trkpt><trkpt lat="41.8217266" lon="1.5428243"><ele>750.0</ele><time>2026-04-25T09:48:10.905Z</time></trkpt><trkpt lat="41.8218838" lon="1.542635"><ele>752.0</ele><time>2026-04-25T09:48:11.905Z</time></trkpt><trkpt lat="41.8220322" lon="1.5424664"><ele>754.0</ele><time>2026-04-25T09:48:12.906Z</time></trkpt><trkpt lat="41.8221791" lon="1.5423109"><ele>754.0</ele><time>2026-04-25T09:48:13.905Z</time></trkpt><trkpt lat="41.8223411" lon="1.542182"><ele>754.0</ele><time>2026-04-25T09:48:14.904Z</time></trkpt><trkpt lat="41.8225199" lon="1.5420888"><ele>754.0</ele><time>2026-04-25T09:48:15.905Z</time></trkpt><trkpt lat="41.8227151" lon="1.542031"><ele>754.6666666666667</ele><time>2026-04-25T09:48:16.905Z</time></trkpt><trkpt lat="41.8229286" lon="1.5419925"><ele>755.3333333333334</ele><time>2026-04-25T09:48:17.905Z</time></trkpt><trkpt lat="41.8231513" lon="1.5419388"><ele>756.0</ele><time>2026-04-25T09:48:18.905Z</time></trkpt><trkpt lat="41.8233743" lon="1.5418552"><ele>755.5</ele><time>2026-04-25T09:48:19.905Z</time></trkpt><trkpt lat="41.8236037" lon="1.5417706"><ele>755.0</ele><time>2026-04-25T09:48:20.905Z</time></trkpt><trkpt lat="41.8238415" lon="1.5416848"><ele>755.0</ele><time>2026-04-25T09:48:21.905Z</time></trkpt><trkpt lat="41.8240789" lon="1.5415944"><ele>755.0</ele><time>2026-04-25T09:48:22.905Z</time></trkpt><trkpt lat="41.8243091" lon="1.5415022"><ele>758.5</ele><time>2026-04-25T09:48:23.904Z</time></trkpt><trkpt lat="41.8245301" lon="1.5414125"><ele>762.0</ele><time>2026-04-25T09:48:24.905Z</time></trkpt><trkpt lat="41.8247431" lon="1.5413146"><ele>760.6666666666666</ele><time>2026-04-25T09:48:25.905Z</time></trkpt><trkpt lat="41.8249374" lon="1.5412046"><ele>759.3333333333333</ele><time>2026-04-25T09:48:26.905Z</time></trkpt><trkpt lat="41.8251285" lon="1.5410653"><ele>758.0</ele><time>2026-04-25T09:48:27.905Z</time></trkpt><trkpt lat="41.8253111" lon="1.5408911"><ele>765.5</ele><time>2026-04-25T09:48:28.905Z</time></trkpt><trkpt lat="41.8254946" lon="1.5406934"><ele>773.0</ele><time>2026-04-25T09:48:29.906Z</time></trkpt><trkpt lat="41.8256902" lon="1.5404935"><ele>768.0</ele><time>2026-04-25T09:48:30.905Z</time></trkpt><trkpt lat="41.8258907" lon="1.5402906"><ele>763.0</ele><time>2026-04-25T09:48:31.905Z</time></trkpt><trkpt lat="41.8260859" lon="1.5400836"><ele>773.5</ele><time>2026-04-25T09:48:32.906Z</time></trkpt><trkpt lat="41.8262582" lon="1.5398679"><ele>784.0</ele><time>2026-04-25T09:48:33.904Z</time></trkpt><trkpt lat="41.8264077" lon="1.5396475"><ele>782.6666666666666</ele><time>2026-04-25T09:48:34.906Z</time></trkpt><trkpt lat="41.8265573" lon="1.5394331"><ele>781.3333333333333</ele><time>2026-04-25T09:48:35.905Z</time></trkpt><trkpt lat="41.8267091" lon="1.539254"><ele>780.0</ele><time>2026-04-25T09:48:36.905Z</time></trkpt><trkpt lat="41.8268584" lon="1.5391055"><ele>780.0</ele><time>2026-04-25T09:48:37.905Z</time></trkpt><trkpt lat="41.827012" lon="1.5390128"><ele>780.0</ele><time>2026-04-25T09:48:38.904Z</time></trkpt><trkpt lat="41.8271826" lon="1.5389688"><ele>780.0</ele><time>2026-04-25T09:48:39.906Z</time></trkpt><trkpt lat="41.82737" lon="1.5389536"><ele>780.0</ele><time>2026-04-25T09:48:40.905Z</time></trkpt><trkpt lat="41.8275732" lon="1.538945"><ele>780.0</ele><time>2026-04-25T09:48:41.905Z</time></trkpt><trkpt lat="41.8277898" lon="1.5389402"><ele>780.0</ele><time>2026-04-25T09:48:42.906Z</time></trkpt><trkpt lat="41.8280073" lon="1.5389347"><ele>779.0</ele><time>2026-04-25T09:48:43.905Z</time></trkpt><trkpt lat="41.8282358" lon="1.5389062"><ele>778.0</ele><time>2026-04-25T09:48:44.905Z</time></trkpt><trkpt lat="41.8284689" lon="1.5388479"><ele>777.5</ele><time>2026-04-25T09:48:45.905Z</time></trkpt><trkpt lat="41.8287067" lon="1.5387728"><ele>777.0</ele><time>2026-04-25T09:48:46.906Z</time></trkpt><trkpt lat="41.8289383" lon="1.5386831"><ele>781.0</ele><time>2026-04-25T09:48:47.905Z</time></trkpt><trkpt lat="41.8291675" lon="1.5385847"><ele>785.0</ele><time>2026-04-25T09:48:48.905Z</time></trkpt><trkpt lat="41.8293886" lon="1.5384835"><ele>785.0</ele><time>2026-04-25T09:48:49.905Z</time></trkpt><trkpt lat="41.8295945" lon="1.5383889"><ele>785.0</ele><time>2026-04-25T09:48:50.905Z</time></trkpt><trkpt lat="41.8297737" lon="1.5383141"><ele>785.0</ele><time>2026-04-25T09:48:51.906Z</time></trkpt><trkpt lat="41.8299147" lon="1.5382406"><ele>785.0</ele><time>2026-04-25T09:48:52.905Z</time></trkpt><trkpt lat="41.8300308" lon="1.5381395"><ele>785.0</ele><time>2026-04-25T09:48:53.904Z</time></trkpt><trkpt lat="41.8301231" lon="1.5379918"><ele>785.0</ele><time>2026-04-25T09:48:54.905Z</time></trkpt><trkpt lat="41.8301803" lon="1.5378084"><ele>785.0</ele><time>2026-04-25T09:48:55.905Z</time></trkpt><trkpt lat="41.8302265" lon="1.537603"><ele>788.0</ele><time>2026-04-25T09:48:56.906Z</time></trkpt><trkpt lat="41.8302989" lon="1.5374019"><ele>791.0</ele><time>2026-04-25T09:48:57.904Z</time></trkpt><trkpt lat="41.8303996" lon="1.5372228"><ele>794.0</ele><time>2026-04-25T09:48:58.905Z</time></trkpt><trkpt lat="41.8305211" lon="1.5370879"><ele>799.0</ele><time>2026-04-25T09:48:59.905Z</time></trkpt><trkpt lat="41.8306748" lon="1.5369818"><ele>804.0</ele><time>2026-04-25T09:49:00.904Z</time></trkpt><trkpt lat="41.8308503" lon="1.5369078"><ele>809.0</ele><time>2026-04-25T09:49:01.905Z</time></trkpt><trkpt lat="41.8310339" lon="1.5368476"><ele>812.0</ele><time>2026-04-25T09:49:02.905Z</time></trkpt><trkpt lat="41.8312075" lon="1.536779"><ele>815.0</ele><time>2026-04-25T09:49:03.906Z</time></trkpt><trkpt lat="41.8313712" lon="1.5367102"><ele>818.0</ele><time>2026-04-25T09:49:04.906Z</time></trkpt><trkpt lat="41.8315232" lon="1.5366639"><ele>818.0</ele><time>2026-04-25T09:49:05.906Z</time></trkpt><trkpt lat="41.8316549" lon="1.5366495"><ele>818.0</ele><time>2026-04-25T09:49:06.905Z</time></trkpt><trkpt lat="41.8317732" lon="1.5366809"><ele>818.0</ele><time>2026-04-25T09:49:07.905Z</time></trkpt><trkpt lat="41.8318564" lon="1.5367662"><ele>818.0</ele><time>2026-04-25T09:49:08.905Z</time></trkpt><trkpt lat="41.831905" lon="1.5368874"><ele>822.5</ele><time>2026-04-25T09:49:09.905Z</time></trkpt><trkpt lat="41.8319219" lon="1.5370383"><ele>827.0</ele><time>2026-04-25T09:49:10.905Z</time></trkpt><trkpt lat="41.8319" lon="1.5372016"><ele>831.5</ele><time>2026-04-25T09:49:11.905Z</time></trkpt><trkpt lat="41.8318617" lon="1.537375"><ele>836.0</ele><time>2026-04-25T09:49:12.905Z</time></trkpt><trkpt lat="41.8318189" lon="1.5375551"><ele>839.75</ele><time>2026-04-25T09:49:13.905Z</time></trkpt><trkpt lat="41.8317863" lon="1.5377338"><ele>843.5</ele><time>2026-04-25T09:49:14.905Z</time></trkpt><trkpt lat="41.8317809" lon="1.5379273"><ele>847.25</ele><time>2026-04-25T09:49:15.905Z</time></trkpt><trkpt lat="41.8318099" lon="1.5381241"><ele>851.0</ele><time>2026-04-25T09:49:16.906Z</time></trkpt><trkpt lat="41.8318614" lon="1.5383202"><ele>851.0</ele><time>2026-04-25T09:49:17.905Z</time></trkpt><trkpt lat="41.8319152" lon="1.5384976"><ele>851.0</ele><time>2026-04-25T09:49:18.905Z</time></trkpt><trkpt lat="41.8319797" lon="1.5386418"><ele>851.0</ele><time>2026-04-25T09:49:19.905Z</time></trkpt><trkpt lat="41.8320696" lon="1.5387509"><ele>851.0</ele><time>2026-04-25T09:49:20.905Z</time></trkpt><trkpt lat="41.8321874" lon="1.5388153"><ele>854.3333333333334</ele><time>2026-04-25T09:49:21.905Z</time></trkpt><trkpt lat="41.8323278" lon="1.5388409"><ele>857.6666666666667</ele><time>2026-04-25T09:49:22.905Z</time></trkpt><trkpt lat="41.8324844" lon="1.5388344"><ele>861.0</ele><time>2026-04-25T09:49:23.905Z</time></trkpt><trkpt lat="41.8326552" lon="1.5388208"><ele>861.0</ele><time>2026-04-25T09:49:24.905Z</time></trkpt><trkpt lat="41.8328297" lon="1.5388407"><ele>861.0</ele><time>2026-04-25T09:49:25.905Z</time></trkpt><trkpt lat="41.8329955" lon="1.5388925"><ele>861.0</ele><time>2026-04-25T09:49:26.905Z</time></trkpt><trkpt lat="41.8331566" lon="1.5389756"><ele>861.0</ele><time>2026-04-25T09:49:27.905Z</time></trkpt><trkpt lat="41.8332977" lon="1.5390938"><ele>861.0</ele><time>2026-04-25T09:49:28.905Z</time></trkpt><trkpt lat="41.8334102" lon="1.5392418"><ele>861.0</ele><time>2026-04-25T09:49:29.905Z</time></trkpt><trkpt lat="41.8335061" lon="1.5393936"><ele>858.5999999999999</ele><time>2026-04-25T09:49:30.904Z</time></trkpt><trkpt lat="41.833588" lon="1.5395214"><ele>856.1999999999999</ele><time>2026-04-25T09:49:31.905Z</time></trkpt><trkpt lat="41.833666" lon="1.5396235"><ele>853.8</ele><time>2026-04-25T09:49:32.906Z</time></trkpt><trkpt lat="41.8337559" lon="1.5396803"><ele>851.4000000000001</ele><time>2026-04-25T09:49:33.905Z</time></trkpt><trkpt lat="41.833853" lon="1.5396742"><ele>849.0</ele><time>2026-04-25T09:49:34.906Z</time></trkpt><trkpt lat="41.8339466" lon="1.5396135"><ele>853.25</ele><time>2026-04-25T09:49:35.904Z</time></trkpt><trkpt lat="41.8340534" lon="1.5395272"><ele>857.5</ele><time>2026-04-25T09:49:36.906Z</time></trkpt><trkpt lat="41.8341765" lon="1.539426"><ele>861.75</ele><time>2026-04-25T09:49:37.904Z</time></trkpt><trkpt lat="41.8343169" lon="1.539321"><ele>866.0</ele><time>2026-04-25T09:49:38.906Z</time></trkpt><trkpt lat="41.8344681" lon="1.539226"><ele>866.0</ele><time>2026-04-25T09:49:39.905Z</time></trkpt><trkpt lat="41.8346308" lon="1.5391346"><ele>866.0</ele><time>2026-04-25T09:49:40.904Z</time></trkpt><trkpt lat="41.8347883" lon="1.5390266"><ele>866.0</ele><time>2026-04-25T09:49:41.906Z</time></trkpt><trkpt lat="41.8349292" lon="1.5388873"><ele>866.0</ele><time>2026-04-25T09:49:42.905Z</time></trkpt><trkpt lat="41.8350623" lon="1.538766"><ele>866.0</ele><time>2026-04-25T09:49:43.905Z</time></trkpt><trkpt lat="41.8351886" lon="1.5386705"><ele>866.0</ele><time>2026-04-25T09:49:44.905Z</time></trkpt><trkpt lat="41.8353344" lon="1.5386113"><ele>874.6666666666667</ele><time>2026-04-25T09:49:45.905Z</time></trkpt><trkpt lat="41.835497" lon="1.5385981"><ele>883.3333333333333</ele><time>2026-04-25T09:49:46.905Z</time></trkpt><trkpt lat="41.8356691" lon="1.5386275"><ele>892.0</ele><time>2026-04-25T09:49:47.905Z</time></trkpt><trkpt lat="41.8358488" lon="1.5386815"><ele>891.6666666666666</ele><time>2026-04-25T09:49:48.905Z</time></trkpt><trkpt lat="41.836026" lon="1.5387376"><ele>891.3333333333333</ele><time>2026-04-25T09:49:49.904Z</time></trkpt><trkpt lat="41.8362113" lon="1.5387955"><ele>891.0</ele><time>2026-04-25T09:49:50.906Z</time></trkpt><trkpt lat="41.8363967" lon="1.5388802"><ele>891.0</ele><time>2026-04-25T09:49:51.905Z</time></trkpt><trkpt lat="41.8365743" lon="1.539003"><ele>891.0</ele><time>2026-04-25T09:49:52.906Z</time></trkpt><trkpt lat="41.8367381" lon="1.5391346"><ele>891.0</ele><time>2026-04-25T09:49:53.905Z</time></trkpt><trkpt lat="41.836893" lon="1.5392523"><ele>892.6666666666667</ele><time>2026-04-25T09:49:54.905Z</time></trkpt><trkpt lat="41.8370377" lon="1.5393586"><ele>894.3333333333334</ele><time>2026-04-25T09:49:55.906Z</time></trkpt><trkpt lat="41.8371701" lon="1.5394651"><ele>896.0</ele><time>2026-04-25T09:49:56.904Z</time></trkpt><trkpt lat="41.8372889" lon="1.5395639"><ele>896.0</ele><time>2026-04-25T09:49:57.905Z</time></trkpt><trkpt lat="41.8373977" lon="1.5396339"><ele>895.9999999999999</ele><time>2026-04-25T09:49:58.905Z</time></trkpt><trkpt lat="41.8375042" lon="1.5396744"><ele>895.9999999999999</ele><time>2026-04-25T09:49:59.904Z</time></trkpt><trkpt lat="41.8376083" lon="1.5396845"><ele>896.0</ele><time>2026-04-25T09:50:00.904Z</time></trkpt><trkpt lat="41.8377073" lon="1.5396789"><ele>896.0</ele><time>2026-04-25T09:50:01.906Z</time></trkpt><trkpt lat="41.8377973" lon="1.5396754"><ele>901.0</ele><time>2026-04-25T09:50:02.905Z</time></trkpt><trkpt lat="41.8378586" lon="1.5396957"><ele>901.0</ele><time>2026-04-25T09:50:03.905Z</time></trkpt><trkpt lat="41.8379385" lon="1.5397738"><ele>901.0</ele><time>2026-04-25T09:50:05.905Z</time></trkpt><trkpt lat="41.8379908" lon="1.5398529"><ele>901.0</ele><time>2026-04-25T09:50:08.905Z</time></trkpt></trkseg><trkseg><trkpt lat="41.838045" lon="1.5398879"><ele>901.0</ele><time>2026-04-25T10:16:33.902Z</time></trkpt><trkpt lat="41.8381471" lon="1.5398899"><ele>900.9999999999999</ele><time>2026-04-25T10:16:36.903Z</time></trkpt><trkpt lat="41.8382589" lon="1.5399775"><ele>900.9999999999999</ele><time>2026-04-25T10:16:38.903Z</time></trkpt><trkpt lat="41.8383167" lon="1.5400505"><ele>901.0</ele><time>2026-04-25T10:16:39.903Z</time></trkpt><trkpt lat="41.8383762" lon="1.5401416"><ele>901.0</ele><time>2026-04-25T10:16:40.903Z</time></trkpt><trkpt lat="41.8384357" lon="1.5402449"><ele>898.5999999999999</ele><time>2026-04-25T10:16:41.903Z</time></trkpt><trkpt lat="41.8384913" lon="1.5403593"><ele>896.1999999999999</ele><time>2026-04-25T10:16:42.903Z</time></trkpt><trkpt lat="41.8385491" lon="1.5404773"><ele>893.8000000000001</ele><time>2026-04-25T10:16:43.904Z</time></trkpt><trkpt lat="41.838612" lon="1.5405893"><ele>891.4000000000001</ele><time>2026-04-25T10:16:44.904Z</time></trkpt><trkpt lat="41.8386856" lon="1.5406933"><ele>889.0</ele><time>2026-04-25T10:16:45.903Z</time></trkpt><trkpt lat="41.8387701" lon="1.5407796"><ele>889.0</ele><time>2026-04-25T10:16:46.904Z</time></trkpt><trkpt lat="41.8388667" lon="1.5408426"><ele>889.0000000000001</ele><time>2026-04-25T10:16:47.903Z</time></trkpt><trkpt lat="41.8389666" lon="1.5408899"><ele>889.0000000000001</ele><time>2026-04-25T10:16:48.902Z</time></trkpt><trkpt lat="41.8390668" lon="1.5409403"><ele>889.0</ele><time>2026-04-25T10:16:49.902Z</time></trkpt><trkpt lat="41.839153" lon="1.5410203"><ele>889.0</ele><time>2026-04-25T10:16:50.904Z</time></trkpt><trkpt lat="41.8392162" lon="1.5411242"><ele>890.2</ele><time>2026-04-25T10:16:51.904Z</time></trkpt><trkpt lat="41.8392577" lon="1.5412463"><ele>891.4000000000001</ele><time>2026-04-25T10:16:52.903Z</time></trkpt><trkpt lat="41.839293" lon="1.5413793"><ele>892.6</ele><time>2026-04-25T10:16:53.903Z</time></trkpt><trkpt lat="41.839333" lon="1.541517"><ele>893.8</ele><time>2026-04-25T10:16:54.903Z</time></trkpt><trkpt lat="41.8393887" lon="1.5416486"><ele>895.0</ele><time>2026-04-25T10:16:55.902Z</time></trkpt><trkpt lat="41.8394541" lon="1.5417783"><ele>894.5</ele><time>2026-04-25T10:16:56.903Z</time></trkpt><trkpt lat="41.8395325" lon="1.5419032"><ele>894.0</ele><time>2026-04-25T10:16:57.904Z</time></trkpt><trkpt lat="41.8396247" lon="1.5420307"><ele>893.5</ele><time>2026-04-25T10:16:58.902Z</time></trkpt><trkpt lat="41.8397271" lon="1.5421589"><ele>893.0</ele><time>2026-04-25T10:16:59.903Z</time></trkpt><trkpt lat="41.8398291" lon="1.5422752"><ele>893.0</ele><time>2026-04-25T10:17:00.904Z</time></trkpt><trkpt lat="41.8399324" lon="1.542369"><ele>893.0</ele><time>2026-04-25T10:17:01.903Z</time></trkpt><trkpt lat="41.8400499" lon="1.5424318"><ele>893.0</ele><time>2026-04-25T10:17:02.904Z</time></trkpt><trkpt lat="41.8401799" lon="1.5424601"><ele>893.0</ele><time>2026-04-25T10:17:03.903Z</time></trkpt><trkpt lat="41.8403172" lon="1.5424613"><ele>892.5</ele><time>2026-04-25T10:17:04.904Z</time></trkpt><trkpt lat="41.8404611" lon="1.5424605"><ele>892.0</ele><time>2026-04-25T10:17:05.904Z</time></trkpt><trkpt lat="41.8406077" lon="1.5424884"><ele>891.5</ele><time>2026-04-25T10:17:06.903Z</time></trkpt><trkpt lat="41.840756" lon="1.5425442"><ele>891.0</ele><time>2026-04-25T10:17:07.903Z</time></trkpt><trkpt lat="41.8409041" lon="1.5426107"><ele>888.0</ele><time>2026-04-25T10:17:08.904Z</time></trkpt><trkpt lat="41.8410567" lon="1.542689"><ele>885.0</ele><time>2026-04-25T10:17:09.904Z</time></trkpt><trkpt lat="41.8412072" lon="1.5427688"><ele>882.0</ele><time>2026-04-25T10:17:10.903Z</time></trkpt><trkpt lat="41.8413523" lon="1.5428485"><ele>884.0</ele><time>2026-04-25T10:17:11.904Z</time></trkpt><trkpt lat="41.8414857" lon="1.5429437"><ele>886.0</ele><time>2026-04-25T10:17:12.902Z</time></trkpt><trkpt lat="41.8416186" lon="1.543034"><ele>888.0</ele><time>2026-04-25T10:17:13.903Z</time></trkpt><trkpt lat="41.8417629" lon="1.5430722"><ele>890.0</ele><time>2026-04-25T10:17:14.904Z</time></trkpt><trkpt lat="41.8419168" lon="1.5430734"><ele>890.0</ele><time>2026-04-25T10:17:15.903Z</time></trkpt><trkpt lat="41.8420721" lon="1.5430536"><ele>890.0</ele><time>2026-04-25T10:17:16.904Z</time></trkpt><trkpt lat="41.8422255" lon="1.5430288"><ele>890.0</ele><time>2026-04-25T10:17:17.903Z</time></trkpt><trkpt lat="41.842372" lon="1.5430368"><ele>890.0</ele><time>2026-04-25T10:17:18.903Z</time></trkpt><trkpt lat="41.8425105" lon="1.5430912"><ele>890.0</ele><time>2026-04-25T10:17:19.903Z</time></trkpt><trkpt lat="41.8426394" lon="1.5431839"><ele>890.0</ele><time>2026-04-25T10:17:20.903Z</time></trkpt><trkpt lat="41.8427565" lon="1.5433131"><ele>890.0</ele><time>2026-04-25T10:17:21.904Z</time></trkpt><trkpt lat="41.8428695" lon="1.543468"><ele>888.0</ele><time>2026-04-25T10:17:22.903Z</time></trkpt><trkpt lat="41.842988" lon="1.5436411"><ele>886.0</ele><time>2026-04-25T10:17:23.902Z</time></trkpt><trkpt lat="41.8431095" lon="1.5438158"><ele>884.0</ele><time>2026-04-25T10:17:24.903Z</time></trkpt><trkpt lat="41.8432306" lon="1.5439909"><ele>884.0</ele><time>2026-04-25T10:17:25.904Z</time></trkpt><trkpt lat="41.8433422" lon="1.544188"><ele>884.0</ele><time>2026-04-25T10:17:26.903Z</time></trkpt><trkpt lat="41.8434284" lon="1.5444024"><ele>884.0</ele><time>2026-04-25T10:17:27.903Z</time></trkpt><trkpt lat="41.8435092" lon="1.5446194"><ele>879.0</ele><time>2026-04-25T10:17:28.903Z</time></trkpt><trkpt lat="41.8435858" lon="1.5448275"><ele>874.0</ele><time>2026-04-25T10:17:29.904Z</time></trkpt><trkpt lat="41.8436615" lon="1.5450134"><ele>869.0</ele><time>2026-04-25T10:17:30.903Z</time></trkpt><trkpt lat="41.84375" lon="1.5451743"><ele>869.0</ele><time>2026-04-25T10:17:31.903Z</time></trkpt><trkpt lat="41.8438714" lon="1.545303"><ele>869.0</ele><time>2026-04-25T10:17:32.903Z</time></trkpt><trkpt lat="41.8440168" lon="1.5454174"><ele>869.0</ele><time>2026-04-25T10:17:33.903Z</time></trkpt><trkpt lat="41.8441903" lon="1.5455296"><ele>863.0</ele><time>2026-04-25T10:17:34.904Z</time></trkpt><trkpt lat="41.8443795" lon="1.5456527"><ele>857.0</ele><time>2026-04-25T10:17:35.902Z</time></trkpt><trkpt lat="41.8445741" lon="1.5458048"><ele>851.0</ele><time>2026-04-25T10:17:36.904Z</time></trkpt><trkpt lat="41.8447735" lon="1.5459748"><ele>851.0</ele><time>2026-04-25T10:17:37.903Z</time></trkpt><trkpt lat="41.8449758" lon="1.5461514"><ele>851.0</ele><time>2026-04-25T10:17:38.903Z</time></trkpt><trkpt lat="41.84518" lon="1.5463253"><ele>847.5</ele><time>2026-04-25T10:17:39.903Z</time></trkpt><trkpt lat="41.8453806" lon="1.5464863"><ele>844.0</ele><time>2026-04-25T10:17:40.904Z</time></trkpt><trkpt lat="41.8455751" lon="1.5466417"><ele>844.0</ele><time>2026-04-25T10:17:41.902Z</time></trkpt><trkpt lat="41.845756" lon="1.5468177"><ele>844.0</ele><time>2026-04-25T10:17:42.904Z</time></trkpt><trkpt lat="41.8459141" lon="1.5470134"><ele>844.0</ele><time>2026-04-25T10:17:43.903Z</time></trkpt><trkpt lat="41.8460672" lon="1.5471939"><ele>844.3333333333333</ele><time>2026-04-25T10:17:44.903Z</time></trkpt><trkpt lat="41.8462347" lon="1.5473362"><ele>844.6666666666667</ele><time>2026-04-25T10:17:45.903Z</time></trkpt><trkpt lat="41.8464159" lon="1.5474425"><ele>845.0</ele><time>2026-04-25T10:17:46.903Z</time></trkpt><trkpt lat="41.846605" lon="1.5475291"><ele>846.3333333333334</ele><time>2026-04-25T10:17:47.903Z</time></trkpt><trkpt lat="41.846795" lon="1.5476183"><ele>847.6666666666667</ele><time>2026-04-25T10:17:48.904Z</time></trkpt><trkpt lat="41.8469652" lon="1.5477423"><ele>849.0</ele><time>2026-04-25T10:17:49.903Z</time></trkpt><trkpt lat="41.8471271" lon="1.5478964"><ele>849.0</ele><time>2026-04-25T10:17:50.904Z</time></trkpt><trkpt lat="41.8472856" lon="1.5480712"><ele>849.0</ele><time>2026-04-25T10:17:51.903Z</time></trkpt><trkpt lat="41.8474408" lon="1.5482515"><ele>849.0</ele><time>2026-04-25T10:17:52.903Z</time></trkpt><trkpt lat="41.8475911" lon="1.548428"><ele>848.0</ele><time>2026-04-25T10:17:53.902Z</time></trkpt><trkpt lat="41.8477486" lon="1.5485932"><ele>847.0</ele><time>2026-04-25T10:17:54.903Z</time></trkpt><trkpt lat="41.8479187" lon="1.5487435"><ele>846.0</ele><time>2026-04-25T10:17:55.902Z</time></trkpt><trkpt lat="41.8480964" lon="1.5488791"><ele>846.0</ele><time>2026-04-25T10:17:56.903Z</time></trkpt><trkpt lat="41.8482732" lon="1.5490069"><ele>846.0</ele><time>2026-04-25T10:17:57.904Z</time></trkpt><trkpt lat="41.8484473" lon="1.5491299"><ele>846.0</ele><time>2026-04-25T10:17:58.904Z</time></trkpt><trkpt lat="41.8486243" lon="1.5492335"><ele>843.3333333333333</ele><time>2026-04-25T10:17:59.903Z</time></trkpt><trkpt lat="41.8488122" lon="1.5492982"><ele>840.6666666666666</ele><time>2026-04-25T10:18:00.903Z</time></trkpt><trkpt lat="41.8489944" lon="1.5493302"><ele>838.0</ele><time>2026-04-25T10:18:01.903Z</time></trkpt><trkpt lat="41.8491786" lon="1.5493235"><ele>836.3333333333333</ele><time>2026-04-25T10:18:02.904Z</time></trkpt><trkpt lat="41.8493708" lon="1.5492757"><ele>834.6666666666667</ele><time>2026-04-25T10:18:03.904Z</time></trkpt><trkpt lat="41.8495751" lon="1.5492102"><ele>833.0</ele><time>2026-04-25T10:18:04.903Z</time></trkpt><trkpt lat="41.8497844" lon="1.5491708"><ele>833.0</ele><time>2026-04-25T10:18:05.903Z</time></trkpt><trkpt lat="41.8499892" lon="1.5491897"><ele>833.0</ele><time>2026-04-25T10:18:06.903Z</time></trkpt><trkpt lat="41.8501807" lon="1.5492467"><ele>833.0</ele><time>2026-04-25T10:18:07.903Z</time></trkpt><trkpt lat="41.8503626" lon="1.5493016"><ele>834.0</ele><time>2026-04-25T10:18:08.902Z</time></trkpt><trkpt lat="41.8505471" lon="1.5493268"><ele>835.0</ele><time>2026-04-25T10:18:09.904Z</time></trkpt><trkpt lat="41.8507337" lon="1.5493159"><ele>836.0</ele><time>2026-04-25T10:18:10.904Z</time></trkpt><trkpt lat="41.8509268" lon="1.5492825"><ele>836.0</ele><time>2026-04-25T10:18:11.904Z</time></trkpt><trkpt lat="41.8511224" lon="1.5492338"><ele>836.0</ele><time>2026-04-25T10:18:12.903Z</time></trkpt><trkpt lat="41.8513266" lon="1.5491835"><ele>836.0</ele><time>2026-04-25T10:18:13.904Z</time></trkpt><trkpt lat="41.8515328" lon="1.5491602"><ele>836.0</ele><time>2026-04-25T10:18:14.902Z</time></trkpt><trkpt lat="41.8517379" lon="1.5491592"><ele>836.0</ele><time>2026-04-25T10:18:15.902Z</time></trkpt><trkpt lat="41.8519427" lon="1.5491588"><ele>836.0</ele><time>2026-04-25T10:18:16.903Z</time></trkpt><trkpt lat="41.8521506" lon="1.5491478"><ele>833.3333333333334</ele><time>2026-04-25T10:18:17.903Z</time></trkpt><trkpt lat="41.8523606" lon="1.5491279"><ele>830.6666666666667</ele><time>2026-04-25T10:18:18.902Z</time></trkpt><trkpt lat="41.8525766" lon="1.5490901"><ele>828.0</ele><time>2026-04-25T10:18:19.902Z</time></trkpt><trkpt lat="41.8527971" lon="1.5490201"><ele>827.5</ele><time>2026-04-25T10:18:20.904Z</time></trkpt><trkpt lat="41.8530186" lon="1.5489319"><ele>827.0</ele><time>2026-04-25T10:18:21.903Z</time></trkpt><trkpt lat="41.8532407" lon="1.5488306"><ele>827.0</ele><time>2026-04-25T10:18:22.903Z</time></trkpt><trkpt lat="41.8534498" lon="1.5487651"><ele>827.0</ele><time>2026-04-25T10:18:23.903Z</time></trkpt><trkpt lat="41.8536454" lon="1.5487578"><ele>827.0</ele><time>2026-04-25T10:18:24.904Z</time></trkpt><trkpt lat="41.8538397" lon="1.5487867"><ele>826.6666666666667</ele><time>2026-04-25T10:18:25.903Z</time></trkpt><trkpt lat="41.8540254" lon="1.5488578"><ele>826.3333333333333</ele><time>2026-04-25T10:18:26.902Z</time></trkpt><trkpt lat="41.8542183" lon="1.5489307"><ele>826.0</ele><time>2026-04-25T10:18:27.903Z</time></trkpt><trkpt lat="41.8544127" lon="1.5489922"><ele>826.0</ele><time>2026-04-25T10:18:28.904Z</time></trkpt><trkpt lat="41.8546039" lon="1.5490587"><ele>826.0</ele><time>2026-04-25T10:18:29.903Z</time></trkpt><trkpt lat="41.8548105" lon="1.5491501"><ele>826.0</ele><time>2026-04-25T10:18:30.904Z</time></trkpt><trkpt lat="41.8550273" lon="1.5492652"><ele>820.5</ele><time>2026-04-25T10:18:31.904Z</time></trkpt><trkpt lat="41.8552508" lon="1.5493818"><ele>815.0</ele><time>2026-04-25T10:18:32.903Z</time></trkpt><trkpt lat="41.8554942" lon="1.5495126"><ele>815.5</ele><time>2026-04-25T10:18:33.903Z</time></trkpt><trkpt lat="41.8557439" lon="1.5496553"><ele>816.0</ele><time>2026-04-25T10:18:34.903Z</time></trkpt><trkpt lat="41.8559965" lon="1.5498019"><ele>812.5</ele><time>2026-04-25T10:18:35.903Z</time></trkpt><trkpt lat="41.8562416" lon="1.5499506"><ele>809.0</ele><time>2026-04-25T10:18:36.902Z</time></trkpt><trkpt lat="41.8564766" lon="1.5501072"><ele>809.0</ele><time>2026-04-25T10:18:37.904Z</time></trkpt><trkpt lat="41.8566967" lon="1.5502698"><ele>809.0</ele><time>2026-04-25T10:18:38.904Z</time></trkpt><trkpt lat="41.8569004" lon="1.5504387"><ele>809.5</ele><time>2026-04-25T10:18:39.903Z</time></trkpt><trkpt lat="41.8570951" lon="1.5506077"><ele>810.0</ele><time>2026-04-25T10:18:40.903Z</time></trkpt><trkpt lat="41.8572833" lon="1.5507744"><ele>810.0</ele><time>2026-04-25T10:18:41.903Z</time></trkpt><trkpt lat="41.8574617" lon="1.5509383"><ele>810.0</ele><time>2026-04-25T10:18:42.903Z</time></trkpt><trkpt lat="41.8576318" lon="1.5510973"><ele>810.0</ele><time>2026-04-25T10:18:43.903Z</time></trkpt><trkpt lat="41.8577828" lon="1.5512369"><ele>809.5</ele><time>2026-04-25T10:18:44.903Z</time></trkpt><trkpt lat="41.857913" lon="1.5513521"><ele>809.0</ele><time>2026-04-25T10:18:45.902Z</time></trkpt><trkpt lat="41.8580348" lon="1.5514524"><ele>808.5</ele><time>2026-04-25T10:18:46.904Z</time></trkpt><trkpt lat="41.8581525" lon="1.5515511"><ele>808.0</ele><time>2026-04-25T10:18:47.903Z</time></trkpt><trkpt lat="41.8582782" lon="1.5516764"><ele>808.0</ele><time>2026-04-25T10:18:48.904Z</time></trkpt><trkpt lat="41.8584096" lon="1.5518276"><ele>808.0</ele><time>2026-04-25T10:18:49.902Z</time></trkpt><trkpt lat="41.8585616" lon="1.5519974"><ele>808.0</ele><time>2026-04-25T10:18:50.902Z</time></trkpt><trkpt lat="41.8587223" lon="1.5521765"><ele>806.5</ele><time>2026-04-25T10:18:51.903Z</time></trkpt><trkpt lat="41.8589031" lon="1.5523691"><ele>805.0</ele><time>2026-04-25T10:18:52.904Z</time></trkpt><trkpt lat="41.859101" lon="1.5525788"><ele>805.5</ele><time>2026-04-25T10:18:53.903Z</time></trkpt><trkpt lat="41.8593042" lon="1.5528045"><ele>806.0</ele><time>2026-04-25T10:18:54.903Z</time></trkpt><trkpt lat="41.8595066" lon="1.5530274"><ele>806.0</ele><time>2026-04-25T10:18:55.902Z</time></trkpt><trkpt lat="41.8596982" lon="1.5532401"><ele>806.0</ele><time>2026-04-25T10:18:56.902Z</time></trkpt><trkpt lat="41.859878" lon="1.5534415"><ele>806.0</ele><time>2026-04-25T10:18:57.903Z</time></trkpt><trkpt lat="41.8600482" lon="1.5536328"><ele>806.0</ele><time>2026-04-25T10:18:58.902Z</time></trkpt><trkpt lat="41.860216" lon="1.5538236"><ele>806.0</ele><time>2026-04-25T10:18:59.904Z</time></trkpt><trkpt lat="41.8604003" lon="1.5540084"><ele>804.0</ele><time>2026-04-25T10:19:00.903Z</time></trkpt><trkpt lat="41.860602" lon="1.5541768"><ele>802.0</ele><time>2026-04-25T10:19:01.903Z</time></trkpt><trkpt lat="41.8608183" lon="1.5543422"><ele>802.0</ele><time>2026-04-25T10:19:02.903Z</time></trkpt><trkpt lat="41.8610404" lon="1.5545252"><ele>802.0</ele><time>2026-04-25T10:19:03.902Z</time></trkpt><trkpt lat="41.861261" lon="1.5547059"><ele>801.0</ele><time>2026-04-25T10:19:04.903Z</time></trkpt><trkpt lat="41.8614773" lon="1.5548703"><ele>800.0</ele><time>2026-04-25T10:19:05.903Z</time></trkpt><trkpt lat="41.8617012" lon="1.5550061"><ele>805.0</ele><time>2026-04-25T10:19:06.904Z</time></trkpt><trkpt lat="41.8619247" lon="1.5551133"><ele>810.0</ele><time>2026-04-25T10:19:07.903Z</time></trkpt><trkpt lat="41.8621305" lon="1.5552195"><ele>810.0</ele><time>2026-04-25T10:19:08.903Z</time></trkpt><trkpt lat="41.8623266" lon="1.5553653"><ele>810.0</ele><time>2026-04-25T10:19:09.903Z</time></trkpt><trkpt lat="41.8625094" lon="1.5555349"><ele>810.0</ele><time>2026-04-25T10:19:10.903Z</time></trkpt><trkpt lat="41.8626731" lon="1.5557055"><ele>809.3333333333333</ele><time>2026-04-25T10:19:11.904Z</time></trkpt><trkpt lat="41.862825" lon="1.5558608"><ele>808.6666666666666</ele><time>2026-04-25T10:19:12.903Z</time></trkpt><trkpt lat="41.8629802" lon="1.556007"><ele>808.0</ele><time>2026-04-25T10:19:13.904Z</time></trkpt><trkpt lat="41.8631452" lon="1.5561219"><ele>808.0</ele><time>2026-04-25T10:19:14.904Z</time></trkpt><trkpt lat="41.8633257" lon="1.5561902"><ele>808.0</ele><time>2026-04-25T10:19:15.903Z</time></trkpt><trkpt lat="41.8635214" lon="1.5562301"><ele>808.0</ele><time>2026-04-25T10:19:16.903Z</time></trkpt><trkpt lat="41.8637231" lon="1.5562804"><ele>806.0</ele><time>2026-04-25T10:19:17.902Z</time></trkpt><trkpt lat="41.8639314" lon="1.55634"><ele>804.0</ele><time>2026-04-25T10:19:18.904Z</time></trkpt><trkpt lat="41.8641403" lon="1.5563993"><ele>802.0</ele><time>2026-04-25T10:19:19.903Z</time></trkpt><trkpt lat="41.8643425" lon="1.5564537"><ele>800.3333333333333</ele><time>2026-04-25T10:19:20.902Z</time></trkpt><trkpt lat="41.8645399" lon="1.5564835"><ele>798.6666666666667</ele><time>2026-04-25T10:19:21.903Z</time></trkpt><trkpt lat="41.8647358" lon="1.5564837"><ele>797.0</ele><time>2026-04-25T10:19:22.904Z</time></trkpt><trkpt lat="41.8649186" lon="1.5564258"><ele>797.0</ele><time>2026-04-25T10:19:23.903Z</time></trkpt><trkpt lat="41.8650821" lon="1.5563113"><ele>797.0</ele><time>2026-04-25T10:19:24.903Z</time></trkpt><trkpt lat="41.8652152" lon="1.5561638"><ele>797.0</ele><time>2026-04-25T10:19:25.902Z</time></trkpt><trkpt lat="41.8653413" lon="1.5560164"><ele>799.6666666666667</ele><time>2026-04-25T10:19:26.903Z</time></trkpt><trkpt lat="41.865499" lon="1.555917"><ele>802.3333333333333</ele><time>2026-04-25T10:19:27.904Z</time></trkpt><trkpt lat="41.8656782" lon="1.5558466"><ele>805.0</ele><time>2026-04-25T10:19:28.903Z</time></trkpt><trkpt lat="41.865872" lon="1.5557861"><ele>804.3333333333333</ele><time>2026-04-25T10:19:29.903Z</time></trkpt><trkpt lat="41.8660725" lon="1.5557245"><ele>803.6666666666667</ele><time>2026-04-25T10:19:30.902Z</time></trkpt><trkpt lat="41.8662681" lon="1.5556618"><ele>803.0</ele><time>2026-04-25T10:19:31.902Z</time></trkpt><trkpt lat="41.8664579" lon="1.5555931"><ele>803.0</ele><time>2026-04-25T10:19:32.903Z</time></trkpt><trkpt lat="41.8666435" lon="1.5555219"><ele>803.0</ele><time>2026-04-25T10:19:33.902Z</time></trkpt><trkpt lat="41.8668412" lon="1.5554379"><ele>803.0</ele><time>2026-04-25T10:19:34.902Z</time></trkpt><trkpt lat="41.8670386" lon="1.5553403"><ele>801.3333333333334</ele><time>2026-04-25T10:19:35.902Z</time></trkpt><trkpt lat="41.867232" lon="1.5552183"><ele>799.6666666666667</ele><time>2026-04-25T10:19:36.903Z</time></trkpt><trkpt lat="41.8674267" lon="1.5550919"><ele>798.0</ele><time>2026-04-25T10:19:37.903Z</time></trkpt><trkpt lat="41.8676156" lon="1.5549772"><ele>796.6666666666667</ele><time>2026-04-25T10:19:38.902Z</time></trkpt><trkpt lat="41.8677952" lon="1.5548852"><ele>795.3333333333334</ele><time>2026-04-25T10:19:39.904Z</time></trkpt><trkpt lat="41.8679685" lon="1.5548294"><ele>794.0</ele><time>2026-04-25T10:19:40.903Z</time></trkpt><trkpt lat="41.8681412" lon="1.5548287"><ele>794.0</ele><time>2026-04-25T10:19:41.904Z</time></trkpt><trkpt lat="41.8683123" lon="1.5548805"><ele>794.0</ele><time>2026-04-25T10:19:42.902Z</time></trkpt><trkpt lat="41.8684925" lon="1.5549533"><ele>794.0</ele><time>2026-04-25T10:19:43.903Z</time></trkpt><trkpt lat="41.8686845" lon="1.5550266"><ele>793.0</ele><time>2026-04-25T10:19:44.903Z</time></trkpt><trkpt lat="41.8688814" lon="1.5550977"><ele>792.0</ele><time>2026-04-25T10:19:45.904Z</time></trkpt><trkpt lat="41.8690886" lon="1.5551606"><ele>791.0</ele><time>2026-04-25T10:19:46.903Z</time></trkpt><trkpt lat="41.8693069" lon="1.5552047"><ele>788.5</ele><time>2026-04-25T10:19:47.904Z</time></trkpt><trkpt lat="41.8695395" lon="1.5552288"><ele>786.0</ele><time>2026-04-25T10:19:48.903Z</time></trkpt><trkpt lat="41.8697771" lon="1.5552405"><ele>786.0</ele><time>2026-04-25T10:19:49.904Z</time></trkpt><trkpt lat="41.8700127" lon="1.555259"><ele>786.0</ele><time>2026-04-25T10:19:50.902Z</time></trkpt><trkpt lat="41.8702349" lon="1.5553049"><ele>782.5</ele><time>2026-04-25T10:19:51.903Z</time></trkpt><trkpt lat="41.8704552" lon="1.5553723"><ele>779.0</ele><time>2026-04-25T10:19:52.903Z</time></trkpt><trkpt lat="41.8706723" lon="1.5554451"><ele>779.0</ele><time>2026-04-25T10:19:53.903Z</time></trkpt><trkpt lat="41.8708882" lon="1.5554954"><ele>779.0</ele><time>2026-04-25T10:19:54.904Z</time></trkpt><trkpt lat="41.8710974" lon="1.5555207"><ele>779.0</ele><time>2026-04-25T10:19:55.903Z</time></trkpt><trkpt lat="41.8712933" lon="1.5555204"><ele>778.3333333333334</ele><time>2026-04-25T10:19:56.902Z</time></trkpt><trkpt lat="41.871475" lon="1.5554853"><ele>777.6666666666667</ele><time>2026-04-25T10:19:57.904Z</time></trkpt><trkpt lat="41.8716423" lon="1.5554352"><ele>777.0</ele><time>2026-04-25T10:19:58.904Z</time></trkpt><trkpt lat="41.871799" lon="1.5554191"><ele>776.0</ele><time>2026-04-25T10:19:59.902Z</time></trkpt><trkpt lat="41.8719619" lon="1.5554657"><ele>775.0</ele><time>2026-04-25T10:20:00.904Z</time></trkpt><trkpt lat="41.8721259" lon="1.5555784"><ele>774.0</ele><time>2026-04-25T10:20:01.903Z</time></trkpt><trkpt lat="41.8722876" lon="1.5557292"><ele>774.0</ele><time>2026-04-25T10:20:02.904Z</time></trkpt><trkpt lat="41.8724665" lon="1.5558789"><ele>774.0</ele><time>2026-04-25T10:20:03.904Z</time></trkpt><trkpt lat="41.8726587" lon="1.5560255"><ele>774.0</ele><time>2026-04-25T10:20:04.904Z</time></trkpt><trkpt lat="41.8728492" lon="1.5561631"><ele>772.6666666666667</ele><time>2026-04-25T10:20:05.902Z</time></trkpt><trkpt lat="41.8730255" lon="1.556296"><ele>771.3333333333334</ele><time>2026-04-25T10:20:06.903Z</time></trkpt><trkpt lat="41.873198" lon="1.5564455"><ele>770.0</ele><time>2026-04-25T10:20:07.904Z</time></trkpt><trkpt lat="41.873359" lon="1.5566194"><ele>769.0</ele><time>2026-04-25T10:20:08.904Z</time></trkpt><trkpt lat="41.8734903" lon="1.5568082"><ele>768.0</ele><time>2026-04-25T10:20:09.904Z</time></trkpt><trkpt lat="41.873598" lon="1.5570073"><ele>767.0</ele><time>2026-04-25T10:20:10.903Z</time></trkpt><trkpt lat="41.8736846" lon="1.5571867"><ele>764.0</ele><time>2026-04-25T10:20:11.903Z</time></trkpt><trkpt lat="41.8737742" lon="1.5573378"><ele>761.0</ele><time>2026-04-25T10:20:12.904Z</time></trkpt><trkpt lat="41.8738978" lon="1.5574407"><ele>758.0</ele><time>2026-04-25T10:20:13.904Z</time></trkpt><trkpt lat="41.8740573" lon="1.557514"><ele>758.0</ele><time>2026-04-25T10:20:14.904Z</time></trkpt><trkpt lat="41.874239" lon="1.5575548"><ele>758.0</ele><time>2026-04-25T10:20:15.904Z</time></trkpt><trkpt lat="41.8744361" lon="1.5575663"><ele>758.0</ele><time>2026-04-25T10:20:16.904Z</time></trkpt><trkpt lat="41.8746538" lon="1.5575639"><ele>757.6666666666666</ele><time>2026-04-25T10:20:17.903Z</time></trkpt><trkpt lat="41.8748752" lon="1.5575609"><ele>757.3333333333334</ele><time>2026-04-25T10:20:18.903Z</time></trkpt><trkpt lat="41.8750926" lon="1.5575745"><ele>757.0</ele><time>2026-04-25T10:20:19.903Z</time></trkpt><trkpt lat="41.8752926" lon="1.5576226"><ele>756.3333333333334</ele><time>2026-04-25T10:20:20.903Z</time></trkpt><trkpt lat="41.8754905" lon="1.5576968"><ele>755.6666666666666</ele><time>2026-04-25T10:20:21.902Z</time></trkpt><trkpt lat="41.8756773" lon="1.557809"><ele>755.0</ele><time>2026-04-25T10:20:22.902Z</time></trkpt><trkpt lat="41.8758589" lon="1.5579519"><ele>754.0</ele><time>2026-04-25T10:20:23.903Z</time></trkpt><trkpt lat="41.8760357" lon="1.5581161"><ele>753.0</ele><time>2026-04-25T10:20:24.902Z</time></trkpt><trkpt lat="41.8761987" lon="1.5582936"><ele>752.0</ele><time>2026-04-25T10:20:25.902Z</time></trkpt><trkpt lat="41.8763456" lon="1.5584639"><ele>752.0</ele><time>2026-04-25T10:20:26.901Z</time></trkpt><trkpt lat="41.8764682" lon="1.5586285"><ele>752.0</ele><time>2026-04-25T10:20:27.902Z</time></trkpt><trkpt lat="41.8765624" lon="1.5588242"><ele>752.0</ele><time>2026-04-25T10:20:28.901Z</time></trkpt><trkpt lat="41.876624" lon="1.5590571"><ele>752.0</ele><time>2026-04-25T10:20:29.902Z</time></trkpt><trkpt lat="41.8766582" lon="1.5593126"><ele>752.0</ele><time>2026-04-25T10:20:30.902Z</time></trkpt><trkpt lat="41.8766861" lon="1.5595802"><ele>752.0</ele><time>2026-04-25T10:20:31.901Z</time></trkpt><trkpt lat="41.8767199" lon="1.5598595"><ele>752.0</ele><time>2026-04-25T10:20:32.902Z</time></trkpt><trkpt lat="41.8767584" lon="1.5601439"><ele>752.0</ele><time>2026-04-25T10:20:33.901Z</time></trkpt><trkpt lat="41.8768049" lon="1.5604283"><ele>752.0</ele><time>2026-04-25T10:20:34.903Z</time></trkpt><trkpt lat="41.876858" lon="1.5607094"><ele>755.6666666666666</ele><time>2026-04-25T10:20:35.903Z</time></trkpt><trkpt lat="41.876912" lon="1.5609823"><ele>759.3333333333334</ele><time>2026-04-25T10:20:36.902Z</time></trkpt><trkpt lat="41.8769703" lon="1.5612307"><ele>763.0</ele><time>2026-04-25T10:20:37.901Z</time></trkpt><trkpt lat="41.8770282" lon="1.5614547"><ele>763.25</ele><time>2026-04-25T10:20:38.903Z</time></trkpt><trkpt lat="41.8770897" lon="1.5616505"><ele>763.5</ele><time>2026-04-25T10:20:39.903Z</time></trkpt><trkpt lat="41.8771618" lon="1.561816"><ele>763.75</ele><time>2026-04-25T10:20:40.902Z</time></trkpt><trkpt lat="41.8772602" lon="1.5619526"><ele>764.0</ele><time>2026-04-25T10:20:41.903Z</time></trkpt><trkpt lat="41.8773897" lon="1.5620525"><ele>758.6666666666666</ele><time>2026-04-25T10:20:42.901Z</time></trkpt><trkpt lat="41.8775403" lon="1.5621036"><ele>753.3333333333334</ele><time>2026-04-25T10:20:43.903Z</time></trkpt><trkpt lat="41.8777221" lon="1.5621105"><ele>748.0</ele><time>2026-04-25T10:20:44.902Z</time></trkpt><trkpt lat="41.8779238" lon="1.5621039"><ele>747.5</ele><time>2026-04-25T10:20:45.903Z</time></trkpt><trkpt lat="41.8781344" lon="1.5621258"><ele>747.0</ele><time>2026-04-25T10:20:46.903Z</time></trkpt><trkpt lat="41.8783747" lon="1.5621934"><ele>748.5</ele><time>2026-04-25T10:20:47.902Z</time></trkpt><trkpt lat="41.8786133" lon="1.562262"><ele>750.0</ele><time>2026-04-25T10:20:48.901Z</time></trkpt><trkpt lat="41.8788418" lon="1.5623342"><ele>750.0</ele><time>2026-04-25T10:20:49.902Z</time></trkpt><trkpt lat="41.879058" lon="1.5624136"><ele>750.0</ele><time>2026-04-25T10:20:50.902Z</time></trkpt><trkpt lat="41.879281" lon="1.5624728"><ele>750.0</ele><time>2026-04-25T10:20:51.901Z</time></trkpt><trkpt lat="41.8795156" lon="1.5625008"><ele>750.0</ele><time>2026-04-25T10:20:52.902Z</time></trkpt><trkpt lat="41.879761" lon="1.5625187"><ele>750.0</ele><time>2026-04-25T10:20:53.902Z</time></trkpt><trkpt lat="41.8800024" lon="1.5625398"><ele>750.0</ele><time>2026-04-25T10:20:54.903Z</time></trkpt><trkpt lat="41.880236" lon="1.5625677"><ele>749.0</ele><time>2026-04-25T10:20:55.902Z</time></trkpt><trkpt lat="41.8804578" lon="1.562599"><ele>748.0</ele><time>2026-04-25T10:20:56.901Z</time></trkpt><trkpt lat="41.880659" lon="1.5626326"><ele>747.0</ele><time>2026-04-25T10:20:57.903Z</time></trkpt><trkpt lat="41.8808378" lon="1.5626639"><ele>744.0</ele><time>2026-04-25T10:20:58.903Z</time></trkpt><trkpt lat="41.8810098" lon="1.5626708"><ele>741.0</ele><time>2026-04-25T10:20:59.903Z</time></trkpt><trkpt lat="41.881183" lon="1.5626181"><ele>738.0</ele><time>2026-04-25T10:21:00.902Z</time></trkpt><trkpt lat="41.8813462" lon="1.5625185"><ele>738.0</ele><time>2026-04-25T10:21:01.903Z</time></trkpt><trkpt lat="41.8814968" lon="1.5623979"><ele>738.0</ele><time>2026-04-25T10:21:02.902Z</time></trkpt><trkpt lat="41.881644" lon="1.5622539"><ele>738.0</ele><time>2026-04-25T10:21:03.902Z</time></trkpt><trkpt lat="41.8818029" lon="1.562097"><ele>737.3333333333334</ele><time>2026-04-25T10:21:04.902Z</time></trkpt><trkpt lat="41.8819631" lon="1.5619433"><ele>736.6666666666667</ele><time>2026-04-25T10:21:05.903Z</time></trkpt><trkpt lat="41.8821154" lon="1.5617892"><ele>736.0</ele><time>2026-04-25T10:21:06.903Z</time></trkpt><trkpt lat="41.8822607" lon="1.5616471"><ele>736.0</ele><time>2026-04-25T10:21:07.901Z</time></trkpt><trkpt lat="41.8824029" lon="1.5615257"><ele>736.0</ele><time>2026-04-25T10:21:08.902Z</time></trkpt><trkpt lat="41.882548" lon="1.5614335"><ele>736.0</ele><time>2026-04-25T10:21:09.902Z</time></trkpt><trkpt lat="41.8827028" lon="1.5613677"><ele>733.6666666666667</ele><time>2026-04-25T10:21:10.902Z</time></trkpt><trkpt lat="41.8828672" lon="1.5613435"><ele>731.3333333333334</ele><time>2026-04-25T10:21:11.901Z</time></trkpt><trkpt lat="41.8830442" lon="1.5613609"><ele>729.0</ele><time>2026-04-25T10:21:12.902Z</time></trkpt><trkpt lat="41.8832271" lon="1.5614085"><ele>729.0</ele><time>2026-04-25T10:21:13.902Z</time></trkpt><trkpt lat="41.8834032" lon="1.5614852"><ele>729.0</ele><time>2026-04-25T10:21:14.902Z</time></trkpt><trkpt lat="41.88357" lon="1.5615933"><ele>729.0</ele><time>2026-04-25T10:21:15.901Z</time></trkpt><trkpt lat="41.8837156" lon="1.5617306"><ele>730.0</ele><time>2026-04-25T10:21:16.902Z</time></trkpt><trkpt lat="41.8838425" lon="1.5618662"><ele>731.0</ele><time>2026-04-25T10:21:17.903Z</time></trkpt><trkpt lat="41.8839802" lon="1.56198"><ele>732.0</ele><time>2026-04-25T10:21:18.902Z</time></trkpt><trkpt lat="41.8841444" lon="1.5620624"><ele>729.6666666666666</ele><time>2026-04-25T10:21:19.902Z</time></trkpt><trkpt lat="41.8843255" lon="1.5621014"><ele>727.3333333333333</ele><time>2026-04-25T10:21:20.903Z</time></trkpt><trkpt lat="41.8845185" lon="1.5621134"><ele>725.0</ele><time>2026-04-25T10:21:21.901Z</time></trkpt><trkpt lat="41.8847296" lon="1.5620909"><ele>725.0</ele><time>2026-04-25T10:21:22.902Z</time></trkpt><trkpt lat="41.8849442" lon="1.5620661"><ele>725.0</ele><time>2026-04-25T10:21:23.903Z</time></trkpt><trkpt lat="41.8851486" lon="1.5620699"><ele>725.0</ele><time>2026-04-25T10:21:24.902Z</time></trkpt><trkpt lat="41.885351" lon="1.5621096"><ele>725.0</ele><time>2026-04-25T10:21:25.902Z</time></trkpt><trkpt lat="41.8855296" lon="1.5621802"><ele>725.0</ele><time>2026-04-25T10:21:26.901Z</time></trkpt><trkpt lat="41.885696" lon="1.562252"><ele>725.0</ele><time>2026-04-25T10:21:27.902Z</time></trkpt><trkpt lat="41.8858741" lon="1.5623018"><ele>724.3333333333333</ele><time>2026-04-25T10:21:28.903Z</time></trkpt><trkpt lat="41.8860656" lon="1.5623384"><ele>723.6666666666666</ele><time>2026-04-25T10:21:29.902Z</time></trkpt><trkpt lat="41.8862628" lon="1.5623629"><ele>723.0</ele><time>2026-04-25T10:21:30.902Z</time></trkpt><trkpt lat="41.886466" lon="1.5623507"><ele>723.0</ele><time>2026-04-25T10:21:31.903Z</time></trkpt><trkpt lat="41.8866706" lon="1.5622964"><ele>723.0</ele><time>2026-04-25T10:21:32.902Z</time></trkpt><trkpt lat="41.8868812" lon="1.5622174"><ele>723.0</ele><time>2026-04-25T10:21:33.903Z</time></trkpt><trkpt lat="41.8870951" lon="1.5621388"><ele>723.3333333333334</ele><time>2026-04-25T10:21:34.902Z</time></trkpt><trkpt lat="41.8873067" lon="1.5620758"><ele>723.6666666666667</ele><time>2026-04-25T10:21:35.901Z</time></trkpt><trkpt lat="41.8875008" lon="1.5620218"><ele>724.0</ele><time>2026-04-25T10:21:36.901Z</time></trkpt><trkpt lat="41.8876728" lon="1.5619813"><ele>724.0</ele><time>2026-04-25T10:21:37.901Z</time></trkpt><trkpt lat="41.8878266" lon="1.5619717"><ele>724.0</ele><time>2026-04-25T10:21:38.901Z</time></trkpt><trkpt lat="41.8879763" lon="1.5620021"><ele>724.0</ele><time>2026-04-25T10:21:39.901Z</time></trkpt><trkpt lat="41.8881338" lon="1.562069"><ele>724.0</ele><time>2026-04-25T10:21:40.903Z</time></trkpt><trkpt lat="41.8882915" lon="1.5621615"><ele>724.0</ele><time>2026-04-25T10:21:41.901Z</time></trkpt><trkpt lat="41.8884562" lon="1.5622784"><ele>724.0</ele><time>2026-04-25T10:21:42.902Z</time></trkpt><trkpt lat="41.8886257" lon="1.5623979"><ele>724.0</ele><time>2026-04-25T10:21:43.901Z</time></trkpt><trkpt lat="41.8887971" lon="1.5625203"><ele>724.0</ele><time>2026-04-25T10:21:44.901Z</time></trkpt><trkpt lat="41.8889717" lon="1.5626324"><ele>724.0</ele><time>2026-04-25T10:21:45.903Z</time></trkpt><trkpt lat="41.8891428" lon="1.5627232"><ele>724.6666666666667</ele><time>2026-04-25T10:21:46.901Z</time></trkpt><trkpt lat="41.88931" lon="1.5627938"><ele>725.3333333333334</ele><time>2026-04-25T10:21:47.903Z</time></trkpt><trkpt lat="41.8894607" lon="1.5628501"><ele>726.0</ele><time>2026-04-25T10:21:48.902Z</time></trkpt><trkpt lat="41.8895794" lon="1.5629307"><ele>726.75</ele><time>2026-04-25T10:21:49.902Z</time></trkpt><trkpt lat="41.8896702" lon="1.5630612"><ele>727.5</ele><time>2026-04-25T10:21:50.902Z</time></trkpt><trkpt lat="41.8897467" lon="1.5632181"><ele>728.25</ele><time>2026-04-25T10:21:51.902Z</time></trkpt><trkpt lat="41.8898298" lon="1.5633929"><ele>729.0</ele><time>2026-04-25T10:21:52.901Z</time></trkpt><trkpt lat="41.8899308" lon="1.5635651"><ele>730.0</ele><time>2026-04-25T10:21:53.903Z</time></trkpt><trkpt lat="41.8900468" lon="1.5637291"><ele>731.0</ele><time>2026-04-25T10:21:54.901Z</time></trkpt><trkpt lat="41.8901691" lon="1.563894"><ele>732.0</ele><time>2026-04-25T10:21:55.901Z</time></trkpt><trkpt lat="41.8902795" lon="1.5640637"><ele>732.75</ele><time>2026-04-25T10:21:56.902Z</time></trkpt><trkpt lat="41.890372" lon="1.5642197"><ele>733.5</ele><time>2026-04-25T10:21:57.902Z</time></trkpt><trkpt lat="41.8904527" lon="1.5643533"><ele>734.25</ele><time>2026-04-25T10:21:58.903Z</time></trkpt><trkpt lat="41.8905132" lon="1.5644589"><ele>735.0</ele><time>2026-04-25T10:21:59.902Z</time></trkpt><trkpt lat="41.8905616" lon="1.5645498"><ele>735.2</ele><time>2026-04-25T10:22:00.902Z</time></trkpt><trkpt lat="41.8906034" lon="1.5646534"><ele>735.4</ele><time>2026-04-25T10:22:01.902Z</time></trkpt><trkpt lat="41.8906307" lon="1.5647764"><ele>735.5999999999999</ele><time>2026-04-25T10:22:02.902Z</time></trkpt><trkpt lat="41.8906329" lon="1.5649076"><ele>735.8</ele><time>2026-04-25T10:22:03.902Z</time></trkpt><trkpt lat="41.8906031" lon="1.5650368"><ele>736.0</ele><time>2026-04-25T10:22:04.901Z</time></trkpt><trkpt lat="41.8905376" lon="1.5651884"><ele>737.6666666666667</ele><time>2026-04-25T10:22:05.903Z</time></trkpt><trkpt lat="41.8904491" lon="1.565363"><ele>739.3333333333334</ele><time>2026-04-25T10:22:06.903Z</time></trkpt><trkpt lat="41.8903633" lon="1.5655614"><ele>741.0</ele><time>2026-04-25T10:22:07.901Z</time></trkpt><trkpt lat="41.890272" lon="1.565796"><ele>741.0</ele><time>2026-04-25T10:22:08.902Z</time></trkpt><trkpt lat="41.890175" lon="1.5660538"><ele>741.0</ele><time>2026-04-25T10:22:09.902Z</time></trkpt><trkpt lat="41.8900896" lon="1.5663318"><ele>741.0</ele><time>2026-04-25T10:22:10.901Z</time></trkpt><trkpt lat="41.8900146" lon="1.5666332"><ele>736.5</ele><time>2026-04-25T10:22:11.903Z</time></trkpt><trkpt lat="41.8899575" lon="1.5669472"><ele>732.0</ele><time>2026-04-25T10:22:12.903Z</time></trkpt><trkpt lat="41.8899182" lon="1.5672816"><ele>732.0</ele><time>2026-04-25T10:22:13.902Z</time></trkpt><trkpt lat="41.8898998" lon="1.5676215"><ele>732.0</ele><time>2026-04-25T10:22:14.903Z</time></trkpt><trkpt lat="41.8898994" lon="1.5679675"><ele>733.5</ele><time>2026-04-25T10:22:15.903Z</time></trkpt><trkpt lat="41.889922" lon="1.5683237"><ele>735.0</ele><time>2026-04-25T10:22:16.902Z</time></trkpt><trkpt lat="41.8899677" lon="1.5686712"><ele>736.0</ele><time>2026-04-25T10:22:17.902Z</time></trkpt><trkpt lat="41.8900316" lon="1.5690157"><ele>737.0</ele><time>2026-04-25T10:22:18.903Z</time></trkpt><trkpt lat="41.8901141" lon="1.5693526"><ele>738.0</ele><time>2026-04-25T10:22:19.902Z</time></trkpt><trkpt lat="41.8902181" lon="1.5696809"><ele>739.0</ele><time>2026-04-25T10:22:20.903Z</time></trkpt><trkpt lat="41.8903467" lon="1.5700018"><ele>739.0</ele><time>2026-04-25T10:22:21.902Z</time></trkpt><trkpt lat="41.8904955" lon="1.5703179"><ele>739.0</ele><time>2026-04-25T10:22:22.901Z</time></trkpt><trkpt lat="41.8906597" lon="1.5706287"><ele>739.0</ele><time>2026-04-25T10:22:23.902Z</time></trkpt><trkpt lat="41.8908246" lon="1.5709247"><ele>739.0</ele><time>2026-04-25T10:22:24.902Z</time></trkpt><trkpt lat="41.8909807" lon="1.5712049"><ele>739.0</ele><time>2026-04-25T10:22:25.903Z</time></trkpt><trkpt lat="41.8911281" lon="1.5714891"><ele>739.0</ele><time>2026-04-25T10:22:26.903Z</time></trkpt><trkpt lat="41.891256" lon="1.571791"><ele>736.0</ele><time>2026-04-25T10:22:27.903Z</time></trkpt><trkpt lat="41.8913638" lon="1.5721098"><ele>733.0</ele><time>2026-04-25T10:22:28.902Z</time></trkpt><trkpt lat="41.8914489" lon="1.5724407"><ele>733.0</ele><time>2026-04-25T10:22:29.902Z</time></trkpt><trkpt lat="41.8915057" lon="1.5727819"><ele>733.0</ele><time>2026-04-25T10:22:30.902Z</time></trkpt><trkpt lat="41.8915432" lon="1.5731305"><ele>732.0</ele><time>2026-04-25T10:22:31.902Z</time></trkpt><trkpt lat="41.8915566" lon="1.5734824"><ele>731.0</ele><time>2026-04-25T10:22:32.903Z</time></trkpt><trkpt lat="41.8915544" lon="1.5738324"><ele>730.0</ele><time>2026-04-25T10:22:33.903Z</time></trkpt><trkpt lat="41.8915524" lon="1.5741767"><ele>729.0</ele><time>2026-04-25T10:22:34.903Z</time></trkpt><trkpt lat="41.8915523" lon="1.5745142"><ele>728.0</ele><time>2026-04-25T10:22:35.901Z</time></trkpt><trkpt lat="41.891555" lon="1.5748333"><ele>727.0</ele><time>2026-04-25T10:22:36.901Z</time></trkpt><trkpt lat="41.8915578" lon="1.5751366"><ele>726.0</ele><time>2026-04-25T10:22:37.903Z</time></trkpt><trkpt lat="41.8915584" lon="1.5754155"><ele>725.0</ele><time>2026-04-25T10:22:38.902Z</time></trkpt><trkpt lat="41.8915568" lon="1.5756717"><ele>724.0</ele><time>2026-04-25T10:22:39.903Z</time></trkpt><trkpt lat="41.8915567" lon="1.575904"><ele>724.0</ele><time>2026-04-25T10:22:40.902Z</time></trkpt><trkpt lat="41.8915515" lon="1.5761169"><ele>724.0</ele><time>2026-04-25T10:22:41.902Z</time></trkpt><trkpt lat="41.8915081" lon="1.576316"><ele>724.0</ele><time>2026-04-25T10:22:42.901Z</time></trkpt><trkpt lat="41.8914199" lon="1.5765021"><ele>724.3333333333334</ele><time>2026-04-25T10:22:43.903Z</time></trkpt><trkpt lat="41.8912905" lon="1.5766623"><ele>724.6666666666666</ele><time>2026-04-25T10:22:44.903Z</time></trkpt><trkpt lat="41.8911356" lon="1.5767917"><ele>725.0</ele><time>2026-04-25T10:22:45.902Z</time></trkpt><trkpt lat="41.8909774" lon="1.5768971"><ele>725.3333333333333</ele><time>2026-04-25T10:22:46.903Z</time></trkpt><trkpt lat="41.8908245" lon="1.5769789"><ele>725.6666666666666</ele><time>2026-04-25T10:22:47.902Z</time></trkpt><trkpt lat="41.890657" lon="1.5770205"><ele>726.0</ele><time>2026-04-25T10:22:48.902Z</time></trkpt><trkpt lat="41.8904893" lon="1.5770112"><ele>724.3333333333334</ele><time>2026-04-25T10:22:49.903Z</time></trkpt><trkpt lat="41.8903312" lon="1.5769871"><ele>722.6666666666667</ele><time>2026-04-25T10:22:50.902Z</time></trkpt><trkpt lat="41.8901677" lon="1.5769751"><ele>721.0</ele><time>2026-04-25T10:22:51.902Z</time></trkpt><trkpt lat="41.8899975" lon="1.576989"><ele>722.0</ele><time>2026-04-25T10:22:52.902Z</time></trkpt><trkpt lat="41.8898417" lon="1.5770395"><ele>723.0</ele><time>2026-04-25T10:22:53.902Z</time></trkpt><trkpt lat="41.8897056" lon="1.5771129"><ele>724.0</ele><time>2026-04-25T10:22:54.902Z</time></trkpt><trkpt lat="41.8895834" lon="1.5772147"><ele>724.0</ele><time>2026-04-25T10:22:55.901Z</time></trkpt><trkpt lat="41.8894821" lon="1.5773616"><ele>724.0</ele><time>2026-04-25T10:22:56.901Z</time></trkpt><trkpt lat="41.8894074" lon="1.577556"><ele>724.0</ele><time>2026-04-25T10:22:57.902Z</time></trkpt><trkpt lat="41.889338" lon="1.5777927"><ele>725.0</ele><time>2026-04-25T10:22:58.903Z</time></trkpt><trkpt lat="41.8892675" lon="1.578053"><ele>726.0</ele><time>2026-04-25T10:22:59.902Z</time></trkpt><trkpt lat="41.8891927" lon="1.5783176"><ele>727.0</ele><time>2026-04-25T10:23:00.902Z</time></trkpt><trkpt lat="41.8891098" lon="1.5786147"><ele>723.0</ele><time>2026-04-25T10:23:01.902Z</time></trkpt><trkpt lat="41.8890236" lon="1.5789261"><ele>719.0</ele><time>2026-04-25T10:23:02.902Z</time></trkpt><trkpt lat="41.8889392" lon="1.5792331"><ele>719.6666666666666</ele><time>2026-04-25T10:23:03.903Z</time></trkpt><trkpt lat="41.8888602" lon="1.579522"><ele>720.3333333333334</ele><time>2026-04-25T10:23:04.902Z</time></trkpt><trkpt lat="41.8887937" lon="1.5797732"><ele>721.0</ele><time>2026-04-25T10:23:05.901Z</time></trkpt><trkpt lat="41.888748" lon="1.5799806"><ele>721.0</ele><time>2026-04-25T10:23:06.901Z</time></trkpt><trkpt lat="41.8887444" lon="1.5801669"><ele>721.0</ele><time>2026-04-25T10:23:07.902Z</time></trkpt><trkpt lat="41.8887802" lon="1.5803641"><ele>721.0</ele><time>2026-04-25T10:23:08.902Z</time></trkpt><trkpt lat="41.8888555" lon="1.5805745"><ele>720.6666666666667</ele><time>2026-04-25T10:23:09.903Z</time></trkpt><trkpt lat="41.8889604" lon="1.5807909"><ele>720.3333333333334</ele><time>2026-04-25T10:23:10.903Z</time></trkpt><trkpt lat="41.8890721" lon="1.5809977"><ele>720.0</ele><time>2026-04-25T10:23:11.902Z</time></trkpt><trkpt lat="41.8891777" lon="1.5812019"><ele>719.6666666666666</ele><time>2026-04-25T10:23:12.901Z</time></trkpt><trkpt lat="41.8892549" lon="1.5814246"><ele>719.3333333333333</ele><time>2026-04-25T10:23:13.903Z</time></trkpt><trkpt lat="41.8892936" lon="1.5816801"><ele>719.0</ele><time>2026-04-25T10:23:14.903Z</time></trkpt><trkpt lat="41.8892867" lon="1.5819478"><ele>717.3333333333333</ele><time>2026-04-25T10:23:15.903Z</time></trkpt><trkpt lat="41.8892334" lon="1.5822039"><ele>715.6666666666666</ele><time>2026-04-25T10:23:16.903Z</time></trkpt><trkpt lat="41.8891558" lon="1.5824454"><ele>714.0</ele><time>2026-04-25T10:23:17.901Z</time></trkpt><trkpt lat="41.8890852" lon="1.5826857"><ele>714.3333333333334</ele><time>2026-04-25T10:23:18.902Z</time></trkpt><trkpt lat="41.8890196" lon="1.5829252"><ele>714.6666666666667</ele><time>2026-04-25T10:23:19.902Z</time></trkpt><trkpt lat="41.8889708" lon="1.5831549"><ele>715.0</ele><time>2026-04-25T10:23:20.902Z</time></trkpt><trkpt lat="41.8889493" lon="1.5834089"><ele>715.0</ele><time>2026-04-25T10:23:21.903Z</time></trkpt><trkpt lat="41.8889662" lon="1.5836826"><ele>715.0</ele><time>2026-04-25T10:23:22.903Z</time></trkpt><trkpt lat="41.8890094" lon="1.5839712"><ele>715.0</ele><time>2026-04-25T10:23:23.902Z</time></trkpt><trkpt lat="41.8890652" lon="1.5842674"><ele>714.0</ele><time>2026-04-25T10:23:24.902Z</time></trkpt><trkpt lat="41.8891263" lon="1.5845658"><ele>713.0</ele><time>2026-04-25T10:23:25.902Z</time></trkpt><trkpt lat="41.8891868" lon="1.5848523"><ele>713.0</ele><time>2026-04-25T10:23:26.902Z</time></trkpt><trkpt lat="41.8892444" lon="1.585139"><ele>713.0</ele><time>2026-04-25T10:23:27.903Z</time></trkpt><trkpt lat="41.8892883" lon="1.5854326"><ele>713.0</ele><time>2026-04-25T10:23:28.902Z</time></trkpt><trkpt lat="41.8893" lon="1.5857419"><ele>719.5</ele><time>2026-04-25T10:23:29.902Z</time></trkpt><trkpt lat="41.8892959" lon="1.5860685"><ele>726.0</ele><time>2026-04-25T10:23:30.902Z</time></trkpt><trkpt lat="41.8892835" lon="1.5863747"><ele>726.0</ele><time>2026-04-25T10:23:31.902Z</time></trkpt><trkpt lat="41.8892713" lon="1.5866356"><ele>726.0</ele><time>2026-04-25T10:23:32.903Z</time></trkpt><trkpt lat="41.8892459" lon="1.586851"><ele>726.0</ele><time>2026-04-25T10:23:33.902Z</time></trkpt><trkpt lat="41.8892039" lon="1.5870145"><ele>722.5</ele><time>2026-04-25T10:23:34.902Z</time></trkpt><trkpt lat="41.8891366" lon="1.5871496"><ele>719.0</ele><time>2026-04-25T10:23:35.901Z</time></trkpt><trkpt lat="41.8890366" lon="1.5872795"><ele>715.5</ele><time>2026-04-25T10:23:36.903Z</time></trkpt><trkpt lat="41.8889267" lon="1.5874178"><ele>712.0</ele><time>2026-04-25T10:23:37.902Z</time></trkpt><trkpt lat="41.8888324" lon="1.5875771"><ele>712.0</ele><time>2026-04-25T10:23:38.901Z</time></trkpt><trkpt lat="41.888764" lon="1.5877728"><ele>712.0</ele><time>2026-04-25T10:23:39.903Z</time></trkpt><trkpt lat="41.8887213" lon="1.5880068"><ele>712.0</ele><time>2026-04-25T10:23:40.902Z</time></trkpt><trkpt lat="41.8886867" lon="1.5882689"><ele>713.6666666666667</ele><time>2026-04-25T10:23:41.902Z</time></trkpt><trkpt lat="41.8886479" lon="1.5885494"><ele>715.3333333333334</ele><time>2026-04-25T10:23:42.901Z</time></trkpt><trkpt lat="41.8886111" lon="1.5888272"><ele>717.0</ele><time>2026-04-25T10:23:43.903Z</time></trkpt><trkpt lat="41.8885788" lon="1.5890731"><ele>717.3333333333334</ele><time>2026-04-25T10:23:44.903Z</time></trkpt><trkpt lat="41.8885529" lon="1.5892884"><ele>717.6666666666667</ele><time>2026-04-25T10:23:45.902Z</time></trkpt><trkpt lat="41.888554" lon="1.589496"><ele>718.0</ele><time>2026-04-25T10:23:46.901Z</time></trkpt><trkpt lat="41.888598" lon="1.5896822"><ele>715.6666666666667</ele><time>2026-04-25T10:23:47.901Z</time></trkpt><trkpt lat="41.8886776" lon="1.589882"><ele>713.3333333333334</ele><time>2026-04-25T10:23:48.903Z</time></trkpt><trkpt lat="41.8887779" lon="1.5900926"><ele>711.0</ele><time>2026-04-25T10:23:49.903Z</time></trkpt><trkpt lat="41.8888832" lon="1.5903134"><ele>709.6666666666666</ele><time>2026-04-25T10:23:50.902Z</time></trkpt><trkpt lat="41.8889882" lon="1.5905373"><ele>708.3333333333333</ele><time>2026-04-25T10:23:51.902Z</time></trkpt><trkpt lat="41.8890891" lon="1.5907526"><ele>707.0</ele><time>2026-04-25T10:23:52.903Z</time></trkpt><trkpt lat="41.8891829" lon="1.5909522"><ele>707.0</ele><time>2026-04-25T10:23:53.902Z</time></trkpt><trkpt lat="41.8892502" lon="1.5911558"><ele>707.0</ele><time>2026-04-25T10:23:54.902Z</time></trkpt><trkpt lat="41.8892841" lon="1.5913781"><ele>707.0</ele><time>2026-04-25T10:23:55.903Z</time></trkpt><trkpt lat="41.8892814" lon="1.5916063"><ele>706.6666666666666</ele><time>2026-04-25T10:23:56.901Z</time></trkpt><trkpt lat="41.8892366" lon="1.5918232"><ele>706.3333333333334</ele><time>2026-04-25T10:23:57.902Z</time></trkpt><trkpt lat="41.8891502" lon="1.5920195"><ele>706.0</ele><time>2026-04-25T10:23:58.903Z</time></trkpt><trkpt lat="41.8890239" lon="1.5921805"><ele>706.0</ele><time>2026-04-25T10:23:59.903Z</time></trkpt><trkpt lat="41.8888712" lon="1.5923314"><ele>706.0</ele><time>2026-04-25T10:24:00.901Z</time></trkpt><trkpt lat="41.8885896" lon="1.5926357"><ele>706.0</ele><time>2026-04-25T10:24:02.901Z</time></trkpt><trkpt lat="41.8884707" lon="1.5927905"><ele>706.0</ele><time>2026-04-25T10:24:03.901Z</time></trkpt><trkpt lat="41.8883671" lon="1.5929591"><ele>706.0</ele><time>2026-04-25T10:24:04.901Z</time></trkpt><trkpt lat="41.8882853" lon="1.5931193"><ele>705.75</ele><time>2026-04-25T10:24:05.901Z</time></trkpt><trkpt lat="41.8882342" lon="1.5932727"><ele>705.5</ele><time>2026-04-25T10:24:06.902Z</time></trkpt><trkpt lat="41.8882163" lon="1.5934318"><ele>705.25</ele><time>2026-04-25T10:24:07.901Z</time></trkpt><trkpt lat="41.8882382" lon="1.5936053"><ele>705.0</ele><time>2026-04-25T10:24:08.901Z</time></trkpt><trkpt lat="41.8883036" lon="1.5937886"><ele>704.0</ele><time>2026-04-25T10:24:09.901Z</time></trkpt><trkpt lat="41.8883999" lon="1.5939933"><ele>703.0</ele><time>2026-04-25T10:24:10.901Z</time></trkpt><trkpt lat="41.8885125" lon="1.5942177"><ele>702.0</ele><time>2026-04-25T10:24:11.901Z</time></trkpt><trkpt lat="41.8886168" lon="1.5944471"><ele>702.3333333333334</ele><time>2026-04-25T10:24:12.902Z</time></trkpt><trkpt lat="41.8887198" lon="1.594676"><ele>702.6666666666667</ele><time>2026-04-25T10:24:13.902Z</time></trkpt><trkpt lat="41.8888257" lon="1.5948963"><ele>703.0</ele><time>2026-04-25T10:24:14.902Z</time></trkpt><trkpt lat="41.8889461" lon="1.5950813"><ele>703.0</ele><time>2026-04-25T10:24:15.901Z</time></trkpt><trkpt lat="41.8890934" lon="1.5952391"><ele>703.0</ele><time>2026-04-25T10:24:16.901Z</time></trkpt><trkpt lat="41.8892664" lon="1.5953803"><ele>703.0</ele><time>2026-04-25T10:24:17.901Z</time></trkpt><trkpt lat="41.8894429" lon="1.5955238"><ele>702.6666666666667</ele><time>2026-04-25T10:24:18.902Z</time></trkpt><trkpt lat="41.8896056" lon="1.5956808"><ele>702.3333333333334</ele><time>2026-04-25T10:24:19.9Z</time></trkpt><trkpt lat="41.8897442" lon="1.5958632"><ele>702.0</ele><time>2026-04-25T10:24:20.901Z</time></trkpt><trkpt lat="41.8898695" lon="1.5960698"><ele>700.6666666666666</ele><time>2026-04-25T10:24:21.901Z</time></trkpt><trkpt lat="41.8899886" lon="1.5962866"><ele>699.3333333333333</ele><time>2026-04-25T10:24:22.901Z</time></trkpt><trkpt lat="41.8901007" lon="1.5964841"><ele>698.0</ele><time>2026-04-25T10:24:23.901Z</time></trkpt><trkpt lat="41.8901937" lon="1.5966585"><ele>698.0</ele><time>2026-04-25T10:24:24.902Z</time></trkpt><trkpt lat="41.8902643" lon="1.5968422"><ele>698.0</ele><time>2026-04-25T10:24:25.902Z</time></trkpt><trkpt lat="41.8902884" lon="1.5970395"><ele>698.0</ele><time>2026-04-25T10:24:26.901Z</time></trkpt><trkpt lat="41.8902658" lon="1.5972305"><ele>698.0</ele><time>2026-04-25T10:24:27.902Z</time></trkpt><trkpt lat="41.8901992" lon="1.5974049"><ele>693.3333333333333</ele><time>2026-04-25T10:24:28.901Z</time></trkpt><trkpt lat="41.890091" lon="1.5975428"><ele>688.6666666666666</ele><time>2026-04-25T10:24:29.9Z</time></trkpt><trkpt lat="41.8899554" lon="1.5976294"><ele>684.0</ele><time>2026-04-25T10:24:30.901Z</time></trkpt><trkpt lat="41.8897967" lon="1.5976671"><ele>684.0</ele><time>2026-04-25T10:24:31.901Z</time></trkpt><trkpt lat="41.8896259" lon="1.5976734"><ele>684.0</ele><time>2026-04-25T10:24:32.901Z</time></trkpt><trkpt lat="41.8894426" lon="1.597684"><ele>684.0</ele><time>2026-04-25T10:24:33.901Z</time></trkpt><trkpt lat="41.8892469" lon="1.5976992"><ele>683.6666666666666</ele><time>2026-04-25T10:24:34.902Z</time></trkpt><trkpt lat="41.8890492" lon="1.5977147"><ele>683.3333333333333</ele><time>2026-04-25T10:24:35.902Z</time></trkpt><trkpt lat="41.8888591" lon="1.5977275"><ele>683.0</ele><time>2026-04-25T10:24:36.902Z</time></trkpt><trkpt lat="41.8886733" lon="1.5977242"><ele>683.0</ele><time>2026-04-25T10:24:37.901Z</time></trkpt><trkpt lat="41.8884941" lon="1.5976888"><ele>683.0</ele><time>2026-04-25T10:24:38.902Z</time></trkpt><trkpt lat="41.8883212" lon="1.5976112"><ele>683.0</ele><time>2026-04-25T10:24:39.9Z</time></trkpt><trkpt lat="41.8881578" lon="1.597514"><ele>682.3333333333333</ele><time>2026-04-25T10:24:40.901Z</time></trkpt><trkpt lat="41.8880059" lon="1.5974157"><ele>681.6666666666666</ele><time>2026-04-25T10:24:41.901Z</time></trkpt><trkpt lat="41.8878614" lon="1.5973471"><ele>681.0</ele><time>2026-04-25T10:24:42.901Z</time></trkpt><trkpt lat="41.8877138" lon="1.5973133"><ele>679.0</ele><time>2026-04-25T10:24:43.9Z</time></trkpt><trkpt lat="41.8875548" lon="1.5973066"><ele>677.0</ele><time>2026-04-25T10:24:44.9Z</time></trkpt><trkpt lat="41.8873962" lon="1.5973305"><ele>675.0</ele><time>2026-04-25T10:24:45.901Z</time></trkpt><trkpt lat="41.887256" lon="1.5973791"><ele>675.0</ele><time>2026-04-25T10:24:46.901Z</time></trkpt><trkpt lat="41.8871275" lon="1.597451"><ele>675.0</ele><time>2026-04-25T10:24:47.902Z</time></trkpt><trkpt lat="41.8870096" lon="1.5975577"><ele>675.0</ele><time>2026-04-25T10:24:48.901Z</time></trkpt><trkpt lat="41.886908" lon="1.5976863"><ele>675.0</ele><time>2026-04-25T10:24:49.901Z</time></trkpt><trkpt lat="41.88683" lon="1.5978532"><ele>677.0</ele><time>2026-04-25T10:24:50.901Z</time></trkpt><trkpt lat="41.8867819" lon="1.5980589"><ele>679.0</ele><time>2026-04-25T10:24:51.901Z</time></trkpt><trkpt lat="41.8867596" lon="1.5983019"><ele>681.0</ele><time>2026-04-25T10:24:52.901Z</time></trkpt><trkpt lat="41.8867459" lon="1.5985687"><ele>670.0</ele><time>2026-04-25T10:24:53.901Z</time></trkpt><trkpt lat="41.8867266" lon="1.5988678"><ele>659.0</ele><time>2026-04-25T10:24:54.901Z</time></trkpt><trkpt lat="41.8867069" lon="1.5991923"><ele>655.0</ele><time>2026-04-25T10:24:55.901Z</time></trkpt><trkpt lat="41.8866863" lon="1.599531"><ele>651.0</ele><time>2026-04-25T10:24:56.902Z</time></trkpt><trkpt lat="41.8866651" lon="1.5998788"><ele>651.0</ele><time>2026-04-25T10:24:57.901Z</time></trkpt><trkpt lat="41.8866545" lon="1.6002305"><ele>651.0</ele><time>2026-04-25T10:24:58.901Z</time></trkpt><trkpt lat="41.8866682" lon="1.600582"><ele>649.5</ele><time>2026-04-25T10:24:59.901Z</time></trkpt><trkpt lat="41.8867058" lon="1.6009496"><ele>648.0</ele><time>2026-04-25T10:25:00.902Z</time></trkpt><trkpt lat="41.8867592" lon="1.6013247"><ele>648.5</ele><time>2026-04-25T10:25:01.901Z</time></trkpt><trkpt lat="41.8868208" lon="1.6017073"><ele>649.0</ele><time>2026-04-25T10:25:02.902Z</time></trkpt><trkpt lat="41.886888" lon="1.602118"><ele>648.0</ele><time>2026-04-25T10:25:03.902Z</time></trkpt><trkpt lat="41.8869587" lon="1.6025441"><ele>647.0</ele><time>2026-04-25T10:25:04.901Z</time></trkpt><trkpt lat="41.8870326" lon="1.6029838"><ele>645.0</ele><time>2026-04-25T10:25:05.902Z</time></trkpt><trkpt lat="41.887109" lon="1.603429"><ele>643.0</ele><time>2026-04-25T10:25:06.9Z</time></trkpt><trkpt lat="41.8871847" lon="1.6038854"><ele>641.5</ele><time>2026-04-25T10:25:07.901Z</time></trkpt><trkpt lat="41.88726" lon="1.6043534"><ele>640.0</ele><time>2026-04-25T10:25:08.902Z</time></trkpt><trkpt lat="41.8873382" lon="1.6048261"><ele>639.5</ele><time>2026-04-25T10:25:09.901Z</time></trkpt><trkpt lat="41.8874151" lon="1.6052965"><ele>639.0</ele><time>2026-04-25T10:25:10.9Z</time></trkpt><trkpt lat="41.887489" lon="1.6057528"><ele>639.5</ele><time>2026-04-25T10:25:11.9Z</time></trkpt><trkpt lat="41.8875589" lon="1.6061973"><ele>640.0</ele><time>2026-04-25T10:25:12.901Z</time></trkpt><trkpt lat="41.8876321" lon="1.6066357"><ele>639.5</ele><time>2026-04-25T10:25:13.901Z</time></trkpt><trkpt lat="41.8877065" lon="1.6070706"><ele>639.0</ele><time>2026-04-25T10:25:14.902Z</time></trkpt><trkpt lat="41.8877775" lon="1.6075066"><ele>638.5</ele><time>2026-04-25T10:25:15.901Z</time></trkpt><trkpt lat="41.8878487" lon="1.6079455"><ele>638.0</ele><time>2026-04-25T10:25:16.902Z</time></trkpt><trkpt lat="41.8879192" lon="1.6083685"><ele>638.0</ele><time>2026-04-25T10:25:17.902Z</time></trkpt><trkpt lat="41.8879889" lon="1.6087791"><ele>638.0</ele><time>2026-04-25T10:25:18.901Z</time></trkpt><trkpt lat="41.8880548" lon="1.6091744"><ele>638.0</ele><time>2026-04-25T10:25:19.901Z</time></trkpt><trkpt lat="41.8881202" lon="1.6095743"><ele>638.0</ele><time>2026-04-25T10:25:20.902Z</time></trkpt><trkpt lat="41.8881837" lon="1.609963"><ele>638.0</ele><time>2026-04-25T10:25:21.901Z</time></trkpt><trkpt lat="41.8882443" lon="1.6103322"><ele>638.0</ele><time>2026-04-25T10:25:22.901Z</time></trkpt><trkpt lat="41.8883025" lon="1.6106931"><ele>638.0</ele><time>2026-04-25T10:25:23.901Z</time></trkpt><trkpt lat="41.8883585" lon="1.6110332"><ele>638.0</ele><time>2026-04-25T10:25:24.9Z</time></trkpt><trkpt lat="41.8884136" lon="1.6113532"><ele>638.3333333333333</ele><time>2026-04-25T10:25:25.902Z</time></trkpt><trkpt lat="41.8884644" lon="1.6116556"><ele>638.6666666666666</ele><time>2026-04-25T10:25:26.901Z</time></trkpt><trkpt lat="41.8885102" lon="1.6119321"><ele>639.0</ele><time>2026-04-25T10:25:27.901Z</time></trkpt><trkpt lat="41.8885497" lon="1.6121808"><ele>639.6666666666666</ele><time>2026-04-25T10:25:28.902Z</time></trkpt><trkpt lat="41.8885797" lon="1.6124053"><ele>640.3333333333333</ele><time>2026-04-25T10:25:29.9Z</time></trkpt><trkpt lat="41.8885923" lon="1.6126004"><ele>641.0</ele><time>2026-04-25T10:25:30.901Z</time></trkpt><trkpt lat="41.8885861" lon="1.612789"><ele>642.0</ele><time>2026-04-25T10:25:31.901Z</time></trkpt><trkpt lat="41.8885459" lon="1.6129718"><ele>643.0</ele><time>2026-04-25T10:25:32.901Z</time></trkpt><trkpt lat="41.8884699" lon="1.6131471"><ele>644.0</ele><time>2026-04-25T10:25:33.901Z</time></trkpt><trkpt lat="41.8883672" lon="1.6133197"><ele>645.0</ele><time>2026-04-25T10:25:34.901Z</time></trkpt><trkpt lat="41.8882522" lon="1.6135031"><ele>646.0</ele><time>2026-04-25T10:25:35.902Z</time></trkpt><trkpt lat="41.8881274" lon="1.6136958"><ele>647.0</ele><time>2026-04-25T10:25:36.9Z</time></trkpt><trkpt lat="41.8879987" lon="1.6139007"><ele>647.0</ele><time>2026-04-25T10:25:37.901Z</time></trkpt><trkpt lat="41.8878693" lon="1.6141103"><ele>647.0</ele><time>2026-04-25T10:25:38.9Z</time></trkpt><trkpt lat="41.8877408" lon="1.6143214"><ele>647.0</ele><time>2026-04-25T10:25:39.901Z</time></trkpt><trkpt lat="41.8876169" lon="1.6145259"><ele>648.6666666666666</ele><time>2026-04-25T10:25:40.902Z</time></trkpt><trkpt lat="41.887505" lon="1.6147391"><ele>650.3333333333334</ele><time>2026-04-25T10:25:41.901Z</time></trkpt><trkpt lat="41.8874182" lon="1.6149861"><ele>652.0</ele><time>2026-04-25T10:25:42.9Z</time></trkpt><trkpt lat="41.8873506" lon="1.615252"><ele>653.6666666666667</ele><time>2026-04-25T10:25:43.902Z</time></trkpt><trkpt lat="41.8872916" lon="1.6155269"><ele>655.3333333333334</ele><time>2026-04-25T10:25:44.9Z</time></trkpt><trkpt lat="41.8872402" lon="1.6157934"><ele>657.0</ele><time>2026-04-25T10:25:45.901Z</time></trkpt><trkpt lat="41.8871963" lon="1.6160383"><ele>658.0</ele><time>2026-04-25T10:25:46.901Z</time></trkpt><trkpt lat="41.8871595" lon="1.6162657"><ele>659.0</ele><time>2026-04-25T10:25:47.901Z</time></trkpt><trkpt lat="41.8871451" lon="1.6164983"><ele>660.0</ele><time>2026-04-25T10:25:48.9Z</time></trkpt><trkpt lat="41.8871706" lon="1.6167375"><ele>660.0</ele><time>2026-04-25T10:25:49.901Z</time></trkpt><trkpt lat="41.8872237" lon="1.6169837"><ele>660.0</ele><time>2026-04-25T10:25:50.902Z</time></trkpt><trkpt lat="41.8872933" lon="1.6172521"><ele>660.0</ele><time>2026-04-25T10:25:51.902Z</time></trkpt><trkpt lat="41.8873736" lon="1.6175406"><ele>664.5</ele><time>2026-04-25T10:25:52.901Z</time></trkpt><trkpt lat="41.8874584" lon="1.61784"><ele>669.0</ele><time>2026-04-25T10:25:53.901Z</time></trkpt><trkpt lat="41.8875478" lon="1.6181486"><ele>669.0</ele><time>2026-04-25T10:25:54.9Z</time></trkpt><trkpt lat="41.8876424" lon="1.6184786"><ele>669.0</ele><time>2026-04-25T10:25:55.901Z</time></trkpt><trkpt lat="41.8877404" lon="1.6188131"><ele>673.5</ele><time>2026-04-25T10:25:56.9Z</time></trkpt><trkpt lat="41.8878381" lon="1.619139"><ele>678.0</ele><time>2026-04-25T10:25:57.901Z</time></trkpt><trkpt lat="41.887931" lon="1.6194561"><ele>682.0</ele><time>2026-04-25T10:25:58.901Z</time></trkpt><trkpt lat="41.8880195" lon="1.6197587"><ele>686.0</ele><time>2026-04-25T10:25:59.901Z</time></trkpt><trkpt lat="41.8880965" lon="1.6200374"><ele>686.0</ele><time>2026-04-25T10:26:00.902Z</time></trkpt><trkpt lat="41.8881556" lon="1.6203091"><ele>686.0</ele><time>2026-04-25T10:26:01.902Z</time></trkpt><trkpt lat="41.8881988" lon="1.6205908"><ele>686.0</ele><time>2026-04-25T10:26:02.901Z</time></trkpt><trkpt lat="41.8882258" lon="1.6208722"><ele>686.3333333333333</ele><time>2026-04-25T10:26:03.901Z</time></trkpt><trkpt lat="41.8882434" lon="1.6211401"><ele>686.6666666666666</ele><time>2026-04-25T10:26:04.902Z</time></trkpt><trkpt lat="41.8882625" lon="1.6213893"><ele>687.0</ele><time>2026-04-25T10:26:05.901Z</time></trkpt><trkpt lat="41.8882914" lon="1.6216166"><ele>687.3333333333334</ele><time>2026-04-25T10:26:06.902Z</time></trkpt><trkpt lat="41.8883519" lon="1.6218503"><ele>687.6666666666667</ele><time>2026-04-25T10:26:07.901Z</time></trkpt><trkpt lat="41.8884355" lon="1.6220994"><ele>688.0</ele><time>2026-04-25T10:26:08.902Z</time></trkpt><trkpt lat="41.8885246" lon="1.6223649"><ele>688.0</ele><time>2026-04-25T10:26:09.901Z</time></trkpt><trkpt lat="41.8886116" lon="1.6226356"><ele>688.0</ele><time>2026-04-25T10:26:10.901Z</time></trkpt><trkpt lat="41.8886966" lon="1.6229035"><ele>688.0</ele><time>2026-04-25T10:26:11.901Z</time></trkpt><trkpt lat="41.8887896" lon="1.6231667"><ele>688.0</ele><time>2026-04-25T10:26:12.902Z</time></trkpt><trkpt lat="41.8889021" lon="1.6234189"><ele>688.0</ele><time>2026-04-25T10:26:13.901Z</time></trkpt><trkpt lat="41.8890243" lon="1.6236641"><ele>688.0</ele><time>2026-04-25T10:26:14.901Z</time></trkpt><trkpt lat="41.8891402" lon="1.6238908"><ele>686.0</ele><time>2026-04-25T10:26:15.901Z</time></trkpt><trkpt lat="41.8892435" lon="1.6240922"><ele>684.0</ele><time>2026-04-25T10:26:16.901Z</time></trkpt><trkpt lat="41.8893317" lon="1.6242905"><ele>682.0</ele><time>2026-04-25T10:26:17.902Z</time></trkpt><trkpt lat="41.8893854" lon="1.6245036"><ele>682.0</ele><time>2026-04-25T10:26:18.902Z</time></trkpt><trkpt lat="41.8894087" lon="1.6247091"><ele>682.0</ele><time>2026-04-25T10:26:19.901Z</time></trkpt><trkpt lat="41.8894167" lon="1.6248809"><ele>682.0</ele><time>2026-04-25T10:26:20.902Z</time></trkpt><trkpt lat="41.8894422" lon="1.6250294"><ele>682.0</ele><time>2026-04-25T10:26:21.902Z</time></trkpt><trkpt lat="41.8895208" lon="1.6251555"><ele>682.0</ele><time>2026-04-25T10:26:22.9Z</time></trkpt><trkpt lat="41.8896446" lon="1.625253"><ele>682.0</ele><time>2026-04-25T10:26:23.901Z</time></trkpt><trkpt lat="41.8897912" lon="1.6253464"><ele>682.0</ele><time>2026-04-25T10:26:24.901Z</time></trkpt><trkpt lat="41.8899535" lon="1.6254625"><ele>680.6666666666667</ele><time>2026-04-25T10:26:25.9Z</time></trkpt><trkpt lat="41.8901044" lon="1.6256107"><ele>679.3333333333334</ele><time>2026-04-25T10:26:26.901Z</time></trkpt><trkpt lat="41.8902602" lon="1.6257854"><ele>678.0</ele><time>2026-04-25T10:26:27.9Z</time></trkpt><trkpt lat="41.8904182" lon="1.6259731"><ele>673.3333333333334</ele><time>2026-04-25T10:26:28.901Z</time></trkpt><trkpt lat="41.890579" lon="1.6261705"><ele>668.6666666666667</ele><time>2026-04-25T10:26:29.9Z</time></trkpt><trkpt lat="41.8907298" lon="1.6263863"><ele>664.0</ele><time>2026-04-25T10:26:30.9Z</time></trkpt><trkpt lat="41.8908714" lon="1.6266135"><ele>665.6666666666667</ele><time>2026-04-25T10:26:31.901Z</time></trkpt><trkpt lat="41.8910073" lon="1.6268378"><ele>667.3333333333334</ele><time>2026-04-25T10:26:32.901Z</time></trkpt><trkpt lat="41.891133" lon="1.6270618"><ele>669.0</ele><time>2026-04-25T10:26:33.902Z</time></trkpt><trkpt lat="41.8912445" lon="1.6272978"><ele>669.0</ele><time>2026-04-25T10:26:34.902Z</time></trkpt><trkpt lat="41.8913478" lon="1.6275218"><ele>669.0</ele><time>2026-04-25T10:26:35.901Z</time></trkpt><trkpt lat="41.8914536" lon="1.6277141"><ele>669.0</ele><time>2026-04-25T10:26:36.901Z</time></trkpt><trkpt lat="41.89156" lon="1.6278933"><ele>665.0</ele><time>2026-04-25T10:26:37.901Z</time></trkpt><trkpt lat="41.8916441" lon="1.6280894"><ele>661.0</ele><time>2026-04-25T10:26:38.902Z</time></trkpt><trkpt lat="41.8916989" lon="1.6283088"><ele>657.0</ele><time>2026-04-25T10:26:39.902Z</time></trkpt><trkpt lat="41.8917322" lon="1.6285191"><ele>658.3333333333334</ele><time>2026-04-25T10:26:40.901Z</time></trkpt><trkpt lat="41.891767" lon="1.6287093"><ele>659.6666666666667</ele><time>2026-04-25T10:26:41.901Z</time></trkpt><trkpt lat="41.8918323" lon="1.6288925"><ele>661.0</ele><time>2026-04-25T10:26:42.9Z</time></trkpt><trkpt lat="41.8919368" lon="1.6290616"><ele>661.0</ele><time>2026-04-25T10:26:43.902Z</time></trkpt><trkpt lat="41.8920723" lon="1.6292281"><ele>661.0</ele><time>2026-04-25T10:26:44.901Z</time></trkpt><trkpt lat="41.8922299" lon="1.6294027"><ele>661.0</ele><time>2026-04-25T10:26:45.902Z</time></trkpt><trkpt lat="41.892387" lon="1.629585"><ele>661.0</ele><time>2026-04-25T10:26:46.901Z</time></trkpt><trkpt lat="41.8925371" lon="1.6297539"><ele>661.0</ele><time>2026-04-25T10:26:47.9Z</time></trkpt><trkpt lat="41.8926715" lon="1.6299309"><ele>661.0</ele><time>2026-04-25T10:26:48.901Z</time></trkpt><trkpt lat="41.8927861" lon="1.6301409"><ele>657.0</ele><time>2026-04-25T10:26:49.901Z</time></trkpt><trkpt lat="41.8928771" lon="1.6303778"><ele>653.0</ele><time>2026-04-25T10:26:50.902Z</time></trkpt><trkpt lat="41.8929521" lon="1.630621"><ele>649.0</ele><time>2026-04-25T10:26:51.9Z</time></trkpt><trkpt lat="41.8930212" lon="1.6308625"><ele>649.0</ele><time>2026-04-25T10:26:52.901Z</time></trkpt><trkpt lat="41.8930888" lon="1.6310761"><ele>649.0</ele><time>2026-04-25T10:26:53.901Z</time></trkpt><trkpt lat="41.8931684" lon="1.6312652"><ele>649.0</ele><time>2026-04-25T10:26:54.902Z</time></trkpt><trkpt lat="41.8932768" lon="1.6314312"><ele>650.6666666666667</ele><time>2026-04-25T10:26:55.901Z</time></trkpt><trkpt lat="41.8934128" lon="1.6315675"><ele>652.3333333333334</ele><time>2026-04-25T10:26:56.901Z</time></trkpt><trkpt lat="41.8935413" lon="1.6317003"><ele>654.0</ele><time>2026-04-25T10:26:57.902Z</time></trkpt><trkpt lat="41.8936302" lon="1.6318721"><ele>650.0</ele><time>2026-04-25T10:26:58.901Z</time></trkpt><trkpt lat="41.8936753" lon="1.6320798"><ele>646.0</ele><time>2026-04-25T10:26:59.901Z</time></trkpt><trkpt lat="41.8936998" lon="1.6322992"><ele>642.0</ele><time>2026-04-25T10:27:00.901Z</time></trkpt><trkpt lat="41.8937272" lon="1.6325071"><ele>642.0</ele><time>2026-04-25T10:27:01.901Z</time></trkpt><trkpt lat="41.8937586" lon="1.6326827"><ele>642.0</ele><time>2026-04-25T10:27:02.901Z</time></trkpt><trkpt lat="41.8938136" lon="1.6328463"><ele>642.0</ele><time>2026-04-25T10:27:03.901Z</time></trkpt><trkpt lat="41.8939087" lon="1.6329912"><ele>642.0</ele><time>2026-04-25T10:27:04.901Z</time></trkpt><trkpt lat="41.8940385" lon="1.6331213"><ele>641.3333333333334</ele><time>2026-04-25T10:27:05.902Z</time></trkpt><trkpt lat="41.8941921" lon="1.6332454"><ele>640.6666666666667</ele><time>2026-04-25T10:27:06.901Z</time></trkpt><trkpt lat="41.894349" lon="1.6334006"><ele>640.0</ele><time>2026-04-25T10:27:07.901Z</time></trkpt><trkpt lat="41.8944936" lon="1.6335774"><ele>635.3333333333334</ele><time>2026-04-25T10:27:08.902Z</time></trkpt><trkpt lat="41.8946449" lon="1.6337308"><ele>630.6666666666666</ele><time>2026-04-25T10:27:09.901Z</time></trkpt><trkpt lat="41.8948034" lon="1.6338529"><ele>626.0</ele><time>2026-04-25T10:27:10.902Z</time></trkpt><trkpt lat="41.8949612" lon="1.6339389"><ele>629.75</ele><time>2026-04-25T10:27:11.9Z</time></trkpt><trkpt lat="41.895112" lon="1.6339893"><ele>633.5</ele><time>2026-04-25T10:27:12.901Z</time></trkpt><trkpt lat="41.8952524" lon="1.6340297"><ele>637.25</ele><time>2026-04-25T10:27:13.9Z</time></trkpt><trkpt lat="41.895375" lon="1.6341228"><ele>641.0</ele><time>2026-04-25T10:27:14.901Z</time></trkpt><trkpt lat="41.8954902" lon="1.6342696"><ele>641.0</ele><time>2026-04-25T10:27:15.9Z</time></trkpt><trkpt lat="41.8955857" lon="1.6344635"><ele>641.0</ele><time>2026-04-25T10:27:16.901Z</time></trkpt><trkpt lat="41.8956725" lon="1.6346782"><ele>641.0</ele><time>2026-04-25T10:27:17.901Z</time></trkpt><trkpt lat="41.8957642" lon="1.6349192"><ele>642.3333333333333</ele><time>2026-04-25T10:27:18.9Z</time></trkpt><trkpt lat="41.8958544" lon="1.635168"><ele>643.6666666666666</ele><time>2026-04-25T10:27:19.901Z</time></trkpt><trkpt lat="41.8959335" lon="1.6354071"><ele>645.0</ele><time>2026-04-25T10:27:20.902Z</time></trkpt><trkpt lat="41.8959956" lon="1.6356583"><ele>645.0</ele><time>2026-04-25T10:27:21.902Z</time></trkpt><trkpt lat="41.8960357" lon="1.6359212"><ele>645.0</ele><time>2026-04-25T10:27:22.901Z</time></trkpt><trkpt lat="41.8960617" lon="1.636176"><ele>645.0</ele><time>2026-04-25T10:27:23.9Z</time></trkpt><trkpt lat="41.8960839" lon="1.6364143"><ele>641.0</ele><time>2026-04-25T10:27:24.902Z</time></trkpt><trkpt lat="41.8961111" lon="1.6366296"><ele>637.0</ele><time>2026-04-25T10:27:25.901Z</time></trkpt><trkpt lat="41.8961584" lon="1.6368404"><ele>633.0</ele><time>2026-04-25T10:27:26.901Z</time></trkpt><trkpt lat="41.8962417" lon="1.6370524"><ele>628.6666666666666</ele><time>2026-04-25T10:27:27.901Z</time></trkpt><trkpt lat="41.8963536" lon="1.6372707"><ele>624.3333333333333</ele><time>2026-04-25T10:27:28.902Z</time></trkpt><trkpt lat="41.8964944" lon="1.6374958"><ele>620.0</ele><time>2026-04-25T10:27:29.901Z</time></trkpt><trkpt lat="41.8966581" lon="1.6377207"><ele>617.5</ele><time>2026-04-25T10:27:30.9Z</time></trkpt><trkpt lat="41.8968342" lon="1.6379438"><ele>615.0</ele><time>2026-04-25T10:27:31.901Z</time></trkpt><trkpt lat="41.8970105" lon="1.6381685"><ele>615.0</ele><time>2026-04-25T10:27:32.901Z</time></trkpt><trkpt lat="41.8971858" lon="1.6383833"><ele>615.0</ele><time>2026-04-25T10:27:33.899Z</time></trkpt><trkpt lat="41.897361" lon="1.638587"><ele>612.5</ele><time>2026-04-25T10:27:34.9Z</time></trkpt><trkpt lat="41.8975483" lon="1.6387729"><ele>610.0</ele><time>2026-04-25T10:27:35.901Z</time></trkpt><trkpt lat="41.8977434" lon="1.6389455"><ele>610.0</ele><time>2026-04-25T10:27:36.9Z</time></trkpt><trkpt lat="41.8979359" lon="1.6391116"><ele>610.0</ele><time>2026-04-25T10:27:37.901Z</time></trkpt><trkpt lat="41.8981258" lon="1.6392642"><ele>610.0</ele><time>2026-04-25T10:27:38.9Z</time></trkpt><trkpt lat="41.8982997" lon="1.6394262"><ele>610.0</ele><time>2026-04-25T10:27:39.901Z</time></trkpt><trkpt lat="41.8984527" lon="1.6396168"><ele>610.0</ele><time>2026-04-25T10:27:40.9Z</time></trkpt><trkpt lat="41.8985843" lon="1.6398517"><ele>611.0</ele><time>2026-04-25T10:27:41.9Z</time></trkpt><trkpt lat="41.8986937" lon="1.6401243"><ele>612.0</ele><time>2026-04-25T10:27:42.9Z</time></trkpt><trkpt lat="41.8987924" lon="1.6404243"><ele>609.0</ele><time>2026-04-25T10:27:43.9Z</time></trkpt><trkpt lat="41.8988827" lon="1.6407397"><ele>606.0</ele><time>2026-04-25T10:27:44.9Z</time></trkpt><trkpt lat="41.8989608" lon="1.6410623"><ele>604.0</ele><time>2026-04-25T10:27:45.901Z</time></trkpt><trkpt lat="41.899033" lon="1.6413957"><ele>602.0</ele><time>2026-04-25T10:27:46.901Z</time></trkpt><trkpt lat="41.8991021" lon="1.6417301"><ele>601.0</ele><time>2026-04-25T10:27:47.9Z</time></trkpt><trkpt lat="41.8991711" lon="1.6420502"><ele>600.0</ele><time>2026-04-25T10:27:48.899Z</time></trkpt><trkpt lat="41.8992361" lon="1.6423497"><ele>602.6666666666666</ele><time>2026-04-25T10:27:49.899Z</time></trkpt><trkpt lat="41.8992982" lon="1.6426303"><ele>605.3333333333333</ele><time>2026-04-25T10:27:50.901Z</time></trkpt><trkpt lat="41.8993771" lon="1.6429074"><ele>608.0</ele><time>2026-04-25T10:27:51.9Z</time></trkpt><trkpt lat="41.8994902" lon="1.6431861"><ele>608.0</ele><time>2026-04-25T10:27:52.9Z</time></trkpt><trkpt lat="41.8996215" lon="1.643469"><ele>608.0</ele><time>2026-04-25T10:27:53.9Z</time></trkpt><trkpt lat="41.8997559" lon="1.6437563"><ele>605.0</ele><time>2026-04-25T10:27:54.901Z</time></trkpt><trkpt lat="41.8999012" lon="1.6440571"><ele>602.0</ele><time>2026-04-25T10:27:55.899Z</time></trkpt><trkpt lat="41.90005" lon="1.6443609"><ele>602.5</ele><time>2026-04-25T10:27:56.899Z</time></trkpt><trkpt lat="41.9001922" lon="1.644652"><ele>603.0</ele><time>2026-04-25T10:27:57.9Z</time></trkpt><trkpt lat="41.9003333" lon="1.6449297"><ele>603.0</ele><time>2026-04-25T10:27:58.901Z</time></trkpt><trkpt lat="41.9004892" lon="1.6452119"><ele>603.0</ele><time>2026-04-25T10:27:59.9Z</time></trkpt><trkpt lat="41.9006641" lon="1.6454912"><ele>601.5</ele><time>2026-04-25T10:28:00.901Z</time></trkpt><trkpt lat="41.9008569" lon="1.6457639"><ele>600.0</ele><time>2026-04-25T10:28:01.9Z</time></trkpt><trkpt lat="41.9010513" lon="1.6460345"><ele>601.5</ele><time>2026-04-25T10:28:02.9Z</time></trkpt><trkpt lat="41.9012384" lon="1.6463081"><ele>603.0</ele><time>2026-04-25T10:28:03.901Z</time></trkpt><trkpt lat="41.9014091" lon="1.646596"><ele>603.0</ele><time>2026-04-25T10:28:04.901Z</time></trkpt><trkpt lat="41.9015641" lon="1.6468915"><ele>603.0</ele><time>2026-04-25T10:28:05.901Z</time></trkpt><trkpt lat="41.9017114" lon="1.6471727"><ele>606.0</ele><time>2026-04-25T10:28:06.9Z</time></trkpt><trkpt lat="41.9018544" lon="1.6474404"><ele>609.0</ele><time>2026-04-25T10:28:07.899Z</time></trkpt><trkpt lat="41.9019939" lon="1.6477059"><ele>606.5</ele><time>2026-04-25T10:28:08.9Z</time></trkpt><trkpt lat="41.90213" lon="1.6479633"><ele>604.0</ele><time>2026-04-25T10:28:09.901Z</time></trkpt><trkpt lat="41.9022565" lon="1.6482113"><ele>604.0</ele><time>2026-04-25T10:28:10.9Z</time></trkpt><trkpt lat="41.9023702" lon="1.6484577"><ele>604.0</ele><time>2026-04-25T10:28:11.9Z</time></trkpt><trkpt lat="41.9024749" lon="1.6487215"><ele>604.0</ele><time>2026-04-25T10:28:12.9Z</time></trkpt><trkpt lat="41.9025767" lon="1.6490196"><ele>603.0</ele><time>2026-04-25T10:28:13.899Z</time></trkpt><trkpt lat="41.9026854" lon="1.6493441"><ele>602.0</ele><time>2026-04-25T10:28:14.9Z</time></trkpt><trkpt lat="41.902801" lon="1.649694"><ele>599.0</ele><time>2026-04-25T10:28:15.9Z</time></trkpt><trkpt lat="41.9029233" lon="1.6500632"><ele>596.0</ele><time>2026-04-25T10:28:16.9Z</time></trkpt><trkpt lat="41.9030547" lon="1.6504513"><ele>596.0</ele><time>2026-04-25T10:28:17.9Z</time></trkpt><trkpt lat="41.9031876" lon="1.6508496"><ele>596.0</ele><time>2026-04-25T10:28:18.9Z</time></trkpt><trkpt lat="41.9033158" lon="1.651238"><ele>592.0</ele><time>2026-04-25T10:28:19.9Z</time></trkpt><trkpt lat="41.903443" lon="1.651622"><ele>588.0</ele><time>2026-04-25T10:28:20.9Z</time></trkpt><trkpt lat="41.903571" lon="1.6520121"><ele>588.0</ele><time>2026-04-25T10:28:21.9Z</time></trkpt><trkpt lat="41.9037019" lon="1.6524077"><ele>588.0</ele><time>2026-04-25T10:28:22.9Z</time></trkpt><trkpt lat="41.9038291" lon="1.652804"><ele>587.5</ele><time>2026-04-25T10:28:23.9Z</time></trkpt><trkpt lat="41.9039547" lon="1.6531839"><ele>587.0</ele><time>2026-04-25T10:28:24.9Z</time></trkpt><trkpt lat="41.9040752" lon="1.6535412"><ele>588.0</ele><time>2026-04-25T10:28:25.9Z</time></trkpt><trkpt lat="41.9041865" lon="1.6538787"><ele>589.0</ele><time>2026-04-25T10:28:26.9Z</time></trkpt><trkpt lat="41.904288" lon="1.6541965"><ele>583.0</ele><time>2026-04-25T10:28:27.901Z</time></trkpt><trkpt lat="41.9043815" lon="1.654493"><ele>577.0</ele><time>2026-04-25T10:28:28.901Z</time></trkpt><trkpt lat="41.904471" lon="1.654769"><ele>577.0</ele><time>2026-04-25T10:28:29.901Z</time></trkpt><trkpt lat="41.9045572" lon="1.6550274"><ele>577.0</ele><time>2026-04-25T10:28:30.9Z</time></trkpt><trkpt lat="41.9046282" lon="1.6552753"><ele>577.0</ele><time>2026-04-25T10:28:31.901Z</time></trkpt><trkpt lat="41.904688" lon="1.6555258"><ele>578.6666666666667</ele><time>2026-04-25T10:28:32.9Z</time></trkpt><trkpt lat="41.9047408" lon="1.6557882"><ele>580.3333333333334</ele><time>2026-04-25T10:28:33.9Z</time></trkpt><trkpt lat="41.9047922" lon="1.6560642"><ele>582.0</ele><time>2026-04-25T10:28:34.901Z</time></trkpt><trkpt lat="41.9048468" lon="1.6563407"><ele>582.0</ele><time>2026-04-25T10:28:35.9Z</time></trkpt><trkpt lat="41.9049123" lon="1.6566216"><ele>582.0</ele><time>2026-04-25T10:28:36.899Z</time></trkpt><trkpt lat="41.9049993" lon="1.6568997"><ele>582.0</ele><time>2026-04-25T10:28:37.9Z</time></trkpt><trkpt lat="41.9051035" lon="1.6571764"><ele>582.0</ele><time>2026-04-25T10:28:38.9Z</time></trkpt><trkpt lat="41.9052204" lon="1.6574459"><ele>582.0</ele><time>2026-04-25T10:28:39.901Z</time></trkpt><trkpt lat="41.9053424" lon="1.6577139"><ele>584.5</ele><time>2026-04-25T10:28:40.9Z</time></trkpt><trkpt lat="41.9054628" lon="1.6579815"><ele>587.0</ele><time>2026-04-25T10:28:41.9Z</time></trkpt><trkpt lat="41.9055788" lon="1.6582451"><ele>587.0</ele><time>2026-04-25T10:28:42.901Z</time></trkpt><trkpt lat="41.9056959" lon="1.6584993"><ele>587.0</ele><time>2026-04-25T10:28:43.899Z</time></trkpt><trkpt lat="41.9058149" lon="1.6587466"><ele>587.0</ele><time>2026-04-25T10:28:44.901Z</time></trkpt><trkpt lat="41.9059305" lon="1.6589838"><ele>587.0</ele><time>2026-04-25T10:28:45.901Z</time></trkpt><trkpt lat="41.9060366" lon="1.6592092"><ele>587.0</ele><time>2026-04-25T10:28:46.899Z</time></trkpt><trkpt lat="41.9061347" lon="1.6594237"><ele>587.0</ele><time>2026-04-25T10:28:47.9Z</time></trkpt><trkpt lat="41.9062214" lon="1.6596312"><ele>588.0</ele><time>2026-04-25T10:28:48.9Z</time></trkpt><trkpt lat="41.9062849" lon="1.6598447"><ele>589.0</ele><time>2026-04-25T10:28:49.9Z</time></trkpt><trkpt lat="41.9063143" lon="1.6600877"><ele>590.0</ele><time>2026-04-25T10:28:50.901Z</time></trkpt><trkpt lat="41.9063142" lon="1.6603457"><ele>591.3333333333333</ele><time>2026-04-25T10:28:51.9Z</time></trkpt><trkpt lat="41.9063011" lon="1.6606119"><ele>592.6666666666666</ele><time>2026-04-25T10:28:52.9Z</time></trkpt><trkpt lat="41.9062867" lon="1.660896"><ele>594.0</ele><time>2026-04-25T10:28:53.9Z</time></trkpt><trkpt lat="41.9062746" lon="1.6611913"><ele>595.3333333333334</ele><time>2026-04-25T10:28:54.901Z</time></trkpt><trkpt lat="41.9062615" lon="1.6614802"><ele>596.6666666666667</ele><time>2026-04-25T10:28:55.899Z</time></trkpt><trkpt lat="41.9062475" lon="1.6617546"><ele>598.0</ele><time>2026-04-25T10:28:56.899Z</time></trkpt><trkpt lat="41.9062308" lon="1.662015"><ele>598.0</ele><time>2026-04-25T10:28:57.9Z</time></trkpt><trkpt lat="41.9062163" lon="1.6622631"><ele>598.0</ele><time>2026-04-25T10:28:58.901Z</time></trkpt><trkpt lat="41.9062075" lon="1.6624916"><ele>598.0</ele><time>2026-04-25T10:28:59.899Z</time></trkpt><trkpt lat="41.9062196" lon="1.6627101"><ele>596.0</ele><time>2026-04-25T10:29:00.899Z</time></trkpt><trkpt lat="41.9062756" lon="1.662939"><ele>594.0</ele><time>2026-04-25T10:29:01.9Z</time></trkpt><trkpt lat="41.9063722" lon="1.6631621"><ele>592.0</ele><time>2026-04-25T10:29:02.9Z</time></trkpt><trkpt lat="41.9064878" lon="1.6633839"><ele>592.0</ele><time>2026-04-25T10:29:03.9Z</time></trkpt><trkpt lat="41.9066025" lon="1.6635938"><ele>592.0</ele><time>2026-04-25T10:29:04.9Z</time></trkpt><trkpt lat="41.9067034" lon="1.6637896"><ele>592.0</ele><time>2026-04-25T10:29:05.9Z</time></trkpt><trkpt lat="41.9067722" lon="1.6639641"><ele>589.75</ele><time>2026-04-25T10:29:06.9Z</time></trkpt><trkpt lat="41.9068013" lon="1.6641346"><ele>587.5</ele><time>2026-04-25T10:29:07.901Z</time></trkpt><trkpt lat="41.9068005" lon="1.6642977"><ele>585.25</ele><time>2026-04-25T10:29:08.899Z</time></trkpt><trkpt lat="41.9068228" lon="1.6644474"><ele>583.0</ele><time>2026-04-25T10:29:09.9Z</time></trkpt><trkpt lat="41.9068969" lon="1.6645866"><ele>583.0</ele><time>2026-04-25T10:29:10.9Z</time></trkpt><trkpt lat="41.9070011" lon="1.6647135"><ele>583.0</ele><time>2026-04-25T10:29:11.9Z</time></trkpt><trkpt lat="41.9071033" lon="1.6648618"><ele>583.0</ele><time>2026-04-25T10:29:12.9Z</time></trkpt><trkpt lat="41.9071675" lon="1.6650357"><ele>583.0</ele><time>2026-04-25T10:29:13.901Z</time></trkpt><trkpt lat="41.9071993" lon="1.6652205"><ele>586.6666666666667</ele><time>2026-04-25T10:29:14.9Z</time></trkpt><trkpt lat="41.9072467" lon="1.6654098"><ele>590.3333333333334</ele><time>2026-04-25T10:29:15.9Z</time></trkpt><trkpt lat="41.9073365" lon="1.665585"><ele>594.0</ele><time>2026-04-25T10:29:16.9Z</time></trkpt><trkpt lat="41.90746" lon="1.6657161"><ele>590.25</ele><time>2026-04-25T10:29:17.899Z</time></trkpt><trkpt lat="41.9075982" lon="1.6658023"><ele>586.5</ele><time>2026-04-25T10:29:18.9Z</time></trkpt><trkpt lat="41.9077253" lon="1.6658853"><ele>582.75</ele><time>2026-04-25T10:29:19.901Z</time></trkpt><trkpt lat="41.9078303" lon="1.6660185"><ele>579.0</ele><time>2026-04-25T10:29:20.9Z</time></trkpt><trkpt lat="41.9079085" lon="1.6661871"><ele>579.0</ele><time>2026-04-25T10:29:21.9Z</time></trkpt><trkpt lat="41.9079412" lon="1.6663608"><ele>579.0</ele><time>2026-04-25T10:29:22.901Z</time></trkpt><trkpt lat="41.9079338" lon="1.6665484"><ele>579.0</ele><time>2026-04-25T10:29:23.9Z</time></trkpt><trkpt lat="41.9079227" lon="1.666755"><ele>579.0</ele><time>2026-04-25T10:29:24.899Z</time></trkpt><trkpt lat="41.907931" lon="1.666974"><ele>580.6666666666666</ele><time>2026-04-25T10:29:25.899Z</time></trkpt><trkpt lat="41.9079663" lon="1.6671977"><ele>582.3333333333333</ele><time>2026-04-25T10:29:26.901Z</time></trkpt><trkpt lat="41.9080169" lon="1.6674085"><ele>584.0</ele><time>2026-04-25T10:29:27.901Z</time></trkpt><trkpt lat="41.9080606" lon="1.6675975"><ele>584.0</ele><time>2026-04-25T10:29:28.9Z</time></trkpt><trkpt lat="41.9080764" lon="1.667775"><ele>584.0</ele><time>2026-04-25T10:29:29.899Z</time></trkpt><trkpt lat="41.9080569" lon="1.6679503"><ele>584.0</ele><time>2026-04-25T10:29:30.899Z</time></trkpt><trkpt lat="41.9079735" lon="1.6680992"><ele>584.0</ele><time>2026-04-25T10:29:31.899Z</time></trkpt><trkpt lat="41.9079026" lon="1.668253"><ele>584.25</ele><time>2026-04-25T10:29:32.9Z</time></trkpt><trkpt lat="41.9078694" lon="1.6684192"><ele>584.5</ele><time>2026-04-25T10:29:33.9Z</time></trkpt><trkpt lat="41.9078853" lon="1.6686064"><ele>584.75</ele><time>2026-04-25T10:29:34.9Z</time></trkpt><trkpt lat="41.9079337" lon="1.6688062"><ele>585.0</ele><time>2026-04-25T10:29:35.9Z</time></trkpt><trkpt lat="41.9079751" lon="1.6689999"><ele>584.5</ele><time>2026-04-25T10:29:36.899Z</time></trkpt><trkpt lat="41.9080129" lon="1.6691755"><ele>584.0</ele><time>2026-04-25T10:29:37.9Z</time></trkpt><trkpt lat="41.9080767" lon="1.669333"><ele>583.5</ele><time>2026-04-25T10:29:38.9Z</time></trkpt><trkpt lat="41.9081875" lon="1.6694669"><ele>583.0</ele><time>2026-04-25T10:29:39.899Z</time></trkpt><trkpt lat="41.9083272" lon="1.6695985"><ele>580.6666666666667</ele><time>2026-04-25T10:29:40.9Z</time></trkpt><trkpt lat="41.9084741" lon="1.6697395"><ele>578.3333333333334</ele><time>2026-04-25T10:29:41.901Z</time></trkpt><trkpt lat="41.9086183" lon="1.6698812"><ele>576.0</ele><time>2026-04-25T10:29:42.9Z</time></trkpt><trkpt lat="41.9087433" lon="1.6700319"><ele>576.0</ele><time>2026-04-25T10:29:43.9Z</time></trkpt><trkpt lat="41.9088438" lon="1.6701893"><ele>576.0</ele><time>2026-04-25T10:29:44.9Z</time></trkpt><trkpt lat="41.9089265" lon="1.6703398"><ele>576.0</ele><time>2026-04-25T10:29:45.899Z</time></trkpt><trkpt lat="41.9089976" lon="1.6704697"><ele>576.0</ele><time>2026-04-25T10:29:46.9Z</time></trkpt><trkpt lat="41.9090738" lon="1.6705649"><ele>573.5</ele><time>2026-04-25T10:29:47.9Z</time></trkpt><trkpt lat="41.9091853" lon="1.6706182"><ele>571.0</ele><time>2026-04-25T10:29:48.901Z</time></trkpt><trkpt lat="41.9093146" lon="1.6706149"><ele>568.5</ele><time>2026-04-25T10:29:49.9Z</time></trkpt><trkpt lat="41.9094411" lon="1.6706132"><ele>566.0</ele><time>2026-04-25T10:29:50.9Z</time></trkpt><trkpt lat="41.9095542" lon="1.6706719"><ele>564.5</ele><time>2026-04-25T10:29:51.901Z</time></trkpt><trkpt lat="41.9096535" lon="1.6707942"><ele>563.0</ele><time>2026-04-25T10:29:52.9Z</time></trkpt><trkpt lat="41.9097462" lon="1.6709551"><ele>561.5</ele><time>2026-04-25T10:29:53.9Z</time></trkpt><trkpt lat="41.9098399" lon="1.6711313"><ele>560.0</ele><time>2026-04-25T10:29:54.9Z</time></trkpt><trkpt lat="41.9099295" lon="1.6713098"><ele>558.3333333333333</ele><time>2026-04-25T10:29:55.899Z</time></trkpt><trkpt lat="41.9100151" lon="1.6714877"><ele>556.6666666666666</ele><time>2026-04-25T10:29:56.9Z</time></trkpt><trkpt lat="41.9100929" lon="1.6716593"><ele>555.0</ele><time>2026-04-25T10:29:57.9Z</time></trkpt><trkpt lat="41.9101553" lon="1.6718312"><ele>555.25</ele><time>2026-04-25T10:29:58.899Z</time></trkpt><trkpt lat="41.9101797" lon="1.6720172"><ele>555.5</ele><time>2026-04-25T10:29:59.9Z</time></trkpt><trkpt lat="41.9101684" lon="1.6722117"><ele>555.75</ele><time>2026-04-25T10:30:00.9Z</time></trkpt><trkpt lat="41.9101337" lon="1.6724155"><ele>556.0</ele><time>2026-04-25T10:30:01.899Z</time></trkpt><trkpt lat="41.9100957" lon="1.6726312"><ele>557.0</ele><time>2026-04-25T10:30:02.901Z</time></trkpt><trkpt lat="41.9100562" lon="1.6728497"><ele>558.0</ele><time>2026-04-25T10:30:03.9Z</time></trkpt><trkpt lat="41.9099985" lon="1.6730527"><ele>559.0</ele><time>2026-04-25T10:30:04.9Z</time></trkpt><trkpt lat="41.9099162" lon="1.6732486"><ele>559.0</ele><time>2026-04-25T10:30:05.901Z</time></trkpt><trkpt lat="41.909833" lon="1.6734438"><ele>559.0</ele><time>2026-04-25T10:30:06.9Z</time></trkpt><trkpt lat="41.9097627" lon="1.6736337"><ele>559.0</ele><time>2026-04-25T10:30:07.899Z</time></trkpt><trkpt lat="41.9097034" lon="1.673805"><ele>560.5</ele><time>2026-04-25T10:30:08.9Z</time></trkpt><trkpt lat="41.9096181" lon="1.6739395"><ele>562.0</ele><time>2026-04-25T10:30:09.899Z</time></trkpt><trkpt lat="41.9095144" lon="1.6740271"><ele>563.5</ele><time>2026-04-25T10:30:10.9Z</time></trkpt><trkpt lat="41.9093925" lon="1.6740793"><ele>565.0</ele><time>2026-04-25T10:30:11.901Z</time></trkpt><trkpt lat="41.9092785" lon="1.6741663"><ele>561.75</ele><time>2026-04-25T10:30:12.9Z</time></trkpt><trkpt lat="41.9091913" lon="1.6742906"><ele>558.5</ele><time>2026-04-25T10:30:13.9Z</time></trkpt><trkpt lat="41.9091016" lon="1.674399"><ele>555.25</ele><time>2026-04-25T10:30:14.899Z</time></trkpt><trkpt lat="41.9089805" lon="1.674447"><ele>552.0</ele><time>2026-04-25T10:30:15.899Z</time></trkpt><trkpt lat="41.9088485" lon="1.6744591"><ele>552.0</ele><time>2026-04-25T10:30:16.901Z</time></trkpt><trkpt lat="41.9087219" lon="1.6744931"><ele>552.0</ele><time>2026-04-25T10:30:17.899Z</time></trkpt><trkpt lat="41.9086044" lon="1.6745573"><ele>552.0</ele><time>2026-04-25T10:30:18.9Z</time></trkpt><trkpt lat="41.9085004" lon="1.6746702"><ele>552.0</ele><time>2026-04-25T10:30:19.9Z</time></trkpt><trkpt lat="41.9084188" lon="1.6748258"><ele>547.5</ele><time>2026-04-25T10:30:20.9Z</time></trkpt><trkpt lat="41.9083632" lon="1.6750053"><ele>543.0</ele><time>2026-04-25T10:30:21.9Z</time></trkpt><trkpt lat="41.9083388" lon="1.6752011"><ele>538.5</ele><time>2026-04-25T10:30:22.9Z</time></trkpt><trkpt lat="41.908334" lon="1.6754016"><ele>534.0</ele><time>2026-04-25T10:30:23.9Z</time></trkpt><trkpt lat="41.9083468" lon="1.6756058"><ele>532.6666666666666</ele><time>2026-04-25T10:30:24.9Z</time></trkpt><trkpt lat="41.9083874" lon="1.6758139"><ele>531.3333333333333</ele><time>2026-04-25T10:30:25.9Z</time></trkpt><trkpt lat="41.9084462" lon="1.6760256"><ele>530.0</ele><time>2026-04-25T10:30:26.899Z</time></trkpt><trkpt lat="41.9084982" lon="1.6762279"><ele>529.5</ele><time>2026-04-25T10:30:27.9Z</time></trkpt><trkpt lat="41.9085434" lon="1.6764069"><ele>529.0</ele><time>2026-04-25T10:30:28.901Z</time></trkpt><trkpt lat="41.9085959" lon="1.6765542"><ele>528.5</ele><time>2026-04-25T10:30:29.899Z</time></trkpt><trkpt lat="41.9086714" lon="1.6766781"><ele>528.0</ele><time>2026-04-25T10:30:30.9Z</time></trkpt><trkpt lat="41.9087575" lon="1.6767581"><ele>528.0</ele><time>2026-04-25T10:30:31.9Z</time></trkpt><trkpt lat="41.9088605" lon="1.6767836"><ele>528.0</ele><time>2026-04-25T10:30:32.899Z</time></trkpt><trkpt lat="41.9089663" lon="1.6767489"><ele>528.0</ele><time>2026-04-25T10:30:33.9Z</time></trkpt><trkpt lat="41.9090762" lon="1.6766817"><ele>528.0</ele><time>2026-04-25T10:30:34.9Z</time></trkpt><trkpt lat="41.9091856" lon="1.6766067"><ele>529.4</ele><time>2026-04-25T10:30:35.9Z</time></trkpt><trkpt lat="41.909284" lon="1.6765472"><ele>530.8</ele><time>2026-04-25T10:30:36.9Z</time></trkpt><trkpt lat="41.9093802" lon="1.6765188"><ele>532.2</ele><time>2026-04-25T10:30:37.901Z</time></trkpt><trkpt lat="41.9094706" lon="1.6765426"><ele>533.6</ele><time>2026-04-25T10:30:38.901Z</time></trkpt><trkpt lat="41.9095441" lon="1.6766066"><ele>535.0</ele><time>2026-04-25T10:30:39.9Z</time></trkpt><trkpt lat="41.9096023" lon="1.6766945"><ele>535.0</ele><time>2026-04-25T10:30:40.9Z</time></trkpt><trkpt lat="41.9096413" lon="1.6767693"><ele>535.0</ele><time>2026-04-25T10:30:41.9Z</time></trkpt><trkpt lat="41.9096781" lon="1.676854"><ele>535.0</ele><time>2026-04-25T10:30:43.9Z</time></trkpt><trkpt lat="41.9097178" lon="1.6769414"><ele>535.0</ele><time>2026-04-25T10:30:55.9Z</time></trkpt><trkpt lat="41.9097956" lon="1.67706"><ele>535.0</ele><time>2026-04-25T10:30:57.9Z</time></trkpt><trkpt lat="41.9098319" lon="1.6771412"><ele>535.0</ele><time>2026-04-25T10:30:58.9Z</time></trkpt><trkpt lat="41.9098518" lon="1.6772363"><ele>534.0</ele><time>2026-04-25T10:30:59.901Z</time></trkpt><trkpt lat="41.9098416" lon="1.6773405"><ele>533.0</ele><time>2026-04-25T10:31:00.901Z</time></trkpt><trkpt lat="41.9098045" lon="1.6774389"><ele>532.0</ele><time>2026-04-25T10:31:01.9Z</time></trkpt><trkpt lat="41.9097506" lon="1.6775263"><ele>531.0</ele><time>2026-04-25T10:31:02.9Z</time></trkpt><trkpt lat="41.9096895" lon="1.6776131"><ele>530.0</ele><time>2026-04-25T10:31:03.9Z</time></trkpt><trkpt lat="41.9096376" lon="1.6776989"><ele>529.0</ele><time>2026-04-25T10:31:04.9Z</time></trkpt><trkpt lat="41.909592" lon="1.6777936"><ele>528.1666666666667</ele><time>2026-04-25T10:31:05.899Z</time></trkpt><trkpt lat="41.9095622" lon="1.6778956"><ele>527.3333333333334</ele><time>2026-04-25T10:31:06.9Z</time></trkpt><trkpt lat="41.909543" lon="1.6780057"><ele>526.5</ele><time>2026-04-25T10:31:07.9Z</time></trkpt><trkpt lat="41.9095382" lon="1.6781201"><ele>525.6666666666666</ele><time>2026-04-25T10:31:08.9Z</time></trkpt><trkpt lat="41.9095515" lon="1.6782331"><ele>524.8333333333333</ele><time>2026-04-25T10:31:09.9Z</time></trkpt><trkpt lat="41.909594" lon="1.6783393"><ele>524.0</ele><time>2026-04-25T10:31:10.9Z</time></trkpt><trkpt lat="41.9096562" lon="1.67844"><ele>524.0</ele><time>2026-04-25T10:31:11.9Z</time></trkpt><trkpt lat="41.9097327" lon="1.6785245"><ele>524.0</ele><time>2026-04-25T10:31:12.9Z</time></trkpt><trkpt lat="41.9098181" lon="1.6785977"><ele>524.0</ele><time>2026-04-25T10:31:13.9Z</time></trkpt><trkpt lat="41.9099007" lon="1.6786639"><ele>524.0</ele><time>2026-04-25T10:31:14.901Z</time></trkpt><trkpt lat="41.9099714" lon="1.6787317"><ele>524.0</ele><time>2026-04-25T10:31:15.9Z</time></trkpt><trkpt lat="41.9100368" lon="1.6787952"><ele>522.1666666666666</ele><time>2026-04-25T10:31:16.9Z</time></trkpt><trkpt lat="41.9101032" lon="1.67885"><ele>520.3333333333333</ele><time>2026-04-25T10:31:17.901Z</time></trkpt><trkpt lat="41.9101794" lon="1.6788983"><ele>518.5</ele><time>2026-04-25T10:31:18.899Z</time></trkpt><trkpt lat="41.9102571" lon="1.6789282"><ele>516.6666666666666</ele><time>2026-04-25T10:31:19.901Z</time></trkpt><trkpt lat="41.9103459" lon="1.6789294"><ele>514.8333333333334</ele><time>2026-04-25T10:31:20.9Z</time></trkpt><trkpt lat="41.9104361" lon="1.6789173"><ele>513.0</ele><time>2026-04-25T10:31:21.9Z</time></trkpt><trkpt lat="41.9105254" lon="1.6788946"><ele>513.0</ele><time>2026-04-25T10:31:22.9Z</time></trkpt><trkpt lat="41.9106098" lon="1.6788736"><ele>513.0</ele><time>2026-04-25T10:31:23.899Z</time></trkpt><trkpt lat="41.9106841" lon="1.6788576"><ele>513.0</ele><time>2026-04-25T10:31:24.9Z</time></trkpt><trkpt lat="41.9107493" lon="1.6788458"><ele>513.0</ele><time>2026-04-25T10:31:25.901Z</time></trkpt><trkpt lat="41.9108729" lon="1.6788532"><ele>513.0</ele><time>2026-04-25T10:31:27.9Z</time></trkpt><trkpt lat="41.9109449" lon="1.6788729"><ele>513.0</ele><time>2026-04-25T10:31:28.899Z</time></trkpt><trkpt lat="41.9110204" lon="1.678918"><ele>513.8</ele><time>2026-04-25T10:31:29.9Z</time></trkpt><trkpt lat="41.9111037" lon="1.6789804"><ele>514.5999999999999</ele><time>2026-04-25T10:31:30.899Z</time></trkpt><trkpt lat="41.9111877" lon="1.6790582"><ele>515.4000000000001</ele><time>2026-04-25T10:31:31.901Z</time></trkpt><trkpt lat="41.9112647" lon="1.6791338"><ele>516.2</ele><time>2026-04-25T10:31:32.899Z</time></trkpt><trkpt lat="41.9113371" lon="1.6792074"><ele>517.0</ele><time>2026-04-25T10:31:33.9Z</time></trkpt><trkpt lat="41.9114029" lon="1.679278"><ele>517.0</ele><time>2026-04-25T10:31:34.901Z</time></trkpt><trkpt lat="41.9114664" lon="1.6793473"><ele>517.0</ele><time>2026-04-25T10:31:35.9Z</time></trkpt><trkpt lat="41.9115321" lon="1.6794059"><ele>517.0</ele><time>2026-04-25T10:31:36.9Z</time></trkpt><trkpt lat="41.9115956" lon="1.6794587"><ele>517.0</ele><time>2026-04-25T10:31:37.9Z</time></trkpt><trkpt lat="41.9116592" lon="1.6795068"><ele>517.0</ele><time>2026-04-25T10:31:38.901Z</time></trkpt><trkpt lat="41.9117281" lon="1.6795565"><ele>517.0</ele><time>2026-04-25T10:31:39.9Z</time></trkpt><trkpt lat="41.9118019" lon="1.6796051"><ele>515.8333333333334</ele><time>2026-04-25T10:31:40.9Z</time></trkpt><trkpt lat="41.9118837" lon="1.6796433"><ele>514.6666666666667</ele><time>2026-04-25T10:31:41.901Z</time></trkpt><trkpt lat="41.9119726" lon="1.6796531"><ele>513.5</ele><time>2026-04-25T10:31:42.899Z</time></trkpt><trkpt lat="41.9120579" lon="1.6796267"><ele>512.3333333333334</ele><time>2026-04-25T10:31:43.9Z</time></trkpt><trkpt lat="41.9121366" lon="1.6795639"><ele>511.1666666666667</ele><time>2026-04-25T10:31:44.901Z</time></trkpt><trkpt lat="41.9122037" lon="1.6794909"><ele>510.0</ele><time>2026-04-25T10:31:45.9Z</time></trkpt><trkpt lat="41.912258" lon="1.6794183"><ele>510.0</ele><time>2026-04-25T10:31:46.9Z</time></trkpt><trkpt lat="41.9123042" lon="1.6793553"><ele>510.0</ele><time>2026-04-25T10:31:47.901Z</time></trkpt><trkpt lat="41.9123914" lon="1.6792277"><ele>510.0</ele><time>2026-04-25T10:31:49.9Z</time></trkpt><trkpt lat="41.9124536" lon="1.6791596"><ele>510.0</ele><time>2026-04-25T10:31:50.9Z</time></trkpt><trkpt lat="41.9125241" lon="1.6790813"><ele>510.0</ele><time>2026-04-25T10:31:51.899Z</time></trkpt><trkpt lat="41.9125932" lon="1.6789922"><ele>509.3333333333333</ele><time>2026-04-25T10:31:52.9Z</time></trkpt><trkpt lat="41.9126585" lon="1.6789038"><ele>508.66666666666663</ele><time>2026-04-25T10:31:53.9Z</time></trkpt><trkpt lat="41.9127189" lon="1.6788257"><ele>508.0</ele><time>2026-04-25T10:31:54.9Z</time></trkpt><trkpt lat="41.9127709" lon="1.6787538"><ele>507.3333333333333</ele><time>2026-04-25T10:31:55.899Z</time></trkpt><trkpt lat="41.9128234" lon="1.6786887"><ele>506.66666666666663</ele><time>2026-04-25T10:31:56.899Z</time></trkpt><trkpt lat="41.9128841" lon="1.6786351"><ele>506.0</ele><time>2026-04-25T10:31:57.9Z</time></trkpt><trkpt lat="41.9129607" lon="1.6786089"><ele>505.99999999999994</ele><time>2026-04-25T10:31:58.9Z</time></trkpt><trkpt lat="41.9130415" lon="1.6786169"><ele>506.0</ele><time>2026-04-25T10:31:59.899Z</time></trkpt><trkpt lat="41.9131081" lon="1.6786637"><ele>506.0</ele><time>2026-04-25T10:32:00.9Z</time></trkpt><trkpt lat="41.9131481" lon="1.6787403"><ele>506.0</ele><time>2026-04-25T10:32:01.9Z</time></trkpt><trkpt lat="41.9131658" lon="1.6788346"><ele>505.99999999999994</ele><time>2026-04-25T10:32:02.9Z</time></trkpt><trkpt lat="41.9131623" lon="1.6789492"><ele>506.0</ele><time>2026-04-25T10:32:03.9Z</time></trkpt><trkpt lat="41.9131281" lon="1.6790731"><ele>506.0</ele><time>2026-04-25T10:32:04.899Z</time></trkpt><trkpt lat="41.9130789" lon="1.6792015"><ele>506.0</ele><time>2026-04-25T10:32:05.9Z</time></trkpt><trkpt lat="41.9130363" lon="1.6793309"><ele>506.0</ele><time>2026-04-25T10:32:06.9Z</time></trkpt><trkpt lat="41.9130113" lon="1.6794689"><ele>506.0</ele><time>2026-04-25T10:32:07.9Z</time></trkpt><trkpt lat="41.9129994" lon="1.6796119"><ele>506.0</ele><time>2026-04-25T10:32:08.901Z</time></trkpt><trkpt lat="41.9129881" lon="1.6797598"><ele>506.4</ele><time>2026-04-25T10:32:09.9Z</time></trkpt><trkpt lat="41.9129692" lon="1.6799074"><ele>506.8</ele><time>2026-04-25T10:32:10.899Z</time></trkpt><trkpt lat="41.9129421" lon="1.6800517"><ele>507.19999999999993</ele><time>2026-04-25T10:32:11.901Z</time></trkpt><trkpt lat="41.9129061" lon="1.6801894"><ele>507.59999999999997</ele><time>2026-04-25T10:32:12.899Z</time></trkpt><trkpt lat="41.9128728" lon="1.6803243"><ele>508.0</ele><time>2026-04-25T10:32:13.9Z</time></trkpt><trkpt lat="41.9128425" lon="1.6804516"><ele>508.0</ele><time>2026-04-25T10:32:14.9Z</time></trkpt><trkpt lat="41.9128137" lon="1.6805829"><ele>507.99999999999994</ele><time>2026-04-25T10:32:15.901Z</time></trkpt><trkpt lat="41.9127988" lon="1.6807223"><ele>507.99999999999994</ele><time>2026-04-25T10:32:16.901Z</time></trkpt><trkpt lat="41.9127908" lon="1.6808655"><ele>508.0</ele><time>2026-04-25T10:32:17.9Z</time></trkpt><trkpt lat="41.9127945" lon="1.6810221"><ele>508.0</ele><time>2026-04-25T10:32:18.901Z</time></trkpt><trkpt lat="41.9128078" lon="1.6811763"><ele>506.59999999999997</ele><time>2026-04-25T10:32:19.901Z</time></trkpt><trkpt lat="41.9128291" lon="1.6813186"><ele>505.19999999999993</ele><time>2026-04-25T10:32:20.9Z</time></trkpt><trkpt lat="41.9128643" lon="1.681445"><ele>503.8</ele><time>2026-04-25T10:32:21.9Z</time></trkpt><trkpt lat="41.9129129" lon="1.6815539"><ele>502.4</ele><time>2026-04-25T10:32:22.9Z</time></trkpt><trkpt lat="41.9129704" lon="1.6816415"><ele>501.0</ele><time>2026-04-25T10:32:23.901Z</time></trkpt><trkpt lat="41.913029" lon="1.681715"><ele>501.0</ele><time>2026-04-25T10:32:24.901Z</time></trkpt><trkpt lat="41.9130645" lon="1.681792"><ele>501.0</ele><time>2026-04-25T10:32:25.899Z</time></trkpt><trkpt lat="41.9130591" lon="1.6818783"><ele>501.0</ele><time>2026-04-25T10:32:26.9Z</time></trkpt><trkpt lat="41.9130824" lon="1.6820237"><ele>501.0</ele><time>2026-04-25T10:32:28.9Z</time></trkpt><trkpt lat="41.9131948" lon="1.682056"><ele>501.0</ele><time>2026-04-25T10:32:30.899Z</time></trkpt><trkpt lat="41.9132702" lon="1.6820403"><ele>501.0</ele><time>2026-04-25T10:32:31.899Z</time></trkpt><trkpt lat="41.9133359" lon="1.6820676"><ele>500.0</ele><time>2026-04-25T10:32:32.9Z</time></trkpt><trkpt lat="41.9134005" lon="1.6821284"><ele>499.0</ele><time>2026-04-25T10:32:33.9Z</time></trkpt><trkpt lat="41.9134669" lon="1.6822014"><ele>498.0</ele><time>2026-04-25T10:32:34.9Z</time></trkpt><trkpt lat="41.9135372" lon="1.6822798"><ele>497.0</ele><time>2026-04-25T10:32:35.9Z</time></trkpt><trkpt lat="41.9136062" lon="1.6823521"><ele>496.0</ele><time>2026-04-25T10:32:36.899Z</time></trkpt><trkpt lat="41.9136646" lon="1.6824193"><ele>495.0</ele><time>2026-04-25T10:32:37.9Z</time></trkpt><trkpt lat="41.9137097" lon="1.682498"><ele>497.1666666666667</ele><time>2026-04-25T10:32:38.9Z</time></trkpt><trkpt lat="41.9137357" lon="1.6825872"><ele>499.33333333333337</ele><time>2026-04-25T10:32:39.9Z</time></trkpt><trkpt lat="41.9137517" lon="1.6826826"><ele>501.5</ele><time>2026-04-25T10:32:40.9Z</time></trkpt><trkpt lat="41.9137567" lon="1.6827863"><ele>503.6666666666667</ele><time>2026-04-25T10:32:41.901Z</time></trkpt><trkpt lat="41.9137437" lon="1.6828978"><ele>505.83333333333337</ele><time>2026-04-25T10:32:42.9Z</time></trkpt><trkpt lat="41.9137168" lon="1.6830072"><ele>508.0</ele><time>2026-04-25T10:32:43.9Z</time></trkpt><trkpt lat="41.9136852" lon="1.6831086"><ele>508.1666666666667</ele><time>2026-04-25T10:32:44.9Z</time></trkpt><trkpt lat="41.9136547" lon="1.6832069"><ele>508.33333333333337</ele><time>2026-04-25T10:32:45.9Z</time></trkpt><trkpt lat="41.9136338" lon="1.6832979"><ele>508.5</ele><time>2026-04-25T10:32:46.901Z</time></trkpt><trkpt lat="41.9136286" lon="1.6833871"><ele>508.66666666666663</ele><time>2026-04-25T10:32:47.9Z</time></trkpt><trkpt lat="41.9136488" lon="1.6834675"><ele>508.8333333333333</ele><time>2026-04-25T10:32:48.901Z</time></trkpt><trkpt lat="41.9137556" lon="1.6835411"><ele>509.0</ele><time>2026-04-25T10:32:50.9Z</time></trkpt><trkpt lat="41.9138342" lon="1.6835041"><ele>508.99999999999994</ele><time>2026-04-25T10:32:52.901Z</time></trkpt><trkpt lat="41.9138892" lon="1.683437"><ele>509.0</ele><time>2026-04-25T10:33:03.9Z</time></trkpt><trkpt lat="41.913963" lon="1.6833386"><ele>509.0</ele><time>2026-04-25T10:33:06.9Z</time></trkpt><trkpt lat="41.9140183" lon="1.6832743"><ele>509.0</ele><time>2026-04-25T10:33:08.899Z</time></trkpt><trkpt lat="41.9140708" lon="1.6832103"><ele>508.99999999999994</ele><time>2026-04-25T10:33:11.901Z</time></trkpt><trkpt lat="41.9141421" lon="1.6831341"><ele>509.0</ele><time>2026-04-25T10:33:14.899Z</time></trkpt><trkpt lat="41.9142034" lon="1.6830916"><ele>507.2</ele><time>2026-04-25T10:33:16.9Z</time></trkpt><trkpt lat="41.9142799" lon="1.6830628"><ele>505.4</ele><time>2026-04-25T10:33:18.901Z</time></trkpt><trkpt lat="41.9143864" lon="1.6830788"><ele>503.6</ele><time>2026-04-25T10:33:20.9Z</time></trkpt><trkpt lat="41.9144992" lon="1.6831386"><ele>501.8</ele><time>2026-04-25T10:33:22.9Z</time></trkpt><trkpt lat="41.9145931" lon="1.6831899"><ele>500.0</ele><time>2026-04-25T10:33:24.9Z</time></trkpt><trkpt lat="41.9146981" lon="1.6832532"><ele>499.99999999999994</ele><time>2026-04-25T10:33:26.9Z</time></trkpt><trkpt lat="41.9147564" lon="1.683287"><ele>500.0</ele><time>2026-04-25T10:33:27.9Z</time></trkpt><trkpt lat="41.9148169" lon="1.6833176"><ele>500.0</ele><time>2026-04-25T10:33:28.9Z</time></trkpt><trkpt lat="41.9149194" lon="1.6833749"><ele>500.0</ele><time>2026-04-25T10:33:30.899Z</time></trkpt><trkpt lat="41.9150255" lon="1.6834297"><ele>499.99999999999994</ele><time>2026-04-25T10:33:32.9Z</time></trkpt><trkpt lat="41.9150894" lon="1.6834617"><ele>500.0</ele><time>2026-04-25T10:33:33.901Z</time></trkpt><trkpt lat="41.9151531" lon="1.6834995"><ele>497.16666666666663</ele><time>2026-04-25T10:33:34.899Z</time></trkpt><trkpt lat="41.9152184" lon="1.6835515"><ele>494.3333333333333</ele><time>2026-04-25T10:33:35.9Z</time></trkpt><trkpt lat="41.9152876" lon="1.6836187"><ele>491.5</ele><time>2026-04-25T10:33:36.9Z</time></trkpt><trkpt lat="41.9153559" lon="1.6837084"><ele>488.66666666666663</ele><time>2026-04-25T10:33:37.899Z</time></trkpt><trkpt lat="41.9154156" lon="1.683806"><ele>485.8333333333333</ele><time>2026-04-25T10:33:38.898Z</time></trkpt><trkpt lat="41.9154699" lon="1.6839072"><ele>483.0</ele><time>2026-04-25T10:33:39.9Z</time></trkpt><trkpt lat="41.9155167" lon="1.6840062"><ele>483.0</ele><time>2026-04-25T10:33:40.899Z</time></trkpt><trkpt lat="41.9155586" lon="1.6840949"><ele>483.0</ele><time>2026-04-25T10:33:41.899Z</time></trkpt><trkpt lat="41.9155994" lon="1.6841788"><ele>483.0</ele><time>2026-04-25T10:33:42.898Z</time></trkpt><trkpt lat="41.9156366" lon="1.6842575"><ele>483.0</ele><time>2026-04-25T10:33:43.899Z</time></trkpt><trkpt lat="41.9156727" lon="1.6843326"><ele>483.0</ele><time>2026-04-25T10:33:44.9Z</time></trkpt><trkpt lat="41.915736" lon="1.6844599"><ele>483.0</ele><time>2026-04-25T10:33:46.899Z</time></trkpt><trkpt lat="41.9157968" lon="1.6845785"><ele>483.0</ele><time>2026-04-25T10:33:48.9Z</time></trkpt><trkpt lat="41.9158938" lon="1.6846023"><ele>482.99999999999994</ele><time>2026-04-25T10:33:50.9Z</time></trkpt><trkpt lat="41.9159469" lon="1.6844735"><ele>482.99999999999994</ele><time>2026-04-25T10:33:52.9Z</time></trkpt><trkpt lat="41.915937" lon="1.6843895"><ele>483.0</ele><time>2026-04-25T10:33:53.899Z</time></trkpt><trkpt lat="41.915883" lon="1.6842397"><ele>483.0</ele><time>2026-04-25T10:33:55.899Z</time></trkpt><trkpt lat="41.9158176" lon="1.6840937"><ele>483.0</ele><time>2026-04-25T10:33:57.899Z</time></trkpt><trkpt lat="41.9157568" lon="1.683948"><ele>482.99999999999994</ele><time>2026-04-25T10:33:59.899Z</time></trkpt><trkpt lat="41.9157" lon="1.6838199"><ele>482.99999999999994</ele><time>2026-04-25T10:34:01.899Z</time></trkpt><trkpt lat="41.9156592" lon="1.683714"><ele>483.0</ele><time>2026-04-25T10:34:03.899Z</time></trkpt><trkpt lat="41.9156297" lon="1.6836236"><ele>483.0</ele><time>2026-04-25T10:34:05.899Z</time></trkpt><trkpt lat="41.9156025" lon="1.683499"><ele>481.79999999999995</ele><time>2026-04-25T10:34:07.899Z</time></trkpt><trkpt lat="41.9155618" lon="1.6833862"><ele>480.59999999999997</ele><time>2026-04-25T10:34:09.899Z</time></trkpt><trkpt lat="41.9155156" lon="1.6832533"><ele>479.40000000000003</ele><time>2026-04-25T10:34:11.899Z</time></trkpt><trkpt lat="41.9155121" lon="1.6831149"><ele>478.20000000000005</ele><time>2026-04-25T10:34:13.899Z</time></trkpt><trkpt lat="41.915541" lon="1.6829835"><ele>477.0</ele><time>2026-04-25T10:34:15.899Z</time></trkpt><trkpt lat="41.9155825" lon="1.6828657"><ele>477.0</ele><time>2026-04-25T10:34:17.899Z</time></trkpt><trkpt lat="41.9156462" lon="1.6827752"><ele>477.0</ele><time>2026-04-25T10:34:19.898Z</time></trkpt><trkpt lat="41.9157089" lon="1.6826988"><ele>477.0</ele><time>2026-04-25T10:34:21.9Z</time></trkpt><trkpt lat="41.915774" lon="1.6826714"><ele>477.0</ele><time>2026-04-25T10:34:23.898Z</time></trkpt><trkpt lat="41.9158503" lon="1.6826941"><ele>477.0</ele><time>2026-04-25T10:34:26.898Z</time></trkpt><trkpt lat="41.9159304" lon="1.6827488"><ele>477.0</ele><time>2026-04-25T10:34:34.898Z</time></trkpt><trkpt lat="41.9159885" lon="1.6827904"><ele>474.6666666666667</ele><time>2026-04-25T10:34:36.899Z</time></trkpt><trkpt lat="41.9160614" lon="1.6828402"><ele>472.33333333333337</ele><time>2026-04-25T10:34:38.899Z</time></trkpt><trkpt lat="41.9161306" lon="1.6828929"><ele>470.0</ele><time>2026-04-25T10:34:40.9Z</time></trkpt><trkpt lat="41.9161998" lon="1.6829331"><ele>467.6666666666667</ele><time>2026-04-25T10:34:42.899Z</time></trkpt><trkpt lat="41.9162719" lon="1.6829787"><ele>465.33333333333337</ele><time>2026-04-25T10:34:44.898Z</time></trkpt><trkpt lat="41.9163419" lon="1.6830273"><ele>463.0</ele><time>2026-04-25T10:34:46.899Z</time></trkpt><trkpt lat="41.916412" lon="1.6830674"><ele>463.0</ele><time>2026-04-25T10:34:49.899Z</time></trkpt><trkpt lat="41.9164799" lon="1.6831098"><ele>462.99999999999994</ele><time>2026-04-25T10:34:52.899Z</time></trkpt><trkpt lat="41.9165414" lon="1.6831401"><ele>462.99999999999994</ele><time>2026-04-25T10:34:54.899Z</time></trkpt><trkpt lat="41.9166308" lon="1.6831946"><ele>463.0</ele><time>2026-04-25T10:34:56.9Z</time></trkpt><trkpt lat="41.9167257" lon="1.6832675"><ele>463.0</ele><time>2026-04-25T10:34:58.9Z</time></trkpt><trkpt lat="41.9168097" lon="1.6833526"><ele>461.79999999999995</ele><time>2026-04-25T10:35:00.899Z</time></trkpt><trkpt lat="41.9168793" lon="1.6834459"><ele>460.59999999999997</ele><time>2026-04-25T10:35:02.899Z</time></trkpt><trkpt lat="41.9169552" lon="1.683537"><ele>459.40000000000003</ele><time>2026-04-25T10:35:04.899Z</time></trkpt><trkpt lat="41.9170419" lon="1.683642"><ele>458.20000000000005</ele><time>2026-04-25T10:35:06.899Z</time></trkpt><trkpt lat="41.9171239" lon="1.6837369"><ele>457.0</ele><time>2026-04-25T10:35:08.899Z</time></trkpt><trkpt lat="41.9172185" lon="1.6837961"><ele>455.8</ele><time>2026-04-25T10:35:10.9Z</time></trkpt><trkpt lat="41.9173295" lon="1.6838179"><ele>454.6</ele><time>2026-04-25T10:35:12.899Z</time></trkpt><trkpt lat="41.917441" lon="1.6838147"><ele>453.40000000000003</ele><time>2026-04-25T10:35:14.899Z</time></trkpt><trkpt lat="41.9175393" lon="1.6837854"><ele>452.20000000000005</ele><time>2026-04-25T10:35:16.898Z</time></trkpt><trkpt lat="41.9176464" lon="1.6837876"><ele>451.0</ele><time>2026-04-25T10:35:18.899Z</time></trkpt><trkpt lat="41.9177442" lon="1.6838587"><ele>447.4</ele><time>2026-04-25T10:35:20.899Z</time></trkpt><trkpt lat="41.9178007" lon="1.6839839"><ele>443.8</ele><time>2026-04-25T10:35:22.898Z</time></trkpt><trkpt lat="41.917832" lon="1.6841272"><ele>440.19999999999993</ele><time>2026-04-25T10:35:24.9Z</time></trkpt><trkpt lat="41.9178635" lon="1.6842588"><ele>436.59999999999997</ele><time>2026-04-25T10:35:26.899Z</time></trkpt><trkpt lat="41.9179007" lon="1.6844036"><ele>433.0</ele><time>2026-04-25T10:35:28.899Z</time></trkpt><trkpt lat="41.9179297" lon="1.6845573"><ele>431.79999999999995</ele><time>2026-04-25T10:35:30.9Z</time></trkpt><trkpt lat="41.9179681" lon="1.6847"><ele>430.59999999999997</ele><time>2026-04-25T10:35:32.898Z</time></trkpt><trkpt lat="41.9180636" lon="1.6847791"><ele>429.40000000000003</ele><time>2026-04-25T10:35:34.9Z</time></trkpt><trkpt lat="41.9181638" lon="1.6846981"><ele>428.20000000000005</ele><time>2026-04-25T10:35:36.899Z</time></trkpt><trkpt lat="41.9181937" lon="1.6846125"><ele>427.0</ele><time>2026-04-25T10:35:37.899Z</time></trkpt><trkpt lat="41.9182204" lon="1.68452"><ele>427.00000000000006</ele><time>2026-04-25T10:35:38.9Z</time></trkpt><trkpt lat="41.9182408" lon="1.6844329"><ele>427.0</ele><time>2026-04-25T10:35:39.899Z</time></trkpt><trkpt lat="41.9182609" lon="1.6842956"><ele>427.0</ele><time>2026-04-25T10:35:41.899Z</time></trkpt><trkpt lat="41.91827" lon="1.6842062"><ele>427.0</ele><time>2026-04-25T10:35:43.899Z</time></trkpt><trkpt lat="41.9182675" lon="1.6841147"><ele>427.00000000000006</ele><time>2026-04-25T10:35:51.898Z</time></trkpt><trkpt lat="41.9182608" lon="1.6839916"><ele>427.0</ele><time>2026-04-25T10:35:54.899Z</time></trkpt><trkpt lat="41.918257" lon="1.6838964"><ele>427.8</ele><time>2026-04-25T10:35:56.899Z</time></trkpt><trkpt lat="41.9182584" lon="1.6837934"><ele>428.6</ele><time>2026-04-25T10:35:58.899Z</time></trkpt><trkpt lat="41.918259" lon="1.6836238"><ele>429.40000000000003</ele><time>2026-04-25T10:36:00.9Z</time></trkpt><trkpt lat="41.9182456" lon="1.6835205"><ele>430.20000000000005</ele><time>2026-04-25T10:36:01.899Z</time></trkpt><trkpt lat="41.9182321" lon="1.6834072"><ele>431.0</ele><time>2026-04-25T10:36:02.899Z</time></trkpt><trkpt lat="41.918229" lon="1.683283"><ele>431.0</ele><time>2026-04-25T10:36:03.9Z</time></trkpt><trkpt lat="41.9182449" lon="1.6831638"><ele>431.0</ele><time>2026-04-25T10:36:04.898Z</time></trkpt><trkpt lat="41.9182713" lon="1.6830661"><ele>431.0</ele><time>2026-04-25T10:36:05.898Z</time></trkpt><trkpt lat="41.9182967" lon="1.6829879"><ele>431.0</ele><time>2026-04-25T10:36:06.9Z</time></trkpt><trkpt lat="41.9183251" lon="1.6829117"><ele>431.0</ele><time>2026-04-25T10:36:07.899Z</time></trkpt><trkpt lat="41.918359" lon="1.682836"><ele>431.0</ele><time>2026-04-25T10:36:08.898Z</time></trkpt><trkpt lat="41.9183927" lon="1.6827528"><ele>431.0</ele><time>2026-04-25T10:36:09.9Z</time></trkpt><trkpt lat="41.9184219" lon="1.6826572"><ele>427.49999999999994</ele><time>2026-04-25T10:36:10.899Z</time></trkpt><trkpt lat="41.918446" lon="1.6825559"><ele>424.0</ele><time>2026-04-25T10:36:11.898Z</time></trkpt><trkpt lat="41.918462" lon="1.6824529"><ele>420.5</ele><time>2026-04-25T10:36:12.899Z</time></trkpt><trkpt lat="41.9184694" lon="1.6823533"><ele>417.0</ele><time>2026-04-25T10:36:13.899Z</time></trkpt><trkpt lat="41.9184718" lon="1.6822493"><ele>413.49999999999994</ele><time>2026-04-25T10:36:14.899Z</time></trkpt><trkpt lat="41.9184726" lon="1.68214"><ele>410.0</ele><time>2026-04-25T10:36:15.899Z</time></trkpt><trkpt lat="41.918472" lon="1.6820232"><ele>410.2</ele><time>2026-04-25T10:36:16.898Z</time></trkpt><trkpt lat="41.9184709" lon="1.6819001"><ele>410.4</ele><time>2026-04-25T10:36:17.898Z</time></trkpt><trkpt lat="41.9184674" lon="1.6817736"><ele>410.6</ele><time>2026-04-25T10:36:18.898Z</time></trkpt><trkpt lat="41.9184622" lon="1.6816448"><ele>410.8</ele><time>2026-04-25T10:36:19.9Z</time></trkpt><trkpt lat="41.918449" lon="1.681518"><ele>411.0</ele><time>2026-04-25T10:36:20.899Z</time></trkpt><trkpt lat="41.9184297" lon="1.6813922"><ele>411.0</ele><time>2026-04-25T10:36:21.9Z</time></trkpt><trkpt lat="41.9184155" lon="1.681281"><ele>411.0</ele><time>2026-04-25T10:36:22.898Z</time></trkpt><trkpt lat="41.9184014" lon="1.6811813"><ele>411.0</ele><time>2026-04-25T10:36:23.898Z</time></trkpt><trkpt lat="41.9183849" lon="1.6810863"><ele>411.0</ele><time>2026-04-25T10:36:24.899Z</time></trkpt><trkpt lat="41.9183723" lon="1.6809997"><ele>411.0</ele><time>2026-04-25T10:36:25.899Z</time></trkpt><trkpt lat="41.9183615" lon="1.6809159"><ele>411.0</ele><time>2026-04-25T10:36:26.9Z</time></trkpt><trkpt lat="41.9183355" lon="1.6807511"><ele>411.0</ele><time>2026-04-25T10:36:28.899Z</time></trkpt><trkpt lat="41.9183409" lon="1.6806596"><ele>411.0</ele><time>2026-04-25T10:36:29.898Z</time></trkpt><trkpt lat="41.9183734" lon="1.6805783"><ele>411.0</ele><time>2026-04-25T10:36:30.899Z</time></trkpt><trkpt lat="41.918484" lon="1.68053"><ele>411.0</ele><time>2026-04-25T10:36:32.899Z</time></trkpt><trkpt lat="41.918542" lon="1.6805658"><ele>411.0</ele><time>2026-04-25T10:36:33.899Z</time></trkpt><trkpt lat="41.9185982" lon="1.6806349"><ele>411.0</ele><time>2026-04-25T10:36:34.899Z</time></trkpt><trkpt lat="41.9186487" lon="1.6807323"><ele>411.0</ele><time>2026-04-25T10:36:35.899Z</time></trkpt><trkpt lat="41.9186877" lon="1.6808573"><ele>411.0</ele><time>2026-04-25T10:36:36.899Z</time></trkpt><trkpt lat="41.9187127" lon="1.6810004"><ele>411.0</ele><time>2026-04-25T10:36:37.898Z</time></trkpt><trkpt lat="41.9187303" lon="1.6811571"><ele>411.0</ele><time>2026-04-25T10:36:38.9Z</time></trkpt><trkpt lat="41.9187431" lon="1.6813284"><ele>411.0</ele><time>2026-04-25T10:36:39.899Z</time></trkpt><trkpt lat="41.9187552" lon="1.6814972"><ele>411.0</ele><time>2026-04-25T10:36:40.898Z</time></trkpt><trkpt lat="41.9187701" lon="1.6816565"><ele>411.0</ele><time>2026-04-25T10:36:41.899Z</time></trkpt><trkpt lat="41.9187843" lon="1.6818087"><ele>411.0</ele><time>2026-04-25T10:36:42.899Z</time></trkpt><trkpt lat="41.9187994" lon="1.6819575"><ele>410.8</ele><time>2026-04-25T10:36:43.9Z</time></trkpt><trkpt lat="41.9188157" lon="1.6820951"><ele>410.6</ele><time>2026-04-25T10:36:44.898Z</time></trkpt><trkpt lat="41.9188448" lon="1.6822225"><ele>410.4</ele><time>2026-04-25T10:36:45.899Z</time></trkpt><trkpt lat="41.918889" lon="1.6823323"><ele>410.2</ele><time>2026-04-25T10:36:46.9Z</time></trkpt><trkpt lat="41.9189475" lon="1.6824129"><ele>410.0</ele><time>2026-04-25T10:36:47.898Z</time></trkpt><trkpt lat="41.9190115" lon="1.6824792"><ele>409.99999999999994</ele><time>2026-04-25T10:36:48.9Z</time></trkpt><trkpt lat="41.9190834" lon="1.6824982"><ele>410.0</ele><time>2026-04-25T10:36:49.898Z</time></trkpt><trkpt lat="41.9191517" lon="1.6825309"><ele>410.0</ele><time>2026-04-25T10:36:50.898Z</time></trkpt><trkpt lat="41.9192211" lon="1.6825898"><ele>410.0</ele><time>2026-04-25T10:36:51.899Z</time></trkpt><trkpt lat="41.9192896" lon="1.682655"><ele>409.99999999999994</ele><time>2026-04-25T10:36:52.9Z</time></trkpt><trkpt lat="41.9193648" lon="1.6827127"><ele>410.0</ele><time>2026-04-25T10:36:53.899Z</time></trkpt><trkpt lat="41.9194332" lon="1.6827832"><ele>409.3333333333333</ele><time>2026-04-25T10:36:54.9Z</time></trkpt><trkpt lat="41.9194888" lon="1.6828666"><ele>408.66666666666663</ele><time>2026-04-25T10:36:55.899Z</time></trkpt><trkpt lat="41.9195483" lon="1.6829423"><ele>408.0</ele><time>2026-04-25T10:36:56.9Z</time></trkpt><trkpt lat="41.9196235" lon="1.6829979"><ele>407.33333333333337</ele><time>2026-04-25T10:36:57.898Z</time></trkpt><trkpt lat="41.91971" lon="1.6830206"><ele>406.6666666666667</ele><time>2026-04-25T10:36:58.898Z</time></trkpt><trkpt lat="41.919802" lon="1.6830131"><ele>406.0</ele><time>2026-04-25T10:36:59.9Z</time></trkpt><trkpt lat="41.9198979" lon="1.6829905"><ele>406.00000000000006</ele><time>2026-04-25T10:37:00.899Z</time></trkpt><trkpt lat="41.9199881" lon="1.6829695"><ele>406.0</ele><time>2026-04-25T10:37:01.9Z</time></trkpt><trkpt lat="41.9200685" lon="1.6829552"><ele>406.0</ele><time>2026-04-25T10:37:02.899Z</time></trkpt><trkpt lat="41.9201413" lon="1.6829413"><ele>406.0</ele><time>2026-04-25T10:37:03.9Z</time></trkpt><trkpt lat="41.9202129" lon="1.6829251"><ele>406.00000000000006</ele><time>2026-04-25T10:37:04.898Z</time></trkpt><trkpt lat="41.920285" lon="1.682906"><ele>406.0</ele><time>2026-04-25T10:37:05.899Z</time></trkpt><trkpt lat="41.9203548" lon="1.6828891"><ele>407.8</ele><time>2026-04-25T10:37:06.899Z</time></trkpt><trkpt lat="41.9204172" lon="1.6828741"><ele>409.6</ele><time>2026-04-25T10:37:07.898Z</time></trkpt><trkpt lat="41.9205257" lon="1.6828605"><ele>411.4</ele><time>2026-04-25T10:37:09.9Z</time></trkpt><trkpt lat="41.9206249" lon="1.6829373"><ele>413.2</ele><time>2026-04-25T10:37:11.899Z</time></trkpt><trkpt lat="41.9206907" lon="1.6830911"><ele>415.0</ele><time>2026-04-25T10:37:13.898Z</time></trkpt><trkpt lat="41.9207449" lon="1.6831592"><ele>415.0</ele><time>2026-04-25T10:37:14.9Z</time></trkpt><trkpt lat="41.9208168" lon="1.6832087"><ele>415.0</ele><time>2026-04-25T10:37:15.899Z</time></trkpt><trkpt lat="41.9208963" lon="1.6832233"><ele>415.0</ele><time>2026-04-25T10:37:16.899Z</time></trkpt><trkpt lat="41.9209905" lon="1.6832053"><ele>415.0</ele><time>2026-04-25T10:37:17.899Z</time></trkpt><trkpt lat="41.9211016" lon="1.6831581"><ele>415.0</ele><time>2026-04-25T10:37:18.9Z</time></trkpt><trkpt lat="41.9212297" lon="1.6830928"><ele>418.33333333333337</ele><time>2026-04-25T10:37:19.9Z</time></trkpt><trkpt lat="41.9213753" lon="1.6830155"><ele>421.66666666666663</ele><time>2026-04-25T10:37:20.899Z</time></trkpt><trkpt lat="41.9215329" lon="1.6829442"><ele>425.0</ele><time>2026-04-25T10:37:21.9Z</time></trkpt><trkpt lat="41.9217074" lon="1.6828588"><ele>425.3333333333333</ele><time>2026-04-25T10:37:22.899Z</time></trkpt><trkpt lat="41.921895" lon="1.6827661"><ele>425.66666666666663</ele><time>2026-04-25T10:37:23.899Z</time></trkpt><trkpt lat="41.9220817" lon="1.6826728"><ele>426.0</ele><time>2026-04-25T10:37:24.9Z</time></trkpt><trkpt lat="41.9222706" lon="1.6825814"><ele>426.0</ele><time>2026-04-25T10:37:25.9Z</time></trkpt><trkpt lat="41.9224565" lon="1.6824862"><ele>426.0</ele><time>2026-04-25T10:37:26.9Z</time></trkpt><trkpt lat="41.922627" lon="1.6824017"><ele>426.0</ele><time>2026-04-25T10:37:27.9Z</time></trkpt><trkpt lat="41.9227821" lon="1.6823259"><ele>428.33333333333337</ele><time>2026-04-25T10:37:28.899Z</time></trkpt><trkpt lat="41.9229302" lon="1.682254"><ele>430.6666666666667</ele><time>2026-04-25T10:37:29.9Z</time></trkpt><trkpt lat="41.9230861" lon="1.6821951"><ele>433.0</ele><time>2026-04-25T10:37:30.899Z</time></trkpt><trkpt lat="41.9232461" lon="1.682167"><ele>435.0</ele><time>2026-04-25T10:37:31.9Z</time></trkpt><trkpt lat="41.9234106" lon="1.6821678"><ele>437.0</ele><time>2026-04-25T10:37:32.899Z</time></trkpt><trkpt lat="41.9235819" lon="1.6821789"><ele>439.0</ele><time>2026-04-25T10:37:33.899Z</time></trkpt><trkpt lat="41.9237665" lon="1.6821881"><ele>439.0</ele><time>2026-04-25T10:37:34.899Z</time></trkpt><trkpt lat="41.9239699" lon="1.6821899"><ele>439.0</ele><time>2026-04-25T10:37:35.9Z</time></trkpt><trkpt lat="41.9241888" lon="1.6821867"><ele>439.0</ele><time>2026-04-25T10:37:36.9Z</time></trkpt><trkpt lat="41.9244096" lon="1.6821896"><ele>439.33333333333337</ele><time>2026-04-25T10:37:37.898Z</time></trkpt><trkpt lat="41.9246231" lon="1.6821976"><ele>439.66666666666663</ele><time>2026-04-25T10:37:38.899Z</time></trkpt><trkpt lat="41.9248216" lon="1.6822042"><ele>440.0</ele><time>2026-04-25T10:37:39.899Z</time></trkpt><trkpt lat="41.9250047" lon="1.6822108"><ele>441.3333333333333</ele><time>2026-04-25T10:37:40.9Z</time></trkpt><trkpt lat="41.9251759" lon="1.682214"><ele>442.66666666666663</ele><time>2026-04-25T10:37:41.898Z</time></trkpt><trkpt lat="41.9253394" lon="1.6822177"><ele>444.0</ele><time>2026-04-25T10:37:42.9Z</time></trkpt><trkpt lat="41.9254992" lon="1.6822219"><ele>444.0</ele><time>2026-04-25T10:37:43.899Z</time></trkpt><trkpt lat="41.9256594" lon="1.6822262"><ele>444.0</ele><time>2026-04-25T10:37:44.899Z</time></trkpt><trkpt lat="41.9258169" lon="1.682233"><ele>444.0</ele><time>2026-04-25T10:37:45.899Z</time></trkpt><trkpt lat="41.925973" lon="1.6822501"><ele>444.66666666666663</ele><time>2026-04-25T10:37:46.9Z</time></trkpt><trkpt lat="41.9261311" lon="1.6822986"><ele>445.3333333333333</ele><time>2026-04-25T10:37:47.9Z</time></trkpt><trkpt lat="41.9262924" lon="1.6823773"><ele>446.0</ele><time>2026-04-25T10:37:48.899Z</time></trkpt><trkpt lat="41.9264454" lon="1.6824646"><ele>446.0</ele><time>2026-04-25T10:37:49.899Z</time></trkpt><trkpt lat="41.9265947" lon="1.6825523"><ele>446.0</ele><time>2026-04-25T10:37:50.899Z</time></trkpt><trkpt lat="41.926742" lon="1.6826436"><ele>446.0</ele><time>2026-04-25T10:37:51.899Z</time></trkpt><trkpt lat="41.926887" lon="1.6827292"><ele>447.66666666666663</ele><time>2026-04-25T10:37:52.899Z</time></trkpt><trkpt lat="41.9270245" lon="1.682813"><ele>449.33333333333337</ele><time>2026-04-25T10:37:53.899Z</time></trkpt><trkpt lat="41.9271703" lon="1.6828943"><ele>451.0</ele><time>2026-04-25T10:37:54.9Z</time></trkpt><trkpt lat="41.9273268" lon="1.6829791"><ele>451.0</ele><time>2026-04-25T10:37:55.9Z</time></trkpt><trkpt lat="41.9274825" lon="1.6830699"><ele>451.0</ele><time>2026-04-25T10:37:56.899Z</time></trkpt><trkpt lat="41.9276281" lon="1.68316"><ele>451.0</ele><time>2026-04-25T10:37:57.899Z</time></trkpt><trkpt lat="41.9277653" lon="1.6832421"><ele>450.5</ele><time>2026-04-25T10:37:58.899Z</time></trkpt><trkpt lat="41.9278953" lon="1.6833192"><ele>450.0</ele><time>2026-04-25T10:37:59.9Z</time></trkpt><trkpt lat="41.92802" lon="1.6834029"><ele>449.5</ele><time>2026-04-25T10:38:00.899Z</time></trkpt><trkpt lat="41.9281393" lon="1.6834968"><ele>449.0</ele><time>2026-04-25T10:38:01.899Z</time></trkpt><trkpt lat="41.9282448" lon="1.683615"><ele>450.3333333333333</ele><time>2026-04-25T10:38:02.899Z</time></trkpt><trkpt lat="41.928336" lon="1.6837552"><ele>451.66666666666663</ele><time>2026-04-25T10:38:03.899Z</time></trkpt><trkpt lat="41.9284314" lon="1.683924"><ele>453.0</ele><time>2026-04-25T10:38:04.898Z</time></trkpt><trkpt lat="41.9285279" lon="1.684111"><ele>453.0</ele><time>2026-04-25T10:38:05.898Z</time></trkpt><trkpt lat="41.9286135" lon="1.6843252"><ele>453.0</ele><time>2026-04-25T10:38:06.899Z</time></trkpt><trkpt lat="41.9286936" lon="1.6845535"><ele>453.0</ele><time>2026-04-25T10:38:07.9Z</time></trkpt><trkpt lat="41.9287815" lon="1.684787"><ele>453.0</ele><time>2026-04-25T10:38:08.9Z</time></trkpt><trkpt lat="41.9288771" lon="1.6850289"><ele>453.0</ele><time>2026-04-25T10:38:09.9Z</time></trkpt><trkpt lat="41.928984" lon="1.6852841"><ele>453.0</ele><time>2026-04-25T10:38:10.899Z</time></trkpt><trkpt lat="41.9290951" lon="1.6855484"><ele>454.0</ele><time>2026-04-25T10:38:11.899Z</time></trkpt><trkpt lat="41.9292089" lon="1.685814"><ele>455.0</ele><time>2026-04-25T10:38:12.899Z</time></trkpt><trkpt lat="41.9293247" lon="1.6860918"><ele>458.0</ele><time>2026-04-25T10:38:13.899Z</time></trkpt><trkpt lat="41.9294407" lon="1.6863772"><ele>461.0</ele><time>2026-04-25T10:38:14.899Z</time></trkpt><trkpt lat="41.9295563" lon="1.6866679"><ele>462.0</ele><time>2026-04-25T10:38:15.898Z</time></trkpt><trkpt lat="41.9296755" lon="1.6869619"><ele>463.0</ele><time>2026-04-25T10:38:16.899Z</time></trkpt><trkpt lat="41.9297953" lon="1.687261"><ele>463.0</ele><time>2026-04-25T10:38:17.9Z</time></trkpt><trkpt lat="41.9299169" lon="1.6875617"><ele>463.0</ele><time>2026-04-25T10:38:18.899Z</time></trkpt><trkpt lat="41.9300466" lon="1.6878676"><ele>465.5</ele><time>2026-04-25T10:38:19.899Z</time></trkpt><trkpt lat="41.9301819" lon="1.6881868"><ele>468.0</ele><time>2026-04-25T10:38:20.899Z</time></trkpt><trkpt lat="41.9303208" lon="1.6885175"><ele>468.5</ele><time>2026-04-25T10:38:21.899Z</time></trkpt><trkpt lat="41.930461" lon="1.6888554"><ele>469.0</ele><time>2026-04-25T10:38:22.899Z</time></trkpt><trkpt lat="41.9305995" lon="1.6891996"><ele>469.0</ele><time>2026-04-25T10:38:23.899Z</time></trkpt><trkpt lat="41.9307416" lon="1.6895472"><ele>469.0</ele><time>2026-04-25T10:38:24.899Z</time></trkpt><trkpt lat="41.9308857" lon="1.6899004"><ele>472.0</ele><time>2026-04-25T10:38:25.9Z</time></trkpt><trkpt lat="41.9310304" lon="1.6902588"><ele>475.0</ele><time>2026-04-25T10:38:26.9Z</time></trkpt><trkpt lat="41.9311776" lon="1.6906188"><ele>475.0</ele><time>2026-04-25T10:38:27.899Z</time></trkpt><trkpt lat="41.9313263" lon="1.6909802"><ele>475.0</ele><time>2026-04-25T10:38:28.898Z</time></trkpt><trkpt lat="41.9314762" lon="1.6913454"><ele>474.5</ele><time>2026-04-25T10:38:29.898Z</time></trkpt><trkpt lat="41.9316289" lon="1.6917164"><ele>474.0</ele><time>2026-04-25T10:38:30.898Z</time></trkpt><trkpt lat="41.9317828" lon="1.6920872"><ele>477.5</ele><time>2026-04-25T10:38:31.898Z</time></trkpt><trkpt lat="41.9319372" lon="1.6924623"><ele>481.0</ele><time>2026-04-25T10:38:32.898Z</time></trkpt><trkpt lat="41.9320901" lon="1.692831"><ele>482.5</ele><time>2026-04-25T10:38:33.898Z</time></trkpt><trkpt lat="41.9322373" lon="1.6931898"><ele>484.0</ele><time>2026-04-25T10:38:34.898Z</time></trkpt><trkpt lat="41.9323803" lon="1.6935323"><ele>483.5</ele><time>2026-04-25T10:38:35.898Z</time></trkpt><trkpt lat="41.9325213" lon="1.693853"><ele>483.0</ele><time>2026-04-25T10:38:36.899Z</time></trkpt><trkpt lat="41.9326584" lon="1.6941566"><ele>486.0</ele><time>2026-04-25T10:38:37.897Z</time></trkpt><trkpt lat="41.9327845" lon="1.6944315"><ele>489.0</ele><time>2026-04-25T10:38:38.898Z</time></trkpt><trkpt lat="41.9328952" lon="1.6946698"><ele>492.0</ele><time>2026-04-25T10:38:39.898Z</time></trkpt><trkpt lat="41.933001" lon="1.6948755"><ele>492.0</ele><time>2026-04-25T10:38:40.898Z</time></trkpt><trkpt lat="41.9331065" lon="1.6950468"><ele>492.0</ele><time>2026-04-25T10:38:41.899Z</time></trkpt><trkpt lat="41.9332276" lon="1.6951863"><ele>492.0</ele><time>2026-04-25T10:38:42.898Z</time></trkpt><trkpt lat="41.9333663" lon="1.6952947"><ele>492.33333333333337</ele><time>2026-04-25T10:38:43.898Z</time></trkpt><trkpt lat="41.9335223" lon="1.6953699"><ele>492.6666666666667</ele><time>2026-04-25T10:38:44.899Z</time></trkpt><trkpt lat="41.9336966" lon="1.6954231"><ele>493.0</ele><time>2026-04-25T10:38:45.898Z</time></trkpt><trkpt lat="41.9338804" lon="1.6954694"><ele>493.0</ele><time>2026-04-25T10:38:46.898Z</time></trkpt><trkpt lat="41.9340725" lon="1.6955087"><ele>493.0</ele><time>2026-04-25T10:38:47.898Z</time></trkpt><trkpt lat="41.9342622" lon="1.6955381"><ele>493.0</ele><time>2026-04-25T10:38:48.899Z</time></trkpt><trkpt lat="41.9344474" lon="1.6955465"><ele>494.33333333333337</ele><time>2026-04-25T10:38:49.898Z</time></trkpt><trkpt lat="41.934631" lon="1.6955235"><ele>495.66666666666663</ele><time>2026-04-25T10:38:50.897Z</time></trkpt><trkpt lat="41.9348195" lon="1.695464"><ele>497.0</ele><time>2026-04-25T10:38:51.899Z</time></trkpt><trkpt lat="41.9350148" lon="1.6953866"><ele>499.66666666666663</ele><time>2026-04-25T10:38:52.898Z</time></trkpt><trkpt lat="41.9352092" lon="1.6953035"><ele>502.33333333333337</ele><time>2026-04-25T10:38:53.899Z</time></trkpt><trkpt lat="41.9354009" lon="1.6952222"><ele>505.0</ele><time>2026-04-25T10:38:54.899Z</time></trkpt><trkpt lat="41.9355771" lon="1.6951448"><ele>506.0</ele><time>2026-04-25T10:38:55.897Z</time></trkpt><trkpt lat="41.9357357" lon="1.6950564"><ele>507.0</ele><time>2026-04-25T10:38:56.898Z</time></trkpt><trkpt lat="41.9358807" lon="1.6949396"><ele>508.0</ele><time>2026-04-25T10:38:57.898Z</time></trkpt><trkpt lat="41.9360121" lon="1.6947953"><ele>509.0</ele><time>2026-04-25T10:38:58.898Z</time></trkpt><trkpt lat="41.9361357" lon="1.6946445"><ele>510.0</ele><time>2026-04-25T10:38:59.898Z</time></trkpt><trkpt lat="41.9362608" lon="1.6945225"><ele>511.0</ele><time>2026-04-25T10:39:00.898Z</time></trkpt><trkpt lat="41.9364091" lon="1.6944522"><ele>515.6666666666667</ele><time>2026-04-25T10:39:01.898Z</time></trkpt><trkpt lat="41.9365726" lon="1.6944169"><ele>520.3333333333334</ele><time>2026-04-25T10:39:02.899Z</time></trkpt><trkpt lat="41.9367425" lon="1.6943876"><ele>525.0</ele><time>2026-04-25T10:39:03.897Z</time></trkpt><trkpt lat="41.9369073" lon="1.6943719"><ele>525.6666666666666</ele><time>2026-04-25T10:39:04.898Z</time></trkpt><trkpt lat="41.937067" lon="1.6944096"><ele>526.3333333333333</ele><time>2026-04-25T10:39:05.897Z</time></trkpt><trkpt lat="41.9372225" lon="1.694499"><ele>527.0</ele><time>2026-04-25T10:39:06.898Z</time></trkpt><trkpt lat="41.9373702" lon="1.6946271"><ele>527.0</ele><time>2026-04-25T10:39:07.898Z</time></trkpt><trkpt lat="41.937521" lon="1.6947728"><ele>527.0</ele><time>2026-04-25T10:39:08.898Z</time></trkpt><trkpt lat="41.9376669" lon="1.6949161"><ele>527.0</ele><time>2026-04-25T10:39:09.897Z</time></trkpt><trkpt lat="41.9378055" lon="1.6950462"><ele>527.5</ele><time>2026-04-25T10:39:10.899Z</time></trkpt><trkpt lat="41.9379303" lon="1.6951503"><ele>528.0</ele><time>2026-04-25T10:39:11.898Z</time></trkpt><trkpt lat="41.9380606" lon="1.6952282"><ele>528.5</ele><time>2026-04-25T10:39:12.898Z</time></trkpt><trkpt lat="41.9381821" lon="1.6952595"><ele>529.0</ele><time>2026-04-25T10:39:13.898Z</time></trkpt><trkpt lat="41.9382972" lon="1.69524"><ele>532.25</ele><time>2026-04-25T10:39:14.897Z</time></trkpt><trkpt lat="41.9383965" lon="1.6951675"><ele>535.5</ele><time>2026-04-25T10:39:15.897Z</time></trkpt><trkpt lat="41.938498" lon="1.6950642"><ele>538.75</ele><time>2026-04-25T10:39:16.898Z</time></trkpt><trkpt lat="41.9386187" lon="1.6949801"><ele>542.0</ele><time>2026-04-25T10:39:17.898Z</time></trkpt><trkpt lat="41.9387571" lon="1.6949373"><ele>542.0</ele><time>2026-04-25T10:39:18.899Z</time></trkpt><trkpt lat="41.938905" lon="1.6949486"><ele>542.0</ele><time>2026-04-25T10:39:19.898Z</time></trkpt><trkpt lat="41.9390382" lon="1.695019"><ele>542.0</ele><time>2026-04-25T10:39:20.898Z</time></trkpt><trkpt lat="41.9391443" lon="1.6951402"><ele>542.0</ele><time>2026-04-25T10:39:21.899Z</time></trkpt><trkpt lat="41.9392307" lon="1.6952915"><ele>542.0</ele><time>2026-04-25T10:39:22.899Z</time></trkpt><trkpt lat="41.9393153" lon="1.6954363"><ele>542.0</ele><time>2026-04-25T10:39:23.898Z</time></trkpt><trkpt lat="41.9394165" lon="1.6955436"><ele>542.0</ele><time>2026-04-25T10:39:24.898Z</time></trkpt><trkpt lat="41.9395426" lon="1.6955984"><ele>542.0</ele><time>2026-04-25T10:39:25.898Z</time></trkpt><trkpt lat="41.9396858" lon="1.6956012"><ele>542.0</ele><time>2026-04-25T10:39:26.898Z</time></trkpt><trkpt lat="41.9398438" lon="1.6955864"><ele>542.0</ele><time>2026-04-25T10:39:27.898Z</time></trkpt><trkpt lat="41.9400179" lon="1.6955701"><ele>542.0</ele><time>2026-04-25T10:39:28.899Z</time></trkpt><trkpt lat="41.9401985" lon="1.6955657"><ele>544.3333333333333</ele><time>2026-04-25T10:39:29.898Z</time></trkpt><trkpt lat="41.940377" lon="1.6955862"><ele>546.6666666666666</ele><time>2026-04-25T10:39:30.898Z</time></trkpt><trkpt lat="41.9405555" lon="1.6956447"><ele>549.0</ele><time>2026-04-25T10:39:31.898Z</time></trkpt><trkpt lat="41.9407225" lon="1.6957474"><ele>549.0</ele><time>2026-04-25T10:39:32.898Z</time></trkpt><trkpt lat="41.9408799" lon="1.6958964"><ele>549.0</ele><time>2026-04-25T10:39:33.897Z</time></trkpt><trkpt lat="41.9410378" lon="1.6960604"><ele>549.0</ele><time>2026-04-25T10:39:34.898Z</time></trkpt><trkpt lat="41.9411966" lon="1.696221"><ele>551.3333333333334</ele><time>2026-04-25T10:39:35.898Z</time></trkpt><trkpt lat="41.9413461" lon="1.6963734"><ele>553.6666666666667</ele><time>2026-04-25T10:39:36.899Z</time></trkpt><trkpt lat="41.9414977" lon="1.6965049"><ele>556.0</ele><time>2026-04-25T10:39:37.899Z</time></trkpt><trkpt lat="41.9416634" lon="1.6965917"><ele>560.0</ele><time>2026-04-25T10:39:38.898Z</time></trkpt><trkpt lat="41.9418363" lon="1.696633"><ele>564.0</ele><time>2026-04-25T10:39:39.899Z</time></trkpt><trkpt lat="41.9420045" lon="1.6966656"><ele>568.0</ele><time>2026-04-25T10:39:40.898Z</time></trkpt><trkpt lat="41.9421623" lon="1.6967513"><ele>568.0</ele><time>2026-04-25T10:39:41.898Z</time></trkpt><trkpt lat="41.9423063" lon="1.6968912"><ele>568.0</ele><time>2026-04-25T10:39:42.898Z</time></trkpt><trkpt lat="41.942432" lon="1.6970636"><ele>568.0</ele><time>2026-04-25T10:39:43.898Z</time></trkpt><trkpt lat="41.9425317" lon="1.6972348"><ele>568.25</ele><time>2026-04-25T10:39:44.899Z</time></trkpt><trkpt lat="41.9426344" lon="1.6973721"><ele>568.5</ele><time>2026-04-25T10:39:45.899Z</time></trkpt><trkpt lat="41.9427444" lon="1.6974556"><ele>568.75</ele><time>2026-04-25T10:39:46.899Z</time></trkpt><trkpt lat="41.9428561" lon="1.6974787"><ele>569.0</ele><time>2026-04-25T10:39:47.899Z</time></trkpt><trkpt lat="41.9429775" lon="1.6974715"><ele>569.0</ele><time>2026-04-25T10:39:48.899Z</time></trkpt><trkpt lat="41.9431174" lon="1.6974671"><ele>569.0</ele><time>2026-04-25T10:39:49.898Z</time></trkpt><trkpt lat="41.9432673" lon="1.6974864"><ele>569.0</ele><time>2026-04-25T10:39:50.898Z</time></trkpt><trkpt lat="41.943424" lon="1.6975382"><ele>570.0</ele><time>2026-04-25T10:39:51.899Z</time></trkpt><trkpt lat="41.9435882" lon="1.6976142"><ele>571.0</ele><time>2026-04-25T10:39:52.897Z</time></trkpt><trkpt lat="41.9437619" lon="1.6976901"><ele>572.0</ele><time>2026-04-25T10:39:53.898Z</time></trkpt><trkpt lat="41.9439408" lon="1.6977573"><ele>572.0</ele><time>2026-04-25T10:39:54.898Z</time></trkpt><trkpt lat="41.9441228" lon="1.6977985"><ele>572.0</ele><time>2026-04-25T10:39:55.898Z</time></trkpt><trkpt lat="41.9443055" lon="1.6978027"><ele>572.0</ele><time>2026-04-25T10:39:56.898Z</time></trkpt><trkpt lat="41.9444896" lon="1.6977885"><ele>571.6666666666666</ele><time>2026-04-25T10:39:57.898Z</time></trkpt><trkpt lat="41.9446773" lon="1.6977586"><ele>571.3333333333334</ele><time>2026-04-25T10:39:58.898Z</time></trkpt><trkpt lat="41.9448633" lon="1.6976999"><ele>571.0</ele><time>2026-04-25T10:39:59.898Z</time></trkpt><trkpt lat="41.9450435" lon="1.6976078"><ele>573.6666666666667</ele><time>2026-04-25T10:40:00.899Z</time></trkpt><trkpt lat="41.9452065" lon="1.6975205"><ele>576.3333333333334</ele><time>2026-04-25T10:40:01.898Z</time></trkpt><trkpt lat="41.9453479" lon="1.6974543"><ele>579.0</ele><time>2026-04-25T10:40:02.898Z</time></trkpt><trkpt lat="41.9454775" lon="1.6974326"><ele>579.0</ele><time>2026-04-25T10:40:03.899Z</time></trkpt><trkpt lat="41.9455995" lon="1.6974792"><ele>579.0</ele><time>2026-04-25T10:40:04.898Z</time></trkpt><trkpt lat="41.9457133" lon="1.6975677"><ele>579.0</ele><time>2026-04-25T10:40:05.899Z</time></trkpt><trkpt lat="41.9458073" lon="1.6977017"><ele>579.0</ele><time>2026-04-25T10:40:06.898Z</time></trkpt><trkpt lat="41.9459062" lon="1.6978581"><ele>580.6666666666666</ele><time>2026-04-25T10:40:07.899Z</time></trkpt><trkpt lat="41.9460217" lon="1.6980186"><ele>582.3333333333333</ele><time>2026-04-25T10:40:08.899Z</time></trkpt><trkpt lat="41.9461503" lon="1.6981819"><ele>584.0</ele><time>2026-04-25T10:40:09.897Z</time></trkpt><trkpt lat="41.9462938" lon="1.6983247"><ele>584.0</ele><time>2026-04-25T10:40:10.898Z</time></trkpt><trkpt lat="41.9464641" lon="1.6984473"><ele>584.0</ele><time>2026-04-25T10:40:11.899Z</time></trkpt><trkpt lat="41.9466591" lon="1.6985524"><ele>584.0</ele><time>2026-04-25T10:40:12.898Z</time></trkpt><trkpt lat="41.9468726" lon="1.6986622"><ele>585.0</ele><time>2026-04-25T10:40:13.899Z</time></trkpt><trkpt lat="41.947098" lon="1.6987767"><ele>586.0</ele><time>2026-04-25T10:40:14.898Z</time></trkpt><trkpt lat="41.9473259" lon="1.6988901"><ele>591.0</ele><time>2026-04-25T10:40:15.899Z</time></trkpt><trkpt lat="41.9475671" lon="1.6990086"><ele>596.0</ele><time>2026-04-25T10:40:16.899Z</time></trkpt><trkpt lat="41.9478112" lon="1.6991299"><ele>596.0</ele><time>2026-04-25T10:40:17.898Z</time></trkpt><trkpt lat="41.9480564" lon="1.6992526"><ele>596.0</ele><time>2026-04-25T10:40:18.899Z</time></trkpt><trkpt lat="41.9482981" lon="1.6993752"><ele>598.0</ele><time>2026-04-25T10:40:19.898Z</time></trkpt><trkpt lat="41.94854" lon="1.6994949"><ele>600.0</ele><time>2026-04-25T10:40:20.898Z</time></trkpt><trkpt lat="41.948791" lon="1.6996163"><ele>600.0</ele><time>2026-04-25T10:40:21.899Z</time></trkpt><trkpt lat="41.9490415" lon="1.6997438"><ele>600.0</ele><time>2026-04-25T10:40:22.898Z</time></trkpt><trkpt lat="41.9492885" lon="1.6998641"><ele>604.0</ele><time>2026-04-25T10:40:23.898Z</time></trkpt><trkpt lat="41.9495281" lon="1.6999865"><ele>608.0</ele><time>2026-04-25T10:40:24.898Z</time></trkpt><trkpt lat="41.949766" lon="1.700109"><ele>608.0</ele><time>2026-04-25T10:40:25.898Z</time></trkpt><trkpt lat="41.9500046" lon="1.7002302"><ele>608.0</ele><time>2026-04-25T10:40:26.899Z</time></trkpt><trkpt lat="41.9502467" lon="1.7003498"><ele>607.5</ele><time>2026-04-25T10:40:27.899Z</time></trkpt><trkpt lat="41.9504718" lon="1.700462"><ele>607.0</ele><time>2026-04-25T10:40:28.898Z</time></trkpt><trkpt lat="41.9506727" lon="1.7005589"><ele>607.0</ele><time>2026-04-25T10:40:29.898Z</time></trkpt><trkpt lat="41.9508472" lon="1.7006475"><ele>607.0</ele><time>2026-04-25T10:40:30.898Z</time></trkpt><trkpt lat="41.9510117" lon="1.7007481"><ele>607.0</ele><time>2026-04-25T10:40:31.899Z</time></trkpt><trkpt lat="41.9511609" lon="1.7008935"><ele>605.0</ele><time>2026-04-25T10:40:32.898Z</time></trkpt><trkpt lat="41.9513007" lon="1.7010774"><ele>603.0</ele><time>2026-04-25T10:40:33.899Z</time></trkpt><trkpt lat="41.9514414" lon="1.701272"><ele>601.0</ele><time>2026-04-25T10:40:34.897Z</time></trkpt><trkpt lat="41.9515718" lon="1.7014448"><ele>598.6666666666667</ele><time>2026-04-25T10:40:35.899Z</time></trkpt><trkpt lat="41.9517111" lon="1.7015977"><ele>596.3333333333334</ele><time>2026-04-25T10:40:36.898Z</time></trkpt><trkpt lat="41.9518716" lon="1.7017225"><ele>594.0</ele><time>2026-04-25T10:40:37.898Z</time></trkpt><trkpt lat="41.9520521" lon="1.7018165"><ele>594.0</ele><time>2026-04-25T10:40:38.897Z</time></trkpt><trkpt lat="41.9522543" lon="1.701881"><ele>594.0</ele><time>2026-04-25T10:40:39.898Z</time></trkpt><trkpt lat="41.9524767" lon="1.7019323"><ele>594.0</ele><time>2026-04-25T10:40:40.898Z</time></trkpt><trkpt lat="41.9527167" lon="1.7019849"><ele>596.5</ele><time>2026-04-25T10:40:41.897Z</time></trkpt><trkpt lat="41.9529613" lon="1.7020339"><ele>599.0</ele><time>2026-04-25T10:40:42.898Z</time></trkpt><trkpt lat="41.9532111" lon="1.7020806"><ele>598.5</ele><time>2026-04-25T10:40:43.898Z</time></trkpt><trkpt lat="41.9534583" lon="1.7021234"><ele>598.0</ele><time>2026-04-25T10:40:44.897Z</time></trkpt><trkpt lat="41.953693" lon="1.7021686"><ele>598.0</ele><time>2026-04-25T10:40:45.899Z</time></trkpt><trkpt lat="41.9539203" lon="1.7022327"><ele>598.0</ele><time>2026-04-25T10:40:46.897Z</time></trkpt><trkpt lat="41.9541514" lon="1.7023254"><ele>593.5</ele><time>2026-04-25T10:40:47.898Z</time></trkpt><trkpt lat="41.9543898" lon="1.7024387"><ele>589.0</ele><time>2026-04-25T10:40:48.898Z</time></trkpt><trkpt lat="41.9546304" lon="1.7025558"><ele>589.0</ele><time>2026-04-25T10:40:49.899Z</time></trkpt><trkpt lat="41.954862" lon="1.7026679"><ele>589.0</ele><time>2026-04-25T10:40:50.897Z</time></trkpt><trkpt lat="41.9550741" lon="1.7027714"><ele>589.0</ele><time>2026-04-25T10:40:51.897Z</time></trkpt><trkpt lat="41.95527" lon="1.7028658"><ele>589.0</ele><time>2026-04-25T10:40:52.899Z</time></trkpt><trkpt lat="41.9554498" lon="1.7029479"><ele>589.0</ele><time>2026-04-25T10:40:53.898Z</time></trkpt><trkpt lat="41.955612" lon="1.7030229"><ele>589.0</ele><time>2026-04-25T10:40:54.898Z</time></trkpt><trkpt lat="41.9557564" lon="1.7030906"><ele>589.0</ele><time>2026-04-25T10:40:55.899Z</time></trkpt><trkpt lat="41.9558919" lon="1.7031478"><ele>589.0</ele><time>2026-04-25T10:40:56.898Z</time></trkpt><trkpt lat="41.9560284" lon="1.7031758"><ele>589.0</ele><time>2026-04-25T10:40:57.898Z</time></trkpt><trkpt lat="41.9561654" lon="1.7031447"><ele>589.3333333333334</ele><time>2026-04-25T10:40:58.897Z</time></trkpt><trkpt lat="41.9563055" lon="1.7030556"><ele>589.6666666666666</ele><time>2026-04-25T10:40:59.897Z</time></trkpt><trkpt lat="41.9564568" lon="1.7029242"><ele>590.0</ele><time>2026-04-25T10:41:00.898Z</time></trkpt><trkpt lat="41.9566142" lon="1.7027761"><ele>590.0</ele><time>2026-04-25T10:41:01.898Z</time></trkpt><trkpt lat="41.9567896" lon="1.7026177"><ele>590.0</ele><time>2026-04-25T10:41:02.897Z</time></trkpt><trkpt lat="41.9569863" lon="1.7024398"><ele>590.0</ele><time>2026-04-25T10:41:03.897Z</time></trkpt><trkpt lat="41.9571943" lon="1.70225"><ele>590.0</ele><time>2026-04-25T10:41:04.897Z</time></trkpt><trkpt lat="41.9574054" lon="1.7020616"><ele>590.0</ele><time>2026-04-25T10:41:05.899Z</time></trkpt><trkpt lat="41.9576093" lon="1.701877"><ele>591.0</ele><time>2026-04-25T10:41:06.899Z</time></trkpt><trkpt lat="41.9577998" lon="1.7017075"><ele>592.0</ele><time>2026-04-25T10:41:07.898Z</time></trkpt><trkpt lat="41.9579861" lon="1.7015655"><ele>593.0</ele><time>2026-04-25T10:41:08.899Z</time></trkpt><trkpt lat="41.9581742" lon="1.7014623"><ele>593.0</ele><time>2026-04-25T10:41:09.897Z</time></trkpt><trkpt lat="41.9583817" lon="1.7013908"><ele>593.0</ele><time>2026-04-25T10:41:10.899Z</time></trkpt><trkpt lat="41.9586071" lon="1.7013307"><ele>593.0</ele><time>2026-04-25T10:41:11.897Z</time></trkpt><trkpt lat="41.9588406" lon="1.7012642"><ele>593.0</ele><time>2026-04-25T10:41:12.898Z</time></trkpt><trkpt lat="41.959078" lon="1.7011927"><ele>593.0</ele><time>2026-04-25T10:41:13.899Z</time></trkpt><trkpt lat="41.9593152" lon="1.7011211"><ele>591.6666666666666</ele><time>2026-04-25T10:41:14.898Z</time></trkpt><trkpt lat="41.9595394" lon="1.7010535"><ele>590.3333333333334</ele><time>2026-04-25T10:41:15.898Z</time></trkpt><trkpt lat="41.9597436" lon="1.7009941"><ele>589.0</ele><time>2026-04-25T10:41:16.898Z</time></trkpt><trkpt lat="41.9599252" lon="1.7009576"><ele>588.0</ele><time>2026-04-25T10:41:17.897Z</time></trkpt><trkpt lat="41.9601056" lon="1.7009591"><ele>587.0</ele><time>2026-04-25T10:41:18.898Z</time></trkpt><trkpt lat="41.9603012" lon="1.7009991"><ele>586.0</ele><time>2026-04-25T10:41:19.898Z</time></trkpt><trkpt lat="41.9605167" lon="1.7010608"><ele>586.5</ele><time>2026-04-25T10:41:20.899Z</time></trkpt><trkpt lat="41.9607512" lon="1.7011341"><ele>587.0</ele><time>2026-04-25T10:41:21.897Z</time></trkpt><trkpt lat="41.960999" lon="1.7012089"><ele>585.5</ele><time>2026-04-25T10:41:22.897Z</time></trkpt><trkpt lat="41.9612632" lon="1.7012855"><ele>584.0</ele><time>2026-04-25T10:41:23.898Z</time></trkpt><trkpt lat="41.9615411" lon="1.7013722"><ele>582.5</ele><time>2026-04-25T10:41:24.898Z</time></trkpt><trkpt lat="41.9618294" lon="1.7014612"><ele>581.0</ele><time>2026-04-25T10:41:25.899Z</time></trkpt><trkpt lat="41.9621232" lon="1.701548"><ele>581.0</ele><time>2026-04-25T10:41:26.899Z</time></trkpt><trkpt lat="41.9624268" lon="1.7016397"><ele>581.0</ele><time>2026-04-25T10:41:27.897Z</time></trkpt><trkpt lat="41.9627319" lon="1.7017316"><ele>580.0</ele><time>2026-04-25T10:41:28.898Z</time></trkpt><trkpt lat="41.9630328" lon="1.7018195"><ele>579.0</ele><time>2026-04-25T10:41:29.898Z</time></trkpt><trkpt lat="41.9633353" lon="1.7019074"><ele>578.5</ele><time>2026-04-25T10:41:30.898Z</time></trkpt><trkpt lat="41.963641" lon="1.7019998"><ele>578.0</ele><time>2026-04-25T10:41:31.898Z</time></trkpt><trkpt lat="41.9639497" lon="1.7020935"><ele>577.0</ele><time>2026-04-25T10:41:32.899Z</time></trkpt><trkpt lat="41.9642615" lon="1.7021888"><ele>576.0</ele><time>2026-04-25T10:41:33.898Z</time></trkpt><trkpt lat="41.9645769" lon="1.7022894"><ele>576.0</ele><time>2026-04-25T10:41:34.898Z</time></trkpt><trkpt lat="41.9648919" lon="1.7023874"><ele>576.0</ele><time>2026-04-25T10:41:35.898Z</time></trkpt><trkpt lat="41.9652006" lon="1.702485"><ele>575.5</ele><time>2026-04-25T10:41:36.899Z</time></trkpt><trkpt lat="41.9655015" lon="1.7025792"><ele>575.0</ele><time>2026-04-25T10:41:37.898Z</time></trkpt><trkpt lat="41.9657997" lon="1.7026703"><ele>576.5</ele><time>2026-04-25T10:41:38.898Z</time></trkpt><trkpt lat="41.9661023" lon="1.7027613"><ele>578.0</ele><time>2026-04-25T10:41:39.899Z</time></trkpt><trkpt lat="41.9664083" lon="1.7028541"><ele>576.5</ele><time>2026-04-25T10:41:40.898Z</time></trkpt><trkpt lat="41.9667133" lon="1.7029471"><ele>575.0</ele><time>2026-04-25T10:41:41.898Z</time></trkpt><trkpt lat="41.9670118" lon="1.7030358"><ele>575.0</ele><time>2026-04-25T10:41:42.899Z</time></trkpt><trkpt lat="41.9673058" lon="1.7031258"><ele>575.0</ele><time>2026-04-25T10:41:43.898Z</time></trkpt><trkpt lat="41.9675978" lon="1.7032159"><ele>575.5</ele><time>2026-04-25T10:41:44.898Z</time></trkpt><trkpt lat="41.9678918" lon="1.7033065"><ele>576.0</ele><time>2026-04-25T10:41:45.898Z</time></trkpt><trkpt lat="41.9681865" lon="1.7033971"><ele>578.5</ele><time>2026-04-25T10:41:46.898Z</time></trkpt><trkpt lat="41.9684755" lon="1.7034833"><ele>581.0</ele><time>2026-04-25T10:41:47.898Z</time></trkpt><trkpt lat="41.9687491" lon="1.7035642"><ele>581.5</ele><time>2026-04-25T10:41:48.898Z</time></trkpt><trkpt lat="41.9690052" lon="1.7036448"><ele>582.0</ele><time>2026-04-25T10:41:49.898Z</time></trkpt><trkpt lat="41.9692363" lon="1.7037255"><ele>585.5</ele><time>2026-04-25T10:41:50.898Z</time></trkpt><trkpt lat="41.9694554" lon="1.7038072"><ele>589.0</ele><time>2026-04-25T10:41:51.898Z</time></trkpt><trkpt lat="41.9696712" lon="1.7038905"><ele>589.0</ele><time>2026-04-25T10:41:52.899Z</time></trkpt><trkpt lat="41.9698814" lon="1.7039767"><ele>589.0</ele><time>2026-04-25T10:41:53.898Z</time></trkpt><trkpt lat="41.9700815" lon="1.704079"><ele>589.0</ele><time>2026-04-25T10:41:54.898Z</time></trkpt><trkpt lat="41.9702771" lon="1.7042026"><ele>588.3333333333334</ele><time>2026-04-25T10:41:55.898Z</time></trkpt><trkpt lat="41.9704697" lon="1.7043525"><ele>587.6666666666666</ele><time>2026-04-25T10:41:56.897Z</time></trkpt><trkpt lat="41.9706552" lon="1.7045255"><ele>587.0</ele><time>2026-04-25T10:41:57.898Z</time></trkpt><trkpt lat="41.9708287" lon="1.7047041"><ele>588.3333333333333</ele><time>2026-04-25T10:41:58.899Z</time></trkpt><trkpt lat="41.9709909" lon="1.7048705"><ele>589.6666666666666</ele><time>2026-04-25T10:41:59.898Z</time></trkpt><trkpt lat="41.9711384" lon="1.7050144"><ele>591.0</ele><time>2026-04-25T10:42:00.899Z</time></trkpt><trkpt lat="41.9712869" lon="1.7051204"><ele>591.0</ele><time>2026-04-25T10:42:01.898Z</time></trkpt><trkpt lat="41.9714556" lon="1.7051797"><ele>591.0</ele><time>2026-04-25T10:42:02.898Z</time></trkpt><trkpt lat="41.9716427" lon="1.705197"><ele>591.0</ele><time>2026-04-25T10:42:03.898Z</time></trkpt><trkpt lat="41.971836" lon="1.7052004"><ele>592.0</ele><time>2026-04-25T10:42:04.898Z</time></trkpt><trkpt lat="41.9720197" lon="1.7052082"><ele>593.0</ele><time>2026-04-25T10:42:05.898Z</time></trkpt><trkpt lat="41.9721968" lon="1.7052477"><ele>594.0</ele><time>2026-04-25T10:42:06.897Z</time></trkpt><trkpt lat="41.972367" lon="1.7053359"><ele>594.6666666666666</ele><time>2026-04-25T10:42:07.899Z</time></trkpt><trkpt lat="41.9725329" lon="1.7054567"><ele>595.3333333333333</ele><time>2026-04-25T10:42:08.898Z</time></trkpt><trkpt lat="41.9726905" lon="1.7055817"><ele>596.0</ele><time>2026-04-25T10:42:09.898Z</time></trkpt><trkpt lat="41.9728175" lon="1.705707"><ele>596.0</ele><time>2026-04-25T10:42:10.899Z</time></trkpt><trkpt lat="41.9729138" lon="1.7058661"><ele>596.0</ele><time>2026-04-25T10:42:11.898Z</time></trkpt><trkpt lat="41.9729897" lon="1.7060531"><ele>596.0</ele><time>2026-04-25T10:42:12.897Z</time></trkpt><trkpt lat="41.9730583" lon="1.7062526"><ele>596.0</ele><time>2026-04-25T10:42:13.898Z</time></trkpt><trkpt lat="41.9731294" lon="1.7064253"><ele>596.0</ele><time>2026-04-25T10:42:14.898Z</time></trkpt><trkpt lat="41.9732266" lon="1.706586"><ele>596.0</ele><time>2026-04-25T10:42:15.899Z</time></trkpt><trkpt lat="41.9733482" lon="1.7067134"><ele>596.0</ele><time>2026-04-25T10:42:16.899Z</time></trkpt><trkpt lat="41.9734765" lon="1.7067923"><ele>596.0</ele><time>2026-04-25T10:42:17.897Z</time></trkpt><trkpt lat="41.973617" lon="1.7068129"><ele>596.0</ele><time>2026-04-25T10:42:18.898Z</time></trkpt><trkpt lat="41.973771" lon="1.70677"><ele>596.0</ele><time>2026-04-25T10:42:19.898Z</time></trkpt><trkpt lat="41.9739386" lon="1.706706"><ele>596.0</ele><time>2026-04-25T10:42:20.898Z</time></trkpt><trkpt lat="41.9741171" lon="1.7066478"><ele>596.0</ele><time>2026-04-25T10:42:21.898Z</time></trkpt><trkpt lat="41.9742945" lon="1.7066317"><ele>596.0</ele><time>2026-04-25T10:42:22.898Z</time></trkpt><trkpt lat="41.9744762" lon="1.7066487"><ele>595.6666666666666</ele><time>2026-04-25T10:42:23.898Z</time></trkpt><trkpt lat="41.9746623" lon="1.7067162"><ele>595.3333333333334</ele><time>2026-04-25T10:42:24.899Z</time></trkpt><trkpt lat="41.9748547" lon="1.7068007"><ele>595.0</ele><time>2026-04-25T10:42:25.898Z</time></trkpt><trkpt lat="41.975063" lon="1.7068953"><ele>599.0</ele><time>2026-04-25T10:42:26.897Z</time></trkpt><trkpt lat="41.9752816" lon="1.706996"><ele>603.0</ele><time>2026-04-25T10:42:27.899Z</time></trkpt><trkpt lat="41.9754986" lon="1.7070931"><ele>603.0</ele><time>2026-04-25T10:42:28.897Z</time></trkpt><trkpt lat="41.9757034" lon="1.7071974"><ele>603.0</ele><time>2026-04-25T10:42:29.898Z</time></trkpt><trkpt lat="41.9758991" lon="1.7073304"><ele>603.0</ele><time>2026-04-25T10:42:30.898Z</time></trkpt><trkpt lat="41.9760937" lon="1.7074951"><ele>603.5</ele><time>2026-04-25T10:42:31.899Z</time></trkpt><trkpt lat="41.9762888" lon="1.7076788"><ele>604.0</ele><time>2026-04-25T10:42:32.899Z</time></trkpt><trkpt lat="41.9764934" lon="1.7078664"><ele>606.0</ele><time>2026-04-25T10:42:33.899Z</time></trkpt><trkpt lat="41.9767002" lon="1.7080553"><ele>608.0</ele><time>2026-04-25T10:42:34.899Z</time></trkpt><trkpt lat="41.9769038" lon="1.7082414"><ele>608.0</ele><time>2026-04-25T10:42:35.898Z</time></trkpt><trkpt lat="41.9771044" lon="1.7084234"><ele>608.0</ele><time>2026-04-25T10:42:36.897Z</time></trkpt><trkpt lat="41.9772971" lon="1.7085984"><ele>610.3333333333333</ele><time>2026-04-25T10:42:37.899Z</time></trkpt><trkpt lat="41.9774828" lon="1.7087634"><ele>612.6666666666666</ele><time>2026-04-25T10:42:38.898Z</time></trkpt><trkpt lat="41.977649" lon="1.7089167"><ele>615.0</ele><time>2026-04-25T10:42:39.898Z</time></trkpt><trkpt lat="41.9777964" lon="1.709059"><ele>615.0</ele><time>2026-04-25T10:42:40.898Z</time></trkpt><trkpt lat="41.9779296" lon="1.709184"><ele>615.0</ele><time>2026-04-25T10:42:41.898Z</time></trkpt><trkpt lat="41.9780694" lon="1.7092969"><ele>615.0</ele><time>2026-04-25T10:42:42.899Z</time></trkpt><trkpt lat="41.9782095" lon="1.7093687"><ele>615.6666666666666</ele><time>2026-04-25T10:42:43.899Z</time></trkpt><trkpt lat="41.9783659" lon="1.7094036"><ele>616.3333333333333</ele><time>2026-04-25T10:42:44.899Z</time></trkpt><trkpt lat="41.9785415" lon="1.709424"><ele>617.0</ele><time>2026-04-25T10:42:45.898Z</time></trkpt><trkpt lat="41.9787293" lon="1.7094512"><ele>618.0</ele><time>2026-04-25T10:42:46.898Z</time></trkpt><trkpt lat="41.9789222" lon="1.7094822"><ele>619.0</ele><time>2026-04-25T10:42:47.899Z</time></trkpt><trkpt lat="41.9791297" lon="1.7095199"><ele>620.0</ele><time>2026-04-25T10:42:48.897Z</time></trkpt><trkpt lat="41.979341" lon="1.709582"><ele>621.5</ele><time>2026-04-25T10:42:49.898Z</time></trkpt><trkpt lat="41.9795579" lon="1.7096562"><ele>623.0</ele><time>2026-04-25T10:42:50.899Z</time></trkpt><trkpt lat="41.979778" lon="1.7097306"><ele>623.0</ele><time>2026-04-25T10:42:51.898Z</time></trkpt><trkpt lat="41.9799942" lon="1.7097921"><ele>623.0</ele><time>2026-04-25T10:42:52.899Z</time></trkpt><trkpt lat="41.9801976" lon="1.709836"><ele>623.0</ele><time>2026-04-25T10:42:53.898Z</time></trkpt><trkpt lat="41.9803796" lon="1.7098575"><ele>624.5</ele><time>2026-04-25T10:42:54.898Z</time></trkpt><trkpt lat="41.980536" lon="1.7098668"><ele>626.0</ele><time>2026-04-25T10:42:55.899Z</time></trkpt><trkpt lat="41.9806637" lon="1.7098711"><ele>627.5</ele><time>2026-04-25T10:42:56.898Z</time></trkpt><trkpt lat="41.9807743" lon="1.709874"><ele>629.0</ele><time>2026-04-25T10:42:57.898Z</time></trkpt><trkpt lat="41.9808919" lon="1.7098952"><ele>630.5</ele><time>2026-04-25T10:42:58.899Z</time></trkpt><trkpt lat="41.9810154" lon="1.7099504"><ele>632.0</ele><time>2026-04-25T10:42:59.899Z</time></trkpt><trkpt lat="41.9811301" lon="1.7100529"><ele>633.5</ele><time>2026-04-25T10:43:00.898Z</time></trkpt><trkpt lat="41.9812317" lon="1.7101986"><ele>635.0</ele><time>2026-04-25T10:43:01.898Z</time></trkpt><trkpt lat="41.9813394" lon="1.7103735"><ele>635.0</ele><time>2026-04-25T10:43:02.898Z</time></trkpt><trkpt lat="41.9814537" lon="1.710557"><ele>635.0</ele><time>2026-04-25T10:43:03.898Z</time></trkpt><trkpt lat="41.9815701" lon="1.7107416"><ele>635.0</ele><time>2026-04-25T10:43:04.899Z</time></trkpt><trkpt lat="41.9816815" lon="1.7109401"><ele>632.6666666666666</ele><time>2026-04-25T10:43:05.898Z</time></trkpt><trkpt lat="41.9817791" lon="1.7111453"><ele>630.3333333333334</ele><time>2026-04-25T10:43:06.899Z</time></trkpt><trkpt lat="41.9818709" lon="1.7113351"><ele>628.0</ele><time>2026-04-25T10:43:07.898Z</time></trkpt><trkpt lat="41.981987" lon="1.7115034"><ele>628.0</ele><time>2026-04-25T10:43:08.897Z</time></trkpt><trkpt lat="41.9821334" lon="1.7116495"><ele>628.0</ele><time>2026-04-25T10:43:09.898Z</time></trkpt><trkpt lat="41.9823037" lon="1.7118016"><ele>628.0</ele><time>2026-04-25T10:43:10.898Z</time></trkpt><trkpt lat="41.9824827" lon="1.7119646"><ele>629.3333333333334</ele><time>2026-04-25T10:43:11.898Z</time></trkpt><trkpt lat="41.9826649" lon="1.7121219"><ele>630.6666666666666</ele><time>2026-04-25T10:43:12.897Z</time></trkpt><trkpt lat="41.9828332" lon="1.7122723"><ele>632.0</ele><time>2026-04-25T10:43:13.898Z</time></trkpt><trkpt lat="41.982987" lon="1.7124135"><ele>632.0</ele><time>2026-04-25T10:43:14.898Z</time></trkpt><trkpt lat="41.9831275" lon="1.7125423"><ele>632.0</ele><time>2026-04-25T10:43:15.897Z</time></trkpt><trkpt lat="41.9832514" lon="1.7126768"><ele>632.0</ele><time>2026-04-25T10:43:16.898Z</time></trkpt><trkpt lat="41.9833501" lon="1.7128421"><ele>635.0</ele><time>2026-04-25T10:43:17.899Z</time></trkpt><trkpt lat="41.9834152" lon="1.7130446"><ele>638.0</ele><time>2026-04-25T10:43:18.898Z</time></trkpt><trkpt lat="41.9834624" lon="1.713257"><ele>641.0</ele><time>2026-04-25T10:43:19.898Z</time></trkpt><trkpt lat="41.9835198" lon="1.7134477"><ele>640.75</ele><time>2026-04-25T10:43:20.899Z</time></trkpt><trkpt lat="41.9835996" lon="1.7136125"><ele>640.5</ele><time>2026-04-25T10:43:21.898Z</time></trkpt><trkpt lat="41.9837064" lon="1.7137475"><ele>640.25</ele><time>2026-04-25T10:43:22.898Z</time></trkpt><trkpt lat="41.9838411" lon="1.7138504"><ele>640.0</ele><time>2026-04-25T10:43:23.898Z</time></trkpt><trkpt lat="41.9839986" lon="1.7139419"><ele>640.0</ele><time>2026-04-25T10:43:24.898Z</time></trkpt><trkpt lat="41.984168" lon="1.7140327"><ele>640.0</ele><time>2026-04-25T10:43:25.898Z</time></trkpt><trkpt lat="41.9843347" lon="1.7141171"><ele>640.0</ele><time>2026-04-25T10:43:26.897Z</time></trkpt><trkpt lat="41.9845001" lon="1.7141736"><ele>643.0</ele><time>2026-04-25T10:43:27.899Z</time></trkpt><trkpt lat="41.9846761" lon="1.7141934"><ele>646.0</ele><time>2026-04-25T10:43:28.898Z</time></trkpt><trkpt lat="41.9848633" lon="1.714185"><ele>649.0</ele><time>2026-04-25T10:43:29.898Z</time></trkpt><trkpt lat="41.9850672" lon="1.7141588"><ele>649.6666666666667</ele><time>2026-04-25T10:43:30.898Z</time></trkpt><trkpt lat="41.9852824" lon="1.7141269"><ele>650.3333333333334</ele><time>2026-04-25T10:43:31.898Z</time></trkpt><trkpt lat="41.985508" lon="1.7140917"><ele>651.0</ele><time>2026-04-25T10:43:32.898Z</time></trkpt><trkpt lat="41.9857389" lon="1.7140613"><ele>649.5</ele><time>2026-04-25T10:43:33.899Z</time></trkpt><trkpt lat="41.9859718" lon="1.7140349"><ele>648.0</ele><time>2026-04-25T10:43:34.898Z</time></trkpt><trkpt lat="41.9862147" lon="1.7140048"><ele>648.0</ele><time>2026-04-25T10:43:35.899Z</time></trkpt><trkpt lat="41.9864529" lon="1.7139703"><ele>648.0</ele><time>2026-04-25T10:43:36.898Z</time></trkpt><trkpt lat="41.9866799" lon="1.713927"><ele>651.5</ele><time>2026-04-25T10:43:37.898Z</time></trkpt><trkpt lat="41.9868975" lon="1.7138558"><ele>655.0</ele><time>2026-04-25T10:43:38.898Z</time></trkpt><trkpt lat="41.9871162" lon="1.7137519"><ele>655.0</ele><time>2026-04-25T10:43:39.898Z</time></trkpt><trkpt lat="41.9873387" lon="1.7136352"><ele>655.0</ele><time>2026-04-25T10:43:40.898Z</time></trkpt><trkpt lat="41.9875637" lon="1.7135157"><ele>661.0</ele><time>2026-04-25T10:43:41.899Z</time></trkpt><trkpt lat="41.98779" lon="1.7133912"><ele>667.0</ele><time>2026-04-25T10:43:42.897Z</time></trkpt><trkpt lat="41.988018" lon="1.7132684"><ele>667.0</ele><time>2026-04-25T10:43:43.898Z</time></trkpt><trkpt lat="41.988246" lon="1.7131426"><ele>667.0</ele><time>2026-04-25T10:43:44.899Z</time></trkpt><trkpt lat="41.9884736" lon="1.712999"><ele>667.5</ele><time>2026-04-25T10:43:45.898Z</time></trkpt><trkpt lat="41.9887014" lon="1.7128424"><ele>668.0</ele><time>2026-04-25T10:43:46.898Z</time></trkpt><trkpt lat="41.9889288" lon="1.7126779"><ele>667.5</ele><time>2026-04-25T10:43:47.898Z</time></trkpt><trkpt lat="41.9891543" lon="1.7125163"><ele>667.0</ele><time>2026-04-25T10:43:48.898Z</time></trkpt><trkpt lat="41.9893754" lon="1.712359"><ele>667.0</ele><time>2026-04-25T10:43:49.898Z</time></trkpt><trkpt lat="41.9895949" lon="1.7122037"><ele>667.0</ele><time>2026-04-25T10:43:50.898Z</time></trkpt><trkpt lat="41.9898124" lon="1.7120515"><ele>667.0</ele><time>2026-04-25T10:43:51.898Z</time></trkpt><trkpt lat="41.9900243" lon="1.7118943"><ele>667.0</ele><time>2026-04-25T10:43:52.898Z</time></trkpt><trkpt lat="41.9902344" lon="1.71174"><ele>667.0</ele><time>2026-04-25T10:43:53.898Z</time></trkpt><trkpt lat="41.9904393" lon="1.7115878"><ele>667.0</ele><time>2026-04-25T10:43:54.898Z</time></trkpt><trkpt lat="41.9906331" lon="1.7114498"><ele>667.0</ele><time>2026-04-25T10:43:55.899Z</time></trkpt><trkpt lat="41.9908138" lon="1.7113186"><ele>667.0</ele><time>2026-04-25T10:43:56.899Z</time></trkpt><trkpt lat="41.9909794" lon="1.711195"><ele>667.0</ele><time>2026-04-25T10:43:57.897Z</time></trkpt><trkpt lat="41.991149" lon="1.7110795"><ele>666.6666666666667</ele><time>2026-04-25T10:43:58.898Z</time></trkpt><trkpt lat="41.9913328" lon="1.7109928"><ele>666.3333333333334</ele><time>2026-04-25T10:43:59.898Z</time></trkpt><trkpt lat="41.991529" lon="1.7109379"><ele>666.0</ele><time>2026-04-25T10:44:00.898Z</time></trkpt><trkpt lat="41.9917246" lon="1.7109096"><ele>668.0</ele><time>2026-04-25T10:44:01.897Z</time></trkpt><trkpt lat="41.991904" lon="1.7108922"><ele>670.0</ele><time>2026-04-25T10:44:02.898Z</time></trkpt><trkpt lat="41.9920695" lon="1.7108734"><ele>672.0</ele><time>2026-04-25T10:44:03.899Z</time></trkpt><trkpt lat="41.9922258" lon="1.7108795"><ele>672.0</ele><time>2026-04-25T10:44:04.899Z</time></trkpt><trkpt lat="41.9923772" lon="1.710953"><ele>672.0</ele><time>2026-04-25T10:44:05.898Z</time></trkpt><trkpt lat="41.9925204" lon="1.7110766"><ele>672.0</ele><time>2026-04-25T10:44:06.898Z</time></trkpt><trkpt lat="41.9926637" lon="1.7112252"><ele>672.3333333333334</ele><time>2026-04-25T10:44:07.898Z</time></trkpt><trkpt lat="41.9928137" lon="1.7113747"><ele>672.6666666666667</ele><time>2026-04-25T10:44:08.898Z</time></trkpt><trkpt lat="41.9929582" lon="1.7115264"><ele>673.0</ele><time>2026-04-25T10:44:09.898Z</time></trkpt><trkpt lat="41.9930831" lon="1.7116733"><ele>673.0</ele><time>2026-04-25T10:44:10.898Z</time></trkpt><trkpt lat="41.993186" lon="1.711821"><ele>673.0</ele><time>2026-04-25T10:44:11.897Z</time></trkpt><trkpt lat="41.9932875" lon="1.7119585"><ele>673.0</ele><time>2026-04-25T10:44:12.898Z</time></trkpt><trkpt lat="41.9934133" lon="1.7120708"><ele>673.0</ele><time>2026-04-25T10:44:13.897Z</time></trkpt><trkpt lat="41.9935638" lon="1.7121519"><ele>675.0</ele><time>2026-04-25T10:44:14.897Z</time></trkpt><trkpt lat="41.9937198" lon="1.7122367"><ele>677.0</ele><time>2026-04-25T10:44:15.896Z</time></trkpt><trkpt lat="41.9938569" lon="1.7123401"><ele>679.0</ele><time>2026-04-25T10:44:16.897Z</time></trkpt><trkpt lat="41.9939678" lon="1.7124442"><ele>679.0</ele><time>2026-04-25T10:44:17.897Z</time></trkpt><trkpt lat="41.994044" lon="1.712557"><ele>679.0</ele><time>2026-04-25T10:44:18.897Z</time></trkpt><trkpt lat="41.9940801" lon="1.7127011"><ele>679.0</ele><time>2026-04-25T10:44:19.898Z</time></trkpt><trkpt lat="41.9940639" lon="1.7128534"><ele>679.0</ele><time>2026-04-25T10:44:20.897Z</time></trkpt><trkpt lat="41.9940294" lon="1.7129979"><ele>677.8000000000001</ele><time>2026-04-25T10:44:21.896Z</time></trkpt><trkpt lat="41.9940246" lon="1.7131439"><ele>676.6</ele><time>2026-04-25T10:44:22.896Z</time></trkpt><trkpt lat="41.9940563" lon="1.7132598"><ele>675.4</ele><time>2026-04-25T10:44:23.896Z</time></trkpt><trkpt lat="41.9941119" lon="1.7133478"><ele>674.2</ele><time>2026-04-25T10:44:24.897Z</time></trkpt><trkpt lat="41.9941947" lon="1.7133829"><ele>673.0</ele><time>2026-04-25T10:44:25.897Z</time></trkpt><trkpt lat="41.9942975" lon="1.713388"><ele>675.25</ele><time>2026-04-25T10:44:26.896Z</time></trkpt><trkpt lat="41.9944205" lon="1.7133884"><ele>677.5</ele><time>2026-04-25T10:44:27.897Z</time></trkpt><trkpt lat="41.9945549" lon="1.7134244"><ele>679.75</ele><time>2026-04-25T10:44:28.898Z</time></trkpt><trkpt lat="41.9946943" lon="1.7134934"><ele>682.0</ele><time>2026-04-25T10:44:29.896Z</time></trkpt><trkpt lat="41.994834" lon="1.7135859"><ele>682.0</ele><time>2026-04-25T10:44:30.898Z</time></trkpt><trkpt lat="41.9949601" lon="1.7136947"><ele>682.0</ele><time>2026-04-25T10:44:31.898Z</time></trkpt><trkpt lat="41.9950612" lon="1.7138074"><ele>682.0</ele><time>2026-04-25T10:44:32.898Z</time></trkpt><trkpt lat="41.995122" lon="1.7139527"><ele>682.0</ele><time>2026-04-25T10:44:33.898Z</time></trkpt><trkpt lat="41.9951423" lon="1.7141168"><ele>684.25</ele><time>2026-04-25T10:44:34.897Z</time></trkpt><trkpt lat="41.9951662" lon="1.7142582"><ele>686.5</ele><time>2026-04-25T10:44:35.897Z</time></trkpt><trkpt lat="41.9952275" lon="1.7143802"><ele>688.75</ele><time>2026-04-25T10:44:36.898Z</time></trkpt><trkpt lat="41.9953234" lon="1.7144576"><ele>691.0</ele><time>2026-04-25T10:44:37.897Z</time></trkpt><trkpt lat="41.9954436" lon="1.7144967"><ele>687.75</ele><time>2026-04-25T10:44:38.896Z</time></trkpt><trkpt lat="41.9955838" lon="1.7144983"><ele>684.5</ele><time>2026-04-25T10:44:39.898Z</time></trkpt><trkpt lat="41.9957271" lon="1.7144517"><ele>681.25</ele><time>2026-04-25T10:44:40.898Z</time></trkpt><trkpt lat="41.995872" lon="1.7143655"><ele>678.0</ele><time>2026-04-25T10:44:41.898Z</time></trkpt><trkpt lat="41.9960189" lon="1.7142651"><ele>678.0</ele><time>2026-04-25T10:44:42.898Z</time></trkpt><trkpt lat="41.99618" lon="1.7141552"><ele>678.0</ele><time>2026-04-25T10:44:43.897Z</time></trkpt><trkpt lat="41.9963492" lon="1.7140427"><ele>678.0</ele><time>2026-04-25T10:44:44.897Z</time></trkpt><trkpt lat="41.9965252" lon="1.71394"><ele>676.0</ele><time>2026-04-25T10:44:45.896Z</time></trkpt><trkpt lat="41.9967028" lon="1.7138485"><ele>674.0</ele><time>2026-04-25T10:44:46.897Z</time></trkpt><trkpt lat="41.9968715" lon="1.7137494"><ele>672.0</ele><time>2026-04-25T10:44:47.897Z</time></trkpt><trkpt lat="41.9970322" lon="1.7136267"><ele>681.6666666666666</ele><time>2026-04-25T10:44:48.898Z</time></trkpt><trkpt lat="41.9971869" lon="1.7135032"><ele>691.3333333333333</ele><time>2026-04-25T10:44:49.898Z</time></trkpt><trkpt lat="41.997351" lon="1.7134121"><ele>701.0</ele><time>2026-04-25T10:44:50.898Z</time></trkpt><trkpt lat="41.9975334" lon="1.713354"><ele>701.0</ele><time>2026-04-25T10:44:51.896Z</time></trkpt><trkpt lat="41.9977294" lon="1.7133226"><ele>701.0</ele><time>2026-04-25T10:44:52.897Z</time></trkpt><trkpt lat="41.9979352" lon="1.7132985"><ele>701.0</ele><time>2026-04-25T10:44:53.897Z</time></trkpt><trkpt lat="41.9981421" lon="1.7132882"><ele>703.0</ele><time>2026-04-25T10:44:54.897Z</time></trkpt><trkpt lat="41.9983391" lon="1.7132962"><ele>705.0</ele><time>2026-04-25T10:44:55.896Z</time></trkpt><trkpt lat="41.9985228" lon="1.713288"><ele>707.0</ele><time>2026-04-25T10:44:56.897Z</time></trkpt><trkpt lat="41.9986917" lon="1.7132614"><ele>707.0</ele><time>2026-04-25T10:44:57.897Z</time></trkpt><trkpt lat="41.9988403" lon="1.7132578"><ele>707.0</ele><time>2026-04-25T10:44:58.897Z</time></trkpt><trkpt lat="41.9989729" lon="1.7133003"><ele>707.0</ele><time>2026-04-25T10:44:59.897Z</time></trkpt><trkpt lat="41.9991033" lon="1.7133863"><ele>707.0</ele><time>2026-04-25T10:45:00.898Z</time></trkpt><trkpt lat="41.9992377" lon="1.7134756"><ele>708.6666666666666</ele><time>2026-04-25T10:45:01.898Z</time></trkpt><trkpt lat="41.9993818" lon="1.7135561"><ele>710.3333333333334</ele><time>2026-04-25T10:45:02.897Z</time></trkpt><trkpt lat="41.9995215" lon="1.7136582"><ele>712.0</ele><time>2026-04-25T10:45:03.896Z</time></trkpt><trkpt lat="41.9996404" lon="1.7138064"><ele>712.0</ele><time>2026-04-25T10:45:04.898Z</time></trkpt><trkpt lat="41.9997418" lon="1.7139655"><ele>712.0</ele><time>2026-04-25T10:45:05.897Z</time></trkpt><trkpt lat="41.9998308" lon="1.7141062"><ele>712.0</ele><time>2026-04-25T10:45:06.897Z</time></trkpt><trkpt lat="41.9999111" lon="1.7142196"><ele>712.0</ele><time>2026-04-25T10:45:07.897Z</time></trkpt><trkpt lat="41.9999841" lon="1.7143053"><ele>712.0</ele><time>2026-04-25T10:45:08.898Z</time></trkpt><trkpt lat="42.0000652" lon="1.7143519"><ele>712.0</ele><time>2026-04-25T10:45:09.897Z</time></trkpt><trkpt lat="42.0001556" lon="1.7143529"><ele>712.0</ele><time>2026-04-25T10:45:10.898Z</time></trkpt><trkpt lat="42.0002461" lon="1.7142963"><ele>712.0</ele><time>2026-04-25T10:45:11.897Z</time></trkpt><trkpt lat="42.0003287" lon="1.7141901"><ele>712.0</ele><time>2026-04-25T10:45:12.897Z</time></trkpt><trkpt lat="42.0004109" lon="1.7140442"><ele>712.0</ele><time>2026-04-25T10:45:13.896Z</time></trkpt><trkpt lat="42.0005015" lon="1.7138957"><ele>712.0</ele><time>2026-04-25T10:45:14.897Z</time></trkpt><trkpt lat="42.0006221" lon="1.71377"><ele>712.0</ele><time>2026-04-25T10:45:15.898Z</time></trkpt><trkpt lat="42.0007505" lon="1.7136642"><ele>712.0</ele><time>2026-04-25T10:45:16.896Z</time></trkpt><trkpt lat="42.0008635" lon="1.713532"><ele>714.6666666666667</ele><time>2026-04-25T10:45:17.896Z</time></trkpt><trkpt lat="42.0009699" lon="1.7133716"><ele>717.3333333333334</ele><time>2026-04-25T10:45:18.897Z</time></trkpt><trkpt lat="42.0010877" lon="1.7132166"><ele>720.0</ele><time>2026-04-25T10:45:19.898Z</time></trkpt><trkpt lat="42.001225" lon="1.7130827"><ele>720.0</ele><time>2026-04-25T10:45:20.897Z</time></trkpt><trkpt lat="42.0013709" lon="1.7129571"><ele>720.0</ele><time>2026-04-25T10:45:21.897Z</time></trkpt><trkpt lat="42.0015248" lon="1.712851"><ele>720.0</ele><time>2026-04-25T10:45:22.897Z</time></trkpt><trkpt lat="42.0016826" lon="1.7127618"><ele>723.0</ele><time>2026-04-25T10:45:23.898Z</time></trkpt><trkpt lat="42.0018384" lon="1.7126782"><ele>726.0</ele><time>2026-04-25T10:45:24.897Z</time></trkpt><trkpt lat="42.0019898" lon="1.7125998"><ele>729.0</ele><time>2026-04-25T10:45:25.897Z</time></trkpt><trkpt lat="42.0021317" lon="1.7125209"><ele>729.0</ele><time>2026-04-25T10:45:26.897Z</time></trkpt><trkpt lat="42.0022711" lon="1.7124425"><ele>729.0</ele><time>2026-04-25T10:45:27.896Z</time></trkpt><trkpt lat="42.002421" lon="1.7123937"><ele>729.0</ele><time>2026-04-25T10:45:28.897Z</time></trkpt><trkpt lat="42.0025821" lon="1.7123818"><ele>728.0</ele><time>2026-04-25T10:45:29.898Z</time></trkpt><trkpt lat="42.002748" lon="1.7124003"><ele>727.0</ele><time>2026-04-25T10:45:30.898Z</time></trkpt><trkpt lat="42.0029112" lon="1.7124292"><ele>726.0</ele><time>2026-04-25T10:45:31.898Z</time></trkpt><trkpt lat="42.0030601" lon="1.7124561"><ele>726.0</ele><time>2026-04-25T10:45:32.897Z</time></trkpt><trkpt lat="42.0031977" lon="1.7124771"><ele>726.0</ele><time>2026-04-25T10:45:33.897Z</time></trkpt><trkpt lat="42.0033306" lon="1.7124975"><ele>726.0</ele><time>2026-04-25T10:45:34.897Z</time></trkpt><trkpt lat="42.0034708" lon="1.7125243"><ele>726.0</ele><time>2026-04-25T10:45:35.896Z</time></trkpt><trkpt lat="42.003607" lon="1.7125836"><ele>726.75</ele><time>2026-04-25T10:45:36.896Z</time></trkpt><trkpt lat="42.0037302" lon="1.7126813"><ele>727.5</ele><time>2026-04-25T10:45:37.897Z</time></trkpt><trkpt lat="42.0038362" lon="1.7128036"><ele>728.25</ele><time>2026-04-25T10:45:38.897Z</time></trkpt><trkpt lat="42.0039294" lon="1.7129335"><ele>729.0</ele><time>2026-04-25T10:45:39.896Z</time></trkpt><trkpt lat="42.0040223" lon="1.7130459"><ele>727.0</ele><time>2026-04-25T10:45:40.897Z</time></trkpt><trkpt lat="42.0041293" lon="1.7131161"><ele>725.0</ele><time>2026-04-25T10:45:41.896Z</time></trkpt><trkpt lat="42.0042399" lon="1.7131721"><ele>723.0</ele><time>2026-04-25T10:45:42.896Z</time></trkpt><trkpt lat="42.0043316" lon="1.7132581"><ele>721.0</ele><time>2026-04-25T10:45:43.897Z</time></trkpt><trkpt lat="42.0044055" lon="1.7133829"><ele>721.0</ele><time>2026-04-25T10:45:44.897Z</time></trkpt><trkpt lat="42.0044452" lon="1.7135327"><ele>721.0</ele><time>2026-04-25T10:45:45.898Z</time></trkpt><trkpt lat="42.0044725" lon="1.7136782"><ele>721.0</ele><time>2026-04-25T10:45:46.898Z</time></trkpt><trkpt lat="42.004525" lon="1.7138113"><ele>721.0</ele><time>2026-04-25T10:45:47.897Z</time></trkpt><trkpt lat="42.0046102" lon="1.713917"><ele>720.0</ele><time>2026-04-25T10:45:48.897Z</time></trkpt><trkpt lat="42.0047154" lon="1.7139985"><ele>719.0</ele><time>2026-04-25T10:45:49.898Z</time></trkpt><trkpt lat="42.0048309" lon="1.7140558"><ele>718.0</ele><time>2026-04-25T10:45:50.896Z</time></trkpt><trkpt lat="42.0049471" lon="1.7140796"><ele>717.0</ele><time>2026-04-25T10:45:51.897Z</time></trkpt><trkpt lat="42.0050558" lon="1.7140918"><ele>717.0</ele><time>2026-04-25T10:45:52.897Z</time></trkpt><trkpt lat="42.0051523" lon="1.7141261"><ele>717.0</ele><time>2026-04-25T10:45:53.896Z</time></trkpt><trkpt lat="42.0052352" lon="1.7141857"><ele>717.0</ele><time>2026-04-25T10:45:54.897Z</time></trkpt><trkpt lat="42.005299" lon="1.7142804"><ele>717.0</ele><time>2026-04-25T10:45:55.898Z</time></trkpt><trkpt lat="42.0053522" lon="1.7144071"><ele>717.0</ele><time>2026-04-25T10:45:56.897Z</time></trkpt><trkpt lat="42.0054005" lon="1.7145362"><ele>712.8</ele><time>2026-04-25T10:45:57.897Z</time></trkpt><trkpt lat="42.0054495" lon="1.7146682"><ele>708.6</ele><time>2026-04-25T10:45:58.897Z</time></trkpt><trkpt lat="42.0054989" lon="1.7147957"><ele>704.4</ele><time>2026-04-25T10:45:59.897Z</time></trkpt><trkpt lat="42.0055485" lon="1.7149212"><ele>700.1999999999999</ele><time>2026-04-25T10:46:00.898Z</time></trkpt><trkpt lat="42.0055938" lon="1.7150428"><ele>696.0</ele><time>2026-04-25T10:46:01.897Z</time></trkpt><trkpt lat="42.0056405" lon="1.7151607"><ele>694.4</ele><time>2026-04-25T10:46:02.898Z</time></trkpt><trkpt lat="42.0056887" lon="1.7152803"><ele>692.8</ele><time>2026-04-25T10:46:03.896Z</time></trkpt><trkpt lat="42.0057387" lon="1.7154058"><ele>691.1999999999999</ele><time>2026-04-25T10:46:04.897Z</time></trkpt><trkpt lat="42.0057878" lon="1.7155369"><ele>689.5999999999999</ele><time>2026-04-25T10:46:05.897Z</time></trkpt><trkpt lat="42.0058396" lon="1.7156661"><ele>688.0</ele><time>2026-04-25T10:46:06.896Z</time></trkpt><trkpt lat="42.0058959" lon="1.7157963"><ele>690.5999999999999</ele><time>2026-04-25T10:46:07.897Z</time></trkpt><trkpt lat="42.0059552" lon="1.7159282"><ele>693.1999999999999</ele><time>2026-04-25T10:46:08.898Z</time></trkpt><trkpt lat="42.0060111" lon="1.7160526"><ele>695.8</ele><time>2026-04-25T10:46:09.897Z</time></trkpt><trkpt lat="42.0060647" lon="1.7161629"><ele>698.4</ele><time>2026-04-25T10:46:10.897Z</time></trkpt><trkpt lat="42.0061314" lon="1.7162582"><ele>701.0</ele><time>2026-04-25T10:46:11.898Z</time></trkpt><trkpt lat="42.0062205" lon="1.7163238"><ele>701.0</ele><time>2026-04-25T10:46:12.897Z</time></trkpt><trkpt lat="42.006328" lon="1.7163673"><ele>701.0</ele><time>2026-04-25T10:46:13.898Z</time></trkpt><trkpt lat="42.0064476" lon="1.7163986"><ele>701.0</ele><time>2026-04-25T10:46:14.896Z</time></trkpt><trkpt lat="42.0065669" lon="1.716428"><ele>701.0</ele><time>2026-04-25T10:46:15.898Z</time></trkpt><trkpt lat="42.0066898" lon="1.7164598"><ele>702.5999999999999</ele><time>2026-04-25T10:46:16.897Z</time></trkpt><trkpt lat="42.0068081" lon="1.7164949"><ele>704.2</ele><time>2026-04-25T10:46:17.898Z</time></trkpt><trkpt lat="42.0069193" lon="1.7165279"><ele>705.8</ele><time>2026-04-25T10:46:18.898Z</time></trkpt><trkpt lat="42.0070191" lon="1.7165502"><ele>707.4000000000001</ele><time>2026-04-25T10:46:19.898Z</time></trkpt><trkpt lat="42.0071103" lon="1.716554"><ele>709.0</ele><time>2026-04-25T10:46:20.898Z</time></trkpt><trkpt lat="42.0071941" lon="1.7165247"><ele>709.0</ele><time>2026-04-25T10:46:21.896Z</time></trkpt><trkpt lat="42.0072774" lon="1.7164661"><ele>709.0</ele><time>2026-04-25T10:46:22.898Z</time></trkpt><trkpt lat="42.0073645" lon="1.7163897"><ele>709.0</ele><time>2026-04-25T10:46:23.898Z</time></trkpt><trkpt lat="42.0074561" lon="1.7163032"><ele>709.0</ele><time>2026-04-25T10:46:24.897Z</time></trkpt><trkpt lat="42.0075543" lon="1.7162151"><ele>709.0</ele><time>2026-04-25T10:46:25.898Z</time></trkpt><trkpt lat="42.0076557" lon="1.7161249"><ele>715.0</ele><time>2026-04-25T10:46:26.898Z</time></trkpt><trkpt lat="42.0077594" lon="1.7160346"><ele>721.0</ele><time>2026-04-25T10:46:27.897Z</time></trkpt><trkpt lat="42.0078639" lon="1.7159493"><ele>727.0</ele><time>2026-04-25T10:46:28.898Z</time></trkpt><trkpt lat="42.0079739" lon="1.715878"><ele>733.0</ele><time>2026-04-25T10:46:29.897Z</time></trkpt><trkpt lat="42.0080833" lon="1.7158192"><ele>733.0</ele><time>2026-04-25T10:46:30.896Z</time></trkpt><trkpt lat="42.0081883" lon="1.715769"><ele>733.0</ele><time>2026-04-25T10:46:31.898Z</time></trkpt><trkpt lat="42.0082906" lon="1.7157241"><ele>733.0</ele><time>2026-04-25T10:46:32.897Z</time></trkpt><trkpt lat="42.0083901" lon="1.7157105"><ele>733.0</ele><time>2026-04-25T10:46:33.898Z</time></trkpt><trkpt lat="42.0084959" lon="1.7157316"><ele>733.0</ele><time>2026-04-25T10:46:34.897Z</time></trkpt><trkpt lat="42.0085949" lon="1.715796"><ele>727.5</ele><time>2026-04-25T10:46:35.897Z</time></trkpt><trkpt lat="42.0086887" lon="1.7158839"><ele>722.0</ele><time>2026-04-25T10:46:36.897Z</time></trkpt><trkpt lat="42.0087799" lon="1.7159779"><ele>716.5</ele><time>2026-04-25T10:46:37.897Z</time></trkpt><trkpt lat="42.0088679" lon="1.7160778"><ele>711.0</ele><time>2026-04-25T10:46:38.897Z</time></trkpt><trkpt lat="42.0089576" lon="1.7161792"><ele>708.5</ele><time>2026-04-25T10:46:39.897Z</time></trkpt><trkpt lat="42.0090463" lon="1.7162849"><ele>706.0</ele><time>2026-04-25T10:46:40.898Z</time></trkpt><trkpt lat="42.0091368" lon="1.7163897"><ele>703.5</ele><time>2026-04-25T10:46:41.898Z</time></trkpt><trkpt lat="42.0092311" lon="1.7164972"><ele>701.0</ele><time>2026-04-25T10:46:42.898Z</time></trkpt><trkpt lat="42.0093305" lon="1.7166059"><ele>701.0</ele><time>2026-04-25T10:46:43.897Z</time></trkpt><trkpt lat="42.0094326" lon="1.7167204"><ele>701.0</ele><time>2026-04-25T10:46:44.897Z</time></trkpt><trkpt lat="42.0095355" lon="1.7168409"><ele>701.0</ele><time>2026-04-25T10:46:45.898Z</time></trkpt><trkpt lat="42.0096396" lon="1.7169467"><ele>701.0</ele><time>2026-04-25T10:46:46.897Z</time></trkpt><trkpt lat="42.0097542" lon="1.7170343"><ele>701.5</ele><time>2026-04-25T10:46:47.897Z</time></trkpt><trkpt lat="42.0098814" lon="1.7170916"><ele>702.0</ele><time>2026-04-25T10:46:48.897Z</time></trkpt><trkpt lat="42.010014" lon="1.7171392"><ele>702.5</ele><time>2026-04-25T10:46:49.897Z</time></trkpt><trkpt lat="42.0101473" lon="1.7171856"><ele>703.0</ele><time>2026-04-25T10:46:50.898Z</time></trkpt><trkpt lat="42.0102775" lon="1.7172312"><ele>703.0</ele><time>2026-04-25T10:46:51.896Z</time></trkpt><trkpt lat="42.0104082" lon="1.7172786"><ele>703.0</ele><time>2026-04-25T10:46:52.897Z</time></trkpt><trkpt lat="42.010538" lon="1.717323"><ele>703.0</ele><time>2026-04-25T10:46:53.898Z</time></trkpt><trkpt lat="42.0106679" lon="1.7173611"><ele>703.0</ele><time>2026-04-25T10:46:54.898Z</time></trkpt><trkpt lat="42.0108047" lon="1.7173945"><ele>705.0</ele><time>2026-04-25T10:46:55.897Z</time></trkpt><trkpt lat="42.0109508" lon="1.7174199"><ele>707.0</ele><time>2026-04-25T10:46:56.897Z</time></trkpt><trkpt lat="42.0111025" lon="1.7174432"><ele>709.0</ele><time>2026-04-25T10:46:57.898Z</time></trkpt><trkpt lat="42.0112578" lon="1.7174647"><ele>709.0</ele><time>2026-04-25T10:46:58.897Z</time></trkpt><trkpt lat="42.0114116" lon="1.7174896"><ele>709.0</ele><time>2026-04-25T10:46:59.897Z</time></trkpt><trkpt lat="42.0115587" lon="1.7175157"><ele>709.0</ele><time>2026-04-25T10:47:00.898Z</time></trkpt><trkpt lat="42.0116986" lon="1.7175462"><ele>709.0</ele><time>2026-04-25T10:47:01.896Z</time></trkpt><trkpt lat="42.0118319" lon="1.7175898"><ele>709.0</ele><time>2026-04-25T10:47:02.898Z</time></trkpt><trkpt lat="42.0119632" lon="1.7176469"><ele>709.0</ele><time>2026-04-25T10:47:03.897Z</time></trkpt><trkpt lat="42.0121002" lon="1.7177113"><ele>709.0</ele><time>2026-04-25T10:47:04.897Z</time></trkpt><trkpt lat="42.0122515" lon="1.7177878"><ele>709.0</ele><time>2026-04-25T10:47:05.897Z</time></trkpt><trkpt lat="42.0124217" lon="1.7178682"><ele>707.3333333333334</ele><time>2026-04-25T10:47:06.896Z</time></trkpt><trkpt lat="42.012604" lon="1.7179579"><ele>705.6666666666666</ele><time>2026-04-25T10:47:07.897Z</time></trkpt><trkpt lat="42.0128005" lon="1.7180486"><ele>704.0</ele><time>2026-04-25T10:47:08.897Z</time></trkpt><trkpt lat="42.0130044" lon="1.7181439"><ele>704.0</ele><time>2026-04-25T10:47:09.897Z</time></trkpt><trkpt lat="42.0132122" lon="1.7182448"><ele>704.0</ele><time>2026-04-25T10:47:10.898Z</time></trkpt><trkpt lat="42.0134207" lon="1.7183606"><ele>704.0</ele><time>2026-04-25T10:47:11.897Z</time></trkpt><trkpt lat="42.0136292" lon="1.7184787"><ele>704.3333333333333</ele><time>2026-04-25T10:47:12.897Z</time></trkpt><trkpt lat="42.013837" lon="1.7185831"><ele>704.6666666666666</ele><time>2026-04-25T10:47:13.897Z</time></trkpt><trkpt lat="42.0140413" lon="1.718684"><ele>705.0</ele><time>2026-04-25T10:47:14.898Z</time></trkpt><trkpt lat="42.0142436" lon="1.7187855"><ele>706.6666666666666</ele><time>2026-04-25T10:47:15.897Z</time></trkpt><trkpt lat="42.0144431" lon="1.7188836"><ele>708.3333333333333</ele><time>2026-04-25T10:47:16.897Z</time></trkpt><trkpt lat="42.0146341" lon="1.7189766"><ele>710.0</ele><time>2026-04-25T10:47:17.898Z</time></trkpt><trkpt lat="42.0148131" lon="1.7190623"><ele>710.0</ele><time>2026-04-25T10:47:18.897Z</time></trkpt><trkpt lat="42.0149831" lon="1.7191502"><ele>710.0</ele><time>2026-04-25T10:47:19.896Z</time></trkpt><trkpt lat="42.015145" lon="1.7192398"><ele>710.0</ele><time>2026-04-25T10:47:20.898Z</time></trkpt><trkpt lat="42.0152968" lon="1.7193563"><ele>710.3333333333333</ele><time>2026-04-25T10:47:21.896Z</time></trkpt><trkpt lat="42.0154438" lon="1.719508"><ele>710.6666666666666</ele><time>2026-04-25T10:47:22.898Z</time></trkpt><trkpt lat="42.0155927" lon="1.7196775"><ele>711.0</ele><time>2026-04-25T10:47:23.896Z</time></trkpt><trkpt lat="42.0157426" lon="1.7198523"><ele>711.3333333333334</ele><time>2026-04-25T10:47:24.897Z</time></trkpt><trkpt lat="42.0158935" lon="1.7200249"><ele>711.6666666666667</ele><time>2026-04-25T10:47:25.897Z</time></trkpt><trkpt lat="42.0160439" lon="1.7201813"><ele>712.0</ele><time>2026-04-25T10:47:26.897Z</time></trkpt><trkpt lat="42.0162021" lon="1.7203208"><ele>712.0</ele><time>2026-04-25T10:47:27.897Z</time></trkpt><trkpt lat="42.0163641" lon="1.7204651"><ele>712.0</ele><time>2026-04-25T10:47:28.898Z</time></trkpt><trkpt lat="42.0165254" lon="1.7206305"><ele>712.0</ele><time>2026-04-25T10:47:29.898Z</time></trkpt><trkpt lat="42.0166854" lon="1.7208074"><ele>712.3333333333334</ele><time>2026-04-25T10:47:30.897Z</time></trkpt><trkpt lat="42.0168508" lon="1.7209802"><ele>712.6666666666666</ele><time>2026-04-25T10:47:31.898Z</time></trkpt><trkpt lat="42.0170248" lon="1.7211592"><ele>713.0</ele><time>2026-04-25T10:47:32.898Z</time></trkpt><trkpt lat="42.017204" lon="1.7213487"><ele>713.5</ele><time>2026-04-25T10:47:33.896Z</time></trkpt><trkpt lat="42.0173922" lon="1.7215343"><ele>714.0</ele><time>2026-04-25T10:47:34.897Z</time></trkpt><trkpt lat="42.0175792" lon="1.7217054"><ele>714.0</ele><time>2026-04-25T10:47:35.897Z</time></trkpt><trkpt lat="42.0177553" lon="1.7218524"><ele>714.0</ele><time>2026-04-25T10:47:36.897Z</time></trkpt><trkpt lat="42.017913" lon="1.7219737"><ele>714.0</ele><time>2026-04-25T10:47:37.897Z</time></trkpt><trkpt lat="42.0180551" lon="1.7220747"><ele>714.0</ele><time>2026-04-25T10:47:38.897Z</time></trkpt><trkpt lat="42.018179" lon="1.7221545"><ele>714.0</ele><time>2026-04-25T10:47:39.897Z</time></trkpt><trkpt lat="42.0182892" lon="1.7222301"><ele>714.0</ele><time>2026-04-25T10:47:40.897Z</time></trkpt><trkpt lat="42.0183785" lon="1.7223105"><ele>714.0</ele><time>2026-04-25T10:47:41.896Z</time></trkpt><trkpt lat="42.0184475" lon="1.7224049"><ele>714.4000000000001</ele><time>2026-04-25T10:47:42.896Z</time></trkpt><trkpt lat="42.0185026" lon="1.7225012"><ele>714.8</ele><time>2026-04-25T10:47:43.898Z</time></trkpt><trkpt lat="42.0185805" lon="1.7225781"><ele>715.2</ele><time>2026-04-25T10:47:44.897Z</time></trkpt><trkpt lat="42.0186792" lon="1.7226151"><ele>715.5999999999999</ele><time>2026-04-25T10:47:45.898Z</time></trkpt><trkpt lat="42.0187896" lon="1.722613"><ele>716.0</ele><time>2026-04-25T10:47:46.897Z</time></trkpt><trkpt lat="42.0189134" lon="1.7226208"><ele>716.0</ele><time>2026-04-25T10:47:47.897Z</time></trkpt><trkpt lat="42.019042" lon="1.7226607"><ele>716.0</ele><time>2026-04-25T10:47:48.897Z</time></trkpt><trkpt lat="42.0191773" lon="1.7227108"><ele>716.0</ele><time>2026-04-25T10:47:49.897Z</time></trkpt><trkpt lat="42.0193328" lon="1.7227608"><ele>716.0</ele><time>2026-04-25T10:47:50.897Z</time></trkpt><trkpt lat="42.0195016" lon="1.7228003"><ele>716.6666666666666</ele><time>2026-04-25T10:47:51.898Z</time></trkpt><trkpt lat="42.019677" lon="1.7228419"><ele>717.3333333333334</ele><time>2026-04-25T10:47:52.898Z</time></trkpt><trkpt lat="42.0198565" lon="1.7228772"><ele>718.0</ele><time>2026-04-25T10:47:53.897Z</time></trkpt><trkpt lat="42.0200436" lon="1.7229081"><ele>720.0</ele><time>2026-04-25T10:47:54.897Z</time></trkpt><trkpt lat="42.0202314" lon="1.7229413"><ele>722.0</ele><time>2026-04-25T10:47:55.897Z</time></trkpt><trkpt lat="42.0204165" lon="1.722978"><ele>724.0</ele><time>2026-04-25T10:47:56.896Z</time></trkpt><trkpt lat="42.0205992" lon="1.7230121"><ele>724.0</ele><time>2026-04-25T10:47:57.896Z</time></trkpt><trkpt lat="42.0207798" lon="1.7230447"><ele>724.0</ele><time>2026-04-25T10:47:58.898Z</time></trkpt><trkpt lat="42.020958" lon="1.7230781"><ele>724.0</ele><time>2026-04-25T10:47:59.898Z</time></trkpt><trkpt lat="42.0211335" lon="1.7231117"><ele>725.3333333333334</ele><time>2026-04-25T10:48:00.897Z</time></trkpt><trkpt lat="42.0213116" lon="1.7231436"><ele>726.6666666666666</ele><time>2026-04-25T10:48:01.898Z</time></trkpt><trkpt lat="42.0214951" lon="1.7231749"><ele>728.0</ele><time>2026-04-25T10:48:02.897Z</time></trkpt><trkpt lat="42.0216829" lon="1.7232085"><ele>729.0</ele><time>2026-04-25T10:48:03.897Z</time></trkpt><trkpt lat="42.0218757" lon="1.7232474"><ele>730.0</ele><time>2026-04-25T10:48:04.897Z</time></trkpt><trkpt lat="42.0220681" lon="1.7232884"><ele>731.0</ele><time>2026-04-25T10:48:05.896Z</time></trkpt><trkpt lat="42.0222602" lon="1.7233284"><ele>731.0</ele><time>2026-04-25T10:48:06.898Z</time></trkpt><trkpt lat="42.0224473" lon="1.7233761"><ele>731.0</ele><time>2026-04-25T10:48:07.898Z</time></trkpt><trkpt lat="42.0226193" lon="1.7234326"><ele>731.0</ele><time>2026-04-25T10:48:08.897Z</time></trkpt><trkpt lat="42.0227692" lon="1.7234977"><ele>731.5999999999999</ele><time>2026-04-25T10:48:09.897Z</time></trkpt><trkpt lat="42.0228944" lon="1.7235567"><ele>732.2</ele><time>2026-04-25T10:48:10.897Z</time></trkpt><trkpt lat="42.0229957" lon="1.7236151"><ele>732.8</ele><time>2026-04-25T10:48:11.897Z</time></trkpt><trkpt lat="42.0230714" lon="1.723684"><ele>733.4000000000001</ele><time>2026-04-25T10:48:12.896Z</time></trkpt><trkpt lat="42.0231301" lon="1.7237782"><ele>734.0</ele><time>2026-04-25T10:48:13.897Z</time></trkpt><trkpt lat="42.0231774" lon="1.7238794"><ele>734.3333333333333</ele><time>2026-04-25T10:48:14.898Z</time></trkpt><trkpt lat="42.0232344" lon="1.7239567"><ele>734.6666666666666</ele><time>2026-04-25T10:48:15.898Z</time></trkpt><trkpt lat="42.0233155" lon="1.7239828"><ele>735.0</ele><time>2026-04-25T10:48:16.897Z</time></trkpt><trkpt lat="42.0233919" lon="1.723961"><ele>735.3333333333334</ele><time>2026-04-25T10:48:17.897Z</time></trkpt><trkpt lat="42.0234507" lon="1.7238977"><ele>735.6666666666667</ele><time>2026-04-25T10:48:18.898Z</time></trkpt><trkpt lat="42.0234856" lon="1.7238038"><ele>736.0</ele><time>2026-04-25T10:48:19.898Z</time></trkpt><trkpt lat="42.0234775" lon="1.7237005"><ele>736.0</ele><time>2026-04-25T10:48:20.897Z</time></trkpt><trkpt lat="42.0234415" lon="1.7236023"><ele>736.0</ele><time>2026-04-25T10:48:21.896Z</time></trkpt><trkpt lat="42.0233635" lon="1.7235517"><ele>736.0</ele><time>2026-04-25T10:48:22.897Z</time></trkpt><trkpt lat="42.0232777" lon="1.7235376"><ele>736.0</ele><time>2026-04-25T10:48:23.897Z</time></trkpt><trkpt lat="42.0231764" lon="1.7235541"><ele>736.0</ele><time>2026-04-25T10:48:24.898Z</time></trkpt><trkpt lat="42.0230556" lon="1.7235702"><ele>735.5</ele><time>2026-04-25T10:48:25.898Z</time></trkpt><trkpt lat="42.0229394" lon="1.723539"><ele>735.0</ele><time>2026-04-25T10:48:26.898Z</time></trkpt><trkpt lat="42.0228101" lon="1.7234831"><ele>734.5</ele><time>2026-04-25T10:48:27.896Z</time></trkpt><trkpt lat="42.0226559" lon="1.7234194"><ele>734.0</ele><time>2026-04-25T10:48:28.898Z</time></trkpt><trkpt lat="42.0224777" lon="1.7233603"><ele>733.0</ele><time>2026-04-25T10:48:29.896Z</time></trkpt><trkpt lat="42.0222766" lon="1.7233003"><ele>732.0</ele><time>2026-04-25T10:48:30.897Z</time></trkpt><trkpt lat="42.0220639" lon="1.7232489"><ele>731.0</ele><time>2026-04-25T10:48:31.897Z</time></trkpt><trkpt lat="42.0218239" lon="1.723204"><ele>729.5</ele><time>2026-04-25T10:48:32.896Z</time></trkpt><trkpt lat="42.0215627" lon="1.7231548"><ele>728.0</ele><time>2026-04-25T10:48:33.898Z</time></trkpt><trkpt lat="42.0212886" lon="1.7230986"><ele>728.0</ele><time>2026-04-25T10:48:34.897Z</time></trkpt><trkpt lat="42.0210063" lon="1.7230478"><ele>728.0</ele><time>2026-04-25T10:48:35.897Z</time></trkpt><trkpt lat="42.0207234" lon="1.7229982"><ele>726.0</ele><time>2026-04-25T10:48:36.898Z</time></trkpt><trkpt lat="42.0204514" lon="1.7229512"><ele>724.0</ele><time>2026-04-25T10:48:37.897Z</time></trkpt><trkpt lat="42.0201975" lon="1.722906"><ele>721.0</ele><time>2026-04-25T10:48:38.897Z</time></trkpt><trkpt lat="42.0199564" lon="1.7228628"><ele>718.0</ele><time>2026-04-25T10:48:39.898Z</time></trkpt><trkpt lat="42.0197282" lon="1.7228216"><ele>718.0</ele><time>2026-04-25T10:48:40.898Z</time></trkpt><trkpt lat="42.0195214" lon="1.7227814"><ele>718.0</ele><time>2026-04-25T10:48:41.897Z</time></trkpt><trkpt lat="42.0193381" lon="1.722734"><ele>718.0</ele><time>2026-04-25T10:48:42.897Z</time></trkpt><trkpt lat="42.0191829" lon="1.7226834"><ele>717.5999999999999</ele><time>2026-04-25T10:48:43.897Z</time></trkpt><trkpt lat="42.0190533" lon="1.7226239"><ele>717.1999999999999</ele><time>2026-04-25T10:48:44.896Z</time></trkpt><trkpt lat="42.0189509" lon="1.7225584"><ele>716.8</ele><time>2026-04-25T10:48:45.897Z</time></trkpt><trkpt lat="42.0188756" lon="1.7224768"><ele>716.4</ele><time>2026-04-25T10:48:46.897Z</time></trkpt><trkpt lat="42.018821" lon="1.7223817"><ele>716.0</ele><time>2026-04-25T10:48:47.896Z</time></trkpt><trkpt lat="42.018775" lon="1.7222807"><ele>716.0000000000001</ele><time>2026-04-25T10:48:48.898Z</time></trkpt><trkpt lat="42.0187144" lon="1.7221993"><ele>716.0</ele><time>2026-04-25T10:48:49.898Z</time></trkpt><trkpt lat="42.0186374" lon="1.7221806"><ele>716.0</ele><time>2026-04-25T10:48:50.897Z</time></trkpt><trkpt lat="42.0185607" lon="1.7221934"><ele>716.0</ele><time>2026-04-25T10:48:51.897Z</time></trkpt><trkpt lat="42.0184996" lon="1.7222422"><ele>716.0</ele><time>2026-04-25T10:48:52.897Z</time></trkpt><trkpt lat="42.0184647" lon="1.722317"><ele>716.0000000000001</ele><time>2026-04-25T10:48:53.897Z</time></trkpt><trkpt lat="42.0184547" lon="1.7224119"><ele>716.0</ele><time>2026-04-25T10:48:54.897Z</time></trkpt><trkpt lat="42.0184705" lon="1.7225206"><ele>716.0</ele><time>2026-04-25T10:48:55.897Z</time></trkpt><trkpt lat="42.018491" lon="1.722641"><ele>716.0</ele><time>2026-04-25T10:48:56.896Z</time></trkpt><trkpt lat="42.0184832" lon="1.7227495"><ele>716.0</ele><time>2026-04-25T10:48:57.896Z</time></trkpt><trkpt lat="42.0184599" lon="1.7228442"><ele>716.0</ele><time>2026-04-25T10:48:58.898Z</time></trkpt><trkpt lat="42.0184319" lon="1.7229338"><ele>716.0</ele><time>2026-04-25T10:48:59.898Z</time></trkpt><trkpt lat="42.0184141" lon="1.7230243"><ele>716.0</ele><time>2026-04-25T10:49:00.896Z</time></trkpt><trkpt lat="42.0184131" lon="1.7231151"><ele>716.1666666666666</ele><time>2026-04-25T10:49:01.898Z</time></trkpt><trkpt lat="42.0184325" lon="1.7232678"><ele>716.3333333333333</ele><time>2026-04-25T10:49:03.897Z</time></trkpt><trkpt lat="42.0184547" lon="1.7233579"><ele>716.5</ele><time>2026-04-25T10:49:04.898Z</time></trkpt><trkpt lat="42.0184877" lon="1.7234535"><ele>716.6666666666666</ele><time>2026-04-25T10:49:05.898Z</time></trkpt><trkpt lat="42.0185312" lon="1.7235441"><ele>716.8333333333334</ele><time>2026-04-25T10:49:06.898Z</time></trkpt><trkpt lat="42.0185777" lon="1.7236384"><ele>717.0</ele><time>2026-04-25T10:49:07.896Z</time></trkpt><trkpt lat="42.0186208" lon="1.7237345"><ele>718.4000000000001</ele><time>2026-04-25T10:49:08.898Z</time></trkpt><trkpt lat="42.0186666" lon="1.7238392"><ele>719.8000000000001</ele><time>2026-04-25T10:49:09.898Z</time></trkpt><trkpt lat="42.0187113" lon="1.7239545"><ele>721.2</ele><time>2026-04-25T10:49:10.897Z</time></trkpt><trkpt lat="42.0187542" lon="1.7240837"><ele>722.6</ele><time>2026-04-25T10:49:11.898Z</time></trkpt><trkpt lat="42.018794" lon="1.7242183"><ele>724.0</ele><time>2026-04-25T10:49:12.897Z</time></trkpt><trkpt lat="42.0188312" lon="1.7243724"><ele>725.0</ele><time>2026-04-25T10:49:13.897Z</time></trkpt><trkpt lat="42.0188661" lon="1.724542"><ele>726.0</ele><time>2026-04-25T10:49:14.897Z</time></trkpt><trkpt lat="42.0189057" lon="1.7247269"><ele>727.0</ele><time>2026-04-25T10:49:15.896Z</time></trkpt><trkpt lat="42.01895" lon="1.7249211"><ele>728.0</ele><time>2026-04-25T10:49:16.896Z</time></trkpt><trkpt lat="42.0189941" lon="1.7251179"><ele>728.6666666666666</ele><time>2026-04-25T10:49:17.898Z</time></trkpt><trkpt lat="42.0190385" lon="1.7253228"><ele>729.3333333333334</ele><time>2026-04-25T10:49:18.898Z</time></trkpt><trkpt lat="42.0190821" lon="1.7255372"><ele>730.0</ele><time>2026-04-25T10:49:19.898Z</time></trkpt><trkpt lat="42.019128" lon="1.7257615"><ele>729.3333333333334</ele><time>2026-04-25T10:49:20.897Z</time></trkpt><trkpt lat="42.0191734" lon="1.7259894"><ele>728.6666666666666</ele><time>2026-04-25T10:49:21.897Z</time></trkpt><trkpt lat="42.0192173" lon="1.7262212"><ele>728.0</ele><time>2026-04-25T10:49:22.898Z</time></trkpt><trkpt lat="42.0192579" lon="1.7264497"><ele>728.0</ele><time>2026-04-25T10:49:23.896Z</time></trkpt><trkpt lat="42.0192935" lon="1.7266763"><ele>728.0</ele><time>2026-04-25T10:49:24.897Z</time></trkpt><trkpt lat="42.0193369" lon="1.7268976"><ele>728.0</ele><time>2026-04-25T10:49:25.897Z</time></trkpt><trkpt lat="42.0194073" lon="1.7271146"><ele>729.0</ele><time>2026-04-25T10:49:26.898Z</time></trkpt><trkpt lat="42.0194975" lon="1.7273362"><ele>730.0</ele><time>2026-04-25T10:49:27.897Z</time></trkpt><trkpt lat="42.019602" lon="1.7275618"><ele>731.0</ele><time>2026-04-25T10:49:28.896Z</time></trkpt><trkpt lat="42.0197112" lon="1.7277877"><ele>732.0</ele><time>2026-04-25T10:49:29.896Z</time></trkpt><trkpt lat="42.0198219" lon="1.7280073"><ele>733.0</ele><time>2026-04-25T10:49:30.898Z</time></trkpt><trkpt lat="42.019928" lon="1.7282202"><ele>734.0</ele><time>2026-04-25T10:49:31.898Z</time></trkpt><trkpt lat="42.0200258" lon="1.7284129"><ele>735.5</ele><time>2026-04-25T10:49:32.897Z</time></trkpt><trkpt lat="42.0201106" lon="1.7285894"><ele>737.0</ele><time>2026-04-25T10:49:33.898Z</time></trkpt><trkpt lat="42.02017" lon="1.7287652"><ele>738.5</ele><time>2026-04-25T10:49:34.898Z</time></trkpt><trkpt lat="42.0201935" lon="1.7289468"><ele>740.0</ele><time>2026-04-25T10:49:35.897Z</time></trkpt><trkpt lat="42.020179" lon="1.7291323"><ele>740.0</ele><time>2026-04-25T10:49:36.896Z</time></trkpt><trkpt lat="42.0201278" lon="1.7293196"><ele>740.0</ele><time>2026-04-25T10:49:37.896Z</time></trkpt><trkpt lat="42.0200458" lon="1.7295064"><ele>740.0</ele><time>2026-04-25T10:49:38.898Z</time></trkpt><trkpt lat="42.0199545" lon="1.7297103"><ele>740.3333333333333</ele><time>2026-04-25T10:49:39.898Z</time></trkpt><trkpt lat="42.0198592" lon="1.7299335"><ele>740.6666666666666</ele><time>2026-04-25T10:49:40.897Z</time></trkpt><trkpt lat="42.0197559" lon="1.7301734"><ele>741.0</ele><time>2026-04-25T10:49:41.898Z</time></trkpt><trkpt lat="42.0196464" lon="1.7304227"><ele>741.3333333333334</ele><time>2026-04-25T10:49:42.898Z</time></trkpt><trkpt lat="42.0195262" lon="1.7306721"><ele>741.6666666666667</ele><time>2026-04-25T10:49:43.897Z</time></trkpt><trkpt lat="42.0193956" lon="1.7309136"><ele>742.0</ele><time>2026-04-25T10:49:44.897Z</time></trkpt><trkpt lat="42.019256" lon="1.7311437"><ele>743.0</ele><time>2026-04-25T10:49:45.897Z</time></trkpt><trkpt lat="42.0191209" lon="1.7313682"><ele>744.0</ele><time>2026-04-25T10:49:46.897Z</time></trkpt><trkpt lat="42.0189877" lon="1.7315927"><ele>745.0</ele><time>2026-04-25T10:49:47.898Z</time></trkpt><trkpt lat="42.0188544" lon="1.7318159"><ele>745.6666666666667</ele><time>2026-04-25T10:49:48.896Z</time></trkpt><trkpt lat="42.0187233" lon="1.7320344"><ele>746.3333333333334</ele><time>2026-04-25T10:49:49.897Z</time></trkpt><trkpt lat="42.0185997" lon="1.7322443"><ele>747.0</ele><time>2026-04-25T10:49:50.897Z</time></trkpt><trkpt lat="42.0184846" lon="1.7324391"><ele>747.0</ele><time>2026-04-25T10:49:51.896Z</time></trkpt><trkpt lat="42.0183789" lon="1.7326247"><ele>747.0</ele><time>2026-04-25T10:49:52.896Z</time></trkpt><trkpt lat="42.018279" lon="1.7328107"><ele>747.0</ele><time>2026-04-25T10:49:53.895Z</time></trkpt><trkpt lat="42.0181929" lon="1.7330108"><ele>747.6666666666666</ele><time>2026-04-25T10:49:54.895Z</time></trkpt><trkpt lat="42.0181194" lon="1.7332217"><ele>748.3333333333333</ele><time>2026-04-25T10:49:55.896Z</time></trkpt><trkpt lat="42.0180573" lon="1.7334466"><ele>749.0</ele><time>2026-04-25T10:49:56.896Z</time></trkpt><trkpt lat="42.0179977" lon="1.7336693"><ele>749.6666666666666</ele><time>2026-04-25T10:49:57.895Z</time></trkpt><trkpt lat="42.0179419" lon="1.7338795"><ele>750.3333333333334</ele><time>2026-04-25T10:49:58.895Z</time></trkpt><trkpt lat="42.0178909" lon="1.734076"><ele>751.0</ele><time>2026-04-25T10:49:59.896Z</time></trkpt><trkpt lat="42.0178434" lon="1.7342565"><ele>751.1999999999999</ele><time>2026-04-25T10:50:00.896Z</time></trkpt><trkpt lat="42.017801" lon="1.7344158"><ele>751.4</ele><time>2026-04-25T10:50:01.896Z</time></trkpt><trkpt lat="42.0177652" lon="1.7345528"><ele>751.6</ele><time>2026-04-25T10:50:02.896Z</time></trkpt><trkpt lat="42.0177351" lon="1.7346612"><ele>751.8</ele><time>2026-04-25T10:50:03.896Z</time></trkpt><trkpt lat="42.0177088" lon="1.7347604"><ele>752.0</ele><time>2026-04-25T10:50:04.895Z</time></trkpt><trkpt lat="42.0176813" lon="1.7348552"><ele>752.0</ele><time>2026-04-25T10:50:05.897Z</time></trkpt><trkpt lat="42.0176602" lon="1.734951"><ele>752.0</ele><time>2026-04-25T10:50:06.896Z</time></trkpt><trkpt lat="42.0176442" lon="1.7350369"><ele>752.0</ele><time>2026-04-25T10:50:07.896Z</time></trkpt><trkpt lat="42.0176241" lon="1.7351906"><ele>752.0</ele><time>2026-04-25T10:50:09.896Z</time></trkpt><trkpt lat="42.0175529" lon="1.7353274"><ele>752.0</ele><time>2026-04-25T10:50:11.897Z</time></trkpt><trkpt lat="42.0174975" lon="1.735384"><ele>751.5</ele><time>2026-04-25T10:50:12.896Z</time></trkpt><trkpt lat="42.0174368" lon="1.7354322"><ele>751.0</ele><time>2026-04-25T10:50:13.895Z</time></trkpt><trkpt lat="42.0173711" lon="1.735488"><ele>750.5</ele><time>2026-04-25T10:50:14.897Z</time></trkpt><trkpt lat="42.0172973" lon="1.735547"><ele>750.0</ele><time>2026-04-25T10:50:15.896Z</time></trkpt><trkpt lat="42.0172195" lon="1.7356127"><ele>749.5</ele><time>2026-04-25T10:50:16.896Z</time></trkpt><trkpt lat="42.0171347" lon="1.7356814"><ele>749.0</ele><time>2026-04-25T10:50:17.895Z</time></trkpt><trkpt lat="42.0170435" lon="1.7357616"><ele>749.0</ele><time>2026-04-25T10:50:18.896Z</time></trkpt><trkpt lat="42.0169479" lon="1.735846"><ele>749.0</ele><time>2026-04-25T10:50:19.896Z</time></trkpt><trkpt lat="42.0168473" lon="1.7359373"><ele>749.0</ele><time>2026-04-25T10:50:20.897Z</time></trkpt><trkpt lat="42.0167391" lon="1.7360289"><ele>749.0</ele><time>2026-04-25T10:50:21.896Z</time></trkpt><trkpt lat="42.0166286" lon="1.7361249"><ele>747.5</ele><time>2026-04-25T10:50:22.895Z</time></trkpt><trkpt lat="42.0165195" lon="1.736218"><ele>746.0</ele><time>2026-04-25T10:50:23.895Z</time></trkpt><trkpt lat="42.0164115" lon="1.7363104"><ele>744.5</ele><time>2026-04-25T10:50:24.896Z</time></trkpt><trkpt lat="42.0163143" lon="1.7363966"><ele>743.0</ele><time>2026-04-25T10:50:25.897Z</time></trkpt><trkpt lat="42.0162286" lon="1.7364722"><ele>743.0</ele><time>2026-04-25T10:50:26.896Z</time></trkpt><trkpt lat="42.0161536" lon="1.7365443"><ele>743.0</ele><time>2026-04-25T10:50:27.897Z</time></trkpt><trkpt lat="42.0160692" lon="1.7366204"><ele>743.0</ele><time>2026-04-25T10:50:28.896Z</time></trkpt><trkpt lat="42.0159723" lon="1.7367046"><ele>743.0</ele><time>2026-04-25T10:50:29.896Z</time></trkpt><trkpt lat="42.0158657" lon="1.7367967"><ele>743.0</ele><time>2026-04-25T10:50:30.896Z</time></trkpt><trkpt lat="42.0157541" lon="1.7368919"><ele>742.5</ele><time>2026-04-25T10:50:31.896Z</time></trkpt><trkpt lat="42.0156374" lon="1.7369883"><ele>742.0</ele><time>2026-04-25T10:50:32.897Z</time></trkpt><trkpt lat="42.0155164" lon="1.7370871"><ele>741.5</ele><time>2026-04-25T10:50:33.897Z</time></trkpt><trkpt lat="42.015391" lon="1.7371851"><ele>741.0</ele><time>2026-04-25T10:50:34.896Z</time></trkpt><trkpt lat="42.0152646" lon="1.7372773"><ele>741.0</ele><time>2026-04-25T10:50:35.895Z</time></trkpt><trkpt lat="42.0151358" lon="1.7373627"><ele>741.0</ele><time>2026-04-25T10:50:36.896Z</time></trkpt><trkpt lat="42.014996" lon="1.7374439"><ele>741.0</ele><time>2026-04-25T10:50:37.896Z</time></trkpt><trkpt lat="42.0148484" lon="1.7375241"><ele>739.6666666666666</ele><time>2026-04-25T10:50:38.895Z</time></trkpt><trkpt lat="42.0146935" lon="1.7376131"><ele>738.3333333333333</ele><time>2026-04-25T10:50:39.897Z</time></trkpt><trkpt lat="42.0145407" lon="1.7377018"><ele>737.0</ele><time>2026-04-25T10:50:40.895Z</time></trkpt><trkpt lat="42.0143955" lon="1.7377882"><ele>736.6666666666666</ele><time>2026-04-25T10:50:41.896Z</time></trkpt><trkpt lat="42.0142552" lon="1.737865"><ele>736.3333333333334</ele><time>2026-04-25T10:50:42.895Z</time></trkpt><trkpt lat="42.0141198" lon="1.7379361"><ele>736.0</ele><time>2026-04-25T10:50:43.896Z</time></trkpt><trkpt lat="42.013975" lon="1.7380025"><ele>735.0</ele><time>2026-04-25T10:50:44.895Z</time></trkpt><trkpt lat="42.0138189" lon="1.7380545"><ele>734.0</ele><time>2026-04-25T10:50:45.896Z</time></trkpt><trkpt lat="42.0136571" lon="1.7381009"><ele>733.0</ele><time>2026-04-25T10:50:46.897Z</time></trkpt><trkpt lat="42.0134901" lon="1.7381514"><ele>733.0</ele><time>2026-04-25T10:50:47.896Z</time></trkpt><trkpt lat="42.0133286" lon="1.7382174"><ele>733.0</ele><time>2026-04-25T10:50:48.896Z</time></trkpt><trkpt lat="42.0131795" lon="1.7382959"><ele>733.0</ele><time>2026-04-25T10:50:49.896Z</time></trkpt><trkpt lat="42.0130404" lon="1.7383997"><ele>731.0</ele><time>2026-04-25T10:50:50.897Z</time></trkpt><trkpt lat="42.0129072" lon="1.7385187"><ele>729.0</ele><time>2026-04-25T10:50:51.896Z</time></trkpt><trkpt lat="42.0127742" lon="1.738633"><ele>727.0</ele><time>2026-04-25T10:50:52.896Z</time></trkpt><trkpt lat="42.0126336" lon="1.7387264"><ele>727.0</ele><time>2026-04-25T10:50:53.897Z</time></trkpt><trkpt lat="42.0124959" lon="1.7388133"><ele>727.0</ele><time>2026-04-25T10:50:54.896Z</time></trkpt><trkpt lat="42.0123627" lon="1.7389141"><ele>727.0</ele><time>2026-04-25T10:50:55.896Z</time></trkpt><trkpt lat="42.0122359" lon="1.7390362"><ele>726.0</ele><time>2026-04-25T10:50:56.897Z</time></trkpt><trkpt lat="42.0121206" lon="1.739167"><ele>725.0</ele><time>2026-04-25T10:50:57.896Z</time></trkpt><trkpt lat="42.0120254" lon="1.739292"><ele>724.0</ele><time>2026-04-25T10:50:58.897Z</time></trkpt><trkpt lat="42.0119576" lon="1.7394145"><ele>723.0</ele><time>2026-04-25T10:50:59.897Z</time></trkpt><trkpt lat="42.0119235" lon="1.7395301"><ele>723.0</ele><time>2026-04-25T10:51:00.896Z</time></trkpt><trkpt lat="42.0119203" lon="1.7396463"><ele>723.0</ele><time>2026-04-25T10:51:01.896Z</time></trkpt><trkpt lat="42.0119347" lon="1.7397796"><ele>723.0</ele><time>2026-04-25T10:51:02.897Z</time></trkpt><trkpt lat="42.0119433" lon="1.7399327"><ele>723.0</ele><time>2026-04-25T10:51:03.896Z</time></trkpt><trkpt lat="42.0119345" lon="1.7400946"><ele>723.0</ele><time>2026-04-25T10:51:04.897Z</time></trkpt><trkpt lat="42.0119093" lon="1.7402526"><ele>723.25</ele><time>2026-04-25T10:51:05.897Z</time></trkpt><trkpt lat="42.0118577" lon="1.7404164"><ele>723.5</ele><time>2026-04-25T10:51:06.895Z</time></trkpt><trkpt lat="42.0117893" lon="1.7405794"><ele>723.75</ele><time>2026-04-25T10:51:07.896Z</time></trkpt><trkpt lat="42.011708" lon="1.7407313"><ele>724.0</ele><time>2026-04-25T10:51:08.896Z</time></trkpt><trkpt lat="42.0116056" lon="1.7408624"><ele>722.3333333333334</ele><time>2026-04-25T10:51:09.896Z</time></trkpt><trkpt lat="42.0114894" lon="1.7409802"><ele>720.6666666666666</ele><time>2026-04-25T10:51:10.897Z</time></trkpt><trkpt lat="42.0113631" lon="1.7410908"><ele>719.0</ele><time>2026-04-25T10:51:11.897Z</time></trkpt><trkpt lat="42.0112336" lon="1.7412132"><ele>718.0</ele><time>2026-04-25T10:51:12.896Z</time></trkpt><trkpt lat="42.0111117" lon="1.7413737"><ele>717.0</ele><time>2026-04-25T10:51:13.897Z</time></trkpt><trkpt lat="42.0109907" lon="1.741549"><ele>716.0</ele><time>2026-04-25T10:51:14.896Z</time></trkpt><trkpt lat="42.0108678" lon="1.7417286"><ele>715.0</ele><time>2026-04-25T10:51:15.897Z</time></trkpt><trkpt lat="42.0107506" lon="1.7419116"><ele>714.0</ele><time>2026-04-25T10:51:16.897Z</time></trkpt><trkpt lat="42.0106428" lon="1.7420846"><ele>713.0</ele><time>2026-04-25T10:51:17.897Z</time></trkpt><trkpt lat="42.0105474" lon="1.7422509"><ele>713.0</ele><time>2026-04-25T10:51:18.895Z</time></trkpt><trkpt lat="42.0104734" lon="1.7424321"><ele>713.0</ele><time>2026-04-25T10:51:19.897Z</time></trkpt><trkpt lat="42.0104101" lon="1.7426379"><ele>713.0</ele><time>2026-04-25T10:51:20.896Z</time></trkpt><trkpt lat="42.0103488" lon="1.7428546"><ele>714.6666666666666</ele><time>2026-04-25T10:51:21.896Z</time></trkpt><trkpt lat="42.0102884" lon="1.7430744"><ele>716.3333333333334</ele><time>2026-04-25T10:51:22.896Z</time></trkpt><trkpt lat="42.0102306" lon="1.7432902"><ele>718.0</ele><time>2026-04-25T10:51:23.895Z</time></trkpt><trkpt lat="42.010169" lon="1.7434851"><ele>716.75</ele><time>2026-04-25T10:51:24.897Z</time></trkpt><trkpt lat="42.0101063" lon="1.7436632"><ele>715.5</ele><time>2026-04-25T10:51:25.896Z</time></trkpt><trkpt lat="42.0100304" lon="1.7438187"><ele>714.25</ele><time>2026-04-25T10:51:26.897Z</time></trkpt><trkpt lat="42.0099309" lon="1.7439626"><ele>713.0</ele><time>2026-04-25T10:51:27.895Z</time></trkpt><trkpt lat="42.0098196" lon="1.7440834"><ele>713.0</ele><time>2026-04-25T10:51:28.897Z</time></trkpt><trkpt lat="42.0097206" lon="1.7442035"><ele>713.0</ele><time>2026-04-25T10:51:29.896Z</time></trkpt><trkpt lat="42.0096446" lon="1.7443514"><ele>713.0</ele><time>2026-04-25T10:51:30.896Z</time></trkpt><trkpt lat="42.0095884" lon="1.7445382"><ele>713.0</ele><time>2026-04-25T10:51:31.897Z</time></trkpt><trkpt lat="42.0095357" lon="1.7447532"><ele>712.6666666666666</ele><time>2026-04-25T10:51:32.896Z</time></trkpt><trkpt lat="42.0094787" lon="1.7449794"><ele>712.3333333333334</ele><time>2026-04-25T10:51:33.896Z</time></trkpt><trkpt lat="42.0094222" lon="1.7451966"><ele>712.0</ele><time>2026-04-25T10:51:34.897Z</time></trkpt><trkpt lat="42.0093555" lon="1.7454087"><ele>711.0</ele><time>2026-04-25T10:51:35.896Z</time></trkpt><trkpt lat="42.0092774" lon="1.7456053"><ele>710.0</ele><time>2026-04-25T10:51:36.895Z</time></trkpt><trkpt lat="42.0091856" lon="1.7457843"><ele>709.0</ele><time>2026-04-25T10:51:37.896Z</time></trkpt><trkpt lat="42.0090771" lon="1.7459478"><ele>708.6666666666667</ele><time>2026-04-25T10:51:38.896Z</time></trkpt><trkpt lat="42.0089479" lon="1.7460995"><ele>708.3333333333334</ele><time>2026-04-25T10:51:39.896Z</time></trkpt><trkpt lat="42.0088046" lon="1.746252"><ele>708.0</ele><time>2026-04-25T10:51:40.895Z</time></trkpt><trkpt lat="42.0086529" lon="1.7464092"><ele>708.0</ele><time>2026-04-25T10:51:41.895Z</time></trkpt><trkpt lat="42.0084947" lon="1.7465686"><ele>708.0</ele><time>2026-04-25T10:51:42.896Z</time></trkpt><trkpt lat="42.0083387" lon="1.7467317"><ele>708.0</ele><time>2026-04-25T10:51:43.895Z</time></trkpt><trkpt lat="42.0081837" lon="1.7468961"><ele>707.3333333333334</ele><time>2026-04-25T10:51:44.896Z</time></trkpt><trkpt lat="42.0080324" lon="1.7470568"><ele>706.6666666666667</ele><time>2026-04-25T10:51:45.895Z</time></trkpt><trkpt lat="42.0078876" lon="1.7472153"><ele>706.0</ele><time>2026-04-25T10:51:46.896Z</time></trkpt><trkpt lat="42.0077458" lon="1.7473788"><ele>706.0</ele><time>2026-04-25T10:51:47.897Z</time></trkpt><trkpt lat="42.0076089" lon="1.7475565"><ele>706.0</ele><time>2026-04-25T10:51:48.896Z</time></trkpt><trkpt lat="42.0074766" lon="1.7477449"><ele>706.0</ele><time>2026-04-25T10:51:49.896Z</time></trkpt><trkpt lat="42.0073452" lon="1.7479365"><ele>707.0</ele><time>2026-04-25T10:51:50.896Z</time></trkpt><trkpt lat="42.007215" lon="1.7481285"><ele>708.0</ele><time>2026-04-25T10:51:51.895Z</time></trkpt><trkpt lat="42.0070888" lon="1.7483139"><ele>709.0</ele><time>2026-04-25T10:51:52.895Z</time></trkpt><trkpt lat="42.0069606" lon="1.7485029"><ele>707.0</ele><time>2026-04-25T10:51:53.896Z</time></trkpt><trkpt lat="42.0068217" lon="1.7486844"><ele>705.0</ele><time>2026-04-25T10:51:54.895Z</time></trkpt><trkpt lat="42.0066741" lon="1.7488531"><ele>703.0</ele><time>2026-04-25T10:51:55.896Z</time></trkpt><trkpt lat="42.0065218" lon="1.749003"><ele>703.0</ele><time>2026-04-25T10:51:56.897Z</time></trkpt><trkpt lat="42.0063754" lon="1.7491509"><ele>703.0</ele><time>2026-04-25T10:51:57.895Z</time></trkpt><trkpt lat="42.0062319" lon="1.7493095"><ele>703.0</ele><time>2026-04-25T10:51:58.896Z</time></trkpt><trkpt lat="42.006082" lon="1.7494729"><ele>703.3333333333334</ele><time>2026-04-25T10:51:59.897Z</time></trkpt><trkpt lat="42.0059228" lon="1.7496296"><ele>703.6666666666666</ele><time>2026-04-25T10:52:00.896Z</time></trkpt><trkpt lat="42.0057594" lon="1.7497694"><ele>704.0</ele><time>2026-04-25T10:52:01.895Z</time></trkpt><trkpt lat="42.0055966" lon="1.7499038"><ele>702.6666666666666</ele><time>2026-04-25T10:52:02.896Z</time></trkpt><trkpt lat="42.0054379" lon="1.7500433"><ele>701.3333333333334</ele><time>2026-04-25T10:52:03.895Z</time></trkpt><trkpt lat="42.0052901" lon="1.750191"><ele>700.0</ele><time>2026-04-25T10:52:04.897Z</time></trkpt><trkpt lat="42.0051515" lon="1.7503385"><ele>699.6666666666667</ele><time>2026-04-25T10:52:05.896Z</time></trkpt><trkpt lat="42.0050162" lon="1.7504756"><ele>699.3333333333334</ele><time>2026-04-25T10:52:06.896Z</time></trkpt><trkpt lat="42.0048769" lon="1.7505716"><ele>699.0</ele><time>2026-04-25T10:52:07.897Z</time></trkpt><trkpt lat="42.0047381" lon="1.7506186"><ele>698.5</ele><time>2026-04-25T10:52:08.896Z</time></trkpt><trkpt lat="42.0046081" lon="1.7506392"><ele>698.0</ele><time>2026-04-25T10:52:09.896Z</time></trkpt><trkpt lat="42.0044913" lon="1.7506948"><ele>697.5</ele><time>2026-04-25T10:52:10.896Z</time></trkpt><trkpt lat="42.0043775" lon="1.7507942"><ele>697.0</ele><time>2026-04-25T10:52:11.896Z</time></trkpt><trkpt lat="42.0042625" lon="1.7509275"><ele>695.0</ele><time>2026-04-25T10:52:12.897Z</time></trkpt><trkpt lat="42.0041439" lon="1.7510816"><ele>693.0</ele><time>2026-04-25T10:52:13.896Z</time></trkpt><trkpt lat="42.0040179" lon="1.7512507"><ele>691.0</ele><time>2026-04-25T10:52:14.896Z</time></trkpt><trkpt lat="42.0038914" lon="1.7514255"><ele>691.0</ele><time>2026-04-25T10:52:15.896Z</time></trkpt><trkpt lat="42.0037669" lon="1.7515998"><ele>691.0</ele><time>2026-04-25T10:52:16.895Z</time></trkpt><trkpt lat="42.0036501" lon="1.7517712"><ele>691.0</ele><time>2026-04-25T10:52:17.897Z</time></trkpt><trkpt lat="42.0035369" lon="1.75193"><ele>689.6666666666667</ele><time>2026-04-25T10:52:18.897Z</time></trkpt><trkpt lat="42.0034097" lon="1.7520711"><ele>688.3333333333334</ele><time>2026-04-25T10:52:19.897Z</time></trkpt><trkpt lat="42.0032589" lon="1.7522106"><ele>687.0</ele><time>2026-04-25T10:52:20.897Z</time></trkpt><trkpt lat="42.0030945" lon="1.7523476"><ele>686.0</ele><time>2026-04-25T10:52:21.897Z</time></trkpt><trkpt lat="42.0029264" lon="1.7524839"><ele>685.0</ele><time>2026-04-25T10:52:22.896Z</time></trkpt><trkpt lat="42.002759" lon="1.752613"><ele>684.0</ele><time>2026-04-25T10:52:23.896Z</time></trkpt><trkpt lat="42.0025915" lon="1.7527329"><ele>681.6666666666666</ele><time>2026-04-25T10:52:24.896Z</time></trkpt><trkpt lat="42.002428" lon="1.7528596"><ele>679.3333333333333</ele><time>2026-04-25T10:52:25.897Z</time></trkpt><trkpt lat="42.0022715" lon="1.753016"><ele>677.0</ele><time>2026-04-25T10:52:26.895Z</time></trkpt><trkpt lat="42.002123" lon="1.7531852"><ele>677.0</ele><time>2026-04-25T10:52:27.897Z</time></trkpt><trkpt lat="42.0019747" lon="1.7533628"><ele>677.0</ele><time>2026-04-25T10:52:28.896Z</time></trkpt><trkpt lat="42.0018276" lon="1.7535257"><ele>677.0</ele><time>2026-04-25T10:52:29.896Z</time></trkpt><trkpt lat="42.0016753" lon="1.7536665"><ele>674.6666666666666</ele><time>2026-04-25T10:52:30.897Z</time></trkpt><trkpt lat="42.001524" lon="1.7537855"><ele>672.3333333333334</ele><time>2026-04-25T10:52:31.897Z</time></trkpt><trkpt lat="42.0013839" lon="1.7538948"><ele>670.0</ele><time>2026-04-25T10:52:32.896Z</time></trkpt><trkpt lat="42.0012633" lon="1.7540293"><ele>670.0</ele><time>2026-04-25T10:52:33.897Z</time></trkpt><trkpt lat="42.0011557" lon="1.7541963"><ele>670.0</ele><time>2026-04-25T10:52:34.896Z</time></trkpt><trkpt lat="42.0010413" lon="1.7543681"><ele>670.0</ele><time>2026-04-25T10:52:35.896Z</time></trkpt><trkpt lat="42.0009152" lon="1.7545142"><ele>668.3333333333334</ele><time>2026-04-25T10:52:36.896Z</time></trkpt><trkpt lat="42.000769" lon="1.7546439"><ele>666.6666666666666</ele><time>2026-04-25T10:52:37.896Z</time></trkpt><trkpt lat="42.0006174" lon="1.7547614"><ele>665.0</ele><time>2026-04-25T10:52:38.896Z</time></trkpt><trkpt lat="42.0004714" lon="1.7548831"><ele>665.0</ele><time>2026-04-25T10:52:39.897Z</time></trkpt><trkpt lat="42.0003302" lon="1.7550019"><ele>665.0</ele><time>2026-04-25T10:52:40.896Z</time></trkpt><trkpt lat="42.0002006" lon="1.7551253"><ele>665.0</ele><time>2026-04-25T10:52:41.896Z</time></trkpt><trkpt lat="42.000078" lon="1.7552639"><ele>660.6666666666666</ele><time>2026-04-25T10:52:42.896Z</time></trkpt><trkpt lat="41.9999642" lon="1.7554158"><ele>656.3333333333334</ele><time>2026-04-25T10:52:43.895Z</time></trkpt><trkpt lat="41.9998591" lon="1.7555728"><ele>652.0</ele><time>2026-04-25T10:52:44.897Z</time></trkpt><trkpt lat="41.9997567" lon="1.7557294"><ele>652.0</ele><time>2026-04-25T10:52:45.896Z</time></trkpt><trkpt lat="41.9996552" lon="1.7558688"><ele>652.0</ele><time>2026-04-25T10:52:46.896Z</time></trkpt><trkpt lat="41.9995578" lon="1.7559915"><ele>652.0</ele><time>2026-04-25T10:52:47.895Z</time></trkpt><trkpt lat="41.9994687" lon="1.7561284"><ele>652.0</ele><time>2026-04-25T10:52:48.896Z</time></trkpt><trkpt lat="41.999389" lon="1.7563044"><ele>648.3333333333334</ele><time>2026-04-25T10:52:49.895Z</time></trkpt><trkpt lat="41.9993106" lon="1.756504"><ele>644.6666666666666</ele><time>2026-04-25T10:52:50.896Z</time></trkpt><trkpt lat="41.9992241" lon="1.7567141"><ele>641.0</ele><time>2026-04-25T10:52:51.896Z</time></trkpt><trkpt lat="41.9991356" lon="1.7569231"><ele>639.3333333333333</ele><time>2026-04-25T10:52:52.897Z</time></trkpt><trkpt lat="41.9990444" lon="1.7571267"><ele>637.6666666666666</ele><time>2026-04-25T10:52:53.896Z</time></trkpt><trkpt lat="41.9989446" lon="1.7573248"><ele>636.0</ele><time>2026-04-25T10:52:54.896Z</time></trkpt><trkpt lat="41.9988391" lon="1.7575061"><ele>636.0</ele><time>2026-04-25T10:52:55.896Z</time></trkpt><trkpt lat="41.9987301" lon="1.7576651"><ele>636.0</ele><time>2026-04-25T10:52:56.897Z</time></trkpt><trkpt lat="41.9986291" lon="1.7577959"><ele>636.0</ele><time>2026-04-25T10:52:57.895Z</time></trkpt><trkpt lat="41.9985404" lon="1.7578997"><ele>636.0</ele><time>2026-04-25T10:52:58.896Z</time></trkpt><trkpt lat="41.9984446" lon="1.7579725"><ele>633.75</ele><time>2026-04-25T10:52:59.897Z</time></trkpt><trkpt lat="41.998331" lon="1.7579892"><ele>631.5</ele><time>2026-04-25T10:53:00.897Z</time></trkpt><trkpt lat="41.9982074" lon="1.7579853"><ele>629.25</ele><time>2026-04-25T10:53:01.896Z</time></trkpt><trkpt lat="41.998081" lon="1.7580077"><ele>627.0</ele><time>2026-04-25T10:53:02.895Z</time></trkpt><trkpt lat="41.9979666" lon="1.7580716"><ele>627.0</ele><time>2026-04-25T10:53:03.896Z</time></trkpt><trkpt lat="41.9978585" lon="1.7581607"><ele>627.0</ele><time>2026-04-25T10:53:04.896Z</time></trkpt><trkpt lat="41.9977379" lon="1.7582219"><ele>627.0</ele><time>2026-04-25T10:53:05.896Z</time></trkpt><trkpt lat="41.9975979" lon="1.7582488"><ele>627.0</ele><time>2026-04-25T10:53:06.895Z</time></trkpt><trkpt lat="41.9974512" lon="1.7582645"><ele>627.0</ele><time>2026-04-25T10:53:07.896Z</time></trkpt><trkpt lat="41.9973104" lon="1.7582914"><ele>627.0</ele><time>2026-04-25T10:53:08.896Z</time></trkpt><trkpt lat="41.9971868" lon="1.7583514"><ele>627.0</ele><time>2026-04-25T10:53:09.896Z</time></trkpt><trkpt lat="41.9970732" lon="1.7584532"><ele>627.0</ele><time>2026-04-25T10:53:10.895Z</time></trkpt><trkpt lat="41.9969723" lon="1.7585848"><ele>624.25</ele><time>2026-04-25T10:53:11.895Z</time></trkpt><trkpt lat="41.9968727" lon="1.7587192"><ele>621.5</ele><time>2026-04-25T10:53:12.897Z</time></trkpt><trkpt lat="41.9967729" lon="1.7588262"><ele>618.75</ele><time>2026-04-25T10:53:13.897Z</time></trkpt><trkpt lat="41.9966847" lon="1.7589474"><ele>616.0</ele><time>2026-04-25T10:53:14.896Z</time></trkpt><trkpt lat="41.9966143" lon="1.7590944"><ele>616.0</ele><time>2026-04-25T10:53:15.896Z</time></trkpt><trkpt lat="41.9965737" lon="1.759268"><ele>616.0</ele><time>2026-04-25T10:53:16.897Z</time></trkpt><trkpt lat="41.9965593" lon="1.7594599"><ele>616.0</ele><time>2026-04-25T10:53:17.896Z</time></trkpt><trkpt lat="41.9965716" lon="1.7596631"><ele>616.0</ele><time>2026-04-25T10:53:18.896Z</time></trkpt><trkpt lat="41.9965917" lon="1.7598643"><ele>613.75</ele><time>2026-04-25T10:53:19.897Z</time></trkpt><trkpt lat="41.9966053" lon="1.7600591"><ele>611.5</ele><time>2026-04-25T10:53:20.896Z</time></trkpt><trkpt lat="41.9966058" lon="1.7602325"><ele>609.25</ele><time>2026-04-25T10:53:21.896Z</time></trkpt><trkpt lat="41.9965887" lon="1.7603909"><ele>607.0</ele><time>2026-04-25T10:53:22.896Z</time></trkpt><trkpt lat="41.996546" lon="1.7605373"><ele>604.5</ele><time>2026-04-25T10:53:23.896Z</time></trkpt><trkpt lat="41.996477" lon="1.7606728"><ele>602.0</ele><time>2026-04-25T10:53:24.896Z</time></trkpt><trkpt lat="41.9963829" lon="1.7607817"><ele>599.5</ele><time>2026-04-25T10:53:25.896Z</time></trkpt><trkpt lat="41.9962628" lon="1.760859"><ele>597.0</ele><time>2026-04-25T10:53:26.896Z</time></trkpt><trkpt lat="41.996129" lon="1.7609054"><ele>597.0</ele><time>2026-04-25T10:53:27.897Z</time></trkpt><trkpt lat="41.9959941" lon="1.7609412"><ele>597.0</ele><time>2026-04-25T10:53:28.896Z</time></trkpt><trkpt lat="41.9958639" lon="1.7609915"><ele>597.0</ele><time>2026-04-25T10:53:29.896Z</time></trkpt><trkpt lat="41.9957555" lon="1.7610572"><ele>597.0</ele><time>2026-04-25T10:53:30.896Z</time></trkpt><trkpt lat="41.9956714" lon="1.7611562"><ele>595.5</ele><time>2026-04-25T10:53:31.897Z</time></trkpt><trkpt lat="41.9956121" lon="1.7612951"><ele>594.0</ele><time>2026-04-25T10:53:32.896Z</time></trkpt><trkpt lat="41.9955608" lon="1.761457"><ele>592.5</ele><time>2026-04-25T10:53:33.896Z</time></trkpt><trkpt lat="41.9955161" lon="1.7616198"><ele>591.0</ele><time>2026-04-25T10:53:34.897Z</time></trkpt><trkpt lat="41.9954945" lon="1.7617613"><ele>589.5</ele><time>2026-04-25T10:53:35.896Z</time></trkpt><trkpt lat="41.9955046" lon="1.7619058"><ele>588.0</ele><time>2026-04-25T10:53:36.896Z</time></trkpt><trkpt lat="41.9955549" lon="1.7620446"><ele>586.5</ele><time>2026-04-25T10:53:37.897Z</time></trkpt><trkpt lat="41.9956329" lon="1.7621783"><ele>585.0</ele><time>2026-04-25T10:53:38.895Z</time></trkpt><trkpt lat="41.9957091" lon="1.76233"><ele>585.0</ele><time>2026-04-25T10:53:39.897Z</time></trkpt><trkpt lat="41.9957514" lon="1.7625109"><ele>585.0</ele><time>2026-04-25T10:53:40.897Z</time></trkpt><trkpt lat="41.995765" lon="1.7626988"><ele>585.0</ele><time>2026-04-25T10:53:41.895Z</time></trkpt><trkpt lat="41.995762" lon="1.7628935"><ele>585.0</ele><time>2026-04-25T10:53:42.896Z</time></trkpt><trkpt lat="41.9957554" lon="1.763082"><ele>584.5</ele><time>2026-04-25T10:53:43.897Z</time></trkpt><trkpt lat="41.9957526" lon="1.7632597"><ele>584.0</ele><time>2026-04-25T10:53:44.897Z</time></trkpt><trkpt lat="41.9957651" lon="1.7634253"><ele>583.5</ele><time>2026-04-25T10:53:45.896Z</time></trkpt><trkpt lat="41.9957844" lon="1.763572"><ele>583.0</ele><time>2026-04-25T10:53:46.897Z</time></trkpt><trkpt lat="41.9957972" lon="1.763693"><ele>584.1999999999999</ele><time>2026-04-25T10:53:47.897Z</time></trkpt><trkpt lat="41.9957844" lon="1.7638059"><ele>585.4</ele><time>2026-04-25T10:53:48.896Z</time></trkpt><trkpt lat="41.9957336" lon="1.7639079"><ele>586.5999999999999</ele><time>2026-04-25T10:53:49.897Z</time></trkpt><trkpt lat="41.9956502" lon="1.7639779"><ele>587.8</ele><time>2026-04-25T10:53:50.896Z</time></trkpt><trkpt lat="41.9955465" lon="1.7640145"><ele>589.0</ele><time>2026-04-25T10:53:51.896Z</time></trkpt><trkpt lat="41.9954287" lon="1.7640391"><ele>589.0</ele><time>2026-04-25T10:53:52.896Z</time></trkpt><trkpt lat="41.9953081" lon="1.7640566"><ele>589.0</ele><time>2026-04-25T10:53:53.896Z</time></trkpt><trkpt lat="41.9951825" lon="1.7640538"><ele>589.0</ele><time>2026-04-25T10:53:54.895Z</time></trkpt><trkpt lat="41.9950605" lon="1.7640125"><ele>589.0</ele><time>2026-04-25T10:53:55.896Z</time></trkpt><trkpt lat="41.9949378" lon="1.763947"><ele>589.5</ele><time>2026-04-25T10:53:56.897Z</time></trkpt><trkpt lat="41.9948173" lon="1.7638601"><ele>590.0</ele><time>2026-04-25T10:53:57.896Z</time></trkpt><trkpt lat="41.9947033" lon="1.7637672"><ele>590.5</ele><time>2026-04-25T10:53:58.896Z</time></trkpt><trkpt lat="41.9946" lon="1.7636791"><ele>591.0</ele><time>2026-04-25T10:53:59.895Z</time></trkpt><trkpt lat="41.9945064" lon="1.7636114"><ele>591.0</ele><time>2026-04-25T10:54:00.896Z</time></trkpt><trkpt lat="41.9944068" lon="1.7635867"><ele>591.0</ele><time>2026-04-25T10:54:01.897Z</time></trkpt><trkpt lat="41.9942971" lon="1.7635974"><ele>591.0</ele><time>2026-04-25T10:54:02.896Z</time></trkpt><trkpt lat="41.9941759" lon="1.7636202"><ele>591.0</ele><time>2026-04-25T10:54:03.896Z</time></trkpt><trkpt lat="41.9940486" lon="1.7636416"><ele>591.0</ele><time>2026-04-25T10:54:04.897Z</time></trkpt><trkpt lat="41.9939102" lon="1.7636584"><ele>591.0</ele><time>2026-04-25T10:54:05.895Z</time></trkpt><trkpt lat="41.9937665" lon="1.7636704"><ele>591.0</ele><time>2026-04-25T10:54:06.896Z</time></trkpt><trkpt lat="41.9936255" lon="1.7636724"><ele>591.0</ele><time>2026-04-25T10:54:07.897Z</time></trkpt><trkpt lat="41.9934877" lon="1.7636633"><ele>591.0</ele><time>2026-04-25T10:54:08.895Z</time></trkpt><trkpt lat="41.9933534" lon="1.7636385"><ele>591.0</ele><time>2026-04-25T10:54:09.896Z</time></trkpt><trkpt lat="41.9932219" lon="1.7635944"><ele>591.0</ele><time>2026-04-25T10:54:10.896Z</time></trkpt><trkpt lat="41.9930904" lon="1.7635462"><ele>591.0</ele><time>2026-04-25T10:54:11.895Z</time></trkpt><trkpt lat="41.9929596" lon="1.7635093"><ele>590.5</ele><time>2026-04-25T10:54:12.895Z</time></trkpt><trkpt lat="41.9928297" lon="1.763507"><ele>590.0</ele><time>2026-04-25T10:54:13.896Z</time></trkpt><trkpt lat="41.9927346" lon="1.7635352"><ele>589.5</ele><time>2026-04-25T10:54:14.897Z</time></trkpt><trkpt lat="41.9926729" lon="1.7635768"><ele>589.0</ele><time>2026-04-25T10:54:15.896Z</time></trkpt><trkpt lat="41.9926164" lon="1.7636539"><ele>588.5</ele><time>2026-04-25T10:54:17.895Z</time></trkpt><trkpt lat="41.9925922" lon="1.7637342"><ele>588.0</ele><time>2026-04-25T10:54:19.896Z</time></trkpt><trkpt lat="41.9925613" lon="1.7638094"><ele>588.0</ele><time>2026-04-25T10:54:20.895Z</time></trkpt><trkpt lat="41.9925192" lon="1.7638959"><ele>588.0</ele><time>2026-04-25T10:54:21.896Z</time></trkpt><trkpt lat="41.9924688" lon="1.7639987"><ele>588.0</ele><time>2026-04-25T10:54:22.897Z</time></trkpt><trkpt lat="41.9924055" lon="1.7641176"><ele>588.0</ele><time>2026-04-25T10:54:23.897Z</time></trkpt><trkpt lat="41.992335" lon="1.7642471"><ele>588.0</ele><time>2026-04-25T10:54:24.896Z</time></trkpt><trkpt lat="41.992259" lon="1.7643815"><ele>587.6</ele><time>2026-04-25T10:54:25.897Z</time></trkpt><trkpt lat="41.992191" lon="1.7645033"><ele>587.1999999999999</ele><time>2026-04-25T10:54:26.897Z</time></trkpt><trkpt lat="41.9921301" lon="1.7646098"><ele>586.8</ele><time>2026-04-25T10:54:27.896Z</time></trkpt><trkpt lat="41.9920753" lon="1.7647055"><ele>586.4</ele><time>2026-04-25T10:54:28.897Z</time></trkpt><trkpt lat="41.9920263" lon="1.7647976"><ele>586.0</ele><time>2026-04-25T10:54:29.896Z</time></trkpt><trkpt lat="41.9919819" lon="1.7648845"><ele>586.0</ele><time>2026-04-25T10:54:30.896Z</time></trkpt><trkpt lat="41.9919386" lon="1.7649686"><ele>586.0</ele><time>2026-04-25T10:54:31.896Z</time></trkpt><trkpt lat="41.9918952" lon="1.7650493"><ele>586.0</ele><time>2026-04-25T10:54:32.896Z</time></trkpt><trkpt lat="41.9918452" lon="1.7651408"><ele>586.0</ele><time>2026-04-25T10:54:33.897Z</time></trkpt><trkpt lat="41.991791" lon="1.7652419"><ele>586.0</ele><time>2026-04-25T10:54:34.896Z</time></trkpt><trkpt lat="41.9917324" lon="1.7653493"><ele>586.0</ele><time>2026-04-25T10:54:35.896Z</time></trkpt><trkpt lat="41.9916581" lon="1.7654552"><ele>586.6</ele><time>2026-04-25T10:54:36.896Z</time></trkpt><trkpt lat="41.9915689" lon="1.7655381"><ele>587.2</ele><time>2026-04-25T10:54:37.896Z</time></trkpt><trkpt lat="41.99147" lon="1.7655827"><ele>587.8</ele><time>2026-04-25T10:54:38.897Z</time></trkpt><trkpt lat="41.9913621" lon="1.7655893"><ele>588.4</ele><time>2026-04-25T10:54:39.897Z</time></trkpt><trkpt lat="41.9912458" lon="1.7655663"><ele>589.0</ele><time>2026-04-25T10:54:40.895Z</time></trkpt><trkpt lat="41.9911242" lon="1.7655409"><ele>589.0</ele><time>2026-04-25T10:54:41.896Z</time></trkpt><trkpt lat="41.9909942" lon="1.7655298"><ele>589.0</ele><time>2026-04-25T10:54:42.896Z</time></trkpt><trkpt lat="41.9908528" lon="1.7655327"><ele>589.0</ele><time>2026-04-25T10:54:43.897Z</time></trkpt><trkpt lat="41.9907119" lon="1.765535"><ele>589.0</ele><time>2026-04-25T10:54:44.897Z</time></trkpt><trkpt lat="41.9905755" lon="1.7655368"><ele>588.5</ele><time>2026-04-25T10:54:45.896Z</time></trkpt><trkpt lat="41.9904336" lon="1.7655235"><ele>588.0</ele><time>2026-04-25T10:54:46.895Z</time></trkpt><trkpt lat="41.9902907" lon="1.7654954"><ele>587.5</ele><time>2026-04-25T10:54:47.896Z</time></trkpt><trkpt lat="41.990152" lon="1.7654655"><ele>587.0</ele><time>2026-04-25T10:54:48.895Z</time></trkpt><trkpt lat="41.9900175" lon="1.7654419"><ele>586.25</ele><time>2026-04-25T10:54:49.896Z</time></trkpt><trkpt lat="41.9898837" lon="1.7654164"><ele>585.5</ele><time>2026-04-25T10:54:50.897Z</time></trkpt><trkpt lat="41.9897521" lon="1.7653884"><ele>584.75</ele><time>2026-04-25T10:54:51.896Z</time></trkpt><trkpt lat="41.989625" lon="1.765363"><ele>584.0</ele><time>2026-04-25T10:54:52.896Z</time></trkpt><trkpt lat="41.9894962" lon="1.7653554"><ele>584.0</ele><time>2026-04-25T10:54:53.896Z</time></trkpt><trkpt lat="41.989363" lon="1.7653788"><ele>584.0</ele><time>2026-04-25T10:54:54.896Z</time></trkpt><trkpt lat="41.9892269" lon="1.7654226"><ele>584.0</ele><time>2026-04-25T10:54:55.896Z</time></trkpt><trkpt lat="41.989104" lon="1.765475"><ele>584.0</ele><time>2026-04-25T10:54:56.897Z</time></trkpt><trkpt lat="41.9890021" lon="1.7655239"><ele>581.8</ele><time>2026-04-25T10:54:57.896Z</time></trkpt><trkpt lat="41.9889081" lon="1.7655598"><ele>579.5999999999999</ele><time>2026-04-25T10:54:58.896Z</time></trkpt><trkpt lat="41.9888157" lon="1.7655491"><ele>577.4</ele><time>2026-04-25T10:54:59.896Z</time></trkpt><trkpt lat="41.9887256" lon="1.7654837"><ele>575.1999999999999</ele><time>2026-04-25T10:55:00.897Z</time></trkpt><trkpt lat="41.9886569" lon="1.7653725"><ele>573.0</ele><time>2026-04-25T10:55:01.897Z</time></trkpt><trkpt lat="41.9886153" lon="1.7652335"><ele>572.6</ele><time>2026-04-25T10:55:02.896Z</time></trkpt><trkpt lat="41.9885953" lon="1.7650924"><ele>572.1999999999999</ele><time>2026-04-25T10:55:03.895Z</time></trkpt><trkpt lat="41.9885744" lon="1.7649651"><ele>571.8</ele><time>2026-04-25T10:55:04.896Z</time></trkpt><trkpt lat="41.9885317" lon="1.7648479"><ele>571.4</ele><time>2026-04-25T10:55:05.896Z</time></trkpt><trkpt lat="41.9884557" lon="1.764748"><ele>571.0</ele><time>2026-04-25T10:55:06.897Z</time></trkpt><trkpt lat="41.9883586" lon="1.7647018"><ele>571.75</ele><time>2026-04-25T10:55:07.896Z</time></trkpt><trkpt lat="41.9882441" lon="1.7647057"><ele>572.5</ele><time>2026-04-25T10:55:08.897Z</time></trkpt><trkpt lat="41.9881216" lon="1.7647375"><ele>573.25</ele><time>2026-04-25T10:55:09.896Z</time></trkpt><trkpt lat="41.9879941" lon="1.7647723"><ele>574.0</ele><time>2026-04-25T10:55:10.897Z</time></trkpt><trkpt lat="41.987876" lon="1.7647932"><ele>574.0</ele><time>2026-04-25T10:55:11.896Z</time></trkpt><trkpt lat="41.9877695" lon="1.7648162"><ele>574.0</ele><time>2026-04-25T10:55:12.896Z</time></trkpt><trkpt lat="41.9876564" lon="1.76486"><ele>574.0</ele><time>2026-04-25T10:55:13.896Z</time></trkpt><trkpt lat="41.9875392" lon="1.7649225"><ele>574.0</ele><time>2026-04-25T10:55:14.896Z</time></trkpt><trkpt lat="41.9874243" lon="1.7649951"><ele>574.5</ele><time>2026-04-25T10:55:15.896Z</time></trkpt><trkpt lat="41.9873207" lon="1.7650825"><ele>575.0</ele><time>2026-04-25T10:55:16.897Z</time></trkpt><trkpt lat="41.9872333" lon="1.7651888"><ele>575.5</ele><time>2026-04-25T10:55:17.897Z</time></trkpt><trkpt lat="41.9871659" lon="1.7653187"><ele>576.0</ele><time>2026-04-25T10:55:18.897Z</time></trkpt><trkpt lat="41.9871243" lon="1.7654602"><ele>579.25</ele><time>2026-04-25T10:55:19.897Z</time></trkpt><trkpt lat="41.9871126" lon="1.7656141"><ele>582.5</ele><time>2026-04-25T10:55:20.896Z</time></trkpt><trkpt lat="41.9871288" lon="1.7657861"><ele>585.75</ele><time>2026-04-25T10:55:21.895Z</time></trkpt><trkpt lat="41.9871538" lon="1.7659701"><ele>589.0</ele><time>2026-04-25T10:55:22.896Z</time></trkpt><trkpt lat="41.9871801" lon="1.7661743"><ele>589.0</ele><time>2026-04-25T10:55:23.896Z</time></trkpt><trkpt lat="41.9872089" lon="1.7663936"><ele>589.0</ele><time>2026-04-25T10:55:24.896Z</time></trkpt><trkpt lat="41.987242" lon="1.7666067"><ele>589.0</ele><time>2026-04-25T10:55:25.896Z</time></trkpt><trkpt lat="41.9872894" lon="1.7668013"><ele>589.25</ele><time>2026-04-25T10:55:26.896Z</time></trkpt><trkpt lat="41.9873556" lon="1.7669801"><ele>589.5</ele><time>2026-04-25T10:55:27.897Z</time></trkpt><trkpt lat="41.9874344" lon="1.7671486"><ele>589.75</ele><time>2026-04-25T10:55:28.897Z</time></trkpt><trkpt lat="41.9875152" lon="1.7673184"><ele>590.0</ele><time>2026-04-25T10:55:29.896Z</time></trkpt><trkpt lat="41.9875865" lon="1.767501"><ele>588.0</ele><time>2026-04-25T10:55:30.897Z</time></trkpt><trkpt lat="41.9876437" lon="1.7676948"><ele>586.0</ele><time>2026-04-25T10:55:31.897Z</time></trkpt><trkpt lat="41.9876959" lon="1.7678868"><ele>584.0</ele><time>2026-04-25T10:55:32.896Z</time></trkpt><trkpt lat="41.987755" lon="1.7680629"><ele>584.0</ele><time>2026-04-25T10:55:33.895Z</time></trkpt><trkpt lat="41.9878173" lon="1.7682247"><ele>584.0</ele><time>2026-04-25T10:55:34.897Z</time></trkpt><trkpt lat="41.9878658" lon="1.7683881"><ele>584.0</ele><time>2026-04-25T10:55:35.896Z</time></trkpt><trkpt lat="41.9878853" lon="1.7685529"><ele>584.0</ele><time>2026-04-25T10:55:36.896Z</time></trkpt><trkpt lat="41.9878767" lon="1.7687086"><ele>585.25</ele><time>2026-04-25T10:55:37.896Z</time></trkpt><trkpt lat="41.9878336" lon="1.768857"><ele>586.5</ele><time>2026-04-25T10:55:38.896Z</time></trkpt><trkpt lat="41.9877658" lon="1.7690094"><ele>587.75</ele><time>2026-04-25T10:55:39.895Z</time></trkpt><trkpt lat="41.9876938" lon="1.769182"><ele>589.0</ele><time>2026-04-25T10:55:40.897Z</time></trkpt><trkpt lat="41.9876301" lon="1.7693791"><ele>589.3333333333334</ele><time>2026-04-25T10:55:41.895Z</time></trkpt><trkpt lat="41.9875695" lon="1.7695873"><ele>589.6666666666666</ele><time>2026-04-25T10:55:42.896Z</time></trkpt><trkpt lat="41.9875092" lon="1.7697941"><ele>590.0</ele><time>2026-04-25T10:55:43.897Z</time></trkpt><trkpt lat="41.9874457" lon="1.7699883"><ele>595.0</ele><time>2026-04-25T10:55:44.896Z</time></trkpt><trkpt lat="41.9873859" lon="1.7701839"><ele>600.0</ele><time>2026-04-25T10:55:45.896Z</time></trkpt><trkpt lat="41.9873346" lon="1.7703903"><ele>605.0</ele><time>2026-04-25T10:55:46.897Z</time></trkpt><trkpt lat="41.9872851" lon="1.7706136"><ele>605.0</ele><time>2026-04-25T10:55:47.895Z</time></trkpt><trkpt lat="41.9872366" lon="1.7708447"><ele>605.0</ele><time>2026-04-25T10:55:48.895Z</time></trkpt><trkpt lat="41.9871949" lon="1.7710709"><ele>605.0</ele><time>2026-04-25T10:55:49.896Z</time></trkpt><trkpt lat="41.9871589" lon="1.7712783"><ele>603.0</ele><time>2026-04-25T10:55:50.896Z</time></trkpt><trkpt lat="41.9871065" lon="1.7714809"><ele>601.0</ele><time>2026-04-25T10:55:51.897Z</time></trkpt><trkpt lat="41.9870231" lon="1.7716755"><ele>599.0</ele><time>2026-04-25T10:55:52.897Z</time></trkpt><trkpt lat="41.9869188" lon="1.7718518"><ele>599.3333333333333</ele><time>2026-04-25T10:55:53.897Z</time></trkpt><trkpt lat="41.9868223" lon="1.7720308"><ele>599.6666666666666</ele><time>2026-04-25T10:55:54.896Z</time></trkpt><trkpt lat="41.986752" lon="1.7722264"><ele>600.0</ele><time>2026-04-25T10:55:55.896Z</time></trkpt><trkpt lat="41.9866979" lon="1.7724251"><ele>605.25</ele><time>2026-04-25T10:55:56.895Z</time></trkpt><trkpt lat="41.9866335" lon="1.772597"><ele>610.5</ele><time>2026-04-25T10:55:57.895Z</time></trkpt><trkpt lat="41.9865489" lon="1.7727515"><ele>615.75</ele><time>2026-04-25T10:55:58.896Z</time></trkpt><trkpt lat="41.9864781" lon="1.77291"><ele>621.0</ele><time>2026-04-25T10:55:59.896Z</time></trkpt><trkpt lat="41.9864402" lon="1.7730897"><ele>621.0</ele><time>2026-04-25T10:56:00.895Z</time></trkpt><trkpt lat="41.9864155" lon="1.7732933"><ele>621.0</ele><time>2026-04-25T10:56:01.896Z</time></trkpt><trkpt lat="41.9863771" lon="1.7735011"><ele>621.0</ele><time>2026-04-25T10:56:02.895Z</time></trkpt><trkpt lat="41.986319" lon="1.7737068"><ele>620.0</ele><time>2026-04-25T10:56:03.895Z</time></trkpt><trkpt lat="41.9862385" lon="1.7739012"><ele>619.0</ele><time>2026-04-25T10:56:04.896Z</time></trkpt><trkpt lat="41.9861403" lon="1.77408"><ele>618.0</ele><time>2026-04-25T10:56:05.894Z</time></trkpt><trkpt lat="41.9860308" lon="1.7742536"><ele>616.0</ele><time>2026-04-25T10:56:06.896Z</time></trkpt><trkpt lat="41.9859134" lon="1.774416"><ele>614.0</ele><time>2026-04-25T10:56:07.896Z</time></trkpt><trkpt lat="41.9858038" lon="1.7745778"><ele>612.0</ele><time>2026-04-25T10:56:08.894Z</time></trkpt><trkpt lat="41.9856949" lon="1.7747359"><ele>617.6666666666666</ele><time>2026-04-25T10:56:09.895Z</time></trkpt><trkpt lat="41.9855705" lon="1.7748752"><ele>623.3333333333333</ele><time>2026-04-25T10:56:10.895Z</time></trkpt><trkpt lat="41.9854334" lon="1.7749929"><ele>629.0</ele><time>2026-04-25T10:56:11.895Z</time></trkpt><trkpt lat="41.9852971" lon="1.7751125"><ele>631.3333333333333</ele><time>2026-04-25T10:56:12.896Z</time></trkpt><trkpt lat="41.9851804" lon="1.7752814"><ele>633.6666666666666</ele><time>2026-04-25T10:56:13.896Z</time></trkpt><trkpt lat="41.9850851" lon="1.7754828"><ele>636.0</ele><time>2026-04-25T10:56:14.894Z</time></trkpt><trkpt lat="41.9849951" lon="1.7757024"><ele>636.0</ele><time>2026-04-25T10:56:15.895Z</time></trkpt><trkpt lat="41.9849037" lon="1.7759217"><ele>636.0</ele><time>2026-04-25T10:56:16.895Z</time></trkpt><trkpt lat="41.9848086" lon="1.7761323"><ele>636.0</ele><time>2026-04-25T10:56:17.895Z</time></trkpt><trkpt lat="41.9847059" lon="1.7763317"><ele>635.6666666666666</ele><time>2026-04-25T10:56:18.895Z</time></trkpt><trkpt lat="41.9846064" lon="1.7765378"><ele>635.3333333333333</ele><time>2026-04-25T10:56:19.895Z</time></trkpt><trkpt lat="41.9845212" lon="1.7767555"><ele>635.0</ele><time>2026-04-25T10:56:20.895Z</time></trkpt><trkpt lat="41.9844559" lon="1.7769708"><ele>635.0</ele><time>2026-04-25T10:56:21.895Z</time></trkpt><trkpt lat="41.984406" lon="1.7771863"><ele>635.0</ele><time>2026-04-25T10:56:22.895Z</time></trkpt><trkpt lat="41.984361" lon="1.7774044"><ele>635.0</ele><time>2026-04-25T10:56:23.895Z</time></trkpt><trkpt lat="41.984297" lon="1.7776094"><ele>636.0</ele><time>2026-04-25T10:56:24.894Z</time></trkpt><trkpt lat="41.9842143" lon="1.7778043"><ele>637.0</ele><time>2026-04-25T10:56:25.894Z</time></trkpt><trkpt lat="41.9841217" lon="1.7779935"><ele>638.0</ele><time>2026-04-25T10:56:26.895Z</time></trkpt><trkpt lat="41.9840274" lon="1.7781749"><ele>639.3333333333333</ele><time>2026-04-25T10:56:27.894Z</time></trkpt><trkpt lat="41.9839454" lon="1.778368"><ele>640.6666666666666</ele><time>2026-04-25T10:56:28.895Z</time></trkpt><trkpt lat="41.9838894" lon="1.778582"><ele>642.0</ele><time>2026-04-25T10:56:29.895Z</time></trkpt><trkpt lat="41.9838503" lon="1.7788104"><ele>642.0</ele><time>2026-04-25T10:56:30.896Z</time></trkpt><trkpt lat="41.9838064" lon="1.7790428"><ele>642.0</ele><time>2026-04-25T10:56:31.895Z</time></trkpt><trkpt lat="41.9837602" lon="1.7792742"><ele>642.0</ele><time>2026-04-25T10:56:32.894Z</time></trkpt><trkpt lat="41.9837136" lon="1.7795024"><ele>643.0</ele><time>2026-04-25T10:56:33.896Z</time></trkpt><trkpt lat="41.983667" lon="1.779708"><ele>644.0</ele><time>2026-04-25T10:56:34.895Z</time></trkpt><trkpt lat="41.983622" lon="1.7798754"><ele>645.0</ele><time>2026-04-25T10:56:35.894Z</time></trkpt><trkpt lat="41.9835778" lon="1.7800039"><ele>646.0</ele><time>2026-04-25T10:56:36.896Z</time></trkpt><trkpt lat="41.9835276" lon="1.7801077"><ele>646.0</ele><time>2026-04-25T10:56:37.896Z</time></trkpt><trkpt lat="41.9834692" lon="1.7801823"><ele>646.0</ele><time>2026-04-25T10:56:38.895Z</time></trkpt><trkpt lat="41.9833914" lon="1.7802174"><ele>646.0</ele><time>2026-04-25T10:56:39.895Z</time></trkpt><trkpt lat="41.9833011" lon="1.780205"><ele>646.0</ele><time>2026-04-25T10:56:40.896Z</time></trkpt><trkpt lat="41.9832066" lon="1.7801483"><ele>646.0</ele><time>2026-04-25T10:56:41.896Z</time></trkpt><trkpt lat="41.9831087" lon="1.7800645"><ele>647.3333333333334</ele><time>2026-04-25T10:56:42.894Z</time></trkpt><trkpt lat="41.9830154" lon="1.7799771"><ele>648.6666666666667</ele><time>2026-04-25T10:56:43.895Z</time></trkpt><trkpt lat="41.9829378" lon="1.7799139"><ele>650.0</ele><time>2026-04-25T10:56:44.896Z</time></trkpt><trkpt lat="41.9828663" lon="1.7798613"><ele>651.3333333333334</ele><time>2026-04-25T10:56:45.895Z</time></trkpt><trkpt lat="41.9827978" lon="1.77981"><ele>652.6666666666666</ele><time>2026-04-25T10:56:46.896Z</time></trkpt><trkpt lat="41.9827272" lon="1.7797605"><ele>654.0</ele><time>2026-04-25T10:56:47.896Z</time></trkpt><trkpt lat="41.9826514" lon="1.7797133"><ele>654.0</ele><time>2026-04-25T10:56:48.895Z</time></trkpt><trkpt lat="41.9825722" lon="1.7796711"><ele>654.0</ele><time>2026-04-25T10:56:49.895Z</time></trkpt><trkpt lat="41.9824909" lon="1.7796385"><ele>654.0</ele><time>2026-04-25T10:56:50.895Z</time></trkpt><trkpt lat="41.9824017" lon="1.7796201"><ele>654.0</ele><time>2026-04-25T10:56:51.895Z</time></trkpt><trkpt lat="41.9823051" lon="1.7796235"><ele>654.0</ele><time>2026-04-25T10:56:52.895Z</time></trkpt><trkpt lat="41.9820803" lon="1.7796948"><ele>653.75</ele><time>2026-04-25T10:56:55.081Z</time></trkpt><trkpt lat="41.9819075" lon="1.7797984"><ele>653.5</ele><time>2026-04-25T10:56:56.896Z</time></trkpt><trkpt lat="41.9818154" lon="1.7798506"><ele>653.25</ele><time>2026-04-25T10:56:57.896Z</time></trkpt><trkpt lat="41.9817191" lon="1.7798678"><ele>653.0</ele><time>2026-04-25T10:56:58.897Z</time></trkpt><trkpt lat="41.9816108" lon="1.7798514"><ele>653.0</ele><time>2026-04-25T10:56:59.896Z</time></trkpt><trkpt lat="41.9814896" lon="1.7798044"><ele>653.0</ele><time>2026-04-25T10:57:00.896Z</time></trkpt><trkpt lat="41.9813644" lon="1.7797471"><ele>653.0</ele><time>2026-04-25T10:57:01.897Z</time></trkpt><trkpt lat="41.9812301" lon="1.7796877"><ele>653.0</ele><time>2026-04-25T10:57:02.896Z</time></trkpt><trkpt lat="41.9810946" lon="1.7796236"><ele>653.0</ele><time>2026-04-25T10:57:03.897Z</time></trkpt><trkpt lat="41.9809665" lon="1.7795568"><ele>653.0</ele><time>2026-04-25T10:57:04.895Z</time></trkpt><trkpt lat="41.9808417" lon="1.7794951"><ele>653.0</ele><time>2026-04-25T10:57:05.896Z</time></trkpt><trkpt lat="41.9807104" lon="1.7794581"><ele>653.0</ele><time>2026-04-25T10:57:06.896Z</time></trkpt><trkpt lat="41.9805699" lon="1.7794556"><ele>652.0</ele><time>2026-04-25T10:57:07.896Z</time></trkpt><trkpt lat="41.9804301" lon="1.7794934"><ele>651.0</ele><time>2026-04-25T10:57:08.896Z</time></trkpt><trkpt lat="41.9803025" lon="1.7795748"><ele>650.0</ele><time>2026-04-25T10:57:09.897Z</time></trkpt><trkpt lat="41.9801887" lon="1.7796866"><ele>649.0</ele><time>2026-04-25T10:57:10.897Z</time></trkpt><trkpt lat="41.9800743" lon="1.7798179"><ele>649.0</ele><time>2026-04-25T10:57:11.897Z</time></trkpt><trkpt lat="41.9799569" lon="1.7799579"><ele>649.0</ele><time>2026-04-25T10:57:12.897Z</time></trkpt><trkpt lat="41.9798403" lon="1.7801"><ele>649.0</ele><time>2026-04-25T10:57:13.896Z</time></trkpt><trkpt lat="41.9797284" lon="1.7802435"><ele>649.0</ele><time>2026-04-25T10:57:14.896Z</time></trkpt><trkpt lat="41.9796276" lon="1.7803913"><ele>649.0</ele><time>2026-04-25T10:57:15.895Z</time></trkpt><trkpt lat="41.9795332" lon="1.7805388"><ele>649.0</ele><time>2026-04-25T10:57:16.897Z</time></trkpt><trkpt lat="41.979434" lon="1.7806748"><ele>649.0</ele><time>2026-04-25T10:57:17.897Z</time></trkpt><trkpt lat="41.9793259" lon="1.7807943"><ele>649.0</ele><time>2026-04-25T10:57:18.896Z</time></trkpt><trkpt lat="41.9792069" lon="1.780897"><ele>649.0</ele><time>2026-04-25T10:57:19.896Z</time></trkpt><trkpt lat="41.9790791" lon="1.780974"><ele>649.0</ele><time>2026-04-25T10:57:20.896Z</time></trkpt><trkpt lat="41.9789468" lon="1.7810476"><ele>649.0</ele><time>2026-04-25T10:57:21.895Z</time></trkpt><trkpt lat="41.9788146" lon="1.7811449"><ele>650.0</ele><time>2026-04-25T10:57:22.897Z</time></trkpt><trkpt lat="41.9786853" lon="1.7812616"><ele>651.0</ele><time>2026-04-25T10:57:23.896Z</time></trkpt><trkpt lat="41.9785603" lon="1.7813836"><ele>652.0</ele><time>2026-04-25T10:57:24.896Z</time></trkpt><trkpt lat="41.9784436" lon="1.7814905"><ele>653.5</ele><time>2026-04-25T10:57:25.896Z</time></trkpt><trkpt lat="41.9783284" lon="1.7815741"><ele>655.0</ele><time>2026-04-25T10:57:26.896Z</time></trkpt><trkpt lat="41.9782182" lon="1.7816405"><ele>656.5</ele><time>2026-04-25T10:57:27.897Z</time></trkpt><trkpt lat="41.9781176" lon="1.7817191"><ele>658.0</ele><time>2026-04-25T10:57:28.896Z</time></trkpt><trkpt lat="41.9780277" lon="1.781826"><ele>655.5</ele><time>2026-04-25T10:57:29.896Z</time></trkpt><trkpt lat="41.9779535" lon="1.7819649"><ele>653.0</ele><time>2026-04-25T10:57:30.896Z</time></trkpt><trkpt lat="41.9778879" lon="1.7821259"><ele>650.5</ele><time>2026-04-25T10:57:31.896Z</time></trkpt><trkpt lat="41.9778199" lon="1.7823031"><ele>648.0</ele><time>2026-04-25T10:57:32.896Z</time></trkpt><trkpt lat="41.9777498" lon="1.7824934"><ele>645.6666666666666</ele><time>2026-04-25T10:57:33.896Z</time></trkpt><trkpt lat="41.9776783" lon="1.782687"><ele>643.3333333333333</ele><time>2026-04-25T10:57:34.895Z</time></trkpt><trkpt lat="41.9776066" lon="1.7828782"><ele>641.0</ele><time>2026-04-25T10:57:35.896Z</time></trkpt><trkpt lat="41.9775351" lon="1.7830686"><ele>643.0</ele><time>2026-04-25T10:57:36.895Z</time></trkpt><trkpt lat="41.9774678" lon="1.7832627"><ele>645.0</ele><time>2026-04-25T10:57:37.897Z</time></trkpt><trkpt lat="41.977408" lon="1.783464"><ele>647.0</ele><time>2026-04-25T10:57:38.896Z</time></trkpt><trkpt lat="41.9773562" lon="1.7836731"><ele>647.0</ele><time>2026-04-25T10:57:39.896Z</time></trkpt><trkpt lat="41.9773016" lon="1.7838848"><ele>647.0</ele><time>2026-04-25T10:57:40.897Z</time></trkpt><trkpt lat="41.9772441" lon="1.7840947"><ele>647.0</ele><time>2026-04-25T10:57:41.896Z</time></trkpt><trkpt lat="41.9771895" lon="1.7843015"><ele>645.6666666666666</ele><time>2026-04-25T10:57:42.896Z</time></trkpt><trkpt lat="41.9771316" lon="1.7845118"><ele>644.3333333333334</ele><time>2026-04-25T10:57:43.897Z</time></trkpt><trkpt lat="41.97707" lon="1.7847207"><ele>643.0</ele><time>2026-04-25T10:57:44.897Z</time></trkpt><trkpt lat="41.9770106" lon="1.7849332"><ele>643.0</ele><time>2026-04-25T10:57:45.897Z</time></trkpt><trkpt lat="41.9769478" lon="1.7851488"><ele>643.0</ele><time>2026-04-25T10:57:46.897Z</time></trkpt><trkpt lat="41.9768851" lon="1.7853687"><ele>643.0</ele><time>2026-04-25T10:57:47.896Z</time></trkpt><trkpt lat="41.976824" lon="1.7855938"><ele>642.3333333333334</ele><time>2026-04-25T10:57:48.896Z</time></trkpt><trkpt lat="41.976765" lon="1.7858159"><ele>641.6666666666666</ele><time>2026-04-25T10:57:49.897Z</time></trkpt><trkpt lat="41.9767088" lon="1.7860223"><ele>641.0</ele><time>2026-04-25T10:57:50.895Z</time></trkpt><trkpt lat="41.9766511" lon="1.7862059"><ele>639.25</ele><time>2026-04-25T10:57:51.895Z</time></trkpt><trkpt lat="41.9765896" lon="1.7863769"><ele>637.5</ele><time>2026-04-25T10:57:52.897Z</time></trkpt><trkpt lat="41.9765102" lon="1.7865268"><ele>635.75</ele><time>2026-04-25T10:57:53.896Z</time></trkpt><trkpt lat="41.9764018" lon="1.7866485"><ele>634.0</ele><time>2026-04-25T10:57:54.895Z</time></trkpt><trkpt lat="41.9762864" lon="1.7867402"><ele>634.0</ele><time>2026-04-25T10:57:55.895Z</time></trkpt><trkpt lat="41.9761768" lon="1.7868176"><ele>634.0</ele><time>2026-04-25T10:57:56.897Z</time></trkpt><trkpt lat="41.9760592" lon="1.7868866"><ele>634.0</ele><time>2026-04-25T10:57:57.896Z</time></trkpt><trkpt lat="41.9759244" lon="1.7869351"><ele>634.0</ele><time>2026-04-25T10:57:58.896Z</time></trkpt><trkpt lat="41.9757777" lon="1.7869761"><ele>630.6666666666667</ele><time>2026-04-25T10:57:59.896Z</time></trkpt><trkpt lat="41.9756277" lon="1.7870303"><ele>627.3333333333334</ele><time>2026-04-25T10:58:00.896Z</time></trkpt><trkpt lat="41.9754747" lon="1.7870883"><ele>624.0</ele><time>2026-04-25T10:58:01.896Z</time></trkpt><trkpt lat="41.9753242" lon="1.7871482"><ele>624.0</ele><time>2026-04-25T10:58:02.897Z</time></trkpt><trkpt lat="41.9751738" lon="1.7872113"><ele>624.0</ele><time>2026-04-25T10:58:03.895Z</time></trkpt><trkpt lat="41.9750293" lon="1.7872889"><ele>624.0</ele><time>2026-04-25T10:58:04.895Z</time></trkpt><trkpt lat="41.9748895" lon="1.7873878"><ele>623.3333333333334</ele><time>2026-04-25T10:58:05.896Z</time></trkpt><trkpt lat="41.9747556" lon="1.7875115"><ele>622.6666666666667</ele><time>2026-04-25T10:58:06.897Z</time></trkpt><trkpt lat="41.9746301" lon="1.7876597"><ele>622.0</ele><time>2026-04-25T10:58:07.896Z</time></trkpt><trkpt lat="41.9745092" lon="1.7878263"><ele>623.3333333333334</ele><time>2026-04-25T10:58:08.897Z</time></trkpt><trkpt lat="41.9743906" lon="1.7880074"><ele>624.6666666666666</ele><time>2026-04-25T10:58:09.897Z</time></trkpt><trkpt lat="41.9742782" lon="1.788194"><ele>626.0</ele><time>2026-04-25T10:58:10.895Z</time></trkpt><trkpt lat="41.9741655" lon="1.788383"><ele>623.3333333333333</ele><time>2026-04-25T10:58:11.896Z</time></trkpt><trkpt lat="41.9740442" lon="1.7885563"><ele>620.6666666666666</ele><time>2026-04-25T10:58:12.896Z</time></trkpt><trkpt lat="41.9739123" lon="1.7887172"><ele>618.0</ele><time>2026-04-25T10:58:13.896Z</time></trkpt><trkpt lat="41.9737821" lon="1.7888698"><ele>618.0</ele><time>2026-04-25T10:58:14.896Z</time></trkpt><trkpt lat="41.9736574" lon="1.7890209"><ele>618.0</ele><time>2026-04-25T10:58:15.897Z</time></trkpt><trkpt lat="41.9735361" lon="1.7891754"><ele>618.0</ele><time>2026-04-25T10:58:16.895Z</time></trkpt><trkpt lat="41.9734206" lon="1.7893213"><ele>617.25</ele><time>2026-04-25T10:58:17.897Z</time></trkpt><trkpt lat="41.9733046" lon="1.7894442"><ele>616.5</ele><time>2026-04-25T10:58:18.896Z</time></trkpt><trkpt lat="41.9731824" lon="1.789534"><ele>615.75</ele><time>2026-04-25T10:58:19.896Z</time></trkpt><trkpt lat="41.9730625" lon="1.7896073"><ele>615.0</ele><time>2026-04-25T10:58:20.897Z</time></trkpt><trkpt lat="41.9729534" lon="1.7896966"><ele>615.0</ele><time>2026-04-25T10:58:21.896Z</time></trkpt><trkpt lat="41.9728701" lon="1.7898302"><ele>615.0</ele><time>2026-04-25T10:58:22.897Z</time></trkpt><trkpt lat="41.9728057" lon="1.7899966"><ele>615.0</ele><time>2026-04-25T10:58:23.897Z</time></trkpt><trkpt lat="41.9727402" lon="1.7901783"><ele>615.0</ele><time>2026-04-25T10:58:24.895Z</time></trkpt><trkpt lat="41.9726667" lon="1.7903687"><ele>614.75</ele><time>2026-04-25T10:58:25.896Z</time></trkpt><trkpt lat="41.9725906" lon="1.7905461"><ele>614.5</ele><time>2026-04-25T10:58:26.896Z</time></trkpt><trkpt lat="41.9725113" lon="1.7907037"><ele>614.25</ele><time>2026-04-25T10:58:27.897Z</time></trkpt><trkpt lat="41.9724299" lon="1.790853"><ele>614.0</ele><time>2026-04-25T10:58:28.896Z</time></trkpt><trkpt lat="41.9723315" lon="1.7909773"><ele>614.25</ele><time>2026-04-25T10:58:29.895Z</time></trkpt><trkpt lat="41.9722216" lon="1.7910618"><ele>614.5</ele><time>2026-04-25T10:58:30.897Z</time></trkpt><trkpt lat="41.9721077" lon="1.7911043"><ele>614.75</ele><time>2026-04-25T10:58:31.897Z</time></trkpt><trkpt lat="41.9719943" lon="1.7911074"><ele>615.0</ele><time>2026-04-25T10:58:32.896Z</time></trkpt><trkpt lat="41.9718836" lon="1.7910662"><ele>616.2</ele><time>2026-04-25T10:58:33.896Z</time></trkpt><trkpt lat="41.9717706" lon="1.7909985"><ele>617.4</ele><time>2026-04-25T10:58:34.896Z</time></trkpt><trkpt lat="41.9716631" lon="1.7909283"><ele>618.6</ele><time>2026-04-25T10:58:35.896Z</time></trkpt><trkpt lat="41.9715686" lon="1.79087"><ele>619.8</ele><time>2026-04-25T10:58:36.895Z</time></trkpt><trkpt lat="41.9714838" lon="1.7908433"><ele>621.0</ele><time>2026-04-25T10:58:37.897Z</time></trkpt><trkpt lat="41.9713949" lon="1.790853"><ele>621.4</ele><time>2026-04-25T10:58:38.896Z</time></trkpt><trkpt lat="41.9713122" lon="1.7909181"><ele>621.8</ele><time>2026-04-25T10:58:39.897Z</time></trkpt><trkpt lat="41.9712472" lon="1.7910258"><ele>622.1999999999999</ele><time>2026-04-25T10:58:40.897Z</time></trkpt><trkpt lat="41.9712066" lon="1.7911706"><ele>622.6</ele><time>2026-04-25T10:58:41.895Z</time></trkpt><trkpt lat="41.9711908" lon="1.7913302"><ele>623.0</ele><time>2026-04-25T10:58:42.896Z</time></trkpt><trkpt lat="41.9711864" lon="1.7915062"><ele>623.0</ele><time>2026-04-25T10:58:43.897Z</time></trkpt><trkpt lat="41.9711846" lon="1.7916974"><ele>623.0</ele><time>2026-04-25T10:58:44.896Z</time></trkpt><trkpt lat="41.9711682" lon="1.7918929"><ele>623.0</ele><time>2026-04-25T10:58:45.897Z</time></trkpt><trkpt lat="41.9711416" lon="1.7920845"><ele>623.0</ele><time>2026-04-25T10:58:46.896Z</time></trkpt><trkpt lat="41.971111" lon="1.7922617"><ele>622.75</ele><time>2026-04-25T10:58:47.896Z</time></trkpt><trkpt lat="41.9710765" lon="1.7924178"><ele>622.5</ele><time>2026-04-25T10:58:48.897Z</time></trkpt><trkpt lat="41.9710292" lon="1.7925607"><ele>622.25</ele><time>2026-04-25T10:58:49.896Z</time></trkpt><trkpt lat="41.9709632" lon="1.7927"><ele>622.0</ele><time>2026-04-25T10:58:50.896Z</time></trkpt><trkpt lat="41.9708728" lon="1.7928043"><ele>624.25</ele><time>2026-04-25T10:58:51.896Z</time></trkpt><trkpt lat="41.9707596" lon="1.7928752"><ele>626.5</ele><time>2026-04-25T10:58:52.897Z</time></trkpt><trkpt lat="41.9706276" lon="1.792918"><ele>628.75</ele><time>2026-04-25T10:58:53.897Z</time></trkpt><trkpt lat="41.9704812" lon="1.7929333"><ele>631.0</ele><time>2026-04-25T10:58:54.896Z</time></trkpt><trkpt lat="41.9703299" lon="1.7929248"><ele>631.0</ele><time>2026-04-25T10:58:55.897Z</time></trkpt><trkpt lat="41.9701819" lon="1.7929101"><ele>631.0</ele><time>2026-04-25T10:58:56.896Z</time></trkpt><trkpt lat="41.9700412" lon="1.7928933"><ele>631.0</ele><time>2026-04-25T10:58:57.897Z</time></trkpt><trkpt lat="41.9699093" lon="1.7928853"><ele>631.0</ele><time>2026-04-25T10:58:58.896Z</time></trkpt><trkpt lat="41.9697871" lon="1.7928984"><ele>630.75</ele><time>2026-04-25T10:58:59.897Z</time></trkpt><trkpt lat="41.9696713" lon="1.792943"><ele>630.5</ele><time>2026-04-25T10:59:00.895Z</time></trkpt><trkpt lat="41.9695582" lon="1.793027"><ele>630.25</ele><time>2026-04-25T10:59:01.896Z</time></trkpt><trkpt lat="41.9694579" lon="1.7931481"><ele>630.0</ele><time>2026-04-25T10:59:02.897Z</time></trkpt><trkpt lat="41.9693659" lon="1.793292"><ele>630.0</ele><time>2026-04-25T10:59:03.896Z</time></trkpt><trkpt lat="41.9692909" lon="1.7934487"><ele>630.0</ele><time>2026-04-25T10:59:04.896Z</time></trkpt><trkpt lat="41.9692325" lon="1.7935993"><ele>630.0</ele><time>2026-04-25T10:59:05.897Z</time></trkpt><trkpt lat="41.969171" lon="1.7937242"><ele>630.0</ele><time>2026-04-25T10:59:06.895Z</time></trkpt><trkpt lat="41.9690803" lon="1.7938329"><ele>627.75</ele><time>2026-04-25T10:59:07.897Z</time></trkpt><trkpt lat="41.9689725" lon="1.7939232"><ele>625.5</ele><time>2026-04-25T10:59:08.896Z</time></trkpt><trkpt lat="41.9688513" lon="1.7940029"><ele>623.25</ele><time>2026-04-25T10:59:09.897Z</time></trkpt><trkpt lat="41.9687167" lon="1.7940721"><ele>621.0</ele><time>2026-04-25T10:59:10.896Z</time></trkpt><trkpt lat="41.9685749" lon="1.7941265"><ele>621.0</ele><time>2026-04-25T10:59:11.896Z</time></trkpt><trkpt lat="41.9684364" lon="1.7941715"><ele>621.0</ele><time>2026-04-25T10:59:12.896Z</time></trkpt><trkpt lat="41.9683085" lon="1.7942039"><ele>621.0</ele><time>2026-04-25T10:59:13.897Z</time></trkpt><trkpt lat="41.9681843" lon="1.7942082"><ele>621.0</ele><time>2026-04-25T10:59:14.896Z</time></trkpt><trkpt lat="41.9680619" lon="1.7941828"><ele>621.6</ele><time>2026-04-25T10:59:15.897Z</time></trkpt><trkpt lat="41.9679428" lon="1.794147"><ele>622.2</ele><time>2026-04-25T10:59:16.895Z</time></trkpt><trkpt lat="41.967836" lon="1.7941296"><ele>622.8</ele><time>2026-04-25T10:59:17.896Z</time></trkpt><trkpt lat="41.9677326" lon="1.7941362"><ele>623.4</ele><time>2026-04-25T10:59:18.897Z</time></trkpt><trkpt lat="41.9676382" lon="1.7941735"><ele>624.0</ele><time>2026-04-25T10:59:19.895Z</time></trkpt><trkpt lat="41.9675589" lon="1.7942686"><ele>624.0</ele><time>2026-04-25T10:59:20.897Z</time></trkpt><trkpt lat="41.9674958" lon="1.7943957"><ele>624.0</ele><time>2026-04-25T10:59:21.896Z</time></trkpt><trkpt lat="41.9674565" lon="1.794551"><ele>624.0</ele><time>2026-04-25T10:59:22.896Z</time></trkpt><trkpt lat="41.9674452" lon="1.7947234"><ele>624.0</ele><time>2026-04-25T10:59:23.895Z</time></trkpt><trkpt lat="41.9674642" lon="1.7948919"><ele>624.0</ele><time>2026-04-25T10:59:24.895Z</time></trkpt><trkpt lat="41.9674983" lon="1.7950408"><ele>624.0</ele><time>2026-04-25T10:59:25.896Z</time></trkpt><trkpt lat="41.9675225" lon="1.7951711"><ele>624.0</ele><time>2026-04-25T10:59:26.896Z</time></trkpt><trkpt lat="41.9675072" lon="1.7952937"><ele>624.0</ele><time>2026-04-25T10:59:27.896Z</time></trkpt><trkpt lat="41.967458" lon="1.7954036"><ele>624.0</ele><time>2026-04-25T10:59:28.896Z</time></trkpt><trkpt lat="41.9673828" lon="1.7955132"><ele>623.5</ele><time>2026-04-25T10:59:29.896Z</time></trkpt><trkpt lat="41.9672985" lon="1.7956409"><ele>623.0</ele><time>2026-04-25T10:59:30.896Z</time></trkpt><trkpt lat="41.9672307" lon="1.7957894"><ele>622.5</ele><time>2026-04-25T10:59:31.896Z</time></trkpt><trkpt lat="41.9671784" lon="1.7959647"><ele>622.0</ele><time>2026-04-25T10:59:32.897Z</time></trkpt><trkpt lat="41.9671384" lon="1.796156"><ele>621.6666666666667</ele><time>2026-04-25T10:59:33.896Z</time></trkpt><trkpt lat="41.9671013" lon="1.7963577"><ele>621.3333333333334</ele><time>2026-04-25T10:59:34.896Z</time></trkpt><trkpt lat="41.9670632" lon="1.7965598"><ele>621.0</ele><time>2026-04-25T10:59:35.895Z</time></trkpt><trkpt lat="41.9670106" lon="1.796759"><ele>620.3333333333334</ele><time>2026-04-25T10:59:36.895Z</time></trkpt><trkpt lat="41.9669403" lon="1.7969535"><ele>619.6666666666667</ele><time>2026-04-25T10:59:37.897Z</time></trkpt><trkpt lat="41.96687" lon="1.7971465"><ele>619.0</ele><time>2026-04-25T10:59:38.896Z</time></trkpt><trkpt lat="41.9668151" lon="1.7973419"><ele>619.0</ele><time>2026-04-25T10:59:39.897Z</time></trkpt><trkpt lat="41.9667668" lon="1.7975378"><ele>619.0</ele><time>2026-04-25T10:59:40.896Z</time></trkpt><trkpt lat="41.9667101" lon="1.7977125"><ele>619.0</ele><time>2026-04-25T10:59:41.896Z</time></trkpt><trkpt lat="41.9666286" lon="1.7978629"><ele>619.0</ele><time>2026-04-25T10:59:42.897Z</time></trkpt><trkpt lat="41.9665266" lon="1.7980039"><ele>622.3333333333334</ele><time>2026-04-25T10:59:43.896Z</time></trkpt><trkpt lat="41.9664215" lon="1.7981442"><ele>625.6666666666666</ele><time>2026-04-25T10:59:44.896Z</time></trkpt><trkpt lat="41.966341" lon="1.7983114"><ele>629.0</ele><time>2026-04-25T10:59:45.896Z</time></trkpt><trkpt lat="41.9662767" lon="1.7985004"><ele>628.0</ele><time>2026-04-25T10:59:46.897Z</time></trkpt><trkpt lat="41.9662126" lon="1.7986988"><ele>627.0</ele><time>2026-04-25T10:59:47.895Z</time></trkpt><trkpt lat="41.9661421" lon="1.7988694"><ele>626.0</ele><time>2026-04-25T10:59:48.896Z</time></trkpt><trkpt lat="41.9660531" lon="1.7990235"><ele>626.0</ele><time>2026-04-25T10:59:49.896Z</time></trkpt><trkpt lat="41.9659432" lon="1.799171"><ele>626.0</ele><time>2026-04-25T10:59:50.897Z</time></trkpt><trkpt lat="41.9658316" lon="1.7992976"><ele>626.0</ele><time>2026-04-25T10:59:51.897Z</time></trkpt><trkpt lat="41.9657278" lon="1.79939"><ele>626.0</ele><time>2026-04-25T10:59:52.896Z</time></trkpt><trkpt lat="41.9656141" lon="1.7994447"><ele>624.0</ele><time>2026-04-25T10:59:53.896Z</time></trkpt><trkpt lat="41.9654845" lon="1.7994483"><ele>622.0</ele><time>2026-04-25T10:59:54.897Z</time></trkpt><trkpt lat="41.9653476" lon="1.7994211"><ele>620.0</ele><time>2026-04-25T10:59:55.895Z</time></trkpt><trkpt lat="41.9651988" lon="1.7994057"><ele>618.0</ele><time>2026-04-25T10:59:56.895Z</time></trkpt><trkpt lat="41.9650458" lon="1.7994059"><ele>617.5</ele><time>2026-04-25T10:59:57.895Z</time></trkpt><trkpt lat="41.9648984" lon="1.7994225"><ele>617.0</ele><time>2026-04-25T10:59:58.895Z</time></trkpt><trkpt lat="41.9647631" lon="1.799456"><ele>616.5</ele><time>2026-04-25T10:59:59.895Z</time></trkpt><trkpt lat="41.9646383" lon="1.7994983"><ele>616.0</ele><time>2026-04-25T11:00:00.895Z</time></trkpt><trkpt lat="41.9645215" lon="1.7995101"><ele>616.0</ele><time>2026-04-25T11:00:01.895Z</time></trkpt><trkpt lat="41.9644001" lon="1.7994704"><ele>616.0</ele><time>2026-04-25T11:00:02.896Z</time></trkpt><trkpt lat="41.9642884" lon="1.7993933"><ele>616.0</ele><time>2026-04-25T11:00:03.895Z</time></trkpt><trkpt lat="41.9641948" lon="1.7993167"><ele>616.0</ele><time>2026-04-25T11:00:04.896Z</time></trkpt><trkpt lat="41.9641073" lon="1.7992745"><ele>618.0</ele><time>2026-04-25T11:00:05.896Z</time></trkpt><trkpt lat="41.9640106" lon="1.7992752"><ele>620.0</ele><time>2026-04-25T11:00:06.894Z</time></trkpt><trkpt lat="41.9639057" lon="1.7993254"><ele>622.0</ele><time>2026-04-25T11:00:07.896Z</time></trkpt><trkpt lat="41.9638011" lon="1.799421"><ele>624.0</ele><time>2026-04-25T11:00:08.895Z</time></trkpt><trkpt lat="41.9636907" lon="1.7995411"><ele>618.0</ele><time>2026-04-25T11:00:09.895Z</time></trkpt><trkpt lat="41.9635781" lon="1.7996708"><ele>612.0</ele><time>2026-04-25T11:00:10.896Z</time></trkpt><trkpt lat="41.9634553" lon="1.7997882"><ele>606.0</ele><time>2026-04-25T11:00:11.895Z</time></trkpt><trkpt lat="41.9633182" lon="1.7998899"><ele>605.3333333333334</ele><time>2026-04-25T11:00:12.895Z</time></trkpt><trkpt lat="41.9631777" lon="1.799989"><ele>604.6666666666667</ele><time>2026-04-25T11:00:13.895Z</time></trkpt><trkpt lat="41.9630378" lon="1.8001031"><ele>604.0</ele><time>2026-04-25T11:00:14.894Z</time></trkpt><trkpt lat="41.9629006" lon="1.8002246"><ele>601.0</ele><time>2026-04-25T11:00:15.895Z</time></trkpt><trkpt lat="41.9627586" lon="1.8003418"><ele>598.0</ele><time>2026-04-25T11:00:16.895Z</time></trkpt><trkpt lat="41.9626136" lon="1.8004338"><ele>595.0</ele><time>2026-04-25T11:00:17.896Z</time></trkpt><trkpt lat="41.9624801" lon="1.8005111"><ele>595.0</ele><time>2026-04-25T11:00:18.895Z</time></trkpt><trkpt lat="41.9623704" lon="1.8005987"><ele>595.0</ele><time>2026-04-25T11:00:19.894Z</time></trkpt><trkpt lat="41.9622772" lon="1.8007166"><ele>595.0</ele><time>2026-04-25T11:00:20.895Z</time></trkpt><trkpt lat="41.9622154" lon="1.800865"><ele>595.0</ele><time>2026-04-25T11:00:21.895Z</time></trkpt><trkpt lat="41.9621844" lon="1.8010345"><ele>593.0</ele><time>2026-04-25T11:00:22.895Z</time></trkpt><trkpt lat="41.962161" lon="1.8012078"><ele>591.0</ele><time>2026-04-25T11:00:23.894Z</time></trkpt><trkpt lat="41.9621067" lon="1.8013586"><ele>589.0</ele><time>2026-04-25T11:00:24.895Z</time></trkpt><trkpt lat="41.9620219" lon="1.8014856"><ele>587.0</ele><time>2026-04-25T11:00:25.896Z</time></trkpt><trkpt lat="41.9619102" lon="1.8015629"><ele>587.0</ele><time>2026-04-25T11:00:26.895Z</time></trkpt><trkpt lat="41.9617762" lon="1.8016099"><ele>587.0</ele><time>2026-04-25T11:00:27.895Z</time></trkpt><trkpt lat="41.9616292" lon="1.8016601"><ele>587.0</ele><time>2026-04-25T11:00:28.895Z</time></trkpt><trkpt lat="41.9614831" lon="1.8017186"><ele>587.0</ele><time>2026-04-25T11:00:29.896Z</time></trkpt><trkpt lat="41.9613449" lon="1.8017765"><ele>587.25</ele><time>2026-04-25T11:00:30.896Z</time></trkpt><trkpt lat="41.9612183" lon="1.801839"><ele>587.5</ele><time>2026-04-25T11:00:31.896Z</time></trkpt><trkpt lat="41.961102" lon="1.8019306"><ele>587.75</ele><time>2026-04-25T11:00:32.895Z</time></trkpt><trkpt lat="41.9609911" lon="1.8020754"><ele>588.0</ele><time>2026-04-25T11:00:33.895Z</time></trkpt><trkpt lat="41.9608848" lon="1.8022307"><ele>590.25</ele><time>2026-04-25T11:00:34.894Z</time></trkpt><trkpt lat="41.9607955" lon="1.8023843"><ele>592.5</ele><time>2026-04-25T11:00:35.896Z</time></trkpt><trkpt lat="41.9607322" lon="1.8025483"><ele>594.75</ele><time>2026-04-25T11:00:36.896Z</time></trkpt><trkpt lat="41.9607011" lon="1.8027386"><ele>597.0</ele><time>2026-04-25T11:00:37.895Z</time></trkpt><trkpt lat="41.9606871" lon="1.8029357"><ele>597.0</ele><time>2026-04-25T11:00:38.896Z</time></trkpt><trkpt lat="41.9606662" lon="1.8031236"><ele>597.0</ele><time>2026-04-25T11:00:39.896Z</time></trkpt><trkpt lat="41.9606267" lon="1.8033008"><ele>597.0</ele><time>2026-04-25T11:00:40.895Z</time></trkpt><trkpt lat="41.9605625" lon="1.8034693"><ele>597.0</ele><time>2026-04-25T11:00:41.895Z</time></trkpt><trkpt lat="41.9604763" lon="1.8036281"><ele>595.6666666666666</ele><time>2026-04-25T11:00:42.895Z</time></trkpt><trkpt lat="41.9603733" lon="1.8037795"><ele>594.3333333333333</ele><time>2026-04-25T11:00:43.896Z</time></trkpt><trkpt lat="41.9602565" lon="1.803924"><ele>593.0</ele><time>2026-04-25T11:00:44.895Z</time></trkpt><trkpt lat="41.9601401" lon="1.8040715"><ele>597.3333333333333</ele><time>2026-04-25T11:00:45.894Z</time></trkpt><trkpt lat="41.9600327" lon="1.8042257"><ele>601.6666666666666</ele><time>2026-04-25T11:00:46.895Z</time></trkpt><trkpt lat="41.9599368" lon="1.8043899"><ele>606.0</ele><time>2026-04-25T11:00:47.896Z</time></trkpt><trkpt lat="41.9598415" lon="1.8045637"><ele>606.0</ele><time>2026-04-25T11:00:48.895Z</time></trkpt><trkpt lat="41.9597417" lon="1.8047393"><ele>606.0</ele><time>2026-04-25T11:00:49.896Z</time></trkpt><trkpt lat="41.959638" lon="1.8049174"><ele>606.0</ele><time>2026-04-25T11:00:50.896Z</time></trkpt><trkpt lat="41.9595334" lon="1.8051025"><ele>604.6666666666666</ele><time>2026-04-25T11:00:51.896Z</time></trkpt><trkpt lat="41.9594318" lon="1.8052931"><ele>603.3333333333333</ele><time>2026-04-25T11:00:52.895Z</time></trkpt><trkpt lat="41.9593431" lon="1.8054939"><ele>602.0</ele><time>2026-04-25T11:00:53.896Z</time></trkpt><trkpt lat="41.9592754" lon="1.8056912"><ele>602.0</ele><time>2026-04-25T11:00:54.896Z</time></trkpt><trkpt lat="41.959229" lon="1.8058832"><ele>602.0</ele><time>2026-04-25T11:00:55.894Z</time></trkpt><trkpt lat="41.959196" lon="1.8060657"><ele>602.0</ele><time>2026-04-25T11:00:56.895Z</time></trkpt><trkpt lat="41.9591568" lon="1.8062386"><ele>602.0</ele><time>2026-04-25T11:00:57.895Z</time></trkpt><trkpt lat="41.9590883" lon="1.8063982"><ele>605.0</ele><time>2026-04-25T11:00:58.896Z</time></trkpt><trkpt lat="41.9589986" lon="1.8065525"><ele>608.0</ele><time>2026-04-25T11:00:59.895Z</time></trkpt><trkpt lat="41.9588868" lon="1.806705"><ele>611.0</ele><time>2026-04-25T11:01:00.895Z</time></trkpt><trkpt lat="41.9587633" lon="1.8068637"><ele>611.0</ele><time>2026-04-25T11:01:01.894Z</time></trkpt><trkpt lat="41.9586416" lon="1.8070229"><ele>611.0</ele><time>2026-04-25T11:01:02.895Z</time></trkpt><trkpt lat="41.9585196" lon="1.8071917"><ele>611.0</ele><time>2026-04-25T11:01:03.896Z</time></trkpt><trkpt lat="41.9584033" lon="1.8073729"><ele>611.3333333333333</ele><time>2026-04-25T11:01:04.894Z</time></trkpt><trkpt lat="41.9582953" lon="1.8075702"><ele>611.6666666666666</ele><time>2026-04-25T11:01:05.895Z</time></trkpt><trkpt lat="41.9581954" lon="1.8077785"><ele>612.0</ele><time>2026-04-25T11:01:06.895Z</time></trkpt><trkpt lat="41.9581012" lon="1.8079861"><ele>612.0</ele><time>2026-04-25T11:01:07.895Z</time></trkpt><trkpt lat="41.9580125" lon="1.8081797"><ele>612.0</ele><time>2026-04-25T11:01:08.896Z</time></trkpt><trkpt lat="41.9579273" lon="1.8083517"><ele>612.0</ele><time>2026-04-25T11:01:09.895Z</time></trkpt><trkpt lat="41.9578443" lon="1.808503"><ele>612.4</ele><time>2026-04-25T11:01:10.894Z</time></trkpt><trkpt lat="41.9577621" lon="1.8086379"><ele>612.8000000000001</ele><time>2026-04-25T11:01:11.894Z</time></trkpt><trkpt lat="41.9576899" lon="1.8087483"><ele>613.2</ele><time>2026-04-25T11:01:12.896Z</time></trkpt><trkpt lat="41.9576276" lon="1.8088361"><ele>613.6</ele><time>2026-04-25T11:01:13.895Z</time></trkpt><trkpt lat="41.9575679" lon="1.8089011"><ele>614.0</ele><time>2026-04-25T11:01:14.895Z</time></trkpt><trkpt lat="41.9574639" lon="1.8089368"><ele>614.8333333333333</ele><time>2026-04-25T11:01:16.896Z</time></trkpt><trkpt lat="41.9574006" lon="1.8089314"><ele>615.6666666666666</ele><time>2026-04-25T11:01:24.894Z</time></trkpt><trkpt lat="41.9573294" lon="1.8088625"><ele>616.5</ele><time>2026-04-25T11:01:27.895Z</time></trkpt><trkpt lat="41.9573184" lon="1.8087166"><ele>617.3333333333334</ele><time>2026-04-25T11:01:29.895Z</time></trkpt><trkpt lat="41.9573412" lon="1.8086112"><ele>618.1666666666667</ele><time>2026-04-25T11:01:30.895Z</time></trkpt><trkpt lat="41.9573621" lon="1.8084842"><ele>619.0</ele><time>2026-04-25T11:01:31.895Z</time></trkpt><trkpt lat="41.9573807" lon="1.8083339"><ele>620.25</ele><time>2026-04-25T11:01:32.896Z</time></trkpt><trkpt lat="41.9574019" lon="1.8081536"><ele>621.5</ele><time>2026-04-25T11:01:33.895Z</time></trkpt><trkpt lat="41.9574276" lon="1.8079705"><ele>622.75</ele><time>2026-04-25T11:01:34.895Z</time></trkpt><trkpt lat="41.9574644" lon="1.8077717"><ele>624.0</ele><time>2026-04-25T11:01:35.895Z</time></trkpt><trkpt lat="41.9575301" lon="1.807578"><ele>621.0</ele><time>2026-04-25T11:01:36.895Z</time></trkpt><trkpt lat="41.9576211" lon="1.8073975"><ele>618.0</ele><time>2026-04-25T11:01:37.895Z</time></trkpt><trkpt lat="41.9577222" lon="1.807227"><ele>615.0</ele><time>2026-04-25T11:01:38.895Z</time></trkpt><trkpt lat="41.9578269" lon="1.8070411"><ele>615.0</ele><time>2026-04-25T11:01:39.895Z</time></trkpt><trkpt lat="41.9579243" lon="1.8068388"><ele>615.0</ele><time>2026-04-25T11:01:40.894Z</time></trkpt><trkpt lat="41.9580157" lon="1.8066213"><ele>615.0</ele><time>2026-04-25T11:01:41.896Z</time></trkpt><trkpt lat="41.9581017" lon="1.8064004"><ele>619.6666666666666</ele><time>2026-04-25T11:01:42.895Z</time></trkpt><trkpt lat="41.958183" lon="1.8061693"><ele>624.3333333333333</ele><time>2026-04-25T11:01:43.896Z</time></trkpt><trkpt lat="41.9582538" lon="1.8059257"><ele>629.0</ele><time>2026-04-25T11:01:44.896Z</time></trkpt><trkpt lat="41.9583075" lon="1.805666"><ele>626.3333333333333</ele><time>2026-04-25T11:01:45.895Z</time></trkpt><trkpt lat="41.9583505" lon="1.8053984"><ele>623.6666666666666</ele><time>2026-04-25T11:01:46.896Z</time></trkpt><trkpt lat="41.9583896" lon="1.8051318"><ele>621.0</ele><time>2026-04-25T11:01:47.895Z</time></trkpt><trkpt lat="41.9584232" lon="1.8048735"><ele>621.0</ele><time>2026-04-25T11:01:48.895Z</time></trkpt><trkpt lat="41.9584425" lon="1.8046351"><ele>621.0</ele><time>2026-04-25T11:01:49.895Z</time></trkpt><trkpt lat="41.9584492" lon="1.8044083"><ele>621.0</ele><time>2026-04-25T11:01:50.895Z</time></trkpt><trkpt lat="41.9584521" lon="1.8041998"><ele>624.0</ele><time>2026-04-25T11:01:51.896Z</time></trkpt><trkpt lat="41.9584541" lon="1.8040204"><ele>627.0</ele><time>2026-04-25T11:01:52.894Z</time></trkpt><trkpt lat="41.9584831" lon="1.8038664"><ele>630.0</ele><time>2026-04-25T11:01:53.896Z</time></trkpt><trkpt lat="41.9585467" lon="1.8037292"><ele>633.0</ele><time>2026-04-25T11:01:54.895Z</time></trkpt><trkpt lat="41.958639" lon="1.8036256"><ele>633.0</ele><time>2026-04-25T11:01:55.896Z</time></trkpt><trkpt lat="41.9587578" lon="1.8035661"><ele>633.0</ele><time>2026-04-25T11:01:56.895Z</time></trkpt><trkpt lat="41.9588909" lon="1.8035134"><ele>633.0</ele><time>2026-04-25T11:01:57.894Z</time></trkpt><trkpt lat="41.9590248" lon="1.8034388"><ele>633.0</ele><time>2026-04-25T11:01:58.894Z</time></trkpt><trkpt lat="41.9591579" lon="1.8033449"><ele>631.75</ele><time>2026-04-25T11:01:59.896Z</time></trkpt><trkpt lat="41.9592856" lon="1.8032509"><ele>630.5</ele><time>2026-04-25T11:02:00.894Z</time></trkpt><trkpt lat="41.9593995" lon="1.803162"><ele>629.25</ele><time>2026-04-25T11:02:01.895Z</time></trkpt><trkpt lat="41.9594842" lon="1.8030637"><ele>628.0</ele><time>2026-04-25T11:02:02.895Z</time></trkpt><trkpt lat="41.959536" lon="1.8029549"><ele>628.0</ele><time>2026-04-25T11:02:03.894Z</time></trkpt><trkpt lat="41.9595558" lon="1.8028189"><ele>628.0</ele><time>2026-04-25T11:02:04.896Z</time></trkpt><trkpt lat="41.9595379" lon="1.8026627"><ele>628.0</ele><time>2026-04-25T11:02:05.894Z</time></trkpt><trkpt lat="41.9594924" lon="1.802497"><ele>628.0</ele><time>2026-04-25T11:02:06.896Z</time></trkpt><trkpt lat="41.9594432" lon="1.8023175"><ele>629.5</ele><time>2026-04-25T11:02:07.896Z</time></trkpt><trkpt lat="41.9593973" lon="1.8021265"><ele>631.0</ele><time>2026-04-25T11:02:08.894Z</time></trkpt><trkpt lat="41.9593675" lon="1.8019407"><ele>632.5</ele><time>2026-04-25T11:02:09.895Z</time></trkpt><trkpt lat="41.9593527" lon="1.8017558"><ele>634.0</ele><time>2026-04-25T11:02:10.895Z</time></trkpt><trkpt lat="41.9593666" lon="1.8015732"><ele>636.0</ele><time>2026-04-25T11:02:11.896Z</time></trkpt><trkpt lat="41.9594118" lon="1.8013941"><ele>638.0</ele><time>2026-04-25T11:02:12.895Z</time></trkpt><trkpt lat="41.9594909" lon="1.8012307"><ele>640.0</ele><time>2026-04-25T11:02:13.895Z</time></trkpt><trkpt lat="41.9596021" lon="1.8010863"><ele>642.0</ele><time>2026-04-25T11:02:14.896Z</time></trkpt><trkpt lat="41.9597387" lon="1.8009694"><ele>643.6666666666666</ele><time>2026-04-25T11:02:15.895Z</time></trkpt><trkpt lat="41.9598871" lon="1.8008571"><ele>645.3333333333333</ele><time>2026-04-25T11:02:16.895Z</time></trkpt><trkpt lat="41.9600281" lon="1.8007205"><ele>647.0</ele><time>2026-04-25T11:02:17.894Z</time></trkpt><trkpt lat="41.9601531" lon="1.8005675"><ele>647.0</ele><time>2026-04-25T11:02:18.896Z</time></trkpt><trkpt lat="41.9602755" lon="1.8004276"><ele>647.0</ele><time>2026-04-25T11:02:19.895Z</time></trkpt><trkpt lat="41.9604035" lon="1.8003331"><ele>647.0</ele><time>2026-04-25T11:02:20.895Z</time></trkpt><trkpt lat="41.9605417" lon="1.8002854"><ele>647.0</ele><time>2026-04-25T11:02:21.895Z</time></trkpt><trkpt lat="41.9606732" lon="1.8002466"><ele>647.0</ele><time>2026-04-25T11:02:22.894Z</time></trkpt><trkpt lat="41.9607857" lon="1.8001793"><ele>647.0</ele><time>2026-04-25T11:02:23.895Z</time></trkpt><trkpt lat="41.9608943" lon="1.8000626"><ele>647.0</ele><time>2026-04-25T11:02:24.895Z</time></trkpt><trkpt lat="41.9609943" lon="1.7999062"><ele>647.0</ele><time>2026-04-25T11:02:25.896Z</time></trkpt><trkpt lat="41.9611036" lon="1.7997248"><ele>646.3333333333333</ele><time>2026-04-25T11:02:26.895Z</time></trkpt><trkpt lat="41.9612136" lon="1.799537"><ele>645.6666666666666</ele><time>2026-04-25T11:02:27.896Z</time></trkpt><trkpt lat="41.9613334" lon="1.7993293"><ele>645.0</ele><time>2026-04-25T11:02:28.895Z</time></trkpt><trkpt lat="41.961459" lon="1.7991176"><ele>644.6666666666666</ele><time>2026-04-25T11:02:29.895Z</time></trkpt><trkpt lat="41.9615823" lon="1.7989105"><ele>644.3333333333333</ele><time>2026-04-25T11:02:30.896Z</time></trkpt><trkpt lat="41.9616991" lon="1.7987099"><ele>644.0</ele><time>2026-04-25T11:02:31.894Z</time></trkpt><trkpt lat="41.9618158" lon="1.7985227"><ele>658.3333333333333</ele><time>2026-04-25T11:02:32.895Z</time></trkpt><trkpt lat="41.9619508" lon="1.7983619"><ele>672.6666666666666</ele><time>2026-04-25T11:02:33.896Z</time></trkpt><trkpt lat="41.962109" lon="1.798228"><ele>687.0</ele><time>2026-04-25T11:02:34.895Z</time></trkpt><trkpt lat="41.9622855" lon="1.7981228"><ele>687.0</ele><time>2026-04-25T11:02:35.896Z</time></trkpt><trkpt lat="41.9624613" lon="1.7980287"><ele>687.0</ele><time>2026-04-25T11:02:36.895Z</time></trkpt><trkpt lat="41.9626323" lon="1.7979242"><ele>687.0</ele><time>2026-04-25T11:02:37.894Z</time></trkpt><trkpt lat="41.9627972" lon="1.7977918"><ele>693.0</ele><time>2026-04-25T11:02:38.895Z</time></trkpt><trkpt lat="41.9629535" lon="1.797628"><ele>699.0</ele><time>2026-04-25T11:02:39.896Z</time></trkpt><trkpt lat="41.9631121" lon="1.79745"><ele>705.0</ele><time>2026-04-25T11:02:40.894Z</time></trkpt><trkpt lat="41.9632727" lon="1.7972663"><ele>704.6666666666666</ele><time>2026-04-25T11:02:41.896Z</time></trkpt><trkpt lat="41.9634339" lon="1.7970781"><ele>704.3333333333333</ele><time>2026-04-25T11:02:42.895Z</time></trkpt><trkpt lat="41.9635919" lon="1.7968951"><ele>704.0</ele><time>2026-04-25T11:02:43.896Z</time></trkpt><trkpt lat="41.9637417" lon="1.7967232"><ele>708.6666666666666</ele><time>2026-04-25T11:02:44.896Z</time></trkpt><trkpt lat="41.9638825" lon="1.7965466"><ele>713.3333333333334</ele><time>2026-04-25T11:02:45.894Z</time></trkpt><trkpt lat="41.9640085" lon="1.7963425"><ele>718.0</ele><time>2026-04-25T11:02:46.895Z</time></trkpt><trkpt lat="41.9641262" lon="1.7961155"><ele>720.3333333333334</ele><time>2026-04-25T11:02:47.896Z</time></trkpt><trkpt lat="41.9642429" lon="1.7958652"><ele>722.6666666666666</ele><time>2026-04-25T11:02:48.895Z</time></trkpt><trkpt lat="41.9643643" lon="1.795606"><ele>725.0</ele><time>2026-04-25T11:02:49.895Z</time></trkpt><trkpt lat="41.9644839" lon="1.795345"><ele>726.0</ele><time>2026-04-25T11:02:50.896Z</time></trkpt><trkpt lat="41.9646056" lon="1.7950723"><ele>727.0</ele><time>2026-04-25T11:02:51.895Z</time></trkpt><trkpt lat="41.9647282" lon="1.7947938"><ele>727.0</ele><time>2026-04-25T11:02:52.896Z</time></trkpt><trkpt lat="41.9648553" lon="1.7945155"><ele>727.0</ele><time>2026-04-25T11:02:53.895Z</time></trkpt><trkpt lat="41.9649816" lon="1.7942422"><ele>727.0</ele><time>2026-04-25T11:02:54.895Z</time></trkpt><trkpt lat="41.9651027" lon="1.7939712"><ele>727.0</ele><time>2026-04-25T11:02:55.894Z</time></trkpt><trkpt lat="41.9652208" lon="1.7937076"><ele>729.3333333333334</ele><time>2026-04-25T11:02:56.895Z</time></trkpt><trkpt lat="41.965337" lon="1.7934514"><ele>731.6666666666666</ele><time>2026-04-25T11:02:57.895Z</time></trkpt><trkpt lat="41.9654529" lon="1.793203"><ele>734.0</ele><time>2026-04-25T11:02:58.896Z</time></trkpt><trkpt lat="41.965568" lon="1.7929512"><ele>734.0</ele><time>2026-04-25T11:02:59.896Z</time></trkpt><trkpt lat="41.9656819" lon="1.7927034"><ele>734.0</ele><time>2026-04-25T11:03:00.895Z</time></trkpt><trkpt lat="41.9657952" lon="1.7924604"><ele>734.0</ele><time>2026-04-25T11:03:01.895Z</time></trkpt><trkpt lat="41.9658971" lon="1.7922297"><ele>736.6666666666666</ele><time>2026-04-25T11:03:02.895Z</time></trkpt><trkpt lat="41.9659957" lon="1.7920041"><ele>739.3333333333334</ele><time>2026-04-25T11:03:03.895Z</time></trkpt><trkpt lat="41.9660914" lon="1.7917697"><ele>742.0</ele><time>2026-04-25T11:03:04.895Z</time></trkpt><trkpt lat="41.966187" lon="1.7915233"><ele>742.0</ele><time>2026-04-25T11:03:05.895Z</time></trkpt><trkpt lat="41.9662835" lon="1.7912713"><ele>742.0</ele><time>2026-04-25T11:03:06.894Z</time></trkpt><trkpt lat="41.9663775" lon="1.7910202"><ele>742.0</ele><time>2026-04-25T11:03:07.895Z</time></trkpt><trkpt lat="41.9664673" lon="1.790788"><ele>744.0</ele><time>2026-04-25T11:03:08.895Z</time></trkpt><trkpt lat="41.9665526" lon="1.7905649"><ele>746.0</ele><time>2026-04-25T11:03:09.895Z</time></trkpt><trkpt lat="41.966641" lon="1.7903513"><ele>748.0</ele><time>2026-04-25T11:03:10.894Z</time></trkpt><trkpt lat="41.9667255" lon="1.7901466"><ele>749.3333333333334</ele><time>2026-04-25T11:03:11.895Z</time></trkpt><trkpt lat="41.9668099" lon="1.7899442"><ele>750.6666666666666</ele><time>2026-04-25T11:03:12.895Z</time></trkpt><trkpt lat="41.9668865" lon="1.7897454"><ele>752.0</ele><time>2026-04-25T11:03:13.895Z</time></trkpt><trkpt lat="41.9669511" lon="1.7895476"><ele>752.0</ele><time>2026-04-25T11:03:14.895Z</time></trkpt><trkpt lat="41.9669954" lon="1.7893377"><ele>752.0</ele><time>2026-04-25T11:03:15.895Z</time></trkpt><trkpt lat="41.9670056" lon="1.7891198"><ele>752.0</ele><time>2026-04-25T11:03:16.896Z</time></trkpt><trkpt lat="41.9669768" lon="1.7889001"><ele>752.0</ele><time>2026-04-25T11:03:17.894Z</time></trkpt><trkpt lat="41.9669104" lon="1.7886852"><ele>752.0</ele><time>2026-04-25T11:03:18.894Z</time></trkpt><trkpt lat="41.9668102" lon="1.7884795"><ele>752.0</ele><time>2026-04-25T11:03:19.896Z</time></trkpt><trkpt lat="41.9666886" lon="1.7882833"><ele>749.6666666666666</ele><time>2026-04-25T11:03:20.895Z</time></trkpt><trkpt lat="41.9665727" lon="1.7880934"><ele>747.3333333333334</ele><time>2026-04-25T11:03:21.895Z</time></trkpt><trkpt lat="41.9664519" lon="1.7879092"><ele>745.0</ele><time>2026-04-25T11:03:22.894Z</time></trkpt><trkpt lat="41.966309" lon="1.7877404"><ele>745.3333333333334</ele><time>2026-04-25T11:03:23.896Z</time></trkpt><trkpt lat="41.9661393" lon="1.7876043"><ele>745.6666666666666</ele><time>2026-04-25T11:03:24.895Z</time></trkpt><trkpt lat="41.9659514" lon="1.7874957"><ele>746.0</ele><time>2026-04-25T11:03:25.895Z</time></trkpt><trkpt lat="41.9657487" lon="1.7874054"><ele>746.0</ele><time>2026-04-25T11:03:26.895Z</time></trkpt><trkpt lat="41.9655493" lon="1.7873381"><ele>746.0</ele><time>2026-04-25T11:03:27.896Z</time></trkpt><trkpt lat="41.9653599" lon="1.7872848"><ele>746.0</ele><time>2026-04-25T11:03:28.895Z</time></trkpt><trkpt lat="41.9651909" lon="1.7872259"><ele>746.0</ele><time>2026-04-25T11:03:29.896Z</time></trkpt><trkpt lat="41.9650466" lon="1.7871518"><ele>746.0</ele><time>2026-04-25T11:03:30.895Z</time></trkpt><trkpt lat="41.9649211" lon="1.7870348"><ele>746.0</ele><time>2026-04-25T11:03:31.895Z</time></trkpt><trkpt lat="41.9648226" lon="1.7868762"><ele>747.3333333333333</ele><time>2026-04-25T11:03:32.895Z</time></trkpt><trkpt lat="41.9647442" lon="1.7866925"><ele>748.6666666666666</ele><time>2026-04-25T11:03:33.895Z</time></trkpt><trkpt lat="41.9646482" lon="1.7865237"><ele>750.0</ele><time>2026-04-25T11:03:34.895Z</time></trkpt><trkpt lat="41.9645212" lon="1.7863848"><ele>750.0</ele><time>2026-04-25T11:03:35.895Z</time></trkpt><trkpt lat="41.964371" lon="1.7862948"><ele>750.0</ele><time>2026-04-25T11:03:36.895Z</time></trkpt><trkpt lat="41.9641955" lon="1.7862492"><ele>750.0</ele><time>2026-04-25T11:03:37.895Z</time></trkpt><trkpt lat="41.9640165" lon="1.7862226"><ele>744.6666666666666</ele><time>2026-04-25T11:03:38.895Z</time></trkpt><trkpt lat="41.9638243" lon="1.7861979"><ele>739.3333333333333</ele><time>2026-04-25T11:03:39.894Z</time></trkpt><trkpt lat="41.9636202" lon="1.7861701"><ele>734.0</ele><time>2026-04-25T11:03:40.894Z</time></trkpt><trkpt lat="41.963408" lon="1.7861381"><ele>732.3333333333333</ele><time>2026-04-25T11:03:41.895Z</time></trkpt><trkpt lat="41.9631931" lon="1.786105"><ele>730.6666666666666</ele><time>2026-04-25T11:03:42.896Z</time></trkpt><trkpt lat="41.9629822" lon="1.7860692"><ele>729.0</ele><time>2026-04-25T11:03:43.895Z</time></trkpt><trkpt lat="41.9627718" lon="1.7860307"><ele>734.6666666666666</ele><time>2026-04-25T11:03:44.895Z</time></trkpt><trkpt lat="41.9625618" lon="1.7859955"><ele>740.3333333333333</ele><time>2026-04-25T11:03:45.895Z</time></trkpt><trkpt lat="41.9623487" lon="1.7859609"><ele>746.0</ele><time>2026-04-25T11:03:46.896Z</time></trkpt><trkpt lat="41.9621295" lon="1.785927"><ele>746.0</ele><time>2026-04-25T11:03:47.896Z</time></trkpt><trkpt lat="41.9619033" lon="1.7858944"><ele>746.0</ele><time>2026-04-25T11:03:48.895Z</time></trkpt><trkpt lat="41.9616745" lon="1.7858637"><ele>745.3333333333333</ele><time>2026-04-25T11:03:49.896Z</time></trkpt><trkpt lat="41.9614513" lon="1.7858339"><ele>744.6666666666666</ele><time>2026-04-25T11:03:50.895Z</time></trkpt><trkpt lat="41.9612387" lon="1.7858036"><ele>744.0</ele><time>2026-04-25T11:03:51.895Z</time></trkpt><trkpt lat="41.9610409" lon="1.78577"><ele>744.3333333333334</ele><time>2026-04-25T11:03:52.896Z</time></trkpt><trkpt lat="41.9608552" lon="1.7857112"><ele>744.6666666666667</ele><time>2026-04-25T11:03:53.895Z</time></trkpt><trkpt lat="41.9606795" lon="1.7856045"><ele>745.0</ele><time>2026-04-25T11:03:54.896Z</time></trkpt><trkpt lat="41.9604968" lon="1.7854881"><ele>745.0</ele><time>2026-04-25T11:03:55.895Z</time></trkpt><trkpt lat="41.9603073" lon="1.7853692"><ele>745.0</ele><time>2026-04-25T11:03:56.896Z</time></trkpt><trkpt lat="41.9601118" lon="1.7852479"><ele>745.0</ele><time>2026-04-25T11:03:57.895Z</time></trkpt><trkpt lat="41.9599157" lon="1.7851274"><ele>745.0</ele><time>2026-04-25T11:03:58.896Z</time></trkpt><trkpt lat="41.9597287" lon="1.7850118"><ele>745.0</ele><time>2026-04-25T11:03:59.895Z</time></trkpt><trkpt lat="41.9595533" lon="1.7849001"><ele>745.0</ele><time>2026-04-25T11:04:00.896Z</time></trkpt><trkpt lat="41.9593955" lon="1.7847864"><ele>745.0</ele><time>2026-04-25T11:04:01.896Z</time></trkpt><trkpt lat="41.9592512" lon="1.7846532"><ele>745.0</ele><time>2026-04-25T11:04:02.895Z</time></trkpt><trkpt lat="41.9591168" lon="1.7844841"><ele>745.0</ele><time>2026-04-25T11:04:03.895Z</time></trkpt><trkpt lat="41.959" lon="1.7842816"><ele>743.6666666666667</ele><time>2026-04-25T11:04:04.895Z</time></trkpt><trkpt lat="41.9588874" lon="1.7840679"><ele>742.3333333333334</ele><time>2026-04-25T11:04:05.895Z</time></trkpt><trkpt lat="41.9587793" lon="1.7838698"><ele>741.0</ele><time>2026-04-25T11:04:06.895Z</time></trkpt><trkpt lat="41.9586737" lon="1.7836928"><ele>741.0</ele><time>2026-04-25T11:04:07.894Z</time></trkpt><trkpt lat="41.9585547" lon="1.783544"><ele>741.0</ele><time>2026-04-25T11:04:08.894Z</time></trkpt><trkpt lat="41.9584096" lon="1.7834326"><ele>741.0</ele><time>2026-04-25T11:04:09.895Z</time></trkpt><trkpt lat="41.9582417" lon="1.7833734"><ele>738.6666666666666</ele><time>2026-04-25T11:04:10.894Z</time></trkpt><trkpt lat="41.9580535" lon="1.7833593"><ele>736.3333333333333</ele><time>2026-04-25T11:04:11.895Z</time></trkpt><trkpt lat="41.9578514" lon="1.7833497"><ele>734.0</ele><time>2026-04-25T11:04:12.896Z</time></trkpt><trkpt lat="41.9576313" lon="1.7833483"><ele>733.0</ele><time>2026-04-25T11:04:13.895Z</time></trkpt><trkpt lat="41.957401" lon="1.7833463"><ele>732.0</ele><time>2026-04-25T11:04:14.895Z</time></trkpt><trkpt lat="41.9571668" lon="1.7833462"><ele>732.0</ele><time>2026-04-25T11:04:15.896Z</time></trkpt><trkpt lat="41.9569271" lon="1.783343"><ele>732.0</ele><time>2026-04-25T11:04:16.895Z</time></trkpt><trkpt lat="41.9566844" lon="1.7833375"><ele>733.0</ele><time>2026-04-25T11:04:17.895Z</time></trkpt><trkpt lat="41.9564432" lon="1.7833319"><ele>734.0</ele><time>2026-04-25T11:04:18.895Z</time></trkpt><trkpt lat="41.9562039" lon="1.7833243"><ele>734.0</ele><time>2026-04-25T11:04:19.895Z</time></trkpt><trkpt lat="41.9559704" lon="1.7833288"><ele>734.0</ele><time>2026-04-25T11:04:20.895Z</time></trkpt><trkpt lat="41.9557316" lon="1.7833534"><ele>734.5</ele><time>2026-04-25T11:04:21.896Z</time></trkpt><trkpt lat="41.9554822" lon="1.7833953"><ele>735.0</ele><time>2026-04-25T11:04:22.895Z</time></trkpt><trkpt lat="41.9552211" lon="1.7834422"><ele>736.0</ele><time>2026-04-25T11:04:23.896Z</time></trkpt><trkpt lat="41.9549525" lon="1.7834909"><ele>737.0</ele><time>2026-04-25T11:04:24.894Z</time></trkpt><trkpt lat="41.9546798" lon="1.7835383"><ele>737.0</ele><time>2026-04-25T11:04:25.895Z</time></trkpt><trkpt lat="41.9544028" lon="1.7835852"><ele>737.0</ele><time>2026-04-25T11:04:26.894Z</time></trkpt><trkpt lat="41.9541258" lon="1.7836365"><ele>732.0</ele><time>2026-04-25T11:04:27.895Z</time></trkpt><trkpt lat="41.9538501" lon="1.7836911"><ele>727.0</ele><time>2026-04-25T11:04:28.895Z</time></trkpt><trkpt lat="41.9535768" lon="1.7837551"><ele>725.5</ele><time>2026-04-25T11:04:29.896Z</time></trkpt><trkpt lat="41.9533062" lon="1.7838143"><ele>724.0</ele><time>2026-04-25T11:04:30.895Z</time></trkpt><trkpt lat="41.9530404" lon="1.783869"><ele>724.0</ele><time>2026-04-25T11:04:31.896Z</time></trkpt><trkpt lat="41.9527798" lon="1.7839154"><ele>724.0</ele><time>2026-04-25T11:04:32.894Z</time></trkpt><trkpt lat="41.9525237" lon="1.7839591"><ele>724.0</ele><time>2026-04-25T11:04:33.894Z</time></trkpt><trkpt lat="41.9522777" lon="1.784003"><ele>724.0</ele><time>2026-04-25T11:04:34.895Z</time></trkpt><trkpt lat="41.9520451" lon="1.784044"><ele>724.0</ele><time>2026-04-25T11:04:35.896Z</time></trkpt><trkpt lat="41.951824" lon="1.7840834"><ele>724.0</ele><time>2026-04-25T11:04:36.895Z</time></trkpt><trkpt lat="41.9515996" lon="1.7841174"><ele>724.0</ele><time>2026-04-25T11:04:37.895Z</time></trkpt><trkpt lat="41.95137" lon="1.7841163"><ele>721.0</ele><time>2026-04-25T11:04:38.896Z</time></trkpt><trkpt lat="41.9511434" lon="1.7840837"><ele>718.0</ele><time>2026-04-25T11:04:39.895Z</time></trkpt><trkpt lat="41.950918" lon="1.7840262"><ele>717.0</ele><time>2026-04-25T11:04:40.896Z</time></trkpt><trkpt lat="41.9506972" lon="1.7839659"><ele>716.0</ele><time>2026-04-25T11:04:41.895Z</time></trkpt><trkpt lat="41.9504869" lon="1.7839042"><ele>715.0</ele><time>2026-04-25T11:04:42.894Z</time></trkpt><trkpt lat="41.95029" lon="1.7838443"><ele>715.0</ele><time>2026-04-25T11:04:43.895Z</time></trkpt><trkpt lat="41.9501089" lon="1.7837902"><ele>715.0</ele><time>2026-04-25T11:04:44.895Z</time></trkpt><trkpt lat="41.9499342" lon="1.783713"><ele>715.0</ele><time>2026-04-25T11:04:45.896Z</time></trkpt><trkpt lat="41.9497693" lon="1.7835918"><ele>714.6666666666667</ele><time>2026-04-25T11:04:46.895Z</time></trkpt><trkpt lat="41.949626" lon="1.7834233"><ele>714.3333333333334</ele><time>2026-04-25T11:04:47.895Z</time></trkpt><trkpt lat="41.9495002" lon="1.7832183"><ele>714.0</ele><time>2026-04-25T11:04:48.895Z</time></trkpt><trkpt lat="41.9493786" lon="1.7829938"><ele>714.0</ele><time>2026-04-25T11:04:49.895Z</time></trkpt><trkpt lat="41.9492502" lon="1.7827611"><ele>714.0</ele><time>2026-04-25T11:04:50.896Z</time></trkpt><trkpt lat="41.9491204" lon="1.782523"><ele>714.0</ele><time>2026-04-25T11:04:51.895Z</time></trkpt><trkpt lat="41.9489918" lon="1.7822844"><ele>715.3333333333334</ele><time>2026-04-25T11:04:52.896Z</time></trkpt><trkpt lat="41.9488668" lon="1.7820505"><ele>716.6666666666667</ele><time>2026-04-25T11:04:53.896Z</time></trkpt><trkpt lat="41.9487455" lon="1.7818288"><ele>718.0</ele><time>2026-04-25T11:04:54.895Z</time></trkpt><trkpt lat="41.9486324" lon="1.781621"><ele>718.6666666666667</ele><time>2026-04-25T11:04:55.896Z</time></trkpt><trkpt lat="41.9485289" lon="1.7814401"><ele>719.3333333333334</ele><time>2026-04-25T11:04:56.894Z</time></trkpt><trkpt lat="41.9484265" lon="1.7812875"><ele>720.0</ele><time>2026-04-25T11:04:57.896Z</time></trkpt><trkpt lat="41.9483211" lon="1.7811654"><ele>721.0</ele><time>2026-04-25T11:04:58.896Z</time></trkpt><trkpt lat="41.9482043" lon="1.7810717"><ele>722.0</ele><time>2026-04-25T11:04:59.895Z</time></trkpt><trkpt lat="41.9480759" lon="1.7809907"><ele>723.0</ele><time>2026-04-25T11:05:00.895Z</time></trkpt><trkpt lat="41.9479438" lon="1.7809147"><ele>724.0</ele><time>2026-04-25T11:05:01.895Z</time></trkpt><trkpt lat="41.947825" lon="1.7808393"><ele>724.0</ele><time>2026-04-25T11:05:02.895Z</time></trkpt><trkpt lat="41.9477308" lon="1.780779"><ele>724.0</ele><time>2026-04-25T11:05:03.896Z</time></trkpt><trkpt lat="41.9476537" lon="1.7807328"><ele>724.0</ele><time>2026-04-25T11:05:04.895Z</time></trkpt><trkpt lat="41.9475898" lon="1.780709"><ele>724.0</ele><time>2026-04-25T11:05:05.895Z</time></trkpt><trkpt lat="41.947475" lon="1.7807247"><ele>724.0</ele><time>2026-04-25T11:05:07.895Z</time></trkpt><trkpt lat="41.9474168" lon="1.7807699"><ele>724.0</ele><time>2026-04-25T11:05:08.895Z</time></trkpt><trkpt lat="41.9473598" lon="1.7808371"><ele>724.4000000000001</ele><time>2026-04-25T11:05:09.896Z</time></trkpt><trkpt lat="41.9473032" lon="1.7809141"><ele>724.8</ele><time>2026-04-25T11:05:10.894Z</time></trkpt><trkpt lat="41.9472382" lon="1.7809973"><ele>725.2</ele><time>2026-04-25T11:05:11.896Z</time></trkpt><trkpt lat="41.947161" lon="1.7810775"><ele>725.5999999999999</ele><time>2026-04-25T11:05:12.895Z</time></trkpt><trkpt lat="41.9470672" lon="1.7811571"><ele>726.0</ele><time>2026-04-25T11:05:13.895Z</time></trkpt><trkpt lat="41.9469488" lon="1.7812309"><ele>726.0</ele><time>2026-04-25T11:05:14.895Z</time></trkpt><trkpt lat="41.9468146" lon="1.781301"><ele>726.0</ele><time>2026-04-25T11:05:15.895Z</time></trkpt><trkpt lat="41.946669" lon="1.7813758"><ele>726.0</ele><time>2026-04-25T11:05:16.895Z</time></trkpt><trkpt lat="41.9465076" lon="1.7814448"><ele>725.3333333333334</ele><time>2026-04-25T11:05:17.894Z</time></trkpt><trkpt lat="41.9463361" lon="1.7814983"><ele>724.6666666666667</ele><time>2026-04-25T11:05:18.895Z</time></trkpt><trkpt lat="41.9461562" lon="1.7815324"><ele>724.0</ele><time>2026-04-25T11:05:19.895Z</time></trkpt><trkpt lat="41.9459707" lon="1.781563"><ele>722.6666666666667</ele><time>2026-04-25T11:05:20.894Z</time></trkpt><trkpt lat="41.9457845" lon="1.7815857"><ele>721.3333333333334</ele><time>2026-04-25T11:05:21.895Z</time></trkpt><trkpt lat="41.9456013" lon="1.7816061"><ele>720.0</ele><time>2026-04-25T11:05:22.895Z</time></trkpt><trkpt lat="41.9454211" lon="1.7816326"><ele>720.0</ele><time>2026-04-25T11:05:23.896Z</time></trkpt><trkpt lat="41.9452378" lon="1.7816665"><ele>720.0</ele><time>2026-04-25T11:05:24.896Z</time></trkpt><trkpt lat="41.945052" lon="1.7817011"><ele>720.0</ele><time>2026-04-25T11:05:25.895Z</time></trkpt><trkpt lat="41.9448639" lon="1.7817411"><ele>719.0</ele><time>2026-04-25T11:05:26.896Z</time></trkpt><trkpt lat="41.94468" lon="1.7817838"><ele>718.0</ele><time>2026-04-25T11:05:27.895Z</time></trkpt><trkpt lat="41.9444993" lon="1.7818403"><ele>717.0</ele><time>2026-04-25T11:05:28.895Z</time></trkpt><trkpt lat="41.9443221" lon="1.7819116"><ele>715.0</ele><time>2026-04-25T11:05:29.895Z</time></trkpt><trkpt lat="41.944146" lon="1.7819859"><ele>713.0</ele><time>2026-04-25T11:05:30.894Z</time></trkpt><trkpt lat="41.9439676" lon="1.7820664"><ele>711.0</ele><time>2026-04-25T11:05:31.896Z</time></trkpt><trkpt lat="41.9437921" lon="1.7821573"><ele>711.0</ele><time>2026-04-25T11:05:32.895Z</time></trkpt><trkpt lat="41.9436226" lon="1.7822681"><ele>711.0</ele><time>2026-04-25T11:05:33.896Z</time></trkpt><trkpt lat="41.9434557" lon="1.7823903"><ele>711.0</ele><time>2026-04-25T11:05:34.895Z</time></trkpt><trkpt lat="41.943295" lon="1.7825218"><ele>711.3333333333334</ele><time>2026-04-25T11:05:35.895Z</time></trkpt><trkpt lat="41.9431361" lon="1.7826485"><ele>711.6666666666667</ele><time>2026-04-25T11:05:36.896Z</time></trkpt><trkpt lat="41.9429649" lon="1.7827606"><ele>712.0</ele><time>2026-04-25T11:05:37.894Z</time></trkpt><trkpt lat="41.9427819" lon="1.7828509"><ele>711.3333333333334</ele><time>2026-04-25T11:05:38.895Z</time></trkpt><trkpt lat="41.9425903" lon="1.7829244"><ele>710.6666666666666</ele><time>2026-04-25T11:05:39.895Z</time></trkpt><trkpt lat="41.9423899" lon="1.7829825"><ele>710.0</ele><time>2026-04-25T11:05:40.895Z</time></trkpt><trkpt lat="41.9421775" lon="1.7830119"><ele>710.0</ele><time>2026-04-25T11:05:41.896Z</time></trkpt><trkpt lat="41.9419534" lon="1.78302"><ele>710.0</ele><time>2026-04-25T11:05:42.896Z</time></trkpt><trkpt lat="41.9417253" lon="1.7830229"><ele>708.5</ele><time>2026-04-25T11:05:43.894Z</time></trkpt><trkpt lat="41.9414969" lon="1.7830268"><ele>707.0</ele><time>2026-04-25T11:05:44.895Z</time></trkpt><trkpt lat="41.9412661" lon="1.7830335"><ele>707.0</ele><time>2026-04-25T11:05:45.896Z</time></trkpt><trkpt lat="41.9410351" lon="1.7830391"><ele>707.0</ele><time>2026-04-25T11:05:46.895Z</time></trkpt><trkpt lat="41.9408061" lon="1.7830439"><ele>706.0</ele><time>2026-04-25T11:05:47.896Z</time></trkpt><trkpt lat="41.9405822" lon="1.783045"><ele>705.0</ele><time>2026-04-25T11:05:48.894Z</time></trkpt><trkpt lat="41.9403641" lon="1.7830492"><ele>704.0</ele><time>2026-04-25T11:05:49.894Z</time></trkpt><trkpt lat="41.9401455" lon="1.7830566"><ele>704.3333333333333</ele><time>2026-04-25T11:05:50.895Z</time></trkpt><trkpt lat="41.9399239" lon="1.7830611"><ele>704.6666666666666</ele><time>2026-04-25T11:05:51.895Z</time></trkpt><trkpt lat="41.939698" lon="1.7830654"><ele>705.0</ele><time>2026-04-25T11:05:52.896Z</time></trkpt><trkpt lat="41.9394692" lon="1.7830729"><ele>705.0</ele><time>2026-04-25T11:05:53.895Z</time></trkpt><trkpt lat="41.9392349" lon="1.7830841"><ele>705.0</ele><time>2026-04-25T11:05:54.894Z</time></trkpt><trkpt lat="41.9389958" lon="1.7830938"><ele>704.0</ele><time>2026-04-25T11:05:55.895Z</time></trkpt><trkpt lat="41.9387566" lon="1.7831002"><ele>703.0</ele><time>2026-04-25T11:05:56.895Z</time></trkpt><trkpt lat="41.9385163" lon="1.7831058"><ele>702.5</ele><time>2026-04-25T11:05:57.894Z</time></trkpt><trkpt lat="41.9382754" lon="1.7831103"><ele>702.0</ele><time>2026-04-25T11:05:58.895Z</time></trkpt><trkpt lat="41.9380344" lon="1.7831111"><ele>702.0</ele><time>2026-04-25T11:05:59.896Z</time></trkpt><trkpt lat="41.9377945" lon="1.7831137"><ele>702.0</ele><time>2026-04-25T11:06:00.895Z</time></trkpt><trkpt lat="41.9375605" lon="1.7831117"><ele>701.3333333333334</ele><time>2026-04-25T11:06:01.894Z</time></trkpt><trkpt lat="41.9373352" lon="1.7831065"><ele>700.6666666666667</ele><time>2026-04-25T11:06:02.895Z</time></trkpt><trkpt lat="41.937119" lon="1.7830975"><ele>700.0</ele><time>2026-04-25T11:06:03.895Z</time></trkpt><trkpt lat="41.9369176" lon="1.7830889"><ele>700.0</ele><time>2026-04-25T11:06:04.895Z</time></trkpt><trkpt lat="41.93672" lon="1.7830983"><ele>700.0</ele><time>2026-04-25T11:06:05.894Z</time></trkpt><trkpt lat="41.9365183" lon="1.7831328"><ele>700.0</ele><time>2026-04-25T11:06:06.895Z</time></trkpt><trkpt lat="41.9363093" lon="1.7831849"><ele>700.0</ele><time>2026-04-25T11:06:07.895Z</time></trkpt><trkpt lat="41.9360934" lon="1.7832539"><ele>700.0</ele><time>2026-04-25T11:06:08.894Z</time></trkpt><trkpt lat="41.9358757" lon="1.7833338"><ele>700.0</ele><time>2026-04-25T11:06:09.894Z</time></trkpt><trkpt lat="41.9356549" lon="1.7834138"><ele>700.0</ele><time>2026-04-25T11:06:10.894Z</time></trkpt><trkpt lat="41.9354314" lon="1.7834971"><ele>700.0</ele><time>2026-04-25T11:06:11.894Z</time></trkpt><trkpt lat="41.935203" lon="1.7835803"><ele>700.5</ele><time>2026-04-25T11:06:12.894Z</time></trkpt><trkpt lat="41.9349742" lon="1.7836642"><ele>701.0</ele><time>2026-04-25T11:06:13.894Z</time></trkpt><trkpt lat="41.9347481" lon="1.7837506"><ele>701.0</ele><time>2026-04-25T11:06:14.894Z</time></trkpt><trkpt lat="41.9345235" lon="1.7838305"><ele>701.0</ele><time>2026-04-25T11:06:15.894Z</time></trkpt><trkpt lat="41.934305" lon="1.7839106"><ele>705.0</ele><time>2026-04-25T11:06:16.894Z</time></trkpt><trkpt lat="41.9340901" lon="1.7839847"><ele>709.0</ele><time>2026-04-25T11:06:17.894Z</time></trkpt><trkpt lat="41.9338865" lon="1.784038"><ele>713.0</ele><time>2026-04-25T11:06:18.894Z</time></trkpt><trkpt lat="41.9336878" lon="1.7840764"><ele>713.0</ele><time>2026-04-25T11:06:19.894Z</time></trkpt><trkpt lat="41.9334839" lon="1.7841088"><ele>713.0</ele><time>2026-04-25T11:06:20.893Z</time></trkpt><trkpt lat="41.9332678" lon="1.7841406"><ele>713.0</ele><time>2026-04-25T11:06:21.894Z</time></trkpt><trkpt lat="41.9330432" lon="1.7841771"><ele>713.0</ele><time>2026-04-25T11:06:22.894Z</time></trkpt><trkpt lat="41.9328177" lon="1.7842183"><ele>713.0</ele><time>2026-04-25T11:06:23.893Z</time></trkpt><trkpt lat="41.9325897" lon="1.7842604"><ele>710.0</ele><time>2026-04-25T11:06:24.894Z</time></trkpt><trkpt lat="41.932358" lon="1.7843015"><ele>707.0</ele><time>2026-04-25T11:06:25.895Z</time></trkpt><trkpt lat="41.9321226" lon="1.7843395"><ele>706.0</ele><time>2026-04-25T11:06:26.894Z</time></trkpt><trkpt lat="41.9318901" lon="1.7843757"><ele>705.0</ele><time>2026-04-25T11:06:27.895Z</time></trkpt><trkpt lat="41.931655" lon="1.7844127"><ele>700.5</ele><time>2026-04-25T11:06:28.893Z</time></trkpt><trkpt lat="41.9314193" lon="1.7844501"><ele>696.0</ele><time>2026-04-25T11:06:29.894Z</time></trkpt><trkpt lat="41.9311792" lon="1.7844877"><ele>696.0</ele><time>2026-04-25T11:06:30.895Z</time></trkpt><trkpt lat="41.930932" lon="1.7845244"><ele>696.0</ele><time>2026-04-25T11:06:31.894Z</time></trkpt><trkpt lat="41.9306778" lon="1.7845612"><ele>695.5</ele><time>2026-04-25T11:06:32.895Z</time></trkpt><trkpt lat="41.930416" lon="1.7845923"><ele>695.0</ele><time>2026-04-25T11:06:33.894Z</time></trkpt><trkpt lat="41.9301527" lon="1.7846243"><ele>695.0</ele><time>2026-04-25T11:06:34.894Z</time></trkpt><trkpt lat="41.9298912" lon="1.7846491"><ele>695.0</ele><time>2026-04-25T11:06:35.894Z</time></trkpt><trkpt lat="41.9296275" lon="1.7846724"><ele>695.0</ele><time>2026-04-25T11:06:36.894Z</time></trkpt><trkpt lat="41.929364" lon="1.7846936"><ele>695.0</ele><time>2026-04-25T11:06:37.895Z</time></trkpt><trkpt lat="41.9291019" lon="1.7847157"><ele>695.0</ele><time>2026-04-25T11:06:38.894Z</time></trkpt><trkpt lat="41.9288413" lon="1.7847372"><ele>695.0</ele><time>2026-04-25T11:06:39.894Z</time></trkpt><trkpt lat="41.928585" lon="1.7847579"><ele>694.5</ele><time>2026-04-25T11:06:40.895Z</time></trkpt><trkpt lat="41.9283322" lon="1.7847764"><ele>694.0</ele><time>2026-04-25T11:06:41.893Z</time></trkpt><trkpt lat="41.9280846" lon="1.7847965"><ele>694.0</ele><time>2026-04-25T11:06:42.894Z</time></trkpt><trkpt lat="41.9278427" lon="1.7848192"><ele>694.0</ele><time>2026-04-25T11:06:43.894Z</time></trkpt><trkpt lat="41.9276068" lon="1.7848404"><ele>696.0</ele><time>2026-04-25T11:06:44.894Z</time></trkpt><trkpt lat="41.9273772" lon="1.7848614"><ele>698.0</ele><time>2026-04-25T11:06:45.894Z</time></trkpt><trkpt lat="41.9271535" lon="1.7848794"><ele>698.0</ele><time>2026-04-25T11:06:46.894Z</time></trkpt><trkpt lat="41.9269337" lon="1.7849017"><ele>698.0</ele><time>2026-04-25T11:06:47.893Z</time></trkpt><trkpt lat="41.9267113" lon="1.7849286"><ele>698.0</ele><time>2026-04-25T11:06:48.894Z</time></trkpt><trkpt lat="41.9264858" lon="1.7849565"><ele>699.5</ele><time>2026-04-25T11:06:49.895Z</time></trkpt><trkpt lat="41.9262622" lon="1.7849877"><ele>701.0</ele><time>2026-04-25T11:06:50.894Z</time></trkpt><trkpt lat="41.9260379" lon="1.7850216"><ele>701.0</ele><time>2026-04-25T11:06:51.894Z</time></trkpt><trkpt lat="41.9258159" lon="1.7850565"><ele>701.0</ele><time>2026-04-25T11:06:52.895Z</time></trkpt><trkpt lat="41.9255895" lon="1.7851048"><ele>701.0</ele><time>2026-04-25T11:06:53.894Z</time></trkpt><trkpt lat="41.9253581" lon="1.7851709"><ele>701.0</ele><time>2026-04-25T11:06:54.895Z</time></trkpt><trkpt lat="41.9251218" lon="1.7852467"><ele>700.5</ele><time>2026-04-25T11:06:55.894Z</time></trkpt><trkpt lat="41.9248853" lon="1.7853275"><ele>700.0</ele><time>2026-04-25T11:06:56.895Z</time></trkpt><trkpt lat="41.9246464" lon="1.7854082"><ele>700.0</ele><time>2026-04-25T11:06:57.894Z</time></trkpt><trkpt lat="41.924409" lon="1.7854871"><ele>700.0</ele><time>2026-04-25T11:06:58.895Z</time></trkpt><trkpt lat="41.92418" lon="1.7855612"><ele>699.6666666666667</ele><time>2026-04-25T11:06:59.894Z</time></trkpt><trkpt lat="41.9239588" lon="1.7856261"><ele>699.3333333333334</ele><time>2026-04-25T11:07:00.894Z</time></trkpt><trkpt lat="41.9237431" lon="1.7856903"><ele>699.0</ele><time>2026-04-25T11:07:01.894Z</time></trkpt><trkpt lat="41.9235401" lon="1.7857515"><ele>698.0</ele><time>2026-04-25T11:07:02.894Z</time></trkpt><trkpt lat="41.9233366" lon="1.7857959"><ele>697.0</ele><time>2026-04-25T11:07:03.894Z</time></trkpt><trkpt lat="41.9231262" lon="1.7858196"><ele>696.0</ele><time>2026-04-25T11:07:04.895Z</time></trkpt><trkpt lat="41.9229145" lon="1.7858275"><ele>696.0</ele><time>2026-04-25T11:07:05.894Z</time></trkpt><trkpt lat="41.9227002" lon="1.7858341"><ele>696.0</ele><time>2026-04-25T11:07:06.895Z</time></trkpt><trkpt lat="41.9224841" lon="1.7858545"><ele>696.0</ele><time>2026-04-25T11:07:07.895Z</time></trkpt><trkpt lat="41.9222681" lon="1.7858917"><ele>694.6666666666666</ele><time>2026-04-25T11:07:08.893Z</time></trkpt><trkpt lat="41.9220559" lon="1.7859454"><ele>693.3333333333333</ele><time>2026-04-25T11:07:09.894Z</time></trkpt><trkpt lat="41.9218422" lon="1.7860139"><ele>692.0</ele><time>2026-04-25T11:07:10.894Z</time></trkpt><trkpt lat="41.9216316" lon="1.7860893"><ele>689.3333333333333</ele><time>2026-04-25T11:07:11.894Z</time></trkpt><trkpt lat="41.9214291" lon="1.7861698"><ele>686.6666666666666</ele><time>2026-04-25T11:07:12.895Z</time></trkpt><trkpt lat="41.9212355" lon="1.7862493"><ele>684.0</ele><time>2026-04-25T11:07:13.895Z</time></trkpt><trkpt lat="41.9210413" lon="1.7863418"><ele>683.0</ele><time>2026-04-25T11:07:14.895Z</time></trkpt><trkpt lat="41.9208488" lon="1.7864587"><ele>682.0</ele><time>2026-04-25T11:07:15.894Z</time></trkpt><trkpt lat="41.9206594" lon="1.7866008"><ele>681.0</ele><time>2026-04-25T11:07:16.894Z</time></trkpt><trkpt lat="41.9204728" lon="1.7867616"><ele>681.3333333333334</ele><time>2026-04-25T11:07:17.893Z</time></trkpt><trkpt lat="41.9202905" lon="1.7869349"><ele>681.6666666666667</ele><time>2026-04-25T11:07:18.894Z</time></trkpt><trkpt lat="41.9201088" lon="1.7871147"><ele>682.0</ele><time>2026-04-25T11:07:19.894Z</time></trkpt><trkpt lat="41.9199382" lon="1.7872881"><ele>682.0</ele><time>2026-04-25T11:07:20.894Z</time></trkpt><trkpt lat="41.9197675" lon="1.7874385"><ele>682.0</ele><time>2026-04-25T11:07:21.894Z</time></trkpt><trkpt lat="41.9195793" lon="1.7875693"><ele>682.0</ele><time>2026-04-25T11:07:22.895Z</time></trkpt><trkpt lat="41.9193786" lon="1.787678"><ele>679.0</ele><time>2026-04-25T11:07:23.893Z</time></trkpt><trkpt lat="41.9191722" lon="1.7877766"><ele>676.0</ele><time>2026-04-25T11:07:24.893Z</time></trkpt><trkpt lat="41.9189606" lon="1.7878767"><ele>673.0</ele><time>2026-04-25T11:07:25.894Z</time></trkpt><trkpt lat="41.9187482" lon="1.7879788"><ele>673.0</ele><time>2026-04-25T11:07:26.894Z</time></trkpt><trkpt lat="41.9185373" lon="1.7880841"><ele>673.0</ele><time>2026-04-25T11:07:27.894Z</time></trkpt><trkpt lat="41.9183245" lon="1.7881834"><ele>676.0</ele><time>2026-04-25T11:07:28.894Z</time></trkpt><trkpt lat="41.9181065" lon="1.7882688"><ele>679.0</ele><time>2026-04-25T11:07:29.894Z</time></trkpt><trkpt lat="41.917885" lon="1.7883433"><ele>679.0</ele><time>2026-04-25T11:07:30.894Z</time></trkpt><trkpt lat="41.9176588" lon="1.7884122"><ele>679.0</ele><time>2026-04-25T11:07:31.894Z</time></trkpt><trkpt lat="41.9174303" lon="1.7884792"><ele>668.0</ele><time>2026-04-25T11:07:32.895Z</time></trkpt><trkpt lat="41.9171992" lon="1.78854"><ele>657.0</ele><time>2026-04-25T11:07:33.894Z</time></trkpt><trkpt lat="41.9169678" lon="1.7886"><ele>660.0</ele><time>2026-04-25T11:07:34.894Z</time></trkpt><trkpt lat="41.9167349" lon="1.7886671"><ele>663.0</ele><time>2026-04-25T11:07:35.893Z</time></trkpt><trkpt lat="41.9165005" lon="1.7887438"><ele>663.0</ele><time>2026-04-25T11:07:36.894Z</time></trkpt><trkpt lat="41.9162668" lon="1.7888238"><ele>663.0</ele><time>2026-04-25T11:07:37.894Z</time></trkpt><trkpt lat="41.9160315" lon="1.7888949"><ele>666.5</ele><time>2026-04-25T11:07:38.894Z</time></trkpt><trkpt lat="41.915796" lon="1.7889562"><ele>670.0</ele><time>2026-04-25T11:07:39.895Z</time></trkpt><trkpt lat="41.9155663" lon="1.7890129"><ele>670.0</ele><time>2026-04-25T11:07:40.894Z</time></trkpt><trkpt lat="41.9153535" lon="1.7890641"><ele>670.0</ele><time>2026-04-25T11:07:41.894Z</time></trkpt><trkpt lat="41.9151513" lon="1.7891149"><ele>670.0</ele><time>2026-04-25T11:07:42.895Z</time></trkpt><trkpt lat="41.9149586" lon="1.7891716"><ele>672.6666666666667</ele><time>2026-04-25T11:07:43.894Z</time></trkpt><trkpt lat="41.9147845" lon="1.7892509"><ele>675.3333333333334</ele><time>2026-04-25T11:07:44.894Z</time></trkpt><trkpt lat="41.9146224" lon="1.7893583"><ele>678.0</ele><time>2026-04-25T11:07:45.895Z</time></trkpt><trkpt lat="41.9144647" lon="1.7894701"><ele>674.6666666666666</ele><time>2026-04-25T11:07:46.893Z</time></trkpt><trkpt lat="41.9143022" lon="1.7895488"><ele>671.3333333333333</ele><time>2026-04-25T11:07:47.894Z</time></trkpt><trkpt lat="41.9141372" lon="1.7895787"><ele>668.0</ele><time>2026-04-25T11:07:48.895Z</time></trkpt><trkpt lat="41.9139596" lon="1.7895637"><ele>668.0</ele><time>2026-04-25T11:07:49.894Z</time></trkpt><trkpt lat="41.9137756" lon="1.7895208"><ele>668.0</ele><time>2026-04-25T11:07:50.894Z</time></trkpt><trkpt lat="41.9135803" lon="1.7894765"><ele>668.0</ele><time>2026-04-25T11:07:51.894Z</time></trkpt><trkpt lat="41.9133757" lon="1.7894428"><ele>664.6666666666666</ele><time>2026-04-25T11:07:52.894Z</time></trkpt><trkpt lat="41.9131679" lon="1.789424"><ele>661.3333333333334</ele><time>2026-04-25T11:07:53.894Z</time></trkpt><trkpt lat="41.9129564" lon="1.7894234"><ele>658.0</ele><time>2026-04-25T11:07:54.894Z</time></trkpt><trkpt lat="41.9127402" lon="1.7894391"><ele>657.3333333333334</ele><time>2026-04-25T11:07:55.894Z</time></trkpt><trkpt lat="41.9125195" lon="1.789461"><ele>656.6666666666666</ele><time>2026-04-25T11:07:56.894Z</time></trkpt><trkpt lat="41.9122992" lon="1.7894886"><ele>656.0</ele><time>2026-04-25T11:07:57.895Z</time></trkpt><trkpt lat="41.9120778" lon="1.7895217"><ele>656.0</ele><time>2026-04-25T11:07:58.895Z</time></trkpt><trkpt lat="41.9118497" lon="1.7895579"><ele>656.0</ele><time>2026-04-25T11:07:59.893Z</time></trkpt><trkpt lat="41.9116212" lon="1.7895928"><ele>663.3333333333333</ele><time>2026-04-25T11:08:00.895Z</time></trkpt><trkpt lat="41.9113973" lon="1.7896214"><ele>670.6666666666666</ele><time>2026-04-25T11:08:01.895Z</time></trkpt><trkpt lat="41.9111832" lon="1.789648"><ele>678.0</ele><time>2026-04-25T11:08:02.894Z</time></trkpt><trkpt lat="41.9109911" lon="1.7896697"><ele>682.3333333333334</ele><time>2026-04-25T11:08:03.893Z</time></trkpt><trkpt lat="41.9108087" lon="1.7896784"><ele>686.6666666666667</ele><time>2026-04-25T11:08:04.895Z</time></trkpt><trkpt lat="41.9106281" lon="1.7896655"><ele>691.0</ele><time>2026-04-25T11:08:05.893Z</time></trkpt><trkpt lat="41.9104487" lon="1.7896315"><ele>691.0</ele><time>2026-04-25T11:08:06.895Z</time></trkpt><trkpt lat="41.9102636" lon="1.7895863"><ele>691.0</ele><time>2026-04-25T11:08:07.894Z</time></trkpt><trkpt lat="41.9100677" lon="1.789538"><ele>691.0</ele><time>2026-04-25T11:08:08.894Z</time></trkpt><trkpt lat="41.9098592" lon="1.7894892"><ele>689.6666666666667</ele><time>2026-04-25T11:08:09.894Z</time></trkpt><trkpt lat="41.9096476" lon="1.7894353"><ele>688.3333333333334</ele><time>2026-04-25T11:08:10.894Z</time></trkpt><trkpt lat="41.9094297" lon="1.7893826"><ele>687.0</ele><time>2026-04-25T11:08:11.895Z</time></trkpt><trkpt lat="41.9092055" lon="1.789331"><ele>684.5</ele><time>2026-04-25T11:08:12.893Z</time></trkpt><trkpt lat="41.9089804" lon="1.7892771"><ele>682.0</ele><time>2026-04-25T11:08:13.895Z</time></trkpt><trkpt lat="41.9087539" lon="1.789228"><ele>682.0</ele><time>2026-04-25T11:08:14.894Z</time></trkpt><trkpt lat="41.9085297" lon="1.7891822"><ele>682.0</ele><time>2026-04-25T11:08:15.895Z</time></trkpt><trkpt lat="41.9083172" lon="1.7891354"><ele>682.0</ele><time>2026-04-25T11:08:16.894Z</time></trkpt><trkpt lat="41.9081123" lon="1.7890876"><ele>681.0</ele><time>2026-04-25T11:08:17.894Z</time></trkpt><trkpt lat="41.9079146" lon="1.7890283"><ele>680.0</ele><time>2026-04-25T11:08:18.895Z</time></trkpt><trkpt lat="41.9077207" lon="1.7889557"><ele>679.0</ele><time>2026-04-25T11:08:19.895Z</time></trkpt><trkpt lat="41.9075304" lon="1.7888604"><ele>679.0</ele><time>2026-04-25T11:08:20.895Z</time></trkpt><trkpt lat="41.9073458" lon="1.7887544"><ele>679.0</ele><time>2026-04-25T11:08:21.894Z</time></trkpt><trkpt lat="41.9071708" lon="1.7886394"><ele>679.0</ele><time>2026-04-25T11:08:22.895Z</time></trkpt><trkpt lat="41.9070099" lon="1.7885026"><ele>678.6666666666667</ele><time>2026-04-25T11:08:23.895Z</time></trkpt><trkpt lat="41.9068678" lon="1.7883312"><ele>678.3333333333334</ele><time>2026-04-25T11:08:24.895Z</time></trkpt><trkpt lat="41.906745" lon="1.7881334"><ele>678.0</ele><time>2026-04-25T11:08:25.894Z</time></trkpt><trkpt lat="41.9066253" lon="1.7879233"><ele>678.0</ele><time>2026-04-25T11:08:26.894Z</time></trkpt><trkpt lat="41.9065061" lon="1.7877052"><ele>678.0</ele><time>2026-04-25T11:08:27.893Z</time></trkpt><trkpt lat="41.9063894" lon="1.7874774"><ele>678.0</ele><time>2026-04-25T11:08:28.894Z</time></trkpt><trkpt lat="41.9062745" lon="1.7872445"><ele>674.0</ele><time>2026-04-25T11:08:29.894Z</time></trkpt><trkpt lat="41.9061605" lon="1.7870141"><ele>670.0</ele><time>2026-04-25T11:08:30.895Z</time></trkpt><trkpt lat="41.9060473" lon="1.7867871"><ele>666.0</ele><time>2026-04-25T11:08:31.894Z</time></trkpt><trkpt lat="41.9059379" lon="1.7865652"><ele>665.6666666666666</ele><time>2026-04-25T11:08:32.895Z</time></trkpt><trkpt lat="41.9058312" lon="1.7863447"><ele>665.3333333333333</ele><time>2026-04-25T11:08:33.894Z</time></trkpt><trkpt lat="41.9057255" lon="1.7861307"><ele>665.0</ele><time>2026-04-25T11:08:34.893Z</time></trkpt><trkpt lat="41.9056185" lon="1.7859245"><ele>665.0</ele><time>2026-04-25T11:08:35.894Z</time></trkpt><trkpt lat="41.9055055" lon="1.7857176"><ele>665.0</ele><time>2026-04-25T11:08:36.895Z</time></trkpt><trkpt lat="41.9053949" lon="1.7855143"><ele>665.0</ele><time>2026-04-25T11:08:37.894Z</time></trkpt><trkpt lat="41.9052952" lon="1.7853126"><ele>657.6666666666666</ele><time>2026-04-25T11:08:38.894Z</time></trkpt><trkpt lat="41.9052121" lon="1.7850963"><ele>650.3333333333334</ele><time>2026-04-25T11:08:39.894Z</time></trkpt><trkpt lat="41.9051454" lon="1.7848649"><ele>643.0</ele><time>2026-04-25T11:08:40.894Z</time></trkpt><trkpt lat="41.905089" lon="1.784627"><ele>649.6666666666667</ele><time>2026-04-25T11:08:41.895Z</time></trkpt><trkpt lat="41.9050371" lon="1.7843984"><ele>656.3333333333334</ele><time>2026-04-25T11:08:42.894Z</time></trkpt><trkpt lat="41.904988" lon="1.7841888"><ele>663.0</ele><time>2026-04-25T11:08:43.894Z</time></trkpt><trkpt lat="41.9049366" lon="1.7839896"><ele>663.0</ele><time>2026-04-25T11:08:44.893Z</time></trkpt><trkpt lat="41.9048848" lon="1.7838035"><ele>663.0</ele><time>2026-04-25T11:08:45.894Z</time></trkpt><trkpt lat="41.9048346" lon="1.7836259"><ele>663.0</ele><time>2026-04-25T11:08:46.895Z</time></trkpt><trkpt lat="41.9047718" lon="1.7834564"><ele>663.0</ele><time>2026-04-25T11:08:47.893Z</time></trkpt><trkpt lat="41.9046668" lon="1.7833113"><ele>662.0</ele><time>2026-04-25T11:08:48.894Z</time></trkpt><trkpt lat="41.904534" lon="1.7831973"><ele>661.0</ele><time>2026-04-25T11:08:49.894Z</time></trkpt><trkpt lat="41.9043779" lon="1.7831104"><ele>660.0</ele><time>2026-04-25T11:08:50.894Z</time></trkpt><trkpt lat="41.904206" lon="1.7830448"><ele>658.6666666666666</ele><time>2026-04-25T11:08:51.893Z</time></trkpt><trkpt lat="41.9040285" lon="1.7830061"><ele>657.3333333333333</ele><time>2026-04-25T11:08:52.894Z</time></trkpt><trkpt lat="41.9038357" lon="1.7829937"><ele>656.0</ele><time>2026-04-25T11:08:53.894Z</time></trkpt><trkpt lat="41.9036261" lon="1.7830006"><ele>654.3333333333333</ele><time>2026-04-25T11:08:54.893Z</time></trkpt><trkpt lat="41.9034065" lon="1.7830017"><ele>652.6666666666666</ele><time>2026-04-25T11:08:55.895Z</time></trkpt><trkpt lat="41.9031875" lon="1.7829784"><ele>651.0</ele><time>2026-04-25T11:08:56.893Z</time></trkpt><trkpt lat="41.9029677" lon="1.7829524"><ele>651.0</ele><time>2026-04-25T11:08:57.893Z</time></trkpt><trkpt lat="41.902751" lon="1.7829293"><ele>651.0</ele><time>2026-04-25T11:08:58.894Z</time></trkpt><trkpt lat="41.9025451" lon="1.7829036"><ele>651.0</ele><time>2026-04-25T11:08:59.893Z</time></trkpt><trkpt lat="41.9023602" lon="1.7828817"><ele>649.6666666666666</ele><time>2026-04-25T11:09:00.894Z</time></trkpt><trkpt lat="41.9021951" lon="1.782862"><ele>648.3333333333333</ele><time>2026-04-25T11:09:01.894Z</time></trkpt><trkpt lat="41.9020435" lon="1.7828421"><ele>647.0</ele><time>2026-04-25T11:09:02.894Z</time></trkpt><trkpt lat="41.9018979" lon="1.7827956"><ele>647.0</ele><time>2026-04-25T11:09:03.894Z</time></trkpt><trkpt lat="41.9017606" lon="1.7826978"><ele>647.0</ele><time>2026-04-25T11:09:04.895Z</time></trkpt><trkpt lat="41.9016311" lon="1.7825692"><ele>647.0</ele><time>2026-04-25T11:09:05.894Z</time></trkpt><trkpt lat="41.901497" lon="1.7824309"><ele>648.6666666666666</ele><time>2026-04-25T11:09:06.894Z</time></trkpt><trkpt lat="41.9013616" lon="1.7822918"><ele>650.3333333333334</ele><time>2026-04-25T11:09:07.894Z</time></trkpt><trkpt lat="41.9012303" lon="1.7821551"><ele>652.0</ele><time>2026-04-25T11:09:08.894Z</time></trkpt><trkpt lat="41.9011132" lon="1.7820374"><ele>652.0</ele><time>2026-04-25T11:09:09.895Z</time></trkpt><trkpt lat="41.9010052" lon="1.781942"><ele>652.0</ele><time>2026-04-25T11:09:10.894Z</time></trkpt><trkpt lat="41.9009075" lon="1.7818648"><ele>652.0</ele><time>2026-04-25T11:09:11.894Z</time></trkpt><trkpt lat="41.9008122" lon="1.781797"><ele>652.0</ele><time>2026-04-25T11:09:12.893Z</time></trkpt><trkpt lat="41.9007047" lon="1.7817374"><ele>652.0</ele><time>2026-04-25T11:09:13.895Z</time></trkpt><trkpt lat="41.9005875" lon="1.7816972"><ele>652.0</ele><time>2026-04-25T11:09:14.894Z</time></trkpt><trkpt lat="41.9004589" lon="1.781663"><ele>652.0</ele><time>2026-04-25T11:09:15.894Z</time></trkpt><trkpt lat="41.9003222" lon="1.7816054"><ele>652.0</ele><time>2026-04-25T11:09:16.895Z</time></trkpt><trkpt lat="41.9001868" lon="1.7815207"><ele>649.3333333333334</ele><time>2026-04-25T11:09:17.894Z</time></trkpt><trkpt lat="41.9000525" lon="1.7814198"><ele>646.6666666666666</ele><time>2026-04-25T11:09:18.895Z</time></trkpt><trkpt lat="41.8999162" lon="1.7813121"><ele>644.0</ele><time>2026-04-25T11:09:19.894Z</time></trkpt><trkpt lat="41.8997859" lon="1.7812131"><ele>644.0</ele><time>2026-04-25T11:09:20.895Z</time></trkpt><trkpt lat="41.8996583" lon="1.7811357"><ele>644.0</ele><time>2026-04-25T11:09:21.893Z</time></trkpt><trkpt lat="41.8995192" lon="1.7810817"><ele>644.0</ele><time>2026-04-25T11:09:22.894Z</time></trkpt><trkpt lat="41.8993701" lon="1.781078"><ele>644.0</ele><time>2026-04-25T11:09:23.895Z</time></trkpt><trkpt lat="41.8992171" lon="1.7811142"><ele>644.0</ele><time>2026-04-25T11:09:24.894Z</time></trkpt><trkpt lat="41.899056" lon="1.7811617"><ele>644.0</ele><time>2026-04-25T11:09:25.893Z</time></trkpt><trkpt lat="41.8988934" lon="1.7811927"><ele>644.0</ele><time>2026-04-25T11:09:26.894Z</time></trkpt><trkpt lat="41.898746" lon="1.7811923"><ele>644.0</ele><time>2026-04-25T11:09:27.894Z</time></trkpt><trkpt lat="41.8986098" lon="1.7811536"><ele>644.0</ele><time>2026-04-25T11:09:28.893Z</time></trkpt><trkpt lat="41.8984834" lon="1.7810664"><ele>644.0</ele><time>2026-04-25T11:09:29.894Z</time></trkpt><trkpt lat="41.8983762" lon="1.780927"><ele>644.0</ele><time>2026-04-25T11:09:30.894Z</time></trkpt><trkpt lat="41.8982709" lon="1.7807605"><ele>644.0</ele><time>2026-04-25T11:09:31.895Z</time></trkpt><trkpt lat="41.8981591" lon="1.7805921"><ele>644.0</ele><time>2026-04-25T11:09:32.894Z</time></trkpt><trkpt lat="41.8980288" lon="1.7804457"><ele>644.0</ele><time>2026-04-25T11:09:33.895Z</time></trkpt><trkpt lat="41.8978851" lon="1.7803258"><ele>644.0</ele><time>2026-04-25T11:09:34.894Z</time></trkpt><trkpt lat="41.8977374" lon="1.7802217"><ele>644.0</ele><time>2026-04-25T11:09:35.894Z</time></trkpt><trkpt lat="41.8976013" lon="1.7801121"><ele>644.0</ele><time>2026-04-25T11:09:36.894Z</time></trkpt><trkpt lat="41.8974888" lon="1.7799837"><ele>640.0</ele><time>2026-04-25T11:09:37.893Z</time></trkpt><trkpt lat="41.8973914" lon="1.7798225"><ele>636.0</ele><time>2026-04-25T11:09:38.895Z</time></trkpt><trkpt lat="41.8973113" lon="1.7796368"><ele>632.0</ele><time>2026-04-25T11:09:39.894Z</time></trkpt><trkpt lat="41.897235" lon="1.7794298"><ele>633.0</ele><time>2026-04-25T11:09:40.894Z</time></trkpt><trkpt lat="41.8971621" lon="1.7792182"><ele>634.0</ele><time>2026-04-25T11:09:41.894Z</time></trkpt><trkpt lat="41.8970812" lon="1.7790174"><ele>635.0</ele><time>2026-04-25T11:09:42.894Z</time></trkpt><trkpt lat="41.8969749" lon="1.7788263"><ele>635.0</ele><time>2026-04-25T11:09:43.895Z</time></trkpt><trkpt lat="41.8968408" lon="1.7786544"><ele>635.0</ele><time>2026-04-25T11:09:44.894Z</time></trkpt><trkpt lat="41.89669" lon="1.7784836"><ele>635.0</ele><time>2026-04-25T11:09:45.893Z</time></trkpt><trkpt lat="41.8965321" lon="1.7783111"><ele>631.6666666666666</ele><time>2026-04-25T11:09:46.895Z</time></trkpt><trkpt lat="41.8963763" lon="1.7781375"><ele>628.3333333333334</ele><time>2026-04-25T11:09:47.894Z</time></trkpt><trkpt lat="41.8962242" lon="1.7779683"><ele>625.0</ele><time>2026-04-25T11:09:48.894Z</time></trkpt><trkpt lat="41.8960641" lon="1.7778121"><ele>624.0</ele><time>2026-04-25T11:09:49.893Z</time></trkpt><trkpt lat="41.8958905" lon="1.7776797"><ele>623.0</ele><time>2026-04-25T11:09:50.895Z</time></trkpt><trkpt lat="41.8957156" lon="1.7775696"><ele>622.0</ele><time>2026-04-25T11:09:51.895Z</time></trkpt><trkpt lat="41.8955441" lon="1.7774765"><ele>622.0</ele><time>2026-04-25T11:09:52.894Z</time></trkpt><trkpt lat="41.895382" lon="1.7773847"><ele>622.0</ele><time>2026-04-25T11:09:53.894Z</time></trkpt><trkpt lat="41.8952362" lon="1.7772837"><ele>622.0</ele><time>2026-04-25T11:09:54.894Z</time></trkpt><trkpt lat="41.8951133" lon="1.7771656"><ele>621.0</ele><time>2026-04-25T11:09:55.894Z</time></trkpt><trkpt lat="41.895018" lon="1.777018"><ele>620.0</ele><time>2026-04-25T11:09:56.893Z</time></trkpt><trkpt lat="41.894951" lon="1.7768385"><ele>619.0</ele><time>2026-04-25T11:09:57.894Z</time></trkpt><trkpt lat="41.8949106" lon="1.7766395"><ele>618.0</ele><time>2026-04-25T11:09:58.895Z</time></trkpt><trkpt lat="41.8948756" lon="1.7764532"><ele>618.0</ele><time>2026-04-25T11:09:59.895Z</time></trkpt><trkpt lat="41.8948237" lon="1.7762872"><ele>618.0</ele><time>2026-04-25T11:10:00.893Z</time></trkpt><trkpt lat="41.8947476" lon="1.7761377"><ele>618.0</ele><time>2026-04-25T11:10:01.895Z</time></trkpt><trkpt lat="41.8946387" lon="1.7760057"><ele>618.0</ele><time>2026-04-25T11:10:02.895Z</time></trkpt><trkpt lat="41.8945041" lon="1.7758871"><ele>619.3333333333334</ele><time>2026-04-25T11:10:03.894Z</time></trkpt><trkpt lat="41.8943606" lon="1.7757552"><ele>620.6666666666667</ele><time>2026-04-25T11:10:04.893Z</time></trkpt><trkpt lat="41.8942033" lon="1.7756142"><ele>622.0</ele><time>2026-04-25T11:10:05.894Z</time></trkpt><trkpt lat="41.8940261" lon="1.7754596"><ele>614.0</ele><time>2026-04-25T11:10:06.895Z</time></trkpt><trkpt lat="41.8938365" lon="1.7753123"><ele>606.0</ele><time>2026-04-25T11:10:07.893Z</time></trkpt><trkpt lat="41.8936277" lon="1.7751942"><ele>598.0</ele><time>2026-04-25T11:10:08.895Z</time></trkpt><trkpt lat="41.8934047" lon="1.7750929"><ele>596.0</ele><time>2026-04-25T11:10:09.895Z</time></trkpt><trkpt lat="41.8931731" lon="1.7750085"><ele>594.0</ele><time>2026-04-25T11:10:10.894Z</time></trkpt><trkpt lat="41.8929294" lon="1.7749302"><ele>594.0</ele><time>2026-04-25T11:10:11.894Z</time></trkpt><trkpt lat="41.8926807" lon="1.7748546"><ele>594.0</ele><time>2026-04-25T11:10:12.893Z</time></trkpt><trkpt lat="41.8924317" lon="1.7747786"><ele>592.5</ele><time>2026-04-25T11:10:13.894Z</time></trkpt><trkpt lat="41.8921858" lon="1.774703"><ele>591.0</ele><time>2026-04-25T11:10:14.895Z</time></trkpt><trkpt lat="41.8919481" lon="1.7746325"><ele>588.5</ele><time>2026-04-25T11:10:15.894Z</time></trkpt><trkpt lat="41.8917218" lon="1.7745657"><ele>586.0</ele><time>2026-04-25T11:10:16.895Z</time></trkpt><trkpt lat="41.8915089" lon="1.7745025"><ele>586.0</ele><time>2026-04-25T11:10:17.893Z</time></trkpt><trkpt lat="41.891311" lon="1.7744472"><ele>586.0</ele><time>2026-04-25T11:10:18.895Z</time></trkpt><trkpt lat="41.8911251" lon="1.7743974"><ele>586.0</ele><time>2026-04-25T11:10:19.893Z</time></trkpt><trkpt lat="41.8909423" lon="1.7743382"><ele>588.6666666666667</ele><time>2026-04-25T11:10:20.894Z</time></trkpt><trkpt lat="41.8907626" lon="1.7742473"><ele>591.3333333333334</ele><time>2026-04-25T11:10:21.893Z</time></trkpt><trkpt lat="41.8905907" lon="1.7741263"><ele>594.0</ele><time>2026-04-25T11:10:22.895Z</time></trkpt><trkpt lat="41.8904272" lon="1.7739763"><ele>594.0</ele><time>2026-04-25T11:10:23.894Z</time></trkpt><trkpt lat="41.8902776" lon="1.7737994"><ele>594.0</ele><time>2026-04-25T11:10:24.893Z</time></trkpt><trkpt lat="41.890142" lon="1.7735938"><ele>594.0</ele><time>2026-04-25T11:10:25.895Z</time></trkpt><trkpt lat="41.8900182" lon="1.7733664"><ele>595.0</ele><time>2026-04-25T11:10:26.893Z</time></trkpt><trkpt lat="41.8898951" lon="1.7731311"><ele>596.0</ele><time>2026-04-25T11:10:27.894Z</time></trkpt><trkpt lat="41.8897689" lon="1.7728938"><ele>597.0</ele><time>2026-04-25T11:10:28.894Z</time></trkpt><trkpt lat="41.8896397" lon="1.7726543"><ele>597.3333333333334</ele><time>2026-04-25T11:10:29.895Z</time></trkpt><trkpt lat="41.8895112" lon="1.7724144"><ele>597.6666666666667</ele><time>2026-04-25T11:10:30.894Z</time></trkpt><trkpt lat="41.8893841" lon="1.7721801"><ele>598.0</ele><time>2026-04-25T11:10:31.894Z</time></trkpt><trkpt lat="41.8892604" lon="1.7719567"><ele>597.3333333333334</ele><time>2026-04-25T11:10:32.894Z</time></trkpt><trkpt lat="41.8891433" lon="1.7717449"><ele>596.6666666666666</ele><time>2026-04-25T11:10:33.894Z</time></trkpt><trkpt lat="41.889039" lon="1.7715287"><ele>596.0</ele><time>2026-04-25T11:10:34.894Z</time></trkpt><trkpt lat="41.8889581" lon="1.7712914"><ele>596.0</ele><time>2026-04-25T11:10:35.893Z</time></trkpt><trkpt lat="41.8889009" lon="1.771042"><ele>596.0</ele><time>2026-04-25T11:10:36.894Z</time></trkpt><trkpt lat="41.8888658" lon="1.7707966"><ele>596.0</ele><time>2026-04-25T11:10:37.893Z</time></trkpt><trkpt lat="41.8888189" lon="1.7705648"><ele>594.6666666666666</ele><time>2026-04-25T11:10:38.893Z</time></trkpt><trkpt lat="41.8887372" lon="1.7703383"><ele>593.3333333333334</ele><time>2026-04-25T11:10:39.894Z</time></trkpt><trkpt lat="41.8886246" lon="1.7701236"><ele>592.0</ele><time>2026-04-25T11:10:40.894Z</time></trkpt><trkpt lat="41.8884871" lon="1.7699098"><ele>591.0</ele><time>2026-04-25T11:10:41.893Z</time></trkpt><trkpt lat="41.888334" lon="1.7696958"><ele>590.0</ele><time>2026-04-25T11:10:42.893Z</time></trkpt><trkpt lat="41.8881709" lon="1.7694782"><ele>592.0</ele><time>2026-04-25T11:10:43.894Z</time></trkpt><trkpt lat="41.8880067" lon="1.7692524"><ele>594.0</ele><time>2026-04-25T11:10:44.894Z</time></trkpt><trkpt lat="41.8878432" lon="1.7690216"><ele>594.0</ele><time>2026-04-25T11:10:45.895Z</time></trkpt><trkpt lat="41.8876812" lon="1.7687882"><ele>594.0</ele><time>2026-04-25T11:10:46.893Z</time></trkpt><trkpt lat="41.8875201" lon="1.7685602"><ele>594.3333333333334</ele><time>2026-04-25T11:10:47.894Z</time></trkpt><trkpt lat="41.8873663" lon="1.7683448"><ele>594.6666666666667</ele><time>2026-04-25T11:10:48.893Z</time></trkpt><trkpt lat="41.8872187" lon="1.7681435"><ele>595.0</ele><time>2026-04-25T11:10:49.894Z</time></trkpt><trkpt lat="41.8870804" lon="1.7679645"><ele>595.0</ele><time>2026-04-25T11:10:50.895Z</time></trkpt><trkpt lat="41.8869462" lon="1.7678065"><ele>595.0</ele><time>2026-04-25T11:10:51.894Z</time></trkpt><trkpt lat="41.8868019" lon="1.7676665"><ele>595.0</ele><time>2026-04-25T11:10:52.894Z</time></trkpt><trkpt lat="41.8866441" lon="1.7675506"><ele>594.3333333333334</ele><time>2026-04-25T11:10:53.894Z</time></trkpt><trkpt lat="41.8864706" lon="1.7674657"><ele>593.6666666666666</ele><time>2026-04-25T11:10:54.894Z</time></trkpt><trkpt lat="41.8862834" lon="1.767411"><ele>593.0</ele><time>2026-04-25T11:10:55.894Z</time></trkpt><trkpt lat="41.8860829" lon="1.767386"><ele>588.6666666666666</ele><time>2026-04-25T11:10:56.894Z</time></trkpt><trkpt lat="41.8858726" lon="1.7673773"><ele>584.3333333333334</ele><time>2026-04-25T11:10:57.894Z</time></trkpt><trkpt lat="41.8856572" lon="1.7673577"><ele>580.0</ele><time>2026-04-25T11:10:58.895Z</time></trkpt><trkpt lat="41.8854428" lon="1.7673155"><ele>580.0</ele><time>2026-04-25T11:10:59.895Z</time></trkpt><trkpt lat="41.8852348" lon="1.7672527"><ele>580.0</ele><time>2026-04-25T11:11:00.894Z</time></trkpt><trkpt lat="41.8850331" lon="1.7671819"><ele>580.0</ele><time>2026-04-25T11:11:01.895Z</time></trkpt><trkpt lat="41.8848302" lon="1.7671239"><ele>574.6666666666667</ele><time>2026-04-25T11:11:02.893Z</time></trkpt><trkpt lat="41.884624" lon="1.7670971"><ele>569.3333333333334</ele><time>2026-04-25T11:11:03.894Z</time></trkpt><trkpt lat="41.8844209" lon="1.7670988"><ele>564.0</ele><time>2026-04-25T11:11:04.893Z</time></trkpt><trkpt lat="41.8842327" lon="1.7671179"><ele>561.0</ele><time>2026-04-25T11:11:05.895Z</time></trkpt><trkpt lat="41.8840554" lon="1.7671284"><ele>558.0</ele><time>2026-04-25T11:11:06.895Z</time></trkpt><trkpt lat="41.88389" lon="1.7671162"><ele>555.0</ele><time>2026-04-25T11:11:07.894Z</time></trkpt><trkpt lat="41.8837388" lon="1.7671135"><ele>555.0</ele><time>2026-04-25T11:11:08.894Z</time></trkpt><trkpt lat="41.8835864" lon="1.7671509"><ele>555.0</ele><time>2026-04-25T11:11:09.893Z</time></trkpt><trkpt lat="41.8834388" lon="1.7672365"><ele>555.0</ele><time>2026-04-25T11:11:10.894Z</time></trkpt><trkpt lat="41.8832999" lon="1.7673569"><ele>558.0</ele><time>2026-04-25T11:11:11.894Z</time></trkpt><trkpt lat="41.8831696" lon="1.7674837"><ele>561.0</ele><time>2026-04-25T11:11:12.895Z</time></trkpt><trkpt lat="41.8830428" lon="1.7676026"><ele>564.0</ele><time>2026-04-25T11:11:13.893Z</time></trkpt><trkpt lat="41.8829152" lon="1.767697"><ele>564.5</ele><time>2026-04-25T11:11:14.894Z</time></trkpt><trkpt lat="41.882778" lon="1.7677421"><ele>565.0</ele><time>2026-04-25T11:11:15.894Z</time></trkpt><trkpt lat="41.8826296" lon="1.7677384"><ele>565.5</ele><time>2026-04-25T11:11:16.894Z</time></trkpt><trkpt lat="41.8824768" lon="1.7676887"><ele>566.0</ele><time>2026-04-25T11:11:17.894Z</time></trkpt><trkpt lat="41.8823172" lon="1.767627"><ele>566.0</ele><time>2026-04-25T11:11:18.894Z</time></trkpt><trkpt lat="41.8821473" lon="1.7676014"><ele>566.0</ele><time>2026-04-25T11:11:19.895Z</time></trkpt><trkpt lat="41.8819718" lon="1.7676116"><ele>566.0</ele><time>2026-04-25T11:11:20.895Z</time></trkpt><trkpt lat="41.8817953" lon="1.7676409"><ele>563.3333333333333</ele><time>2026-04-25T11:11:21.893Z</time></trkpt><trkpt lat="41.881619" lon="1.7676769"><ele>560.6666666666666</ele><time>2026-04-25T11:11:22.895Z</time></trkpt><trkpt lat="41.8814457" lon="1.7677303"><ele>558.0</ele><time>2026-04-25T11:11:23.893Z</time></trkpt><trkpt lat="41.8812828" lon="1.7678161"><ele>551.6666666666666</ele><time>2026-04-25T11:11:24.895Z</time></trkpt><trkpt lat="41.8811239" lon="1.76792"><ele>545.3333333333333</ele><time>2026-04-25T11:11:25.894Z</time></trkpt><trkpt lat="41.8809624" lon="1.7680005"><ele>539.0</ele><time>2026-04-25T11:11:26.895Z</time></trkpt><trkpt lat="41.8807912" lon="1.7680358"><ele>539.0</ele><time>2026-04-25T11:11:27.894Z</time></trkpt><trkpt lat="41.8806161" lon="1.7680308"><ele>539.0</ele><time>2026-04-25T11:11:28.894Z</time></trkpt><trkpt lat="41.8804454" lon="1.7679965"><ele>539.0</ele><time>2026-04-25T11:11:29.895Z</time></trkpt><trkpt lat="41.8802816" lon="1.7679449"><ele>539.0</ele><time>2026-04-25T11:11:30.894Z</time></trkpt><trkpt lat="41.8801432" lon="1.7678699"><ele>539.0</ele><time>2026-04-25T11:11:31.895Z</time></trkpt><trkpt lat="41.8800258" lon="1.7677843"><ele>539.0</ele><time>2026-04-25T11:11:32.893Z</time></trkpt><trkpt lat="41.8799298" lon="1.7676664"><ele>539.0</ele><time>2026-04-25T11:11:33.895Z</time></trkpt><trkpt lat="41.8798642" lon="1.7675074"><ele>540.0</ele><time>2026-04-25T11:11:34.894Z</time></trkpt><trkpt lat="41.8798098" lon="1.7673514"><ele>541.0</ele><time>2026-04-25T11:11:35.894Z</time></trkpt><trkpt lat="41.8797381" lon="1.7672159"><ele>542.0</ele><time>2026-04-25T11:11:36.895Z</time></trkpt><trkpt lat="41.8796377" lon="1.7671159"><ele>543.0</ele><time>2026-04-25T11:11:37.894Z</time></trkpt><trkpt lat="41.8795114" lon="1.7670615"><ele>543.0</ele><time>2026-04-25T11:11:38.894Z</time></trkpt><trkpt lat="41.8793646" lon="1.7670613"><ele>543.0</ele><time>2026-04-25T11:11:39.894Z</time></trkpt><trkpt lat="41.8792033" lon="1.7670814"><ele>543.0</ele><time>2026-04-25T11:11:40.895Z</time></trkpt><trkpt lat="41.8790293" lon="1.7671036"><ele>539.3333333333334</ele><time>2026-04-25T11:11:41.893Z</time></trkpt><trkpt lat="41.878853" lon="1.7671221"><ele>535.6666666666667</ele><time>2026-04-25T11:11:42.895Z</time></trkpt><trkpt lat="41.8786881" lon="1.7671393"><ele>532.0</ele><time>2026-04-25T11:11:43.894Z</time></trkpt><trkpt lat="41.8785349" lon="1.7671749"><ele>530.6666666666667</ele><time>2026-04-25T11:11:44.894Z</time></trkpt><trkpt lat="41.8783842" lon="1.7672401"><ele>529.3333333333334</ele><time>2026-04-25T11:11:45.895Z</time></trkpt><trkpt lat="41.8782364" lon="1.7673381"><ele>528.0</ele><time>2026-04-25T11:11:46.894Z</time></trkpt><trkpt lat="41.8780961" lon="1.7674639"><ele>528.0</ele><time>2026-04-25T11:11:47.895Z</time></trkpt><trkpt lat="41.8779604" lon="1.7675912"><ele>528.0</ele><time>2026-04-25T11:11:48.894Z</time></trkpt><trkpt lat="41.8778301" lon="1.7676939"><ele>528.0</ele><time>2026-04-25T11:11:49.894Z</time></trkpt><trkpt lat="41.8776985" lon="1.7677561"><ele>526.6666666666666</ele><time>2026-04-25T11:11:50.894Z</time></trkpt><trkpt lat="41.8775558" lon="1.767766"><ele>525.3333333333333</ele><time>2026-04-25T11:11:51.895Z</time></trkpt><trkpt lat="41.8774063" lon="1.7677411"><ele>524.0</ele><time>2026-04-25T11:11:52.893Z</time></trkpt><trkpt lat="41.877246" lon="1.7676675"><ele>524.0</ele><time>2026-04-25T11:11:53.895Z</time></trkpt><trkpt lat="41.8770818" lon="1.7675741"><ele>524.0</ele><time>2026-04-25T11:11:54.894Z</time></trkpt><trkpt lat="41.8769071" lon="1.7674708"><ele>524.0</ele><time>2026-04-25T11:11:55.893Z</time></trkpt><trkpt lat="41.8767182" lon="1.7673648"><ele>522.3333333333333</ele><time>2026-04-25T11:11:56.893Z</time></trkpt><trkpt lat="41.8765255" lon="1.7672562"><ele>520.6666666666666</ele><time>2026-04-25T11:11:57.894Z</time></trkpt><trkpt lat="41.8763398" lon="1.7671364"><ele>519.0</ele><time>2026-04-25T11:11:58.894Z</time></trkpt><trkpt lat="41.8761636" lon="1.7669913"><ele>518.6666666666666</ele><time>2026-04-25T11:11:59.894Z</time></trkpt><trkpt lat="41.8759997" lon="1.7668178"><ele>518.3333333333333</ele><time>2026-04-25T11:12:00.894Z</time></trkpt><trkpt lat="41.8758476" lon="1.7666347"><ele>518.0</ele><time>2026-04-25T11:12:01.895Z</time></trkpt><trkpt lat="41.875703" lon="1.766458"><ele>516.6666666666666</ele><time>2026-04-25T11:12:02.894Z</time></trkpt><trkpt lat="41.8755617" lon="1.7663049"><ele>515.3333333333334</ele><time>2026-04-25T11:12:03.894Z</time></trkpt><trkpt lat="41.8754268" lon="1.7661787"><ele>514.0</ele><time>2026-04-25T11:12:04.894Z</time></trkpt><trkpt lat="41.8752867" lon="1.7660826"><ele>514.6666666666667</ele><time>2026-04-25T11:12:05.895Z</time></trkpt><trkpt lat="41.8751316" lon="1.7660243"><ele>515.3333333333334</ele><time>2026-04-25T11:12:06.895Z</time></trkpt><trkpt lat="41.8749628" lon="1.7660019"><ele>516.0</ele><time>2026-04-25T11:12:07.894Z</time></trkpt><trkpt lat="41.8747818" lon="1.7660132"><ele>513.6666666666666</ele><time>2026-04-25T11:12:08.895Z</time></trkpt><trkpt lat="41.8745912" lon="1.7660487"><ele>511.3333333333333</ele><time>2026-04-25T11:12:09.894Z</time></trkpt><trkpt lat="41.8743947" lon="1.7660952"><ele>509.0</ele><time>2026-04-25T11:12:10.894Z</time></trkpt><trkpt lat="41.8741994" lon="1.7661431"><ele>508.66666666666663</ele><time>2026-04-25T11:12:11.893Z</time></trkpt><trkpt lat="41.8740125" lon="1.76619"><ele>508.33333333333337</ele><time>2026-04-25T11:12:12.895Z</time></trkpt><trkpt lat="41.8738389" lon="1.7662274"><ele>508.0</ele><time>2026-04-25T11:12:13.894Z</time></trkpt><trkpt lat="41.873672" lon="1.7662385"><ele>508.0</ele><time>2026-04-25T11:12:14.893Z</time></trkpt><trkpt lat="41.873497" lon="1.7662014"><ele>508.0</ele><time>2026-04-25T11:12:15.893Z</time></trkpt><trkpt lat="41.8733109" lon="1.7661439"><ele>508.0</ele><time>2026-04-25T11:12:16.894Z</time></trkpt><trkpt lat="41.8731132" lon="1.7660774"><ele>507.6666666666667</ele><time>2026-04-25T11:12:17.894Z</time></trkpt><trkpt lat="41.8729047" lon="1.7660009"><ele>507.33333333333337</ele><time>2026-04-25T11:12:18.894Z</time></trkpt><trkpt lat="41.8726877" lon="1.7659214"><ele>507.0</ele><time>2026-04-25T11:12:19.895Z</time></trkpt><trkpt lat="41.8724668" lon="1.7658435"><ele>507.0</ele><time>2026-04-25T11:12:20.894Z</time></trkpt><trkpt lat="41.8722414" lon="1.7657632"><ele>507.0</ele><time>2026-04-25T11:12:21.894Z</time></trkpt><trkpt lat="41.8720107" lon="1.7656808"><ele>507.0</ele><time>2026-04-25T11:12:22.894Z</time></trkpt><trkpt lat="41.8717775" lon="1.7655962"><ele>507.0</ele><time>2026-04-25T11:12:23.893Z</time></trkpt><trkpt lat="41.8715473" lon="1.7655126"><ele>501.5</ele><time>2026-04-25T11:12:24.894Z</time></trkpt><trkpt lat="41.8713227" lon="1.7654299"><ele>496.0</ele><time>2026-04-25T11:12:25.893Z</time></trkpt><trkpt lat="41.8711092" lon="1.7653495"><ele>495.0</ele><time>2026-04-25T11:12:26.893Z</time></trkpt><trkpt lat="41.8709066" lon="1.7652737"><ele>494.0</ele><time>2026-04-25T11:12:27.895Z</time></trkpt><trkpt lat="41.870715" lon="1.7652078"><ele>493.0</ele><time>2026-04-25T11:12:28.894Z</time></trkpt><trkpt lat="41.8705237" lon="1.7651475"><ele>495.0</ele><time>2026-04-25T11:12:29.894Z</time></trkpt><trkpt lat="41.8703295" lon="1.7651198"><ele>497.0</ele><time>2026-04-25T11:12:30.895Z</time></trkpt><trkpt lat="41.8701327" lon="1.765125"><ele>499.0</ele><time>2026-04-25T11:12:31.894Z</time></trkpt><trkpt lat="41.8699433" lon="1.7651445"><ele>500.0</ele><time>2026-04-25T11:12:32.894Z</time></trkpt><trkpt lat="41.8697748" lon="1.7651611"><ele>501.0</ele><time>2026-04-25T11:12:33.894Z</time></trkpt><trkpt lat="41.8696195" lon="1.7651625"><ele>502.0</ele><time>2026-04-25T11:12:34.893Z</time></trkpt><trkpt lat="41.8694649" lon="1.7651278"><ele>502.0</ele><time>2026-04-25T11:12:35.895Z</time></trkpt><trkpt lat="41.8693059" lon="1.7650449"><ele>502.0</ele><time>2026-04-25T11:12:36.895Z</time></trkpt><trkpt lat="41.8691411" lon="1.7649407"><ele>502.0</ele><time>2026-04-25T11:12:37.895Z</time></trkpt><trkpt lat="41.8689669" lon="1.7648424"><ele>502.0</ele><time>2026-04-25T11:12:38.893Z</time></trkpt><trkpt lat="41.8687723" lon="1.7647811"><ele>502.0</ele><time>2026-04-25T11:12:39.894Z</time></trkpt><trkpt lat="41.8685659" lon="1.7647381"><ele>502.0</ele><time>2026-04-25T11:12:40.894Z</time></trkpt><trkpt lat="41.8683538" lon="1.7647125"><ele>499.0</ele><time>2026-04-25T11:12:41.894Z</time></trkpt><trkpt lat="41.8681427" lon="1.7646888"><ele>496.0</ele><time>2026-04-25T11:12:42.894Z</time></trkpt><trkpt lat="41.8679424" lon="1.7646598"><ele>493.0</ele><time>2026-04-25T11:12:43.894Z</time></trkpt><trkpt lat="41.8677457" lon="1.7646152"><ele>493.0</ele><time>2026-04-25T11:12:44.893Z</time></trkpt><trkpt lat="41.8675505" lon="1.7645349"><ele>493.0</ele><time>2026-04-25T11:12:45.894Z</time></trkpt><trkpt lat="41.8673615" lon="1.7644245"><ele>493.0</ele><time>2026-04-25T11:12:46.894Z</time></trkpt><trkpt lat="41.8671701" lon="1.7643073"><ele>492.6666666666667</ele><time>2026-04-25T11:12:47.893Z</time></trkpt><trkpt lat="41.8669764" lon="1.7641844"><ele>492.33333333333337</ele><time>2026-04-25T11:12:48.895Z</time></trkpt><trkpt lat="41.8667789" lon="1.7640622"><ele>492.0</ele><time>2026-04-25T11:12:49.895Z</time></trkpt><trkpt lat="41.866578" lon="1.7639406"><ele>490.66666666666663</ele><time>2026-04-25T11:12:50.895Z</time></trkpt><trkpt lat="41.8663809" lon="1.7638223"><ele>489.3333333333333</ele><time>2026-04-25T11:12:51.894Z</time></trkpt><trkpt lat="41.8661901" lon="1.7636976"><ele>488.0</ele><time>2026-04-25T11:12:52.894Z</time></trkpt><trkpt lat="41.8660068" lon="1.7635724"><ele>485.66666666666663</ele><time>2026-04-25T11:12:53.894Z</time></trkpt><trkpt lat="41.8658272" lon="1.7634564"><ele>483.33333333333337</ele><time>2026-04-25T11:12:54.893Z</time></trkpt><trkpt lat="41.8656386" lon="1.7633531"><ele>481.0</ele><time>2026-04-25T11:12:55.893Z</time></trkpt><trkpt lat="41.8654395" lon="1.7632825"><ele>481.0</ele><time>2026-04-25T11:12:56.893Z</time></trkpt><trkpt lat="41.8652345" lon="1.7632425"><ele>481.0</ele><time>2026-04-25T11:12:57.893Z</time></trkpt><trkpt lat="41.8650291" lon="1.7632112"><ele>481.0</ele><time>2026-04-25T11:12:58.894Z</time></trkpt><trkpt lat="41.8648365" lon="1.7631884"><ele>479.33333333333337</ele><time>2026-04-25T11:12:59.893Z</time></trkpt><trkpt lat="41.8646669" lon="1.7631688"><ele>477.66666666666663</ele><time>2026-04-25T11:13:00.894Z</time></trkpt><trkpt lat="41.8645176" lon="1.7631403"><ele>476.0</ele><time>2026-04-25T11:13:01.893Z</time></trkpt><trkpt lat="41.8643791" lon="1.7630808"><ele>475.3333333333333</ele><time>2026-04-25T11:13:02.893Z</time></trkpt><trkpt lat="41.8642461" lon="1.7629725"><ele>474.66666666666663</ele><time>2026-04-25T11:13:03.892Z</time></trkpt><trkpt lat="41.8641182" lon="1.7628176"><ele>474.0</ele><time>2026-04-25T11:13:04.894Z</time></trkpt><trkpt lat="41.8639978" lon="1.762643"><ele>474.0</ele><time>2026-04-25T11:13:05.893Z</time></trkpt><trkpt lat="41.863878" lon="1.7624755"><ele>474.0</ele><time>2026-04-25T11:13:06.892Z</time></trkpt><trkpt lat="41.8637432" lon="1.7623224"><ele>474.0</ele><time>2026-04-25T11:13:07.893Z</time></trkpt><trkpt lat="41.863593" lon="1.7621847"><ele>471.66666666666663</ele><time>2026-04-25T11:13:08.894Z</time></trkpt><trkpt lat="41.8634321" lon="1.7620572"><ele>469.3333333333333</ele><time>2026-04-25T11:13:09.894Z</time></trkpt><trkpt lat="41.8632651" lon="1.7619376"><ele>467.0</ele><time>2026-04-25T11:13:10.893Z</time></trkpt><trkpt lat="41.8630924" lon="1.7618245"><ele>466.66666666666663</ele><time>2026-04-25T11:13:11.894Z</time></trkpt><trkpt lat="41.8629086" lon="1.7617371"><ele>466.33333333333337</ele><time>2026-04-25T11:13:12.893Z</time></trkpt><trkpt lat="41.8627162" lon="1.7616858"><ele>466.0</ele><time>2026-04-25T11:13:13.893Z</time></trkpt><trkpt lat="41.8625202" lon="1.7616596"><ele>466.0</ele><time>2026-04-25T11:13:14.894Z</time></trkpt><trkpt lat="41.8623239" lon="1.7616542"><ele>466.0</ele><time>2026-04-25T11:13:15.894Z</time></trkpt><trkpt lat="41.8621244" lon="1.7616774"><ele>466.0</ele><time>2026-04-25T11:13:16.893Z</time></trkpt><trkpt lat="41.8619214" lon="1.7617231"><ele>470.0</ele><time>2026-04-25T11:13:17.893Z</time></trkpt><trkpt lat="41.8617167" lon="1.761785"><ele>474.0</ele><time>2026-04-25T11:13:18.892Z</time></trkpt><trkpt lat="41.8615126" lon="1.7618586"><ele>478.0</ele><time>2026-04-25T11:13:19.894Z</time></trkpt><trkpt lat="41.8613114" lon="1.7619354"><ele>473.33333333333337</ele><time>2026-04-25T11:13:20.892Z</time></trkpt><trkpt lat="41.8611132" lon="1.7620152"><ele>468.66666666666663</ele><time>2026-04-25T11:13:21.893Z</time></trkpt><trkpt lat="41.8609205" lon="1.7621148"><ele>464.0</ele><time>2026-04-25T11:13:22.894Z</time></trkpt><trkpt lat="41.8607312" lon="1.7622334"><ele>464.0</ele><time>2026-04-25T11:13:23.893Z</time></trkpt><trkpt lat="41.8605427" lon="1.7623553"><ele>464.0</ele><time>2026-04-25T11:13:24.893Z</time></trkpt><trkpt lat="41.8603572" lon="1.7624738"><ele>464.0</ele><time>2026-04-25T11:13:25.893Z</time></trkpt><trkpt lat="41.8601833" lon="1.7625902"><ele>463.66666666666663</ele><time>2026-04-25T11:13:26.893Z</time></trkpt><trkpt lat="41.8600257" lon="1.7626975"><ele>463.33333333333337</ele><time>2026-04-25T11:13:27.894Z</time></trkpt><trkpt lat="41.8598884" lon="1.7627985"><ele>463.0</ele><time>2026-04-25T11:13:28.893Z</time></trkpt><trkpt lat="41.8597658" lon="1.7629134"><ele>463.0</ele><time>2026-04-25T11:13:29.893Z</time></trkpt><trkpt lat="41.8596582" lon="1.7630706"><ele>463.0</ele><time>2026-04-25T11:13:30.893Z</time></trkpt><trkpt lat="41.8595741" lon="1.7632602"><ele>463.0</ele><time>2026-04-25T11:13:31.893Z</time></trkpt><trkpt lat="41.859514" lon="1.763464"><ele>464.25</ele><time>2026-04-25T11:13:32.894Z</time></trkpt><trkpt lat="41.8594632" lon="1.7636577"><ele>465.5</ele><time>2026-04-25T11:13:33.893Z</time></trkpt><trkpt lat="41.8593944" lon="1.7638272"><ele>466.75</ele><time>2026-04-25T11:13:34.894Z</time></trkpt><trkpt lat="41.8592914" lon="1.7639716"><ele>468.0</ele><time>2026-04-25T11:13:35.893Z</time></trkpt><trkpt lat="41.8591689" lon="1.7640758"><ele>468.0</ele><time>2026-04-25T11:13:36.893Z</time></trkpt><trkpt lat="41.8590347" lon="1.764124"><ele>468.0</ele><time>2026-04-25T11:13:37.893Z</time></trkpt><trkpt lat="41.8588886" lon="1.764118"><ele>468.0</ele><time>2026-04-25T11:13:38.893Z</time></trkpt><trkpt lat="41.8587323" lon="1.7640753"><ele>468.0</ele><time>2026-04-25T11:13:39.894Z</time></trkpt><trkpt lat="41.8585624" lon="1.7640173"><ele>464.66666666666663</ele><time>2026-04-25T11:13:40.892Z</time></trkpt><trkpt lat="41.8583856" lon="1.7639601"><ele>461.3333333333333</ele><time>2026-04-25T11:13:41.892Z</time></trkpt><trkpt lat="41.8582057" lon="1.7639008"><ele>458.0</ele><time>2026-04-25T11:13:42.893Z</time></trkpt><trkpt lat="41.8580201" lon="1.7638595"><ele>458.0</ele><time>2026-04-25T11:13:43.893Z</time></trkpt><trkpt lat="41.857831" lon="1.7638352"><ele>458.0</ele><time>2026-04-25T11:13:44.893Z</time></trkpt><trkpt lat="41.8576481" lon="1.7638253"><ele>458.0</ele><time>2026-04-25T11:13:45.893Z</time></trkpt><trkpt lat="41.8574804" lon="1.7638148"><ele>456.66666666666663</ele><time>2026-04-25T11:13:46.893Z</time></trkpt><trkpt lat="41.8573296" lon="1.763777"><ele>455.33333333333337</ele><time>2026-04-25T11:13:47.893Z</time></trkpt><trkpt lat="41.8571856" lon="1.7636916"><ele>454.0</ele><time>2026-04-25T11:13:48.893Z</time></trkpt><trkpt lat="41.8570506" lon="1.7635695"><ele>458.0</ele><time>2026-04-25T11:13:49.893Z</time></trkpt><trkpt lat="41.8569153" lon="1.7634437"><ele>462.0</ele><time>2026-04-25T11:13:50.894Z</time></trkpt><trkpt lat="41.8567736" lon="1.7633512"><ele>466.0</ele><time>2026-04-25T11:13:51.892Z</time></trkpt><trkpt lat="41.856629" lon="1.7632989"><ele>466.0</ele><time>2026-04-25T11:13:52.893Z</time></trkpt><trkpt lat="41.8564833" lon="1.7632971"><ele>466.0</ele><time>2026-04-25T11:13:53.893Z</time></trkpt><trkpt lat="41.8563411" lon="1.7633485"><ele>466.0</ele><time>2026-04-25T11:13:54.893Z</time></trkpt><trkpt lat="41.8562153" lon="1.7634617"><ele>466.0</ele><time>2026-04-25T11:13:55.893Z</time></trkpt><trkpt lat="41.8561208" lon="1.763614"><ele>463.6666666666667</ele><time>2026-04-25T11:13:56.892Z</time></trkpt><trkpt lat="41.8560397" lon="1.7637921"><ele>461.33333333333337</ele><time>2026-04-25T11:13:57.892Z</time></trkpt><trkpt lat="41.8559564" lon="1.7639671"><ele>459.0</ele><time>2026-04-25T11:13:58.893Z</time></trkpt><trkpt lat="41.8558603" lon="1.7641088"><ele>459.0</ele><time>2026-04-25T11:13:59.892Z</time></trkpt><trkpt lat="41.8557376" lon="1.7642229"><ele>459.0</ele><time>2026-04-25T11:14:00.893Z</time></trkpt><trkpt lat="41.8555978" lon="1.7643186"><ele>459.0</ele><time>2026-04-25T11:14:01.892Z</time></trkpt><trkpt lat="41.8554488" lon="1.7644177"><ele>456.33333333333337</ele><time>2026-04-25T11:14:02.894Z</time></trkpt><trkpt lat="41.8553016" lon="1.7645339"><ele>453.6666666666667</ele><time>2026-04-25T11:14:03.894Z</time></trkpt><trkpt lat="41.8551654" lon="1.7646663"><ele>451.0</ele><time>2026-04-25T11:14:04.894Z</time></trkpt><trkpt lat="41.8550296" lon="1.7647894"><ele>451.0</ele><time>2026-04-25T11:14:05.894Z</time></trkpt><trkpt lat="41.8548846" lon="1.7648676"><ele>451.0</ele><time>2026-04-25T11:14:06.892Z</time></trkpt><trkpt lat="41.8547277" lon="1.7649061"><ele>451.0</ele><time>2026-04-25T11:14:07.892Z</time></trkpt><trkpt lat="41.854561" lon="1.7649186"><ele>451.0</ele><time>2026-04-25T11:14:08.893Z</time></trkpt><trkpt lat="41.8543937" lon="1.7649327"><ele>451.0</ele><time>2026-04-25T11:14:09.893Z</time></trkpt><trkpt lat="41.8542394" lon="1.7649531"><ele>451.0</ele><time>2026-04-25T11:14:10.893Z</time></trkpt><trkpt lat="41.8540951" lon="1.7649855"><ele>451.0</ele><time>2026-04-25T11:14:11.893Z</time></trkpt><trkpt lat="41.8539708" lon="1.7650441"><ele>451.0</ele><time>2026-04-25T11:14:12.894Z</time></trkpt><trkpt lat="41.8538642" lon="1.765141"><ele>451.0</ele><time>2026-04-25T11:14:13.893Z</time></trkpt><trkpt lat="41.8537568" lon="1.7652623"><ele>451.0</ele><time>2026-04-25T11:14:14.892Z</time></trkpt><trkpt lat="41.853634" lon="1.7653703"><ele>451.0</ele><time>2026-04-25T11:14:15.894Z</time></trkpt><trkpt lat="41.8535014" lon="1.7654221"><ele>451.0</ele><time>2026-04-25T11:14:16.893Z</time></trkpt><trkpt lat="41.8533748" lon="1.7654202"><ele>451.0</ele><time>2026-04-25T11:14:17.893Z</time></trkpt><trkpt lat="41.8532435" lon="1.7653762"><ele>451.0</ele><time>2026-04-25T11:14:18.893Z</time></trkpt><trkpt lat="41.8531024" lon="1.7653065"><ele>450.0</ele><time>2026-04-25T11:14:19.893Z</time></trkpt><trkpt lat="41.852949" lon="1.7652331"><ele>449.0</ele><time>2026-04-25T11:14:20.894Z</time></trkpt><trkpt lat="41.8527822" lon="1.7651677"><ele>448.0</ele><time>2026-04-25T11:14:21.894Z</time></trkpt><trkpt lat="41.8526031" lon="1.7651211"><ele>448.0</ele><time>2026-04-25T11:14:22.894Z</time></trkpt><trkpt lat="41.8524196" lon="1.7650834"><ele>448.0</ele><time>2026-04-25T11:14:23.893Z</time></trkpt><trkpt lat="41.8522354" lon="1.7650448"><ele>448.0</ele><time>2026-04-25T11:14:24.892Z</time></trkpt><trkpt lat="41.8520581" lon="1.7650091"><ele>448.0</ele><time>2026-04-25T11:14:25.893Z</time></trkpt><trkpt lat="41.8518953" lon="1.7649785"><ele>448.0</ele><time>2026-04-25T11:14:26.894Z</time></trkpt><trkpt lat="41.8517517" lon="1.7649491"><ele>448.0</ele><time>2026-04-25T11:14:27.893Z</time></trkpt><trkpt lat="41.8516175" lon="1.7649358"><ele>448.0</ele><time>2026-04-25T11:14:28.894Z</time></trkpt><trkpt lat="41.8514826" lon="1.7649706"><ele>448.6666666666667</ele><time>2026-04-25T11:14:29.894Z</time></trkpt><trkpt lat="41.8513527" lon="1.7650522"><ele>449.33333333333337</ele><time>2026-04-25T11:14:30.894Z</time></trkpt><trkpt lat="41.8512313" lon="1.7651841"><ele>450.0</ele><time>2026-04-25T11:14:31.893Z</time></trkpt><trkpt lat="41.8511094" lon="1.765321"><ele>444.5</ele><time>2026-04-25T11:14:32.893Z</time></trkpt><trkpt lat="41.8509768" lon="1.7654007"><ele>439.0</ele><time>2026-04-25T11:14:33.893Z</time></trkpt><trkpt lat="41.8508387" lon="1.7654377"><ele>433.5</ele><time>2026-04-25T11:14:34.893Z</time></trkpt><trkpt lat="41.8507091" lon="1.7654155"><ele>428.0</ele><time>2026-04-25T11:14:35.894Z</time></trkpt><trkpt lat="41.8505979" lon="1.7653402"><ele>428.0</ele><time>2026-04-25T11:14:36.894Z</time></trkpt><trkpt lat="41.8505078" lon="1.7652168"><ele>428.0</ele><time>2026-04-25T11:14:37.893Z</time></trkpt><trkpt lat="41.8504205" lon="1.7650591"><ele>428.0</ele><time>2026-04-25T11:14:38.893Z</time></trkpt><trkpt lat="41.8503339" lon="1.7648782"><ele>428.0</ele><time>2026-04-25T11:14:39.893Z</time></trkpt><trkpt lat="41.8502554" lon="1.7646852"><ele>432.0</ele><time>2026-04-25T11:14:40.893Z</time></trkpt><trkpt lat="41.8501919" lon="1.7644933"><ele>436.0</ele><time>2026-04-25T11:14:41.893Z</time></trkpt><trkpt lat="41.8501317" lon="1.764317"><ele>440.0</ele><time>2026-04-25T11:14:42.894Z</time></trkpt><trkpt lat="41.8500679" lon="1.7641579"><ele>444.0</ele><time>2026-04-25T11:14:43.893Z</time></trkpt><trkpt lat="41.8499799" lon="1.7640298"><ele>444.0</ele><time>2026-04-25T11:14:44.893Z</time></trkpt><trkpt lat="41.8498705" lon="1.7639586"><ele>444.0</ele><time>2026-04-25T11:14:45.894Z</time></trkpt><trkpt lat="41.8497398" lon="1.7639234"><ele>444.0</ele><time>2026-04-25T11:14:46.893Z</time></trkpt><trkpt lat="41.8495945" lon="1.7639232"><ele>444.0</ele><time>2026-04-25T11:14:47.892Z</time></trkpt><trkpt lat="41.8494468" lon="1.7639562"><ele>444.0</ele><time>2026-04-25T11:14:48.892Z</time></trkpt><trkpt lat="41.8493027" lon="1.7640403"><ele>444.0</ele><time>2026-04-25T11:14:49.892Z</time></trkpt><trkpt lat="41.8491692" lon="1.7641498"><ele>444.0</ele><time>2026-04-25T11:14:50.893Z</time></trkpt><trkpt lat="41.8490504" lon="1.7642684"><ele>443.0</ele><time>2026-04-25T11:14:51.893Z</time></trkpt><trkpt lat="41.8489358" lon="1.7643651"><ele>442.0</ele><time>2026-04-25T11:14:52.894Z</time></trkpt><trkpt lat="41.8488044" lon="1.7644001"><ele>441.0</ele><time>2026-04-25T11:14:53.894Z</time></trkpt><trkpt lat="41.8486624" lon="1.7643893"><ele>440.0</ele><time>2026-04-25T11:14:54.894Z</time></trkpt><trkpt lat="41.8485029" lon="1.7643595"><ele>439.3333333333333</ele><time>2026-04-25T11:14:55.893Z</time></trkpt><trkpt lat="41.848329" lon="1.7643251"><ele>438.66666666666663</ele><time>2026-04-25T11:14:56.893Z</time></trkpt><trkpt lat="41.8481465" lon="1.7642868"><ele>438.0</ele><time>2026-04-25T11:14:57.894Z</time></trkpt><trkpt lat="41.8479639" lon="1.7642533"><ele>438.0</ele><time>2026-04-25T11:14:58.894Z</time></trkpt><trkpt lat="41.8477737" lon="1.764231"><ele>438.0</ele><time>2026-04-25T11:14:59.892Z</time></trkpt><trkpt lat="41.847584" lon="1.7642401"><ele>438.0</ele><time>2026-04-25T11:15:00.893Z</time></trkpt><trkpt lat="41.8474046" lon="1.764288"><ele>436.0</ele><time>2026-04-25T11:15:01.893Z</time></trkpt><trkpt lat="41.8472267" lon="1.7643553"><ele>434.0</ele><time>2026-04-25T11:15:02.894Z</time></trkpt><trkpt lat="41.8470579" lon="1.764414"><ele>432.0</ele><time>2026-04-25T11:15:03.894Z</time></trkpt><trkpt lat="41.846909" lon="1.7644611"><ele>432.25</ele><time>2026-04-25T11:15:04.894Z</time></trkpt><trkpt lat="41.8467682" lon="1.7644856"><ele>432.5</ele><time>2026-04-25T11:15:05.892Z</time></trkpt><trkpt lat="41.8466426" lon="1.7644706"><ele>432.75</ele><time>2026-04-25T11:15:06.893Z</time></trkpt><trkpt lat="41.8465319" lon="1.7644139"><ele>433.0</ele><time>2026-04-25T11:15:07.893Z</time></trkpt><trkpt lat="41.846439" lon="1.7643004"><ele>433.0</ele><time>2026-04-25T11:15:08.894Z</time></trkpt><trkpt lat="41.8463562" lon="1.7641486"><ele>433.0</ele><time>2026-04-25T11:15:09.894Z</time></trkpt><trkpt lat="41.8462711" lon="1.7639738"><ele>433.0</ele><time>2026-04-25T11:15:10.894Z</time></trkpt><trkpt lat="41.8461787" lon="1.7638001"><ele>433.0</ele><time>2026-04-25T11:15:11.893Z</time></trkpt><trkpt lat="41.8460824" lon="1.7636261"><ele>433.0</ele><time>2026-04-25T11:15:12.893Z</time></trkpt><trkpt lat="41.845977" lon="1.7634586"><ele>433.0</ele><time>2026-04-25T11:15:13.894Z</time></trkpt><trkpt lat="41.845845" lon="1.7633147"><ele>430.0</ele><time>2026-04-25T11:15:14.893Z</time></trkpt><trkpt lat="41.8456942" lon="1.7631802"><ele>427.0</ele><time>2026-04-25T11:15:15.892Z</time></trkpt><trkpt lat="41.8455371" lon="1.7630379"><ele>424.0</ele><time>2026-04-25T11:15:16.893Z</time></trkpt><trkpt lat="41.8453791" lon="1.7628935"><ele>424.0</ele><time>2026-04-25T11:15:17.893Z</time></trkpt><trkpt lat="41.845228" lon="1.762741"><ele>424.0</ele><time>2026-04-25T11:15:18.893Z</time></trkpt><trkpt lat="41.8450972" lon="1.7625671"><ele>424.0</ele><time>2026-04-25T11:15:19.894Z</time></trkpt><trkpt lat="41.8449885" lon="1.7623682"><ele>421.6666666666667</ele><time>2026-04-25T11:15:20.894Z</time></trkpt><trkpt lat="41.8448887" lon="1.7621579"><ele>419.33333333333337</ele><time>2026-04-25T11:15:21.892Z</time></trkpt><trkpt lat="41.8447918" lon="1.7619522"><ele>417.0</ele><time>2026-04-25T11:15:22.893Z</time></trkpt><trkpt lat="41.8447015" lon="1.761761"><ele>415.0</ele><time>2026-04-25T11:15:23.894Z</time></trkpt><trkpt lat="41.8446179" lon="1.7615956"><ele>413.0</ele><time>2026-04-25T11:15:24.892Z</time></trkpt><trkpt lat="41.8445322" lon="1.7614707"><ele>411.0</ele><time>2026-04-25T11:15:25.892Z</time></trkpt><trkpt lat="41.8444328" lon="1.7613827"><ele>409.0</ele><time>2026-04-25T11:15:26.893Z</time></trkpt><trkpt lat="41.8443117" lon="1.7613384"><ele>412.0</ele><time>2026-04-25T11:15:27.894Z</time></trkpt><trkpt lat="41.8441723" lon="1.761336"><ele>415.0</ele><time>2026-04-25T11:15:28.894Z</time></trkpt><trkpt lat="41.8440156" lon="1.7613492"><ele>418.0</ele><time>2026-04-25T11:15:29.894Z</time></trkpt><trkpt lat="41.8438558" lon="1.761356"><ele>418.0</ele><time>2026-04-25T11:15:30.892Z</time></trkpt><trkpt lat="41.8437024" lon="1.7613448"><ele>418.0</ele><time>2026-04-25T11:15:31.893Z</time></trkpt><trkpt lat="41.8435576" lon="1.7613002"><ele>418.0</ele><time>2026-04-25T11:15:32.892Z</time></trkpt><trkpt lat="41.843427" lon="1.7612015"><ele>419.6666666666667</ele><time>2026-04-25T11:15:33.893Z</time></trkpt><trkpt lat="41.843311" lon="1.7610702"><ele>421.33333333333337</ele><time>2026-04-25T11:15:34.893Z</time></trkpt><trkpt lat="41.843188" lon="1.760954"><ele>423.0</ele><time>2026-04-25T11:15:35.894Z</time></trkpt><trkpt lat="41.843047" lon="1.7608671"><ele>419.25</ele><time>2026-04-25T11:15:36.894Z</time></trkpt><trkpt lat="41.8429015" lon="1.7607918"><ele>415.5</ele><time>2026-04-25T11:15:37.893Z</time></trkpt><trkpt lat="41.8427744" lon="1.7606885"><ele>411.75</ele><time>2026-04-25T11:15:38.893Z</time></trkpt><trkpt lat="41.8426724" lon="1.7605504"><ele>408.0</ele><time>2026-04-25T11:15:39.892Z</time></trkpt><trkpt lat="41.8425943" lon="1.7604117"><ele>408.0</ele><time>2026-04-25T11:15:40.892Z</time></trkpt><trkpt lat="41.8425023" lon="1.7603011"><ele>408.0</ele><time>2026-04-25T11:15:41.894Z</time></trkpt><trkpt lat="41.8423904" lon="1.7602306"><ele>408.0</ele><time>2026-04-25T11:15:42.894Z</time></trkpt><trkpt lat="41.842264" lon="1.760199"><ele>408.0</ele><time>2026-04-25T11:15:43.892Z</time></trkpt><trkpt lat="41.8421243" lon="1.7601606"><ele>404.33333333333337</ele><time>2026-04-25T11:15:44.894Z</time></trkpt><trkpt lat="41.841987" lon="1.7600675"><ele>400.6666666666667</ele><time>2026-04-25T11:15:45.893Z</time></trkpt><trkpt lat="41.8418573" lon="1.7599383"><ele>397.0</ele><time>2026-04-25T11:15:46.892Z</time></trkpt><trkpt lat="41.8417349" lon="1.7597875"><ele>397.0</ele><time>2026-04-25T11:15:47.893Z</time></trkpt><trkpt lat="41.8416153" lon="1.7596339"><ele>397.0</ele><time>2026-04-25T11:15:48.894Z</time></trkpt><trkpt lat="41.8415012" lon="1.7594728"><ele>397.0</ele><time>2026-04-25T11:15:49.893Z</time></trkpt><trkpt lat="41.8413999" lon="1.7592819"><ele>390.0</ele><time>2026-04-25T11:15:50.893Z</time></trkpt><trkpt lat="41.841314" lon="1.7590692"><ele>383.0</ele><time>2026-04-25T11:15:51.892Z</time></trkpt><trkpt lat="41.8412342" lon="1.7588486"><ele>376.0</ele><time>2026-04-25T11:15:52.893Z</time></trkpt><trkpt lat="41.8411502" lon="1.7586292"><ele>378.66666666666663</ele><time>2026-04-25T11:15:53.893Z</time></trkpt><trkpt lat="41.8410575" lon="1.7584216"><ele>381.3333333333333</ele><time>2026-04-25T11:15:54.894Z</time></trkpt><trkpt lat="41.8409579" lon="1.7582213"><ele>384.0</ele><time>2026-04-25T11:15:55.893Z</time></trkpt><trkpt lat="41.8408664" lon="1.7580342"><ele>384.0</ele><time>2026-04-25T11:15:56.893Z</time></trkpt><trkpt lat="41.8407933" lon="1.7578495"><ele>384.0</ele><time>2026-04-25T11:15:57.893Z</time></trkpt><trkpt lat="41.8407598" lon="1.757658"><ele>384.0</ele><time>2026-04-25T11:15:58.894Z</time></trkpt><trkpt lat="41.8407491" lon="1.757468"><ele>384.0</ele><time>2026-04-25T11:15:59.894Z</time></trkpt><trkpt lat="41.8407365" lon="1.7572949"><ele>381.0</ele><time>2026-04-25T11:16:00.892Z</time></trkpt><trkpt lat="41.8407052" lon="1.7571403"><ele>378.0</ele><time>2026-04-25T11:16:01.893Z</time></trkpt><trkpt lat="41.8406417" lon="1.7569995"><ele>375.0</ele><time>2026-04-25T11:16:02.892Z</time></trkpt><trkpt lat="41.8405428" lon="1.756869"><ele>372.0</ele><time>2026-04-25T11:16:03.894Z</time></trkpt><trkpt lat="41.8404253" lon="1.7567371"><ele>374.0</ele><time>2026-04-25T11:16:04.893Z</time></trkpt><trkpt lat="41.8403" lon="1.7565988"><ele>376.0</ele><time>2026-04-25T11:16:05.894Z</time></trkpt><trkpt lat="41.8401693" lon="1.7564489"><ele>378.0</ele><time>2026-04-25T11:16:06.893Z</time></trkpt><trkpt lat="41.840032" lon="1.7562899"><ele>378.0</ele><time>2026-04-25T11:16:07.894Z</time></trkpt><trkpt lat="41.8398912" lon="1.756127"><ele>378.0</ele><time>2026-04-25T11:16:08.894Z</time></trkpt><trkpt lat="41.8397487" lon="1.7559598"><ele>378.0</ele><time>2026-04-25T11:16:09.893Z</time></trkpt><trkpt lat="41.8396063" lon="1.7557948"><ele>374.6666666666667</ele><time>2026-04-25T11:16:10.893Z</time></trkpt><trkpt lat="41.8394642" lon="1.7556324"><ele>371.33333333333337</ele><time>2026-04-25T11:16:11.894Z</time></trkpt><trkpt lat="41.8393208" lon="1.7554814"><ele>368.0</ele><time>2026-04-25T11:16:12.893Z</time></trkpt><trkpt lat="41.8391686" lon="1.7553468"><ele>368.0</ele><time>2026-04-25T11:16:13.892Z</time></trkpt><trkpt lat="41.8390071" lon="1.7552259"><ele>368.0</ele><time>2026-04-25T11:16:14.893Z</time></trkpt><trkpt lat="41.8388411" lon="1.7551094"><ele>368.0</ele><time>2026-04-25T11:16:15.893Z</time></trkpt><trkpt lat="41.8386763" lon="1.7549932"><ele>366.33333333333337</ele><time>2026-04-25T11:16:16.894Z</time></trkpt><trkpt lat="41.8385151" lon="1.7548713"><ele>364.6666666666667</ele><time>2026-04-25T11:16:17.893Z</time></trkpt><trkpt lat="41.8383592" lon="1.7547349"><ele>363.0</ele><time>2026-04-25T11:16:18.893Z</time></trkpt><trkpt lat="41.8382091" lon="1.7545765"><ele>363.0</ele><time>2026-04-25T11:16:19.893Z</time></trkpt><trkpt lat="41.8380611" lon="1.7544004"><ele>363.0</ele><time>2026-04-25T11:16:20.892Z</time></trkpt><trkpt lat="41.837913" lon="1.7542265"><ele>363.0</ele><time>2026-04-25T11:16:21.893Z</time></trkpt><trkpt lat="41.837767" lon="1.7540497"><ele>361.6666666666667</ele><time>2026-04-25T11:16:22.894Z</time></trkpt><trkpt lat="41.8376276" lon="1.7538695"><ele>360.33333333333337</ele><time>2026-04-25T11:16:23.893Z</time></trkpt><trkpt lat="41.8374982" lon="1.7536928"><ele>359.0</ele><time>2026-04-25T11:16:24.893Z</time></trkpt><trkpt lat="41.8373644" lon="1.7535333"><ele>350.33333333333337</ele><time>2026-04-25T11:16:25.893Z</time></trkpt><trkpt lat="41.8372266" lon="1.7533864"><ele>341.6666666666667</ele><time>2026-04-25T11:16:26.892Z</time></trkpt><trkpt lat="41.8370896" lon="1.753251"><ele>333.0</ele><time>2026-04-25T11:16:27.893Z</time></trkpt><trkpt lat="41.8369581" lon="1.7531197"><ele>333.0</ele><time>2026-04-25T11:16:28.893Z</time></trkpt><trkpt lat="41.8368325" lon="1.7530007"><ele>333.0</ele><time>2026-04-25T11:16:29.893Z</time></trkpt><trkpt lat="41.8367131" lon="1.7528892"><ele>333.0</ele><time>2026-04-25T11:16:30.893Z</time></trkpt><trkpt lat="41.8366024" lon="1.7527954"><ele>333.0</ele><time>2026-04-25T11:16:31.892Z</time></trkpt><trkpt lat="41.836484" lon="1.7527215"><ele>332.4</ele><time>2026-04-25T11:16:32.893Z</time></trkpt><trkpt lat="41.8363656" lon="1.7526767"><ele>331.79999999999995</ele><time>2026-04-25T11:16:33.894Z</time></trkpt><trkpt lat="41.8362627" lon="1.7526553"><ele>331.2</ele><time>2026-04-25T11:16:34.893Z</time></trkpt><trkpt lat="41.8361707" lon="1.7526505"><ele>330.6</ele><time>2026-04-25T11:16:35.893Z</time></trkpt><trkpt lat="41.8360781" lon="1.7526605"><ele>330.0</ele><time>2026-04-25T11:16:36.893Z</time></trkpt><trkpt lat="41.8359789" lon="1.7526969"><ele>333.4</ele><time>2026-04-25T11:16:37.894Z</time></trkpt><trkpt lat="41.8358796" lon="1.7527572"><ele>336.8</ele><time>2026-04-25T11:16:38.893Z</time></trkpt><trkpt lat="41.835785" lon="1.7528434"><ele>340.20000000000005</ele><time>2026-04-25T11:16:39.893Z</time></trkpt><trkpt lat="41.8357014" lon="1.7529483"><ele>343.6</ele><time>2026-04-25T11:16:40.893Z</time></trkpt><trkpt lat="41.8356322" lon="1.7530633"><ele>347.0</ele><time>2026-04-25T11:16:41.894Z</time></trkpt><trkpt lat="41.8355771" lon="1.753179"><ele>347.0</ele><time>2026-04-25T11:16:42.893Z</time></trkpt><trkpt lat="41.8355312" lon="1.7532904"><ele>347.0</ele><time>2026-04-25T11:16:43.894Z</time></trkpt><trkpt lat="41.8354847" lon="1.7534098"><ele>347.0</ele><time>2026-04-25T11:16:44.893Z</time></trkpt><trkpt lat="41.8354373" lon="1.7535412"><ele>347.0</ele><time>2026-04-25T11:16:45.893Z</time></trkpt><trkpt lat="41.8353887" lon="1.7536769"><ele>347.0</ele><time>2026-04-25T11:16:46.892Z</time></trkpt><trkpt lat="41.8353418" lon="1.7538093"><ele>347.6666666666667</ele><time>2026-04-25T11:16:47.892Z</time></trkpt><trkpt lat="41.8352931" lon="1.7539255"><ele>348.33333333333337</ele><time>2026-04-25T11:16:48.893Z</time></trkpt><trkpt lat="41.8352453" lon="1.7540355"><ele>349.0</ele><time>2026-04-25T11:16:49.892Z</time></trkpt><trkpt lat="41.8351896" lon="1.7541282"><ele>349.6666666666667</ele><time>2026-04-25T11:16:50.893Z</time></trkpt><trkpt lat="41.8351261" lon="1.7542012"><ele>350.3333333333333</ele><time>2026-04-25T11:16:51.894Z</time></trkpt><trkpt lat="41.8350552" lon="1.7542488"><ele>351.0</ele><time>2026-04-25T11:16:52.893Z</time></trkpt><trkpt lat="41.8349806" lon="1.75427"><ele>348.6666666666667</ele><time>2026-04-25T11:16:53.894Z</time></trkpt><trkpt lat="41.8349014" lon="1.7542744"><ele>346.3333333333333</ele><time>2026-04-25T11:16:54.893Z</time></trkpt><trkpt lat="41.8348172" lon="1.7542608"><ele>344.0</ele><time>2026-04-25T11:16:55.892Z</time></trkpt><trkpt lat="41.8347306" lon="1.7542234"><ele>341.66666666666663</ele><time>2026-04-25T11:16:56.893Z</time></trkpt><trkpt lat="41.8346477" lon="1.7541671"><ele>339.3333333333333</ele><time>2026-04-25T11:16:57.893Z</time></trkpt><trkpt lat="41.8345642" lon="1.7541025"><ele>337.0</ele><time>2026-04-25T11:16:58.894Z</time></trkpt><trkpt lat="41.834479" lon="1.7540369"><ele>337.0</ele><time>2026-04-25T11:16:59.894Z</time></trkpt><trkpt lat="41.8343958" lon="1.7539711"><ele>337.0</ele><time>2026-04-25T11:17:00.893Z</time></trkpt><trkpt lat="41.8343106" lon="1.7539112"><ele>337.0</ele><time>2026-04-25T11:17:01.893Z</time></trkpt><trkpt lat="41.8342282" lon="1.7538414"><ele>337.0</ele><time>2026-04-25T11:17:02.893Z</time></trkpt><trkpt lat="41.8341591" lon="1.7537477"><ele>337.0</ele><time>2026-04-25T11:17:03.893Z</time></trkpt><trkpt lat="41.8341008" lon="1.7536301"><ele>332.8</ele><time>2026-04-25T11:17:04.893Z</time></trkpt><trkpt lat="41.8340544" lon="1.7534999"><ele>328.6</ele><time>2026-04-25T11:17:05.893Z</time></trkpt><trkpt lat="41.8340191" lon="1.7533601"><ele>324.40000000000003</ele><time>2026-04-25T11:17:06.893Z</time></trkpt><trkpt lat="41.8339767" lon="1.7532189"><ele>320.20000000000005</ele><time>2026-04-25T11:17:07.893Z</time></trkpt><trkpt lat="41.8339106" lon="1.7530868"><ele>316.0</ele><time>2026-04-25T11:17:08.894Z</time></trkpt><trkpt lat="41.8338299" lon="1.7529625"><ele>316.0</ele><time>2026-04-25T11:17:09.892Z</time></trkpt><trkpt lat="41.8337454" lon="1.7528419"><ele>316.0</ele><time>2026-04-25T11:17:10.892Z</time></trkpt><trkpt lat="41.8336632" lon="1.7527238"><ele>316.0</ele><time>2026-04-25T11:17:11.893Z</time></trkpt><trkpt lat="41.8335868" lon="1.7526078"><ele>316.0</ele><time>2026-04-25T11:17:12.894Z</time></trkpt><trkpt lat="41.8335092" lon="1.7524951"><ele>315.2</ele><time>2026-04-25T11:17:13.893Z</time></trkpt><trkpt lat="41.8334337" lon="1.752388"><ele>314.40000000000003</ele><time>2026-04-25T11:17:14.893Z</time></trkpt><trkpt lat="41.8333554" lon="1.7522946"><ele>313.6</ele><time>2026-04-25T11:17:15.894Z</time></trkpt><trkpt lat="41.8332702" lon="1.7522194"><ele>312.8</ele><time>2026-04-25T11:17:16.893Z</time></trkpt><trkpt lat="41.8331732" lon="1.7521745"><ele>312.0</ele><time>2026-04-25T11:17:17.892Z</time></trkpt><trkpt lat="41.833074" lon="1.7521684"><ele>312.0</ele><time>2026-04-25T11:17:18.893Z</time></trkpt><trkpt lat="41.8329745" lon="1.7521936"><ele>312.0</ele><time>2026-04-25T11:17:19.893Z</time></trkpt><trkpt lat="41.832878" lon="1.7522555"><ele>312.0</ele><time>2026-04-25T11:17:20.892Z</time></trkpt><trkpt lat="41.8327933" lon="1.7523289"><ele>312.0</ele><time>2026-04-25T11:17:21.893Z</time></trkpt><trkpt lat="41.832719" lon="1.752402"><ele>312.0</ele><time>2026-04-25T11:17:22.893Z</time></trkpt><trkpt lat="41.8326488" lon="1.7524794"><ele>311.0</ele><time>2026-04-25T11:17:23.894Z</time></trkpt><trkpt lat="41.8325744" lon="1.7525715"><ele>310.0</ele><time>2026-04-25T11:17:24.893Z</time></trkpt><trkpt lat="41.8324929" lon="1.7526669"><ele>309.0</ele><time>2026-04-25T11:17:25.893Z</time></trkpt><trkpt lat="41.8324074" lon="1.7527679"><ele>308.0</ele><time>2026-04-25T11:17:26.894Z</time></trkpt><trkpt lat="41.8323184" lon="1.7528773"><ele>307.0</ele><time>2026-04-25T11:17:27.893Z</time></trkpt><trkpt lat="41.8322256" lon="1.7529852"><ele>307.0</ele><time>2026-04-25T11:17:28.893Z</time></trkpt><trkpt lat="41.8321293" lon="1.7530942"><ele>307.0</ele><time>2026-04-25T11:17:29.894Z</time></trkpt><trkpt lat="41.8320357" lon="1.7532023"><ele>307.0</ele><time>2026-04-25T11:17:30.892Z</time></trkpt><trkpt lat="41.8319454" lon="1.7533071"><ele>307.0</ele><time>2026-04-25T11:17:31.894Z</time></trkpt><trkpt lat="41.8318582" lon="1.7534082"><ele>305.8</ele><time>2026-04-25T11:17:32.894Z</time></trkpt><trkpt lat="41.831771" lon="1.7535002"><ele>304.6</ele><time>2026-04-25T11:17:33.893Z</time></trkpt><trkpt lat="41.8316842" lon="1.7535965"><ele>303.40000000000003</ele><time>2026-04-25T11:17:34.894Z</time></trkpt><trkpt lat="41.8316013" lon="1.7536952"><ele>302.2</ele><time>2026-04-25T11:17:35.893Z</time></trkpt><trkpt lat="41.8315278" lon="1.7537975"><ele>301.0</ele><time>2026-04-25T11:17:36.893Z</time></trkpt><trkpt lat="41.8314681" lon="1.7539085"><ele>301.0</ele><time>2026-04-25T11:17:37.893Z</time></trkpt><trkpt lat="41.8314239" lon="1.7540245"><ele>301.0</ele><time>2026-04-25T11:17:38.893Z</time></trkpt><trkpt lat="41.8313943" lon="1.7541517"><ele>301.0</ele><time>2026-04-25T11:17:39.893Z</time></trkpt><trkpt lat="41.8313698" lon="1.7542824"><ele>301.0</ele><time>2026-04-25T11:17:40.892Z</time></trkpt><trkpt lat="41.8313404" lon="1.7544008"><ele>301.0</ele><time>2026-04-25T11:17:41.893Z</time></trkpt><trkpt lat="41.8313029" lon="1.7545035"><ele>300.66666666666663</ele><time>2026-04-25T11:17:42.893Z</time></trkpt><trkpt lat="41.8312562" lon="1.7545976"><ele>300.3333333333333</ele><time>2026-04-25T11:17:43.893Z</time></trkpt><trkpt lat="41.8312034" lon="1.7546897"><ele>300.0</ele><time>2026-04-25T11:17:44.894Z</time></trkpt><trkpt lat="41.8311507" lon="1.7547799"><ele>299.6666666666667</ele><time>2026-04-25T11:17:45.893Z</time></trkpt><trkpt lat="41.8311005" lon="1.7548608"><ele>299.33333333333337</ele><time>2026-04-25T11:17:46.894Z</time></trkpt><trkpt lat="41.8310107" lon="1.7549457"><ele>299.0</ele><time>2026-04-25T11:17:48.893Z</time></trkpt><trkpt lat="41.8309129" lon="1.7549118"><ele>297.1666666666667</ele><time>2026-04-25T11:17:50.893Z</time></trkpt><trkpt lat="41.8308614" lon="1.7548502"><ele>295.33333333333337</ele><time>2026-04-25T11:17:51.893Z</time></trkpt><trkpt lat="41.8308159" lon="1.7547911"><ele>293.5</ele><time>2026-04-25T11:17:52.892Z</time></trkpt><trkpt lat="41.8307231" lon="1.7546785"><ele>291.6666666666667</ele><time>2026-04-25T11:17:54.893Z</time></trkpt><trkpt lat="41.8306709" lon="1.7546119"><ele>289.8333333333333</ele><time>2026-04-25T11:17:55.893Z</time></trkpt><trkpt lat="41.8306161" lon="1.7545481"><ele>288.0</ele><time>2026-04-25T11:17:56.893Z</time></trkpt><trkpt lat="41.8305627" lon="1.7544876"><ele>288.0</ele><time>2026-04-25T11:17:57.893Z</time></trkpt><trkpt lat="41.8305129" lon="1.7544281"><ele>288.0</ele><time>2026-04-25T11:17:58.893Z</time></trkpt><trkpt lat="41.8304648" lon="1.7543701"><ele>288.0</ele><time>2026-04-25T11:17:59.894Z</time></trkpt><trkpt lat="41.8303733" lon="1.7542548"><ele>288.0</ele><time>2026-04-25T11:18:01.893Z</time></trkpt><trkpt lat="41.8303235" lon="1.7541997"><ele>288.0</ele><time>2026-04-25T11:18:02.894Z</time></trkpt><trkpt lat="41.8302401" lon="1.7540936"><ele>288.0</ele><time>2026-04-25T11:18:04.893Z</time></trkpt><trkpt lat="41.8301676" lon="1.7540039"><ele>287.8333333333333</ele><time>2026-04-25T11:18:06.893Z</time></trkpt><trkpt lat="41.8300959" lon="1.7539187"><ele>287.6666666666667</ele><time>2026-04-25T11:18:08.893Z</time></trkpt><trkpt lat="41.8300252" lon="1.7538395"><ele>287.5</ele><time>2026-04-25T11:18:10.893Z</time></trkpt><trkpt lat="41.8299556" lon="1.7537666"><ele>287.33333333333337</ele><time>2026-04-25T11:18:12.894Z</time></trkpt><trkpt lat="41.8298946" lon="1.7536943"><ele>287.1666666666667</ele><time>2026-04-25T11:18:15.893Z</time></trkpt><trkpt lat="41.8298346" lon="1.7536246"><ele>287.0</ele><time>2026-04-25T11:18:37.894Z</time></trkpt><trkpt lat="41.8297652" lon="1.7535373"><ele>287.0</ele><time>2026-04-25T11:18:39.894Z</time></trkpt><trkpt lat="41.829704" lon="1.7534762"><ele>287.0</ele><time>2026-04-25T11:18:41.892Z</time></trkpt><trkpt lat="41.8296174" lon="1.7534949"><ele>287.0</ele><time>2026-04-25T11:18:43.893Z</time></trkpt><trkpt lat="41.8295643" lon="1.7535598"><ele>287.0</ele><time>2026-04-25T11:18:44.893Z</time></trkpt><trkpt lat="41.8295117" lon="1.7536363"><ele>287.0</ele><time>2026-04-25T11:18:45.893Z</time></trkpt><trkpt lat="41.8294586" lon="1.7537139"><ele>287.0</ele><time>2026-04-25T11:18:46.893Z</time></trkpt><trkpt lat="41.8293949" lon="1.7538114"><ele>287.0</ele><time>2026-04-25T11:18:47.892Z</time></trkpt><trkpt lat="41.8293242" lon="1.7539179"><ele>287.0</ele><time>2026-04-25T11:18:48.891Z</time></trkpt><trkpt lat="41.8292479" lon="1.7540276"><ele>287.0</ele><time>2026-04-25T11:18:49.893Z</time></trkpt><trkpt lat="41.8291681" lon="1.7541292"><ele>287.0</ele><time>2026-04-25T11:18:50.893Z</time></trkpt><trkpt lat="41.8290792" lon="1.7542267"><ele>287.0</ele><time>2026-04-25T11:18:51.892Z</time></trkpt><trkpt lat="41.8289797" lon="1.7543199"><ele>285.75</ele><time>2026-04-25T11:18:52.892Z</time></trkpt><trkpt lat="41.8288792" lon="1.7544134"><ele>284.5</ele><time>2026-04-25T11:18:53.892Z</time></trkpt><trkpt lat="41.8287839" lon="1.7545058"><ele>283.25</ele><time>2026-04-25T11:18:54.892Z</time></trkpt><trkpt lat="41.8286904" lon="1.7545918"><ele>282.0</ele><time>2026-04-25T11:18:55.892Z</time></trkpt><trkpt lat="41.8286053" lon="1.7546733"><ele>282.0</ele><time>2026-04-25T11:18:56.893Z</time></trkpt><trkpt lat="41.8285235" lon="1.7547525"><ele>282.0</ele><time>2026-04-25T11:18:57.892Z</time></trkpt><trkpt lat="41.8284451" lon="1.7548294"><ele>282.0</ele><time>2026-04-25T11:18:58.893Z</time></trkpt><trkpt lat="41.8283623" lon="1.754904"><ele>282.0</ele><time>2026-04-25T11:18:59.893Z</time></trkpt><trkpt lat="41.828281" lon="1.7549841"><ele>282.0</ele><time>2026-04-25T11:19:00.893Z</time></trkpt><trkpt lat="41.8282" lon="1.7550706"><ele>281.6</ele><time>2026-04-25T11:19:01.892Z</time></trkpt><trkpt lat="41.8281181" lon="1.7551603"><ele>281.2</ele><time>2026-04-25T11:19:02.893Z</time></trkpt><trkpt lat="41.8280364" lon="1.7552611"><ele>280.8</ele><time>2026-04-25T11:19:03.893Z</time></trkpt><trkpt lat="41.8279523" lon="1.7553668"><ele>280.4</ele><time>2026-04-25T11:19:04.892Z</time></trkpt><trkpt lat="41.8278702" lon="1.7554746"><ele>280.0</ele><time>2026-04-25T11:19:05.892Z</time></trkpt><trkpt lat="41.8277962" lon="1.75558"><ele>279.8333333333333</ele><time>2026-04-25T11:19:06.893Z</time></trkpt><trkpt lat="41.8277286" lon="1.7556766"><ele>279.66666666666663</ele><time>2026-04-25T11:19:07.893Z</time></trkpt><trkpt lat="41.8276708" lon="1.755753"><ele>279.5</ele><time>2026-04-25T11:19:08.892Z</time></trkpt><trkpt lat="41.8275706" lon="1.7558188"><ele>279.3333333333333</ele><time>2026-04-25T11:19:10.892Z</time></trkpt><trkpt lat="41.8274899" lon="1.7558579"><ele>279.1666666666667</ele><time>2026-04-25T11:19:12.891Z</time></trkpt><trkpt lat="41.8274307" lon="1.7559102"><ele>279.0</ele><time>2026-04-25T11:19:15.892Z</time></trkpt><trkpt lat="41.8273738" lon="1.7560029"><ele>278.59999999999997</ele><time>2026-04-25T11:20:10.892Z</time></trkpt><trkpt lat="41.8273416" lon="1.7560755"><ele>278.2</ele><time>2026-04-25T11:20:11.892Z</time></trkpt><trkpt lat="41.8272917" lon="1.7562493"><ele>277.79999999999995</ele><time>2026-04-25T11:20:13.891Z</time></trkpt><trkpt lat="41.827256" lon="1.7563558"><ele>277.4</ele><time>2026-04-25T11:20:14.892Z</time></trkpt><trkpt lat="41.8271983" lon="1.7564672"><ele>277.0</ele><time>2026-04-25T11:20:15.893Z</time></trkpt><trkpt lat="41.8271194" lon="1.7565816"><ele>277.0</ele><time>2026-04-25T11:20:16.892Z</time></trkpt><trkpt lat="41.8270359" lon="1.7566898"><ele>277.0</ele><time>2026-04-25T11:20:17.891Z</time></trkpt><trkpt lat="41.8269588" lon="1.7567969"><ele>277.0</ele><time>2026-04-25T11:20:18.892Z</time></trkpt><trkpt lat="41.8268862" lon="1.7569075"><ele>277.0</ele><time>2026-04-25T11:20:19.892Z</time></trkpt><trkpt lat="41.8268129" lon="1.7570189"><ele>277.0</ele><time>2026-04-25T11:20:20.893Z</time></trkpt><trkpt lat="41.8267409" lon="1.7571228"><ele>278.0</ele><time>2026-04-25T11:20:21.892Z</time></trkpt><trkpt lat="41.8266678" lon="1.757195"><ele>279.0</ele><time>2026-04-25T11:20:22.892Z</time></trkpt><trkpt lat="41.8265834" lon="1.7572154"><ele>280.0</ele><time>2026-04-25T11:20:23.892Z</time></trkpt><trkpt lat="41.8265064" lon="1.7572458"><ele>281.0</ele><time>2026-04-25T11:20:24.893Z</time></trkpt><trkpt lat="41.8264371" lon="1.757317"><ele>282.0</ele><time>2026-04-25T11:20:25.893Z</time></trkpt><trkpt lat="41.8263877" lon="1.7574218"><ele>283.0</ele><time>2026-04-25T11:20:26.891Z</time></trkpt><trkpt lat="41.8263568" lon="1.7575505"><ele>283.0</ele><time>2026-04-25T11:20:27.892Z</time></trkpt><trkpt lat="41.8263078" lon="1.7576898"><ele>283.0</ele><time>2026-04-25T11:20:28.892Z</time></trkpt><trkpt lat="41.8262343" lon="1.7578199"><ele>283.0</ele><time>2026-04-25T11:20:29.893Z</time></trkpt><trkpt lat="41.8261545" lon="1.7579346"><ele>283.0</ele><time>2026-04-25T11:20:30.893Z</time></trkpt><trkpt lat="41.8260601" lon="1.7580677"><ele>283.0</ele><time>2026-04-25T11:20:31.892Z</time></trkpt><trkpt lat="41.825955" lon="1.7582229"><ele>283.0</ele><time>2026-04-25T11:20:32.891Z</time></trkpt><trkpt lat="41.8258397" lon="1.7583916"><ele>283.0</ele><time>2026-04-25T11:20:33.892Z</time></trkpt><trkpt lat="41.8257177" lon="1.7585674"><ele>285.3333333333333</ele><time>2026-04-25T11:20:34.893Z</time></trkpt><trkpt lat="41.8255964" lon="1.758743"><ele>287.6666666666667</ele><time>2026-04-25T11:20:35.892Z</time></trkpt><trkpt lat="41.8254726" lon="1.7589348"><ele>290.0</ele><time>2026-04-25T11:20:36.892Z</time></trkpt><trkpt lat="41.8253601" lon="1.7591438"><ele>290.6666666666667</ele><time>2026-04-25T11:20:37.893Z</time></trkpt><trkpt lat="41.8252681" lon="1.7593704"><ele>291.3333333333333</ele><time>2026-04-25T11:20:38.892Z</time></trkpt><trkpt lat="41.825188" lon="1.7596026"><ele>292.0</ele><time>2026-04-25T11:20:39.892Z</time></trkpt><trkpt lat="41.8251065" lon="1.7598301"><ele>291.3333333333333</ele><time>2026-04-25T11:20:40.891Z</time></trkpt><trkpt lat="41.8250067" lon="1.760046"><ele>290.6666666666667</ele><time>2026-04-25T11:20:41.893Z</time></trkpt><trkpt lat="41.824889" lon="1.7602467"><ele>290.0</ele><time>2026-04-25T11:20:42.892Z</time></trkpt><trkpt lat="41.8247647" lon="1.7604392"><ele>290.0</ele><time>2026-04-25T11:20:43.892Z</time></trkpt><trkpt lat="41.8246348" lon="1.7606194"><ele>290.0</ele><time>2026-04-25T11:20:44.893Z</time></trkpt><trkpt lat="41.8245055" lon="1.760786"><ele>290.0</ele><time>2026-04-25T11:20:45.892Z</time></trkpt><trkpt lat="41.8243744" lon="1.7609422"><ele>291.0</ele><time>2026-04-25T11:20:46.891Z</time></trkpt><trkpt lat="41.824224" lon="1.7610753"><ele>292.0</ele><time>2026-04-25T11:20:47.891Z</time></trkpt><trkpt lat="41.8240477" lon="1.7611783"><ele>293.0</ele><time>2026-04-25T11:20:48.893Z</time></trkpt><trkpt lat="41.8238562" lon="1.7612641"><ele>293.0</ele><time>2026-04-25T11:20:49.892Z</time></trkpt><trkpt lat="41.8236583" lon="1.7613522"><ele>293.0</ele><time>2026-04-25T11:20:50.891Z</time></trkpt><trkpt lat="41.8234569" lon="1.7614496"><ele>293.0</ele><time>2026-04-25T11:20:51.893Z</time></trkpt><trkpt lat="41.8232541" lon="1.7615449"><ele>290.33333333333337</ele><time>2026-04-25T11:20:52.891Z</time></trkpt><trkpt lat="41.8230552" lon="1.7616311"><ele>287.6666666666667</ele><time>2026-04-25T11:20:53.892Z</time></trkpt><trkpt lat="41.8228701" lon="1.7616952"><ele>285.0</ele><time>2026-04-25T11:20:54.893Z</time></trkpt><trkpt lat="41.8226883" lon="1.7617287"><ele>284.6666666666667</ele><time>2026-04-25T11:20:55.892Z</time></trkpt><trkpt lat="41.8224971" lon="1.7617184"><ele>284.33333333333337</ele><time>2026-04-25T11:20:56.892Z</time></trkpt><trkpt lat="41.8222962" lon="1.761677"><ele>284.0</ele><time>2026-04-25T11:20:57.891Z</time></trkpt><trkpt lat="41.8220929" lon="1.7616279"><ele>284.0</ele><time>2026-04-25T11:20:58.892Z</time></trkpt><trkpt lat="41.8218829" lon="1.76158"><ele>284.0</ele><time>2026-04-25T11:20:59.893Z</time></trkpt><trkpt lat="41.8216692" lon="1.7615331"><ele>284.0</ele><time>2026-04-25T11:21:00.892Z</time></trkpt><trkpt lat="41.8214567" lon="1.7614886"><ele>284.6666666666667</ele><time>2026-04-25T11:21:01.892Z</time></trkpt><trkpt lat="41.8212426" lon="1.761436"><ele>285.3333333333333</ele><time>2026-04-25T11:21:02.891Z</time></trkpt><trkpt lat="41.8210298" lon="1.7613805"><ele>286.0</ele><time>2026-04-25T11:21:03.891Z</time></trkpt><trkpt lat="41.8208152" lon="1.7613291"><ele>287.3333333333333</ele><time>2026-04-25T11:21:04.891Z</time></trkpt><trkpt lat="41.8205986" lon="1.7612833"><ele>288.6666666666667</ele><time>2026-04-25T11:21:05.892Z</time></trkpt><trkpt lat="41.8203819" lon="1.7612342"><ele>290.0</ele><time>2026-04-25T11:21:06.893Z</time></trkpt><trkpt lat="41.8201651" lon="1.7611874"><ele>292.33333333333337</ele><time>2026-04-25T11:21:07.891Z</time></trkpt><trkpt lat="41.8199465" lon="1.7611372"><ele>294.6666666666667</ele><time>2026-04-25T11:21:08.891Z</time></trkpt><trkpt lat="41.8197337" lon="1.7610857"><ele>297.0</ele><time>2026-04-25T11:21:09.893Z</time></trkpt><trkpt lat="41.8195263" lon="1.7610346"><ele>293.0</ele><time>2026-04-25T11:21:10.892Z</time></trkpt><trkpt lat="41.8193265" lon="1.7609874"><ele>289.0</ele><time>2026-04-25T11:21:11.893Z</time></trkpt><trkpt lat="41.819144" lon="1.7609463"><ele>285.0</ele><time>2026-04-25T11:21:12.893Z</time></trkpt><trkpt lat="41.8189804" lon="1.7609079"><ele>284.75</ele><time>2026-04-25T11:21:13.891Z</time></trkpt><trkpt lat="41.8188327" lon="1.7608742"><ele>284.5</ele><time>2026-04-25T11:21:14.893Z</time></trkpt><trkpt lat="41.8186972" lon="1.7608456"><ele>284.25</ele><time>2026-04-25T11:21:15.892Z</time></trkpt><trkpt lat="41.8185729" lon="1.7608163"><ele>284.0</ele><time>2026-04-25T11:21:16.892Z</time></trkpt><trkpt lat="41.8184576" lon="1.7607887"><ele>282.5</ele><time>2026-04-25T11:21:17.892Z</time></trkpt><trkpt lat="41.8183473" lon="1.7607641"><ele>281.0</ele><time>2026-04-25T11:21:18.892Z</time></trkpt><trkpt lat="41.8182353" lon="1.7607427"><ele>279.5</ele><time>2026-04-25T11:21:19.893Z</time></trkpt><trkpt lat="41.8181175" lon="1.7607401"><ele>278.0</ele><time>2026-04-25T11:21:20.892Z</time></trkpt><trkpt lat="41.8179937" lon="1.7607567"><ele>278.0</ele><time>2026-04-25T11:21:21.892Z</time></trkpt><trkpt lat="41.8178694" lon="1.7608004"><ele>278.0</ele><time>2026-04-25T11:21:22.893Z</time></trkpt><trkpt lat="41.8177457" lon="1.7608721"><ele>278.0</ele><time>2026-04-25T11:21:23.891Z</time></trkpt><trkpt lat="41.8176207" lon="1.7609577"><ele>278.0</ele><time>2026-04-25T11:21:24.892Z</time></trkpt><trkpt lat="41.8174912" lon="1.7610466"><ele>278.0</ele><time>2026-04-25T11:21:25.892Z</time></trkpt><trkpt lat="41.8173605" lon="1.7611379"><ele>278.0</ele><time>2026-04-25T11:21:26.892Z</time></trkpt><trkpt lat="41.8172266" lon="1.7612325"><ele>278.0</ele><time>2026-04-25T11:21:27.892Z</time></trkpt><trkpt lat="41.8170856" lon="1.7613236"><ele>278.0</ele><time>2026-04-25T11:21:28.892Z</time></trkpt><trkpt lat="41.816941" lon="1.7614179"><ele>278.0</ele><time>2026-04-25T11:21:29.892Z</time></trkpt><trkpt lat="41.8167962" lon="1.7615168"><ele>278.0</ele><time>2026-04-25T11:21:30.892Z</time></trkpt><trkpt lat="41.8166518" lon="1.7616111"><ele>279.0</ele><time>2026-04-25T11:21:31.893Z</time></trkpt><trkpt lat="41.8165084" lon="1.7617067"><ele>280.0</ele><time>2026-04-25T11:21:32.892Z</time></trkpt><trkpt lat="41.8163638" lon="1.7618043"><ele>281.0</ele><time>2026-04-25T11:21:33.892Z</time></trkpt><trkpt lat="41.8162149" lon="1.7619026"><ele>281.0</ele><time>2026-04-25T11:21:34.893Z</time></trkpt><trkpt lat="41.816067" lon="1.7620076"><ele>281.0</ele><time>2026-04-25T11:21:35.891Z</time></trkpt><trkpt lat="41.8159186" lon="1.7621147"><ele>281.0</ele><time>2026-04-25T11:21:36.893Z</time></trkpt><trkpt lat="41.8157687" lon="1.7622184"><ele>279.0</ele><time>2026-04-25T11:21:37.892Z</time></trkpt><trkpt lat="41.8156165" lon="1.7623192"><ele>277.0</ele><time>2026-04-25T11:21:38.891Z</time></trkpt><trkpt lat="41.8154619" lon="1.7624204"><ele>275.0</ele><time>2026-04-25T11:21:39.891Z</time></trkpt><trkpt lat="41.815306" lon="1.7625257"><ele>273.33333333333337</ele><time>2026-04-25T11:21:40.893Z</time></trkpt><trkpt lat="41.8151494" lon="1.7626305"><ele>271.6666666666667</ele><time>2026-04-25T11:21:41.893Z</time></trkpt><trkpt lat="41.814991" lon="1.7627384"><ele>270.0</ele><time>2026-04-25T11:21:42.892Z</time></trkpt><trkpt lat="41.8148298" lon="1.7628422"><ele>275.6666666666667</ele><time>2026-04-25T11:21:43.891Z</time></trkpt><trkpt lat="41.8146633" lon="1.7629327"><ele>281.33333333333337</ele><time>2026-04-25T11:21:44.893Z</time></trkpt><trkpt lat="41.814491" lon="1.7630026"><ele>287.0</ele><time>2026-04-25T11:21:45.892Z</time></trkpt><trkpt lat="41.8143148" lon="1.7630464"><ele>287.0</ele><time>2026-04-25T11:21:46.892Z</time></trkpt><trkpt lat="41.8141366" lon="1.7630734"><ele>287.0</ele><time>2026-04-25T11:21:47.893Z</time></trkpt><trkpt lat="41.8139604" lon="1.7630809"><ele>287.0</ele><time>2026-04-25T11:21:48.892Z</time></trkpt><trkpt lat="41.8137868" lon="1.7630689"><ele>287.0</ele><time>2026-04-25T11:21:49.892Z</time></trkpt><trkpt lat="41.8136187" lon="1.7630331"><ele>287.0</ele><time>2026-04-25T11:21:50.892Z</time></trkpt><trkpt lat="41.8134568" lon="1.7629634"><ele>287.0</ele><time>2026-04-25T11:21:51.893Z</time></trkpt><trkpt lat="41.8132994" lon="1.7628667"><ele>290.6666666666667</ele><time>2026-04-25T11:21:52.892Z</time></trkpt><trkpt lat="41.8131439" lon="1.7627503"><ele>294.3333333333333</ele><time>2026-04-25T11:21:53.893Z</time></trkpt><trkpt lat="41.8129928" lon="1.7626146"><ele>298.0</ele><time>2026-04-25T11:21:54.891Z</time></trkpt><trkpt lat="41.8128438" lon="1.7624614"><ele>296.0</ele><time>2026-04-25T11:21:55.893Z</time></trkpt><trkpt lat="41.812701" lon="1.7622922"><ele>294.0</ele><time>2026-04-25T11:21:56.892Z</time></trkpt><trkpt lat="41.8125634" lon="1.762113"><ele>292.0</ele><time>2026-04-25T11:21:57.892Z</time></trkpt><trkpt lat="41.8124316" lon="1.7619217"><ele>285.0</ele><time>2026-04-25T11:21:58.892Z</time></trkpt><trkpt lat="41.8123079" lon="1.7617203"><ele>278.0</ele><time>2026-04-25T11:21:59.892Z</time></trkpt><trkpt lat="41.812187" lon="1.7615134"><ele>271.0</ele><time>2026-04-25T11:22:00.892Z</time></trkpt><trkpt lat="41.8120585" lon="1.7613284"><ele>271.0</ele><time>2026-04-25T11:22:01.892Z</time></trkpt><trkpt lat="41.8119212" lon="1.761166"><ele>271.0</ele><time>2026-04-25T11:22:02.892Z</time></trkpt><trkpt lat="41.8117732" lon="1.7610213"><ele>271.0</ele><time>2026-04-25T11:22:03.892Z</time></trkpt><trkpt lat="41.8116183" lon="1.7608929"><ele>269.3333333333333</ele><time>2026-04-25T11:22:04.892Z</time></trkpt><trkpt lat="41.8114663" lon="1.7607885"><ele>267.6666666666667</ele><time>2026-04-25T11:22:05.891Z</time></trkpt><trkpt lat="41.8113164" lon="1.7607005"><ele>266.0</ele><time>2026-04-25T11:22:06.893Z</time></trkpt><trkpt lat="41.8111548" lon="1.7606351"><ele>266.0</ele><time>2026-04-25T11:22:07.892Z</time></trkpt><trkpt lat="41.8110023" lon="1.7605761"><ele>266.0</ele><time>2026-04-25T11:22:08.892Z</time></trkpt><trkpt lat="41.8108091" lon="1.7606035"><ele>266.0</ele><time>2026-04-25T11:22:09.892Z</time></trkpt><trkpt lat="41.8106314" lon="1.7606333"><ele>266.0</ele><time>2026-04-25T11:22:10.892Z</time></trkpt><trkpt lat="41.8104506" lon="1.7606988"><ele>266.0</ele><time>2026-04-25T11:22:11.893Z</time></trkpt><trkpt lat="41.8102674" lon="1.7607929"><ele>266.0</ele><time>2026-04-25T11:22:12.892Z</time></trkpt><trkpt lat="41.8100766" lon="1.7608903"><ele>266.0</ele><time>2026-04-25T11:22:13.892Z</time></trkpt><trkpt lat="41.809881" lon="1.7609818"><ele>266.0</ele><time>2026-04-25T11:22:14.892Z</time></trkpt><trkpt lat="41.8096795" lon="1.7610612"><ele>266.0</ele><time>2026-04-25T11:22:15.892Z</time></trkpt><trkpt lat="41.8094664" lon="1.7611308"><ele>273.0</ele><time>2026-04-25T11:22:16.893Z</time></trkpt><trkpt lat="41.8092416" lon="1.7611908"><ele>280.0</ele><time>2026-04-25T11:22:17.892Z</time></trkpt><trkpt lat="41.8090116" lon="1.7612461"><ele>280.0</ele><time>2026-04-25T11:22:18.891Z</time></trkpt><trkpt lat="41.8087731" lon="1.7613016"><ele>280.0</ele><time>2026-04-25T11:22:19.892Z</time></trkpt><trkpt lat="41.8085351" lon="1.7613637"><ele>278.0</ele><time>2026-04-25T11:22:20.892Z</time></trkpt><trkpt lat="41.808304" lon="1.7614394"><ele>276.0</ele><time>2026-04-25T11:22:21.891Z</time></trkpt><trkpt lat="41.808085" lon="1.7615215"><ele>276.0</ele><time>2026-04-25T11:22:22.891Z</time></trkpt><trkpt lat="41.8078707" lon="1.7616108"><ele>276.0</ele><time>2026-04-25T11:22:23.893Z</time></trkpt><trkpt lat="41.8076644" lon="1.761703"><ele>276.0</ele><time>2026-04-25T11:22:24.892Z</time></trkpt><trkpt lat="41.8074623" lon="1.7617965"><ele>279.6666666666667</ele><time>2026-04-25T11:22:25.893Z</time></trkpt><trkpt lat="41.8072633" lon="1.7618833"><ele>283.33333333333337</ele><time>2026-04-25T11:22:26.891Z</time></trkpt><trkpt lat="41.8070689" lon="1.7619716"><ele>287.0</ele><time>2026-04-25T11:22:27.892Z</time></trkpt><trkpt lat="41.8068814" lon="1.7620568"><ele>284.33333333333337</ele><time>2026-04-25T11:22:28.893Z</time></trkpt><trkpt lat="41.8067019" lon="1.7621408"><ele>281.6666666666667</ele><time>2026-04-25T11:22:29.893Z</time></trkpt><trkpt lat="41.8065209" lon="1.7622226"><ele>279.0</ele><time>2026-04-25T11:22:30.892Z</time></trkpt><trkpt lat="41.8063429" lon="1.7623036"><ele>279.0</ele><time>2026-04-25T11:22:31.893Z</time></trkpt><trkpt lat="41.8061661" lon="1.7623843"><ele>279.0</ele><time>2026-04-25T11:22:32.892Z</time></trkpt><trkpt lat="41.8059917" lon="1.7624621"><ele>279.0</ele><time>2026-04-25T11:22:33.892Z</time></trkpt><trkpt lat="41.8058278" lon="1.7625386"><ele>276.3333333333333</ele><time>2026-04-25T11:22:34.892Z</time></trkpt><trkpt lat="41.8056739" lon="1.7626123"><ele>273.66666666666663</ele><time>2026-04-25T11:22:35.892Z</time></trkpt><trkpt lat="41.8055223" lon="1.7626958"><ele>271.0</ele><time>2026-04-25T11:22:36.892Z</time></trkpt><trkpt lat="41.8053747" lon="1.7627983"><ele>271.66666666666663</ele><time>2026-04-25T11:22:37.893Z</time></trkpt><trkpt lat="41.8052347" lon="1.7629199"><ele>272.3333333333333</ele><time>2026-04-25T11:22:38.892Z</time></trkpt><trkpt lat="41.8051041" lon="1.7630586"><ele>273.0</ele><time>2026-04-25T11:22:39.892Z</time></trkpt><trkpt lat="41.804973" lon="1.7632087"><ele>273.0</ele><time>2026-04-25T11:22:40.892Z</time></trkpt><trkpt lat="41.8048415" lon="1.7633664"><ele>273.0</ele><time>2026-04-25T11:22:41.891Z</time></trkpt><trkpt lat="41.804709" lon="1.7635323"><ele>273.0</ele><time>2026-04-25T11:22:42.892Z</time></trkpt><trkpt lat="41.8045765" lon="1.7637051"><ele>271.6666666666667</ele><time>2026-04-25T11:22:43.893Z</time></trkpt><trkpt lat="41.8044436" lon="1.763886"><ele>270.33333333333337</ele><time>2026-04-25T11:22:44.892Z</time></trkpt><trkpt lat="41.8043073" lon="1.7640697"><ele>269.0</ele><time>2026-04-25T11:22:45.891Z</time></trkpt><trkpt lat="41.8041694" lon="1.7642578"><ele>271.0</ele><time>2026-04-25T11:22:46.892Z</time></trkpt><trkpt lat="41.8040272" lon="1.7644481"><ele>273.0</ele><time>2026-04-25T11:22:47.893Z</time></trkpt><trkpt lat="41.8038818" lon="1.7646382"><ele>275.0</ele><time>2026-04-25T11:22:48.893Z</time></trkpt><trkpt lat="41.803736" lon="1.7648284"><ele>275.0</ele><time>2026-04-25T11:22:49.892Z</time></trkpt><trkpt lat="41.8035935" lon="1.7650163"><ele>275.0</ele><time>2026-04-25T11:22:50.892Z</time></trkpt><trkpt lat="41.8034515" lon="1.7652009"><ele>275.0</ele><time>2026-04-25T11:22:51.893Z</time></trkpt><trkpt lat="41.8033085" lon="1.765378"><ele>276.6666666666667</ele><time>2026-04-25T11:22:52.892Z</time></trkpt><trkpt lat="41.8031632" lon="1.7655434"><ele>278.3333333333333</ele><time>2026-04-25T11:22:53.892Z</time></trkpt><trkpt lat="41.8030132" lon="1.7656978"><ele>280.0</ele><time>2026-04-25T11:22:54.893Z</time></trkpt><trkpt lat="41.8028552" lon="1.7658394"><ele>280.0</ele><time>2026-04-25T11:22:55.893Z</time></trkpt><trkpt lat="41.8026935" lon="1.7659692"><ele>280.0</ele><time>2026-04-25T11:22:56.892Z</time></trkpt><trkpt lat="41.8025279" lon="1.7660906"><ele>280.0</ele><time>2026-04-25T11:22:57.893Z</time></trkpt><trkpt lat="41.8023624" lon="1.7662095"><ele>280.66666666666663</ele><time>2026-04-25T11:22:58.892Z</time></trkpt><trkpt lat="41.8021948" lon="1.7663295"><ele>281.3333333333333</ele><time>2026-04-25T11:22:59.891Z</time></trkpt><trkpt lat="41.8020327" lon="1.7664564"><ele>282.0</ele><time>2026-04-25T11:23:00.893Z</time></trkpt><trkpt lat="41.8018748" lon="1.7665921"><ele>281.6666666666667</ele><time>2026-04-25T11:23:01.892Z</time></trkpt><trkpt lat="41.8017239" lon="1.766736"><ele>281.33333333333337</ele><time>2026-04-25T11:23:02.892Z</time></trkpt><trkpt lat="41.8015804" lon="1.766891"><ele>281.0</ele><time>2026-04-25T11:23:03.891Z</time></trkpt><trkpt lat="41.8014453" lon="1.7670558"><ele>281.0</ele><time>2026-04-25T11:23:04.892Z</time></trkpt><trkpt lat="41.8013151" lon="1.7672287"><ele>281.0</ele><time>2026-04-25T11:23:05.892Z</time></trkpt><trkpt lat="41.8011876" lon="1.7674112"><ele>281.0</ele><time>2026-04-25T11:23:06.893Z</time></trkpt><trkpt lat="41.8010624" lon="1.767599"><ele>281.0</ele><time>2026-04-25T11:23:07.892Z</time></trkpt><trkpt lat="41.8009384" lon="1.7677917"><ele>281.0</ele><time>2026-04-25T11:23:08.892Z</time></trkpt><trkpt lat="41.8008136" lon="1.7679855"><ele>281.0</ele><time>2026-04-25T11:23:09.892Z</time></trkpt><trkpt lat="41.800688" lon="1.7681804"><ele>281.0</ele><time>2026-04-25T11:23:10.892Z</time></trkpt><trkpt lat="41.8005613" lon="1.7683803"><ele>281.0</ele><time>2026-04-25T11:23:11.892Z</time></trkpt><trkpt lat="41.8004356" lon="1.768579"><ele>281.0</ele><time>2026-04-25T11:23:12.892Z</time></trkpt><trkpt lat="41.8003157" lon="1.7687673"><ele>281.0</ele><time>2026-04-25T11:23:13.893Z</time></trkpt><trkpt lat="41.8002005" lon="1.7689509"><ele>281.0</ele><time>2026-04-25T11:23:14.893Z</time></trkpt><trkpt lat="41.8000885" lon="1.7691252"><ele>281.0</ele><time>2026-04-25T11:23:15.892Z</time></trkpt><trkpt lat="41.7999757" lon="1.7692923"><ele>281.0</ele><time>2026-04-25T11:23:16.892Z</time></trkpt><trkpt lat="41.799869" lon="1.7694589"><ele>281.0</ele><time>2026-04-25T11:23:17.893Z</time></trkpt><trkpt lat="41.799764" lon="1.7696242"><ele>281.0</ele><time>2026-04-25T11:23:18.891Z</time></trkpt><trkpt lat="41.7996608" lon="1.7697869"><ele>281.0</ele><time>2026-04-25T11:23:19.892Z</time></trkpt><trkpt lat="41.7995589" lon="1.7699462"><ele>281.0</ele><time>2026-04-25T11:23:20.893Z</time></trkpt><trkpt lat="41.7994605" lon="1.7701014"><ele>281.0</ele><time>2026-04-25T11:23:21.892Z</time></trkpt><trkpt lat="41.7993637" lon="1.7702566"><ele>280.0</ele><time>2026-04-25T11:23:22.891Z</time></trkpt><trkpt lat="41.7992722" lon="1.7704146"><ele>279.0</ele><time>2026-04-25T11:23:23.893Z</time></trkpt><trkpt lat="41.7991822" lon="1.7705767"><ele>278.0</ele><time>2026-04-25T11:23:24.892Z</time></trkpt><trkpt lat="41.7990906" lon="1.770752"><ele>278.0</ele><time>2026-04-25T11:23:25.893Z</time></trkpt><trkpt lat="41.7990018" lon="1.7709361"><ele>278.0</ele><time>2026-04-25T11:23:26.891Z</time></trkpt><trkpt lat="41.7989171" lon="1.7711317"><ele>278.0</ele><time>2026-04-25T11:23:27.892Z</time></trkpt><trkpt lat="41.7988366" lon="1.7713335"><ele>277.0</ele><time>2026-04-25T11:23:28.892Z</time></trkpt><trkpt lat="41.7987691" lon="1.771553"><ele>276.0</ele><time>2026-04-25T11:23:29.892Z</time></trkpt><trkpt lat="41.7987127" lon="1.7717867"><ele>275.0</ele><time>2026-04-25T11:23:30.893Z</time></trkpt><trkpt lat="41.7986615" lon="1.7720297"><ele>274.6666666666667</ele><time>2026-04-25T11:23:31.892Z</time></trkpt><trkpt lat="41.7986114" lon="1.772287"><ele>274.3333333333333</ele><time>2026-04-25T11:23:32.893Z</time></trkpt><trkpt lat="41.7985624" lon="1.7725528"><ele>274.0</ele><time>2026-04-25T11:23:33.892Z</time></trkpt><trkpt lat="41.7985121" lon="1.7728253"><ele>273.3333333333333</ele><time>2026-04-25T11:23:34.893Z</time></trkpt><trkpt lat="41.7984591" lon="1.7730988"><ele>272.6666666666667</ele><time>2026-04-25T11:23:35.892Z</time></trkpt><trkpt lat="41.7984066" lon="1.773372"><ele>272.0</ele><time>2026-04-25T11:23:36.893Z</time></trkpt><trkpt lat="41.7983516" lon="1.7736356"><ele>271.33333333333337</ele><time>2026-04-25T11:23:37.893Z</time></trkpt><trkpt lat="41.7982955" lon="1.7738907"><ele>270.6666666666667</ele><time>2026-04-25T11:23:38.892Z</time></trkpt><trkpt lat="41.7982431" lon="1.7741407"><ele>270.0</ele><time>2026-04-25T11:23:39.893Z</time></trkpt><trkpt lat="41.7981809" lon="1.7743774"><ele>269.0</ele><time>2026-04-25T11:23:40.891Z</time></trkpt><trkpt lat="41.7981003" lon="1.7746061"><ele>268.0</ele><time>2026-04-25T11:23:41.892Z</time></trkpt><trkpt lat="41.7979989" lon="1.7748225"><ele>267.0</ele><time>2026-04-25T11:23:42.891Z</time></trkpt><trkpt lat="41.7978774" lon="1.7750284"><ele>266.3333333333333</ele><time>2026-04-25T11:23:43.891Z</time></trkpt><trkpt lat="41.7977356" lon="1.7752152"><ele>265.66666666666663</ele><time>2026-04-25T11:23:44.892Z</time></trkpt><trkpt lat="41.7975826" lon="1.7753901"><ele>265.0</ele><time>2026-04-25T11:23:45.891Z</time></trkpt><trkpt lat="41.7974307" lon="1.775563"><ele>265.0</ele><time>2026-04-25T11:23:46.892Z</time></trkpt><trkpt lat="41.797281" lon="1.7757305"><ele>265.0</ele><time>2026-04-25T11:23:47.892Z</time></trkpt><trkpt lat="41.7971318" lon="1.7758975"><ele>265.0</ele><time>2026-04-25T11:23:48.893Z</time></trkpt><trkpt lat="41.7969846" lon="1.7760617"><ele>265.0</ele><time>2026-04-25T11:23:49.892Z</time></trkpt><trkpt lat="41.7968362" lon="1.7762279"><ele>265.0</ele><time>2026-04-25T11:23:50.893Z</time></trkpt><trkpt lat="41.7966823" lon="1.7763976"><ele>265.0</ele><time>2026-04-25T11:23:51.892Z</time></trkpt><trkpt lat="41.7965259" lon="1.7765675"><ele>265.0</ele><time>2026-04-25T11:23:52.893Z</time></trkpt><trkpt lat="41.7963682" lon="1.7767428"><ele>265.0</ele><time>2026-04-25T11:23:53.893Z</time></trkpt><trkpt lat="41.7962074" lon="1.7769155"><ele>265.0</ele><time>2026-04-25T11:23:54.892Z</time></trkpt><trkpt lat="41.7960403" lon="1.7770811"><ele>265.3333333333333</ele><time>2026-04-25T11:23:55.892Z</time></trkpt><trkpt lat="41.795858" lon="1.7772316"><ele>265.6666666666667</ele><time>2026-04-25T11:23:56.893Z</time></trkpt><trkpt lat="41.7956665" lon="1.7773658"><ele>266.0</ele><time>2026-04-25T11:23:57.892Z</time></trkpt><trkpt lat="41.7954645" lon="1.77748"><ele>266.0</ele><time>2026-04-25T11:23:58.892Z</time></trkpt><trkpt lat="41.7952493" lon="1.7775666"><ele>266.0</ele><time>2026-04-25T11:23:59.893Z</time></trkpt><trkpt lat="41.7950288" lon="1.7776268"><ele>262.6666666666667</ele><time>2026-04-25T11:24:00.892Z</time></trkpt><trkpt lat="41.7948077" lon="1.77766"><ele>259.3333333333333</ele><time>2026-04-25T11:24:01.892Z</time></trkpt><trkpt lat="41.7945881" lon="1.777678"><ele>256.0</ele><time>2026-04-25T11:24:02.893Z</time></trkpt><trkpt lat="41.7943673" lon="1.7776883"><ele>265.0</ele><time>2026-04-25T11:24:03.893Z</time></trkpt><trkpt lat="41.7941489" lon="1.777696"><ele>274.0</ele><time>2026-04-25T11:24:04.893Z</time></trkpt><trkpt lat="41.7939357" lon="1.7777134"><ele>283.0</ele><time>2026-04-25T11:24:05.893Z</time></trkpt><trkpt lat="41.7937268" lon="1.7777452"><ele>283.0</ele><time>2026-04-25T11:24:06.892Z</time></trkpt><trkpt lat="41.7935259" lon="1.7777989"><ele>283.0</ele><time>2026-04-25T11:24:07.893Z</time></trkpt><trkpt lat="41.7933337" lon="1.7778741"><ele>283.0</ele><time>2026-04-25T11:24:08.892Z</time></trkpt><trkpt lat="41.7931475" lon="1.7779655"><ele>278.0</ele><time>2026-04-25T11:24:09.893Z</time></trkpt><trkpt lat="41.7929625" lon="1.7780569"><ele>273.0</ele><time>2026-04-25T11:24:10.892Z</time></trkpt><trkpt lat="41.7927814" lon="1.7781537"><ele>268.0</ele><time>2026-04-25T11:24:11.892Z</time></trkpt><trkpt lat="41.7925975" lon="1.7782496"><ele>266.3333333333333</ele><time>2026-04-25T11:24:12.891Z</time></trkpt><trkpt lat="41.7924169" lon="1.7783471"><ele>264.6666666666667</ele><time>2026-04-25T11:24:13.892Z</time></trkpt><trkpt lat="41.7922373" lon="1.7784537"><ele>263.0</ele><time>2026-04-25T11:24:14.892Z</time></trkpt><trkpt lat="41.7920577" lon="1.7785796"><ele>263.0</ele><time>2026-04-25T11:24:15.893Z</time></trkpt><trkpt lat="41.7918834" lon="1.7787258"><ele>263.0</ele><time>2026-04-25T11:24:16.891Z</time></trkpt><trkpt lat="41.7917168" lon="1.7788973"><ele>263.0</ele><time>2026-04-25T11:24:17.892Z</time></trkpt><trkpt lat="41.7915623" lon="1.7790927"><ele>261.33333333333337</ele><time>2026-04-25T11:24:18.892Z</time></trkpt><trkpt lat="41.7914246" lon="1.7793095"><ele>259.6666666666667</ele><time>2026-04-25T11:24:19.892Z</time></trkpt><trkpt lat="41.7913019" lon="1.7795433"><ele>258.0</ele><time>2026-04-25T11:24:20.892Z</time></trkpt><trkpt lat="41.7911898" lon="1.7797988"><ele>263.5</ele><time>2026-04-25T11:24:21.893Z</time></trkpt><trkpt lat="41.7910908" lon="1.780069"><ele>269.0</ele><time>2026-04-25T11:24:22.892Z</time></trkpt><trkpt lat="41.7910038" lon="1.7803512"><ele>269.0</ele><time>2026-04-25T11:24:23.893Z</time></trkpt><trkpt lat="41.7909247" lon="1.7806411"><ele>269.0</ele><time>2026-04-25T11:24:24.892Z</time></trkpt><trkpt lat="41.7908475" lon="1.7809349"><ele>273.0</ele><time>2026-04-25T11:24:25.891Z</time></trkpt><trkpt lat="41.7907702" lon="1.7812312"><ele>277.0</ele><time>2026-04-25T11:24:26.892Z</time></trkpt><trkpt lat="41.7906941" lon="1.7815239"><ele>277.0</ele><time>2026-04-25T11:24:27.891Z</time></trkpt><trkpt lat="41.7906147" lon="1.7818055"><ele>277.0</ele><time>2026-04-25T11:24:28.892Z</time></trkpt><trkpt lat="41.7905255" lon="1.7820705"><ele>277.0</ele><time>2026-04-25T11:24:29.892Z</time></trkpt><trkpt lat="41.7904192" lon="1.7823128"><ele>279.3333333333333</ele><time>2026-04-25T11:24:30.891Z</time></trkpt><trkpt lat="41.790298" lon="1.7825381"><ele>281.6666666666667</ele><time>2026-04-25T11:24:31.891Z</time></trkpt><trkpt lat="41.7901671" lon="1.7827557"><ele>284.0</ele><time>2026-04-25T11:24:32.892Z</time></trkpt><trkpt lat="41.7900167" lon="1.7829641"><ele>284.0</ele><time>2026-04-25T11:24:33.892Z</time></trkpt><trkpt lat="41.7898495" lon="1.7831645"><ele>284.0</ele><time>2026-04-25T11:24:34.892Z</time></trkpt><trkpt lat="41.7896681" lon="1.7833627"><ele>282.5</ele><time>2026-04-25T11:24:35.892Z</time></trkpt><trkpt lat="41.7894745" lon="1.7835643"><ele>281.0</ele><time>2026-04-25T11:24:36.892Z</time></trkpt><trkpt lat="41.7892697" lon="1.7837809"><ele>281.0</ele><time>2026-04-25T11:24:37.893Z</time></trkpt><trkpt lat="41.7890553" lon="1.7840112"><ele>281.0</ele><time>2026-04-25T11:24:38.892Z</time></trkpt><trkpt lat="41.7888313" lon="1.7842492"><ele>281.5</ele><time>2026-04-25T11:24:39.893Z</time></trkpt><trkpt lat="41.788601" lon="1.7844933"><ele>282.0</ele><time>2026-04-25T11:24:40.892Z</time></trkpt><trkpt lat="41.7883674" lon="1.7847391"><ele>284.0</ele><time>2026-04-25T11:24:41.893Z</time></trkpt><trkpt lat="41.788131" lon="1.7849882"><ele>286.0</ele><time>2026-04-25T11:24:42.892Z</time></trkpt><trkpt lat="41.7878971" lon="1.7852428"><ele>286.5</ele><time>2026-04-25T11:24:43.892Z</time></trkpt><trkpt lat="41.7876585" lon="1.7854915"><ele>287.0</ele><time>2026-04-25T11:24:44.893Z</time></trkpt><trkpt lat="41.7874225" lon="1.7857363"><ele>287.0</ele><time>2026-04-25T11:24:45.892Z</time></trkpt><trkpt lat="41.787194" lon="1.7859746"><ele>287.0</ele><time>2026-04-25T11:24:46.893Z</time></trkpt><trkpt lat="41.7869785" lon="1.7862072"><ele>288.5</ele><time>2026-04-25T11:24:47.892Z</time></trkpt><trkpt lat="41.7867713" lon="1.7864288"><ele>290.0</ele><time>2026-04-25T11:24:48.893Z</time></trkpt><trkpt lat="41.786568" lon="1.7866465"><ele>290.5</ele><time>2026-04-25T11:24:49.892Z</time></trkpt><trkpt lat="41.7863648" lon="1.7868646"><ele>291.0</ele><time>2026-04-25T11:24:50.892Z</time></trkpt><trkpt lat="41.7861597" lon="1.7870789"><ele>292.0</ele><time>2026-04-25T11:24:51.89Z</time></trkpt><trkpt lat="41.7859544" lon="1.7872953"><ele>293.0</ele><time>2026-04-25T11:24:52.892Z</time></trkpt><trkpt lat="41.7857469" lon="1.787513"><ele>295.0</ele><time>2026-04-25T11:24:53.891Z</time></trkpt><trkpt lat="41.7855339" lon="1.7877349"><ele>297.0</ele><time>2026-04-25T11:24:54.891Z</time></trkpt><trkpt lat="41.7853182" lon="1.7879616"><ele>297.0</ele><time>2026-04-25T11:24:55.891Z</time></trkpt><trkpt lat="41.7851008" lon="1.7881912"><ele>297.0</ele><time>2026-04-25T11:24:56.891Z</time></trkpt><trkpt lat="41.784886" lon="1.7884195"><ele>298.0</ele><time>2026-04-25T11:24:57.891Z</time></trkpt><trkpt lat="41.7846695" lon="1.7886483"><ele>299.0</ele><time>2026-04-25T11:24:58.891Z</time></trkpt><trkpt lat="41.7844544" lon="1.7888739"><ele>296.5</ele><time>2026-04-25T11:24:59.891Z</time></trkpt><trkpt lat="41.7842435" lon="1.7890993"><ele>294.0</ele><time>2026-04-25T11:25:00.891Z</time></trkpt><trkpt lat="41.7840339" lon="1.7893252"><ele>294.0</ele><time>2026-04-25T11:25:01.891Z</time></trkpt><trkpt lat="41.7838252" lon="1.7895515"><ele>294.0</ele><time>2026-04-25T11:25:02.89Z</time></trkpt><trkpt lat="41.7836143" lon="1.7897738"><ele>290.0</ele><time>2026-04-25T11:25:03.892Z</time></trkpt><trkpt lat="41.7834022" lon="1.7899953"><ele>286.0</ele><time>2026-04-25T11:25:04.89Z</time></trkpt><trkpt lat="41.783193" lon="1.7902198"><ele>286.0</ele><time>2026-04-25T11:25:05.891Z</time></trkpt><trkpt lat="41.7829823" lon="1.7904437"><ele>286.0</ele><time>2026-04-25T11:25:06.891Z</time></trkpt><trkpt lat="41.7827709" lon="1.7906671"><ele>286.0</ele><time>2026-04-25T11:25:07.891Z</time></trkpt><trkpt lat="41.7825652" lon="1.7908855"><ele>286.0</ele><time>2026-04-25T11:25:08.89Z</time></trkpt><trkpt lat="41.7823599" lon="1.7911017"><ele>286.0</ele><time>2026-04-25T11:25:09.892Z</time></trkpt><trkpt lat="41.7821572" lon="1.7913167"><ele>286.0</ele><time>2026-04-25T11:25:10.891Z</time></trkpt><trkpt lat="41.7819611" lon="1.7915258"><ele>284.0</ele><time>2026-04-25T11:25:11.892Z</time></trkpt><trkpt lat="41.7817734" lon="1.7917221"><ele>282.0</ele><time>2026-04-25T11:25:12.891Z</time></trkpt><trkpt lat="41.7815864" lon="1.791904"><ele>282.0</ele><time>2026-04-25T11:25:13.891Z</time></trkpt><trkpt lat="41.781391" lon="1.792065"><ele>282.0</ele><time>2026-04-25T11:25:14.891Z</time></trkpt><trkpt lat="41.7811832" lon="1.7921978"><ele>278.0</ele><time>2026-04-25T11:25:15.892Z</time></trkpt><trkpt lat="41.7809666" lon="1.7923"><ele>274.0</ele><time>2026-04-25T11:25:16.891Z</time></trkpt><trkpt lat="41.7807444" lon="1.7923769"><ele>274.0</ele><time>2026-04-25T11:25:17.891Z</time></trkpt><trkpt lat="41.7805169" lon="1.7924299"><ele>274.0</ele><time>2026-04-25T11:25:18.891Z</time></trkpt><trkpt lat="41.7802852" lon="1.7924483"><ele>269.0</ele><time>2026-04-25T11:25:19.892Z</time></trkpt><trkpt lat="41.7800504" lon="1.7924312"><ele>264.0</ele><time>2026-04-25T11:25:20.89Z</time></trkpt><trkpt lat="41.7798164" lon="1.7923783"><ele>264.0</ele><time>2026-04-25T11:25:21.89Z</time></trkpt><trkpt lat="41.7795869" lon="1.79229"><ele>264.0</ele><time>2026-04-25T11:25:22.892Z</time></trkpt><trkpt lat="41.7793634" lon="1.7921676"><ele>263.5</ele><time>2026-04-25T11:25:23.89Z</time></trkpt><trkpt lat="41.779152" lon="1.7920139"><ele>263.0</ele><time>2026-04-25T11:25:24.892Z</time></trkpt><trkpt lat="41.7789646" lon="1.7918427"><ele>262.6666666666667</ele><time>2026-04-25T11:25:25.89Z</time></trkpt><trkpt lat="41.7788012" lon="1.7916632"><ele>262.3333333333333</ele><time>2026-04-25T11:25:26.891Z</time></trkpt><trkpt lat="41.7786651" lon="1.7914809"><ele>262.0</ele><time>2026-04-25T11:25:27.891Z</time></trkpt><trkpt lat="41.778551" lon="1.7912987"><ele>263.25</ele><time>2026-04-25T11:25:28.891Z</time></trkpt><trkpt lat="41.7784562" lon="1.791124"><ele>264.5</ele><time>2026-04-25T11:25:29.892Z</time></trkpt><trkpt lat="41.7783746" lon="1.7909653"><ele>265.75</ele><time>2026-04-25T11:25:30.891Z</time></trkpt><trkpt lat="41.7783069" lon="1.7908288"><ele>267.0</ele><time>2026-04-25T11:25:31.892Z</time></trkpt><trkpt lat="41.7782518" lon="1.7907075"><ele>267.0</ele><time>2026-04-25T11:25:32.891Z</time></trkpt><trkpt lat="41.7782053" lon="1.7906158"><ele>267.0</ele><time>2026-04-25T11:25:33.892Z</time></trkpt><trkpt lat="41.7781526" lon="1.7905195"><ele>267.0</ele><time>2026-04-25T11:25:35.891Z</time></trkpt><trkpt lat="41.7780895" lon="1.790458"><ele>267.0</ele><time>2026-04-25T11:25:38.892Z</time></trkpt><trkpt lat="41.7779776" lon="1.7904803"><ele>267.0</ele><time>2026-04-25T11:25:40.891Z</time></trkpt><trkpt lat="41.7779268" lon="1.7905476"><ele>267.0</ele><time>2026-04-25T11:25:41.891Z</time></trkpt><trkpt lat="41.7778922" lon="1.7906477"><ele>267.0</ele><time>2026-04-25T11:25:42.891Z</time></trkpt><trkpt lat="41.7778778" lon="1.7907745"><ele>267.0</ele><time>2026-04-25T11:25:43.891Z</time></trkpt><trkpt lat="41.7778831" lon="1.7909341"><ele>267.0</ele><time>2026-04-25T11:25:44.891Z</time></trkpt><trkpt lat="41.7779051" lon="1.7911148"><ele>267.0</ele><time>2026-04-25T11:25:45.892Z</time></trkpt><trkpt lat="41.7779273" lon="1.7913037"><ele>268.0</ele><time>2026-04-25T11:25:46.891Z</time></trkpt><trkpt lat="41.7779468" lon="1.7915097"><ele>269.0</ele><time>2026-04-25T11:25:47.891Z</time></trkpt><trkpt lat="41.7779634" lon="1.7917238"><ele>270.0</ele><time>2026-04-25T11:25:48.891Z</time></trkpt><trkpt lat="41.7779789" lon="1.7919397"><ele>272.6666666666667</ele><time>2026-04-25T11:25:49.891Z</time></trkpt><trkpt lat="41.777988" lon="1.792161"><ele>275.33333333333337</ele><time>2026-04-25T11:25:50.891Z</time></trkpt><trkpt lat="41.77798" lon="1.792389"><ele>278.0</ele><time>2026-04-25T11:25:51.89Z</time></trkpt><trkpt lat="41.7779501" lon="1.7926158"><ele>280.0</ele><time>2026-04-25T11:25:52.892Z</time></trkpt><trkpt lat="41.7779055" lon="1.7928496"><ele>282.0</ele><time>2026-04-25T11:25:53.891Z</time></trkpt><trkpt lat="41.7778529" lon="1.7930819"><ele>284.0</ele><time>2026-04-25T11:25:54.892Z</time></trkpt><trkpt lat="41.7778044" lon="1.7933192"><ele>285.0</ele><time>2026-04-25T11:25:55.891Z</time></trkpt><trkpt lat="41.7777561" lon="1.7935639"><ele>286.0</ele><time>2026-04-25T11:25:56.891Z</time></trkpt><trkpt lat="41.777703" lon="1.7938159"><ele>287.0</ele><time>2026-04-25T11:25:57.892Z</time></trkpt><trkpt lat="41.777648" lon="1.7940732"><ele>288.6666666666667</ele><time>2026-04-25T11:25:58.891Z</time></trkpt><trkpt lat="41.777591" lon="1.7943341"><ele>290.3333333333333</ele><time>2026-04-25T11:25:59.891Z</time></trkpt><trkpt lat="41.7775367" lon="1.7946"><ele>292.0</ele><time>2026-04-25T11:26:00.891Z</time></trkpt><trkpt lat="41.7774812" lon="1.7948642"><ele>293.3333333333333</ele><time>2026-04-25T11:26:01.891Z</time></trkpt><trkpt lat="41.7774288" lon="1.7951251"><ele>294.6666666666667</ele><time>2026-04-25T11:26:02.891Z</time></trkpt><trkpt lat="41.7773741" lon="1.7953721"><ele>296.0</ele><time>2026-04-25T11:26:03.891Z</time></trkpt><trkpt lat="41.777324" lon="1.795602"><ele>296.0</ele><time>2026-04-25T11:26:04.892Z</time></trkpt><trkpt lat="41.7772729" lon="1.7958327"><ele>296.0</ele><time>2026-04-25T11:26:05.891Z</time></trkpt><trkpt lat="41.7772275" lon="1.7960617"><ele>296.0</ele><time>2026-04-25T11:26:06.891Z</time></trkpt><trkpt lat="41.7771878" lon="1.7962859"><ele>296.0</ele><time>2026-04-25T11:26:07.891Z</time></trkpt><trkpt lat="41.7771614" lon="1.7964999"><ele>296.0</ele><time>2026-04-25T11:26:08.892Z</time></trkpt><trkpt lat="41.7771569" lon="1.7967211"><ele>296.0</ele><time>2026-04-25T11:26:09.89Z</time></trkpt><trkpt lat="41.7771803" lon="1.796954"><ele>296.0</ele><time>2026-04-25T11:26:10.892Z</time></trkpt><trkpt lat="41.7772236" lon="1.7971973"><ele>296.0</ele><time>2026-04-25T11:26:11.89Z</time></trkpt><trkpt lat="41.7772795" lon="1.7974538"><ele>296.0</ele><time>2026-04-25T11:26:12.891Z</time></trkpt><trkpt lat="41.7773441" lon="1.797717"><ele>295.0</ele><time>2026-04-25T11:26:13.892Z</time></trkpt><trkpt lat="41.7774153" lon="1.7979863"><ele>294.0</ele><time>2026-04-25T11:26:14.89Z</time></trkpt><trkpt lat="41.7774877" lon="1.7982594"><ele>293.0</ele><time>2026-04-25T11:26:15.891Z</time></trkpt><trkpt lat="41.7775614" lon="1.7985326"><ele>292.6666666666667</ele><time>2026-04-25T11:26:16.892Z</time></trkpt><trkpt lat="41.7776316" lon="1.7988016"><ele>292.3333333333333</ele><time>2026-04-25T11:26:17.89Z</time></trkpt><trkpt lat="41.7777034" lon="1.799075"><ele>292.0</ele><time>2026-04-25T11:26:18.891Z</time></trkpt><trkpt lat="41.7777778" lon="1.7993539"><ele>293.3333333333333</ele><time>2026-04-25T11:26:19.891Z</time></trkpt><trkpt lat="41.7778526" lon="1.7996344"><ele>294.6666666666667</ele><time>2026-04-25T11:26:20.891Z</time></trkpt><trkpt lat="41.7779261" lon="1.7999096"><ele>296.0</ele><time>2026-04-25T11:26:21.891Z</time></trkpt><trkpt lat="41.7779976" lon="1.8001722"><ele>296.0</ele><time>2026-04-25T11:26:22.891Z</time></trkpt><trkpt lat="41.7780644" lon="1.8004188"><ele>296.0</ele><time>2026-04-25T11:26:23.891Z</time></trkpt><trkpt lat="41.7781274" lon="1.8006505"><ele>296.0</ele><time>2026-04-25T11:26:24.891Z</time></trkpt><trkpt lat="41.7781839" lon="1.8008665"><ele>295.5</ele><time>2026-04-25T11:26:25.892Z</time></trkpt><trkpt lat="41.7782312" lon="1.8010633"><ele>295.0</ele><time>2026-04-25T11:26:26.891Z</time></trkpt><trkpt lat="41.7782721" lon="1.8012439"><ele>294.5</ele><time>2026-04-25T11:26:27.892Z</time></trkpt><trkpt lat="41.7782997" lon="1.8014103"><ele>294.0</ele><time>2026-04-25T11:26:28.891Z</time></trkpt><trkpt lat="41.778322" lon="1.8015631"><ele>294.0</ele><time>2026-04-25T11:26:29.89Z</time></trkpt><trkpt lat="41.7783392" lon="1.8016984"><ele>294.0</ele><time>2026-04-25T11:26:30.892Z</time></trkpt><trkpt lat="41.7783539" lon="1.8018229"><ele>294.0</ele><time>2026-04-25T11:26:31.89Z</time></trkpt><trkpt lat="41.7783653" lon="1.8019342"><ele>294.0</ele><time>2026-04-25T11:26:32.89Z</time></trkpt><trkpt lat="41.7783773" lon="1.8020386"><ele>294.0</ele><time>2026-04-25T11:26:33.89Z</time></trkpt><trkpt lat="41.7783853" lon="1.8021252"><ele>294.0</ele><time>2026-04-25T11:26:34.892Z</time></trkpt><trkpt lat="41.7783957" lon="1.8022664"><ele>294.0</ele><time>2026-04-25T11:26:36.891Z</time></trkpt><trkpt lat="41.7784051" lon="1.8023835"><ele>294.0</ele><time>2026-04-25T11:26:38.891Z</time></trkpt><trkpt lat="41.7784196" lon="1.8024836"><ele>294.0</ele><time>2026-04-25T11:26:41.891Z</time></trkpt><trkpt lat="41.7783905" lon="1.8025624"><ele>294.0</ele><time>2026-04-25T11:29:27.891Z</time></trkpt><trkpt lat="41.7784376" lon="1.8026758"><ele>294.0</ele><time>2026-04-25T11:36:32.889Z</time></trkpt><trkpt lat="41.7784935" lon="1.8027685"><ele>294.0</ele><time>2026-04-25T11:36:34.888Z</time></trkpt><trkpt lat="41.7785369" lon="1.8028446"><ele>294.3333333333333</ele><time>2026-04-25T11:36:36.889Z</time></trkpt><trkpt lat="41.778576" lon="1.8029212"><ele>294.6666666666667</ele><time>2026-04-25T11:36:46.889Z</time></trkpt><trkpt lat="41.7786434" lon="1.8030215"><ele>295.0</ele><time>2026-04-25T11:36:48.89Z</time></trkpt><trkpt lat="41.7787075" lon="1.8031213"><ele>295.33333333333337</ele><time>2026-04-25T11:36:50.89Z</time></trkpt><trkpt lat="41.778746" lon="1.8031944"><ele>295.6666666666667</ele><time>2026-04-25T11:36:52.889Z</time></trkpt><trkpt lat="41.7787967" lon="1.8032824"><ele>296.0</ele><time>2026-04-25T11:36:54.889Z</time></trkpt><trkpt lat="41.7788373" lon="1.8033624"><ele>296.0</ele><time>2026-04-25T11:36:55.89Z</time></trkpt><trkpt lat="41.7788651" lon="1.8034583"><ele>296.0</ele><time>2026-04-25T11:36:56.889Z</time></trkpt><trkpt lat="41.7788873" lon="1.80358"><ele>296.0</ele><time>2026-04-25T11:36:57.89Z</time></trkpt><trkpt lat="41.7789028" lon="1.8037303"><ele>296.0</ele><time>2026-04-25T11:36:58.89Z</time></trkpt><trkpt lat="41.7789128" lon="1.8038957"><ele>296.0</ele><time>2026-04-25T11:36:59.89Z</time></trkpt><trkpt lat="41.7789218" lon="1.8040763"><ele>296.0</ele><time>2026-04-25T11:37:00.89Z</time></trkpt><trkpt lat="41.7789283" lon="1.8042828"><ele>296.0</ele><time>2026-04-25T11:37:01.889Z</time></trkpt><trkpt lat="41.7789348" lon="1.8045172"><ele>296.0</ele><time>2026-04-25T11:37:02.89Z</time></trkpt><trkpt lat="41.7789431" lon="1.8047666"><ele>295.0</ele><time>2026-04-25T11:37:03.888Z</time></trkpt><trkpt lat="41.7789527" lon="1.8050416"><ele>294.0</ele><time>2026-04-25T11:37:04.89Z</time></trkpt><trkpt lat="41.7789635" lon="1.8053432"><ele>293.0</ele><time>2026-04-25T11:37:05.889Z</time></trkpt><trkpt lat="41.7789741" lon="1.8056619"><ele>291.5</ele><time>2026-04-25T11:37:06.889Z</time></trkpt><trkpt lat="41.7789838" lon="1.8059859"><ele>290.0</ele><time>2026-04-25T11:37:07.89Z</time></trkpt><trkpt lat="41.7789944" lon="1.8063196"><ele>288.5</ele><time>2026-04-25T11:37:08.889Z</time></trkpt><trkpt lat="41.7790089" lon="1.8066707"><ele>287.0</ele><time>2026-04-25T11:37:09.89Z</time></trkpt><trkpt lat="41.7790214" lon="1.8070312"><ele>286.5</ele><time>2026-04-25T11:37:10.888Z</time></trkpt><trkpt lat="41.7790328" lon="1.8073959"><ele>286.0</ele><time>2026-04-25T11:37:11.888Z</time></trkpt><trkpt lat="41.7790431" lon="1.8077621"><ele>286.0</ele><time>2026-04-25T11:37:12.889Z</time></trkpt><trkpt lat="41.7790556" lon="1.8081304"><ele>286.0</ele><time>2026-04-25T11:37:13.888Z</time></trkpt><trkpt lat="41.779066" lon="1.8084913"><ele>288.0</ele><time>2026-04-25T11:37:14.89Z</time></trkpt><trkpt lat="41.7790775" lon="1.8088466"><ele>290.0</ele><time>2026-04-25T11:37:15.888Z</time></trkpt><trkpt lat="41.7790889" lon="1.8091987"><ele>291.0</ele><time>2026-04-25T11:37:16.889Z</time></trkpt><trkpt lat="41.7791005" lon="1.8095462"><ele>292.0</ele><time>2026-04-25T11:37:17.89Z</time></trkpt><trkpt lat="41.7791099" lon="1.8098842"><ele>292.5</ele><time>2026-04-25T11:37:18.888Z</time></trkpt><trkpt lat="41.7791211" lon="1.8102163"><ele>293.0</ele><time>2026-04-25T11:37:19.889Z</time></trkpt><trkpt lat="41.7791324" lon="1.8105506"><ele>293.0</ele><time>2026-04-25T11:37:20.889Z</time></trkpt><trkpt lat="41.7791426" lon="1.8108886"><ele>293.0</ele><time>2026-04-25T11:37:21.89Z</time></trkpt><trkpt lat="41.7791525" lon="1.8112264"><ele>292.5</ele><time>2026-04-25T11:37:22.889Z</time></trkpt><trkpt lat="41.7791666" lon="1.811565"><ele>292.0</ele><time>2026-04-25T11:37:23.889Z</time></trkpt><trkpt lat="41.7791797" lon="1.8119028"><ele>291.0</ele><time>2026-04-25T11:37:24.888Z</time></trkpt><trkpt lat="41.7791876" lon="1.8122366"><ele>290.0</ele><time>2026-04-25T11:37:25.889Z</time></trkpt><trkpt lat="41.7791963" lon="1.812569"><ele>289.0</ele><time>2026-04-25T11:37:26.89Z</time></trkpt><trkpt lat="41.7792074" lon="1.8128918"><ele>288.0</ele><time>2026-04-25T11:37:27.889Z</time></trkpt><trkpt lat="41.7792237" lon="1.8132338"><ele>287.0</ele><time>2026-04-25T11:37:28.888Z</time></trkpt><trkpt lat="41.7792459" lon="1.8136023"><ele>286.0</ele><time>2026-04-25T11:37:29.889Z</time></trkpt><trkpt lat="41.779263" lon="1.8139925"><ele>287.5</ele><time>2026-04-25T11:37:30.888Z</time></trkpt><trkpt lat="41.7792702" lon="1.8143953"><ele>289.0</ele><time>2026-04-25T11:37:31.889Z</time></trkpt><trkpt lat="41.7792701" lon="1.8147972"><ele>291.5</ele><time>2026-04-25T11:37:32.888Z</time></trkpt><trkpt lat="41.7792756" lon="1.8151972"><ele>294.0</ele><time>2026-04-25T11:37:33.889Z</time></trkpt><trkpt lat="41.7792904" lon="1.8155885"><ele>294.0</ele><time>2026-04-25T11:37:34.889Z</time></trkpt><trkpt lat="41.7793034" lon="1.8159705"><ele>294.0</ele><time>2026-04-25T11:37:35.89Z</time></trkpt><trkpt lat="41.7793164" lon="1.816347"><ele>294.0</ele><time>2026-04-25T11:37:36.888Z</time></trkpt><trkpt lat="41.7793317" lon="1.8167183"><ele>294.0</ele><time>2026-04-25T11:37:37.889Z</time></trkpt><trkpt lat="41.7793451" lon="1.8170893"><ele>296.0</ele><time>2026-04-25T11:37:38.89Z</time></trkpt><trkpt lat="41.7793577" lon="1.8174609"><ele>298.0</ele><time>2026-04-25T11:37:39.889Z</time></trkpt><trkpt lat="41.7793673" lon="1.8178285"><ele>298.0</ele><time>2026-04-25T11:37:40.89Z</time></trkpt><trkpt lat="41.7793767" lon="1.8181897"><ele>298.0</ele><time>2026-04-25T11:37:41.889Z</time></trkpt><trkpt lat="41.7793877" lon="1.8185366"><ele>298.0</ele><time>2026-04-25T11:37:42.889Z</time></trkpt><trkpt lat="41.7793994" lon="1.8188674"><ele>298.0</ele><time>2026-04-25T11:37:43.889Z</time></trkpt><trkpt lat="41.7794106" lon="1.8191904"><ele>299.5</ele><time>2026-04-25T11:37:44.89Z</time></trkpt><trkpt lat="41.7794198" lon="1.8195148"><ele>301.0</ele><time>2026-04-25T11:37:45.89Z</time></trkpt><trkpt lat="41.7794286" lon="1.8198444"><ele>300.5</ele><time>2026-04-25T11:37:46.889Z</time></trkpt><trkpt lat="41.7794397" lon="1.8201864"><ele>300.0</ele><time>2026-04-25T11:37:47.889Z</time></trkpt><trkpt lat="41.7794499" lon="1.8205365"><ele>300.0</ele><time>2026-04-25T11:37:48.889Z</time></trkpt><trkpt lat="41.7794609" lon="1.8208894"><ele>300.0</ele><time>2026-04-25T11:37:49.889Z</time></trkpt><trkpt lat="41.7794719" lon="1.8212424"><ele>297.5</ele><time>2026-04-25T11:37:50.889Z</time></trkpt><trkpt lat="41.7794836" lon="1.8215966"><ele>295.0</ele><time>2026-04-25T11:37:51.889Z</time></trkpt><trkpt lat="41.7794965" lon="1.8219561"><ele>294.0</ele><time>2026-04-25T11:37:52.888Z</time></trkpt><trkpt lat="41.7795074" lon="1.8223176"><ele>293.0</ele><time>2026-04-25T11:37:53.888Z</time></trkpt><trkpt lat="41.7795167" lon="1.822686"><ele>293.0</ele><time>2026-04-25T11:37:54.888Z</time></trkpt><trkpt lat="41.779526" lon="1.8230558"><ele>293.0</ele><time>2026-04-25T11:37:55.89Z</time></trkpt><trkpt lat="41.779535" lon="1.8234272"><ele>295.5</ele><time>2026-04-25T11:37:56.889Z</time></trkpt><trkpt lat="41.7795472" lon="1.823802"><ele>298.0</ele><time>2026-04-25T11:37:57.889Z</time></trkpt><trkpt lat="41.7795595" lon="1.824169"><ele>300.0</ele><time>2026-04-25T11:37:58.889Z</time></trkpt><trkpt lat="41.7795706" lon="1.8245283"><ele>302.0</ele><time>2026-04-25T11:37:59.89Z</time></trkpt><trkpt lat="41.7795803" lon="1.8248789"><ele>303.5</ele><time>2026-04-25T11:38:00.889Z</time></trkpt><trkpt lat="41.7795933" lon="1.8252226"><ele>305.0</ele><time>2026-04-25T11:38:01.889Z</time></trkpt><trkpt lat="41.7796036" lon="1.8255638"><ele>305.0</ele><time>2026-04-25T11:38:02.888Z</time></trkpt><trkpt lat="41.7796144" lon="1.8259066"><ele>305.0</ele><time>2026-04-25T11:38:03.889Z</time></trkpt><trkpt lat="41.7796245" lon="1.8262484"><ele>305.5</ele><time>2026-04-25T11:38:04.888Z</time></trkpt><trkpt lat="41.779634" lon="1.8265919"><ele>306.0</ele><time>2026-04-25T11:38:05.889Z</time></trkpt><trkpt lat="41.7796435" lon="1.8269334"><ele>306.0</ele><time>2026-04-25T11:38:06.889Z</time></trkpt><trkpt lat="41.7796549" lon="1.8272757"><ele>306.0</ele><time>2026-04-25T11:38:07.889Z</time></trkpt><trkpt lat="41.7796665" lon="1.8276144"><ele>307.0</ele><time>2026-04-25T11:38:08.89Z</time></trkpt><trkpt lat="41.7796756" lon="1.8279513"><ele>308.0</ele><time>2026-04-25T11:38:09.889Z</time></trkpt><trkpt lat="41.779686" lon="1.8282773"><ele>308.6666666666667</ele><time>2026-04-25T11:38:10.889Z</time></trkpt><trkpt lat="41.7796952" lon="1.8285863"><ele>309.3333333333333</ele><time>2026-04-25T11:38:11.889Z</time></trkpt><trkpt lat="41.7797022" lon="1.8288744"><ele>310.0</ele><time>2026-04-25T11:38:12.889Z</time></trkpt><trkpt lat="41.7797052" lon="1.829153"><ele>311.66666666666663</ele><time>2026-04-25T11:38:13.889Z</time></trkpt><trkpt lat="41.779698" lon="1.8294131"><ele>313.3333333333333</ele><time>2026-04-25T11:38:14.888Z</time></trkpt><trkpt lat="41.7796802" lon="1.8296683"><ele>315.0</ele><time>2026-04-25T11:38:15.889Z</time></trkpt><trkpt lat="41.7796514" lon="1.8299246"><ele>316.3333333333333</ele><time>2026-04-25T11:38:16.889Z</time></trkpt><trkpt lat="41.7796156" lon="1.8301792"><ele>317.66666666666663</ele><time>2026-04-25T11:38:17.889Z</time></trkpt><trkpt lat="41.7795812" lon="1.8304265"><ele>319.0</ele><time>2026-04-25T11:38:18.888Z</time></trkpt><trkpt lat="41.7795502" lon="1.8306626"><ele>319.0</ele><time>2026-04-25T11:38:19.889Z</time></trkpt><trkpt lat="41.7795227" lon="1.8308834"><ele>319.0</ele><time>2026-04-25T11:38:20.889Z</time></trkpt><trkpt lat="41.7795039" lon="1.8310852"><ele>319.0</ele><time>2026-04-25T11:38:21.889Z</time></trkpt><trkpt lat="41.7794978" lon="1.8312654"><ele>319.2</ele><time>2026-04-25T11:38:22.889Z</time></trkpt><trkpt lat="41.7795074" lon="1.8314316"><ele>319.4</ele><time>2026-04-25T11:38:23.889Z</time></trkpt><trkpt lat="41.7795281" lon="1.8315795"><ele>319.6</ele><time>2026-04-25T11:38:24.89Z</time></trkpt><trkpt lat="41.7795491" lon="1.8317035"><ele>319.8</ele><time>2026-04-25T11:38:25.889Z</time></trkpt><trkpt lat="41.7795574" lon="1.831795"><ele>320.0</ele><time>2026-04-25T11:38:26.89Z</time></trkpt><trkpt lat="41.7795182" lon="1.8319135"><ele>320.0</ele><time>2026-04-25T11:38:28.889Z</time></trkpt><trkpt lat="41.7794486" lon="1.8319212"><ele>320.0</ele><time>2026-04-25T11:38:30.889Z</time></trkpt><trkpt lat="41.7794169" lon="1.8318344"><ele>320.0</ele><time>2026-04-25T11:38:32.889Z</time></trkpt><trkpt lat="41.7794137" lon="1.8316956"><ele>320.0</ele><time>2026-04-25T11:38:34.888Z</time></trkpt><trkpt lat="41.7793965" lon="1.8315542"><ele>320.0</ele><time>2026-04-25T11:38:36.889Z</time></trkpt><trkpt lat="41.7793862" lon="1.8314024"><ele>320.0</ele><time>2026-04-25T11:38:38.889Z</time></trkpt><trkpt lat="41.7793851" lon="1.8312409"><ele>320.0</ele><time>2026-04-25T11:38:40.889Z</time></trkpt><trkpt lat="41.7793834" lon="1.8310882"><ele>320.0</ele><time>2026-04-25T11:38:42.89Z</time></trkpt><trkpt lat="41.7793829" lon="1.8309588"><ele>320.0</ele><time>2026-04-25T11:38:44.89Z</time></trkpt><trkpt lat="41.7793474" lon="1.8308628"><ele>320.0</ele><time>2026-04-25T11:38:46.889Z</time></trkpt><trkpt lat="41.7792622" lon="1.8308296"><ele>320.0</ele><time>2026-04-25T11:38:48.889Z</time></trkpt><trkpt lat="41.7791531" lon="1.8308628"><ele>320.0</ele><time>2026-04-25T11:38:50.89Z</time></trkpt><trkpt lat="41.7790416" lon="1.8308997"><ele>320.0</ele><time>2026-04-25T11:38:52.89Z</time></trkpt><trkpt lat="41.7789387" lon="1.8308944"><ele>320.0</ele><time>2026-04-25T11:38:54.89Z</time></trkpt><trkpt lat="41.7788439" lon="1.830888"><ele>320.0</ele><time>2026-04-25T11:38:56.889Z</time></trkpt><trkpt lat="41.778762" lon="1.8309059"><ele>320.0</ele><time>2026-04-25T11:38:58.889Z</time></trkpt><trkpt lat="41.7786969" lon="1.8309678"><ele>320.0</ele><time>2026-04-25T11:39:00.889Z</time></trkpt><trkpt lat="41.7786652" lon="1.8310551"><ele>323.0</ele><time>2026-04-25T11:39:02.889Z</time></trkpt><trkpt lat="41.7786597" lon="1.8311622"><ele>323.0</ele><time>2026-04-25T11:39:05.888Z</time></trkpt><trkpt lat="41.7786882" lon="1.8312458"><ele>323.0</ele><time>2026-04-25T11:39:08.889Z</time></trkpt><trkpt lat="41.778737" lon="1.8313036"><ele>323.0</ele><time>2026-04-25T11:39:13.89Z</time></trkpt></trkseg></trk></gpx>